﻿<?xml version="1.0" encoding="utf-8"?><gpx creator="Garmin Desktop App" version="1.1" xsi:schemaLocation="http://www.topografix.com/GPX/1/1 http://www.topografix.com/GPX/1/1/gpx.xsd http://www.garmin.com/xmlschemas/WaypointExtension/v1 http://www8.garmin.com/xmlschemas/WaypointExtensionv1.xsd http://www.garmin.com/xmlschemas/TrackPointExtension/v1 http://www.garmin.com/xmlschemas/TrackPointExtensionv1.xsd http://www.garmin.com/xmlschemas/GpxExtensions/v3 http://www8.garmin.com/xmlschemas/GpxExtensionsv3.xsd http://www.garmin.com/xmlschemas/ActivityExtension/v1 http://www8.garmin.com/xmlschemas/ActivityExtensionv1.xsd http://www.garmin.com/xmlschemas/AdventuresExtensions/v1 http://www8.garmin.com/xmlschemas/AdventuresExtensionv1.xsd http://www.garmin.com/xmlschemas/PressureExtension/v1 http://www.garmin.com/xmlschemas/PressureExtensionv1.xsd http://www.garmin.com/xmlschemas/TripExtensions/v1 http://www.garmin.com/xmlschemas/TripExtensionsv1.xsd http://www.garmin.com/xmlschemas/TripMetaDataExtensions/v1 http://www.garmin.com/xmlschemas/TripMetaDataExtensionsv1.xsd http://www.garmin.com/xmlschemas/ViaPointTransportationModeExtensions/v1 http://www.garmin.com/xmlschemas/ViaPointTransportationModeExtensionsv1.xsd http://www.garmin.com/xmlschemas/CreationTimeExtension/v1 http://www.garmin.com/xmlschemas/CreationTimeExtensionsv1.xsd http://www.garmin.com/xmlschemas/AccelerationExtension/v1 http://www.garmin.com/xmlschemas/AccelerationExtensionv1.xsd http://www.garmin.com/xmlschemas/PowerExtension/v1 http://www.garmin.com/xmlschemas/PowerExtensionv1.xsd http://www.garmin.com/xmlschemas/VideoExtension/v1 http://www.garmin.com/xmlschemas/VideoExtensionv1.xsd" xmlns="http://www.topografix.com/GPX/1/1" xmlns:xsi="http://www.w3.org/2001/XMLSchema-instance" xmlns:wptx1="http://www.garmin.com/xmlschemas/WaypointExtension/v1" xmlns:gpxtrx="http://www.garmin.com/xmlschemas/GpxExtensions/v3" xmlns:gpxtpx="http://www.garmin.com/xmlschemas/TrackPointExtension/v1" xmlns:gpxx="http://www.garmin.com/xmlschemas/GpxExtensions/v3" xmlns:trp="http://www.garmin.com/xmlschemas/TripExtensions/v1" xmlns:adv="http://www.garmin.com/xmlschemas/AdventuresExtensions/v1" xmlns:prs="http://www.garmin.com/xmlschemas/PressureExtension/v1" xmlns:tmd="http://www.garmin.com/xmlschemas/TripMetaDataExtensions/v1" xmlns:vptm="http://www.garmin.com/xmlschemas/ViaPointTransportationModeExtensions/v1" xmlns:ctx="http://www.garmin.com/xmlschemas/CreationTimeExtension/v1" xmlns:gpxacc="http://www.garmin.com/xmlschemas/AccelerationExtension/v1" xmlns:gpxpx="http://www.garmin.com/xmlschemas/PowerExtension/v1" xmlns:vidx1="http://www.garmin.com/xmlschemas/VideoExtension/v1">

  <metadata>
    <link href="http://www.garmin.com">
      <text>Garmin International</text>
    </link>
    <time>2023-08-24T19:50:17Z</time>
    <bounds maxlat="58.576120035722852" maxlon="-4.363073967397213" minlat="57.96780701726675" minlon="-5.426148986443877" />
  </metadata>

  <trk>
    <name>Track vom: 2023-08-24 09:04</name>
    <extensions>
      <gpxx:TrackExtension>
        <gpxx:DisplayColor>DarkGray</gpxx:DisplayColor>
      </gpxx:TrackExtension>
    </extensions>
    <trkseg>
      <trkpt lat="57.977977031841874" lon="-4.565904960036278">
        <ele>66.950000000000003</ele>
        <time>2023-08-24T08:04:46Z</time>
      </trkpt>
      <trkpt lat="57.978008966892958" lon="-4.565922981128097">
        <ele>79.450000000000003</ele>
        <time>2023-08-24T08:05:09Z</time>
      </trkpt>
      <trkpt lat="57.977964961901307" lon="-4.56584201194346">
        <ele>74.159999999999997</ele>
        <time>2023-08-24T08:05:56Z</time>
      </trkpt>
      <trkpt lat="57.977968985214829" lon="-4.565846035256982">
        <ele>69.349999999999994</ele>
        <time>2023-08-24T08:06:33Z</time>
      </trkpt>
      <trkpt lat="57.977968985214829" lon="-4.565847963094711">
        <ele>69.349999999999994</ele>
        <time>2023-08-24T08:07:20Z</time>
      </trkpt>
      <trkpt lat="57.977968985214829" lon="-4.565847963094711">
        <ele>69.349999999999994</ele>
        <time>2023-08-24T08:07:30Z</time>
      </trkpt>
      <trkpt lat="57.977996980771422" lon="-4.565488966181874">
        <ele>68.390000000000001</ele>
        <time>2023-08-24T08:07:39Z</time>
      </trkpt>
      <trkpt lat="57.978045009076595" lon="-4.565416965633631">
        <ele>68.870000000000005</ele>
        <time>2023-08-24T08:07:42Z</time>
      </trkpt>
      <trkpt lat="57.977960016578436" lon="-4.564882032573223">
        <ele>66.950000000000003</ele>
        <time>2023-08-24T08:07:48Z</time>
      </trkpt>
      <trkpt lat="57.977886004373431" lon="-4.564624037593603">
        <ele>66.469999999999999</ele>
        <time>2023-08-24T08:07:50Z</time>
      </trkpt>
      <trkpt lat="57.977815009653568" lon="-4.564310973510146">
        <ele>65.989999999999995</ele>
        <time>2023-08-24T08:07:52Z</time>
      </trkpt>
      <trkpt lat="57.977616023272276" lon="-4.562525963410735">
        <ele>66.469999999999999</ele>
        <time>2023-08-24T08:08:01Z</time>
      </trkpt>
      <trkpt lat="57.97762599773705" lon="-4.56232002004981">
        <ele>66.469999999999999</ele>
        <time>2023-08-24T08:08:02Z</time>
      </trkpt>
      <trkpt lat="57.977676959708333" lon="-4.561265995725989">
        <ele>68.390000000000001</ele>
        <time>2023-08-24T08:08:07Z</time>
      </trkpt>
      <trkpt lat="57.977590039372444" lon="-4.55967603251338">
        <ele>72.719999999999999</ele>
        <time>2023-08-24T08:08:14Z</time>
      </trkpt>
      <trkpt lat="57.977573024109006" lon="-4.559434968978167">
        <ele>73.200000000000003</ele>
        <time>2023-08-24T08:08:15Z</time>
      </trkpt>
      <trkpt lat="57.977489959448576" lon="-4.558234009891748">
        <ele>77.040000000000006</ele>
        <time>2023-08-24T08:08:20Z</time>
      </trkpt>
      <trkpt lat="57.977440003305674" lon="-4.557522973045707">
        <ele>79.450000000000003</ele>
        <time>2023-08-24T08:08:23Z</time>
      </trkpt>
      <trkpt lat="57.977528013288975" lon="-4.554913016036153">
        <ele>88.099999999999994</ele>
        <time>2023-08-24T08:08:33Z</time>
      </trkpt>
      <trkpt lat="57.977750971913338" lon="-4.55254202708602">
        <ele>96.269999999999996</ele>
        <time>2023-08-24T08:08:42Z</time>
      </trkpt>
      <trkpt lat="57.977750971913338" lon="-4.5522650051862">
        <ele>96.75</ele>
        <time>2023-08-24T08:08:43Z</time>
      </trkpt>
      <trkpt lat="57.977750971913338" lon="-4.550948040559888">
        <ele>97.709999999999994</ele>
        <time>2023-08-24T08:08:48Z</time>
      </trkpt>
      <trkpt lat="57.977759018540382" lon="-4.550745030865073">
        <ele>97.709999999999994</ele>
        <time>2023-08-24T08:08:49Z</time>
      </trkpt>
      <trkpt lat="57.977820038795471" lon="-4.550598012283444">
        <ele>98.189999999999998</ele>
        <time>2023-08-24T08:08:50Z</time>
      </trkpt>
      <trkpt lat="57.977902013808489" lon="-4.550448982045054">
        <ele>98.670000000000002</ele>
        <time>2023-08-24T08:08:51Z</time>
      </trkpt>
      <trkpt lat="57.977999998256564" lon="-4.550319984555244">
        <ele>98.670000000000002</ele>
        <time>2023-08-24T08:08:52Z</time>
      </trkpt>
      <trkpt lat="57.978272996842861" lon="-4.549960987642407">
        <ele>100.11</ele>
        <time>2023-08-24T08:08:55Z</time>
      </trkpt>
      <trkpt lat="57.978350026533008" lon="-4.549806006252766">
        <ele>100.59999999999999</ele>
        <time>2023-08-24T08:08:56Z</time>
      </trkpt>
      <trkpt lat="57.97839998267591" lon="-4.549606014043093">
        <ele>100.59999999999999</ele>
        <time>2023-08-24T08:08:57Z</time>
      </trkpt>
      <trkpt lat="57.978450022637844" lon="-4.54940602183342">
        <ele>101.08</ele>
        <time>2023-08-24T08:08:58Z</time>
      </trkpt>
      <trkpt lat="57.978500984609127" lon="-4.54919102601707">
        <ele>101.08</ele>
        <time>2023-08-24T08:08:59Z</time>
      </trkpt>
      <trkpt lat="57.978482041507959" lon="-4.548968989402056">
        <ele>101.08</ele>
        <time>2023-08-24T08:09:00Z</time>
      </trkpt>
      <trkpt lat="57.97846301458776" lon="-4.548750976100564">
        <ele>101.08</ele>
        <time>2023-08-24T08:09:01Z</time>
      </trkpt>
      <trkpt lat="57.978444993495941" lon="-4.548532962799072">
        <ele>101.08</ele>
        <time>2023-08-24T08:09:02Z</time>
      </trkpt>
      <trkpt lat="57.978407023474574" lon="-4.54809601418674">
        <ele>102.04000000000001</ele>
        <time>2023-08-24T08:09:04Z</time>
      </trkpt>
      <trkpt lat="57.978395959362388" lon="-4.547885963693261">
        <ele>102.52</ele>
        <time>2023-08-24T08:09:05Z</time>
      </trkpt>
      <trkpt lat="57.978410040959716" lon="-4.547149026766419">
        <ele>103</ele>
        <time>2023-08-24T08:09:08Z</time>
      </trkpt>
      <trkpt lat="57.978414986282587" lon="-4.54689203761518">
        <ele>103</ele>
        <time>2023-08-24T08:09:09Z</time>
      </trkpt>
      <trkpt lat="57.978375004604459" lon="-4.546631025150418">
        <ele>103</ele>
        <time>2023-08-24T08:09:10Z</time>
      </trkpt>
      <trkpt lat="57.978323036804795" lon="-4.54639800824225">
        <ele>103</ele>
        <time>2023-08-24T08:09:11Z</time>
      </trkpt>
      <trkpt lat="57.978272996842861" lon="-4.546170020475984">
        <ele>103</ele>
        <time>2023-08-24T08:09:12Z</time>
      </trkpt>
      <trkpt lat="57.978222034871578" lon="-4.545943038538098">
        <ele>103</ele>
        <time>2023-08-24T08:09:13Z</time>
      </trkpt>
      <trkpt lat="57.978169983252883" lon="-4.545708009973168">
        <ele>103.48</ele>
        <time>2023-08-24T08:09:14Z</time>
      </trkpt>
      <trkpt lat="57.978130001574755" lon="-4.545463006943464">
        <ele>103.48</ele>
        <time>2023-08-24T08:09:15Z</time>
      </trkpt>
      <trkpt lat="57.978092031553388" lon="-4.545207023620606">
        <ele>103.48</ele>
        <time>2023-08-24T08:09:16Z</time>
      </trkpt>
      <trkpt lat="57.978050960227847" lon="-4.544927990064025">
        <ele>103.48</ele>
        <time>2023-08-24T08:09:17Z</time>
      </trkpt>
      <trkpt lat="57.978042997419834" lon="-4.54470201395452">
        <ele>103.48</ele>
        <time>2023-08-24T08:09:18Z</time>
      </trkpt>
      <trkpt lat="57.978035034611821" lon="-4.544448964297772">
        <ele>103.48</ele>
        <time>2023-08-24T08:09:19Z</time>
      </trkpt>
      <trkpt lat="57.977987006306648" lon="-4.542420040816069">
        <ele>106.84</ele>
        <time>2023-08-24T08:09:27Z</time>
      </trkpt>
      <trkpt lat="57.977987006306648" lon="-4.542158022522926">
        <ele>107.31999999999999</ele>
        <time>2023-08-24T08:09:28Z</time>
      </trkpt>
      <trkpt lat="57.977987006306648" lon="-4.541907990351319">
        <ele>107.81</ele>
        <time>2023-08-24T08:09:29Z</time>
      </trkpt>
      <trkpt lat="57.977987006306648" lon="-4.541654018685222">
        <ele>108.77</ele>
        <time>2023-08-24T08:09:30Z</time>
      </trkpt>
      <trkpt lat="57.977987006306648" lon="-4.541392000392079">
        <ele>109.25</ele>
        <time>2023-08-24T08:09:31Z</time>
      </trkpt>
      <trkpt lat="57.978207031264901" lon="-4.538978012278676">
        <ele>118.86</ele>
        <time>2023-08-24T08:09:40Z</time>
      </trkpt>
      <trkpt lat="57.978694019839168" lon="-4.536423040553927">
        <ele>125.11</ele>
        <time>2023-08-24T08:09:50Z</time>
      </trkpt>
      <trkpt lat="57.978970035910606" lon="-4.535102974623442">
        <ele>125.59</ele>
        <time>2023-08-24T08:09:55Z</time>
      </trkpt>
      <trkpt lat="57.979010017588735" lon="-4.534842967987061">
        <ele>126.06999999999999</ele>
        <time>2023-08-24T08:09:56Z</time>
      </trkpt>
      <trkpt lat="57.979033989831805" lon="-4.534574998542666">
        <ele>126.06999999999999</ele>
        <time>2023-08-24T08:09:57Z</time>
      </trkpt>
      <trkpt lat="57.979133985936642" lon="-4.533222997561097">
        <ele>126.06999999999999</ele>
        <time>2023-08-24T08:10:02Z</time>
      </trkpt>
      <trkpt lat="57.979153012856841" lon="-4.53297195956111">
        <ele>126.06999999999999</ele>
        <time>2023-08-24T08:10:03Z</time>
      </trkpt>
      <trkpt lat="57.979159969836473" lon="-4.532710025086999">
        <ele>126.06999999999999</ele>
        <time>2023-08-24T08:10:04Z</time>
      </trkpt>
      <trkpt lat="57.979135997593403" lon="-4.532483965158463">
        <ele>125.59</ele>
        <time>2023-08-24T08:10:05Z</time>
      </trkpt>
      <trkpt lat="57.979112025350332" lon="-4.532263018190861">
        <ele>125.59</ele>
        <time>2023-08-24T08:10:06Z</time>
      </trkpt>
      <trkpt lat="57.97908796928823" lon="-4.532035030424595">
        <ele>125.11</ele>
        <time>2023-08-24T08:10:07Z</time>
      </trkpt>
      <trkpt lat="57.979048993438482" lon="-4.531794972717762">
        <ele>125.11</ele>
        <time>2023-08-24T08:10:08Z</time>
      </trkpt>
      <trkpt lat="57.97900197096169" lon="-4.531546030193567">
        <ele>125.11</ele>
        <time>2023-08-24T08:10:09Z</time>
      </trkpt>
      <trkpt lat="57.978954026475549" lon="-4.531292980536819">
        <ele>125.11</ele>
        <time>2023-08-24T08:10:10Z</time>
      </trkpt>
      <trkpt lat="57.978809019550681" lon="-4.5305220130831">
        <ele>124.63</ele>
        <time>2023-08-24T08:10:13Z</time>
      </trkpt>
      <trkpt lat="57.978759985417128" lon="-4.530265023931861">
        <ele>124.63</ele>
        <time>2023-08-24T08:10:14Z</time>
      </trkpt>
      <trkpt lat="57.978611038997769" lon="-4.529587011784315">
        <ele>123.67</ele>
        <time>2023-08-24T08:10:17Z</time>
      </trkpt>
      <trkpt lat="57.978539960458875" lon="-4.52940696850419">
        <ele>123.67</ele>
        <time>2023-08-24T08:10:18Z</time>
      </trkpt>
      <trkpt lat="57.978456979617476" lon="-4.529198007658124">
        <ele>123.19</ele>
        <time>2023-08-24T08:10:19Z</time>
      </trkpt>
      <trkpt lat="57.978351032361388" lon="-4.52908200211823">
        <ele>122.70999999999999</ele>
        <time>2023-08-24T08:10:20Z</time>
      </trkpt>
      <trkpt lat="57.978251036256552" lon="-4.528973037377">
        <ele>122.70999999999999</ele>
        <time>2023-08-24T08:10:21Z</time>
      </trkpt>
      <trkpt lat="57.978168977424502" lon="-4.528874969109893">
        <ele>121.73999999999999</ele>
        <time>2023-08-24T08:10:22Z</time>
      </trkpt>
      <trkpt lat="57.978126984089613" lon="-4.528751000761986">
        <ele>121.26000000000001</ele>
        <time>2023-08-24T08:10:23Z</time>
      </trkpt>
      <trkpt lat="57.9781190212816" lon="-4.528582021594048">
        <ele>121.73999999999999</ele>
        <time>2023-08-24T08:10:24Z</time>
      </trkpt>
      <trkpt lat="57.978159002959728" lon="-4.527008989825845">
        <ele>121.26000000000001</ele>
        <time>2023-08-24T08:10:30Z</time>
      </trkpt>
      <trkpt lat="57.978159002959728" lon="-4.526459975168109">
        <ele>120.78</ele>
        <time>2023-08-24T08:10:34Z</time>
      </trkpt>
      <trkpt lat="57.978159002959728" lon="-4.526388980448246">
        <ele>119.34</ele>
        <time>2023-08-24T08:10:39Z</time>
      </trkpt>
      <trkpt lat="57.978150034323335" lon="-4.526300970464945">
        <ele>118.86</ele>
        <time>2023-08-24T08:10:41Z</time>
      </trkpt>
      <trkpt lat="57.978074010461569" lon="-4.52555799856782">
        <ele>118.38</ele>
        <time>2023-08-24T08:10:47Z</time>
      </trkpt>
      <trkpt lat="57.977866977453232" lon="-4.523450033739209">
        <ele>122.22</ele>
        <time>2023-08-24T08:10:57Z</time>
      </trkpt>
      <trkpt lat="57.977852979674935" lon="-4.523206036537886">
        <ele>123.19</ele>
        <time>2023-08-24T08:10:58Z</time>
      </trkpt>
      <trkpt lat="57.977836970239878" lon="-4.522933959960938">
        <ele>124.15000000000001</ele>
        <time>2023-08-24T08:10:59Z</time>
      </trkpt>
      <trkpt lat="57.977877035737038" lon="-4.522702032700181">
        <ele>125.11</ele>
        <time>2023-08-24T08:11:00Z</time>
      </trkpt>
      <trkpt lat="57.977917017415166" lon="-4.522471027448773">
        <ele>126.55</ele>
        <time>2023-08-24T08:11:01Z</time>
      </trkpt>
      <trkpt lat="57.977992035448551" lon="-4.522255025804043">
        <ele>127.51000000000001</ele>
        <time>2023-08-24T08:11:02Z</time>
      </trkpt>
      <trkpt lat="57.978068981319666" lon="-4.522050004452467">
        <ele>128.94999999999999</ele>
        <time>2023-08-24T08:11:03Z</time>
      </trkpt>
      <trkpt lat="57.978150034323335" lon="-4.521834002807736">
        <ele>129.91999999999999</ele>
        <time>2023-08-24T08:11:04Z</time>
      </trkpt>
      <trkpt lat="57.978260004892945" lon="-4.521636022254825">
        <ele>131.36000000000001</ele>
        <time>2023-08-24T08:11:05Z</time>
      </trkpt>
      <trkpt lat="57.978376010432839" lon="-4.521466037258506">
        <ele>132.31999999999999</ele>
        <time>2023-08-24T08:11:06Z</time>
      </trkpt>
      <trkpt lat="57.979178996756673" lon="-4.520512009039521">
        <ele>139.05000000000001</ele>
        <time>2023-08-24T08:11:13Z</time>
      </trkpt>
      <trkpt lat="57.979240017011762" lon="-4.520399020984769">
        <ele>140.00999999999999</ele>
        <time>2023-08-24T08:11:14Z</time>
      </trkpt>
      <trkpt lat="57.97930003143847" lon="-4.52027496881783">
        <ele>140.97</ele>
        <time>2023-08-24T08:11:15Z</time>
      </trkpt>
      <trkpt lat="57.979332972317934" lon="-4.520111018791795">
        <ele>141.93000000000001</ele>
        <time>2023-08-24T08:11:16Z</time>
      </trkpt>
      <trkpt lat="57.979364991188049" lon="-4.519948996603489">
        <ele>142.88999999999999</ele>
        <time>2023-08-24T08:11:17Z</time>
      </trkpt>
      <trkpt lat="57.979382006451488" lon="-4.51975897885859">
        <ele>143.37</ele>
        <time>2023-08-24T08:11:18Z</time>
      </trkpt>
      <trkpt lat="57.979382006451488" lon="-4.51956401579082">
        <ele>144.34</ele>
        <time>2023-08-24T08:11:19Z</time>
      </trkpt>
      <trkpt lat="57.979382006451488" lon="-4.519350025802851">
        <ele>144.81999999999999</ele>
        <time>2023-08-24T08:11:20Z</time>
      </trkpt>
      <trkpt lat="57.979372031986713" lon="-4.517368040978909">
        <ele>148.18000000000001</ele>
        <time>2023-08-24T08:11:27Z</time>
      </trkpt>
      <trkpt lat="57.979246973991394" lon="-4.515143986791372">
        <ele>152.50999999999999</ele>
        <time>2023-08-24T08:11:34Z</time>
      </trkpt>
      <trkpt lat="57.979271030053496" lon="-4.514886997640133">
        <ele>152.99000000000001</ele>
        <time>2023-08-24T08:11:35Z</time>
      </trkpt>
      <trkpt lat="57.979304976761341" lon="-4.514635959640145">
        <ele>153.94999999999999</ele>
        <time>2023-08-24T08:11:36Z</time>
      </trkpt>
      <trkpt lat="57.979364991188049" lon="-4.514385005459189">
        <ele>154.43000000000001</ele>
        <time>2023-08-24T08:11:37Z</time>
      </trkpt>
      <trkpt lat="57.979434980079532" lon="-4.514148971065879">
        <ele>154.43000000000001</ele>
        <time>2023-08-24T08:11:38Z</time>
      </trkpt>
      <trkpt lat="57.979910988360643" lon="-4.511907985433936">
        <ele>159.24000000000001</ele>
        <time>2023-08-24T08:11:47Z</time>
      </trkpt>
      <trkpt lat="57.980039985850453" lon="-4.510173015296459">
        <ele>163.08000000000001</ele>
        <time>2023-08-24T08:11:54Z</time>
      </trkpt>
      <trkpt lat="57.980045014992356" lon="-4.510066984221339">
        <ele>163.56</ele>
        <time>2023-08-24T08:11:55Z</time>
      </trkpt>
      <trkpt lat="57.980060018599033" lon="-4.509677980095148">
        <ele>164.03999999999999</ele>
        <time>2023-08-24T08:11:58Z</time>
      </trkpt>
      <trkpt lat="57.980067981407046" lon="-4.509490979835391">
        <ele>164.52000000000001</ele>
        <time>2023-08-24T08:11:59Z</time>
      </trkpt>
      <trkpt lat="57.980107041075826" lon="-4.509306997060776">
        <ele>165</ele>
        <time>2023-08-24T08:12:00Z</time>
      </trkpt>
      <trkpt lat="57.980151968076825" lon="-4.509099964052439">
        <ele>165</ele>
        <time>2023-08-24T08:12:01Z</time>
      </trkpt>
      <trkpt lat="57.980201002210379" lon="-4.508878011256456">
        <ele>165.47999999999999</ele>
        <time>2023-08-24T08:12:02Z</time>
      </trkpt>
      <trkpt lat="57.980538038536906" lon="-4.507117979228497">
        <ele>169.33000000000001</ele>
        <time>2023-08-24T08:12:09Z</time>
      </trkpt>
      <trkpt lat="57.980539966374636" lon="-4.50684598647058">
        <ele>169.81</ele>
        <time>2023-08-24T08:12:10Z</time>
      </trkpt>
      <trkpt lat="57.980539966374636" lon="-4.506569970399141">
        <ele>170.28999999999999</ele>
        <time>2023-08-24T08:12:11Z</time>
      </trkpt>
      <trkpt lat="57.980539966374636" lon="-4.506283979862928">
        <ele>170.77000000000001</ele>
        <time>2023-08-24T08:12:12Z</time>
      </trkpt>
      <trkpt lat="57.980539966374636" lon="-4.506001006811857">
        <ele>171.25</ele>
        <time>2023-08-24T08:12:13Z</time>
      </trkpt>
      <trkpt lat="57.980291023850441" lon="-4.503399012610316">
        <ele>173.66</ele>
        <time>2023-08-24T08:12:22Z</time>
      </trkpt>
      <trkpt lat="57.980303009971976" lon="-4.503113022074103">
        <ele>173.66</ele>
        <time>2023-08-24T08:12:23Z</time>
      </trkpt>
      <trkpt lat="57.980314996093512" lon="-4.502833988517523">
        <ele>174.13999999999999</ele>
        <time>2023-08-24T08:12:24Z</time>
      </trkpt>
      <trkpt lat="57.98033301718533" lon="-4.502557972446084">
        <ele>174.62</ele>
        <time>2023-08-24T08:12:25Z</time>
      </trkpt>
      <trkpt lat="57.980390014126897" lon="-4.502295032143593">
        <ele>174.62</ele>
        <time>2023-08-24T08:12:26Z</time>
      </trkpt>
      <trkpt lat="57.98099996522069" lon="-4.499487010762096">
        <ele>174.62</ele>
        <time>2023-08-24T08:12:36Z</time>
      </trkpt>
      <trkpt lat="57.981680994853377" lon="-4.496687036007643">
        <ele>177.97999999999999</ele>
        <time>2023-08-24T08:12:46Z</time>
      </trkpt>
      <trkpt lat="57.982609961181879" lon="-4.493364030495286">
        <ele>184.22999999999999</ele>
        <time>2023-08-24T08:12:58Z</time>
      </trkpt>
      <trkpt lat="57.9836639855057" lon="-4.489780012518168">
        <ele>189.52000000000001</ele>
        <time>2023-08-24T08:13:11Z</time>
      </trkpt>
      <trkpt lat="57.984755979850888" lon="-4.486972996965051">
        <ele>191.91999999999999</ele>
        <time>2023-08-24T08:13:22Z</time>
      </trkpt>
      <trkpt lat="57.985572963953018" lon="-4.485173989087343">
        <ele>192.40000000000001</ele>
        <time>2023-08-24T08:13:30Z</time>
      </trkpt>
      <trkpt lat="57.985802963376045" lon="-4.484475022181869">
        <ele>193.36000000000001</ele>
        <time>2023-08-24T08:13:33Z</time>
      </trkpt>
      <trkpt lat="57.985873036086559" lon="-4.484204035252333">
        <ele>193.84</ele>
        <time>2023-08-24T08:13:34Z</time>
      </trkpt>
      <trkpt lat="57.986073028296232" lon="-4.481916027143598">
        <ele>192.88</ele>
        <time>2023-08-24T08:13:41Z</time>
      </trkpt>
      <trkpt lat="57.986290035769343" lon="-4.477589037269354">
        <ele>187.11000000000001</ele>
        <time>2023-08-24T08:13:53Z</time>
      </trkpt>
      <trkpt lat="57.986458009108901" lon="-4.475081004202366">
        <ele>184.71000000000001</ele>
        <time>2023-08-24T08:14:02Z</time>
      </trkpt>
      <trkpt lat="57.986550964415073" lon="-4.471649033948779">
        <ele>176.06</ele>
        <time>2023-08-24T08:14:12Z</time>
      </trkpt>
      <trkpt lat="57.98654199577868" lon="-4.470108021050692">
        <ele>173.16999999999999</ele>
        <time>2023-08-24T08:14:17Z</time>
      </trkpt>
      <trkpt lat="57.986569991335273" lon="-4.469840973615646">
        <ele>173.16999999999999</ele>
        <time>2023-08-24T08:14:18Z</time>
      </trkpt>
      <trkpt lat="57.986607039347291" lon="-4.469579039141536">
        <ele>173.16999999999999</ele>
        <time>2023-08-24T08:14:19Z</time>
      </trkpt>
      <trkpt lat="57.986677028238773" lon="-4.469333030283451">
        <ele>172.69</ele>
        <time>2023-08-24T08:14:20Z</time>
      </trkpt>
      <trkpt lat="57.986750034615397" lon="-4.469077968969941">
        <ele>173.16999999999999</ele>
        <time>2023-08-24T08:14:21Z</time>
      </trkpt>
      <trkpt lat="57.986848019063473" lon="-4.468847969546914">
        <ele>173.16999999999999</ele>
        <time>2023-08-24T08:14:22Z</time>
      </trkpt>
      <trkpt lat="57.986951032653451" lon="-4.468626016750932">
        <ele>173.66</ele>
        <time>2023-08-24T08:14:23Z</time>
      </trkpt>
      <trkpt lat="57.987067960202694" lon="-4.468415966257453">
        <ele>174.13999999999999</ele>
        <time>2023-08-24T08:14:24Z</time>
      </trkpt>
      <trkpt lat="57.987210033461452" lon="-4.468240030109882">
        <ele>174.62</ele>
        <time>2023-08-24T08:14:25Z</time>
      </trkpt>
      <trkpt lat="57.987356968224049" lon="-4.468057975172997">
        <ele>175.09999999999999</ele>
        <time>2023-08-24T08:14:26Z</time>
      </trkpt>
      <trkpt lat="57.988963024690747" lon="-4.465926038101316">
        <ele>175.58000000000001</ele>
        <time>2023-08-24T08:14:37Z</time>
      </trkpt>
      <trkpt lat="57.989625027403235" lon="-4.464183021336794">
        <ele>174.13999999999999</ele>
        <time>2023-08-24T08:14:44Z</time>
      </trkpt>
      <trkpt lat="57.989671966060996" lon="-4.463936006650329">
        <ele>174.13999999999999</ele>
        <time>2023-08-24T08:14:45Z</time>
      </trkpt>
      <trkpt lat="57.989710019901395" lon="-4.463699972257018">
        <ele>174.13999999999999</ele>
        <time>2023-08-24T08:14:46Z</time>
      </trkpt>
      <trkpt lat="57.989915041252971" lon="-4.462442016229034">
        <ele>173.66</ele>
        <time>2023-08-24T08:14:51Z</time>
      </trkpt>
      <trkpt lat="57.989997016265988" lon="-4.462230037897825">
        <ele>173.66</ele>
        <time>2023-08-24T08:14:52Z</time>
      </trkpt>
      <trkpt lat="57.9900879599154" lon="-4.462011018767953">
        <ele>173.16999999999999</ele>
        <time>2023-08-24T08:14:53Z</time>
      </trkpt>
      <trkpt lat="57.990854987874627" lon="-4.460257021710277">
        <ele>172.21000000000001</ele>
        <time>2023-08-24T08:15:01Z</time>
      </trkpt>
      <trkpt lat="57.991942958906293" lon="-4.458967968821526">
        <ele>166.44999999999999</ele>
        <time>2023-08-24T08:15:09Z</time>
      </trkpt>
      <trkpt lat="57.992518041282892" lon="-4.458358017727733">
        <ele>163.56</ele>
        <time>2023-08-24T08:15:15Z</time>
      </trkpt>
      <trkpt lat="57.993537029251456" lon="-4.457082040607929">
        <ele>157.31</ele>
        <time>2023-08-24T08:15:24Z</time>
      </trkpt>
      <trkpt lat="57.994736982509494" lon="-4.455423010513187">
        <ele>148.66</ele>
        <time>2023-08-24T08:15:35Z</time>
      </trkpt>
      <trkpt lat="57.99522397108376" lon="-4.454522039741278">
        <ele>145.78</ele>
        <time>2023-08-24T08:15:41Z</time>
      </trkpt>
      <trkpt lat="57.996227033436298" lon="-4.45218700915575">
        <ele>140.97</ele>
        <time>2023-08-24T08:15:51Z</time>
      </trkpt>
      <trkpt lat="57.996445968747139" lon="-4.451603963971138">
        <ele>139.53</ele>
        <time>2023-08-24T08:15:54Z</time>
      </trkpt>
      <trkpt lat="57.996492991223931" lon="-4.451377987861633">
        <ele>139.05000000000001</ele>
        <time>2023-08-24T08:15:55Z</time>
      </trkpt>
      <trkpt lat="57.996542025357485" lon="-4.451142037287355">
        <ele>138.56999999999999</ele>
        <time>2023-08-24T08:15:56Z</time>
      </trkpt>
      <trkpt lat="57.996571026742458" lon="-4.450883958488703">
        <ele>138.09</ele>
        <time>2023-08-24T08:15:57Z</time>
      </trkpt>
      <trkpt lat="57.996574966236949" lon="-4.450606014579535">
        <ele>138.09</ele>
        <time>2023-08-24T08:15:58Z</time>
      </trkpt>
      <trkpt lat="57.996578989550471" lon="-4.450309965759516">
        <ele>137.61000000000001</ele>
        <time>2023-08-24T08:15:59Z</time>
      </trkpt>
      <trkpt lat="57.996708992868662" lon="-4.447980970144272">
        <ele>139.05000000000001</ele>
        <time>2023-08-24T08:16:07Z</time>
      </trkpt>
      <trkpt lat="57.99674796871841" lon="-4.447714006528258">
        <ele>139.53</ele>
        <time>2023-08-24T08:16:08Z</time>
      </trkpt>
      <trkpt lat="57.997293965891004" lon="-4.445169009268284">
        <ele>143.84999999999999</ele>
        <time>2023-08-24T08:16:16Z</time>
      </trkpt>
      <trkpt lat="57.998322006314993" lon="-4.440374979749322">
        <ele>147.22</ele>
        <time>2023-08-24T08:16:30Z</time>
      </trkpt>
      <trkpt lat="57.998650996014476" lon="-4.437998961657286">
        <ele>142.88999999999999</ele>
        <time>2023-08-24T08:16:38Z</time>
      </trkpt>
      <trkpt lat="57.998738000169396" lon="-4.435678012669087">
        <ele>139.05000000000001</ele>
        <time>2023-08-24T08:16:46Z</time>
      </trkpt>
      <trkpt lat="57.998833972960711" lon="-4.435136960819364">
        <ele>138.56999999999999</ele>
        <time>2023-08-24T08:16:48Z</time>
      </trkpt>
      <trkpt lat="57.998907985165715" lon="-4.434915008023381">
        <ele>138.56999999999999</ele>
        <time>2023-08-24T08:16:49Z</time>
      </trkpt>
      <trkpt lat="57.998977974057198" lon="-4.434705041348934">
        <ele>138.56999999999999</ele>
        <time>2023-08-24T08:16:50Z</time>
      </trkpt>
      <trkpt lat="57.999066989868879" lon="-4.434512006118894">
        <ele>138.09</ele>
        <time>2023-08-24T08:16:51Z</time>
      </trkpt>
      <trkpt lat="57.999179977923632" lon="-4.434350989758968">
        <ele>137.13</ele>
        <time>2023-08-24T08:16:52Z</time>
      </trkpt>
      <trkpt lat="57.999306041747332" lon="-4.43420497700572">
        <ele>136.63999999999999</ele>
        <time>2023-08-24T08:16:53Z</time>
      </trkpt>
      <trkpt lat="57.999702002853155" lon="-4.433745983988047">
        <ele>133.75999999999999</ele>
        <time>2023-08-24T08:16:56Z</time>
      </trkpt>
      <trkpt lat="57.999996040016413" lon="-4.433535011485219">
        <ele>131.84</ele>
        <time>2023-08-24T08:16:58Z</time>
      </trkpt>
      <trkpt lat="58.000149009749293" lon="-4.43345001898706">
        <ele>131.36000000000001</ele>
        <time>2023-08-24T08:16:59Z</time>
      </trkpt>
      <trkpt lat="58.000303991138935" lon="-4.433396039530635">
        <ele>130.40000000000001</ele>
        <time>2023-08-24T08:17:00Z</time>
      </trkpt>
      <trkpt lat="58.000756027176976" lon="-4.43315003067255">
        <ele>127.98999999999999</ele>
        <time>2023-08-24T08:17:03Z</time>
      </trkpt>
      <trkpt lat="58.000898016616702" lon="-4.433004017919302">
        <ele>127.03</ele>
        <time>2023-08-24T08:17:04Z</time>
      </trkpt>
      <trkpt lat="58.001042017713189" lon="-4.432856999337673">
        <ele>126.55</ele>
        <time>2023-08-24T08:17:05Z</time>
      </trkpt>
      <trkpt lat="58.001535041257739" lon="-4.432351989671588">
        <ele>122.22</ele>
        <time>2023-08-24T08:17:09Z</time>
      </trkpt>
      <trkpt lat="58.001659009605646" lon="-4.432294992730022">
        <ele>120.78</ele>
        <time>2023-08-24T08:17:10Z</time>
      </trkpt>
      <trkpt lat="58.001928990706801" lon="-4.43218401633203">
        <ele>118.86</ele>
        <time>2023-08-24T08:17:12Z</time>
      </trkpt>
      <trkpt lat="58.002080032601953" lon="-4.43209701217711">
        <ele>117.90000000000001</ele>
        <time>2023-08-24T08:17:13Z</time>
      </trkpt>
      <trkpt lat="58.003125004470348" lon="-4.431236023083329">
        <ele>114.53</ele>
        <time>2023-08-24T08:17:20Z</time>
      </trkpt>
      <trkpt lat="58.004271984100342" lon="-4.430069010704756">
        <ele>113.09</ele>
        <time>2023-08-24T08:17:29Z</time>
      </trkpt>
      <trkpt lat="58.004394024610519" lon="-4.43001301959157">
        <ele>112.61</ele>
        <time>2023-08-24T08:17:30Z</time>
      </trkpt>
      <trkpt lat="58.004527967423201" lon="-4.429971026256681">
        <ele>112.61</ele>
        <time>2023-08-24T08:17:31Z</time>
      </trkpt>
      <trkpt lat="58.005565982311964" lon="-4.429532987996936">
        <ele>111.65000000000001</ele>
        <time>2023-08-24T08:17:38Z</time>
      </trkpt>
      <trkpt lat="58.006433006376028" lon="-4.428863022476435">
        <ele>113.09</ele>
        <time>2023-08-24T08:17:44Z</time>
      </trkpt>
      <trkpt lat="58.006542976945639" lon="-4.428722038865089">
        <ele>113.56999999999999</ele>
        <time>2023-08-24T08:17:45Z</time>
      </trkpt>
      <trkpt lat="58.006648002192378" lon="-4.428572002798319">
        <ele>113.56999999999999</ele>
        <time>2023-08-24T08:17:46Z</time>
      </trkpt>
      <trkpt lat="58.006735006347299" lon="-4.428373016417027">
        <ele>113.09</ele>
        <time>2023-08-24T08:17:47Z</time>
      </trkpt>
      <trkpt lat="58.006806001067162" lon="-4.428161960095167">
        <ele>113.09</ele>
        <time>2023-08-24T08:17:48Z</time>
      </trkpt>
      <trkpt lat="58.006856041029096" lon="-4.427935983985663">
        <ele>112.61</ele>
        <time>2023-08-24T08:17:49Z</time>
      </trkpt>
      <trkpt lat="58.006884958595037" lon="-4.427703972905874">
        <ele>112.61</ele>
        <time>2023-08-24T08:17:50Z</time>
      </trkpt>
      <trkpt lat="58.006907003000379" lon="-4.427456958219409">
        <ele>112.13</ele>
        <time>2023-08-24T08:17:51Z</time>
      </trkpt>
      <trkpt lat="58.006896022707224" lon="-4.427188988775015">
        <ele>112.13</ele>
        <time>2023-08-24T08:17:52Z</time>
      </trkpt>
      <trkpt lat="58.006873978301883" lon="-4.426894029602408">
        <ele>112.13</ele>
        <time>2023-08-24T08:17:53Z</time>
      </trkpt>
      <trkpt lat="58.006833996623755" lon="-4.426603009924293">
        <ele>112.13</ele>
        <time>2023-08-24T08:17:54Z</time>
      </trkpt>
      <trkpt lat="58.006787979975343" lon="-4.426312996074557">
        <ele>112.13</ele>
        <time>2023-08-24T08:17:55Z</time>
      </trkpt>
      <trkpt lat="58.006742969155312" lon="-4.426023988053203">
        <ele>112.61</ele>
        <time>2023-08-24T08:17:56Z</time>
      </trkpt>
      <trkpt lat="58.00661196000874" lon="-4.425028972327709">
        <ele>115.01000000000001</ele>
        <time>2023-08-24T08:18:00Z</time>
      </trkpt>
      <trkpt lat="58.00661196000874" lon="-4.424810037016869">
        <ele>115.98</ele>
        <time>2023-08-24T08:18:01Z</time>
      </trkpt>
      <trkpt lat="58.006649008020759" lon="-4.424589006230235">
        <ele>116.94</ele>
        <time>2023-08-24T08:18:02Z</time>
      </trkpt>
      <trkpt lat="58.006700975820422" lon="-4.424371998757124">
        <ele>117.42</ele>
        <time>2023-08-24T08:18:03Z</time>
      </trkpt>
      <trkpt lat="58.006761996075511" lon="-4.424120960757136">
        <ele>117.90000000000001</ele>
        <time>2023-08-24T08:18:04Z</time>
      </trkpt>
      <trkpt lat="58.006849000230432" lon="-4.423930021002889">
        <ele>118.38</ele>
        <time>2023-08-24T08:18:05Z</time>
      </trkpt>
      <trkpt lat="58.006942039355636" lon="-4.423723993822932">
        <ele>119.34</ele>
        <time>2023-08-24T08:18:06Z</time>
      </trkpt>
      <trkpt lat="58.00703801214695" lon="-4.423514027148485">
        <ele>119.81999999999999</ele>
        <time>2023-08-24T08:18:07Z</time>
      </trkpt>
      <trkpt lat="58.008136041462421" lon="-4.421272035688162">
        <ele>123.19</ele>
        <time>2023-08-24T08:18:17Z</time>
      </trkpt>
      <trkpt lat="58.008751021698117" lon="-4.41991601139307">
        <ele>125.59</ele>
        <time>2023-08-24T08:18:23Z</time>
      </trkpt>
      <trkpt lat="58.008839031681418" lon="-4.41965801641345">
        <ele>126.06999999999999</ele>
        <time>2023-08-24T08:18:24Z</time>
      </trkpt>
      <trkpt lat="58.008899968117476" lon="-4.419354004785419">
        <ele>126.06999999999999</ele>
        <time>2023-08-24T08:18:25Z</time>
      </trkpt>
      <trkpt lat="58.009484019130468" lon="-4.416567021980882">
        <ele>126.06999999999999</ele>
        <time>2023-08-24T08:18:34Z</time>
      </trkpt>
      <trkpt lat="58.010324975475669" lon="-4.413016028702259">
        <ele>119.34</ele>
        <time>2023-08-24T08:18:46Z</time>
      </trkpt>
      <trkpt lat="58.010967029258609" lon="-4.409399991855025">
        <ele>113.09</ele>
        <time>2023-08-24T08:18:57Z</time>
      </trkpt>
      <trkpt lat="58.010950013995171" lon="-4.406523993238807">
        <ele>108.29000000000001</ele>
        <time>2023-08-24T08:19:06Z</time>
      </trkpt>
      <trkpt lat="58.010986978188157" lon="-4.405482960864902">
        <ele>106.36</ele>
        <time>2023-08-24T08:19:10Z</time>
      </trkpt>
      <trkpt lat="58.011025032028556" lon="-4.40521901473403">
        <ele>105.40000000000001</ele>
        <time>2023-08-24T08:19:11Z</time>
      </trkpt>
      <trkpt lat="58.011409007012844" lon="-4.403829965740442">
        <ele>100.59999999999999</ele>
        <time>2023-08-24T08:19:17Z</time>
      </trkpt>
      <trkpt lat="58.011496011167765" lon="-4.403665009886026">
        <ele>99.629999999999995</ele>
        <time>2023-08-24T08:19:18Z</time>
      </trkpt>
      <trkpt lat="58.011600030586123" lon="-4.403523020446301">
        <ele>98.670000000000002</ele>
        <time>2023-08-24T08:19:19Z</time>
      </trkpt>
      <trkpt lat="58.011717963963747" lon="-4.403413971886039">
        <ele>98.189999999999998</ele>
        <time>2023-08-24T08:19:20Z</time>
      </trkpt>
      <trkpt lat="58.011844027787447" lon="-4.403347000479698">
        <ele>97.230000000000004</ele>
        <time>2023-08-24T08:19:21Z</time>
      </trkpt>
      <trkpt lat="58.011972019448876" lon="-4.403278017416596">
        <ele>96.75</ele>
        <time>2023-08-24T08:19:22Z</time>
      </trkpt>
      <trkpt lat="58.012115014716983" lon="-4.403299978002906">
        <ele>95.790000000000006</ele>
        <time>2023-08-24T08:19:23Z</time>
      </trkpt>
      <trkpt lat="58.012261027470231" lon="-4.403344988822937">
        <ele>95.310000000000002</ele>
        <time>2023-08-24T08:19:24Z</time>
      </trkpt>
      <trkpt lat="58.012417014688253" lon="-4.403392011299729">
        <ele>94.349999999999994</ele>
        <time>2023-08-24T08:19:25Z</time>
      </trkpt>
      <trkpt lat="58.014147961512208" lon="-4.404311003163457">
        <ele>90.019999999999996</ele>
        <time>2023-08-24T08:19:35Z</time>
      </trkpt>
      <trkpt lat="58.014695970341563" lon="-4.404729008674622">
        <ele>89.540000000000006</ele>
        <time>2023-08-24T08:19:38Z</time>
      </trkpt>
      <trkpt lat="58.016529008746147" lon="-4.406302040442824">
        <ele>92.900000000000006</ele>
        <time>2023-08-24T08:19:49Z</time>
      </trkpt>
      <trkpt lat="58.016739981248975" lon="-4.406483005732298">
        <ele>93.390000000000001</ele>
        <time>2023-08-24T08:19:51Z</time>
      </trkpt>
      <trkpt lat="58.016881970688701" lon="-4.406518964096904">
        <ele>93.870000000000005</ele>
        <time>2023-08-24T08:19:52Z</time>
      </trkpt>
      <trkpt lat="58.016993030905724" lon="-4.406546959653497">
        <ele>94.349999999999994</ele>
        <time>2023-08-24T08:19:53Z</time>
      </trkpt>
      <trkpt lat="58.017113981768489" lon="-4.406546959653497">
        <ele>94.349999999999994</ele>
        <time>2023-08-24T08:19:54Z</time>
      </trkpt>
      <trkpt lat="58.017224036157131" lon="-4.40646699629724">
        <ele>94.349999999999994</ele>
        <time>2023-08-24T08:19:55Z</time>
      </trkpt>
      <trkpt lat="58.017333000898361" lon="-4.406373035162687">
        <ele>94.349999999999994</ele>
        <time>2023-08-24T08:19:56Z</time>
      </trkpt>
      <trkpt lat="58.017420005053282" lon="-4.406220987439156">
        <ele>94.349999999999994</ele>
        <time>2023-08-24T08:19:57Z</time>
      </trkpt>
      <trkpt lat="58.017510026693344" lon="-4.406063994392753">
        <ele>93.870000000000005</ele>
        <time>2023-08-24T08:19:58Z</time>
      </trkpt>
      <trkpt lat="58.017601976171136" lon="-4.405902978032827">
        <ele>93.870000000000005</ele>
        <time>2023-08-24T08:19:59Z</time>
      </trkpt>
      <trkpt lat="58.017946975305676" lon="-4.405298978090286">
        <ele>92.420000000000002</ele>
        <time>2023-08-24T08:20:03Z</time>
      </trkpt>
      <trkpt lat="58.018033979460597" lon="-4.405170986428857">
        <ele>92.420000000000002</ele>
        <time>2023-08-24T08:20:04Z</time>
      </trkpt>
      <trkpt lat="58.018134981393814" lon="-4.405084988102317">
        <ele>92.420000000000002</ele>
        <time>2023-08-24T08:20:05Z</time>
      </trkpt>
      <trkpt lat="58.018237994983792" lon="-4.404996978119016">
        <ele>91.939999999999998</ele>
        <time>2023-08-24T08:20:06Z</time>
      </trkpt>
      <trkpt lat="58.018342014402151" lon="-4.404931012541056">
        <ele>91.459999999999994</ele>
        <time>2023-08-24T08:20:07Z</time>
      </trkpt>
      <trkpt lat="58.01844896748662" lon="-4.404910979792476">
        <ele>90.980000000000004</ele>
        <time>2023-08-24T08:20:08Z</time>
      </trkpt>
      <trkpt lat="58.018562039360404" lon="-4.404890025034547">
        <ele>90.980000000000004</ele>
        <time>2023-08-24T08:20:09Z</time>
      </trkpt>
      <trkpt lat="58.018669998273253" lon="-4.404868986457586">
        <ele>90.5</ele>
        <time>2023-08-24T08:20:10Z</time>
      </trkpt>
      <trkpt lat="58.019626038148999" lon="-4.405051963403821">
        <ele>88.099999999999994</ele>
        <time>2023-08-24T08:20:21Z</time>
      </trkpt>
      <trkpt lat="58.019841033965349" lon="-4.405092028900981">
        <ele>89.540000000000006</ele>
        <time>2023-08-24T08:20:26Z</time>
      </trkpt>
      <trkpt lat="58.019857965409756" lon="-4.405095968395472">
        <ele>89.540000000000006</ele>
        <time>2023-08-24T08:20:27Z</time>
      </trkpt>
      <trkpt lat="58.019871963188052" lon="-4.405098985880613">
        <ele>89.540000000000006</ele>
        <time>2023-08-24T08:20:28Z</time>
      </trkpt>
      <trkpt lat="58.019914962351322" lon="-4.405107032507658">
        <ele>89.540000000000006</ele>
        <time>2023-08-24T08:20:31Z</time>
      </trkpt>
      <trkpt lat="58.019940024241805" lon="-4.405111977830529">
        <ele>89.060000000000002</ele>
        <time>2023-08-24T08:20:32Z</time>
      </trkpt>
      <trkpt lat="58.019940024241805" lon="-4.405111977830529">
        <ele>88.579999999999998</ele>
        <time>2023-08-24T08:20:41Z</time>
      </trkpt>
      <trkpt lat="58.019940024241805" lon="-4.405111977830529">
        <ele>88.579999999999998</ele>
        <time>2023-08-24T08:21:27Z</time>
      </trkpt>
      <trkpt lat="58.019940024241805" lon="-4.405111977830529">
        <ele>88.099999999999994</ele>
        <time>2023-08-24T08:22:14Z</time>
      </trkpt>
      <trkpt lat="58.019940024241805" lon="-4.405111977830529">
        <ele>88.099999999999994</ele>
        <time>2023-08-24T08:22:58Z</time>
      </trkpt>
      <trkpt lat="58.019940024241805" lon="-4.405111977830529">
        <ele>87.620000000000005</ele>
        <time>2023-08-24T08:23:51Z</time>
      </trkpt>
      <trkpt lat="58.019976988434792" lon="-4.405119018629193">
        <ele>88.099999999999994</ele>
        <time>2023-08-24T08:24:01Z</time>
      </trkpt>
      <trkpt lat="58.020043959841132" lon="-4.405131004750729">
        <ele>88.579999999999998</ele>
        <time>2023-08-24T08:24:02Z</time>
      </trkpt>
      <trkpt lat="58.020043959841132" lon="-4.405131004750729">
        <ele>89.060000000000002</ele>
        <time>2023-08-24T08:24:03Z</time>
      </trkpt>
      <trkpt lat="58.020043959841132" lon="-4.405131004750729">
        <ele>89.060000000000002</ele>
        <time>2023-08-24T08:24:04Z</time>
      </trkpt>
      <trkpt lat="58.020048988983035" lon="-4.405126981437206">
        <ele>89.060000000000002</ele>
        <time>2023-08-24T08:24:05Z</time>
      </trkpt>
      <trkpt lat="58.020117972046137" lon="-4.405074007809162">
        <ele>89.060000000000002</ele>
        <time>2023-08-24T08:24:07Z</time>
      </trkpt>
      <trkpt lat="58.020222997292876" lon="-4.404993038624525">
        <ele>89.540000000000006</ele>
        <time>2023-08-24T08:24:09Z</time>
      </trkpt>
      <trkpt lat="58.020259039476514" lon="-4.404922965914011">
        <ele>90.019999999999996</ele>
        <time>2023-08-24T08:24:10Z</time>
      </trkpt>
      <trkpt lat="58.020298015326262" lon="-4.404818024486303">
        <ele>90.019999999999996</ele>
        <time>2023-08-24T08:24:11Z</time>
      </trkpt>
      <trkpt lat="58.020320981740952" lon="-4.404705036431551">
        <ele>90.019999999999996</ele>
        <time>2023-08-24T08:24:12Z</time>
      </trkpt>
      <trkpt lat="58.020344031974673" lon="-4.404580984264612">
        <ele>90.019999999999996</ele>
        <time>2023-08-24T08:24:13Z</time>
      </trkpt>
      <trkpt lat="58.020365992560983" lon="-4.404460033401847">
        <ele>90.019999999999996</ele>
        <time>2023-08-24T08:24:14Z</time>
      </trkpt>
      <trkpt lat="58.020419972017407" lon="-4.404163984581828">
        <ele>90.019999999999996</ele>
        <time>2023-08-24T08:24:17Z</time>
      </trkpt>
      <trkpt lat="58.020433969795704" lon="-4.404090978205204">
        <ele>90.019999999999996</ele>
        <time>2023-08-24T08:24:18Z</time>
      </trkpt>
      <trkpt lat="58.020503958687186" lon="-4.404004979878664">
        <ele>90.019999999999996</ele>
        <time>2023-08-24T08:24:19Z</time>
      </trkpt>
      <trkpt lat="58.02055399864912" lon="-4.40401503816247">
        <ele>90.019999999999996</ele>
        <time>2023-08-24T08:24:20Z</time>
      </trkpt>
      <trkpt lat="58.020633039996028" lon="-4.404031969606876">
        <ele>90.5</ele>
        <time>2023-08-24T08:24:21Z</time>
      </trkpt>
      <trkpt lat="58.020734963938594" lon="-4.404053008183837">
        <ele>90.5</ele>
        <time>2023-08-24T08:24:22Z</time>
      </trkpt>
      <trkpt lat="58.021443989127874" lon="-4.404179994016886">
        <ele>88.579999999999998</ele>
        <time>2023-08-24T08:24:28Z</time>
      </trkpt>
      <trkpt lat="58.02156200632453" lon="-4.404169013723731">
        <ele>88.579999999999998</ele>
        <time>2023-08-24T08:24:29Z</time>
      </trkpt>
      <trkpt lat="58.021674994379282" lon="-4.404111010953784">
        <ele>88.579999999999998</ele>
        <time>2023-08-24T08:24:30Z</time>
      </trkpt>
      <trkpt lat="58.021788988262415" lon="-4.40403800457716">
        <ele>88.579999999999998</ele>
        <time>2023-08-24T08:24:31Z</time>
      </trkpt>
      <trkpt lat="58.021899964660406" lon="-4.403967009857297">
        <ele>88.579999999999998</ele>
        <time>2023-08-24T08:24:32Z</time>
      </trkpt>
      <trkpt lat="58.022011024877429" lon="-4.403896015137434">
        <ele>88.579999999999998</ele>
        <time>2023-08-24T08:24:33Z</time>
      </trkpt>
      <trkpt lat="58.02310997620225" lon="-4.403015999123454">
        <ele>89.540000000000006</ele>
        <time>2023-08-24T08:24:44Z</time>
      </trkpt>
      <trkpt lat="58.02364700473845" lon="-4.402551976963878">
        <ele>88.579999999999998</ele>
        <time>2023-08-24T08:24:52Z</time>
      </trkpt>
      <trkpt lat="58.023723028600216" lon="-4.402487017214298">
        <ele>88.099999999999994</ele>
        <time>2023-08-24T08:25:01Z</time>
      </trkpt>
      <trkpt lat="58.023866023868322" lon="-4.40236397087574">
        <ele>90.980000000000004</ele>
        <time>2023-08-24T08:25:42Z</time>
      </trkpt>
      <trkpt lat="58.024601032957435" lon="-4.401864996179938">
        <ele>92.420000000000002</ele>
        <time>2023-08-24T08:25:50Z</time>
      </trkpt>
      <trkpt lat="58.025781037285924" lon="-4.401498036459088">
        <ele>91.939999999999998</ele>
        <time>2023-08-24T08:26:01Z</time>
      </trkpt>
      <trkpt lat="58.026279006153345" lon="-4.401414971798658">
        <ele>91.939999999999998</ele>
        <time>2023-08-24T08:26:06Z</time>
      </trkpt>
      <trkpt lat="58.026369027793407" lon="-4.401441961526871">
        <ele>91.939999999999998</ele>
        <time>2023-08-24T08:26:07Z</time>
      </trkpt>
      <trkpt lat="58.026452008634806" lon="-4.401468029245734">
        <ele>91.939999999999998</ele>
        <time>2023-08-24T08:26:08Z</time>
      </trkpt>
      <trkpt lat="58.026520991697907" lon="-4.401511028409004">
        <ele>91.459999999999994</ele>
        <time>2023-08-24T08:26:09Z</time>
      </trkpt>
      <trkpt lat="58.026581006124616" lon="-4.401600966230035">
        <ele>91.459999999999994</ele>
        <time>2023-08-24T08:26:10Z</time>
      </trkpt>
      <trkpt lat="58.026617970317602" lon="-4.401715965941548">
        <ele>91.939999999999998</ele>
        <time>2023-08-24T08:26:11Z</time>
      </trkpt>
      <trkpt lat="58.02665501832962" lon="-4.401848986744881">
        <ele>91.459999999999994</ele>
        <time>2023-08-24T08:26:12Z</time>
      </trkpt>
      <trkpt lat="58.026692988350987" lon="-4.401987036690116">
        <ele>91.459999999999994</ele>
        <time>2023-08-24T08:26:13Z</time>
      </trkpt>
      <trkpt lat="58.026730958372355" lon="-4.402121985331178">
        <ele>91.459999999999994</ele>
        <time>2023-08-24T08:26:14Z</time>
      </trkpt>
      <trkpt lat="58.026995994150639" lon="-4.403070984408259">
        <ele>92.900000000000006</ele>
        <time>2023-08-24T08:26:24Z</time>
      </trkpt>
      <trkpt lat="58.026995994150639" lon="-4.403070984408259">
        <ele>92.420000000000002</ele>
        <time>2023-08-24T08:26:33Z</time>
      </trkpt>
      <trkpt lat="58.026995994150639" lon="-4.403070984408259">
        <ele>92.420000000000002</ele>
        <time>2023-08-24T08:26:48Z</time>
      </trkpt>
      <trkpt lat="58.026987025514245" lon="-4.403876988217235">
        <ele>85.689999999999998</ele>
        <time>2023-08-24T08:33:28Z</time>
      </trkpt>
      <trkpt lat="58.027048967778683" lon="-4.403397962450981">
        <ele>94.829999999999998</ele>
        <time>2023-08-24T08:33:51Z</time>
      </trkpt>
      <trkpt lat="58.027032958343625" lon="-4.403360998257995">
        <ele>96.75</ele>
        <time>2023-08-24T08:33:58Z</time>
      </trkpt>
      <trkpt lat="58.027099007740617" lon="-4.403252033516765">
        <ele>97.230000000000004</ele>
        <time>2023-08-24T08:34:03Z</time>
      </trkpt>
      <trkpt lat="58.027114011347294" lon="-4.403278017416596">
        <ele>97.230000000000004</ele>
        <time>2023-08-24T08:34:04Z</time>
      </trkpt>
      <trkpt lat="58.027141001075506" lon="-4.403325961902738">
        <ele>96.75</ele>
        <time>2023-08-24T08:34:05Z</time>
      </trkpt>
      <trkpt lat="58.027569986879826" lon="-4.404083015397191">
        <ele>94.349999999999994</ele>
        <time>2023-08-24T08:34:13Z</time>
      </trkpt>
      <trkpt lat="58.027850026264787" lon="-4.404630018398166">
        <ele>93.390000000000001</ele>
        <time>2023-08-24T08:34:17Z</time>
      </trkpt>
      <trkpt lat="58.027905011549592" lon="-4.404806038364768">
        <ele>92.900000000000006</ele>
        <time>2023-08-24T08:34:18Z</time>
      </trkpt>
      <trkpt lat="58.027958991006017" lon="-4.404979040846229">
        <ele>92.900000000000006</ele>
        <time>2023-08-24T08:34:19Z</time>
      </trkpt>
      <trkpt lat="58.028012970462441" lon="-4.405149025842547">
        <ele>92.900000000000006</ele>
        <time>2023-08-24T08:34:20Z</time>
      </trkpt>
      <trkpt lat="58.028056975454092" lon="-4.405313981696963">
        <ele>92.420000000000002</ele>
        <time>2023-08-24T08:34:21Z</time>
      </trkpt>
      <trkpt lat="58.028088994324207" lon="-4.405497964471579">
        <ele>92.900000000000006</ele>
        <time>2023-08-24T08:34:22Z</time>
      </trkpt>
      <trkpt lat="58.028355035930872" lon="-4.407020034268498">
        <ele>94.349999999999994</ele>
        <time>2023-08-24T08:34:30Z</time>
      </trkpt>
      <trkpt lat="58.028390994295478" lon="-4.407223965972662">
        <ele>94.829999999999998</ele>
        <time>2023-08-24T08:34:31Z</time>
      </trkpt>
      <trkpt lat="58.029002035036683" lon="-4.409417007118464">
        <ele>98.670000000000002</ele>
        <time>2023-08-24T08:34:42Z</time>
      </trkpt>
      <trkpt lat="58.030065027996898" lon="-4.411439979448915">
        <ele>102.04000000000001</ele>
        <time>2023-08-24T08:34:53Z</time>
      </trkpt>
      <trkpt lat="58.030379014089704" lon="-4.412163002416492">
        <ele>102.52</ele>
        <time>2023-08-24T08:34:56Z</time>
      </trkpt>
      <trkpt lat="58.030457971617579" lon="-4.412442035973072">
        <ele>102.52</ele>
        <time>2023-08-24T08:34:57Z</time>
      </trkpt>
      <trkpt lat="58.030944960191846" lon="-4.414911009371281">
        <ele>104.92</ele>
        <time>2023-08-24T08:35:05Z</time>
      </trkpt>
      <trkpt lat="58.031030036509037" lon="-4.415163975208998">
        <ele>104.92</ele>
        <time>2023-08-24T08:35:06Z</time>
      </trkpt>
      <trkpt lat="58.031142018735409" lon="-4.415411995723844">
        <ele>104.92</ele>
        <time>2023-08-24T08:35:07Z</time>
      </trkpt>
      <trkpt lat="58.031734032556415" lon="-4.416817976161838">
        <ele>103.48</ele>
        <time>2023-08-24T08:35:12Z</time>
      </trkpt>
      <trkpt lat="58.031825982034206" lon="-4.417116036638618">
        <ele>103.48</ele>
        <time>2023-08-24T08:35:13Z</time>
      </trkpt>
      <trkpt lat="58.031891025602818" lon="-4.417452989146113">
        <ele>103.48</ele>
        <time>2023-08-24T08:35:14Z</time>
      </trkpt>
      <trkpt lat="58.031956991180778" lon="-4.417792959138751">
        <ele>103</ele>
        <time>2023-08-24T08:35:15Z</time>
      </trkpt>
      <trkpt lat="58.032021028921008" lon="-4.418121026828885">
        <ele>103</ele>
        <time>2023-08-24T08:35:16Z</time>
      </trkpt>
      <trkpt lat="58.03215698339045" lon="-4.418723015114665">
        <ele>103</ele>
        <time>2023-08-24T08:35:18Z</time>
      </trkpt>
      <trkpt lat="58.032253962010145" lon="-4.418976986780763">
        <ele>102.52</ele>
        <time>2023-08-24T08:35:19Z</time>
      </trkpt>
      <trkpt lat="58.03236803971231" lon="-4.419216038659215">
        <ele>102.52</ele>
        <time>2023-08-24T08:35:20Z</time>
      </trkpt>
      <trkpt lat="58.032491002231836" lon="-4.4194430205971">
        <ele>102.52</ele>
        <time>2023-08-24T08:35:21Z</time>
      </trkpt>
      <trkpt lat="58.032636009156704" lon="-4.419647958129644">
        <ele>102.52</ele>
        <time>2023-08-24T08:35:22Z</time>
      </trkpt>
      <trkpt lat="58.034140979871154" lon="-4.421735974028707">
        <ele>101.56</ele>
        <time>2023-08-24T08:35:32Z</time>
      </trkpt>
      <trkpt lat="58.035513013601303" lon="-4.423076994717121">
        <ele>103</ele>
        <time>2023-08-24T08:35:40Z</time>
      </trkpt>
      <trkpt lat="58.036802988499403" lon="-4.424218023195863">
        <ele>104.92</ele>
        <time>2023-08-24T08:35:48Z</time>
      </trkpt>
      <trkpt lat="58.037147987633944" lon="-4.424420027062297">
        <ele>105.40000000000001</ele>
        <time>2023-08-24T08:35:50Z</time>
      </trkpt>
      <trkpt lat="58.038903996348381" lon="-4.425014974549413">
        <ele>108.77</ele>
        <time>2023-08-24T08:36:00Z</time>
      </trkpt>
      <trkpt lat="58.04066302254796" lon="-4.42462395876646">
        <ele>110.69</ele>
        <time>2023-08-24T08:36:09Z</time>
      </trkpt>
      <trkpt lat="58.042540987953544" lon="-4.424136970192194">
        <ele>112.13</ele>
        <time>2023-08-24T08:36:19Z</time>
      </trkpt>
      <trkpt lat="58.044220972806215" lon="-4.423352004960179">
        <ele>112.61</ele>
        <time>2023-08-24T08:36:28Z</time>
      </trkpt>
      <trkpt lat="58.045662995427847" lon="-4.422503001987934">
        <ele>112.61</ele>
        <time>2023-08-24T08:36:36Z</time>
      </trkpt>
      <trkpt lat="58.047565016895533" lon="-4.421831024810672">
        <ele>108.29000000000001</ele>
        <time>2023-08-24T08:36:46Z</time>
      </trkpt>
      <trkpt lat="58.050123006105423" lon="-4.420996019616723">
        <ele>103.48</ele>
        <time>2023-08-24T08:36:59Z</time>
      </trkpt>
      <trkpt lat="58.053261023014784" lon="-4.419972002506256">
        <ele>103.48</ele>
        <time>2023-08-24T08:37:15Z</time>
      </trkpt>
      <trkpt lat="58.056880999356508" lon="-4.41862897016108">
        <ele>107.31999999999999</ele>
        <time>2023-08-24T08:37:34Z</time>
      </trkpt>
      <trkpt lat="58.059563962742686" lon="-4.417533036321402">
        <ele>113.56999999999999</ele>
        <time>2023-08-24T08:37:48Z</time>
      </trkpt>
      <trkpt lat="58.061092989519238" lon="-4.416912021115422">
        <ele>114.53</ele>
        <time>2023-08-24T08:37:58Z</time>
      </trkpt>
      <trkpt lat="58.062573987990618" lon="-4.416368035599589">
        <ele>115.98</ele>
        <time>2023-08-24T08:38:07Z</time>
      </trkpt>
      <trkpt lat="58.064649011939764" lon="-4.415827989578247">
        <ele>117.42</ele>
        <time>2023-08-24T08:38:19Z</time>
      </trkpt>
      <trkpt lat="58.06661800481379" lon="-4.415308982133865">
        <ele>120.78</ele>
        <time>2023-08-24T08:38:31Z</time>
      </trkpt>
      <trkpt lat="58.068841975182295" lon="-4.414723003283143">
        <ele>123.67</ele>
        <time>2023-08-24T08:38:44Z</time>
      </trkpt>
      <trkpt lat="58.07151697576046" lon="-4.413883974775672">
        <ele>127.51000000000001</ele>
        <time>2023-08-24T08:39:00Z</time>
      </trkpt>
      <trkpt lat="58.072447031736374" lon="-4.413420958444476">
        <ele>127.98999999999999</ele>
        <time>2023-08-24T08:39:06Z</time>
      </trkpt>
      <trkpt lat="58.072593966498971" lon="-4.413291960954666">
        <ele>127.98999999999999</ele>
        <time>2023-08-24T08:39:07Z</time>
      </trkpt>
      <trkpt lat="58.072748025879264" lon="-4.413156006485224">
        <ele>128.47</ele>
        <time>2023-08-24T08:39:08Z</time>
      </trkpt>
      <trkpt lat="58.07398896664381" lon="-4.412227040156722">
        <ele>129.91999999999999</ele>
        <time>2023-08-24T08:39:16Z</time>
      </trkpt>
      <trkpt lat="58.0741379968822" lon="-4.412195021286607">
        <ele>129.91999999999999</ele>
        <time>2023-08-24T08:39:17Z</time>
      </trkpt>
      <trkpt lat="58.074289038777351" lon="-4.412173982709646">
        <ele>129.91999999999999</ele>
        <time>2023-08-24T08:39:18Z</time>
      </trkpt>
      <trkpt lat="58.074434967711568" lon="-4.412154033780098">
        <ele>129.91999999999999</ele>
        <time>2023-08-24T08:39:19Z</time>
      </trkpt>
      <trkpt lat="58.074573017656803" lon="-4.412135006859899">
        <ele>129.91999999999999</ele>
        <time>2023-08-24T08:39:20Z</time>
      </trkpt>
      <trkpt lat="58.074709977954626" lon="-4.412149004638195">
        <ele>129.91999999999999</ele>
        <time>2023-08-24T08:39:21Z</time>
      </trkpt>
      <trkpt lat="58.076071031391621" lon="-4.412749987095594">
        <ele>128.94999999999999</ele>
        <time>2023-08-24T08:39:31Z</time>
      </trkpt>
      <trkpt lat="58.077039979398251" lon="-4.413884980604053">
        <ele>130.40000000000001</ele>
        <time>2023-08-24T08:39:39Z</time>
      </trkpt>
      <trkpt lat="58.0772740021348" lon="-4.414191003888845">
        <ele>131.36000000000001</ele>
        <time>2023-08-24T08:39:41Z</time>
      </trkpt>
      <trkpt lat="58.077411968261003" lon="-4.414317989721894">
        <ele>131.36000000000001</ele>
        <time>2023-08-24T08:39:42Z</time>
      </trkpt>
      <trkpt lat="58.077572984620929" lon="-4.41441304050386">
        <ele>131.84</ele>
        <time>2023-08-24T08:39:43Z</time>
      </trkpt>
      <trkpt lat="58.079308038577437" lon="-4.415448037907481">
        <ele>133.28</ele>
        <time>2023-08-24T08:39:53Z</time>
      </trkpt>
      <trkpt lat="58.079456984996796" lon="-4.415536969900131">
        <ele>133.28</ele>
        <time>2023-08-24T08:39:54Z</time>
      </trkpt>
      <trkpt lat="58.07961699552834" lon="-4.415486007928848">
        <ele>133.28</ele>
        <time>2023-08-24T08:39:55Z</time>
      </trkpt>
      <trkpt lat="58.079771976917982" lon="-4.415434962138534">
        <ele>133.28</ele>
        <time>2023-08-24T08:39:56Z</time>
      </trkpt>
      <trkpt lat="58.079921007156372" lon="-4.415344018489122">
        <ele>133.28</ele>
        <time>2023-08-24T08:39:57Z</time>
      </trkpt>
      <trkpt lat="58.080068025738001" lon="-4.415214015170932">
        <ele>133.28</ele>
        <time>2023-08-24T08:39:58Z</time>
      </trkpt>
      <trkpt lat="58.080219989642501" lon="-4.415079988539219">
        <ele>133.28</ele>
        <time>2023-08-24T08:39:59Z</time>
      </trkpt>
      <trkpt lat="58.08107502758503" lon="-4.414402982220054">
        <ele>132.80000000000001</ele>
        <time>2023-08-24T08:40:05Z</time>
      </trkpt>
      <trkpt lat="58.081206036731601" lon="-4.414363000541925">
        <ele>132.80000000000001</ele>
        <time>2023-08-24T08:40:06Z</time>
      </trkpt>
      <trkpt lat="58.08133696205914" lon="-4.414388984441757">
        <ele>132.31999999999999</ele>
        <time>2023-08-24T08:40:07Z</time>
      </trkpt>
      <trkpt lat="58.081471994519234" lon="-4.414425026625395">
        <ele>132.31999999999999</ele>
        <time>2023-08-24T08:40:08Z</time>
      </trkpt>
      <trkpt lat="58.081609960645437" lon="-4.414486968889833">
        <ele>132.31999999999999</ele>
        <time>2023-08-24T08:40:09Z</time>
      </trkpt>
      <trkpt lat="58.081752033904195" lon="-4.414576990529895">
        <ele>132.31999999999999</ele>
        <time>2023-08-24T08:40:10Z</time>
      </trkpt>
      <trkpt lat="58.083843989297748" lon="-4.41589898429811">
        <ele>133.75999999999999</ele>
        <time>2023-08-24T08:40:23Z</time>
      </trkpt>
      <trkpt lat="58.085132958367467" lon="-4.416812025010586">
        <ele>133.75999999999999</ele>
        <time>2023-08-24T08:40:31Z</time>
      </trkpt>
      <trkpt lat="58.085276037454605" lon="-4.416969018056989">
        <ele>133.75999999999999</ele>
        <time>2023-08-24T08:40:32Z</time>
      </trkpt>
      <trkpt lat="58.086423017084599" lon="-4.418379021808505">
        <ele>133.75999999999999</ele>
        <time>2023-08-24T08:40:40Z</time>
      </trkpt>
      <trkpt lat="58.08657799847424" lon="-4.418460996821523">
        <ele>133.75999999999999</ele>
        <time>2023-08-24T08:40:41Z</time>
      </trkpt>
      <trkpt lat="58.086745971813798" lon="-4.418526962399483">
        <ele>133.75999999999999</ele>
        <time>2023-08-24T08:40:42Z</time>
      </trkpt>
      <trkpt lat="58.086916962638497" lon="-4.418594017624855">
        <ele>133.75999999999999</ele>
        <time>2023-08-24T08:40:43Z</time>
      </trkpt>
      <trkpt lat="58.087089965119958" lon="-4.418660989031196">
        <ele>133.75999999999999</ele>
        <time>2023-08-24T08:40:44Z</time>
      </trkpt>
      <trkpt lat="58.087262967601418" lon="-4.418728966265917">
        <ele>133.28</ele>
        <time>2023-08-24T08:40:45Z</time>
      </trkpt>
      <trkpt lat="58.087433958426118" lon="-4.418823011219502">
        <ele>133.28</ele>
        <time>2023-08-24T08:40:46Z</time>
      </trkpt>
      <trkpt lat="58.088975977152586" lon="-4.419518960639834">
        <ele>132.80000000000001</ele>
        <time>2023-08-24T08:40:55Z</time>
      </trkpt>
      <trkpt lat="58.089976022019982" lon="-4.419296002015472">
        <ele>133.75999999999999</ele>
        <time>2023-08-24T08:41:01Z</time>
      </trkpt>
      <trkpt lat="58.090114993974566" lon="-4.419193994253874">
        <ele>133.75999999999999</ele>
        <time>2023-08-24T08:41:02Z</time>
      </trkpt>
      <trkpt lat="58.090243991464376" lon="-4.41905602812767">
        <ele>133.75999999999999</ele>
        <time>2023-08-24T08:41:03Z</time>
      </trkpt>
      <trkpt lat="58.090369971469045" lon="-4.418920995667577">
        <ele>134.24000000000001</ele>
        <time>2023-08-24T08:41:04Z</time>
      </trkpt>
      <trkpt lat="58.090500980615616" lon="-4.418825022876263">
        <ele>134.24000000000001</ele>
        <time>2023-08-24T08:41:05Z</time>
      </trkpt>
      <trkpt lat="58.090630983933806" lon="-4.418743969872594">
        <ele>134.24000000000001</ele>
        <time>2023-08-24T08:41:06Z</time>
      </trkpt>
      <trkpt lat="58.090746989473701" lon="-4.41867096349597">
        <ele>134.72</ele>
        <time>2023-08-24T08:41:07Z</time>
      </trkpt>
      <trkpt lat="58.090870035812259" lon="-4.418656965717673">
        <ele>134.72</ele>
        <time>2023-08-24T08:41:08Z</time>
      </trkpt>
      <trkpt lat="58.09098201803863" lon="-4.418643973767757">
        <ele>134.72</ele>
        <time>2023-08-24T08:41:09Z</time>
      </trkpt>
      <trkpt lat="58.091088971123099" lon="-4.418630981817842">
        <ele>135.19999999999999</ele>
        <time>2023-08-24T08:41:10Z</time>
      </trkpt>
      <trkpt lat="58.091188967227936" lon="-4.418687978759408">
        <ele>135.19999999999999</ele>
        <time>2023-08-24T08:41:11Z</time>
      </trkpt>
      <trkpt lat="58.091289969161153" lon="-4.418766014277935">
        <ele>135.19999999999999</ele>
        <time>2023-08-24T08:41:12Z</time>
      </trkpt>
      <trkpt lat="58.091393988579512" lon="-4.418851006776094">
        <ele>135.68000000000001</ele>
        <time>2023-08-24T08:41:13Z</time>
      </trkpt>
      <trkpt lat="58.091461965814233" lon="-4.419000959023833">
        <ele>135.68000000000001</ele>
        <time>2023-08-24T08:41:14Z</time>
      </trkpt>
      <trkpt lat="58.091527009382844" lon="-4.419145965948701">
        <ele>135.68000000000001</ele>
        <time>2023-08-24T08:41:15Z</time>
      </trkpt>
      <trkpt lat="58.09158400632441" lon="-4.419272029772401">
        <ele>136.16</ele>
        <time>2023-08-24T08:41:16Z</time>
      </trkpt>
      <trkpt lat="58.091687019914389" lon="-4.419417036697269">
        <ele>136.16</ele>
        <time>2023-08-24T08:41:17Z</time>
      </trkpt>
      <trkpt lat="58.091779975220561" lon="-4.419546034187079">
        <ele>135.68000000000001</ele>
        <time>2023-08-24T08:41:18Z</time>
      </trkpt>
      <trkpt lat="58.091867985203862" lon="-4.419670002534986">
        <ele>135.68000000000001</ele>
        <time>2023-08-24T08:41:19Z</time>
      </trkpt>
      <trkpt lat="58.091955995187163" lon="-4.419757006689906">
        <ele>135.19999999999999</ele>
        <time>2023-08-24T08:41:20Z</time>
      </trkpt>
      <trkpt lat="58.092040987685323" lon="-4.419816015288234">
        <ele>135.19999999999999</ele>
        <time>2023-08-24T08:41:21Z</time>
      </trkpt>
      <trkpt lat="58.092131009325385" lon="-4.419878041371703">
        <ele>134.72</ele>
        <time>2023-08-24T08:41:22Z</time>
      </trkpt>
      <trkpt lat="58.093122001737356" lon="-4.420483969151974">
        <ele>133.75999999999999</ele>
        <time>2023-08-24T08:41:30Z</time>
      </trkpt>
      <trkpt lat="58.094811039045453" lon="-4.421233981847763">
        <ele>134.24000000000001</ele>
        <time>2023-08-24T08:41:40Z</time>
      </trkpt>
      <trkpt lat="58.096957979723811" lon="-4.422089019790292">
        <ele>134.24000000000001</ele>
        <time>2023-08-24T08:41:53Z</time>
      </trkpt>
      <trkpt lat="58.099229978397489" lon="-4.423256032168865">
        <ele>137.13</ele>
        <time>2023-08-24T08:42:07Z</time>
      </trkpt>
      <trkpt lat="58.100494975224137" lon="-4.424744993448257">
        <ele>139.53</ele>
        <time>2023-08-24T08:42:16Z</time>
      </trkpt>
      <trkpt lat="58.102575028315187" lon="-4.42732603289187">
        <ele>140.97</ele>
        <time>2023-08-24T08:42:29Z</time>
      </trkpt>
      <trkpt lat="58.104870999231935" lon="-4.430181998759508">
        <ele>144.81999999999999</ele>
        <time>2023-08-24T08:42:44Z</time>
      </trkpt>
      <trkpt lat="58.107020035386086" lon="-4.432856999337673">
        <ele>148.66</ele>
        <time>2023-08-24T08:42:58Z</time>
      </trkpt>
      <trkpt lat="58.108713012188673" lon="-4.434536984190345">
        <ele>149.62</ele>
        <time>2023-08-24T08:43:09Z</time>
      </trkpt>
      <trkpt lat="58.111582975834608" lon="-4.437034958973527">
        <ele>152.50999999999999</ele>
        <time>2023-08-24T08:43:26Z</time>
      </trkpt>
      <trkpt lat="58.114009033888578" lon="-4.439395973458886">
        <ele>155.38999999999999</ele>
        <time>2023-08-24T08:43:40Z</time>
      </trkpt>
      <trkpt lat="58.115226002410054" lon="-4.440638003870845">
        <ele>158.27000000000001</ele>
        <time>2023-08-24T08:43:48Z</time>
      </trkpt>
      <trkpt lat="58.115374026820064" lon="-4.440749986097217">
        <ele>158.27000000000001</ele>
        <time>2023-08-24T08:43:49Z</time>
      </trkpt>
      <trkpt lat="58.115523979067802" lon="-4.440878983587027">
        <ele>158.27000000000001</ele>
        <time>2023-08-24T08:43:50Z</time>
      </trkpt>
      <trkpt lat="58.117149984464049" lon="-4.442775975912809">
        <ele>162.12</ele>
        <time>2023-08-24T08:44:00Z</time>
      </trkpt>
      <trkpt lat="58.12007199972868" lon="-4.446184979751706">
        <ele>171.25</ele>
        <time>2023-08-24T08:44:17Z</time>
      </trkpt>
      <trkpt lat="58.121976032853127" lon="-4.448656970635057">
        <ele>175.58000000000001</ele>
        <time>2023-08-24T08:44:29Z</time>
      </trkpt>
      <trkpt lat="58.12434702180326" lon="-4.452521027997136">
        <ele>181.83000000000001</ele>
        <time>2023-08-24T08:44:45Z</time>
      </trkpt>
      <trkpt lat="58.126528998836875" lon="-4.455533986911178">
        <ele>187.59</ele>
        <time>2023-08-24T08:44:59Z</time>
      </trkpt>
      <trkpt lat="58.128794962540269" lon="-4.457584032788873">
        <ele>196.25</ele>
        <time>2023-08-24T08:45:12Z</time>
      </trkpt>
      <trkpt lat="58.13143702223897" lon="-4.460129030048847">
        <ele>201.53</ele>
        <time>2023-08-24T08:45:27Z</time>
      </trkpt>
      <trkpt lat="58.133014999330044" lon="-4.46191999129951">
        <ele>204.41999999999999</ele>
        <time>2023-08-24T08:45:37Z</time>
      </trkpt>
      <trkpt lat="58.133141985163093" lon="-4.462028034031391">
        <ele>203.94</ele>
        <time>2023-08-24T08:45:38Z</time>
      </trkpt>
      <trkpt lat="58.133318005129695" lon="-4.462157031521201">
        <ele>203.94</ele>
        <time>2023-08-24T08:45:40Z</time>
      </trkpt>
      <trkpt lat="58.133396040648222" lon="-4.462200030684471">
        <ele>204.41999999999999</ele>
        <time>2023-08-24T08:45:41Z</time>
      </trkpt>
      <trkpt lat="58.133491007611156" lon="-4.462251998484135">
        <ele>204.41999999999999</ele>
        <time>2023-08-24T08:45:42Z</time>
      </trkpt>
      <trkpt lat="58.133562002331018" lon="-4.462272031232715">
        <ele>204.41999999999999</ele>
        <time>2023-08-24T08:45:43Z</time>
      </trkpt>
      <trkpt lat="58.133642971515656" lon="-4.462294997647405">
        <ele>204.41999999999999</ele>
        <time>2023-08-24T08:45:44Z</time>
      </trkpt>
      <trkpt lat="58.134546037763357" lon="-4.462552992627025">
        <ele>205.38</ele>
        <time>2023-08-24T08:45:52Z</time>
      </trkpt>
      <trkpt lat="58.136000968515873" lon="-4.462872007861733">
        <ele>207.78</ele>
        <time>2023-08-24T08:46:01Z</time>
      </trkpt>
      <trkpt lat="58.136796997860074" lon="-4.462990025058389">
        <ele>206.34</ele>
        <time>2023-08-24T08:46:06Z</time>
      </trkpt>
      <trkpt lat="58.136936975643039" lon="-4.463042998686433">
        <ele>206.34</ele>
        <time>2023-08-24T08:46:07Z</time>
      </trkpt>
      <trkpt lat="58.137074019759893" lon="-4.463139977306128">
        <ele>205.86000000000001</ele>
        <time>2023-08-24T08:46:08Z</time>
      </trkpt>
      <trkpt lat="58.138415962457657" lon="-4.464432969689369">
        <ele>205.86000000000001</ele>
        <time>2023-08-24T08:46:17Z</time>
      </trkpt>
      <trkpt lat="58.139370996505022" lon="-4.465869041159749">
        <ele>204.90000000000001</ele>
        <time>2023-08-24T08:46:24Z</time>
      </trkpt>
      <trkpt lat="58.140056971460581" lon="-4.466929016634822">
        <ele>205.38</ele>
        <time>2023-08-24T08:46:29Z</time>
      </trkpt>
      <trkpt lat="58.140236008912325" lon="-4.46707402355969">
        <ele>205.38</ele>
        <time>2023-08-24T08:46:30Z</time>
      </trkpt>
      <trkpt lat="58.141775010153651" lon="-4.46819300763309">
        <ele>206.81999999999999</ele>
        <time>2023-08-24T08:46:39Z</time>
      </trkpt>
      <trkpt lat="58.143171016126871" lon="-4.469007980078459">
        <ele>206.81999999999999</ele>
        <time>2023-08-24T08:46:47Z</time>
      </trkpt>
      <trkpt lat="58.143323985859752" lon="-4.469197997823358">
        <ele>206.81999999999999</ele>
        <time>2023-08-24T08:46:48Z</time>
      </trkpt>
      <trkpt lat="58.143468992784619" lon="-4.469409976154566">
        <ele>206.34</ele>
        <time>2023-08-24T08:46:49Z</time>
      </trkpt>
      <trkpt lat="58.143962016329169" lon="-4.470126964151859">
        <ele>205.86000000000001</ele>
        <time>2023-08-24T08:46:53Z</time>
      </trkpt>
      <trkpt lat="58.14409595914185" lon="-4.47017096914351">
        <ele>205.38</ele>
        <time>2023-08-24T08:46:54Z</time>
      </trkpt>
      <trkpt lat="58.14422101713717" lon="-4.470185972750187">
        <ele>205.38</ele>
        <time>2023-08-24T08:46:55Z</time>
      </trkpt>
      <trkpt lat="58.144358983263373" lon="-4.470175998285413">
        <ele>205.38</ele>
        <time>2023-08-24T08:46:56Z</time>
      </trkpt>
      <trkpt lat="58.144509019330144" lon="-4.470165017992258">
        <ele>205.38</ele>
        <time>2023-08-24T08:46:57Z</time>
      </trkpt>
      <trkpt lat="58.145667985081673" lon="-4.470246993005276">
        <ele>205.38</ele>
        <time>2023-08-24T08:47:05Z</time>
      </trkpt>
      <trkpt lat="58.145784996449947" lon="-4.470318993553519">
        <ele>205.38</ele>
        <time>2023-08-24T08:47:06Z</time>
      </trkpt>
      <trkpt lat="58.145893961191177" lon="-4.470427958294749">
        <ele>205.38</ele>
        <time>2023-08-24T08:47:07Z</time>
      </trkpt>
      <trkpt lat="58.146008960902691" lon="-4.47055603377521">
        <ele>205.38</ele>
        <time>2023-08-24T08:47:08Z</time>
      </trkpt>
      <trkpt lat="58.146085990592837" lon="-4.470757031813264">
        <ele>205.38</ele>
        <time>2023-08-24T08:47:09Z</time>
      </trkpt>
      <trkpt lat="58.146166037768126" lon="-4.47096498683095">
        <ele>205.38</ele>
        <time>2023-08-24T08:47:10Z</time>
      </trkpt>
      <trkpt lat="58.146238038316369" lon="-4.471167996525765">
        <ele>205.38</ele>
        <time>2023-08-24T08:47:11Z</time>
      </trkpt>
      <trkpt lat="58.146297968924046" lon="-4.471367988735437">
        <ele>204.90000000000001</ele>
        <time>2023-08-24T08:47:12Z</time>
      </trkpt>
      <trkpt lat="58.146560993045568" lon="-4.472248004749417">
        <ele>205.38</ele>
        <time>2023-08-24T08:47:19Z</time>
      </trkpt>
      <trkpt lat="58.146785041317344" lon="-4.472998017445207">
        <ele>205.86000000000001</ele>
        <time>2023-08-24T08:47:25Z</time>
      </trkpt>
      <trkpt lat="58.147373031824827" lon="-4.474960975348949">
        <ele>204.41999999999999</ele>
        <time>2023-08-24T08:47:33Z</time>
      </trkpt>
      <trkpt lat="58.148280037567019" lon="-4.477854995056987">
        <ele>202.00999999999999</ele>
        <time>2023-08-24T08:47:44Z</time>
      </trkpt>
      <trkpt lat="58.149083023890853" lon="-4.479522993788123">
        <ele>202.97999999999999</ele>
        <time>2023-08-24T08:47:54Z</time>
      </trkpt>
      <trkpt lat="58.150117015466094" lon="-4.481137013062835">
        <ele>203.46000000000001</ele>
        <time>2023-08-24T08:48:03Z</time>
      </trkpt>
      <trkpt lat="58.151501035317779" lon="-4.484203029423952">
        <ele>201.53</ele>
        <time>2023-08-24T08:48:17Z</time>
      </trkpt>
      <trkpt lat="58.152414998039603" lon="-4.48527398519218">
        <ele>200.56999999999999</ele>
        <time>2023-08-24T08:48:24Z</time>
      </trkpt>
      <trkpt lat="58.153905970975757" lon="-4.486764958128333">
        <ele>200.09</ele>
        <time>2023-08-24T08:48:35Z</time>
      </trkpt>
      <trkpt lat="58.155983006581664" lon="-4.488729005679488">
        <ele>201.05000000000001</ele>
        <time>2023-08-24T08:48:48Z</time>
      </trkpt>
      <trkpt lat="58.158922959119081" lon="-4.491245001554489">
        <ele>198.65000000000001</ele>
        <time>2023-08-24T08:49:05Z</time>
      </trkpt>
      <trkpt lat="58.16141095943749" lon="-4.493723027408123">
        <ele>194.80000000000001</ele>
        <time>2023-08-24T08:49:20Z</time>
      </trkpt>
      <trkpt lat="58.163936007767916" lon="-4.4971330370754">
        <ele>192.40000000000001</ele>
        <time>2023-08-24T08:49:36Z</time>
      </trkpt>
      <trkpt lat="58.166013965383172" lon="-4.500209027901292">
        <ele>197.21000000000001</ele>
        <time>2023-08-24T08:49:50Z</time>
      </trkpt>
      <trkpt lat="58.167278962209821" lon="-4.502592002972961">
        <ele>203.46000000000001</ele>
        <time>2023-08-24T08:50:00Z</time>
      </trkpt>
      <trkpt lat="58.168644038960338" lon="-4.505359958857298">
        <ele>209.69999999999999</ele>
        <time>2023-08-24T08:50:11Z</time>
      </trkpt>
      <trkpt lat="58.169771991670132" lon="-4.506614981219173">
        <ele>214.03</ele>
        <time>2023-08-24T08:50:18Z</time>
      </trkpt>
      <trkpt lat="58.171660015359521" lon="-4.508392028510571">
        <ele>220.75999999999999</ele>
        <time>2023-08-24T08:50:30Z</time>
      </trkpt>
      <trkpt lat="58.173388028517365" lon="-4.510437967255712">
        <ele>225.56999999999999</ele>
        <time>2023-08-24T08:50:41Z</time>
      </trkpt>
      <trkpt lat="58.17516197450459" lon="-4.512588009238243">
        <ele>229.88999999999999</ele>
        <time>2023-08-24T08:50:53Z</time>
      </trkpt>
      <trkpt lat="58.175475038588047" lon="-4.51296703889966">
        <ele>231.33000000000001</ele>
        <time>2023-08-24T08:50:59Z</time>
      </trkpt>
      <trkpt lat="58.175520971417427" lon="-4.51300903223455">
        <ele>231.81</ele>
        <time>2023-08-24T08:51:08Z</time>
      </trkpt>
      <trkpt lat="58.175520971417427" lon="-4.51300903223455">
        <ele>232.78</ele>
        <time>2023-08-24T08:52:04Z</time>
      </trkpt>
      <trkpt lat="58.175643011927605" lon="-4.513111039996147">
        <ele>232.30000000000001</ele>
        <time>2023-08-24T08:52:31Z</time>
      </trkpt>
      <trkpt lat="58.176270984113216" lon="-4.513637004420161">
        <ele>231.81</ele>
        <time>2023-08-24T08:52:38Z</time>
      </trkpt>
      <trkpt lat="58.177514020353556" lon="-4.514670995995402">
        <ele>233.74000000000001</ele>
        <time>2023-08-24T08:52:47Z</time>
      </trkpt>
      <trkpt lat="58.178572990000248" lon="-4.51526896096766">
        <ele>235.18000000000001</ele>
        <time>2023-08-24T08:52:55Z</time>
      </trkpt>
      <trkpt lat="58.179572029039264" lon="-4.515511030331254">
        <ele>236.13999999999999</ele>
        <time>2023-08-24T08:53:02Z</time>
      </trkpt>
      <trkpt lat="58.179721981287003" lon="-4.515492003411055">
        <ele>236.13999999999999</ele>
        <time>2023-08-24T08:53:03Z</time>
      </trkpt>
      <trkpt lat="58.179878974333405" lon="-4.515425032004714">
        <ele>236.13999999999999</ele>
        <time>2023-08-24T08:53:04Z</time>
      </trkpt>
      <trkpt lat="58.181230975314975" lon="-4.514439990743995">
        <ele>236.13999999999999</ele>
        <time>2023-08-24T08:53:12Z</time>
      </trkpt>
      <trkpt lat="58.182242000475526" lon="-4.513374986127019">
        <ele>234.69999999999999</ele>
        <time>2023-08-24T08:53:19Z</time>
      </trkpt>
      <trkpt lat="58.182754972949624" lon="-4.512799987569451">
        <ele>233.74000000000001</ele>
        <time>2023-08-24T08:53:26Z</time>
      </trkpt>
      <trkpt lat="58.183617973700166" lon="-4.512018961831927">
        <ele>231.33000000000001</ele>
        <time>2023-08-24T08:53:33Z</time>
      </trkpt>
      <trkpt lat="58.184533026069403" lon="-4.511454021558166">
        <ele>227.49000000000001</ele>
        <time>2023-08-24T08:53:39Z</time>
      </trkpt>
      <trkpt lat="58.184689013287425" lon="-4.511411022394896">
        <ele>227.00999999999999</ele>
        <time>2023-08-24T08:53:40Z</time>
      </trkpt>
      <trkpt lat="58.184837959706783" lon="-4.511461984366179">
        <ele>226.53</ele>
        <time>2023-08-24T08:53:41Z</time>
      </trkpt>
      <trkpt lat="58.186261961236596" lon="-4.512090962380171">
        <ele>226.53</ele>
        <time>2023-08-24T08:53:50Z</time>
      </trkpt>
      <trkpt lat="58.187840022146702" lon="-4.513101987540722">
        <ele>233.74000000000001</ele>
        <time>2023-08-24T08:54:00Z</time>
      </trkpt>
      <trkpt lat="58.189743971452117" lon="-4.514311999082565">
        <ele>243.83000000000001</ele>
        <time>2023-08-24T08:54:11Z</time>
      </trkpt>
      <trkpt lat="58.191599976271391" lon="-4.514442002400756">
        <ele>250.08000000000001</ele>
        <time>2023-08-24T08:54:22Z</time>
      </trkpt>
      <trkpt lat="58.19308097474277" lon="-4.514604024589062">
        <ele>254.41</ele>
        <time>2023-08-24T08:54:31Z</time>
      </trkpt>
      <trkpt lat="58.194600027054548" lon="-4.515295028686523">
        <ele>258.73000000000002</ele>
        <time>2023-08-24T08:54:40Z</time>
      </trkpt>
      <trkpt lat="58.196231983602047" lon="-4.516928996890783">
        <ele>266.42000000000002</ele>
        <time>2023-08-24T08:54:50Z</time>
      </trkpt>
      <trkpt lat="58.197558000683784" lon="-4.517455967143178">
        <ele>267.86000000000001</ele>
        <time>2023-08-24T08:54:58Z</time>
      </trkpt>
      <trkpt lat="58.198887035250664" lon="-4.516823971644044">
        <ele>269.31</ele>
        <time>2023-08-24T08:55:06Z</time>
      </trkpt>
      <trkpt lat="58.200397035107017" lon="-4.515156978741288">
        <ele>265.45999999999998</ele>
        <time>2023-08-24T08:55:16Z</time>
      </trkpt>
      <trkpt lat="58.201404036954045" lon="-4.513424020260572">
        <ele>259.20999999999998</ele>
        <time>2023-08-24T08:55:24Z</time>
      </trkpt>
      <trkpt lat="58.202370973303914" lon="-4.511070968583226">
        <ele>251.52000000000001</ele>
        <time>2023-08-24T08:55:33Z</time>
      </trkpt>
      <trkpt lat="58.202840024605393" lon="-4.508705008774996">
        <ele>244.78999999999999</ele>
        <time>2023-08-24T08:55:40Z</time>
      </trkpt>
      <trkpt lat="58.203557012602687" lon="-4.506095973774791">
        <ele>235.66</ele>
        <time>2023-08-24T08:55:48Z</time>
      </trkpt>
      <trkpt lat="58.20470399223268" lon="-4.503453997895122">
        <ele>226.05000000000001</ele>
        <time>2023-08-24T08:55:58Z</time>
      </trkpt>
      <trkpt lat="58.206075020134449" lon="-4.501193985342979">
        <ele>215.94999999999999</ele>
        <time>2023-08-24T08:56:08Z</time>
      </trkpt>
      <trkpt lat="58.206889992579818" lon="-4.500147001817823">
        <ele>210.66999999999999</ele>
        <time>2023-08-24T08:56:15Z</time>
      </trkpt>
      <trkpt lat="58.207685016095638" lon="-4.499584995210171">
        <ele>204.41999999999999</ele>
        <time>2023-08-24T08:56:24Z</time>
      </trkpt>
      <trkpt lat="58.208074020221829" lon="-4.499329011887312">
        <ele>201.05000000000001</ele>
        <time>2023-08-24T08:56:33Z</time>
      </trkpt>
      <trkpt lat="58.208468975499272" lon="-4.499069005250931">
        <ele>197.69</ele>
        <time>2023-08-24T08:56:42Z</time>
      </trkpt>
      <trkpt lat="58.208514992147684" lon="-4.499038998037577">
        <ele>197.21000000000001</ele>
        <time>2023-08-24T08:56:43Z</time>
      </trkpt>
      <trkpt lat="58.208647007122636" lon="-4.498952999711037">
        <ele>196.72999999999999</ele>
        <time>2023-08-24T08:56:45Z</time>
      </trkpt>
      <trkpt lat="58.20947203785181" lon="-4.498388981446624">
        <ele>195.28</ele>
        <time>2023-08-24T08:56:56Z</time>
      </trkpt>
      <trkpt lat="58.210164969787002" lon="-4.497930994257331">
        <ele>194.80000000000001</ele>
        <time>2023-08-24T08:57:02Z</time>
      </trkpt>
      <trkpt lat="58.211028976365924" lon="-4.497527992352843">
        <ele>193.84</ele>
        <time>2023-08-24T08:57:08Z</time>
      </trkpt>
      <trkpt lat="58.212066991254687" lon="-4.497217023745179">
        <ele>192.40000000000001</ele>
        <time>2023-08-24T08:57:16Z</time>
      </trkpt>
      <trkpt lat="58.213610015809536" lon="-4.497360019013286">
        <ele>190.96000000000001</ele>
        <time>2023-08-24T08:57:26Z</time>
      </trkpt>
      <trkpt lat="58.213785029947758" lon="-4.497378040105104">
        <ele>190.47999999999999</ele>
        <time>2023-08-24T08:57:27Z</time>
      </trkpt>
      <trkpt lat="58.213936993852258" lon="-4.497302016243339">
        <ele>190.47999999999999</ele>
        <time>2023-08-24T08:57:28Z</time>
      </trkpt>
      <trkpt lat="58.214090969413519" lon="-4.497207971289754">
        <ele>190</ele>
        <time>2023-08-24T08:57:29Z</time>
      </trkpt>
      <trkpt lat="58.214818015694618" lon="-4.496620986610651">
        <ele>190.47999999999999</ele>
        <time>2023-08-24T08:57:34Z</time>
      </trkpt>
      <trkpt lat="58.214955981820822" lon="-4.496562983840704">
        <ele>190.47999999999999</ele>
        <time>2023-08-24T08:57:35Z</time>
      </trkpt>
      <trkpt lat="58.215104006230831" lon="-4.49655401520431">
        <ele>190</ele>
        <time>2023-08-24T08:57:36Z</time>
      </trkpt>
      <trkpt lat="58.215260999277234" lon="-4.496576981619">
        <ele>190</ele>
        <time>2023-08-24T08:57:37Z</time>
      </trkpt>
      <trkpt lat="58.215425033122301" lon="-4.496600031852722">
        <ele>189.52000000000001</ele>
        <time>2023-08-24T08:57:38Z</time>
      </trkpt>
      <trkpt lat="58.216704027727246" lon="-4.496701033785939">
        <ele>187.11000000000001</ele>
        <time>2023-08-24T08:57:46Z</time>
      </trkpt>
      <trkpt lat="58.21834403090179" lon="-4.495956972241402">
        <ele>184.71000000000001</ele>
        <time>2023-08-24T08:57:56Z</time>
      </trkpt>
      <trkpt lat="58.218505969271064" lon="-4.495944986119866">
        <ele>184.71000000000001</ele>
        <time>2023-08-24T08:57:57Z</time>
      </trkpt>
      <trkpt lat="58.218670003116131" lon="-4.495967030525208">
        <ele>184.71000000000001</ele>
        <time>2023-08-24T08:57:58Z</time>
      </trkpt>
      <trkpt lat="58.218835964798927" lon="-4.496011035516858">
        <ele>184.71000000000001</ele>
        <time>2023-08-24T08:57:59Z</time>
      </trkpt>
      <trkpt lat="58.218998992815614" lon="-4.496054034680128">
        <ele>184.22999999999999</ele>
        <time>2023-08-24T08:58:00Z</time>
      </trkpt>
      <trkpt lat="58.219153974205256" lon="-4.496096028015018">
        <ele>184.22999999999999</ele>
        <time>2023-08-24T08:58:01Z</time>
      </trkpt>
      <trkpt lat="58.219306021928787" lon="-4.496098039671779">
        <ele>184.22999999999999</ele>
        <time>2023-08-24T08:58:02Z</time>
      </trkpt>
      <trkpt lat="58.21946200914681" lon="-4.496073983609676">
        <ele>184.22999999999999</ele>
        <time>2023-08-24T08:58:03Z</time>
      </trkpt>
      <trkpt lat="58.21961497887969" lon="-4.495984967797995">
        <ele>184.22999999999999</ele>
        <time>2023-08-24T08:58:04Z</time>
      </trkpt>
      <trkpt lat="58.219767026603222" lon="-4.495881032198668">
        <ele>184.22999999999999</ele>
        <time>2023-08-24T08:58:05Z</time>
      </trkpt>
      <trkpt lat="58.219919996336102" lon="-4.495763015002012">
        <ele>184.22999999999999</ele>
        <time>2023-08-24T08:58:06Z</time>
      </trkpt>
      <trkpt lat="58.220074977725744" lon="-4.495633011683822">
        <ele>183.75</ele>
        <time>2023-08-24T08:58:07Z</time>
      </trkpt>
      <trkpt lat="58.222318980842829" lon="-4.493753034621477">
        <ele>182.78999999999999</ele>
        <time>2023-08-24T08:58:20Z</time>
      </trkpt>
      <trkpt lat="58.223816994577646" lon="-4.492832031100988">
        <ele>181.83000000000001</ele>
        <time>2023-08-24T08:58:29Z</time>
      </trkpt>
      <trkpt lat="58.224129974842072" lon="-4.492780985310674">
        <ele>181.34999999999999</ele>
        <time>2023-08-24T08:58:31Z</time>
      </trkpt>
      <trkpt lat="58.224289985373616" lon="-4.492798000574112">
        <ele>181.34999999999999</ele>
        <time>2023-08-24T08:58:32Z</time>
      </trkpt>
      <trkpt lat="58.225315008312464" lon="-4.492638995870948">
        <ele>181.34999999999999</ele>
        <time>2023-08-24T08:58:39Z</time>
      </trkpt>
      <trkpt lat="58.225591024383903" lon="-4.492415031418204">
        <ele>180.87</ele>
        <time>2023-08-24T08:58:41Z</time>
      </trkpt>
      <trkpt lat="58.225726978853345" lon="-4.492297014221549">
        <ele>180.87</ele>
        <time>2023-08-24T08:58:42Z</time>
      </trkpt>
      <trkpt lat="58.22584499605" lon="-4.492122000083327">
        <ele>180.38</ele>
        <time>2023-08-24T08:58:43Z</time>
      </trkpt>
      <trkpt lat="58.225962007418275" lon="-4.491948997601867">
        <ele>180.38</ele>
        <time>2023-08-24T08:58:44Z</time>
      </trkpt>
      <trkpt lat="58.22607901878655" lon="-4.491775995120406">
        <ele>180.87</ele>
        <time>2023-08-24T08:58:45Z</time>
      </trkpt>
      <trkpt lat="58.227321971207857" lon="-4.490278987213969">
        <ele>177.97999999999999</ele>
        <time>2023-08-24T08:58:54Z</time>
      </trkpt>
      <trkpt lat="58.229315020143986" lon="-4.487929958850145">
        <ele>174.62</ele>
        <time>2023-08-24T08:59:07Z</time>
      </trkpt>
      <trkpt lat="58.23065796867013" lon="-4.485669024288654">
        <ele>174.13999999999999</ele>
        <time>2023-08-24T08:59:17Z</time>
      </trkpt>
      <trkpt lat="58.231765972450376" lon="-4.483329970389605">
        <ele>174.62</ele>
        <time>2023-08-24T08:59:27Z</time>
      </trkpt>
      <trkpt lat="58.231891030445695" lon="-4.483157973736525">
        <ele>174.62</ele>
        <time>2023-08-24T08:59:28Z</time>
      </trkpt>
      <trkpt lat="58.232020027935505" lon="-4.482982037588954">
        <ele>174.62</ele>
        <time>2023-08-24T08:59:29Z</time>
      </trkpt>
      <trkpt lat="58.233563974499702" lon="-4.481629030779004">
        <ele>175.09999999999999</ele>
        <time>2023-08-24T08:59:39Z</time>
      </trkpt>
      <trkpt lat="58.235217975452542" lon="-4.480700986459851">
        <ele>173.66</ele>
        <time>2023-08-24T08:59:49Z</time>
      </trkpt>
      <trkpt lat="58.236445002257824" lon="-4.480019034817815">
        <ele>173.16999999999999</ele>
        <time>2023-08-24T08:59:57Z</time>
      </trkpt>
      <trkpt lat="58.236575005576015" lon="-4.479975029826164">
        <ele>173.16999999999999</ele>
        <time>2023-08-24T08:59:58Z</time>
      </trkpt>
      <trkpt lat="58.236710038036108" lon="-4.479978969320655">
        <ele>173.16999999999999</ele>
        <time>2023-08-24T08:59:59Z</time>
      </trkpt>
      <trkpt lat="58.236849009990692" lon="-4.480026997625828">
        <ele>173.66</ele>
        <time>2023-08-24T09:00:00Z</time>
      </trkpt>
      <trkpt lat="58.236998040229082" lon="-4.480078965425491">
        <ele>173.66</ele>
        <time>2023-08-24T09:00:01Z</time>
      </trkpt>
      <trkpt lat="58.237303979694843" lon="-4.480147026479244">
        <ele>173.66</ele>
        <time>2023-08-24T09:00:03Z</time>
      </trkpt>
      <trkpt lat="58.237463990226388" lon="-4.480147026479244">
        <ele>173.66</ele>
        <time>2023-08-24T09:00:04Z</time>
      </trkpt>
      <trkpt lat="58.23761997744441" lon="-4.480111990123987">
        <ele>173.16999999999999</ele>
        <time>2023-08-24T09:00:05Z</time>
      </trkpt>
      <trkpt lat="58.237772025167942" lon="-4.480021968483925">
        <ele>173.16999999999999</ele>
        <time>2023-08-24T09:00:06Z</time>
      </trkpt>
      <trkpt lat="58.237922983244061" lon="-4.479933036491275">
        <ele>173.16999999999999</ele>
        <time>2023-08-24T09:00:07Z</time>
      </trkpt>
      <trkpt lat="58.239448992535472" lon="-4.479233985766769">
        <ele>170.28999999999999</ele>
        <time>2023-08-24T09:00:17Z</time>
      </trkpt>
      <trkpt lat="58.239606991410255" lon="-4.479225017130375">
        <ele>170.28999999999999</ele>
        <time>2023-08-24T09:00:18Z</time>
      </trkpt>
      <trkpt lat="58.239791980013251" lon="-4.479225017130375">
        <ele>170.28999999999999</ele>
        <time>2023-08-24T09:00:19Z</time>
      </trkpt>
      <trkpt lat="58.241518987342715" lon="-4.479529028758407">
        <ele>170.28999999999999</ele>
        <time>2023-08-24T09:00:29Z</time>
      </trkpt>
      <trkpt lat="58.24284098111093" lon="-4.479124015197158">
        <ele>170.77000000000001</ele>
        <time>2023-08-24T09:00:37Z</time>
      </trkpt>
      <trkpt lat="58.24296997860074" lon="-4.478968027979136">
        <ele>170.77000000000001</ele>
        <time>2023-08-24T09:00:38Z</time>
      </trkpt>
      <trkpt lat="58.243092019110918" lon="-4.478799970820546">
        <ele>170.28999999999999</ele>
        <time>2023-08-24T09:00:39Z</time>
      </trkpt>
      <trkpt lat="58.243222022429109" lon="-4.478623028844595">
        <ele>170.28999999999999</ele>
        <time>2023-08-24T09:00:40Z</time>
      </trkpt>
      <trkpt lat="58.243344984948635" lon="-4.478405015543103">
        <ele>170.28999999999999</ele>
        <time>2023-08-24T09:00:41Z</time>
      </trkpt>
      <trkpt lat="58.244011010974646" lon="-4.47659301571548">
        <ele>169.81</ele>
        <time>2023-08-24T09:00:48Z</time>
      </trkpt>
      <trkpt lat="58.244119975715876" lon="-4.476409032940865">
        <ele>169.33000000000001</ele>
        <time>2023-08-24T09:00:49Z</time>
      </trkpt>
      <trkpt lat="58.244251990690827" lon="-4.476257991045713">
        <ele>168.84999999999999</ele>
        <time>2023-08-24T09:00:50Z</time>
      </trkpt>
      <trkpt lat="58.244392974302173" lon="-4.476109966635704">
        <ele>168.37</ele>
        <time>2023-08-24T09:00:51Z</time>
      </trkpt>
      <trkpt lat="58.244547033682466" lon="-4.475969988852739">
        <ele>167.88999999999999</ele>
        <time>2023-08-24T09:00:52Z</time>
      </trkpt>
      <trkpt lat="58.245025975629687" lon="-4.475544020533562">
        <ele>166.93000000000001</ele>
        <time>2023-08-24T09:00:55Z</time>
      </trkpt>
      <trkpt lat="58.246931014582515" lon="-4.474296038970351">
        <ele>161.63999999999999</ele>
        <time>2023-08-24T09:01:06Z</time>
      </trkpt>
      <trkpt lat="58.248930014669895" lon="-4.473016960546374">
        <ele>159.24000000000001</ele>
        <time>2023-08-24T09:01:18Z</time>
      </trkpt>
      <trkpt lat="58.250565994530916" lon="-4.471495980396867">
        <ele>158.27000000000001</ele>
        <time>2023-08-24T09:01:28Z</time>
      </trkpt>
      <trkpt lat="58.252910999581218" lon="-4.469004040583968">
        <ele>162.12</ele>
        <time>2023-08-24T09:01:43Z</time>
      </trkpt>
      <trkpt lat="58.254013974219561" lon="-4.468015981838107">
        <ele>163.08000000000001</ele>
        <time>2023-08-24T09:01:50Z</time>
      </trkpt>
      <trkpt lat="58.254146995022893" lon="-4.467793023213744">
        <ele>162.59999999999999</ele>
        <time>2023-08-24T09:01:51Z</time>
      </trkpt>
      <trkpt lat="58.255089037120342" lon="-4.466378996148706">
        <ele>162.59999999999999</ele>
        <time>2023-08-24T09:01:58Z</time>
      </trkpt>
      <trkpt lat="58.255651965737343" lon="-4.465741971507669">
        <ele>164.03999999999999</ele>
        <time>2023-08-24T09:02:02Z</time>
      </trkpt>
      <trkpt lat="58.255786998197436" lon="-4.465578021481633">
        <ele>164.03999999999999</ele>
        <time>2023-08-24T09:02:03Z</time>
      </trkpt>
      <trkpt lat="58.255886994302273" lon="-4.46533402428031">
        <ele>164.52000000000001</ele>
        <time>2023-08-24T09:02:04Z</time>
      </trkpt>
      <trkpt lat="58.256831970065832" lon="-4.462851975113154">
        <ele>162.12</ele>
        <time>2023-08-24T09:02:13Z</time>
      </trkpt>
      <trkpt lat="58.257645014673471" lon="-4.461072999984026">
        <ele>158.75</ele>
        <time>2023-08-24T09:02:20Z</time>
      </trkpt>
      <trkpt lat="58.258043993264437" lon="-4.460484003648162">
        <ele>157.31</ele>
        <time>2023-08-24T09:02:23Z</time>
      </trkpt>
      <trkpt lat="58.258138038218021" lon="-4.460233971476555">
        <ele>156.83000000000001</ele>
        <time>2023-08-24T09:02:24Z</time>
      </trkpt>
      <trkpt lat="58.258227976039052" lon="-4.459981005638838">
        <ele>156.34999999999999</ele>
        <time>2023-08-24T09:02:25Z</time>
      </trkpt>
      <trkpt lat="58.258495023474097" lon="-4.459240967407823">
        <ele>154.91</ele>
        <time>2023-08-24T09:02:28Z</time>
      </trkpt>
      <trkpt lat="58.258590996265411" lon="-4.459043992683291">
        <ele>154.43000000000001</ele>
        <time>2023-08-24T09:02:29Z</time>
      </trkpt>
      <trkpt lat="58.258714964613318" lon="-4.458895968273282">
        <ele>153.94999999999999</ele>
        <time>2023-08-24T09:02:30Z</time>
      </trkpt>
      <trkpt lat="58.258847985416651" lon="-4.458736041560769">
        <ele>153.47</ele>
        <time>2023-08-24T09:02:31Z</time>
      </trkpt>
      <trkpt lat="58.258987041190267" lon="-4.458569996058941">
        <ele>152.99000000000001</ele>
        <time>2023-08-24T09:02:32Z</time>
      </trkpt>
      <trkpt lat="58.26030601747334" lon="-4.456866038963199">
        <ele>148.66</ele>
        <time>2023-08-24T09:02:41Z</time>
      </trkpt>
      <trkpt lat="58.260423028841615" lon="-4.456639979034662">
        <ele>148.18000000000001</ele>
        <time>2023-08-24T09:02:42Z</time>
      </trkpt>
      <trkpt lat="58.260535011067986" lon="-4.456425989046693">
        <ele>147.69999999999999</ele>
        <time>2023-08-24T09:02:43Z</time>
      </trkpt>
      <trkpt lat="58.260624026879668" lon="-4.456190038472414">
        <ele>147.22</ele>
        <time>2023-08-24T09:02:44Z</time>
      </trkpt>
      <trkpt lat="58.261101040989161" lon="-4.455023026093841">
        <ele>143.84999999999999</ele>
        <time>2023-08-24T09:02:49Z</time>
      </trkpt>
      <trkpt lat="58.261227020993829" lon="-4.454846000298858">
        <ele>142.88999999999999</ele>
        <time>2023-08-24T09:02:50Z</time>
      </trkpt>
      <trkpt lat="58.26136096380651" lon="-4.454659000039101">
        <ele>142.41</ele>
        <time>2023-08-24T09:02:51Z</time>
      </trkpt>
      <trkpt lat="58.261761032044888" lon="-4.454100010916591">
        <ele>139.53</ele>
        <time>2023-08-24T09:02:54Z</time>
      </trkpt>
      <trkpt lat="58.261872008442879" lon="-4.453875962644815">
        <ele>138.56999999999999</ele>
        <time>2023-08-24T09:02:55Z</time>
      </trkpt>
      <trkpt lat="58.261969992890954" lon="-4.453638000413775">
        <ele>137.61000000000001</ele>
        <time>2023-08-24T09:02:56Z</time>
      </trkpt>
      <trkpt lat="58.262064959853888" lon="-4.453406995162368">
        <ele>136.16</ele>
        <time>2023-08-24T09:02:57Z</time>
      </trkpt>
      <trkpt lat="58.262153975665569" lon="-4.453189987689257">
        <ele>135.68000000000001</ele>
        <time>2023-08-24T09:02:58Z</time>
      </trkpt>
      <trkpt lat="58.262236034497619" lon="-4.452991001307964">
        <ele>134.72</ele>
        <time>2023-08-24T09:02:59Z</time>
      </trkpt>
      <trkpt lat="58.26232798397541" lon="-4.45280903019011">
        <ele>134.24000000000001</ele>
        <time>2023-08-24T09:03:00Z</time>
      </trkpt>
      <trkpt lat="58.262452036142349" lon="-4.452699981629849">
        <ele>133.28</ele>
        <time>2023-08-24T09:03:01Z</time>
      </trkpt>
      <trkpt lat="58.262586984783411" lon="-4.452581964433193">
        <ele>132.31999999999999</ele>
        <time>2023-08-24T09:03:02Z</time>
      </trkpt>
      <trkpt lat="58.262730985879898" lon="-4.452455984428525">
        <ele>131.36000000000001</ele>
        <time>2023-08-24T09:03:03Z</time>
      </trkpt>
      <trkpt lat="58.264103019610047" lon="-4.451157040894032">
        <ele>122.22</ele>
        <time>2023-08-24T09:03:12Z</time>
      </trkpt>
      <trkpt lat="58.265664987266064" lon="-4.449757011607289">
        <ele>114.53</ele>
        <time>2023-08-24T09:03:23Z</time>
      </trkpt>
      <trkpt lat="58.266447018831968" lon="-4.448919994756579">
        <ele>111.65000000000001</ele>
        <time>2023-08-24T09:03:29Z</time>
      </trkpt>
      <trkpt lat="58.266542991623282" lon="-4.448731988668442">
        <ele>111.65000000000001</ele>
        <time>2023-08-24T09:03:30Z</time>
      </trkpt>
      <trkpt lat="58.266728986054659" lon="-4.448368968442082">
        <ele>111.17</ele>
        <time>2023-08-24T09:03:32Z</time>
      </trkpt>
      <trkpt lat="58.266815990209579" lon="-4.448197977617383">
        <ele>111.17</ele>
        <time>2023-08-24T09:03:33Z</time>
      </trkpt>
      <trkpt lat="58.266912968829274" lon="-4.448053976520896">
        <ele>111.17</ele>
        <time>2023-08-24T09:03:34Z</time>
      </trkpt>
      <trkpt lat="58.267029980197549" lon="-4.447952974587679">
        <ele>110.69</ele>
        <time>2023-08-24T09:03:35Z</time>
      </trkpt>
      <trkpt lat="58.267145985737443" lon="-4.447852978482842">
        <ele>110.69</ele>
        <time>2023-08-24T09:03:36Z</time>
      </trkpt>
      <trkpt lat="58.268562024459243" lon="-4.446537019684911">
        <ele>106.36</ele>
        <time>2023-08-24T09:03:47Z</time>
      </trkpt>
      <trkpt lat="58.269641026854515" lon="-4.44483901374042">
        <ele>101.56</ele>
        <time>2023-08-24T09:03:56Z</time>
      </trkpt>
      <trkpt lat="58.270678035914898" lon="-4.44324703887105">
        <ele>97.230000000000004</ele>
        <time>2023-08-24T09:04:05Z</time>
      </trkpt>
      <trkpt lat="58.270816002041101" lon="-4.443161962553859">
        <ele>96.75</ele>
        <time>2023-08-24T09:04:06Z</time>
      </trkpt>
      <trkpt lat="58.270953968167305" lon="-4.443076970055699">
        <ele>96.75</ele>
        <time>2023-08-24T09:04:07Z</time>
      </trkpt>
      <trkpt lat="58.271507006138563" lon="-4.442738005891442">
        <ele>95.790000000000006</ele>
        <time>2023-08-24T09:04:11Z</time>
      </trkpt>
      <trkpt lat="58.271628962829709" lon="-4.442601967602968">
        <ele>95.790000000000006</ele>
        <time>2023-08-24T09:04:12Z</time>
      </trkpt>
      <trkpt lat="58.271752009168267" lon="-4.442451009526849">
        <ele>95.790000000000006</ele>
        <time>2023-08-24T09:04:13Z</time>
      </trkpt>
      <trkpt lat="58.271880000829697" lon="-4.442295022308826">
        <ele>95.790000000000006</ele>
        <time>2023-08-24T09:04:14Z</time>
      </trkpt>
      <trkpt lat="58.272008998319507" lon="-4.442112967371941">
        <ele>95.790000000000006</ele>
        <time>2023-08-24T09:04:15Z</time>
      </trkpt>
      <trkpt lat="58.273005019873381" lon="-4.440157972276211">
        <ele>96.269999999999996</ele>
        <time>2023-08-24T09:04:24Z</time>
      </trkpt>
      <trkpt lat="58.273065034300089" lon="-4.439882962033153">
        <ele>96.269999999999996</ele>
        <time>2023-08-24T09:04:25Z</time>
      </trkpt>
      <trkpt lat="58.273113984614611" lon="-4.439600994810462">
        <ele>95.790000000000006</ele>
        <time>2023-08-24T09:04:26Z</time>
      </trkpt>
      <trkpt lat="58.273265026509762" lon="-4.438858022913337">
        <ele>95.310000000000002</ele>
        <time>2023-08-24T09:04:29Z</time>
      </trkpt>
      <trkpt lat="58.273338032886386" lon="-4.438663981854916">
        <ele>95.310000000000002</ele>
        <time>2023-08-24T09:04:30Z</time>
      </trkpt>
      <trkpt lat="58.273428976535797" lon="-4.438489973545075">
        <ele>94.829999999999998</ele>
        <time>2023-08-24T09:04:31Z</time>
      </trkpt>
      <trkpt lat="58.274155016988516" lon="-4.437205027788878">
        <ele>93.870000000000005</ele>
        <time>2023-08-24T09:04:37Z</time>
      </trkpt>
      <trkpt lat="58.275291016325355" lon="-4.435681030154228">
        <ele>93.870000000000005</ele>
        <time>2023-08-24T09:04:45Z</time>
      </trkpt>
      <trkpt lat="58.275972967967391" lon="-4.434935040771961">
        <ele>93.870000000000005</ele>
        <time>2023-08-24T09:04:51Z</time>
      </trkpt>
      <trkpt lat="58.27610095962882" lon="-4.434872008860111">
        <ele>93.870000000000005</ele>
        <time>2023-08-24T09:04:52Z</time>
      </trkpt>
      <trkpt lat="58.276230962947011" lon="-4.434872008860111">
        <ele>93.870000000000005</ele>
        <time>2023-08-24T09:04:53Z</time>
      </trkpt>
      <trkpt lat="58.276365995407104" lon="-4.434872008860111">
        <ele>93.870000000000005</ele>
        <time>2023-08-24T09:04:54Z</time>
      </trkpt>
      <trkpt lat="58.276505973190069" lon="-4.434872008860111">
        <ele>94.349999999999994</ele>
        <time>2023-08-24T09:04:55Z</time>
      </trkpt>
      <trkpt lat="58.277955958619714" lon="-4.4350849930197">
        <ele>98.189999999999998</ele>
        <time>2023-08-24T09:05:05Z</time>
      </trkpt>
      <trkpt lat="58.278091996908188" lon="-4.435173003003001">
        <ele>98.189999999999998</ele>
        <time>2023-08-24T09:05:06Z</time>
      </trkpt>
      <trkpt lat="58.278342029079795" lon="-4.435343993827701">
        <ele>98.670000000000002</ele>
        <time>2023-08-24T09:05:08Z</time>
      </trkpt>
      <trkpt lat="58.278751987963915" lon="-4.435952017083764">
        <ele>98.670000000000002</ele>
        <time>2023-08-24T09:05:12Z</time>
      </trkpt>
      <trkpt lat="58.278841003775597" lon="-4.436129964888096">
        <ele>98.670000000000002</ele>
        <time>2023-08-24T09:05:13Z</time>
      </trkpt>
      <trkpt lat="58.278931025415659" lon="-4.43630900233984">
        <ele>98.189999999999998</ele>
        <time>2023-08-24T09:05:14Z</time>
      </trkpt>
      <trkpt lat="58.2796869892627" lon="-4.438721984624863">
        <ele>92.420000000000002</ele>
        <time>2023-08-24T09:05:25Z</time>
      </trkpt>
      <trkpt lat="58.280564993619919" lon="-4.441679958254099">
        <ele>86.180000000000007</ele>
        <time>2023-08-24T09:05:37Z</time>
      </trkpt>
      <trkpt lat="58.280794993042946" lon="-4.442498032003641">
        <ele>82.329999999999998</ele>
        <time>2023-08-24T09:05:43Z</time>
      </trkpt>
      <trkpt lat="58.281145021319389" lon="-4.443353991955519">
        <ele>78.969999999999999</ele>
        <time>2023-08-24T09:05:51Z</time>
      </trkpt>
      <trkpt lat="58.281226996332407" lon="-4.443477038294077">
        <ele>78.969999999999999</ele>
        <time>2023-08-24T09:05:52Z</time>
      </trkpt>
      <trkpt lat="58.281315006315708" lon="-4.443568987771869">
        <ele>78.480000000000004</ele>
        <time>2023-08-24T09:05:53Z</time>
      </trkpt>
      <trkpt lat="58.281419025734067" lon="-4.443632019683719">
        <ele>78.480000000000004</ele>
        <time>2023-08-24T09:05:54Z</time>
      </trkpt>
      <trkpt lat="58.281528996303678" lon="-4.44369999691844">
        <ele>78.480000000000004</ele>
        <time>2023-08-24T09:05:55Z</time>
      </trkpt>
      <trkpt lat="58.281643996015191" lon="-4.443724974989891">
        <ele>78.480000000000004</ele>
        <time>2023-08-24T09:05:56Z</time>
      </trkpt>
      <trkpt lat="58.281768970191479" lon="-4.443741990253329">
        <ele>78</ele>
        <time>2023-08-24T09:05:57Z</time>
      </trkpt>
      <trkpt lat="58.28190098516643" lon="-4.443750036880374">
        <ele>78.480000000000004</ele>
        <time>2023-08-24T09:05:58Z</time>
      </trkpt>
      <trkpt lat="58.282040962949395" lon="-4.443724974989891">
        <ele>78.480000000000004</ele>
        <time>2023-08-24T09:05:59Z</time>
      </trkpt>
      <trkpt lat="58.283555991947651" lon="-4.443730004131794">
        <ele>78.480000000000004</ele>
        <time>2023-08-24T09:06:10Z</time>
      </trkpt>
      <trkpt lat="58.28533697873354" lon="-4.444199977442622">
        <ele>78.480000000000004</ele>
        <time>2023-08-24T09:06:23Z</time>
      </trkpt>
      <trkpt lat="58.285806030035019" lon="-4.444249011576176">
        <ele>77.040000000000006</ele>
        <time>2023-08-24T09:06:27Z</time>
      </trkpt>
      <trkpt lat="58.285925975069404" lon="-4.444249011576176">
        <ele>76.560000000000002</ele>
        <time>2023-08-24T09:06:28Z</time>
      </trkpt>
      <trkpt lat="58.286021025851369" lon="-4.444149015471339">
        <ele>76.079999999999998</ele>
        <time>2023-08-24T09:06:29Z</time>
      </trkpt>
      <trkpt lat="58.286125967279077" lon="-4.444038039073348">
        <ele>75.599999999999994</ele>
        <time>2023-08-24T09:06:30Z</time>
      </trkpt>
      <trkpt lat="58.286235015839338" lon="-4.443923039361835">
        <ele>75.120000000000005</ele>
        <time>2023-08-24T09:06:31Z</time>
      </trkpt>
      <trkpt lat="58.286349009722471" lon="-4.443790018558502">
        <ele>75.120000000000005</ele>
        <time>2023-08-24T09:06:32Z</time>
      </trkpt>
      <trkpt lat="58.286440959200263" lon="-4.443615004420281">
        <ele>75.599999999999994</ele>
        <time>2023-08-24T09:06:33Z</time>
      </trkpt>
      <trkpt lat="58.287214022129774" lon="-4.442339027300477">
        <ele>75.120000000000005</ele>
        <time>2023-08-24T09:06:41Z</time>
      </trkpt>
      <trkpt lat="58.287352994084358" lon="-4.442240037024021">
        <ele>75.120000000000005</ele>
        <time>2023-08-24T09:06:42Z</time>
      </trkpt>
      <trkpt lat="58.287491966038942" lon="-4.442140040919185">
        <ele>75.120000000000005</ele>
        <time>2023-08-24T09:06:43Z</time>
      </trkpt>
      <trkpt lat="58.287640996277332" lon="-4.442093018442392">
        <ele>75.599999999999994</ele>
        <time>2023-08-24T09:06:44Z</time>
      </trkpt>
      <trkpt lat="58.287793966010213" lon="-4.442054964601994">
        <ele>75.599999999999994</ele>
        <time>2023-08-24T09:06:45Z</time>
      </trkpt>
      <trkpt lat="58.287942996248603" lon="-4.442016994580627">
        <ele>76.079999999999998</ele>
        <time>2023-08-24T09:06:46Z</time>
      </trkpt>
      <trkpt lat="58.288103006780148" lon="-4.442024035379291">
        <ele>76.560000000000002</ele>
        <time>2023-08-24T09:06:47Z</time>
      </trkpt>
      <trkpt lat="58.289793971925974" lon="-4.441844997927547">
        <ele>82.329999999999998</ele>
        <time>2023-08-24T09:06:58Z</time>
      </trkpt>
      <trkpt lat="58.291218979284167" lon="-4.440595004707575">
        <ele>88.099999999999994</ele>
        <time>2023-08-24T09:07:07Z</time>
      </trkpt>
      <trkpt lat="58.293542023748159" lon="-4.438817035406828">
        <ele>102.04000000000001</ele>
        <time>2023-08-24T09:07:21Z</time>
      </trkpt>
      <trkpt lat="58.295691981911659" lon="-4.43779201246798">
        <ele>108.77</ele>
        <time>2023-08-24T09:07:33Z</time>
      </trkpt>
      <trkpt lat="58.29777698032558" lon="-4.437092961743474">
        <ele>115.01000000000001</ele>
        <time>2023-08-24T09:07:45Z</time>
      </trkpt>
      <trkpt lat="58.300274033099413" lon="-4.436238007619977">
        <ele>124.15000000000001</ele>
        <time>2023-08-24T09:07:59Z</time>
      </trkpt>
      <trkpt lat="58.301998022943735" lon="-4.435580028221011">
        <ele>127.51000000000001</ele>
        <time>2023-08-24T09:08:09Z</time>
      </trkpt>
      <trkpt lat="58.302141018211842" lon="-4.435450024902821">
        <ele>127.98999999999999</ele>
        <time>2023-08-24T09:08:10Z</time>
      </trkpt>
      <trkpt lat="58.302283007651567" lon="-4.435302000492811">
        <ele>128.47</ele>
        <time>2023-08-24T09:08:11Z</time>
      </trkpt>
      <trkpt lat="58.302420973777771" lon="-4.435123968869448">
        <ele>128.47</ele>
        <time>2023-08-24T09:08:12Z</time>
      </trkpt>
      <trkpt lat="58.302562041208148" lon="-4.434943003579974">
        <ele>128.47</ele>
        <time>2023-08-24T09:08:13Z</time>
      </trkpt>
      <trkpt lat="58.303865008056164" lon="-4.433505004271865">
        <ele>130.40000000000001</ele>
        <time>2023-08-24T09:08:22Z</time>
      </trkpt>
      <trkpt lat="58.305455977097154" lon="-4.432225003838539">
        <ele>133.28</ele>
        <time>2023-08-24T09:08:32Z</time>
      </trkpt>
      <trkpt lat="58.30716697499156" lon="-4.431531988084316">
        <ele>137.61000000000001</ele>
        <time>2023-08-24T09:08:41Z</time>
      </trkpt>
      <trkpt lat="58.309500999748707" lon="-4.430127013474703">
        <ele>144.34</ele>
        <time>2023-08-24T09:08:54Z</time>
      </trkpt>
      <trkpt lat="58.310010032728314" lon="-4.429895002394915">
        <ele>146.74000000000001</ele>
        <time>2023-08-24T09:08:57Z</time>
      </trkpt>
      <trkpt lat="58.31017498858273" lon="-4.429849991574884">
        <ele>147.69999999999999</ele>
        <time>2023-08-24T09:08:58Z</time>
      </trkpt>
      <trkpt lat="58.310337010771036" lon="-4.429844040423632">
        <ele>148.66</ele>
        <time>2023-08-24T09:08:59Z</time>
      </trkpt>
      <trkpt lat="58.310492997989058" lon="-4.429839011281729">
        <ele>149.62</ele>
        <time>2023-08-24T09:09:00Z</time>
      </trkpt>
      <trkpt lat="58.310644961893559" lon="-4.429832976311445">
        <ele>151.06</ele>
        <time>2023-08-24T09:09:01Z</time>
      </trkpt>
      <trkpt lat="58.310801032930613" lon="-4.429806992411614">
        <ele>152.03</ele>
        <time>2023-08-24T09:09:02Z</time>
      </trkpt>
      <trkpt lat="58.310963977128267" lon="-4.429733986034989">
        <ele>152.99000000000001</ele>
        <time>2023-08-24T09:09:03Z</time>
      </trkpt>
      <trkpt lat="58.311293972656131" lon="-4.429528964683414">
        <ele>154.43000000000001</ele>
        <time>2023-08-24T09:09:05Z</time>
      </trkpt>
      <trkpt lat="58.311458006501198" lon="-4.42937096580863">
        <ele>155.38999999999999</ele>
        <time>2023-08-24T09:09:06Z</time>
      </trkpt>
      <trkpt lat="58.312974041327834" lon="-4.427949981763959">
        <ele>164.03999999999999</ele>
        <time>2023-08-24T09:09:15Z</time>
      </trkpt>
      <trkpt lat="58.314129989594221" lon="-4.427431980147958">
        <ele>171.25</ele>
        <time>2023-08-24T09:09:22Z</time>
      </trkpt>
      <trkpt lat="58.315143026411533" lon="-4.427884016185999">
        <ele>179.90000000000001</ele>
        <time>2023-08-24T09:09:29Z</time>
      </trkpt>
      <trkpt lat="58.315530018880963" lon="-4.428145028650761">
        <ele>184.71000000000001</ele>
        <time>2023-08-24T09:09:34Z</time>
      </trkpt>
      <trkpt lat="58.315689023584127" lon="-4.42825298756361">
        <ele>189.03999999999999</ele>
        <time>2023-08-24T09:09:42Z</time>
      </trkpt>
      <trkpt lat="58.315689023584127" lon="-4.42825298756361">
        <ele>189.03999999999999</ele>
        <time>2023-08-24T09:10:15Z</time>
      </trkpt>
      <trkpt lat="58.315689023584127" lon="-4.42825298756361">
        <ele>189.52000000000001</ele>
        <time>2023-08-24T09:11:06Z</time>
      </trkpt>
      <trkpt lat="58.315689023584127" lon="-4.42825298756361">
        <ele>189.52000000000001</ele>
        <time>2023-08-24T09:11:59Z</time>
      </trkpt>
      <trkpt lat="58.315821960568428" lon="-4.428343009203672">
        <ele>189.03999999999999</ele>
        <time>2023-08-24T09:12:18Z</time>
      </trkpt>
      <trkpt lat="58.315901001915336" lon="-4.428396988660097">
        <ele>189.03999999999999</ele>
        <time>2023-08-24T09:12:19Z</time>
      </trkpt>
      <trkpt lat="58.316837009042501" lon="-4.428909961134195">
        <ele>191.44</ele>
        <time>2023-08-24T09:12:28Z</time>
      </trkpt>
      <trkpt lat="58.318318007513881" lon="-4.429700961336494">
        <ele>199.13</ele>
        <time>2023-08-24T09:12:40Z</time>
      </trkpt>
      <trkpt lat="58.318501990288496" lon="-4.429792994633317">
        <ele>200.09</ele>
        <time>2023-08-24T09:12:42Z</time>
      </trkpt>
      <trkpt lat="58.31859796307981" lon="-4.429817972704768">
        <ele>200.09</ele>
        <time>2023-08-24T09:12:43Z</time>
      </trkpt>
      <trkpt lat="58.319547967985272" lon="-4.430073034018278">
        <ele>202.00999999999999</ele>
        <time>2023-08-24T09:12:50Z</time>
      </trkpt>
      <trkpt lat="58.321592984721065" lon="-4.430621964856982">
        <ele>206.81999999999999</ele>
        <time>2023-08-24T09:13:02Z</time>
      </trkpt>
      <trkpt lat="58.323813015595078" lon="-4.43140902556479">
        <ele>211.15000000000001</ele>
        <time>2023-08-24T09:13:16Z</time>
      </trkpt>
      <trkpt lat="58.32508597522974" lon="-4.431334007531405">
        <ele>211.63</ele>
        <time>2023-08-24T09:13:24Z</time>
      </trkpt>
      <trkpt lat="58.326625982299447" lon="-4.430837966501713">
        <ele>210.19</ele>
        <time>2023-08-24T09:13:34Z</time>
      </trkpt>
      <trkpt lat="58.326773000881076" lon="-4.430837966501713">
        <ele>209.69999999999999</ele>
        <time>2023-08-24T09:13:35Z</time>
      </trkpt>
      <trkpt lat="58.326920019462705" lon="-4.430837966501713">
        <ele>209.22</ele>
        <time>2023-08-24T09:13:36Z</time>
      </trkpt>
      <trkpt lat="58.327064020559192" lon="-4.430920025333762">
        <ele>209.22</ele>
        <time>2023-08-24T09:13:37Z</time>
      </trkpt>
      <trkpt lat="58.327206009998918" lon="-4.43102597258985">
        <ele>209.22</ele>
        <time>2023-08-24T09:13:38Z</time>
      </trkpt>
      <trkpt lat="58.327355962246656" lon="-4.431137032806873">
        <ele>208.74000000000001</ele>
        <time>2023-08-24T09:13:39Z</time>
      </trkpt>
      <trkpt lat="58.328833021223545" lon="-4.432236989960074">
        <ele>210.66999999999999</ele>
        <time>2023-08-24T09:13:48Z</time>
      </trkpt>
      <trkpt lat="58.330403035506606" lon="-4.433979000896215">
        <ele>214.99000000000001</ele>
        <time>2023-08-24T09:13:58Z</time>
      </trkpt>
      <trkpt lat="58.33208897151053" lon="-4.435910023748875">
        <ele>217.40000000000001</ele>
        <time>2023-08-24T09:14:10Z</time>
      </trkpt>
      <trkpt lat="58.333605006337166" lon="-4.436760032549501">
        <ele>214.99000000000001</ele>
        <time>2023-08-24T09:14:20Z</time>
      </trkpt>
      <trkpt lat="58.334699012339115" lon="-4.436702029779553">
        <ele>215.94999999999999</ele>
        <time>2023-08-24T09:14:27Z</time>
      </trkpt>
      <trkpt lat="58.335910029709339" lon="-4.435996022075415">
        <ele>216.91</ele>
        <time>2023-08-24T09:14:35Z</time>
      </trkpt>
      <trkpt lat="58.336181016638875" lon="-4.435749007388949">
        <ele>217.40000000000001</ele>
        <time>2023-08-24T09:14:37Z</time>
      </trkpt>
      <trkpt lat="58.336325017735362" lon="-4.435698967427015">
        <ele>217.40000000000001</ele>
        <time>2023-08-24T09:14:38Z</time>
      </trkpt>
      <trkpt lat="58.33647396415472" lon="-4.435662003234029">
        <ele>217.40000000000001</ele>
        <time>2023-08-24T09:14:39Z</time>
      </trkpt>
      <trkpt lat="58.336626011878252" lon="-4.43566401489079">
        <ele>217.40000000000001</ele>
        <time>2023-08-24T09:14:40Z</time>
      </trkpt>
      <trkpt lat="58.336780993267894" lon="-4.435700979083777">
        <ele>217.88</ele>
        <time>2023-08-24T09:14:41Z</time>
      </trkpt>
      <trkpt lat="58.33694402128458" lon="-4.435740960761905">
        <ele>218.36000000000001</ele>
        <time>2023-08-24T09:14:42Z</time>
      </trkpt>
      <trkpt lat="58.338888036087155" lon="-4.436122002080083">
        <ele>223.16</ele>
        <time>2023-08-24T09:14:53Z</time>
      </trkpt>
      <trkpt lat="58.340630969032645" lon="-4.436358036473393">
        <ele>226.53</ele>
        <time>2023-08-24T09:15:03Z</time>
      </trkpt>
      <trkpt lat="58.340946966782212" lon="-4.436373962089419">
        <ele>227.00999999999999</ele>
        <time>2023-08-24T09:15:08Z</time>
      </trkpt>
      <trkpt lat="58.341042017564178" lon="-4.436373962089419">
        <ele>227.49000000000001</ele>
        <time>2023-08-24T09:15:14Z</time>
      </trkpt>
      <trkpt lat="58.341111000627279" lon="-4.436373962089419">
        <ele>227.49000000000001</ele>
        <time>2023-08-24T09:15:15Z</time>
      </trkpt>
      <trkpt lat="58.341654986143112" lon="-4.436357030645013">
        <ele>227.00999999999999</ele>
        <time>2023-08-24T09:15:21Z</time>
      </trkpt>
      <trkpt lat="58.342665005475283" lon="-4.435798041522503">
        <ele>223.63999999999999</ele>
        <time>2023-08-24T09:15:29Z</time>
      </trkpt>
      <trkpt lat="58.344518998637795" lon="-4.433962991461158">
        <ele>220.75999999999999</ele>
        <time>2023-08-24T09:15:42Z</time>
      </trkpt>
      <trkpt lat="58.345582997426391" lon="-4.43220698274672">
        <ele>218.36000000000001</ele>
        <time>2023-08-24T09:15:51Z</time>
      </trkpt>
      <trkpt lat="58.345979964360595" lon="-4.430966963991523">
        <ele>216.43000000000001</ele>
        <time>2023-08-24T09:15:57Z</time>
      </trkpt>
      <trkpt lat="58.346020029857755" lon="-4.430819023400545">
        <ele>215.94999999999999</ele>
        <time>2023-08-24T09:16:02Z</time>
      </trkpt>
      <trkpt lat="58.346056994050741" lon="-4.430678961798549">
        <ele>214.99000000000001</ele>
        <time>2023-08-24T09:16:13Z</time>
      </trkpt>
      <trkpt lat="58.346326975151896" lon="-4.4295400287956">
        <ele>213.55000000000001</ele>
        <time>2023-08-24T09:16:19Z</time>
      </trkpt>
      <trkpt lat="58.346801977604628" lon="-4.427410019561648">
        <ele>209.22</ele>
        <time>2023-08-24T09:16:27Z</time>
      </trkpt>
      <trkpt lat="58.347307993099093" lon="-4.4252850394696">
        <ele>204.90000000000001</ele>
        <time>2023-08-24T09:16:36Z</time>
      </trkpt>
      <trkpt lat="58.34738502278924" lon="-4.425054034218192">
        <ele>204.90000000000001</ele>
        <time>2023-08-24T09:16:37Z</time>
      </trkpt>
      <trkpt lat="58.347489964216948" lon="-4.424873990938067">
        <ele>204.41999999999999</ele>
        <time>2023-08-24T09:16:38Z</time>
      </trkpt>
      <trkpt lat="58.347606975585222" lon="-4.424700988456607">
        <ele>204.41999999999999</ele>
        <time>2023-08-24T09:16:39Z</time>
      </trkpt>
      <trkpt lat="58.347734967246652" lon="-4.424543995410204">
        <ele>203.94</ele>
        <time>2023-08-24T09:16:40Z</time>
      </trkpt>
      <trkpt lat="58.347876034677029" lon="-4.424412986263633">
        <ele>203.94</ele>
        <time>2023-08-24T09:16:41Z</time>
      </trkpt>
      <trkpt lat="58.348019029945135" lon="-4.42429999820888">
        <ele>203.46000000000001</ele>
        <time>2023-08-24T09:16:42Z</time>
      </trkpt>
      <trkpt lat="58.348166970536113" lon="-4.424239983782172">
        <ele>203.46000000000001</ele>
        <time>2023-08-24T09:16:43Z</time>
      </trkpt>
      <trkpt lat="58.348304014652967" lon="-4.424186004325748">
        <ele>202.97999999999999</ele>
        <time>2023-08-24T09:16:44Z</time>
      </trkpt>
      <trkpt lat="58.348465031012893" lon="-4.424179969355464">
        <ele>202.49000000000001</ele>
        <time>2023-08-24T09:16:45Z</time>
      </trkpt>
      <trkpt lat="58.348619006574154" lon="-4.424175024032593">
        <ele>202.49000000000001</ele>
        <time>2023-08-24T09:16:46Z</time>
      </trkpt>
      <trkpt lat="58.348881024867296" lon="-4.424165971577168">
        <ele>202.49000000000001</ele>
        <time>2023-08-24T09:16:48Z</time>
      </trkpt>
      <trkpt lat="58.348984038457274" lon="-4.424120960757136">
        <ele>202.97999999999999</ele>
        <time>2023-08-24T09:16:49Z</time>
      </trkpt>
      <trkpt lat="58.349081017076969" lon="-4.424048038199544">
        <ele>202.97999999999999</ele>
        <time>2023-08-24T09:16:50Z</time>
      </trkpt>
      <trkpt lat="58.349181013181806" lon="-4.423973020166159">
        <ele>202.97999999999999</ele>
        <time>2023-08-24T09:16:51Z</time>
      </trkpt>
      <trkpt lat="58.349264999851584" lon="-4.423823989927769">
        <ele>202.97999999999999</ele>
        <time>2023-08-24T09:16:52Z</time>
      </trkpt>
      <trkpt lat="58.349360972642899" lon="-4.423646964132786">
        <ele>202.49000000000001</ele>
        <time>2023-08-24T09:16:53Z</time>
      </trkpt>
      <trkpt lat="58.349467003718019" lon="-4.423454012721777">
        <ele>202.49000000000001</ele>
        <time>2023-08-24T09:16:54Z</time>
      </trkpt>
      <trkpt lat="58.350665029138327" lon="-4.421273963525891">
        <ele>196.25</ele>
        <time>2023-08-24T09:17:04Z</time>
      </trkpt>
      <trkpt lat="58.35207000374794" lon="-4.419156024232507">
        <ele>186.63</ele>
        <time>2023-08-24T09:17:14Z</time>
      </trkpt>
      <trkpt lat="58.354292968288064" lon="-4.416227973997593">
        <ele>171.72999999999999</ele>
        <time>2023-08-24T09:17:29Z</time>
      </trkpt>
      <trkpt lat="58.355303993448615" lon="-4.413723964244127">
        <ele>163.08000000000001</ele>
        <time>2023-08-24T09:17:38Z</time>
      </trkpt>
      <trkpt lat="58.356174034997821" lon="-4.410577984526753">
        <ele>154.43000000000001</ele>
        <time>2023-08-24T09:17:49Z</time>
      </trkpt>
      <trkpt lat="58.356262966990471" lon="-4.410370029509068">
        <ele>153.94999999999999</ele>
        <time>2023-08-24T09:17:50Z</time>
      </trkpt>
      <trkpt lat="58.356368998065591" lon="-4.410215970128775">
        <ele>153.47</ele>
        <time>2023-08-24T09:17:51Z</time>
      </trkpt>
      <trkpt lat="58.356500007212162" lon="-4.410024024546146">
        <ele>152.99000000000001</ele>
        <time>2023-08-24T09:17:52Z</time>
      </trkpt>
      <trkpt lat="58.356610983610153" lon="-4.409935008734465">
        <ele>152.50999999999999</ele>
        <time>2023-08-24T09:17:53Z</time>
      </trkpt>
      <trkpt lat="58.356752973049879" lon="-4.409821014851332">
        <ele>151.53999999999999</ele>
        <time>2023-08-24T09:17:54Z</time>
      </trkpt>
      <trkpt lat="58.357294024899602" lon="-4.409308964386582">
        <ele>148.66</ele>
        <time>2023-08-24T09:17:58Z</time>
      </trkpt>
      <trkpt lat="58.357414975762367" lon="-4.409134034067392">
        <ele>148.18000000000001</ele>
        <time>2023-08-24T09:17:59Z</time>
      </trkpt>
      <trkpt lat="58.357512038201094" lon="-4.408895988017321">
        <ele>147.69999999999999</ele>
        <time>2023-08-24T09:18:00Z</time>
      </trkpt>
      <trkpt lat="58.358453996479511" lon="-4.406838985159993">
        <ele>139.53</ele>
        <time>2023-08-24T09:18:08Z</time>
      </trkpt>
      <trkpt lat="58.360066004097462" lon="-4.403841029852629">
        <ele>131.36000000000001</ele>
        <time>2023-08-24T09:18:21Z</time>
      </trkpt>
      <trkpt lat="58.360957000404596" lon="-4.401418995112181">
        <ele>125.11</ele>
        <time>2023-08-24T09:18:30Z</time>
      </trkpt>
      <trkpt lat="58.36216701194644" lon="-4.39815298654139">
        <ele>118.38</ele>
        <time>2023-08-24T09:18:42Z</time>
      </trkpt>
      <trkpt lat="58.362979972735047" lon="-4.397074989974499">
        <ele>114.05</ele>
        <time>2023-08-24T09:18:49Z</time>
      </trkpt>
      <trkpt lat="58.363218018785119" lon="-4.396939035505056">
        <ele>113.09</ele>
        <time>2023-08-24T09:18:51Z</time>
      </trkpt>
      <trkpt lat="58.363337963819504" lon="-4.396896958351135">
        <ele>112.61</ele>
        <time>2023-08-24T09:18:52Z</time>
      </trkpt>
      <trkpt lat="58.363458998501301" lon="-4.396854965016246">
        <ele>112.13</ele>
        <time>2023-08-24T09:18:53Z</time>
      </trkpt>
      <trkpt lat="58.363581961020827" lon="-4.396850019693375">
        <ele>111.65000000000001</ele>
        <time>2023-08-24T09:18:54Z</time>
      </trkpt>
      <trkpt lat="58.363698972389102" lon="-4.396911961957812">
        <ele>111.17</ele>
        <time>2023-08-24T09:18:55Z</time>
      </trkpt>
      <trkpt lat="58.363813972100616" lon="-4.396971976384521">
        <ele>111.17</ele>
        <time>2023-08-24T09:18:56Z</time>
      </trkpt>
      <trkpt lat="58.363926038146019" lon="-4.397030984982848">
        <ele>111.17</ele>
        <time>2023-08-24T09:18:57Z</time>
      </trkpt>
      <trkpt lat="58.364027040079236" lon="-4.3971629999578">
        <ele>110.69</ele>
        <time>2023-08-24T09:18:58Z</time>
      </trkpt>
      <trkpt lat="58.364119995385408" lon="-4.397302977740765">
        <ele>110.69</ele>
        <time>2023-08-24T09:18:59Z</time>
      </trkpt>
      <trkpt lat="58.364213034510612" lon="-4.397442033514381">
        <ele>110.69</ele>
        <time>2023-08-24T09:19:00Z</time>
      </trkpt>
      <trkpt lat="58.364309007301927" lon="-4.397586034610868">
        <ele>110.69</ele>
        <time>2023-08-24T09:19:01Z</time>
      </trkpt>
      <trkpt lat="58.364627016708255" lon="-4.39804402180016">
        <ele>111.17</ele>
        <time>2023-08-24T09:19:04Z</time>
      </trkpt>
      <trkpt lat="58.36474503390491" lon="-4.398162961006165">
        <ele>111.17</ele>
        <time>2023-08-24T09:19:05Z</time>
      </trkpt>
      <trkpt lat="58.364864978939295" lon="-4.398263040930033">
        <ele>111.17</ele>
        <time>2023-08-24T09:19:06Z</time>
      </trkpt>
      <trkpt lat="58.364955000579357" lon="-4.398307967931032">
        <ele>111.17</ele>
        <time>2023-08-24T09:19:07Z</time>
      </trkpt>
      <trkpt lat="58.365116016939282" lon="-4.398267986252904">
        <ele>111.65000000000001</ele>
        <time>2023-08-24T09:19:08Z</time>
      </trkpt>
      <trkpt lat="58.365233028307557" lon="-4.398220041766763">
        <ele>111.65000000000001</ele>
        <time>2023-08-24T09:19:09Z</time>
      </trkpt>
      <trkpt lat="58.365341993048787" lon="-4.398100012913346">
        <ele>112.13</ele>
        <time>2023-08-24T09:19:10Z</time>
      </trkpt>
      <trkpt lat="58.365437965840101" lon="-4.397944025695324">
        <ele>112.13</ele>
        <time>2023-08-24T09:19:11Z</time>
      </trkpt>
      <trkpt lat="58.365512983873487" lon="-4.397749984636903">
        <ele>112.61</ele>
        <time>2023-08-24T09:19:12Z</time>
      </trkpt>
      <trkpt lat="58.365577021613717" lon="-4.397462988272309">
        <ele>113.09</ele>
        <time>2023-08-24T09:19:13Z</time>
      </trkpt>
      <trkpt lat="58.365641981363297" lon="-4.397174986079335">
        <ele>113.09</ele>
        <time>2023-08-24T09:19:14Z</time>
      </trkpt>
      <trkpt lat="58.365693027153611" lon="-4.396864017471671">
        <ele>113.56999999999999</ele>
        <time>2023-08-24T09:19:15Z</time>
      </trkpt>
      <trkpt lat="58.365738959982991" lon="-4.396527986973524">
        <ele>113.56999999999999</ele>
        <time>2023-08-24T09:19:16Z</time>
      </trkpt>
      <trkpt lat="58.366256961598992" lon="-4.39275898039341">
        <ele>115.01000000000001</ele>
        <time>2023-08-24T09:19:27Z</time>
      </trkpt>
      <trkpt lat="58.36629300378263" lon="-4.392496962100267">
        <ele>115.01000000000001</ele>
        <time>2023-08-24T09:19:32Z</time>
      </trkpt>
      <trkpt lat="58.366298032924533" lon="-4.392454968765378">
        <ele>115.01000000000001</ele>
        <time>2023-08-24T09:19:36Z</time>
      </trkpt>
      <trkpt lat="58.366312030702829" lon="-4.392355978488922">
        <ele>115.01000000000001</ele>
        <time>2023-08-24T09:19:43Z</time>
      </trkpt>
      <trkpt lat="58.366325022652745" lon="-4.392262017354369">
        <ele>115.01000000000001</ele>
        <time>2023-08-24T09:19:45Z</time>
      </trkpt>
      <trkpt lat="58.366433987393975" lon="-4.391465988010168">
        <ele>114.53</ele>
        <time>2023-08-24T09:19:50Z</time>
      </trkpt>
      <trkpt lat="58.366757025942206" lon="-4.389510992914438">
        <ele>114.05</ele>
        <time>2023-08-24T09:19:57Z</time>
      </trkpt>
      <trkpt lat="58.36760401725769" lon="-4.385093981400132">
        <ele>111.65000000000001</ele>
        <time>2023-08-24T09:20:11Z</time>
      </trkpt>
      <trkpt lat="58.368216985836625" lon="-4.380959020927548">
        <ele>113.09</ele>
        <time>2023-08-24T09:20:24Z</time>
      </trkpt>
      <trkpt lat="58.368781004101038" lon="-4.379047024995089">
        <ele>114.05</ele>
        <time>2023-08-24T09:20:31Z</time>
      </trkpt>
      <trkpt lat="58.370379013940692" lon="-4.375588987022638">
        <ele>111.65000000000001</ele>
        <time>2023-08-24T09:20:44Z</time>
      </trkpt>
      <trkpt lat="58.371882978826761" lon="-4.372434038668871">
        <ele>111.17</ele>
        <time>2023-08-24T09:20:57Z</time>
      </trkpt>
      <trkpt lat="58.373004980385303" lon="-4.370853966102004">
        <ele>111.17</ele>
        <time>2023-08-24T09:21:05Z</time>
      </trkpt>
      <trkpt lat="58.374324040487409" lon="-4.369106004014611">
        <ele>110.20999999999999</ele>
        <time>2023-08-24T09:21:14Z</time>
      </trkpt>
      <trkpt lat="58.376443991437554" lon="-4.366593025624752">
        <ele>110.20999999999999</ele>
        <time>2023-08-24T09:21:28Z</time>
      </trkpt>
      <trkpt lat="58.377930019050837" lon="-4.365712003782392">
        <ele>111.17</ele>
        <time>2023-08-24T09:21:37Z</time>
      </trkpt>
      <trkpt lat="58.380156001076102" lon="-4.364757975563407">
        <ele>108.77</ele>
        <time>2023-08-24T09:21:50Z</time>
      </trkpt>
      <trkpt lat="58.381617972627282" lon="-4.364263024181128">
        <ele>107.31999999999999</ele>
        <time>2023-08-24T09:21:59Z</time>
      </trkpt>
      <trkpt lat="58.384485002607107" lon="-4.364261012524366">
        <ele>109.73</ele>
        <time>2023-08-24T09:22:16Z</time>
      </trkpt>
      <trkpt lat="58.385040974244475" lon="-4.364185994490981">
        <ele>110.20999999999999</ele>
        <time>2023-08-24T09:22:21Z</time>
      </trkpt>
      <trkpt lat="58.385257981717587" lon="-4.36411801725626">
        <ele>111.17</ele>
        <time>2023-08-24T09:22:31Z</time>
      </trkpt>
      <trkpt lat="58.385373987257481" lon="-4.364052973687649">
        <ele>111.17</ele>
        <time>2023-08-24T09:22:38Z</time>
      </trkpt>
      <trkpt lat="58.385947979986668" lon="-4.363504964858294">
        <ele>111.17</ele>
        <time>2023-08-24T09:22:45Z</time>
      </trkpt>
      <trkpt lat="58.386231036856771" lon="-4.363150997087359">
        <ele>111.65000000000001</ele>
        <time>2023-08-24T09:22:48Z</time>
      </trkpt>
      <trkpt lat="58.386322986334562" lon="-4.36310900375247">
        <ele>111.65000000000001</ele>
        <time>2023-08-24T09:22:49Z</time>
      </trkpt>
      <trkpt lat="58.386419964954257" lon="-4.363073967397213">
        <ele>111.65000000000001</ele>
        <time>2023-08-24T09:22:50Z</time>
      </trkpt>
      <trkpt lat="58.386514009907842" lon="-4.363089976832271">
        <ele>111.65000000000001</ele>
        <time>2023-08-24T09:22:51Z</time>
      </trkpt>
      <trkpt lat="58.38659699074924" lon="-4.363173041492701">
        <ele>111.65000000000001</ele>
        <time>2023-08-24T09:22:52Z</time>
      </trkpt>
      <trkpt lat="58.386678965762258" lon="-4.363255016505718">
        <ele>111.65000000000001</ele>
        <time>2023-08-24T09:22:53Z</time>
      </trkpt>
      <trkpt lat="58.386745015159249" lon="-4.363411003723741">
        <ele>111.17</ele>
        <time>2023-08-24T09:22:54Z</time>
      </trkpt>
      <trkpt lat="58.386807963252068" lon="-4.36358199454844">
        <ele>111.17</ele>
        <time>2023-08-24T09:22:55Z</time>
      </trkpt>
      <trkpt lat="58.386877030134201" lon="-4.363764971494675">
        <ele>111.17</ele>
        <time>2023-08-24T09:22:56Z</time>
      </trkpt>
      <trkpt lat="58.387098982930183" lon="-4.364362014457583">
        <ele>111.17</ele>
        <time>2023-08-24T09:22:59Z</time>
      </trkpt>
      <trkpt lat="58.387212976813316" lon="-4.364506015554071">
        <ele>111.17</ele>
        <time>2023-08-24T09:23:00Z</time>
      </trkpt>
      <trkpt lat="58.387322025373578" lon="-4.364645993337035">
        <ele>111.17</ele>
        <time>2023-08-24T09:23:01Z</time>
      </trkpt>
      <trkpt lat="58.387446999549866" lon="-4.364710031077266">
        <ele>111.17</ele>
        <time>2023-08-24T09:23:02Z</time>
      </trkpt>
      <trkpt lat="58.387582032009959" lon="-4.364767028018832">
        <ele>111.65000000000001</ele>
        <time>2023-08-24T09:23:03Z</time>
      </trkpt>
      <trkpt lat="58.387722009792924" lon="-4.36482603661716">
        <ele>111.65000000000001</ele>
        <time>2023-08-24T09:23:04Z</time>
      </trkpt>
      <trkpt lat="58.388909976929426" lon="-4.365760032087565">
        <ele>113.09</ele>
        <time>2023-08-24T09:23:12Z</time>
      </trkpt>
      <trkpt lat="58.390427017584443" lon="-4.367979979142547">
        <ele>120.3</ele>
        <time>2023-08-24T09:23:23Z</time>
      </trkpt>
      <trkpt lat="58.39057001285255" lon="-4.368133032694459">
        <ele>120.3</ele>
        <time>2023-08-24T09:23:24Z</time>
      </trkpt>
      <trkpt lat="58.390728011727333" lon="-4.368192041292787">
        <ele>120.78</ele>
        <time>2023-08-24T09:23:25Z</time>
      </trkpt>
      <trkpt lat="58.390877963975072" lon="-4.368245014920831">
        <ele>120.78</ele>
        <time>2023-08-24T09:23:26Z</time>
      </trkpt>
      <trkpt lat="58.391033029183745" lon="-4.368238979950547">
        <ele>120.78</ele>
        <time>2023-08-24T09:23:27Z</time>
      </trkpt>
      <trkpt lat="58.391196979209781" lon="-4.368189023807645">
        <ele>120.3</ele>
        <time>2023-08-24T09:23:28Z</time>
      </trkpt>
      <trkpt lat="58.391369981691241" lon="-4.36813697218895">
        <ele>120.3</ele>
        <time>2023-08-24T09:23:29Z</time>
      </trkpt>
      <trkpt lat="58.391549019142985" lon="-4.368081986904144">
        <ele>119.81999999999999</ele>
        <time>2023-08-24T09:23:30Z</time>
      </trkpt>
      <trkpt lat="58.392185037955642" lon="-4.367905966937542">
        <ele>118.38</ele>
        <time>2023-08-24T09:23:35Z</time>
      </trkpt>
      <trkpt lat="58.392669009044766" lon="-4.367944020777941">
        <ele>118.38</ele>
        <time>2023-08-24T09:23:39Z</time>
      </trkpt>
      <trkpt lat="58.392815021798015" lon="-4.368047034367919">
        <ele>117.90000000000001</ele>
        <time>2023-08-24T09:23:40Z</time>
      </trkpt>
      <trkpt lat="58.392968997359276" lon="-4.368160022422671">
        <ele>117.90000000000001</ele>
        <time>2023-08-24T09:23:41Z</time>
      </trkpt>
      <trkpt lat="58.393132025375962" lon="-4.368279967457056">
        <ele>117.90000000000001</ele>
        <time>2023-08-24T09:23:42Z</time>
      </trkpt>
      <trkpt lat="58.393292035907507" lon="-4.368439977988601">
        <ele>117.90000000000001</ele>
        <time>2023-08-24T09:23:43Z</time>
      </trkpt>
      <trkpt lat="58.394420994445682" lon="-4.369573965668678">
        <ele>115.5</ele>
        <time>2023-08-24T09:23:50Z</time>
      </trkpt>
      <trkpt lat="58.394587961956859" lon="-4.369661975651979">
        <ele>115.01000000000001</ele>
        <time>2023-08-24T09:23:51Z</time>
      </trkpt>
      <trkpt lat="58.394763981923461" lon="-4.369661975651979">
        <ele>114.53</ele>
        <time>2023-08-24T09:23:52Z</time>
      </trkpt>
      <trkpt lat="58.394942013546824" lon="-4.369661975651979">
        <ele>113.56999999999999</ele>
        <time>2023-08-24T09:23:53Z</time>
      </trkpt>
      <trkpt lat="58.395123984664679" lon="-4.369661975651979">
        <ele>113.09</ele>
        <time>2023-08-24T09:23:54Z</time>
      </trkpt>
      <trkpt lat="58.396316980943084" lon="-4.369176998734474">
        <ele>113.09</ele>
        <time>2023-08-24T09:24:01Z</time>
      </trkpt>
      <trkpt lat="58.396453019231558" lon="-4.369040960446">
        <ele>113.09</ele>
        <time>2023-08-24T09:24:02Z</time>
      </trkpt>
      <trkpt lat="58.39658796787262" lon="-4.368906011804938">
        <ele>113.09</ele>
        <time>2023-08-24T09:24:03Z</time>
      </trkpt>
      <trkpt lat="58.396705985069275" lon="-4.36871699988842">
        <ele>113.09</ele>
        <time>2023-08-24T09:24:04Z</time>
      </trkpt>
      <trkpt lat="58.396817967295647" lon="-4.368525976315141">
        <ele>113.56999999999999</ele>
        <time>2023-08-24T09:24:05Z</time>
      </trkpt>
      <trkpt lat="58.397779036313295" lon="-4.367243964225054">
        <ele>111.65000000000001</ele>
        <time>2023-08-24T09:24:13Z</time>
      </trkpt>
      <trkpt lat="58.398495018482208" lon="-4.366840962320566">
        <ele>111.17</ele>
        <time>2023-08-24T09:24:18Z</time>
      </trkpt>
      <trkpt lat="58.398620998486876" lon="-4.366829982027412">
        <ele>111.17</ele>
        <time>2023-08-24T09:24:19Z</time>
      </trkpt>
      <trkpt lat="58.398743961006403" lon="-4.366905000060797">
        <ele>111.65000000000001</ele>
        <time>2023-08-24T09:24:20Z</time>
      </trkpt>
      <trkpt lat="58.398868013173342" lon="-4.366981023922563">
        <ele>112.13</ele>
        <time>2023-08-24T09:24:21Z</time>
      </trkpt>
      <trkpt lat="58.398985024541616" lon="-4.367131981998682">
        <ele>112.13</ele>
        <time>2023-08-24T09:24:22Z</time>
      </trkpt>
      <trkpt lat="58.399101030081511" lon="-4.367312025278807">
        <ele>112.61</ele>
        <time>2023-08-24T09:24:23Z</time>
      </trkpt>
      <trkpt lat="58.399224998429418" lon="-4.367505982518196">
        <ele>112.61</ele>
        <time>2023-08-24T09:24:24Z</time>
      </trkpt>
      <trkpt lat="58.399508977308869" lon="-4.367812005802989">
        <ele>112.61</ele>
        <time>2023-08-24T09:24:26Z</time>
      </trkpt>
      <trkpt lat="58.399653984233737" lon="-4.367949971929193">
        <ele>112.61</ele>
        <time>2023-08-24T09:24:27Z</time>
      </trkpt>
      <trkpt lat="58.39981097728014" lon="-4.36800797469914">
        <ele>112.61</ele>
        <time>2023-08-24T09:24:28Z</time>
      </trkpt>
      <trkpt lat="58.399953972548246" lon="-4.368032030761242">
        <ele>112.61</ele>
        <time>2023-08-24T09:24:29Z</time>
      </trkpt>
      <trkpt lat="58.40006997808814" lon="-4.36805097386241">
        <ele>112.13</ele>
        <time>2023-08-24T09:24:30Z</time>
      </trkpt>
      <trkpt lat="58.400311963632703" lon="-4.368091961368918">
        <ele>112.13</ele>
        <time>2023-08-24T09:24:35Z</time>
      </trkpt>
      <trkpt lat="58.400773974135518" lon="-4.368169996887445">
        <ele>112.13</ele>
        <time>2023-08-24T09:24:40Z</time>
      </trkpt>
      <trkpt lat="58.401372022926807" lon="-4.368269992992282">
        <ele>111.65000000000001</ele>
        <time>2023-08-24T09:24:45Z</time>
      </trkpt>
      <trkpt lat="58.402329990640283" lon="-4.368539974093437">
        <ele>110.69</ele>
        <time>2023-08-24T09:24:52Z</time>
      </trkpt>
      <trkpt lat="58.402478015050292" lon="-4.368638964369893">
        <ele>110.69</ele>
        <time>2023-08-24T09:24:53Z</time>
      </trkpt>
      <trkpt lat="58.40320598334074" lon="-4.369227960705757">
        <ele>110.69</ele>
        <time>2023-08-24T09:24:58Z</time>
      </trkpt>
      <trkpt lat="58.403348978608847" lon="-4.36929602175951">
        <ele>110.69</ele>
        <time>2023-08-24T09:24:59Z</time>
      </trkpt>
      <trkpt lat="58.403493985533714" lon="-4.369291998445988">
        <ele>110.69</ele>
        <time>2023-08-24T09:25:00Z</time>
      </trkpt>
      <trkpt lat="58.403642009943724" lon="-4.369287975132465">
        <ele>110.69</ele>
        <time>2023-08-24T09:25:01Z</time>
      </trkpt>
      <trkpt lat="58.403792968019843" lon="-4.369283029809594">
        <ele>110.69</ele>
        <time>2023-08-24T09:25:02Z</time>
      </trkpt>
      <trkpt lat="58.404247015714645" lon="-4.369322005659342">
        <ele>110.20999999999999</ele>
        <time>2023-08-24T09:25:05Z</time>
      </trkpt>
      <trkpt lat="58.404398979619145" lon="-4.369357964023948">
        <ele>110.69</ele>
        <time>2023-08-24T09:25:06Z</time>
      </trkpt>
      <trkpt lat="58.404547004029155" lon="-4.369473969563842">
        <ele>110.69</ele>
        <time>2023-08-24T09:25:07Z</time>
      </trkpt>
      <trkpt lat="58.405990032479167" lon="-4.370782971382141">
        <ele>111.65000000000001</ele>
        <time>2023-08-24T09:25:16Z</time>
      </trkpt>
      <trkpt lat="58.406123975291848" lon="-4.370990004390478">
        <ele>111.65000000000001</ele>
        <time>2023-08-24T09:25:17Z</time>
      </trkpt>
      <trkpt lat="58.40623402968049" lon="-4.371226960793138">
        <ele>111.65000000000001</ele>
        <time>2023-08-24T09:25:18Z</time>
      </trkpt>
      <trkpt lat="58.406339976936579" lon="-4.371477998793125">
        <ele>111.65000000000001</ele>
        <time>2023-08-24T09:25:19Z</time>
      </trkpt>
      <trkpt lat="58.406445002183318" lon="-4.37172501347959">
        <ele>112.13</ele>
        <time>2023-08-24T09:25:20Z</time>
      </trkpt>
      <trkpt lat="58.406669972464442" lon="-4.372170008718967">
        <ele>112.61</ele>
        <time>2023-08-24T09:25:22Z</time>
      </trkpt>
      <trkpt lat="58.406795030459762" lon="-4.372333036735654">
        <ele>112.61</ele>
        <time>2023-08-24T09:25:23Z</time>
      </trkpt>
      <trkpt lat="58.406938025727868" lon="-4.372442001476884">
        <ele>112.61</ele>
        <time>2023-08-24T09:25:24Z</time>
      </trkpt>
      <trkpt lat="58.407085966318846" lon="-4.372555995360017">
        <ele>112.61</ele>
        <time>2023-08-24T09:25:25Z</time>
      </trkpt>
      <trkpt lat="58.407238014042377" lon="-4.372674012556672">
        <ele>112.13</ele>
        <time>2023-08-24T09:25:26Z</time>
      </trkpt>
      <trkpt lat="58.407400958240032" lon="-4.372765040025115">
        <ele>112.13</ele>
        <time>2023-08-24T09:25:27Z</time>
      </trkpt>
      <trkpt lat="58.409641021862626" lon="-4.373533995822072">
        <ele>112.13</ele>
        <time>2023-08-24T09:25:40Z</time>
      </trkpt>
      <trkpt lat="58.412157017737627" lon="-4.373716972768307">
        <ele>111.65000000000001</ele>
        <time>2023-08-24T09:25:54Z</time>
      </trkpt>
      <trkpt lat="58.413578001782298" lon="-4.374252995476127">
        <ele>108.77</ele>
        <time>2023-08-24T09:26:02Z</time>
      </trkpt>
      <trkpt lat="58.413899028673768" lon="-4.374404037371278">
        <ele>108.29000000000001</ele>
        <time>2023-08-24T09:26:04Z</time>
      </trkpt>
      <trkpt lat="58.414053004235029" lon="-4.374392973259091">
        <ele>107.81</ele>
        <time>2023-08-24T09:26:05Z</time>
      </trkpt>
      <trkpt lat="58.414203962311149" lon="-4.374381992965937">
        <ele>107.81</ele>
        <time>2023-08-24T09:26:06Z</time>
      </trkpt>
      <trkpt lat="58.414623979479074" lon="-4.374350979924202">
        <ele>106.84</ele>
        <time>2023-08-24T09:26:09Z</time>
      </trkpt>
      <trkpt lat="58.414753982797265" lon="-4.374342011287808">
        <ele>106.84</ele>
        <time>2023-08-24T09:26:10Z</time>
      </trkpt>
      <trkpt lat="58.414879040792584" lon="-4.374448964372277">
        <ele>107.31999999999999</ele>
        <time>2023-08-24T09:26:11Z</time>
      </trkpt>
      <trkpt lat="58.41499999165535" lon="-4.374579973518848">
        <ele>107.81</ele>
        <time>2023-08-24T09:26:12Z</time>
      </trkpt>
      <trkpt lat="58.415127983316779" lon="-4.374719029292464">
        <ele>108.29000000000001</ele>
        <time>2023-08-24T09:26:13Z</time>
      </trkpt>
      <trkpt lat="58.415251029655337" lon="-4.374854983761907">
        <ele>108.29000000000001</ele>
        <time>2023-08-24T09:26:14Z</time>
      </trkpt>
      <trkpt lat="58.415384972468019" lon="-4.37492597848177">
        <ele>108.77</ele>
        <time>2023-08-24T09:26:15Z</time>
      </trkpt>
      <trkpt lat="58.415506007149816" lon="-4.374990016222">
        <ele>108.77</ele>
        <time>2023-08-24T09:26:16Z</time>
      </trkpt>
      <trkpt lat="58.415632992982864" lon="-4.375002002343535">
        <ele>108.77</ele>
        <time>2023-08-24T09:26:17Z</time>
      </trkpt>
      <trkpt lat="58.415765007957816" lon="-4.374948022887111">
        <ele>109.25</ele>
        <time>2023-08-24T09:26:18Z</time>
      </trkpt>
      <trkpt lat="58.415908003225923" lon="-4.374890020117164">
        <ele>109.25</ele>
        <time>2023-08-24T09:26:19Z</time>
      </trkpt>
      <trkpt lat="58.416056027635932" lon="-4.374830005690455">
        <ele>110.20999999999999</ele>
        <time>2023-08-24T09:26:20Z</time>
      </trkpt>
      <trkpt lat="58.416206985712051" lon="-4.374768985435367">
        <ele>110.69</ele>
        <time>2023-08-24T09:26:21Z</time>
      </trkpt>
      <trkpt lat="58.416360961273313" lon="-4.374719029292464">
        <ele>110.69</ele>
        <time>2023-08-24T09:26:22Z</time>
      </trkpt>
      <trkpt lat="58.418027032166719" lon="-4.374252995476127">
        <ele>109.25</ele>
        <time>2023-08-24T09:26:32Z</time>
      </trkpt>
      <trkpt lat="58.419314995408058" lon="-4.373526033014059">
        <ele>109.25</ele>
        <time>2023-08-24T09:26:40Z</time>
      </trkpt>
      <trkpt lat="58.420642018318176" lon="-4.372592037543654">
        <ele>111.17</ele>
        <time>2023-08-24T09:26:49Z</time>
      </trkpt>
      <trkpt lat="58.421217016875744" lon="-4.372322978451848">
        <ele>112.61</ele>
        <time>2023-08-24T09:26:53Z</time>
      </trkpt>
      <trkpt lat="58.421354983001947" lon="-4.372361032292247">
        <ele>113.09</ele>
        <time>2023-08-24T09:26:54Z</time>
      </trkpt>
      <trkpt lat="58.421478029340506" lon="-4.372394979000092">
        <ele>113.56999999999999</ele>
        <time>2023-08-24T09:26:55Z</time>
      </trkpt>
      <trkpt lat="58.421598980203271" lon="-4.372429009526968">
        <ele>114.05</ele>
        <time>2023-08-24T09:26:56Z</time>
      </trkpt>
      <trkpt lat="58.421709034591913" lon="-4.372573010623455">
        <ele>114.53</ele>
        <time>2023-08-24T09:26:57Z</time>
      </trkpt>
      <trkpt lat="58.421814981848001" lon="-4.372718017548323">
        <ele>114.53</ele>
        <time>2023-08-24T09:26:58Z</time>
      </trkpt>
      <trkpt lat="58.421923024579883" lon="-4.372892025858164">
        <ele>115.01000000000001</ele>
        <time>2023-08-24T09:26:59Z</time>
      </trkpt>
      <trkpt lat="58.422006005421281" lon="-4.373127976432443">
        <ele>115.01000000000001</ele>
        <time>2023-08-24T09:27:00Z</time>
      </trkpt>
      <trkpt lat="58.422095021232963" lon="-4.37337901443243">
        <ele>115.5</ele>
        <time>2023-08-24T09:27:01Z</time>
      </trkpt>
      <trkpt lat="58.422188982367516" lon="-4.373643966391683">
        <ele>115.98</ele>
        <time>2023-08-24T09:27:02Z</time>
      </trkpt>
      <trkpt lat="58.422504980117083" lon="-4.37440998852253">
        <ele>117.42</ele>
        <time>2023-08-24T09:27:05Z</time>
      </trkpt>
      <trkpt lat="58.422630960121751" lon="-4.374617021530867">
        <ele>117.90000000000001</ele>
        <time>2023-08-24T09:27:06Z</time>
      </trkpt>
      <trkpt lat="58.422761969268322" lon="-4.374833023175597">
        <ele>118.38</ele>
        <time>2023-08-24T09:27:07Z</time>
      </trkpt>
      <trkpt lat="58.424146994948387" lon="-4.376470008864999">
        <ele>123.19</ele>
        <time>2023-08-24T09:27:17Z</time>
      </trkpt>
      <trkpt lat="58.42460498213768" lon="-4.376949034631252">
        <ele>124.15000000000001</ele>
        <time>2023-08-24T09:27:23Z</time>
      </trkpt>
      <trkpt lat="58.425866961479187" lon="-4.378025019541383">
        <ele>125.11</ele>
        <time>2023-08-24T09:27:33Z</time>
      </trkpt>
      <trkpt lat="58.426214978098869" lon="-4.378411006182432">
        <ele>125.59</ele>
        <time>2023-08-24T09:27:36Z</time>
      </trkpt>
      <trkpt lat="58.426309023052454" lon="-4.378576967865229">
        <ele>126.06999999999999</ele>
        <time>2023-08-24T09:27:37Z</time>
      </trkpt>
      <trkpt lat="58.426394015550613" lon="-4.378777965903282">
        <ele>126.06999999999999</ele>
        <time>2023-08-24T09:27:38Z</time>
      </trkpt>
      <trkpt lat="58.426481019705534" lon="-4.378984998911619">
        <ele>126.06999999999999</ele>
        <time>2023-08-24T09:27:39Z</time>
      </trkpt>
      <trkpt lat="58.426571041345596" lon="-4.379197983071208">
        <ele>126.55</ele>
        <time>2023-08-24T09:27:40Z</time>
      </trkpt>
      <trkpt lat="58.426829036325216" lon="-4.379811035469174">
        <ele>127.51000000000001</ele>
        <time>2023-08-24T09:27:43Z</time>
      </trkpt>
      <trkpt lat="58.426899025216699" lon="-4.379923017695546">
        <ele>127.98999999999999</ele>
        <time>2023-08-24T09:27:44Z</time>
      </trkpt>
      <trkpt lat="58.426930960267782" lon="-4.379971968010068">
        <ele>128.47</ele>
        <time>2023-08-24T09:27:45Z</time>
      </trkpt>
      <trkpt lat="58.426930960267782" lon="-4.379971968010068">
        <ele>128.47</ele>
        <time>2023-08-24T09:27:53Z</time>
      </trkpt>
      <trkpt lat="58.427041014656425" lon="-4.380136001855135">
        <ele>129.91999999999999</ele>
        <time>2023-08-24T09:28:09Z</time>
      </trkpt>
      <trkpt lat="58.427752973511815" lon="-4.381205029785633">
        <ele>131.84</ele>
        <time>2023-08-24T09:28:17Z</time>
      </trkpt>
      <trkpt lat="58.427990013733506" lon="-4.381734011694789">
        <ele>132.80000000000001</ele>
        <time>2023-08-24T09:28:20Z</time>
      </trkpt>
      <trkpt lat="58.428054973483086" lon="-4.381948001682758">
        <ele>132.80000000000001</ele>
        <time>2023-08-24T09:28:21Z</time>
      </trkpt>
      <trkpt lat="58.428115993738174" lon="-4.382170038297772">
        <ele>133.28</ele>
        <time>2023-08-24T09:28:22Z</time>
      </trkpt>
      <trkpt lat="58.428508015349507" lon="-4.38414397649467">
        <ele>137.13</ele>
        <time>2023-08-24T09:28:30Z</time>
      </trkpt>
      <trkpt lat="58.428582027554512" lon="-4.384382022544742">
        <ele>137.13</ele>
        <time>2023-08-24T09:28:31Z</time>
      </trkpt>
      <trkpt lat="58.428655033931136" lon="-4.384615961462259">
        <ele>137.61000000000001</ele>
        <time>2023-08-24T09:28:32Z</time>
      </trkpt>
      <trkpt lat="58.428777996450663" lon="-4.38476599752903">
        <ele>137.61000000000001</ele>
        <time>2023-08-24T09:28:33Z</time>
      </trkpt>
      <trkpt lat="58.428903976455331" lon="-4.384885020554066">
        <ele>137.61000000000001</ele>
        <time>2023-08-24T09:28:34Z</time>
      </trkpt>
      <trkpt lat="58.429038003087044" lon="-4.384933970868588">
        <ele>137.61000000000001</ele>
        <time>2023-08-24T09:28:35Z</time>
      </trkpt>
      <trkpt lat="58.429169012233615" lon="-4.384943023324013">
        <ele>137.13</ele>
        <time>2023-08-24T09:28:36Z</time>
      </trkpt>
      <trkpt lat="58.429299015551805" lon="-4.384902035817504">
        <ele>136.63999999999999</ele>
        <time>2023-08-24T09:28:37Z</time>
      </trkpt>
      <trkpt lat="58.429432958364487" lon="-4.384859036654234">
        <ele>136.63999999999999</ele>
        <time>2023-08-24T09:28:38Z</time>
      </trkpt>
      <trkpt lat="58.430174002423882" lon="-4.384650997817516">
        <ele>135.19999999999999</ele>
        <time>2023-08-24T09:28:43Z</time>
      </trkpt>
      <trkpt lat="58.430314986035228" lon="-4.384682010859251">
        <ele>135.19999999999999</ele>
        <time>2023-08-24T09:28:44Z</time>
      </trkpt>
      <trkpt lat="58.430462004616857" lon="-4.384776977822185">
        <ele>135.19999999999999</ele>
        <time>2023-08-24T09:28:45Z</time>
      </trkpt>
      <trkpt lat="58.430603994056582" lon="-4.384868005290628">
        <ele>135.19999999999999</ele>
        <time>2023-08-24T09:28:46Z</time>
      </trkpt>
      <trkpt lat="58.430721005424857" lon="-4.385062968358398">
        <ele>135.19999999999999</ele>
        <time>2023-08-24T09:28:47Z</time>
      </trkpt>
      <trkpt lat="58.430832987651229" lon="-4.38526002690196">
        <ele>135.19999999999999</ele>
        <time>2023-08-24T09:28:48Z</time>
      </trkpt>
      <trkpt lat="58.430947987362742" lon="-4.385462030768395">
        <ele>135.68000000000001</ele>
        <time>2023-08-24T09:28:49Z</time>
      </trkpt>
      <trkpt lat="58.43104999512434" lon="-4.385691024363041">
        <ele>135.68000000000001</ele>
        <time>2023-08-24T09:28:50Z</time>
      </trkpt>
      <trkpt lat="58.432240979745984" lon="-4.38859099522233">
        <ele>140.49000000000001</ele>
        <time>2023-08-24T09:29:02Z</time>
      </trkpt>
      <trkpt lat="58.432348016649485" lon="-4.388723010197282">
        <ele>140.97</ele>
        <time>2023-08-24T09:29:03Z</time>
      </trkpt>
      <trkpt lat="58.432453041896224" lon="-4.388852007687092">
        <ele>141.44999999999999</ele>
        <time>2023-08-24T09:29:04Z</time>
      </trkpt>
      <trkpt lat="58.432567035779357" lon="-4.388930965214968">
        <ele>141.93000000000001</ele>
        <time>2023-08-24T09:29:05Z</time>
      </trkpt>
      <trkpt lat="58.432687986642122" lon="-4.388940017670393">
        <ele>141.93000000000001</ele>
        <time>2023-08-24T09:29:06Z</time>
      </trkpt>
      <trkpt lat="58.4328100271523" lon="-4.388918979093432">
        <ele>142.41</ele>
        <time>2023-08-24T09:29:07Z</time>
      </trkpt>
      <trkpt lat="58.432935001328588" lon="-4.388857958838344">
        <ele>142.41</ele>
        <time>2023-08-24T09:29:08Z</time>
      </trkpt>
      <trkpt lat="58.433060981333256" lon="-4.388758968561888">
        <ele>142.41</ele>
        <time>2023-08-24T09:29:09Z</time>
      </trkpt>
      <trkpt lat="58.43319802545011" lon="-4.3886339943856">
        <ele>142.41</ele>
        <time>2023-08-24T09:29:10Z</time>
      </trkpt>
      <trkpt lat="58.43467902392149" lon="-4.38727998174727">
        <ele>145.78</ele>
        <time>2023-08-24T09:29:20Z</time>
      </trkpt>
      <trkpt lat="58.436417011544108" lon="-4.386192010715604">
        <ele>150.58000000000001</ele>
        <time>2023-08-24T09:29:31Z</time>
      </trkpt>
      <trkpt lat="58.438234962522984" lon="-4.384913016110659">
        <ele>155.87</ele>
        <time>2023-08-24T09:29:42Z</time>
      </trkpt>
      <trkpt lat="58.439268032088876" lon="-4.384026965126395">
        <ele>158.75</ele>
        <time>2023-08-24T09:29:50Z</time>
      </trkpt>
      <trkpt lat="58.439396023750305" lon="-4.383918000385165">
        <ele>160.19999999999999</ele>
        <time>2023-08-24T09:29:56Z</time>
      </trkpt>
      <trkpt lat="58.439396023750305" lon="-4.383918000385165">
        <ele>160.19999999999999</ele>
        <time>2023-08-24T09:30:30Z</time>
      </trkpt>
      <trkpt lat="58.439396023750305" lon="-4.383918000385165">
        <ele>160.68000000000001</ele>
        <time>2023-08-24T09:31:27Z</time>
      </trkpt>
      <trkpt lat="58.439528960734606" lon="-4.383827978745103">
        <ele>160.68000000000001</ele>
        <time>2023-08-24T09:31:32Z</time>
      </trkpt>
      <trkpt lat="58.440280985087156" lon="-4.383446015417576">
        <ele>160.68000000000001</ele>
        <time>2023-08-24T09:31:39Z</time>
      </trkpt>
      <trkpt lat="58.441263008862734" lon="-4.383199000731111">
        <ele>162.59999999999999</ele>
        <time>2023-08-24T09:31:47Z</time>
      </trkpt>
      <trkpt lat="58.442607969045639" lon="-4.382282020524144">
        <ele>164.52000000000001</ele>
        <time>2023-08-24T09:31:56Z</time>
      </trkpt>
      <trkpt lat="58.44368495978415" lon="-4.381549023091793">
        <ele>164.03999999999999</ele>
        <time>2023-08-24T09:32:04Z</time>
      </trkpt>
      <trkpt lat="58.443794008344412" lon="-4.381536031141877">
        <ele>164.03999999999999</ele>
        <time>2023-08-24T09:32:05Z</time>
      </trkpt>
      <trkpt lat="58.443910013884306" lon="-4.3815210275352">
        <ele>164.52000000000001</ele>
        <time>2023-08-24T09:32:06Z</time>
      </trkpt>
      <trkpt lat="58.444041023030877" lon="-4.381514992564917">
        <ele>165</ele>
        <time>2023-08-24T09:32:07Z</time>
      </trkpt>
      <trkpt lat="58.444171026349068" lon="-4.38158699311316">
        <ele>165</ele>
        <time>2023-08-24T09:32:08Z</time>
      </trkpt>
      <trkpt lat="58.444311004132032" lon="-4.381665028631687">
        <ele>165.47999999999999</ele>
        <time>2023-08-24T09:32:09Z</time>
      </trkpt>
      <trkpt lat="58.445334015414119" lon="-4.382530963048339">
        <ele>167.88999999999999</ele>
        <time>2023-08-24T09:32:16Z</time>
      </trkpt>
      <trkpt lat="58.446636982262135" lon="-4.384759040549398">
        <ele>169.33000000000001</ele>
        <time>2023-08-24T09:32:26Z</time>
      </trkpt>
      <trkpt lat="58.448071964085102" lon="-4.387165987864137">
        <ele>168.84999999999999</ele>
        <time>2023-08-24T09:32:37Z</time>
      </trkpt>
      <trkpt lat="58.449263032525778" lon="-4.388274997472763">
        <ele>169.81</ele>
        <time>2023-08-24T09:32:45Z</time>
      </trkpt>
      <trkpt lat="58.450587037950754" lon="-4.388584038242698">
        <ele>170.28999999999999</ele>
        <time>2023-08-24T09:32:53Z</time>
      </trkpt>
      <trkpt lat="58.452961966395378" lon="-4.38822696916759">
        <ele>171.72999999999999</ele>
        <time>2023-08-24T09:33:07Z</time>
      </trkpt>
      <trkpt lat="58.454945962876081" lon="-4.387448960915208">
        <ele>171.72999999999999</ele>
        <time>2023-08-24T09:33:19Z</time>
      </trkpt>
      <trkpt lat="58.456720998510718" lon="-4.386809002608061">
        <ele>169.33000000000001</ele>
        <time>2023-08-24T09:33:30Z</time>
      </trkpt>
      <trkpt lat="58.458940023556352" lon="-4.387333961203694">
        <ele>167.88999999999999</ele>
        <time>2023-08-24T09:33:43Z</time>
      </trkpt>
      <trkpt lat="58.459849962964654" lon="-4.388257982209325">
        <ele>167.88999999999999</ele>
        <time>2023-08-24T09:33:49Z</time>
      </trkpt>
      <trkpt lat="58.461547968909144" lon="-4.390857964754105">
        <ele>165.96000000000001</ele>
        <time>2023-08-24T09:34:01Z</time>
      </trkpt>
      <trkpt lat="58.463411014527082" lon="-4.394010985270143">
        <ele>165.96000000000001</ele>
        <time>2023-08-24T09:34:15Z</time>
      </trkpt>
      <trkpt lat="58.464086009189487" lon="-4.395988024771214">
        <ele>165.47999999999999</ele>
        <time>2023-08-24T09:34:23Z</time>
      </trkpt>
      <trkpt lat="58.464910034090281" lon="-4.398813983425498">
        <ele>165.96000000000001</ele>
        <time>2023-08-24T09:34:34Z</time>
      </trkpt>
      <trkpt lat="58.465472040697932" lon="-4.400152992457151">
        <ele>164.52000000000001</ele>
        <time>2023-08-24T09:34:40Z</time>
      </trkpt>
      <trkpt lat="58.465570025146008" lon="-4.400324989110231">
        <ele>164.52000000000001</ele>
        <time>2023-08-24T09:34:41Z</time>
      </trkpt>
      <trkpt lat="58.465688964352012" lon="-4.400455998256803">
        <ele>164.03999999999999</ele>
        <time>2023-08-24T09:34:42Z</time>
      </trkpt>
      <trkpt lat="58.466927977278829" lon="-4.401596020907164">
        <ele>159.24000000000001</ele>
        <time>2023-08-24T09:34:51Z</time>
      </trkpt>
      <trkpt lat="58.468559011816978" lon="-4.402250982820988">
        <ele>152.99000000000001</ele>
        <time>2023-08-24T09:35:01Z</time>
      </trkpt>
      <trkpt lat="58.470194991677999" lon="-4.402721961960197">
        <ele>146.25999999999999</ele>
        <time>2023-08-24T09:35:12Z</time>
      </trkpt>
      <trkpt lat="58.470398001372814" lon="-4.402779964730144">
        <ele>144.81999999999999</ele>
        <time>2023-08-24T09:35:15Z</time>
      </trkpt>
      <trkpt lat="58.470448041334748" lon="-4.402795974165201">
        <ele>143.84999999999999</ele>
        <time>2023-08-24T09:35:16Z</time>
      </trkpt>
      <trkpt lat="58.470454998314381" lon="-4.402948021888733">
        <ele>142.88999999999999</ele>
        <time>2023-08-24T09:35:17Z</time>
      </trkpt>
      <trkpt lat="58.470462961122394" lon="-4.403045000508428">
        <ele>142.41</ele>
        <time>2023-08-24T09:35:18Z</time>
      </trkpt>
      <trkpt lat="58.470473019406199" lon="-4.403150025755167">
        <ele>141.93000000000001</ele>
        <time>2023-08-24T09:35:19Z</time>
      </trkpt>
      <trkpt lat="58.470481988042593" lon="-4.403252033516765">
        <ele>141.44999999999999</ele>
        <time>2023-08-24T09:35:20Z</time>
      </trkpt>
      <trkpt lat="58.470566980540752" lon="-4.403297966346145">
        <ele>140.97</ele>
        <time>2023-08-24T09:35:21Z</time>
      </trkpt>
      <trkpt lat="58.470635963603854" lon="-4.403325961902738">
        <ele>140.00999999999999</ele>
        <time>2023-08-24T09:35:22Z</time>
      </trkpt>
      <trkpt lat="58.470715004950762" lon="-4.403356974944472">
        <ele>139.53</ele>
        <time>2023-08-24T09:35:23Z</time>
      </trkpt>
      <trkpt lat="58.470798991620541" lon="-4.403391005471349">
        <ele>138.56999999999999</ele>
        <time>2023-08-24T09:35:24Z</time>
      </trkpt>
      <trkpt lat="58.47096998244524" lon="-4.403489995747805">
        <ele>136.63999999999999</ele>
        <time>2023-08-24T09:35:26Z</time>
      </trkpt>
      <trkpt lat="58.471130998805165" lon="-4.403640031814575">
        <ele>134.72</ele>
        <time>2023-08-24T09:35:28Z</time>
      </trkpt>
      <trkpt lat="58.471923004835844" lon="-4.404930006712675">
        <ele>125.11</ele>
        <time>2023-08-24T09:35:39Z</time>
      </trkpt>
      <trkpt lat="58.473143996670842" lon="-4.406604040414095">
        <ele>113.56999999999999</ele>
        <time>2023-08-24T09:35:53Z</time>
      </trkpt>
      <trkpt lat="58.474393989890814" lon="-4.408174976706505">
        <ele>102.52</ele>
        <time>2023-08-24T09:36:05Z</time>
      </trkpt>
      <trkpt lat="58.475176021456718" lon="-4.409223971888423">
        <ele>94.829999999999998</ele>
        <time>2023-08-24T09:36:13Z</time>
      </trkpt>
      <trkpt lat="58.476059976965189" lon="-4.410866992548108">
        <ele>84.25</ele>
        <time>2023-08-24T09:36:23Z</time>
      </trkpt>
      <trkpt lat="58.476940998807549" lon="-4.4123749807477">
        <ele>77.040000000000006</ele>
        <time>2023-08-24T09:36:34Z</time>
      </trkpt>
      <trkpt lat="58.477657986804843" lon="-4.413696974515915">
        <ele>71.760000000000005</ele>
        <time>2023-08-24T09:36:45Z</time>
      </trkpt>
      <trkpt lat="58.47773602232337" lon="-4.413842987269163">
        <ele>70.790000000000006</ele>
        <time>2023-08-24T09:36:47Z</time>
      </trkpt>
      <trkpt lat="58.477845992892981" lon="-4.413895038887858">
        <ele>70.310000000000002</ele>
        <time>2023-08-24T09:36:48Z</time>
      </trkpt>
      <trkpt lat="58.477921010926366" lon="-4.413929991424084">
        <ele>69.829999999999998</ele>
        <time>2023-08-24T09:36:49Z</time>
      </trkpt>
      <trkpt lat="58.478700025007129" lon="-4.41432997584343">
        <ele>67.909999999999997</ele>
        <time>2023-08-24T09:37:00Z</time>
      </trkpt>
      <trkpt lat="58.479646006599069" lon="-4.414911009371281">
        <ele>65.510000000000005</ele>
        <time>2023-08-24T09:37:11Z</time>
      </trkpt>
      <trkpt lat="58.479729993268847" lon="-4.414977980777621">
        <ele>65.510000000000005</ele>
        <time>2023-08-24T09:37:12Z</time>
      </trkpt>
      <trkpt lat="58.479810040444136" lon="-4.41505903378129">
        <ele>65.510000000000005</ele>
        <time>2023-08-24T09:37:13Z</time>
      </trkpt>
      <trkpt lat="58.480068035423756" lon="-4.41531702876091">
        <ele>64.549999999999997</ele>
        <time>2023-08-24T09:37:17Z</time>
      </trkpt>
      <trkpt lat="58.480117991566658" lon="-4.415366984903812">
        <ele>64.549999999999997</ele>
        <time>2023-08-24T09:37:18Z</time>
      </trkpt>
      <trkpt lat="58.480123020708561" lon="-4.415378971025348">
        <ele>64.069999999999993</ele>
        <time>2023-08-24T09:37:19Z</time>
      </trkpt>
      <trkpt lat="58.480137018486857" lon="-4.415407972410321">
        <ele>64.549999999999997</ele>
        <time>2023-08-24T09:37:20Z</time>
      </trkpt>
      <trkpt lat="58.480095025151968" lon="-4.415606958791614">
        <ele>64.549999999999997</ele>
        <time>2023-08-24T09:37:21Z</time>
      </trkpt>
      <trkpt lat="58.480052025988698" lon="-4.415625985711813">
        <ele>64.549999999999997</ele>
        <time>2023-08-24T09:37:22Z</time>
      </trkpt>
      <trkpt lat="58.47999201156199" lon="-4.415651969611645">
        <ele>64.069999999999993</ele>
        <time>2023-08-24T09:37:23Z</time>
      </trkpt>
      <trkpt lat="58.479919005185366" lon="-4.41568398848176">
        <ele>64.069999999999993</ele>
        <time>2023-08-24T09:37:24Z</time>
      </trkpt>
      <trkpt lat="58.479168992489576" lon="-4.416011972352862">
        <ele>60.700000000000003</ele>
        <time>2023-08-24T09:37:31Z</time>
      </trkpt>
      <trkpt lat="58.477909024804831" lon="-4.416601974517107">
        <ele>53.009999999999998</ele>
        <time>2023-08-24T09:37:42Z</time>
      </trkpt>
      <trkpt lat="58.476776964962482" lon="-4.417139003053308">
        <ele>44.359999999999999</ele>
        <time>2023-08-24T09:37:54Z</time>
      </trkpt>
      <trkpt lat="58.476384021341801" lon="-4.417318962514401">
        <ele>41.469999999999999</ele>
        <time>2023-08-24T09:37:59Z</time>
      </trkpt>
      <trkpt lat="58.476306991651654" lon="-4.417365984991193">
        <ele>40.990000000000002</ele>
        <time>2023-08-24T09:38:00Z</time>
      </trkpt>
      <trkpt lat="58.476012032479048" lon="-4.417560026049614">
        <ele>38.590000000000003</ele>
        <time>2023-08-24T09:38:04Z</time>
      </trkpt>
      <trkpt lat="58.475956041365862" lon="-4.41753001883626">
        <ele>38.109999999999999</ele>
        <time>2023-08-24T09:38:05Z</time>
      </trkpt>
      <trkpt lat="58.475898038595915" lon="-4.417500011622906">
        <ele>37.149999999999999</ele>
        <time>2023-08-24T09:38:06Z</time>
      </trkpt>
      <trkpt lat="58.475836012512445" lon="-4.417467992752791">
        <ele>36.670000000000002</ele>
        <time>2023-08-24T09:38:07Z</time>
      </trkpt>
      <trkpt lat="58.475770968943834" lon="-4.417433962225914">
        <ele>36.189999999999998</ele>
        <time>2023-08-24T09:38:08Z</time>
      </trkpt>
      <trkpt lat="58.475703997537494" lon="-4.417398003861308">
        <ele>35.710000000000001</ele>
        <time>2023-08-24T09:38:09Z</time>
      </trkpt>
      <trkpt lat="58.475636020302773" lon="-4.417356010526419">
        <ele>35.710000000000001</ele>
        <time>2023-08-24T09:38:10Z</time>
      </trkpt>
      <trkpt lat="58.47556795924902" lon="-4.417309993878007">
        <ele>35.229999999999997</ele>
        <time>2023-08-24T09:38:11Z</time>
      </trkpt>
      <trkpt lat="58.475280040875077" lon="-4.417114024981856">
        <ele>36.189999999999998</ele>
        <time>2023-08-24T09:38:15Z</time>
      </trkpt>
      <trkpt lat="58.475209968164563" lon="-4.417065996676683">
        <ele>35.710000000000001</ele>
        <time>2023-08-24T09:38:16Z</time>
      </trkpt>
      <trkpt lat="58.475133022293448" lon="-4.417030960321426">
        <ele>35.710000000000001</ele>
        <time>2023-08-24T09:38:17Z</time>
      </trkpt>
      <trkpt lat="58.475055992603302" lon="-4.416997013613582">
        <ele>35.710000000000001</ele>
        <time>2023-08-24T09:38:18Z</time>
      </trkpt>
      <trkpt lat="58.474978040903807" lon="-4.416962983086705">
        <ele>35.710000000000001</ele>
        <time>2023-08-24T09:38:19Z</time>
      </trkpt>
      <trkpt lat="58.473936002701521" lon="-4.416508013382554">
        <ele>33.780000000000001</ele>
        <time>2023-08-24T09:38:31Z</time>
      </trkpt>
      <trkpt lat="58.473493019118905" lon="-4.416340040042996">
        <ele>33.299999999999997</ele>
        <time>2023-08-24T09:38:36Z</time>
      </trkpt>
      <trkpt lat="58.473401991650462" lon="-4.416311960667372">
        <ele>33.299999999999997</ele>
        <time>2023-08-24T09:38:37Z</time>
      </trkpt>
      <trkpt lat="58.473306018859148" lon="-4.416282959282398">
        <ele>33.299999999999997</ele>
        <time>2023-08-24T09:38:38Z</time>
      </trkpt>
      <trkpt lat="58.473208034411073" lon="-4.416253035888076">
        <ele>32.82</ele>
        <time>2023-08-24T09:38:39Z</time>
      </trkpt>
      <trkpt lat="58.473111977800727" lon="-4.416223028674722">
        <ele>32.82</ele>
        <time>2023-08-24T09:38:40Z</time>
      </trkpt>
      <trkpt lat="58.472498003393412" lon="-4.416036028414965">
        <ele>30.899999999999999</ele>
        <time>2023-08-24T09:38:47Z</time>
      </trkpt>
      <trkpt lat="58.472464978694916" lon="-4.416025970131159">
        <ele>30.899999999999999</ele>
        <time>2023-08-24T09:38:48Z</time>
      </trkpt>
      <trkpt lat="58.472442012280226" lon="-4.416019013151527">
        <ele>30.420000000000002</ele>
        <time>2023-08-24T09:38:49Z</time>
      </trkpt>
      <trkpt lat="58.472424997016788" lon="-4.416013984009624">
        <ele>30.899999999999999</ele>
        <time>2023-08-24T09:38:50Z</time>
      </trkpt>
      <trkpt lat="58.472338998690248" lon="-4.415986994281411">
        <ele>29.940000000000001</ele>
        <time>2023-08-24T09:38:59Z</time>
      </trkpt>
      <trkpt lat="58.472278984263539" lon="-4.415968973189592">
        <ele>29.940000000000001</ele>
        <time>2023-08-24T09:39:00Z</time>
      </trkpt>
      <trkpt lat="58.472208995372057" lon="-4.415948018431664">
        <ele>29.940000000000001</ele>
        <time>2023-08-24T09:39:01Z</time>
      </trkpt>
      <trkpt lat="58.471472980454564" lon="-4.415744002908468">
        <ele>26.57</ele>
        <time>2023-08-24T09:39:08Z</time>
      </trkpt>
      <trkpt lat="58.471024967730045" lon="-4.415662027895451">
        <ele>22.73</ele>
        <time>2023-08-24T09:39:12Z</time>
      </trkpt>
      <trkpt lat="58.469959041103721" lon="-4.415568988770247">
        <ele>18.399999999999999</ele>
        <time>2023-08-24T09:39:22Z</time>
      </trkpt>
      <trkpt lat="58.468619026243687" lon="-4.415841987356544">
        <ele>15.52</ele>
        <time>2023-08-24T09:39:33Z</time>
      </trkpt>
      <trkpt lat="58.467842023819685" lon="-4.416165025904775">
        <ele>13.119999999999999</ele>
        <time>2023-08-24T09:39:39Z</time>
      </trkpt>
      <trkpt lat="58.466966031119227" lon="-4.416817976161838">
        <ele>11.19</ele>
        <time>2023-08-24T09:39:47Z</time>
      </trkpt>
      <trkpt lat="58.466922026127577" lon="-4.416869021952152">
        <ele>10.710000000000001</ele>
        <time>2023-08-24T09:39:48Z</time>
      </trkpt>
      <trkpt lat="58.466858994215727" lon="-4.417082006111741">
        <ele>10.710000000000001</ele>
        <time>2023-08-24T09:39:49Z</time>
      </trkpt>
      <trkpt lat="58.466809960082173" lon="-4.417252996936441">
        <ele>10.23</ele>
        <time>2023-08-24T09:39:50Z</time>
      </trkpt>
      <trkpt lat="58.466752963140607" lon="-4.417447960004211">
        <ele>9.75</ele>
        <time>2023-08-24T09:39:51Z</time>
      </trkpt>
      <trkpt lat="58.466123985126615" lon="-4.419610993936658">
        <ele>7.83</ele>
        <time>2023-08-24T09:40:01Z</time>
      </trkpt>
      <trkpt lat="58.465784015133977" lon="-4.420664012432098">
        <ele>5.42</ele>
        <time>2023-08-24T09:40:07Z</time>
      </trkpt>
      <trkpt lat="58.465689970180392" lon="-4.420782029628754">
        <ele>4.94</ele>
        <time>2023-08-24T09:40:08Z</time>
      </trkpt>
      <trkpt lat="58.465586034581065" lon="-4.420886971056461">
        <ele>4.94</ele>
        <time>2023-08-24T09:40:09Z</time>
      </trkpt>
      <trkpt lat="58.465472962707281" lon="-4.420999037101865">
        <ele>4.46</ele>
        <time>2023-08-24T09:40:10Z</time>
      </trkpt>
      <trkpt lat="58.465358968824148" lon="-4.421114036813378">
        <ele>4.46</ele>
        <time>2023-08-24T09:40:11Z</time>
      </trkpt>
      <trkpt lat="58.464323971420527" lon="-4.421809986233711">
        <ele>3.98</ele>
        <time>2023-08-24T09:40:20Z</time>
      </trkpt>
      <trkpt lat="58.463923987001181" lon="-4.421995980665088">
        <ele>4.94</ele>
        <time>2023-08-24T09:40:24Z</time>
      </trkpt>
      <trkpt lat="58.463832959532738" lon="-4.422069992870092">
        <ele>5.42</ele>
        <time>2023-08-24T09:40:25Z</time>
      </trkpt>
      <trkpt lat="58.463743021711707" lon="-4.422180969268084">
        <ele>5.42</ele>
        <time>2023-08-24T09:40:26Z</time>
      </trkpt>
      <trkpt lat="58.462916985154152" lon="-4.423208003863692">
        <ele>3.02</ele>
        <time>2023-08-24T09:40:34Z</time>
      </trkpt>
      <trkpt lat="58.461718037724495" lon="-4.424839960411191">
        <ele>-4.19</ele>
        <time>2023-08-24T09:40:45Z</time>
      </trkpt>
      <trkpt lat="58.461477980017662" lon="-4.425080018118024">
        <ele>-4.67</ele>
        <time>2023-08-24T09:40:47Z</time>
      </trkpt>
      <trkpt lat="58.459795983508229" lon="-4.426569985225797">
        <ele>1.1</ele>
        <time>2023-08-24T09:41:00Z</time>
      </trkpt>
      <trkpt lat="58.458467032760382" lon="-4.427841017022729">
        <ele>4.94</ele>
        <time>2023-08-24T09:41:10Z</time>
      </trkpt>
      <trkpt lat="58.458254970610142" lon="-4.428027011454105">
        <ele>6.39</ele>
        <time>2023-08-24T09:41:12Z</time>
      </trkpt>
      <trkpt lat="58.458189005032182" lon="-4.428161960095167">
        <ele>6.87</ele>
        <time>2023-08-24T09:41:13Z</time>
      </trkpt>
      <trkpt lat="58.458128990605474" lon="-4.428325993940234">
        <ele>7.83</ele>
        <time>2023-08-24T09:41:14Z</time>
      </trkpt>
      <trkpt lat="58.4575180336833" lon="-4.430068004876375">
        <ele>14.08</ele>
        <time>2023-08-24T09:41:23Z</time>
      </trkpt>
      <trkpt lat="58.457443015649915" lon="-4.430403029546142">
        <ele>15.52</ele>
        <time>2023-08-24T09:41:25Z</time>
      </trkpt>
      <trkpt lat="58.457410996779799" lon="-4.430549964308739">
        <ele>16.48</ele>
        <time>2023-08-24T09:41:26Z</time>
      </trkpt>
      <trkpt lat="58.457403033971786" lon="-4.430696982890368">
        <ele>17.920000000000002</ele>
        <time>2023-08-24T09:41:27Z</time>
      </trkpt>
      <trkpt lat="58.457417031750083" lon="-4.4308109767735">
        <ele>19.359999999999999</ele>
        <time>2023-08-24T09:41:28Z</time>
      </trkpt>
      <trkpt lat="58.457428012043238" lon="-4.430905021727085">
        <ele>21.289999999999999</ele>
        <time>2023-08-24T09:41:29Z</time>
      </trkpt>
      <trkpt lat="58.457436980679631" lon="-4.430983979254961">
        <ele>22.73</ele>
        <time>2023-08-24T09:41:30Z</time>
      </trkpt>
      <trkpt lat="58.457448966801167" lon="-4.431081963703036">
        <ele>26.09</ele>
        <time>2023-08-24T09:41:39Z</time>
      </trkpt>
      <trkpt lat="58.457508981227875" lon="-4.431588985025883">
        <ele>31.379999999999999</ele>
        <time>2023-08-24T09:41:56Z</time>
      </trkpt>
      <trkpt lat="58.457608977332711" lon="-4.432426001876593">
        <ele>31.859999999999999</ele>
        <time>2023-08-24T09:42:04Z</time>
      </trkpt>
      <trkpt lat="58.457580981776118" lon="-4.43263404071331">
        <ele>31.859999999999999</ele>
        <time>2023-08-24T09:42:05Z</time>
      </trkpt>
      <trkpt lat="58.457565978169441" lon="-4.432747028768063">
        <ele>32.340000000000003</ele>
        <time>2023-08-24T09:42:06Z</time>
      </trkpt>
      <trkpt lat="58.457502024248242" lon="-4.432961018756032">
        <ele>32.340000000000003</ele>
        <time>2023-08-24T09:42:07Z</time>
      </trkpt>
      <trkpt lat="58.457448966801167" lon="-4.433137038722634">
        <ele>32.82</ele>
        <time>2023-08-24T09:42:08Z</time>
      </trkpt>
      <trkpt lat="58.457386018708348" lon="-4.433230999857187">
        <ele>32.82</ele>
        <time>2023-08-24T09:42:09Z</time>
      </trkpt>
      <trkpt lat="58.457288034260273" lon="-4.433334013447166">
        <ele>33.299999999999997</ele>
        <time>2023-08-24T09:42:10Z</time>
      </trkpt>
      <trkpt lat="58.457184014841914" lon="-4.433443984016776">
        <ele>33.780000000000001</ele>
        <time>2023-08-24T09:42:11Z</time>
      </trkpt>
      <trkpt lat="58.457050994038582" lon="-4.433583961799741">
        <ele>34.259999999999998</ele>
        <time>2023-08-24T09:42:12Z</time>
      </trkpt>
      <trkpt lat="58.456954015418887" lon="-4.433628972619772">
        <ele>34.740000000000002</ele>
        <time>2023-08-24T09:42:13Z</time>
      </trkpt>
      <trkpt lat="58.456820994615555" lon="-4.43368898704648">
        <ele>35.229999999999997</ele>
        <time>2023-08-24T09:42:14Z</time>
      </trkpt>
      <trkpt lat="58.455835031345487" lon="-4.434409998357296">
        <ele>37.149999999999999</ele>
        <time>2023-08-24T09:42:22Z</time>
      </trkpt>
      <trkpt lat="58.454703977331519" lon="-4.435582961887121">
        <ele>40.509999999999998</ele>
        <time>2023-08-24T09:42:31Z</time>
      </trkpt>
      <trkpt lat="58.454580008983612" lon="-4.435711959376931">
        <ele>40.990000000000002</ele>
        <time>2023-08-24T09:42:32Z</time>
      </trkpt>
      <trkpt lat="58.454448999837041" lon="-4.435791000723839">
        <ele>41.469999999999999</ele>
        <time>2023-08-24T09:42:33Z</time>
      </trkpt>
      <trkpt lat="58.453450966626406" lon="-4.436373040080071">
        <ele>44.840000000000003</ele>
        <time>2023-08-24T09:42:40Z</time>
      </trkpt>
      <trkpt lat="58.452422004193068" lon="-4.437158005312085">
        <ele>53.009999999999998</ele>
        <time>2023-08-24T09:42:48Z</time>
      </trkpt>
      <trkpt lat="58.451913977041841" lon="-4.437504010275006">
        <ele>58.299999999999997</ele>
        <time>2023-08-24T09:42:52Z</time>
      </trkpt>
      <trkpt lat="58.451001020148396" lon="-4.438358964398503">
        <ele>71.760000000000005</ele>
        <time>2023-08-24T09:43:00Z</time>
      </trkpt>
      <trkpt lat="58.450913010165095" lon="-4.438482010737062">
        <ele>73.200000000000003</ele>
        <time>2023-08-24T09:43:01Z</time>
      </trkpt>
      <trkpt lat="58.450825000181794" lon="-4.438642021268606">
        <ele>74.640000000000001</ele>
        <time>2023-08-24T09:43:02Z</time>
      </trkpt>
      <trkpt lat="58.450026037171483" lon="-4.440279006958008">
        <ele>82.329999999999998</ele>
        <time>2023-08-24T09:43:10Z</time>
      </trkpt>
      <trkpt lat="58.449907014146447" lon="-4.440427031368017">
        <ele>82.810000000000002</ele>
        <time>2023-08-24T09:43:11Z</time>
      </trkpt>
      <trkpt lat="58.44978203997016" lon="-4.440558962523937">
        <ele>83.290000000000006</ele>
        <time>2023-08-24T09:43:12Z</time>
      </trkpt>
      <trkpt lat="58.449640972539783" lon="-4.440644038841128">
        <ele>83.290000000000006</ele>
        <time>2023-08-24T09:43:13Z</time>
      </trkpt>
      <trkpt lat="58.449497977271676" lon="-4.440730037167668">
        <ele>83.769999999999996</ele>
        <time>2023-08-24T09:43:14Z</time>
      </trkpt>
      <trkpt lat="58.449338972568512" lon="-4.440784016624093">
        <ele>83.769999999999996</ele>
        <time>2023-08-24T09:43:15Z</time>
      </trkpt>
      <trkpt lat="58.449186002835631" lon="-4.440835984423757">
        <ele>83.769999999999996</ele>
        <time>2023-08-24T09:43:16Z</time>
      </trkpt>
      <trkpt lat="58.447540970519185" lon="-4.441513996571302">
        <ele>84.25</ele>
        <time>2023-08-24T09:43:27Z</time>
      </trkpt>
      <trkpt lat="58.446638993918896" lon="-4.442729037255049">
        <ele>81.370000000000005</ele>
        <time>2023-08-24T09:43:34Z</time>
      </trkpt>
      <trkpt lat="58.4458530228585" lon="-4.444687971845269">
        <ele>77.519999999999996</ele>
        <time>2023-08-24T09:43:43Z</time>
      </trkpt>
      <trkpt lat="58.445715978741646" lon="-4.445281997323036">
        <ele>76.560000000000002</ele>
        <time>2023-08-24T09:43:46Z</time>
      </trkpt>
      <trkpt lat="58.445609025657177" lon="-4.44589102640748">
        <ele>76.079999999999998</ele>
        <time>2023-08-24T09:43:49Z</time>
      </trkpt>
      <trkpt lat="58.445568960160017" lon="-4.446118008345366">
        <ele>75.599999999999994</ele>
        <time>2023-08-24T09:43:50Z</time>
      </trkpt>
      <trkpt lat="58.445415990427136" lon="-4.446986960247159">
        <ele>74.640000000000001</ele>
        <time>2023-08-24T09:43:54Z</time>
      </trkpt>
      <trkpt lat="58.445383971557021" lon="-4.447163986042142">
        <ele>74.159999999999997</ele>
        <time>2023-08-24T09:43:55Z</time>
      </trkpt>
      <trkpt lat="58.445353964343667" lon="-4.447339000180364">
        <ele>73.200000000000003</ele>
        <time>2023-08-24T09:43:56Z</time>
      </trkpt>
      <trkpt lat="58.445323035120964" lon="-4.447515020146966">
        <ele>72.719999999999999</ele>
        <time>2023-08-24T09:43:57Z</time>
      </trkpt>
      <trkpt lat="58.445290010422468" lon="-4.447704032063484">
        <ele>72.239999999999995</ele>
        <time>2023-08-24T09:43:58Z</time>
      </trkpt>
      <trkpt lat="58.445337032899261" lon="-4.449652992188931">
        <ele>70.790000000000006</ele>
        <time>2023-08-24T09:44:07Z</time>
      </trkpt>
      <trkpt lat="58.445353964343667" lon="-4.450293034315109">
        <ele>70.790000000000006</ele>
        <time>2023-08-24T09:44:10Z</time>
      </trkpt>
      <trkpt lat="58.445270983502269" lon="-4.452085001394153">
        <ele>71.269999999999996</ele>
        <time>2023-08-24T09:44:19Z</time>
      </trkpt>
      <trkpt lat="58.445246005430818" lon="-4.452245011925697">
        <ele>71.269999999999996</ele>
        <time>2023-08-24T09:44:20Z</time>
      </trkpt>
      <trkpt lat="58.445215998217463" lon="-4.452410973608494">
        <ele>71.760000000000005</ele>
        <time>2023-08-24T09:44:21Z</time>
      </trkpt>
      <trkpt lat="58.444810984656215" lon="-4.454096993431449">
        <ele>75.120000000000005</ele>
        <time>2023-08-24T09:44:30Z</time>
      </trkpt>
      <trkpt lat="58.444596994668245" lon="-4.454986983910203">
        <ele>76.560000000000002</ele>
        <time>2023-08-24T09:44:34Z</time>
      </trkpt>
      <trkpt lat="58.443934991955757" lon="-4.457141971215606">
        <ele>78.969999999999999</ele>
        <time>2023-08-24T09:44:44Z</time>
      </trkpt>
      <trkpt lat="58.443304002285004" lon="-4.459185982123017">
        <ele>81.370000000000005</ele>
        <time>2023-08-24T09:44:52Z</time>
      </trkpt>
      <trkpt lat="58.442274034023285" lon="-4.461293024942279">
        <ele>78</ele>
        <time>2023-08-24T09:45:02Z</time>
      </trkpt>
      <trkpt lat="58.441114984452724" lon="-4.46286597289145">
        <ele>72.239999999999995</ele>
        <time>2023-08-24T09:45:12Z</time>
      </trkpt>
      <trkpt lat="58.439297033473849" lon="-4.464620975777507">
        <ele>64.549999999999997</ele>
        <time>2023-08-24T09:45:26Z</time>
      </trkpt>
      <trkpt lat="58.438732009381056" lon="-4.465019032359123">
        <ele>61.659999999999997</ele>
        <time>2023-08-24T09:45:31Z</time>
      </trkpt>
      <trkpt lat="58.437854005023837" lon="-4.46529496461153">
        <ele>55.890000000000001</ele>
        <time>2023-08-24T09:45:39Z</time>
      </trkpt>
      <trkpt lat="58.437093012034893" lon="-4.466319987550378">
        <ele>51.57</ele>
        <time>2023-08-24T09:45:48Z</time>
      </trkpt>
      <trkpt lat="58.436373006552458" lon="-4.467716999351978">
        <ele>40.990000000000002</ele>
        <time>2023-08-24T09:45:58Z</time>
      </trkpt>
      <trkpt lat="58.435458960011601" lon="-4.469393966719508">
        <ele>22.25</ele>
        <time>2023-08-24T09:46:10Z</time>
      </trkpt>
      <trkpt lat="58.434885973110795" lon="-4.470460982993245">
        <ele>14.56</ele>
        <time>2023-08-24T09:46:17Z</time>
      </trkpt>
      <trkpt lat="58.434836016967893" lon="-4.470626022666693">
        <ele>14.08</ele>
        <time>2023-08-24T09:46:18Z</time>
      </trkpt>
      <trkpt lat="58.434784971177578" lon="-4.470790978521109">
        <ele>13.119999999999999</ele>
        <time>2023-08-24T09:46:19Z</time>
      </trkpt>
      <trkpt lat="58.434763010591269" lon="-4.470972027629614">
        <ele>12.630000000000001</ele>
        <time>2023-08-24T09:46:20Z</time>
      </trkpt>
      <trkpt lat="58.43474599532783" lon="-4.471148969605565">
        <ele>12.15</ele>
        <time>2023-08-24T09:46:21Z</time>
      </trkpt>
      <trkpt lat="58.434728980064392" lon="-4.471318032592535">
        <ele>11.67</ele>
        <time>2023-08-24T09:46:22Z</time>
      </trkpt>
      <trkpt lat="58.434712970629334" lon="-4.471485000103712">
        <ele>11.67</ele>
        <time>2023-08-24T09:46:23Z</time>
      </trkpt>
      <trkpt lat="58.434696961194277" lon="-4.47165397927165">
        <ele>11.19</ele>
        <time>2023-08-24T09:46:24Z</time>
      </trkpt>
      <trkpt lat="58.434681035578251" lon="-4.471820024773479">
        <ele>11.19</ele>
        <time>2023-08-24T09:46:25Z</time>
      </trkpt>
      <trkpt lat="58.434688998386264" lon="-4.472003001719713">
        <ele>10.710000000000001</ele>
        <time>2023-08-24T09:46:26Z</time>
      </trkpt>
      <trkpt lat="58.434726968407631" lon="-4.472153959795833">
        <ele>10.23</ele>
        <time>2023-08-24T09:46:27Z</time>
      </trkpt>
      <trkpt lat="58.43476502224803" lon="-4.472303995862603">
        <ele>9.75</ele>
        <time>2023-08-24T09:46:28Z</time>
      </trkpt>
      <trkpt lat="58.434802992269397" lon="-4.472452020272613">
        <ele>9.27</ele>
        <time>2023-08-24T09:46:29Z</time>
      </trkpt>
      <trkpt lat="58.434842973947525" lon="-4.472610019147396">
        <ele>8.789999999999999</ele>
        <time>2023-08-24T09:46:30Z</time>
      </trkpt>
      <trkpt lat="58.434885973110795" lon="-4.472783021628857">
        <ele>8.310000000000001</ele>
        <time>2023-08-24T09:46:31Z</time>
      </trkpt>
      <trkpt lat="58.435185961425304" lon="-4.473981969058514">
        <ele>4.46</ele>
        <time>2023-08-24T09:46:38Z</time>
      </trkpt>
      <trkpt lat="58.435197025537491" lon="-4.474156983196735">
        <ele>4.46</ele>
        <time>2023-08-24T09:46:39Z</time>
      </trkpt>
      <trkpt lat="58.435207000002265" lon="-4.474331997334957">
        <ele>4.46</ele>
        <time>2023-08-24T09:46:40Z</time>
      </trkpt>
      <trkpt lat="58.435180010274053" lon="-4.474510028958321">
        <ele>4.94</ele>
        <time>2023-08-24T09:46:41Z</time>
      </trkpt>
      <trkpt lat="58.435154026374221" lon="-4.474676996469498">
        <ele>4.94</ele>
        <time>2023-08-24T09:46:42Z</time>
      </trkpt>
      <trkpt lat="58.435127036646008" lon="-4.474852010607719">
        <ele>5.42</ele>
        <time>2023-08-24T09:46:43Z</time>
      </trkpt>
      <trkpt lat="58.434953028336167" lon="-4.476588992401958">
        <ele>13.119999999999999</ele>
        <time>2023-08-24T09:46:53Z</time>
      </trkpt>
      <trkpt lat="58.434842973947525" lon="-4.477948034182191">
        <ele>21.289999999999999</ele>
        <time>2023-08-24T09:47:03Z</time>
      </trkpt>
      <trkpt lat="58.434896031394601" lon="-4.477998996153474">
        <ele>22.73</ele>
        <time>2023-08-24T09:47:05Z</time>
      </trkpt>
      <trkpt lat="58.434927966445684" lon="-4.478022968396545">
        <ele>23.210000000000001</ele>
        <time>2023-08-24T09:47:06Z</time>
      </trkpt>
      <trkpt lat="58.434968031942844" lon="-4.477996984496713">
        <ele>23.210000000000001</ele>
        <time>2023-08-24T09:47:07Z</time>
      </trkpt>
      <trkpt lat="58.435037015005946" lon="-4.477950967848301">
        <ele>23.690000000000001</ele>
        <time>2023-08-24T09:47:08Z</time>
      </trkpt>
      <trkpt lat="58.435116978362203" lon="-4.477896988391876">
        <ele>23.690000000000001</ele>
        <time>2023-08-24T09:47:09Z</time>
      </trkpt>
      <trkpt lat="58.435194008052349" lon="-4.47784099727869">
        <ele>23.690000000000001</ele>
        <time>2023-08-24T09:47:10Z</time>
      </trkpt>
      <trkpt lat="58.435271959751844" lon="-4.477741001173854">
        <ele>23.690000000000001</ele>
        <time>2023-08-24T09:47:11Z</time>
      </trkpt>
      <trkpt lat="58.435356030240655" lon="-4.477631030604243">
        <ele>23.690000000000001</ele>
        <time>2023-08-24T09:47:12Z</time>
      </trkpt>
      <trkpt lat="58.435665993019938" lon="-4.477228028699756">
        <ele>22.73</ele>
        <time>2023-08-24T09:47:16Z</time>
      </trkpt>
      <trkpt lat="58.435749979689717" lon="-4.477210007607937">
        <ele>22.73</ele>
        <time>2023-08-24T09:47:17Z</time>
      </trkpt>
      <trkpt lat="58.436153987422585" lon="-4.477127026766539">
        <ele>21.77</ele>
        <time>2023-08-24T09:47:21Z</time>
      </trkpt>
      <trkpt lat="58.436255995184183" lon="-4.477105988189578">
        <ele>21.289999999999999</ele>
        <time>2023-08-24T09:47:22Z</time>
      </trkpt>
      <trkpt lat="58.436769973486662" lon="-4.477004986256361">
        <ele>18.399999999999999</ele>
        <time>2023-08-24T09:47:27Z</time>
      </trkpt>
      <trkpt lat="58.437566002830863" lon="-4.477331964299083">
        <ele>16.48</ele>
        <time>2023-08-24T09:47:35Z</time>
      </trkpt>
      <trkpt lat="58.438534028828144" lon="-4.478142997249961">
        <ele>13.119999999999999</ele>
        <time>2023-08-24T09:47:45Z</time>
      </trkpt>
      <trkpt lat="58.438801998272538" lon="-4.478367967531085">
        <ele>12.630000000000001</ele>
        <time>2023-08-24T09:47:48Z</time>
      </trkpt>
      <trkpt lat="58.438876010477543" lon="-4.478430999442935">
        <ele>13.119999999999999</ele>
        <time>2023-08-24T09:47:49Z</time>
      </trkpt>
      <trkpt lat="58.438957985490561" lon="-4.478386994451284">
        <ele>13.6</ele>
        <time>2023-08-24T09:47:50Z</time>
      </trkpt>
      <trkpt lat="58.439043983817101" lon="-4.478341983631253">
        <ele>13.6</ele>
        <time>2023-08-24T09:47:51Z</time>
      </trkpt>
      <trkpt lat="58.439131993800402" lon="-4.478294961154461">
        <ele>13.6</ele>
        <time>2023-08-24T09:47:52Z</time>
      </trkpt>
      <trkpt lat="58.439223021268845" lon="-4.47824701666832">
        <ele>13.6</ele>
        <time>2023-08-24T09:47:53Z</time>
      </trkpt>
      <trkpt lat="58.439950989559293" lon="-4.477859018370509">
        <ele>11.67</ele>
        <time>2023-08-24T09:48:00Z</time>
      </trkpt>
      <trkpt lat="58.440206972882152" lon="-4.477722980082035">
        <ele>9.75</ele>
        <time>2023-08-24T09:48:03Z</time>
      </trkpt>
      <trkpt lat="58.440322978422046" lon="-4.47777796536684">
        <ele>9.75</ele>
        <time>2023-08-24T09:48:04Z</time>
      </trkpt>
      <trkpt lat="58.440407970920205" lon="-4.477819036692381">
        <ele>9.27</ele>
        <time>2023-08-24T09:48:05Z</time>
      </trkpt>
      <trkpt lat="58.44050201587379" lon="-4.47786396369338">
        <ele>9.27</ele>
        <time>2023-08-24T09:48:06Z</time>
      </trkpt>
      <trkpt lat="58.440595977008343" lon="-4.477908974513412">
        <ele>8.789999999999999</ele>
        <time>2023-08-24T09:48:07Z</time>
      </trkpt>
      <trkpt lat="58.441515974700451" lon="-4.478349024429917">
        <ele>10.23</ele>
        <time>2023-08-24T09:48:16Z</time>
      </trkpt>
      <trkpt lat="58.44161999411881" lon="-4.47839898057282">
        <ele>10.710000000000001</ele>
        <time>2023-08-24T09:48:17Z</time>
      </trkpt>
      <trkpt lat="58.44172996468842" lon="-4.478430999442935">
        <ele>11.19</ele>
        <time>2023-08-24T09:48:18Z</time>
      </trkpt>
      <trkpt lat="58.44181596301496" lon="-4.478430999442935">
        <ele>11.67</ele>
        <time>2023-08-24T09:48:19Z</time>
      </trkpt>
      <trkpt lat="58.441930962726474" lon="-4.478348018601537">
        <ele>11.67</ele>
        <time>2023-08-24T09:48:20Z</time>
      </trkpt>
      <trkpt lat="58.442029030993581" lon="-4.478279035538435">
        <ele>12.15</ele>
        <time>2023-08-24T09:48:21Z</time>
      </trkpt>
      <trkpt lat="58.442121986299753" lon="-4.478211980313063">
        <ele>12.15</ele>
        <time>2023-08-24T09:48:22Z</time>
      </trkpt>
      <trkpt lat="58.442211002111435" lon="-4.478149032220244">
        <ele>12.15</ele>
        <time>2023-08-24T09:48:23Z</time>
      </trkpt>
      <trkpt lat="58.442289037629962" lon="-4.47807502001524">
        <ele>12.630000000000001</ele>
        <time>2023-08-24T09:48:24Z</time>
      </trkpt>
      <trkpt lat="58.442357014864683" lon="-4.4779699947685">
        <ele>13.119999999999999</ele>
        <time>2023-08-24T09:48:25Z</time>
      </trkpt>
      <trkpt lat="58.442424992099404" lon="-4.477865975350142">
        <ele>13.6</ele>
        <time>2023-08-24T09:48:26Z</time>
      </trkpt>
      <trkpt lat="58.442487018182874" lon="-4.477770002558827">
        <ele>13.6</ele>
        <time>2023-08-24T09:48:27Z</time>
      </trkpt>
      <trkpt lat="58.442542003467679" lon="-4.477685010060668">
        <ele>13.6</ele>
        <time>2023-08-24T09:48:28Z</time>
      </trkpt>
      <trkpt lat="58.442605035379529" lon="-4.477717028930783">
        <ele>13.6</ele>
        <time>2023-08-24T09:48:29Z</time>
      </trkpt>
      <trkpt lat="58.442668989300728" lon="-4.477757010608912">
        <ele>13.119999999999999</ele>
        <time>2023-08-24T09:48:30Z</time>
      </trkpt>
      <trkpt lat="58.442745013162494" lon="-4.477804033085704">
        <ele>12.630000000000001</ele>
        <time>2023-08-24T09:48:31Z</time>
      </trkpt>
      <trkpt lat="58.442835034802556" lon="-4.47786103002727">
        <ele>12.630000000000001</ele>
        <time>2023-08-24T09:48:32Z</time>
      </trkpt>
      <trkpt lat="58.443493014201522" lon="-4.478231007233262">
        <ele>11.19</ele>
        <time>2023-08-24T09:48:38Z</time>
      </trkpt>
      <trkpt lat="58.444701014086604" lon="-4.478435022756457">
        <ele>12.15</ele>
        <time>2023-08-24T09:48:48Z</time>
      </trkpt>
      <trkpt lat="58.444959009066224" lon="-4.478479027748108">
        <ele>12.15</ele>
        <time>2023-08-24T09:48:50Z</time>
      </trkpt>
      <trkpt lat="58.445069985464215" lon="-4.478512974455953">
        <ele>12.15</ele>
        <time>2023-08-24T09:48:51Z</time>
      </trkpt>
      <trkpt lat="58.445149026811123" lon="-4.478615988045931">
        <ele>12.15</ele>
        <time>2023-08-24T09:48:52Z</time>
      </trkpt>
      <trkpt lat="58.445225972682238" lon="-4.478714978322387">
        <ele>11.67</ele>
        <time>2023-08-24T09:48:53Z</time>
      </trkpt>
      <trkpt lat="58.445289004594088" lon="-4.478894015774131">
        <ele>11.67</ele>
        <time>2023-08-24T09:48:54Z</time>
      </trkpt>
      <trkpt lat="58.445319011807442" lon="-4.479091996327043">
        <ele>11.19</ele>
        <time>2023-08-24T09:48:55Z</time>
      </trkpt>
      <trkpt lat="58.445352036505938" lon="-4.479309003800154">
        <ele>10.710000000000001</ele>
        <time>2023-08-24T09:48:56Z</time>
      </trkpt>
      <trkpt lat="58.445385983213782" lon="-4.479531962424517">
        <ele>10.23</ele>
        <time>2023-08-24T09:48:57Z</time>
      </trkpt>
      <trkpt lat="58.445420013740659" lon="-4.479775037616491">
        <ele>9.27</ele>
        <time>2023-08-24T09:48:58Z</time>
      </trkpt>
      <trkpt lat="58.445410961285233" lon="-4.479993972927332">
        <ele>9.27</ele>
        <time>2023-08-24T09:48:59Z</time>
      </trkpt>
      <trkpt lat="58.445400986820459" lon="-4.480218021199107">
        <ele>9.27</ele>
        <time>2023-08-24T09:49:00Z</time>
      </trkpt>
      <trkpt lat="58.445391012355685" lon="-4.480451038107276">
        <ele>9.27</ele>
        <time>2023-08-24T09:49:01Z</time>
      </trkpt>
      <trkpt lat="58.445194037631154" lon="-4.482382982969284">
        <ele>10.23</ele>
        <time>2023-08-24T09:49:09Z</time>
      </trkpt>
      <trkpt lat="58.445127988234162" lon="-4.482553973793984">
        <ele>11.19</ele>
        <time>2023-08-24T09:49:10Z</time>
      </trkpt>
      <trkpt lat="58.445049030706286" lon="-4.482677020132542">
        <ele>11.19</ele>
        <time>2023-08-24T09:49:11Z</time>
      </trkpt>
      <trkpt lat="58.444964038208127" lon="-4.482809035107493">
        <ele>11.19</ele>
        <time>2023-08-24T09:49:12Z</time>
      </trkpt>
      <trkpt lat="58.444872004911304" lon="-4.4829520303756">
        <ele>10.710000000000001</ele>
        <time>2023-08-24T09:49:13Z</time>
      </trkpt>
      <trkpt lat="58.444366995245218" lon="-4.484031032770872">
        <ele>8.310000000000001</ele>
        <time>2023-08-24T09:49:20Z</time>
      </trkpt>
      <trkpt lat="58.444304969161749" lon="-4.484266983345151">
        <ele>7.83</ele>
        <time>2023-08-24T09:49:22Z</time>
      </trkpt>
      <trkpt lat="58.444304969161749" lon="-4.484409978613257">
        <ele>7.83</ele>
        <time>2023-08-24T09:49:23Z</time>
      </trkpt>
      <trkpt lat="58.444304969161749" lon="-4.484551968052983">
        <ele>7.83</ele>
        <time>2023-08-24T09:49:24Z</time>
      </trkpt>
      <trkpt lat="58.444340005517006" lon="-4.484681971371174">
        <ele>7.83</ele>
        <time>2023-08-24T09:49:25Z</time>
      </trkpt>
      <trkpt lat="58.444385016337037" lon="-4.484825972467661">
        <ele>7.83</ele>
        <time>2023-08-24T09:49:26Z</time>
      </trkpt>
      <trkpt lat="58.444610992446542" lon="-4.485386973246932">
        <ele>7.35</ele>
        <time>2023-08-24T09:49:31Z</time>
      </trkpt>
      <trkpt lat="58.444643011316657" lon="-4.485426032915711">
        <ele>7.35</ele>
        <time>2023-08-24T09:49:32Z</time>
      </trkpt>
      <trkpt lat="58.444713000208139" lon="-4.485426032915711">
        <ele>6.39</ele>
        <time>2023-08-24T09:49:33Z</time>
      </trkpt>
      <trkpt lat="58.444764968007803" lon="-4.485379010438919">
        <ele>5.91</ele>
        <time>2023-08-24T09:49:34Z</time>
      </trkpt>
      <trkpt lat="58.444841997697949" lon="-4.485309021547437">
        <ele>5.42</ele>
        <time>2023-08-24T09:49:35Z</time>
      </trkpt>
      <trkpt lat="58.445261009037495" lon="-4.485027976334095">
        <ele>3.02</ele>
        <time>2023-08-24T09:49:39Z</time>
      </trkpt>
      <trkpt lat="58.445387994870543" lon="-4.48501599021256">
        <ele>3.02</ele>
        <time>2023-08-24T09:49:40Z</time>
      </trkpt>
      <trkpt lat="58.446040023118258" lon="-4.484882969409227">
        <ele>1.58</ele>
        <time>2023-08-24T09:49:45Z</time>
      </trkpt>
      <trkpt lat="58.447127994149923" lon="-4.483929025009275">
        <ele>-0.82</ele>
        <time>2023-08-24T09:49:55Z</time>
      </trkpt>
      <trkpt lat="58.447410967200994" lon="-4.483629036694765">
        <ele>-1.3</ele>
        <time>2023-08-24T09:49:58Z</time>
      </trkpt>
      <trkpt lat="58.447497971355915" lon="-4.483615038916469">
        <ele>-1.79</ele>
        <time>2023-08-24T09:49:59Z</time>
      </trkpt>
      <trkpt lat="58.447601990774274" lon="-4.483603974804282">
        <ele>-1.79</ele>
        <time>2023-08-24T09:50:00Z</time>
      </trkpt>
      <trkpt lat="58.448658026754856" lon="-4.483307003974915">
        <ele>-2.75</ele>
        <time>2023-08-24T09:50:09Z</time>
      </trkpt>
      <trkpt lat="58.450155034661293" lon="-4.482185002416372">
        <ele>-8.51</ele>
        <time>2023-08-24T09:50:21Z</time>
      </trkpt>
      <trkpt lat="58.451791014522314" lon="-4.480911958962679">
        <ele>-8.51</ele>
        <time>2023-08-24T09:50:34Z</time>
      </trkpt>
      <trkpt lat="58.452629037201405" lon="-4.479818036779761">
        <ele>-6.59</ele>
        <time>2023-08-24T09:50:42Z</time>
      </trkpt>
      <trkpt lat="58.45354400575161" lon="-4.478198988363147">
        <ele>-8.029999999999999</ele>
        <time>2023-08-24T09:50:51Z</time>
      </trkpt>
      <trkpt lat="58.45378196798265" lon="-4.477463979274035">
        <ele>-7.07</ele>
        <time>2023-08-24T09:50:56Z</time>
      </trkpt>
      <trkpt lat="58.453806024044752" lon="-4.477388961240649">
        <ele>-6.59</ele>
        <time>2023-08-24T09:50:57Z</time>
      </trkpt>
      <trkpt lat="58.453828990459442" lon="-4.477317966520786">
        <ele>-6.59</ele>
        <time>2023-08-24T09:50:58Z</time>
      </trkpt>
      <trkpt lat="58.45416602678597" lon="-4.476280035451055">
        <ele>-3.23</ele>
        <time>2023-08-24T09:51:09Z</time>
      </trkpt>
      <trkpt lat="58.454850995913148" lon="-4.474413972347975">
        <ele>-2.75</ele>
        <time>2023-08-24T09:51:20Z</time>
      </trkpt>
      <trkpt lat="58.455833019688725" lon="-4.472415978088975">
        <ele>-3.23</ele>
        <time>2023-08-24T09:51:33Z</time>
      </trkpt>
      <trkpt lat="58.45620802603662" lon="-4.471967965364456">
        <ele>-2.75</ele>
        <time>2023-08-24T09:51:37Z</time>
      </trkpt>
      <trkpt lat="58.456312967464328" lon="-4.471895964816213">
        <ele>-2.27</ele>
        <time>2023-08-24T09:51:38Z</time>
      </trkpt>
      <trkpt lat="58.457792960107327" lon="-4.470917964354157">
        <ele>4.46</ele>
        <time>2023-08-24T09:51:51Z</time>
      </trkpt>
      <trkpt lat="58.459318969398737" lon="-4.470216985791922">
        <ele>5.42</ele>
        <time>2023-08-24T09:52:03Z</time>
      </trkpt>
      <trkpt lat="58.460559993982315" lon="-4.469741983339191">
        <ele>2.54</ele>
        <time>2023-08-24T09:52:14Z</time>
      </trkpt>
      <trkpt lat="58.461485020816326" lon="-4.469656990841031">
        <ele>0.62</ele>
        <time>2023-08-24T09:52:22Z</time>
      </trkpt>
      <trkpt lat="58.461595997214317" lon="-4.469624971970916">
        <ele>0.62</ele>
        <time>2023-08-24T09:52:23Z</time>
      </trkpt>
      <trkpt lat="58.46170898526907" lon="-4.469567975029349">
        <ele>0.62</ele>
        <time>2023-08-24T09:52:24Z</time>
      </trkpt>
      <trkpt lat="58.463184032589197" lon="-4.468831038102508">
        <ele>-1.79</ele>
        <time>2023-08-24T09:52:35Z</time>
      </trkpt>
      <trkpt lat="58.464575009420514" lon="-4.468182027339935">
        <ele>-1.79</ele>
        <time>2023-08-24T09:52:45Z</time>
      </trkpt>
      <trkpt lat="58.466189028695226" lon="-4.467536034062505">
        <ele>-6.11</ele>
        <time>2023-08-24T09:52:56Z</time>
      </trkpt>
      <trkpt lat="58.46781000494957" lon="-4.466702034696937">
        <ele>-9</ele>
        <time>2023-08-24T09:53:09Z</time>
      </trkpt>
      <trkpt lat="58.469065027311444" lon="-4.465547008439899">
        <ele>-8.029999999999999</ele>
        <time>2023-08-24T09:53:19Z</time>
      </trkpt>
      <trkpt lat="58.470694972202182" lon="-4.463986968621612">
        <ele>-7.07</ele>
        <time>2023-08-24T09:53:32Z</time>
      </trkpt>
      <trkpt lat="58.471023961901665" lon="-4.463705001398921">
        <ele>-6.59</ele>
        <time>2023-08-24T09:53:35Z</time>
      </trkpt>
      <trkpt lat="58.471142984926701" lon="-4.463696032762528">
        <ele>-6.59</ele>
        <time>2023-08-24T09:53:36Z</time>
      </trkpt>
      <trkpt lat="58.471256978809834" lon="-4.46370298974216">
        <ele>-6.59</ele>
        <time>2023-08-24T09:53:37Z</time>
      </trkpt>
      <trkpt lat="58.471386982128024" lon="-4.463711958378553">
        <ele>-6.11</ele>
        <time>2023-08-24T09:53:38Z</time>
      </trkpt>
      <trkpt lat="58.471514973789454" lon="-4.463771972805262">
        <ele>-6.59</ele>
        <time>2023-08-24T09:53:39Z</time>
      </trkpt>
      <trkpt lat="58.472879966720939" lon="-4.46419601328671">
        <ele>-2.75</ele>
        <time>2023-08-24T09:53:49Z</time>
      </trkpt>
      <trkpt lat="58.474059971049428" lon="-4.464415032416582">
        <ele>1.1</ele>
        <time>2023-08-24T09:53:58Z</time>
      </trkpt>
      <trkpt lat="58.474196009337902" lon="-4.464440010488033">
        <ele>2.06</ele>
        <time>2023-08-24T09:54:00Z</time>
      </trkpt>
      <trkpt lat="58.474259041249752" lon="-4.464377984404564">
        <ele>2.06</ele>
        <time>2023-08-24T09:54:01Z</time>
      </trkpt>
      <trkpt lat="58.474345961585641" lon="-4.464289974421263">
        <ele>2.54</ele>
        <time>2023-08-24T09:54:02Z</time>
      </trkpt>
      <trkpt lat="58.474359959363937" lon="-4.464243035763502">
        <ele>2.54</ele>
        <time>2023-08-24T09:54:03Z</time>
      </trkpt>
      <trkpt lat="58.474402958527207" lon="-4.464094005525112">
        <ele>2.54</ele>
        <time>2023-08-24T09:54:04Z</time>
      </trkpt>
      <trkpt lat="58.474446963518858" lon="-4.463941035792232">
        <ele>2.54</ele>
        <time>2023-08-24T09:54:05Z</time>
      </trkpt>
      <trkpt lat="58.474484011530876" lon="-4.46381296031177">
        <ele>2.54</ele>
        <time>2023-08-24T09:54:06Z</time>
      </trkpt>
      <trkpt lat="58.474517958238721" lon="-4.463698966428638">
        <ele>2.54</ele>
        <time>2023-08-24T09:54:07Z</time>
      </trkpt>
      <trkpt lat="58.474571015685797" lon="-4.463600981980562">
        <ele>2.54</ele>
        <time>2023-08-24T09:54:08Z</time>
      </trkpt>
      <trkpt lat="58.474634969606996" lon="-4.46355102583766">
        <ele>2.06</ele>
        <time>2023-08-24T09:54:09Z</time>
      </trkpt>
      <trkpt lat="58.474705964326859" lon="-4.463497968390584">
        <ele>2.06</ele>
        <time>2023-08-24T09:54:10Z</time>
      </trkpt>
      <trkpt lat="58.474781988188624" lon="-4.463438959792256">
        <ele>2.06</ele>
        <time>2023-08-24T09:54:11Z</time>
      </trkpt>
      <trkpt lat="58.474865974858403" lon="-4.463375005871058">
        <ele>2.54</ele>
        <time>2023-08-24T09:54:12Z</time>
      </trkpt>
      <trkpt lat="58.475237041711807" lon="-4.463091026991606">
        <ele>3.98</ele>
        <time>2023-08-24T09:54:16Z</time>
      </trkpt>
      <trkpt lat="58.476327024400234" lon="-4.461978999897838">
        <ele>2.06</ele>
        <time>2023-08-24T09:54:26Z</time>
      </trkpt>
      <trkpt lat="58.476861035451293" lon="-4.461706001311541">
        <ele>0.14</ele>
        <time>2023-08-24T09:54:31Z</time>
      </trkpt>
      <trkpt lat="58.476967988535762" lon="-4.461688986048102">
        <ele>-0.34</ele>
        <time>2023-08-24T09:54:32Z</time>
      </trkpt>
      <trkpt lat="58.477081982418895" lon="-4.461680017411709">
        <ele>-0.82</ele>
        <time>2023-08-24T09:54:33Z</time>
      </trkpt>
      <trkpt lat="58.47719999961555" lon="-4.461756963282824">
        <ele>-1.79</ele>
        <time>2023-08-24T09:54:34Z</time>
      </trkpt>
      <trkpt lat="58.477326985448599" lon="-4.461840027943254">
        <ele>-2.27</ele>
        <time>2023-08-24T09:54:35Z</time>
      </trkpt>
      <trkpt lat="58.477828977629542" lon="-4.462092993780971">
        <ele>-3.23</ele>
        <time>2023-08-24T09:54:39Z</time>
      </trkpt>
      <trkpt lat="58.477956969290972" lon="-4.462104979902506">
        <ele>-3.23</ele>
        <time>2023-08-24T09:54:40Z</time>
      </trkpt>
      <trkpt lat="58.478086972609162" lon="-4.462117971852422">
        <ele>-3.71</ele>
        <time>2023-08-24T09:54:41Z</time>
      </trkpt>
      <trkpt lat="58.478225022554398" lon="-4.462061980739236">
        <ele>-3.71</ele>
        <time>2023-08-24T09:54:42Z</time>
      </trkpt>
      <trkpt lat="58.478356031700969" lon="-4.461963996291161">
        <ele>-3.71</ele>
        <time>2023-08-24T09:54:43Z</time>
      </trkpt>
      <trkpt lat="58.478490980342031" lon="-4.461861988529563">
        <ele>-3.71</ele>
        <time>2023-08-24T09:54:44Z</time>
      </trkpt>
      <trkpt lat="58.479867037385702" lon="-4.460827996954322">
        <ele>-4.19</ele>
        <time>2023-08-24T09:54:53Z</time>
      </trkpt>
      <trkpt lat="58.481165980920196" lon="-4.459853013977408">
        <ele>-0.82</ele>
        <time>2023-08-24T09:55:03Z</time>
      </trkpt>
      <trkpt lat="58.482295023277402" lon="-4.458842994645238">
        <ele>6.87</ele>
        <time>2023-08-24T09:55:12Z</time>
      </trkpt>
      <trkpt lat="58.483332032337785" lon="-4.457144988700748">
        <ele>13.119999999999999</ele>
        <time>2023-08-24T09:55:22Z</time>
      </trkpt>
      <trkpt lat="58.483953969553113" lon="-4.456491032615304">
        <ele>12.630000000000001</ele>
        <time>2023-08-24T09:55:27Z</time>
      </trkpt>
      <trkpt lat="58.484076010063291" lon="-4.45641802623868">
        <ele>12.630000000000001</ele>
        <time>2023-08-24T09:55:28Z</time>
      </trkpt>
      <trkpt lat="58.484206013381481" lon="-4.456372009590268">
        <ele>13.119999999999999</ele>
        <time>2023-08-24T09:55:29Z</time>
      </trkpt>
      <trkpt lat="58.484339034184813" lon="-4.456372009590268">
        <ele>13.119999999999999</ele>
        <time>2023-08-24T09:55:30Z</time>
      </trkpt>
      <trkpt lat="58.484473982825875" lon="-4.456372009590268">
        <ele>13.119999999999999</ele>
        <time>2023-08-24T09:55:31Z</time>
      </trkpt>
      <trkpt lat="58.485517026856542" lon="-4.456236977130175">
        <ele>13.6</ele>
        <time>2023-08-24T09:55:38Z</time>
      </trkpt>
      <trkpt lat="58.485777033492923" lon="-4.456185009330511">
        <ele>13.6</ele>
        <time>2023-08-24T09:55:40Z</time>
      </trkpt>
      <trkpt lat="58.485911982133985" lon="-4.45620596408844">
        <ele>14.08</ele>
        <time>2023-08-24T09:55:41Z</time>
      </trkpt>
      <trkpt lat="58.487073965370655" lon="-4.456492038443685">
        <ele>18.399999999999999</ele>
        <time>2023-08-24T09:55:49Z</time>
      </trkpt>
      <trkpt lat="58.4884790237993" lon="-4.456679038703442">
        <ele>20.809999999999999</ele>
        <time>2023-08-24T09:55:59Z</time>
      </trkpt>
      <trkpt lat="58.488588994368911" lon="-4.456735029816628">
        <ele>20.809999999999999</ele>
        <time>2023-08-24T09:56:00Z</time>
      </trkpt>
      <trkpt lat="58.488686978816986" lon="-4.456877019256353">
        <ele>21.289999999999999</ele>
        <time>2023-08-24T09:56:01Z</time>
      </trkpt>
      <trkpt lat="58.488773982971907" lon="-4.457008028402925">
        <ele>21.77</ele>
        <time>2023-08-24T09:56:02Z</time>
      </trkpt>
      <trkpt lat="58.488857969641685" lon="-4.457134008407593">
        <ele>22.25</ele>
        <time>2023-08-24T09:56:03Z</time>
      </trkpt>
      <trkpt lat="58.489013034850359" lon="-4.457365013659">
        <ele>22.25</ele>
        <time>2023-08-24T09:56:05Z</time>
      </trkpt>
      <trkpt lat="58.489091992378235" lon="-4.457484958693385">
        <ele>22.25</ele>
        <time>2023-08-24T09:56:06Z</time>
      </trkpt>
      <trkpt lat="58.489170027896762" lon="-4.45760197006166">
        <ele>22.25</ele>
        <time>2023-08-24T09:56:07Z</time>
      </trkpt>
      <trkpt lat="58.489264994859695" lon="-4.457670031115413">
        <ele>21.77</ele>
        <time>2023-08-24T09:56:08Z</time>
      </trkpt>
      <trkpt lat="58.489359961822629" lon="-4.457712024450302">
        <ele>21.289999999999999</ele>
        <time>2023-08-24T09:56:09Z</time>
      </trkpt>
      <trkpt lat="58.489676965400577" lon="-4.457854013890028">
        <ele>18.399999999999999</ele>
        <time>2023-08-24T09:56:13Z</time>
      </trkpt>
      <trkpt lat="58.48972599953413" lon="-4.457875974476337">
        <ele>17.440000000000001</ele>
        <time>2023-08-24T09:56:14Z</time>
      </trkpt>
      <trkpt lat="58.489828007295728" lon="-4.457911010831595">
        <ele>13.119999999999999</ele>
        <time>2023-08-24T09:56:22Z</time>
      </trkpt>
      <trkpt lat="58.489893972873688" lon="-4.457876980304718">
        <ele>9.75</ele>
        <time>2023-08-24T09:57:02Z</time>
      </trkpt>
      <trkpt lat="58.490074016153812" lon="-4.457784024998546">
        <ele>8.789999999999999</ele>
        <time>2023-08-24T09:57:05Z</time>
      </trkpt>
      <trkpt lat="58.490976998582482" lon="-4.457335006445646">
        <ele>6.39</ele>
        <time>2023-08-24T09:57:13Z</time>
      </trkpt>
      <trkpt lat="58.492376022040844" lon="-4.456948013976216">
        <ele>4.46</ele>
        <time>2023-08-24T09:57:24Z</time>
      </trkpt>
      <trkpt lat="58.493529036641121" lon="-4.456549035385251">
        <ele>-3.23</ele>
        <time>2023-08-24T09:57:33Z</time>
      </trkpt>
      <trkpt lat="58.494273014366627" lon="-4.456430012360215">
        <ele>-5.15</ele>
        <time>2023-08-24T09:57:41Z</time>
      </trkpt>
      <trkpt lat="58.494336968287826" lon="-4.456445015966892">
        <ele>-5.15</ele>
        <time>2023-08-24T09:57:42Z</time>
      </trkpt>
      <trkpt lat="58.49441098049283" lon="-4.45650695823133">
        <ele>-4.67</ele>
        <time>2023-08-24T09:57:43Z</time>
      </trkpt>
      <trkpt lat="58.494456997141242" lon="-4.456650959327817">
        <ele>-4.19</ele>
        <time>2023-08-24T09:57:44Z</time>
      </trkpt>
      <trkpt lat="58.494494967162609" lon="-4.456804012879729">
        <ele>-3.71</ele>
        <time>2023-08-24T09:57:45Z</time>
      </trkpt>
      <trkpt lat="58.49453897215426" lon="-4.456981038674712">
        <ele>-3.23</ele>
        <time>2023-08-24T09:57:46Z</time>
      </trkpt>
      <trkpt lat="58.494589012116194" lon="-4.457177007570863">
        <ele>-3.23</ele>
        <time>2023-08-24T09:57:47Z</time>
      </trkpt>
      <trkpt lat="58.494931999593973" lon="-4.458185015246272">
        <ele>0.14</ele>
        <time>2023-08-24T09:57:53Z</time>
      </trkpt>
      <trkpt lat="58.494981033727527" lon="-4.458279982209206">
        <ele>0.14</ele>
        <time>2023-08-24T09:57:54Z</time>
      </trkpt>
      <trkpt lat="58.495271969586611" lon="-4.458677032962441">
        <ele>2.54</ele>
        <time>2023-08-24T09:58:01Z</time>
      </trkpt>
      <trkpt lat="58.495271969586611" lon="-4.458677032962441">
        <ele>3.02</ele>
        <time>2023-08-24T09:58:14Z</time>
      </trkpt>
      <trkpt lat="58.495531976222992" lon="-4.459039969369769">
        <ele>4.46</ele>
        <time>2023-08-24T09:58:21Z</time>
      </trkpt>
      <trkpt lat="58.495687041431665" lon="-4.459214983507991">
        <ele>5.42</ele>
        <time>2023-08-24T09:58:24Z</time>
      </trkpt>
      <trkpt lat="58.496339991688728" lon="-4.459526035934687">
        <ele>5.42</ele>
        <time>2023-08-24T09:58:36Z</time>
      </trkpt>
      <trkpt lat="58.496443005278707" lon="-4.459555959329009">
        <ele>5.91</ele>
        <time>2023-08-24T09:58:43Z</time>
      </trkpt>
      <trkpt lat="58.496518023312092" lon="-4.459579009562731">
        <ele>6.87</ele>
        <time>2023-08-24T09:58:58Z</time>
      </trkpt>
      <trkpt lat="58.496578959748149" lon="-4.45959703065455">
        <ele>7.35</ele>
        <time>2023-08-24T09:58:59Z</time>
      </trkpt>
      <trkpt lat="58.497228976339102" lon="-4.459601975977421">
        <ele>7.35</ele>
        <time>2023-08-24T09:59:06Z</time>
      </trkpt>
      <trkpt lat="58.497686963528395" lon="-4.459573980420828">
        <ele>4.94</ele>
        <time>2023-08-24T09:59:14Z</time>
      </trkpt>
      <trkpt lat="58.497753012925386" lon="-4.459670959040523">
        <ele>4.94</ele>
        <time>2023-08-24T09:59:20Z</time>
      </trkpt>
      <trkpt lat="58.497749995440245" lon="-4.459795011207461">
        <ele>4.94</ele>
        <time>2023-08-24T09:59:21Z</time>
      </trkpt>
      <trkpt lat="58.497743960469961" lon="-4.459971031174064">
        <ele>6.39</ele>
        <time>2023-08-24T09:59:22Z</time>
      </trkpt>
      <trkpt lat="58.497648993507028" lon="-4.461673982441425">
        <ele>13.6</ele>
        <time>2023-08-24T09:59:29Z</time>
      </trkpt>
      <trkpt lat="58.497211039066315" lon="-4.464850975200534">
        <ele>29.460000000000001</ele>
        <time>2023-08-24T09:59:40Z</time>
      </trkpt>
      <trkpt lat="58.496589018031955" lon="-4.469082998111844">
        <ele>44.840000000000003</ele>
        <time>2023-08-24T09:59:52Z</time>
      </trkpt>
      <trkpt lat="58.496089959517121" lon="-4.473283002153039">
        <ele>62.619999999999997</ele>
        <time>2023-08-24T10:00:04Z</time>
      </trkpt>
      <trkpt lat="58.496173024177551" lon="-4.476332003250718">
        <ele>74.159999999999997</ele>
        <time>2023-08-24T10:00:12Z</time>
      </trkpt>
      <trkpt lat="58.49677300080657" lon="-4.481460973620415">
        <ele>90.980000000000004</ele>
        <time>2023-08-24T10:00:26Z</time>
      </trkpt>
      <trkpt lat="58.49692496471107" lon="-4.482422964647412">
        <ele>95.790000000000006</ele>
        <time>2023-08-24T10:00:29Z</time>
      </trkpt>
      <trkpt lat="58.49698799662292" lon="-4.482725970447063">
        <ele>97.230000000000004</ele>
        <time>2023-08-24T10:00:30Z</time>
      </trkpt>
      <trkpt lat="58.497087992727757" lon="-4.482991006225348">
        <ele>99.150000000000006</ele>
        <time>2023-08-24T10:00:31Z</time>
      </trkpt>
      <trkpt lat="58.497188994660974" lon="-4.483257969841361">
        <ele>100.59999999999999</ele>
        <time>2023-08-24T10:00:32Z</time>
      </trkpt>
      <trkpt lat="58.497305000200868" lon="-4.48351101949811">
        <ele>101.56</ele>
        <time>2023-08-24T10:00:33Z</time>
      </trkpt>
      <trkpt lat="58.497449001297355" lon="-4.483713023364544">
        <ele>103</ele>
        <time>2023-08-24T10:00:34Z</time>
      </trkpt>
      <trkpt lat="58.497598031535745" lon="-4.483912009745836">
        <ele>103.95999999999999</ele>
        <time>2023-08-24T10:00:35Z</time>
      </trkpt>
      <trkpt lat="58.497770028188825" lon="-4.484037989750505">
        <ele>104.92</ele>
        <time>2023-08-24T10:00:36Z</time>
      </trkpt>
      <trkpt lat="58.497946970164776" lon="-4.484153995290399">
        <ele>105.88</ele>
        <time>2023-08-24T10:00:37Z</time>
      </trkpt>
      <trkpt lat="58.498133970424533" lon="-4.484223984181881">
        <ele>106.84</ele>
        <time>2023-08-24T10:00:38Z</time>
      </trkpt>
      <trkpt lat="58.498325999826193" lon="-4.484295984730125">
        <ele>107.81</ele>
        <time>2023-08-24T10:00:39Z</time>
      </trkpt>
      <trkpt lat="58.500019982457161" lon="-4.485269039869309">
        <ele>118.38</ele>
        <time>2023-08-24T10:00:48Z</time>
      </trkpt>
      <trkpt lat="58.501183977350593" lon="-4.486911976709962">
        <ele>124.15000000000001</ele>
        <time>2023-08-24T10:00:55Z</time>
      </trkpt>
      <trkpt lat="58.502140017226338" lon="-4.489454040303826">
        <ele>127.03</ele>
        <time>2023-08-24T10:01:03Z</time>
      </trkpt>
      <trkpt lat="58.503070995211601" lon="-4.491758979856968">
        <ele>128.47</ele>
        <time>2023-08-24T10:01:11Z</time>
      </trkpt>
      <trkpt lat="58.504096018150449" lon="-4.494501035660505">
        <ele>129.43000000000001</ele>
        <time>2023-08-24T10:01:20Z</time>
      </trkpt>
      <trkpt lat="58.504343032836914" lon="-4.497094983235002">
        <ele>130.88</ele>
        <time>2023-08-24T10:01:27Z</time>
      </trkpt>
      <trkpt lat="58.504298022016883" lon="-4.500532988458872">
        <ele>131.36000000000001</ele>
        <time>2023-08-24T10:01:37Z</time>
      </trkpt>
      <trkpt lat="58.504258040338755" lon="-4.503533961251378">
        <ele>134.72</ele>
        <time>2023-08-24T10:01:46Z</time>
      </trkpt>
      <trkpt lat="58.504174975678325" lon="-4.509826004505158">
        <ele>151.06</ele>
        <time>2023-08-24T10:02:03Z</time>
      </trkpt>
      <trkpt lat="58.503946987912059" lon="-4.514864031225443">
        <ele>164.52000000000001</ele>
        <time>2023-08-24T10:02:16Z</time>
      </trkpt>
      <trkpt lat="58.503311974927783" lon="-4.517790991812944">
        <ele>166.93000000000001</ele>
        <time>2023-08-24T10:02:24Z</time>
      </trkpt>
      <trkpt lat="58.502353001385927" lon="-4.521043002605438">
        <ele>171.72999999999999</ele>
        <time>2023-08-24T10:02:34Z</time>
      </trkpt>
      <trkpt lat="58.50199400447309" lon="-4.524004999548197">
        <ele>178.46000000000001</ele>
        <time>2023-08-24T10:02:42Z</time>
      </trkpt>
      <trkpt lat="58.501824019476771" lon="-4.529491038993001">
        <ele>187.11000000000001</ele>
        <time>2023-08-24T10:02:55Z</time>
      </trkpt>
      <trkpt lat="58.50205603055656" lon="-4.535101968795061">
        <ele>201.05000000000001</ele>
        <time>2023-08-24T10:03:08Z</time>
      </trkpt>
      <trkpt lat="58.502687020227313" lon="-4.538738038390875">
        <ele>211.15000000000001</ele>
        <time>2023-08-24T10:03:17Z</time>
      </trkpt>
      <trkpt lat="58.503827964887023" lon="-4.543236019089818">
        <ele>224.12</ele>
        <time>2023-08-24T10:03:29Z</time>
      </trkpt>
      <trkpt lat="58.504927000030875" lon="-4.547608019784093">
        <ele>225.09</ele>
        <time>2023-08-24T10:03:40Z</time>
      </trkpt>
      <trkpt lat="58.505826964974403" lon="-4.551699981093407">
        <ele>221.24000000000001</ele>
        <time>2023-08-24T10:03:50Z</time>
      </trkpt>
      <trkpt lat="58.505955962464213" lon="-4.554979987442493">
        <ele>219.31999999999999</ele>
        <time>2023-08-24T10:03:58Z</time>
      </trkpt>
      <trkpt lat="58.505579028278589" lon="-4.558143988251686">
        <ele>221.72</ele>
        <time>2023-08-24T10:04:06Z</time>
      </trkpt>
      <trkpt lat="58.504815017804503" lon="-4.561671009287238">
        <ele>222.68000000000001</ele>
        <time>2023-08-24T10:04:15Z</time>
      </trkpt>
      <trkpt lat="58.50470001809299" lon="-4.564209971576929">
        <ele>222.19999999999999</ele>
        <time>2023-08-24T10:04:21Z</time>
      </trkpt>
      <trkpt lat="58.504831027239561" lon="-4.567713020369411">
        <ele>216.91</ele>
        <time>2023-08-24T10:04:29Z</time>
      </trkpt>
      <trkpt lat="58.504431964829564" lon="-4.570265980437398">
        <ele>208.74000000000001</ele>
        <time>2023-08-24T10:04:35Z</time>
      </trkpt>
      <trkpt lat="58.503633001819253" lon="-4.572236984968185">
        <ele>202.00999999999999</ele>
        <time>2023-08-24T10:04:41Z</time>
      </trkpt>
      <trkpt lat="58.502335986122489" lon="-4.574573021382093">
        <ele>194.80000000000001</ele>
        <time>2023-08-24T10:04:49Z</time>
      </trkpt>
      <trkpt lat="58.501703990623355" lon="-4.577155988663435">
        <ele>188.56</ele>
        <time>2023-08-24T10:04:56Z</time>
      </trkpt>
      <trkpt lat="58.501575998961926" lon="-4.580046990886331">
        <ele>182.31</ele>
        <time>2023-08-24T10:05:03Z</time>
      </trkpt>
      <trkpt lat="58.501782026141882" lon="-4.584832973778248">
        <ele>180.38</ele>
        <time>2023-08-24T10:05:14Z</time>
      </trkpt>
      <trkpt lat="58.50197397172451" lon="-4.589559026062489">
        <ele>176.53999999999999</ele>
        <time>2023-08-24T10:05:25Z</time>
      </trkpt>
      <trkpt lat="58.502019988372922" lon="-4.591575041413307">
        <ele>176.06</ele>
        <time>2023-08-24T10:05:30Z</time>
      </trkpt>
      <trkpt lat="58.502047983929515" lon="-4.591942001134157">
        <ele>176.06</ele>
        <time>2023-08-24T10:05:31Z</time>
      </trkpt>
      <trkpt lat="58.502127025276423" lon="-4.592314995825291">
        <ele>175.58000000000001</ele>
        <time>2023-08-24T10:05:32Z</time>
      </trkpt>
      <trkpt lat="58.502201959490776" lon="-4.592671981081367">
        <ele>175.09999999999999</ele>
        <time>2023-08-24T10:05:33Z</time>
      </trkpt>
      <trkpt lat="58.502276977524161" lon="-4.593027038499713">
        <ele>174.13999999999999</ele>
        <time>2023-08-24T10:05:34Z</time>
      </trkpt>
      <trkpt lat="58.50237999111414" lon="-4.59334596991539">
        <ele>173.16999999999999</ele>
        <time>2023-08-24T10:05:35Z</time>
      </trkpt>
      <trkpt lat="58.502503037452698" lon="-4.593621985986829">
        <ele>172.21000000000001</ele>
        <time>2023-08-24T10:05:36Z</time>
      </trkpt>
      <trkpt lat="58.502633040770888" lon="-4.593901019543409">
        <ele>171.25</ele>
        <time>2023-08-24T10:05:37Z</time>
      </trkpt>
      <trkpt lat="58.502763966098428" lon="-4.594184998422861">
        <ele>170.28999999999999</ele>
        <time>2023-08-24T10:05:38Z</time>
      </trkpt>
      <trkpt lat="58.502923976629972" lon="-4.594414997845888">
        <ele>168.84999999999999</ele>
        <time>2023-08-24T10:05:39Z</time>
      </trkpt>
      <trkpt lat="58.503097984939814" lon="-4.594629993662238">
        <ele>167.88999999999999</ele>
        <time>2023-08-24T10:05:40Z</time>
      </trkpt>
      <trkpt lat="58.503277022391558" lon="-4.594853036105633">
        <ele>166.44999999999999</ele>
        <time>2023-08-24T10:05:41Z</time>
      </trkpt>
      <trkpt lat="58.505040993914008" lon="-4.596510976552963">
        <ele>154.91</ele>
        <time>2023-08-24T10:05:50Z</time>
      </trkpt>
      <trkpt lat="58.505837023258209" lon="-4.597484031692147">
        <ele>149.13999999999999</ele>
        <time>2023-08-24T10:05:55Z</time>
      </trkpt>
      <trkpt lat="58.50596996024251" lon="-4.597772033885121">
        <ele>148.18000000000001</ele>
        <time>2023-08-24T10:05:56Z</time>
      </trkpt>
      <trkpt lat="58.506093006581068" lon="-4.598067998886108">
        <ele>147.22</ele>
        <time>2023-08-24T10:05:57Z</time>
      </trkpt>
      <trkpt lat="58.506170036271214" lon="-4.5984379760921">
        <ele>146.74000000000001</ele>
        <time>2023-08-24T10:05:58Z</time>
      </trkpt>
      <trkpt lat="58.50624798797071" lon="-4.598809964954853">
        <ele>145.78</ele>
        <time>2023-08-24T10:05:59Z</time>
      </trkpt>
      <trkpt lat="58.506288975477219" lon="-4.599198969081044">
        <ele>144.81999999999999</ele>
        <time>2023-08-24T10:06:00Z</time>
      </trkpt>
      <trkpt lat="58.50631101988256" lon="-4.599617980420589">
        <ele>143.84999999999999</ele>
        <time>2023-08-24T10:06:01Z</time>
      </trkpt>
      <trkpt lat="58.50633398629725" lon="-4.600043026730418">
        <ele>142.41</ele>
        <time>2023-08-24T10:06:02Z</time>
      </trkpt>
      <trkpt lat="58.50616299547255" lon="-4.603367038071156">
        <ele>130.88</ele>
        <time>2023-08-24T10:06:10Z</time>
      </trkpt>
      <trkpt lat="58.505824031308293" lon="-4.607900977134705">
        <ele>114.05</ele>
        <time>2023-08-24T10:06:21Z</time>
      </trkpt>
      <trkpt lat="58.505552960559726" lon="-4.610279006883502">
        <ele>105.40000000000001</ele>
        <time>2023-08-24T10:06:29Z</time>
      </trkpt>
      <trkpt lat="58.504874026402831" lon="-4.612168958410621">
        <ele>98.189999999999998</ele>
        <time>2023-08-24T10:06:38Z</time>
      </trkpt>
      <trkpt lat="58.503884961828589" lon="-4.613501010462642">
        <ele>88.579999999999998</ele>
        <time>2023-08-24T10:06:47Z</time>
      </trkpt>
      <trkpt lat="58.503217007964849" lon="-4.614240964874625">
        <ele>81.370000000000005</ele>
        <time>2023-08-24T10:06:53Z</time>
      </trkpt>
      <trkpt lat="58.503139978274703" lon="-4.61437800899148">
        <ele>80.409999999999997</ele>
        <time>2023-08-24T10:06:54Z</time>
      </trkpt>
      <trkpt lat="58.503085998818278" lon="-4.614522010087967">
        <ele>79.450000000000003</ele>
        <time>2023-08-24T10:06:55Z</time>
      </trkpt>
      <trkpt lat="58.503052974119782" lon="-4.614690989255905">
        <ele>78.480000000000004</ele>
        <time>2023-08-24T10:06:56Z</time>
      </trkpt>
      <trkpt lat="58.503021039068699" lon="-4.614863991737366">
        <ele>77.519999999999996</ele>
        <time>2023-08-24T10:06:57Z</time>
      </trkpt>
      <trkpt lat="58.503019027411938" lon="-4.615038000047207">
        <ele>76.560000000000002</ele>
        <time>2023-08-24T10:06:58Z</time>
      </trkpt>
      <trkpt lat="58.50302598439157" lon="-4.615232041105628">
        <ele>75.599999999999994</ele>
        <time>2023-08-24T10:06:59Z</time>
      </trkpt>
      <trkpt lat="58.503034031018615" lon="-4.615422980859876">
        <ele>74.159999999999997</ele>
        <time>2023-08-24T10:07:00Z</time>
      </trkpt>
      <trkpt lat="58.503078036010265" lon="-4.615566981956363">
        <ele>73.200000000000003</ele>
        <time>2023-08-24T10:07:01Z</time>
      </trkpt>
      <trkpt lat="58.503136960789561" lon="-4.615738978609443">
        <ele>71.760000000000005</ele>
        <time>2023-08-24T10:07:02Z</time>
      </trkpt>
      <trkpt lat="58.503199992701411" lon="-4.61592698469758">
        <ele>70.310000000000002</ele>
        <time>2023-08-24T10:07:03Z</time>
      </trkpt>
      <trkpt lat="58.503266964107752" lon="-4.616123037412763">
        <ele>68.390000000000001</ele>
        <time>2023-08-24T10:07:04Z</time>
      </trkpt>
      <trkpt lat="58.503484977409244" lon="-4.616768024861813">
        <ele>63.579999999999998</ele>
        <time>2023-08-24T10:07:07Z</time>
      </trkpt>
      <trkpt lat="58.503539962694049" lon="-4.61700196377933">
        <ele>61.659999999999997</ele>
        <time>2023-08-24T10:07:08Z</time>
      </trkpt>
      <trkpt lat="58.503570975735784" lon="-4.617271022871137">
        <ele>60.219999999999999</ele>
        <time>2023-08-24T10:07:09Z</time>
      </trkpt>
      <trkpt lat="58.503570975735784" lon="-4.617530023679137">
        <ele>58.299999999999997</ele>
        <time>2023-08-24T10:07:10Z</time>
      </trkpt>
      <trkpt lat="58.503570975735784" lon="-4.617768991738558">
        <ele>56.859999999999999</ele>
        <time>2023-08-24T10:07:11Z</time>
      </trkpt>
      <trkpt lat="58.503542980179191" lon="-4.617960015311837">
        <ele>54.93</ele>
        <time>2023-08-24T10:07:12Z</time>
      </trkpt>
      <trkpt lat="58.503506015986204" lon="-4.618143998086453">
        <ele>53.009999999999998</ele>
        <time>2023-08-24T10:07:13Z</time>
      </trkpt>
      <trkpt lat="58.503472991287708" lon="-4.618309959769249">
        <ele>51.090000000000003</ele>
        <time>2023-08-24T10:07:14Z</time>
      </trkpt>
      <trkpt lat="58.503424962982535" lon="-4.618435017764568">
        <ele>49.649999999999999</ele>
        <time>2023-08-24T10:07:15Z</time>
      </trkpt>
      <trkpt lat="58.503366038203239" lon="-4.618552029132843">
        <ele>48.200000000000003</ele>
        <time>2023-08-24T10:07:16Z</time>
      </trkpt>
      <trkpt lat="58.503311974927783" lon="-4.618659988045692">
        <ele>46.759999999999998</ele>
        <time>2023-08-24T10:07:17Z</time>
      </trkpt>
      <trkpt lat="58.503228994086385" lon="-4.61880398914218">
        <ele>43.880000000000003</ele>
        <time>2023-08-24T10:07:19Z</time>
      </trkpt>
      <trkpt lat="58.503180965781212" lon="-4.61884799413383">
        <ele>37.630000000000003</ele>
        <time>2023-08-24T10:07:26Z</time>
      </trkpt>
      <trkpt lat="58.503164034336805" lon="-4.618864003568888">
        <ele>37.630000000000003</ele>
        <time>2023-08-24T10:07:49Z</time>
      </trkpt>
      <trkpt lat="58.503123968839645" lon="-4.618900967761874">
        <ele>32.340000000000003</ele>
        <time>2023-08-24T10:07:50Z</time>
      </trkpt>
      <trkpt lat="58.503084992989898" lon="-4.618936004117131">
        <ele>29.460000000000001</ele>
        <time>2023-08-24T10:07:51Z</time>
      </trkpt>
      <trkpt lat="58.503035958856344" lon="-4.618981014937162">
        <ele>27.050000000000001</ele>
        <time>2023-08-24T10:07:52Z</time>
      </trkpt>
      <trkpt lat="58.502992037683725" lon="-4.619020996615291">
        <ele>25.609999999999999</ele>
        <time>2023-08-24T10:07:53Z</time>
      </trkpt>
      <trkpt lat="58.502924982458353" lon="-4.619030971080065">
        <ele>24.649999999999999</ele>
        <time>2023-08-24T10:07:54Z</time>
      </trkpt>
      <trkpt lat="58.502771006897092" lon="-4.619053015485406">
        <ele>22.73</ele>
        <time>2023-08-24T10:07:56Z</time>
      </trkpt>
      <trkpt lat="58.502690037712455" lon="-4.619063995778561">
        <ele>21.289999999999999</ele>
        <time>2023-08-24T10:07:57Z</time>
      </trkpt>
      <trkpt lat="58.50261895917356" lon="-4.619074976071715">
        <ele>20.32</ele>
        <time>2023-08-24T10:07:58Z</time>
      </trkpt>
      <trkpt lat="58.502484010532498" lon="-4.619081011041999">
        <ele>18.879999999999999</ele>
        <time>2023-08-24T10:08:00Z</time>
      </trkpt>
      <trkpt lat="58.502356018871069" lon="-4.619068019092083">
        <ele>17.440000000000001</ele>
        <time>2023-08-24T10:08:02Z</time>
      </trkpt>
      <trkpt lat="58.502046978101134" lon="-4.619056032970548">
        <ele>17.440000000000001</ele>
        <time>2023-08-24T10:08:06Z</time>
      </trkpt>
      <trkpt lat="58.501956034451723" lon="-4.61908302269876">
        <ele>17.440000000000001</ele>
        <time>2023-08-24T10:08:07Z</time>
      </trkpt>
      <trkpt lat="58.501875987276435" lon="-4.619106994941831">
        <ele>17.440000000000001</ele>
        <time>2023-08-24T10:08:08Z</time>
      </trkpt>
      <trkpt lat="58.501818990334868" lon="-4.61919198743999">
        <ele>17.440000000000001</ele>
        <time>2023-08-24T10:08:09Z</time>
      </trkpt>
      <trkpt lat="58.501746989786625" lon="-4.619300030171871">
        <ele>17.440000000000001</ele>
        <time>2023-08-24T10:08:10Z</time>
      </trkpt>
      <trkpt lat="58.50171597674489" lon="-4.619428021833301">
        <ele>16.960000000000001</ele>
        <time>2023-08-24T10:08:11Z</time>
      </trkpt>
      <trkpt lat="58.50167297758162" lon="-4.619599012658">
        <ele>16.48</ele>
        <time>2023-08-24T10:08:12Z</time>
      </trkpt>
      <trkpt lat="58.50166903808713" lon="-4.619781989604235">
        <ele>15.52</ele>
        <time>2023-08-24T10:08:13Z</time>
      </trkpt>
      <trkpt lat="58.501679012551904" lon="-4.619972007349134">
        <ele>14.56</ele>
        <time>2023-08-24T10:08:14Z</time>
      </trkpt>
      <trkpt lat="58.501709019765258" lon="-4.620155990123749">
        <ele>13.6</ele>
        <time>2023-08-24T10:08:15Z</time>
      </trkpt>
      <trkpt lat="58.50177900865674" lon="-4.620299991220236">
        <ele>12.630000000000001</ele>
        <time>2023-08-24T10:08:16Z</time>
      </trkpt>
      <trkpt lat="58.501871963962913" lon="-4.620438041165471">
        <ele>11.19</ele>
        <time>2023-08-24T10:08:17Z</time>
      </trkpt>
      <trkpt lat="58.501969026401639" lon="-4.620581036433578">
        <ele>9.75</ele>
        <time>2023-08-24T10:08:18Z</time>
      </trkpt>
      <trkpt lat="58.502519968897104" lon="-4.621355021372438">
        <ele>1.1</ele>
        <time>2023-08-24T10:08:24Z</time>
      </trkpt>
      <trkpt lat="58.50261602550745" lon="-4.621441019698978">
        <ele>0.14</ele>
        <time>2023-08-24T10:08:25Z</time>
      </trkpt>
      <trkpt lat="58.502698000520468" lon="-4.62151100859046">
        <ele>-0.82</ele>
        <time>2023-08-24T10:08:26Z</time>
      </trkpt>
      <trkpt lat="58.502800008282065" lon="-4.62151100859046">
        <ele>-2.27</ele>
        <time>2023-08-24T10:08:27Z</time>
      </trkpt>
      <trkpt lat="58.502892041578889" lon="-4.621502961963415">
        <ele>-3.71</ele>
        <time>2023-08-24T10:08:28Z</time>
      </trkpt>
      <trkpt lat="58.502987008541822" lon="-4.621407995000482">
        <ele>-4.67</ele>
        <time>2023-08-24T10:08:29Z</time>
      </trkpt>
      <trkpt lat="58.503084992989898" lon="-4.621311016380787">
        <ele>-5.15</ele>
        <time>2023-08-24T10:08:30Z</time>
      </trkpt>
      <trkpt lat="58.503183983266354" lon="-4.62121102027595">
        <ele>-6.11</ele>
        <time>2023-08-24T10:08:31Z</time>
      </trkpt>
      <trkpt lat="58.503286996856332" lon="-4.621108006685972">
        <ele>-6.59</ele>
        <time>2023-08-24T10:08:32Z</time>
      </trkpt>
      <trkpt lat="58.503394033759832" lon="-4.621029971167445">
        <ele>-7.07</ele>
        <time>2023-08-24T10:08:33Z</time>
      </trkpt>
      <trkpt lat="58.503508027642965" lon="-4.621003987267613">
        <ele>-7.55</ele>
        <time>2023-08-24T10:08:34Z</time>
      </trkpt>
      <trkpt lat="58.503636019304395" lon="-4.620973980054259">
        <ele>-8.029999999999999</ele>
        <time>2023-08-24T10:08:35Z</time>
      </trkpt>
      <trkpt lat="58.503729980438948" lon="-4.621051009744406">
        <ele>-9</ele>
        <time>2023-08-24T10:08:36Z</time>
      </trkpt>
      <trkpt lat="58.503821007907391" lon="-4.62112502194941">
        <ele>-9.48</ele>
        <time>2023-08-24T10:08:37Z</time>
      </trkpt>
      <trkpt lat="58.503909017890692" lon="-4.621258964762092">
        <ele>-9.48</ele>
        <time>2023-08-24T10:08:38Z</time>
      </trkpt>
      <trkpt lat="58.503973977640271" lon="-4.621419981122017">
        <ele>-9.960000000000001</ele>
        <time>2023-08-24T10:08:39Z</time>
      </trkpt>
      <trkpt lat="58.504248987883329" lon="-4.62213302962482">
        <ele>-9.960000000000001</ele>
        <time>2023-08-24T10:08:43Z</time>
      </trkpt>
      <trkpt lat="58.504288969561458" lon="-4.622346013784409">
        <ele>-9.48</ele>
        <time>2023-08-24T10:08:44Z</time>
      </trkpt>
      <trkpt lat="58.504324005916715" lon="-4.622592022642493">
        <ele>-9</ele>
        <time>2023-08-24T10:08:45Z</time>
      </trkpt>
      <trkpt lat="58.504330962896347" lon="-4.622833002358675">
        <ele>-8.51</ele>
        <time>2023-08-24T10:08:46Z</time>
      </trkpt>
      <trkpt lat="58.504339009523392" lon="-4.623084040358663">
        <ele>-8.029999999999999</ele>
        <time>2023-08-24T10:08:47Z</time>
      </trkpt>
      <trkpt lat="58.504319982603192" lon="-4.623390985652804">
        <ele>-7.07</ele>
        <time>2023-08-24T10:08:48Z</time>
      </trkpt>
      <trkpt lat="58.504278995096684" lon="-4.62363900616765">
        <ele>-5.63</ele>
        <time>2023-08-24T10:08:49Z</time>
      </trkpt>
      <trkpt lat="58.504214035347104" lon="-4.623900018632412">
        <ele>-4.19</ele>
        <time>2023-08-24T10:08:50Z</time>
      </trkpt>
      <trkpt lat="58.504143040627241" lon="-4.624121971428394">
        <ele>-1.79</ele>
        <time>2023-08-24T10:08:51Z</time>
      </trkpt>
      <trkpt lat="58.504041032865644" lon="-4.624364040791988">
        <ele>0.14</ele>
        <time>2023-08-24T10:08:52Z</time>
      </trkpt>
      <trkpt lat="58.503927960991859" lon="-4.624523967504501">
        <ele>2.54</ele>
        <time>2023-08-24T10:08:53Z</time>
      </trkpt>
      <trkpt lat="58.503802986815572" lon="-4.62469001300633">
        <ele>4.46</ele>
        <time>2023-08-24T10:08:54Z</time>
      </trkpt>
      <trkpt lat="58.503671977669001" lon="-4.624822027981281">
        <ele>6.39</ele>
        <time>2023-08-24T10:08:55Z</time>
      </trkpt>
      <trkpt lat="58.503540968522429" lon="-4.624962005764246">
        <ele>7.83</ele>
        <time>2023-08-24T10:08:56Z</time>
      </trkpt>
      <trkpt lat="58.502455009147525" lon="-4.626354994252324">
        <ele>14.08</ele>
        <time>2023-08-24T10:09:04Z</time>
      </trkpt>
      <trkpt lat="58.500888012349606" lon="-4.628621963784099">
        <ele>21.289999999999999</ele>
        <time>2023-08-24T10:09:14Z</time>
      </trkpt>
      <trkpt lat="58.499314980581403" lon="-4.630992030724883">
        <ele>35.229999999999997</ele>
        <time>2023-08-24T10:09:25Z</time>
      </trkpt>
      <trkpt lat="58.499225964769721" lon="-4.63124399073422">
        <ele>36.670000000000002</ele>
        <time>2023-08-24T10:09:26Z</time>
      </trkpt>
      <trkpt lat="58.499129991978407" lon="-4.631573986262083">
        <ele>38.109999999999999</ele>
        <time>2023-08-24T10:09:27Z</time>
      </trkpt>
      <trkpt lat="58.49909596145153" lon="-4.631809014827013">
        <ele>39.549999999999997</ele>
        <time>2023-08-24T10:09:28Z</time>
      </trkpt>
      <trkpt lat="58.49909596145153" lon="-4.632134987041354">
        <ele>40.990000000000002</ele>
        <time>2023-08-24T10:09:29Z</time>
      </trkpt>
      <trkpt lat="58.499108031392097" lon="-4.632475040853024">
        <ele>42.439999999999998</ele>
        <time>2023-08-24T10:09:30Z</time>
      </trkpt>
      <trkpt lat="58.499142983928323" lon="-4.632739992812276">
        <ele>43.880000000000003</ele>
        <time>2023-08-24T10:09:31Z</time>
      </trkpt>
      <trkpt lat="58.499220013618469" lon="-4.633021960034967">
        <ele>44.840000000000003</ele>
        <time>2023-08-24T10:09:32Z</time>
      </trkpt>
      <trkpt lat="58.499322021380067" lon="-4.633264029398561">
        <ele>45.799999999999997</ele>
        <time>2023-08-24T10:09:33Z</time>
      </trkpt>
      <trkpt lat="58.499430986121297" lon="-4.633502997457981">
        <ele>46.280000000000001</ele>
        <time>2023-08-24T10:09:34Z</time>
      </trkpt>
      <trkpt lat="58.499581022188067" lon="-4.633669964969158">
        <ele>47.240000000000002</ele>
        <time>2023-08-24T10:09:35Z</time>
      </trkpt>
      <trkpt lat="58.499740026891232" lon="-4.633817989379168">
        <ele>47.719999999999999</ele>
        <time>2023-08-24T10:09:36Z</time>
      </trkpt>
      <trkpt lat="58.499912023544312" lon="-4.633915973827243">
        <ele>48.68</ele>
        <time>2023-08-24T10:09:37Z</time>
      </trkpt>
      <trkpt lat="58.500093994662166" lon="-4.634004989638925">
        <ele>49.649999999999999</ele>
        <time>2023-08-24T10:09:38Z</time>
      </trkpt>
      <trkpt lat="58.50027596578002" lon="-4.634094005450606">
        <ele>50.609999999999999</ele>
        <time>2023-08-24T10:09:39Z</time>
      </trkpt>
      <trkpt lat="58.500461960211396" lon="-4.634185032919049">
        <ele>51.57</ele>
        <time>2023-08-24T10:09:40Z</time>
      </trkpt>
      <trkpt lat="58.500648960471153" lon="-4.634275976568461">
        <ele>52.530000000000001</ele>
        <time>2023-08-24T10:09:41Z</time>
      </trkpt>
      <trkpt lat="58.500823974609375" lon="-4.634465994313359">
        <ele>53.969999999999999</ele>
        <time>2023-08-24T10:09:42Z</time>
      </trkpt>
      <trkpt lat="58.500994965434074" lon="-4.634654000401497">
        <ele>55.409999999999997</ele>
        <time>2023-08-24T10:09:43Z</time>
      </trkpt>
      <trkpt lat="58.501131003722548" lon="-4.634880982339382">
        <ele>56.859999999999999</ele>
        <time>2023-08-24T10:09:44Z</time>
      </trkpt>
      <trkpt lat="58.501236028969288" lon="-4.635161021724343">
        <ele>58.299999999999997</ele>
        <time>2023-08-24T10:09:45Z</time>
      </trkpt>
      <trkpt lat="58.501347005367279" lon="-4.63545698672533">
        <ele>59.259999999999998</ele>
        <time>2023-08-24T10:09:46Z</time>
      </trkpt>
      <trkpt lat="58.501447001472116" lon="-4.635782958939672">
        <ele>60.219999999999999</ele>
        <time>2023-08-24T10:09:47Z</time>
      </trkpt>
      <trkpt lat="58.5018640011549" lon="-4.637555982917547">
        <ele>63.100000000000001</ele>
        <time>2023-08-24T10:09:52Z</time>
      </trkpt>
      <trkpt lat="58.501899959519506" lon="-4.637940963730216">
        <ele>63.100000000000001</ele>
        <time>2023-08-24T10:09:53Z</time>
      </trkpt>
      <trkpt lat="58.501913035288453" lon="-4.638328962028027">
        <ele>62.619999999999997</ele>
        <time>2023-08-24T10:09:54Z</time>
      </trkpt>
      <trkpt lat="58.501900965347886" lon="-4.638746967539191">
        <ele>61.659999999999997</ele>
        <time>2023-08-24T10:09:55Z</time>
      </trkpt>
      <trkpt lat="58.501866012811661" lon="-4.639157010242343">
        <ele>61.18</ele>
        <time>2023-08-24T10:09:56Z</time>
      </trkpt>
      <trkpt lat="58.501818990334868" lon="-4.639579961076379">
        <ele>59.740000000000002</ele>
        <time>2023-08-24T10:09:57Z</time>
      </trkpt>
      <trkpt lat="58.501380030065775" lon="-4.643528005108237">
        <ele>47.240000000000002</ele>
        <time>2023-08-24T10:10:07Z</time>
      </trkpt>
      <trkpt lat="58.501367038115859" lon="-4.643878033384681">
        <ele>45.799999999999997</ele>
        <time>2023-08-24T10:10:08Z</time>
      </trkpt>
      <trkpt lat="58.501377012580633" lon="-4.644226972013712">
        <ele>44.840000000000003</ele>
        <time>2023-08-24T10:10:09Z</time>
      </trkpt>
      <trkpt lat="58.501420011743903" lon="-4.644573982805014">
        <ele>43.880000000000003</ele>
        <time>2023-08-24T10:10:10Z</time>
      </trkpt>
      <trkpt lat="58.501490000635386" lon="-4.644890986382961">
        <ele>42.920000000000002</ele>
        <time>2023-08-24T10:10:11Z</time>
      </trkpt>
      <trkpt lat="58.501593014225364" lon="-4.645174965262413">
        <ele>41.950000000000003</ele>
        <time>2023-08-24T10:10:12Z</time>
      </trkpt>
      <trkpt lat="58.501718994230032" lon="-4.645405970513821">
        <ele>40.990000000000002</ele>
        <time>2023-08-24T10:10:13Z</time>
      </trkpt>
      <trkpt lat="58.501857966184616" lon="-4.645620966330171">
        <ele>40.509999999999998</ele>
        <time>2023-08-24T10:10:14Z</time>
      </trkpt>
      <trkpt lat="58.502012025564909" lon="-4.645805032923818">
        <ele>40.030000000000001</ele>
        <time>2023-08-24T10:10:15Z</time>
      </trkpt>
      <trkpt lat="58.50218502804637" lon="-4.645972000434995">
        <ele>39.549999999999997</ele>
        <time>2023-08-24T10:10:16Z</time>
      </trkpt>
      <trkpt lat="58.503524959087372" lon="-4.647617032751441">
        <ele>40.509999999999998</ele>
        <time>2023-08-24T10:10:24Z</time>
      </trkpt>
      <trkpt lat="58.503645993769169" lon="-4.647860024124384">
        <ele>41.469999999999999</ele>
        <time>2023-08-24T10:10:25Z</time>
      </trkpt>
      <trkpt lat="58.503723023459315" lon="-4.648179039359093">
        <ele>42.439999999999998</ele>
        <time>2023-08-24T10:10:26Z</time>
      </trkpt>
      <trkpt lat="58.503785971552134" lon="-4.648461006581783">
        <ele>43.880000000000003</ele>
        <time>2023-08-24T10:10:27Z</time>
      </trkpt>
      <trkpt lat="58.503779014572501" lon="-4.64877700433135">
        <ele>44.840000000000003</ele>
        <time>2023-08-24T10:10:28Z</time>
      </trkpt>
      <trkpt lat="58.503772979602218" lon="-4.649083027616143">
        <ele>46.280000000000001</ele>
        <time>2023-08-24T10:10:29Z</time>
      </trkpt>
      <trkpt lat="58.503767028450966" lon="-4.649411011487246">
        <ele>47.719999999999999</ele>
        <time>2023-08-24T10:10:30Z</time>
      </trkpt>
      <trkpt lat="58.503745989874005" lon="-4.650417007505894">
        <ele>52.049999999999997</ele>
        <time>2023-08-24T10:10:33Z</time>
      </trkpt>
      <trkpt lat="58.503769962117076" lon="-4.650724036619067">
        <ele>53.009999999999998</ele>
        <time>2023-08-24T10:10:34Z</time>
      </trkpt>
      <trkpt lat="58.503832994028926" lon="-4.651046991348267">
        <ele>54.450000000000003</ele>
        <time>2023-08-24T10:10:35Z</time>
      </trkpt>
      <trkpt lat="58.504023011773825" lon="-4.652028009295464">
        <ele>58.780000000000001</ele>
        <time>2023-08-24T10:10:38Z</time>
      </trkpt>
      <trkpt lat="58.504052013158798" lon="-4.652329003438354">
        <ele>60.219999999999999</ele>
        <time>2023-08-24T10:10:39Z</time>
      </trkpt>
      <trkpt lat="58.504063999280334" lon="-4.652597978711128">
        <ele>62.140000000000001</ele>
        <time>2023-08-24T10:10:40Z</time>
      </trkpt>
      <trkpt lat="58.504042038694024" lon="-4.652882041409612">
        <ele>64.549999999999997</ele>
        <time>2023-08-24T10:10:41Z</time>
      </trkpt>
      <trkpt lat="58.504009013995528" lon="-4.653177000582218">
        <ele>66.469999999999999</ele>
        <time>2023-08-24T10:10:42Z</time>
      </trkpt>
      <trkpt lat="58.503945982083678" lon="-4.653466008603573">
        <ele>68.870000000000005</ele>
        <time>2023-08-24T10:10:43Z</time>
      </trkpt>
      <trkpt lat="58.503856966271996" lon="-4.653745964169502">
        <ele>71.269999999999996</ele>
        <time>2023-08-24T10:10:44Z</time>
      </trkpt>
      <trkpt lat="58.503751019015908" lon="-4.653991973027587">
        <ele>74.159999999999997</ele>
        <time>2023-08-24T10:10:45Z</time>
      </trkpt>
      <trkpt lat="58.503621015697718" lon="-4.654200011864305">
        <ele>77.519999999999996</ele>
        <time>2023-08-24T10:10:46Z</time>
      </trkpt>
      <trkpt lat="58.503472991287708" lon="-4.654403021559119">
        <ele>79.450000000000003</ele>
        <time>2023-08-24T10:10:47Z</time>
      </trkpt>
      <trkpt lat="58.503309963271022" lon="-4.65459899045527">
        <ele>81.370000000000005</ele>
        <time>2023-08-24T10:10:48Z</time>
      </trkpt>
      <trkpt lat="58.501462005078793" lon="-4.656418031081557">
        <ele>90.5</ele>
        <time>2023-08-24T10:10:59Z</time>
      </trkpt>
      <trkpt lat="58.500044038519263" lon="-4.657772965729237">
        <ele>77.040000000000006</ele>
        <time>2023-08-24T10:11:09Z</time>
      </trkpt>
      <trkpt lat="58.499636007472873" lon="-4.658065997064114">
        <ele>72.239999999999995</ele>
        <time>2023-08-24T10:11:12Z</time>
      </trkpt>
      <trkpt lat="58.499470967799425" lon="-4.658106984570622">
        <ele>70.310000000000002</ele>
        <time>2023-08-24T10:11:13Z</time>
      </trkpt>
      <trkpt lat="58.499297965317965" lon="-4.658149983733892">
        <ele>68.390000000000001</ele>
        <time>2023-08-24T10:11:14Z</time>
      </trkpt>
      <trkpt lat="58.499113982543349" lon="-4.658162975683808">
        <ele>65.989999999999995</ele>
        <time>2023-08-24T10:11:15Z</time>
      </trkpt>
      <trkpt lat="58.498924970626831" lon="-4.658101033419371">
        <ele>64.069999999999993</ele>
        <time>2023-08-24T10:11:16Z</time>
      </trkpt>
      <trkpt lat="58.498730007559061" lon="-4.65803699567914">
        <ele>62.140000000000001</ele>
        <time>2023-08-24T10:11:17Z</time>
      </trkpt>
      <trkpt lat="58.497938001528382" lon="-4.657838009297848">
        <ele>53.969999999999999</ele>
        <time>2023-08-24T10:11:21Z</time>
      </trkpt>
      <trkpt lat="58.497735997661948" lon="-4.657849995419383">
        <ele>51.57</ele>
        <time>2023-08-24T10:11:22Z</time>
      </trkpt>
      <trkpt lat="58.497538017109036" lon="-4.657958038151264">
        <ele>49.649999999999999</ele>
        <time>2023-08-24T10:11:23Z</time>
      </trkpt>
      <trkpt lat="58.497338024899364" lon="-4.658068008720875">
        <ele>47.719999999999999</ele>
        <time>2023-08-24T10:11:24Z</time>
      </trkpt>
      <trkpt lat="58.497148007154465" lon="-4.658236987888813">
        <ele>45.32</ele>
        <time>2023-08-24T10:11:25Z</time>
      </trkpt>
      <trkpt lat="58.496967041864991" lon="-4.65840102173388">
        <ele>43.399999999999999</ele>
        <time>2023-08-24T10:11:26Z</time>
      </trkpt>
      <trkpt lat="58.496123990043998" lon="-4.659168971702457">
        <ele>34.259999999999998</ele>
        <time>2023-08-24T10:11:32Z</time>
      </trkpt>
      <trkpt lat="58.495329972356558" lon="-4.659904986619949">
        <ele>26.57</ele>
        <time>2023-08-24T10:11:40Z</time>
      </trkpt>
      <trkpt lat="58.494304027408361" lon="-4.660564977675676">
        <ele>21.289999999999999</ele>
        <time>2023-08-24T10:11:47Z</time>
      </trkpt>
      <trkpt lat="58.492015013471246" lon="-4.661784963682294">
        <ele>17.920000000000002</ele>
        <time>2023-08-24T10:12:02Z</time>
      </trkpt>
      <trkpt lat="58.490713974460959" lon="-4.662223001942039">
        <ele>17.920000000000002</ele>
        <time>2023-08-24T10:12:10Z</time>
      </trkpt>
      <trkpt lat="58.490554969757795" lon="-4.662234988063574">
        <ele>17.920000000000002</ele>
        <time>2023-08-24T10:12:11Z</time>
      </trkpt>
      <trkpt lat="58.489074977114797" lon="-4.661717992275953">
        <ele>15.039999999999999</ele>
        <time>2023-08-24T10:12:19Z</time>
      </trkpt>
      <trkpt lat="58.487571012228727" lon="-4.661151962354779">
        <ele>9.75</ele>
        <time>2023-08-24T10:12:27Z</time>
      </trkpt>
      <trkpt lat="58.487398009747267" lon="-4.661134025081992">
        <ele>9.27</ele>
        <time>2023-08-24T10:12:28Z</time>
      </trkpt>
      <trkpt lat="58.487228024750948" lon="-4.661117009818554">
        <ele>8.789999999999999</ele>
        <time>2023-08-24T10:12:29Z</time>
      </trkpt>
      <trkpt lat="58.486555963754654" lon="-4.661007961258292">
        <ele>10.23</ele>
        <time>2023-08-24T10:12:33Z</time>
      </trkpt>
      <trkpt lat="58.486401988193393" lon="-4.660920035094023">
        <ele>10.710000000000001</ele>
        <time>2023-08-24T10:12:34Z</time>
      </trkpt>
      <trkpt lat="58.485831012949347" lon="-4.660590961575508">
        <ele>11.19</ele>
        <time>2023-08-24T10:12:38Z</time>
      </trkpt>
      <trkpt lat="58.485701009631157" lon="-4.660591967403889">
        <ele>11.19</ele>
        <time>2023-08-24T10:12:39Z</time>
      </trkpt>
      <trkpt lat="58.48542901687324" lon="-4.660687018185854">
        <ele>11.67</ele>
        <time>2023-08-24T10:12:41Z</time>
      </trkpt>
      <trkpt lat="58.484071986749768" lon="-4.661634005606175">
        <ele>14.08</ele>
        <time>2023-08-24T10:12:50Z</time>
      </trkpt>
      <trkpt lat="58.482532985508442" lon="-4.663316002115607">
        <ele>17.440000000000001</ele>
        <time>2023-08-24T10:13:01Z</time>
      </trkpt>
      <trkpt lat="58.482170971110463" lon="-4.66385998763144">
        <ele>17.440000000000001</ele>
        <time>2023-08-24T10:13:04Z</time>
      </trkpt>
      <trkpt lat="58.482085978612304" lon="-4.664067020639777">
        <ele>17.440000000000001</ele>
        <time>2023-08-24T10:13:05Z</time>
      </trkpt>
      <trkpt lat="58.481934014707804" lon="-4.664436997845769">
        <ele>17.440000000000001</ele>
        <time>2023-08-24T10:13:07Z</time>
      </trkpt>
      <trkpt lat="58.481838963925838" lon="-4.664534982293844">
        <ele>17.440000000000001</ele>
        <time>2023-08-24T10:13:08Z</time>
      </trkpt>
      <trkpt lat="58.481736034154892" lon="-4.664618968963623">
        <ele>17.440000000000001</ele>
        <time>2023-08-24T10:13:09Z</time>
      </trkpt>
      <trkpt lat="58.481620028614998" lon="-4.664713013917208">
        <ele>17.440000000000001</ele>
        <time>2023-08-24T10:13:10Z</time>
      </trkpt>
      <trkpt lat="58.481502011418343" lon="-4.664809992536902">
        <ele>17.920000000000002</ele>
        <time>2023-08-24T10:13:11Z</time>
      </trkpt>
      <trkpt lat="58.48138902336359" lon="-4.664902025833726">
        <ele>18.399999999999999</ele>
        <time>2023-08-24T10:13:12Z</time>
      </trkpt>
      <trkpt lat="58.481292966753244" lon="-4.665008978918195">
        <ele>18.879999999999999</ele>
        <time>2023-08-24T10:13:13Z</time>
      </trkpt>
      <trkpt lat="58.481206968426704" lon="-4.665132025256753">
        <ele>19.359999999999999</ele>
        <time>2023-08-24T10:13:14Z</time>
      </trkpt>
      <trkpt lat="58.48115399479866" lon="-4.665327994152904">
        <ele>19.359999999999999</ele>
        <time>2023-08-24T10:13:15Z</time>
      </trkpt>
      <trkpt lat="58.481129016727209" lon="-4.665557993575931">
        <ele>20.32</ele>
        <time>2023-08-24T10:13:16Z</time>
      </trkpt>
      <trkpt lat="58.481136979535222" lon="-4.665818000212312">
        <ele>20.809999999999999</ele>
        <time>2023-08-24T10:13:17Z</time>
      </trkpt>
      <trkpt lat="58.481145026162267" lon="-4.666092004626989">
        <ele>20.809999999999999</ele>
        <time>2023-08-24T10:13:18Z</time>
      </trkpt>
      <trkpt lat="58.481171010062099" lon="-4.666353017091751">
        <ele>21.289999999999999</ele>
        <time>2023-08-24T10:13:19Z</time>
      </trkpt>
      <trkpt lat="58.481205040588975" lon="-4.666595002636313">
        <ele>21.77</ele>
        <time>2023-08-24T10:13:20Z</time>
      </trkpt>
      <trkpt lat="58.481301013380289" lon="-4.66727502644062">
        <ele>23.210000000000001</ele>
        <time>2023-08-24T10:13:25Z</time>
      </trkpt>
      <trkpt lat="58.481463035568595" lon="-4.668431980535388">
        <ele>24.170000000000002</ele>
        <time>2023-08-24T10:13:31Z</time>
      </trkpt>
      <trkpt lat="58.481527995318174" lon="-4.668660974130034">
        <ele>24.649999999999999</ele>
        <time>2023-08-24T10:13:32Z</time>
      </trkpt>
      <trkpt lat="58.481602007523179" lon="-4.668890973553062">
        <ele>24.649999999999999</ele>
        <time>2023-08-24T10:13:33Z</time>
      </trkpt>
      <trkpt lat="58.481683982536197" lon="-4.669147040694952">
        <ele>25.129999999999999</ele>
        <time>2023-08-24T10:13:34Z</time>
      </trkpt>
      <trkpt lat="58.481785990297794" lon="-4.669347032904625">
        <ele>25.129999999999999</ele>
        <time>2023-08-24T10:13:35Z</time>
      </trkpt>
      <trkpt lat="58.481899984180927" lon="-4.669568985700607">
        <ele>25.129999999999999</ele>
        <time>2023-08-24T10:13:36Z</time>
      </trkpt>
      <trkpt lat="58.482203995808959" lon="-4.670165022835136">
        <ele>27.050000000000001</ele>
        <time>2023-08-24T10:13:39Z</time>
      </trkpt>
      <trkpt lat="58.48227197304368" lon="-4.670396028086543">
        <ele>27.530000000000001</ele>
        <time>2023-08-24T10:13:40Z</time>
      </trkpt>
      <trkpt lat="58.482324024662375" lon="-4.670665003359318">
        <ele>28.5</ele>
        <time>2023-08-24T10:13:41Z</time>
      </trkpt>
      <trkpt lat="58.48263499327004" lon="-4.672286985442042">
        <ele>35.710000000000001</ele>
        <time>2023-08-24T10:13:47Z</time>
      </trkpt>
      <trkpt lat="58.482649996876717" lon="-4.672539029270411">
        <ele>37.149999999999999</ele>
        <time>2023-08-24T10:13:48Z</time>
      </trkpt>
      <trkpt lat="58.482649996876717" lon="-4.672779003158212">
        <ele>38.590000000000003</ele>
        <time>2023-08-24T10:13:49Z</time>
      </trkpt>
      <trkpt lat="58.482610015198588" lon="-4.673024006187916">
        <ele>40.030000000000001</ele>
        <time>2023-08-24T10:13:50Z</time>
      </trkpt>
      <trkpt lat="58.482554024085402" lon="-4.673259034752846">
        <ele>41.950000000000003</ele>
        <time>2023-08-24T10:13:51Z</time>
      </trkpt>
      <trkpt lat="58.482488980516791" lon="-4.673502026125789">
        <ele>43.880000000000003</ele>
        <time>2023-08-24T10:13:52Z</time>
      </trkpt>
      <trkpt lat="58.482415974140167" lon="-4.673746023327112">
        <ele>45.799999999999997</ele>
        <time>2023-08-24T10:13:53Z</time>
      </trkpt>
      <trkpt lat="58.482318995520473" lon="-4.673971999436617">
        <ele>47.240000000000002</ele>
        <time>2023-08-24T10:13:54Z</time>
      </trkpt>
      <trkpt lat="58.482210030779243" lon="-4.674189006909728">
        <ele>49.159999999999997</ele>
        <time>2023-08-24T10:13:55Z</time>
      </trkpt>
      <trkpt lat="58.482082039117813" lon="-4.67436796054244">
        <ele>50.609999999999999</ele>
        <time>2023-08-24T10:13:56Z</time>
      </trkpt>
      <trkpt lat="58.481951029971242" lon="-4.674523025751114">
        <ele>52.530000000000001</ele>
        <time>2023-08-24T10:13:57Z</time>
      </trkpt>
      <trkpt lat="58.481815997511148" lon="-4.674677001312375">
        <ele>53.490000000000002</ele>
        <time>2023-08-24T10:13:58Z</time>
      </trkpt>
      <trkpt lat="58.481663027778268" lon="-4.674799963831902">
        <ele>54.93</ele>
        <time>2023-08-24T10:13:59Z</time>
      </trkpt>
      <trkpt lat="58.480042973533273" lon="-4.675946021452546">
        <ele>57.340000000000003</ele>
        <time>2023-08-24T10:14:09Z</time>
      </trkpt>
      <trkpt lat="58.479729993268847" lon="-4.676072001457214">
        <ele>57.340000000000003</ele>
        <time>2023-08-24T10:14:11Z</time>
      </trkpt>
      <trkpt lat="58.479569982737303" lon="-4.676094967871904">
        <ele>57.340000000000003</ele>
        <time>2023-08-24T10:14:12Z</time>
      </trkpt>
      <trkpt lat="58.478735983371735" lon="-4.676004024222493">
        <ele>56.859999999999999</ele>
        <time>2023-08-24T10:14:17Z</time>
      </trkpt>
      <trkpt lat="58.478574967011809" lon="-4.676045011729002">
        <ele>56.859999999999999</ele>
        <time>2023-08-24T10:14:18Z</time>
      </trkpt>
      <trkpt lat="58.478417973965406" lon="-4.676095973700285">
        <ele>56.859999999999999</ele>
        <time>2023-08-24T10:14:19Z</time>
      </trkpt>
      <trkpt lat="58.478268021717668" lon="-4.676200998947024">
        <ele>57.340000000000003</ele>
        <time>2023-08-24T10:14:20Z</time>
      </trkpt>
      <trkpt lat="58.478121003136039" lon="-4.676352962851524">
        <ele>57.340000000000003</ele>
        <time>2023-08-24T10:14:21Z</time>
      </trkpt>
      <trkpt lat="58.477975996211171" lon="-4.676521020010114">
        <ele>57.340000000000003</ele>
        <time>2023-08-24T10:14:22Z</time>
      </trkpt>
      <trkpt lat="58.477049041539431" lon="-4.677658025175333">
        <ele>54.450000000000003</ele>
        <time>2023-08-24T10:14:29Z</time>
      </trkpt>
      <trkpt lat="58.476944016292691" lon="-4.677861034870148">
        <ele>54.450000000000003</ele>
        <time>2023-08-24T10:14:30Z</time>
      </trkpt>
      <trkpt lat="58.476847959682345" lon="-4.678077036514878">
        <ele>53.969999999999999</ele>
        <time>2023-08-24T10:14:31Z</time>
      </trkpt>
      <trkpt lat="58.476764978840947" lon="-4.678326984867454">
        <ele>53.969999999999999</ele>
        <time>2023-08-24T10:14:32Z</time>
      </trkpt>
      <trkpt lat="58.476678980514407" lon="-4.678582968190312">
        <ele>53.969999999999999</ele>
        <time>2023-08-24T10:14:33Z</time>
      </trkpt>
      <trkpt lat="58.475914970040321" lon="-4.680152982473373">
        <ele>54.450000000000003</ele>
        <time>2023-08-24T10:14:40Z</time>
      </trkpt>
      <trkpt lat="58.475346006453037" lon="-4.680765029042959">
        <ele>55.409999999999997</ele>
        <time>2023-08-24T10:14:44Z</time>
      </trkpt>
      <trkpt lat="58.475205022841692" lon="-4.680837029591203">
        <ele>55.409999999999997</ele>
        <time>2023-08-24T10:14:45Z</time>
      </trkpt>
      <trkpt lat="58.475056998431683" lon="-4.680880028754473">
        <ele>55.409999999999997</ele>
        <time>2023-08-24T10:14:46Z</time>
      </trkpt>
      <trkpt lat="58.47490101121366" lon="-4.680847004055977">
        <ele>54.93</ele>
        <time>2023-08-24T10:14:47Z</time>
      </trkpt>
      <trkpt lat="58.474737983196974" lon="-4.68081196770072">
        <ele>53.969999999999999</ele>
        <time>2023-08-24T10:14:48Z</time>
      </trkpt>
      <trkpt lat="58.474253006279469" lon="-4.680782966315746">
        <ele>51.57</ele>
        <time>2023-08-24T10:14:51Z</time>
      </trkpt>
      <trkpt lat="58.474096013233066" lon="-4.68083300627768">
        <ele>51.090000000000003</ele>
        <time>2023-08-24T10:14:52Z</time>
      </trkpt>
      <trkpt lat="58.473948994651437" lon="-4.680980024859309">
        <ele>51.090000000000003</ele>
        <time>2023-08-24T10:14:53Z</time>
      </trkpt>
      <trkpt lat="58.473795019090176" lon="-4.681135006248951">
        <ele>51.090000000000003</ele>
        <time>2023-08-24T10:14:54Z</time>
      </trkpt>
      <trkpt lat="58.473639031872153" lon="-4.681289987638593">
        <ele>51.090000000000003</ele>
        <time>2023-08-24T10:14:55Z</time>
      </trkpt>
      <trkpt lat="58.473057998344302" lon="-4.681836990639567">
        <ele>52.049999999999997</ele>
        <time>2023-08-24T10:15:00Z</time>
      </trkpt>
      <trkpt lat="58.472888013347983" lon="-4.681916031986475">
        <ele>52.049999999999997</ele>
        <time>2023-08-24T10:15:02Z</time>
      </trkpt>
      <trkpt lat="58.472777036949992" lon="-4.681946039199829">
        <ele>51.57</ele>
        <time>2023-08-24T10:15:03Z</time>
      </trkpt>
      <trkpt lat="58.472653990611434" lon="-4.681888036429882">
        <ele>51.57</ele>
        <time>2023-08-24T10:15:04Z</time>
      </trkpt>
      <trkpt lat="58.472519963979721" lon="-4.681825004518032">
        <ele>51.57</ele>
        <time>2023-08-24T10:15:05Z</time>
      </trkpt>
      <trkpt lat="58.472375040873885" lon="-4.681757027283311">
        <ele>51.57</ele>
        <time>2023-08-24T10:15:06Z</time>
      </trkpt>
      <trkpt lat="58.471830971539021" lon="-4.681501965969801">
        <ele>51.57</ele>
        <time>2023-08-24T10:15:10Z</time>
      </trkpt>
      <trkpt lat="58.471715971827507" lon="-4.681460978463292">
        <ele>51.57</ele>
        <time>2023-08-24T10:15:11Z</time>
      </trkpt>
      <trkpt lat="58.471593009307981" lon="-4.681451003998518">
        <ele>51.57</ele>
        <time>2023-08-24T10:15:12Z</time>
      </trkpt>
      <trkpt lat="58.47146300598979" lon="-4.681443963199854">
        <ele>51.57</ele>
        <time>2023-08-24T10:15:13Z</time>
      </trkpt>
      <trkpt lat="58.471328979358077" lon="-4.681491991505027">
        <ele>52.049999999999997</ele>
        <time>2023-08-24T10:15:14Z</time>
      </trkpt>
      <trkpt lat="58.471192019060254" lon="-4.68154102563858">
        <ele>52.049999999999997</ele>
        <time>2023-08-24T10:15:15Z</time>
      </trkpt>
      <trkpt lat="58.471058998256922" lon="-4.68166901730001">
        <ele>52.530000000000001</ele>
        <time>2023-08-24T10:15:16Z</time>
      </trkpt>
      <trkpt lat="58.470923965796828" lon="-4.681814024224877">
        <ele>52.530000000000001</ele>
        <time>2023-08-24T10:15:17Z</time>
      </trkpt>
      <trkpt lat="58.470799997448921" lon="-4.682012004777789">
        <ele>52.049999999999997</ele>
        <time>2023-08-24T10:15:18Z</time>
      </trkpt>
      <trkpt lat="58.470686003565788" lon="-4.682214008644223">
        <ele>52.530000000000001</ele>
        <time>2023-08-24T10:15:19Z</time>
      </trkpt>
      <trkpt lat="58.470576032996178" lon="-4.682409977540374">
        <ele>52.530000000000001</ele>
        <time>2023-08-24T10:15:20Z</time>
      </trkpt>
      <trkpt lat="58.469524020329118" lon="-4.683787040412426">
        <ele>51.57</ele>
        <time>2023-08-24T10:15:28Z</time>
      </trkpt>
      <trkpt lat="58.468452980741858" lon="-4.685332998633385">
        <ele>50.130000000000003</ele>
        <time>2023-08-24T10:15:36Z</time>
      </trkpt>
      <trkpt lat="58.467865996062756" lon="-4.686569999903441">
        <ele>52.530000000000001</ele>
        <time>2023-08-24T10:15:41Z</time>
      </trkpt>
      <trkpt lat="58.466935018077493" lon="-4.689093958586454">
        <ele>58.780000000000001</ele>
        <time>2023-08-24T10:15:50Z</time>
      </trkpt>
      <trkpt lat="58.466626983135939" lon="-4.690286032855511">
        <ele>60.700000000000003</ele>
        <time>2023-08-24T10:15:54Z</time>
      </trkpt>
      <trkpt lat="58.46658700145781" lon="-4.690615022554994">
        <ele>61.659999999999997</ele>
        <time>2023-08-24T10:15:55Z</time>
      </trkpt>
      <trkpt lat="58.466582978144288" lon="-4.690965972840786">
        <ele>63.100000000000001</ele>
        <time>2023-08-24T10:15:56Z</time>
      </trkpt>
      <trkpt lat="58.466618014499545" lon="-4.693137975409627">
        <ele>73.680000000000007</ele>
        <time>2023-08-24T10:16:03Z</time>
      </trkpt>
      <trkpt lat="58.466541990637779" lon="-4.694035006687045">
        <ele>76.079999999999998</ele>
        <time>2023-08-24T10:16:07Z</time>
      </trkpt>
      <trkpt lat="58.46650100313127" lon="-4.694213960319758">
        <ele>76.079999999999998</ele>
        <time>2023-08-24T10:16:08Z</time>
      </trkpt>
      <trkpt lat="58.466460015624762" lon="-4.694386040791869">
        <ele>75.599999999999994</ele>
        <time>2023-08-24T10:16:09Z</time>
      </trkpt>
      <trkpt lat="58.465956011787057" lon="-4.696109024807811">
        <ele>69.829999999999998</ele>
        <time>2023-08-24T10:16:20Z</time>
      </trkpt>
      <trkpt lat="58.465751996263862" lon="-4.696571035310626">
        <ele>66.950000000000003</ele>
        <time>2023-08-24T10:16:25Z</time>
      </trkpt>
      <trkpt lat="58.465691981837153" lon="-4.696668013930321">
        <ele>66.469999999999999</ele>
        <time>2023-08-24T10:16:26Z</time>
      </trkpt>
      <trkpt lat="58.465622998774052" lon="-4.696770021691918">
        <ele>65.510000000000005</ele>
        <time>2023-08-24T10:16:27Z</time>
      </trkpt>
      <trkpt lat="58.465537000447512" lon="-4.696827018633485">
        <ele>64.549999999999997</ele>
        <time>2023-08-24T10:16:28Z</time>
      </trkpt>
      <trkpt lat="58.465444967150688" lon="-4.696888960897923">
        <ele>63.579999999999998</ele>
        <time>2023-08-24T10:16:29Z</time>
      </trkpt>
      <trkpt lat="58.4653390198946" lon="-4.69690203666687">
        <ele>62.619999999999997</ele>
        <time>2023-08-24T10:16:30Z</time>
      </trkpt>
      <trkpt lat="58.465222008526325" lon="-4.696915028616786">
        <ele>61.659999999999997</ele>
        <time>2023-08-24T10:16:31Z</time>
      </trkpt>
      <trkpt lat="58.465097034350038" lon="-4.696928020566702">
        <ele>60.700000000000003</ele>
        <time>2023-08-24T10:16:32Z</time>
      </trkpt>
      <trkpt lat="58.463970003649592" lon="-4.697049977257848">
        <ele>50.130000000000003</ele>
        <time>2023-08-24T10:16:39Z</time>
      </trkpt>
      <trkpt lat="58.463820973411202" lon="-4.697077972814441">
        <ele>48.200000000000003</ele>
        <time>2023-08-24T10:16:40Z</time>
      </trkpt>
      <trkpt lat="58.463688036426902" lon="-4.697137987241149">
        <ele>46.759999999999998</ele>
        <time>2023-08-24T10:16:41Z</time>
      </trkpt>
      <trkpt lat="58.463565995916724" lon="-4.697233038023114">
        <ele>45.32</ele>
        <time>2023-08-24T10:16:42Z</time>
      </trkpt>
      <trkpt lat="58.463450996205211" lon="-4.697373015806079">
        <ele>43.880000000000003</ele>
        <time>2023-08-24T10:16:43Z</time>
      </trkpt>
      <trkpt lat="58.463364997878671" lon="-4.697578037157655">
        <ele>42.920000000000002</ele>
        <time>2023-08-24T10:16:44Z</time>
      </trkpt>
      <trkpt lat="58.463286962360144" lon="-4.69780401326716">
        <ele>41.950000000000003</ele>
        <time>2023-08-24T10:16:45Z</time>
      </trkpt>
      <trkpt lat="58.463204987347126" lon="-4.698045998811722">
        <ele>40.990000000000002</ele>
        <time>2023-08-24T10:16:46Z</time>
      </trkpt>
      <trkpt lat="58.463136004284024" lon="-4.698317991569638">
        <ele>40.030000000000001</ele>
        <time>2023-08-24T10:16:47Z</time>
      </trkpt>
      <trkpt lat="58.4630820248276" lon="-4.698596019297838">
        <ele>39.549999999999997</ele>
        <time>2023-08-24T10:16:48Z</time>
      </trkpt>
      <trkpt lat="58.463013963773847" lon="-4.699109997600317">
        <ele>38.590000000000003</ele>
        <time>2023-08-24T10:16:50Z</time>
      </trkpt>
      <trkpt lat="58.463000971823931" lon="-4.699367992579937">
        <ele>38.590000000000003</ele>
        <time>2023-08-24T10:16:51Z</time>
      </trkpt>
      <trkpt lat="58.46301999874413" lon="-4.699626993387938">
        <ele>38.590000000000003</ele>
        <time>2023-08-24T10:16:52Z</time>
      </trkpt>
      <trkpt lat="58.463075989857316" lon="-4.700403995811939">
        <ele>39.549999999999997</ele>
        <time>2023-08-24T10:16:55Z</time>
      </trkpt>
      <trkpt lat="58.463049000129104" lon="-4.700658973306418">
        <ele>40.030000000000001</ele>
        <time>2023-08-24T10:16:56Z</time>
      </trkpt>
      <trkpt lat="58.463003989309072" lon="-4.700917974114418">
        <ele>40.509999999999998</ele>
        <time>2023-08-24T10:16:57Z</time>
      </trkpt>
      <trkpt lat="58.462955038994551" lon="-4.701163982972503">
        <ele>40.509999999999998</ele>
        <time>2023-08-24T10:16:58Z</time>
      </trkpt>
      <trkpt lat="58.462896030396223" lon="-4.701387025415897">
        <ele>40.990000000000002</ele>
        <time>2023-08-24T10:16:59Z</time>
      </trkpt>
      <trkpt lat="58.462840961292386" lon="-4.701594980433583">
        <ele>41.469999999999999</ele>
        <time>2023-08-24T10:17:00Z</time>
      </trkpt>
      <trkpt lat="58.462770972400904" lon="-4.701792038977146">
        <ele>41.469999999999999</ele>
        <time>2023-08-24T10:17:01Z</time>
      </trkpt>
      <trkpt lat="58.462670976296067" lon="-4.701961018145084">
        <ele>41.469999999999999</ele>
        <time>2023-08-24T10:17:02Z</time>
      </trkpt>
      <trkpt lat="58.46216001547873" lon="-4.702696027234197">
        <ele>40.509999999999998</ele>
        <time>2023-08-24T10:17:07Z</time>
      </trkpt>
      <trkpt lat="58.462035963311791" lon="-4.702770039439201">
        <ele>40.030000000000001</ele>
        <time>2023-08-24T10:17:08Z</time>
      </trkpt>
      <trkpt lat="58.461905959993601" lon="-4.702825024724007">
        <ele>40.030000000000001</ele>
        <time>2023-08-24T10:17:09Z</time>
      </trkpt>
      <trkpt lat="58.461503041908145" lon="-4.703043960034847">
        <ele>39.07</ele>
        <time>2023-08-24T10:17:12Z</time>
      </trkpt>
      <trkpt lat="58.461384018883109" lon="-4.703171029686928">
        <ele>39.07</ele>
        <time>2023-08-24T10:17:13Z</time>
      </trkpt>
      <trkpt lat="58.461261978372931" lon="-4.703300027176738">
        <ele>38.590000000000003</ele>
        <time>2023-08-24T10:17:14Z</time>
      </trkpt>
      <trkpt lat="58.461176985874772" lon="-4.703516028821468">
        <ele>38.590000000000003</ele>
        <time>2023-08-24T10:17:15Z</time>
      </trkpt>
      <trkpt lat="58.461101967841387" lon="-4.703752985224128">
        <ele>38.590000000000003</ele>
        <time>2023-08-24T10:17:16Z</time>
      </trkpt>
      <trkpt lat="58.461028039455414" lon="-4.703989019617438">
        <ele>38.109999999999999</ele>
        <time>2023-08-24T10:17:17Z</time>
      </trkpt>
      <trkpt lat="58.460820000618696" lon="-4.704654039815068">
        <ele>39.07</ele>
        <time>2023-08-24T10:17:20Z</time>
      </trkpt>
      <trkpt lat="58.460736013948917" lon="-4.704830981791019">
        <ele>39.07</ele>
        <time>2023-08-24T10:17:21Z</time>
      </trkpt>
      <trkpt lat="58.46063400618732" lon="-4.704970037564635">
        <ele>39.549999999999997</ele>
        <time>2023-08-24T10:17:22Z</time>
      </trkpt>
      <trkpt lat="58.460524035617709" lon="-4.705117978155613">
        <ele>39.549999999999997</ele>
        <time>2023-08-24T10:17:23Z</time>
      </trkpt>
      <trkpt lat="58.460409035906196" lon="-4.705273965373635">
        <ele>40.030000000000001</ele>
        <time>2023-08-24T10:17:24Z</time>
      </trkpt>
      <trkpt lat="58.459943002089858" lon="-4.705902021378279">
        <ele>40.509999999999998</ele>
        <time>2023-08-24T10:17:28Z</time>
      </trkpt>
      <trkpt lat="58.459858009591699" lon="-4.706087009981275">
        <ele>40.990000000000002</ele>
        <time>2023-08-24T10:17:29Z</time>
      </trkpt>
      <trkpt lat="58.459777040407062" lon="-4.706279039382935">
        <ele>40.990000000000002</ele>
        <time>2023-08-24T10:17:30Z</time>
      </trkpt>
      <trkpt lat="58.45962499268353" lon="-4.706638036295772">
        <ele>41.469999999999999</ele>
        <time>2023-08-24T10:17:32Z</time>
      </trkpt>
      <trkpt lat="58.459551986306906" lon="-4.706809027120471">
        <ele>41.469999999999999</ele>
        <time>2023-08-24T10:17:33Z</time>
      </trkpt>
      <trkpt lat="58.459478979930282" lon="-4.706982029601932">
        <ele>41.469999999999999</ele>
        <time>2023-08-24T10:17:34Z</time>
      </trkpt>
      <trkpt lat="58.459372026845813" lon="-4.707110021263361">
        <ele>41.950000000000003</ele>
        <time>2023-08-24T10:17:35Z</time>
      </trkpt>
      <trkpt lat="58.45925803296268" lon="-4.707206999883056">
        <ele>41.469999999999999</ele>
        <time>2023-08-24T10:17:36Z</time>
      </trkpt>
      <trkpt lat="58.459136998280883" lon="-4.707291992381215">
        <ele>41.469999999999999</ele>
        <time>2023-08-24T10:17:37Z</time>
      </trkpt>
      <trkpt lat="58.459009006619453" lon="-4.707342032343149">
        <ele>40.990000000000002</ele>
        <time>2023-08-24T10:17:38Z</time>
      </trkpt>
      <trkpt lat="58.458875985816121" lon="-4.707395005971193">
        <ele>40.990000000000002</ele>
        <time>2023-08-24T10:17:39Z</time>
      </trkpt>
      <trkpt lat="58.45833501778543" lon="-4.707676973193884">
        <ele>39.549999999999997</ele>
        <time>2023-08-24T10:17:43Z</time>
      </trkpt>
      <trkpt lat="58.458209959790111" lon="-4.707791972905397">
        <ele>39.549999999999997</ele>
        <time>2023-08-24T10:17:44Z</time>
      </trkpt>
      <trkpt lat="58.458119016140699" lon="-4.707951983436942">
        <ele>39.07</ele>
        <time>2023-08-24T10:17:45Z</time>
      </trkpt>
      <trkpt lat="58.458021031692624" lon="-4.708124985918403">
        <ele>39.07</ele>
        <time>2023-08-24T10:17:46Z</time>
      </trkpt>
      <trkpt lat="58.457931010052562" lon="-4.708284996449947">
        <ele>39.07</ele>
        <time>2023-08-24T10:17:47Z</time>
      </trkpt>
      <trkpt lat="58.45786202698946" lon="-4.708516001701355">
        <ele>39.07</ele>
        <time>2023-08-24T10:17:48Z</time>
      </trkpt>
      <trkpt lat="58.457796983420849" lon="-4.708729991689324">
        <ele>39.07</ele>
        <time>2023-08-24T10:17:49Z</time>
      </trkpt>
      <trkpt lat="58.457295997068286" lon="-4.710815995931625">
        <ele>42.439999999999998</ele>
        <time>2023-08-24T10:17:59Z</time>
      </trkpt>
      <trkpt lat="58.457304965704679" lon="-4.711042977869511">
        <ele>42.439999999999998</ele>
        <time>2023-08-24T10:18:00Z</time>
      </trkpt>
      <trkpt lat="58.457324998453259" lon="-4.711251016706228">
        <ele>42.439999999999998</ele>
        <time>2023-08-24T10:18:01Z</time>
      </trkpt>
      <trkpt lat="58.45734603703022" lon="-4.711467018350959">
        <ele>42.439999999999998</ele>
        <time>2023-08-24T10:18:02Z</time>
      </trkpt>
      <trkpt lat="58.457385012879968" lon="-4.711686037480831">
        <ele>42.439999999999998</ele>
        <time>2023-08-24T10:18:03Z</time>
      </trkpt>
      <trkpt lat="58.457430023699999" lon="-4.711906984448433">
        <ele>42.439999999999998</ele>
        <time>2023-08-24T10:18:04Z</time>
      </trkpt>
      <trkpt lat="58.457489032298326" lon="-4.712395984679461">
        <ele>41.950000000000003</ele>
        <time>2023-08-24T10:18:06Z</time>
      </trkpt>
      <trkpt lat="58.457499006763101" lon="-4.712647022679448">
        <ele>41.950000000000003</ele>
        <time>2023-08-24T10:18:07Z</time>
      </trkpt>
      <trkpt lat="58.457476962357759" lon="-4.712894959375262">
        <ele>41.469999999999999</ele>
        <time>2023-08-24T10:18:08Z</time>
      </trkpt>
      <trkpt lat="58.457439998164773" lon="-4.713153960183263">
        <ele>40.990000000000002</ele>
        <time>2023-08-24T10:18:09Z</time>
      </trkpt>
      <trkpt lat="58.457401022315025" lon="-4.71342503093183">
        <ele>40.509999999999998</ele>
        <time>2023-08-24T10:18:10Z</time>
      </trkpt>
      <trkpt lat="58.456948986276984" lon="-4.716381998732686">
        <ele>38.109999999999999</ele>
        <time>2023-08-24T10:18:21Z</time>
      </trkpt>
      <trkpt lat="58.456542966887355" lon="-4.717888981103897">
        <ele>35.710000000000001</ele>
        <time>2023-08-24T10:18:27Z</time>
      </trkpt>
      <trkpt lat="58.456181958317757" lon="-4.718998996540904">
        <ele>30.899999999999999</ele>
        <time>2023-08-24T10:18:36Z</time>
      </trkpt>
      <trkpt lat="58.455771999433637" lon="-4.720294000580907">
        <ele>26.09</ele>
        <time>2023-08-24T10:18:47Z</time>
      </trkpt>
      <trkpt lat="58.455658005550504" lon="-4.720957009121776">
        <ele>23.690000000000001</ele>
        <time>2023-08-24T10:18:50Z</time>
      </trkpt>
      <trkpt lat="58.455635039135814" lon="-4.721217015758157">
        <ele>22.73</ele>
        <time>2023-08-24T10:18:51Z</time>
      </trkpt>
      <trkpt lat="58.455635039135814" lon="-4.721485991030932">
        <ele>22.25</ele>
        <time>2023-08-24T10:18:52Z</time>
      </trkpt>
      <trkpt lat="58.455635039135814" lon="-4.72176100127399">
        <ele>21.77</ele>
        <time>2023-08-24T10:18:53Z</time>
      </trkpt>
      <trkpt lat="58.455661023035645" lon="-4.722030982375145">
        <ele>21.289999999999999</ele>
        <time>2023-08-24T10:18:54Z</time>
      </trkpt>
      <trkpt lat="58.455710979178548" lon="-4.722268022596836">
        <ele>20.809999999999999</ele>
        <time>2023-08-24T10:18:55Z</time>
      </trkpt>
      <trkpt lat="58.455760013312101" lon="-4.722497016191483">
        <ele>20.32</ele>
        <time>2023-08-24T10:18:56Z</time>
      </trkpt>
      <trkpt lat="58.455808041617274" lon="-4.722718968987465">
        <ele>19.84</ele>
        <time>2023-08-24T10:18:57Z</time>
      </trkpt>
      <trkpt lat="58.455881970003247" lon="-4.722918961197138">
        <ele>19.84</ele>
        <time>2023-08-24T10:18:58Z</time>
      </trkpt>
      <trkpt lat="58.455967968329787" lon="-4.723090035840869">
        <ele>19.359999999999999</ele>
        <time>2023-08-24T10:18:59Z</time>
      </trkpt>
      <trkpt lat="58.456583032384515" lon="-4.724305998533964">
        <ele>18.399999999999999</ele>
        <time>2023-08-24T10:19:07Z</time>
      </trkpt>
      <trkpt lat="58.456888971850276" lon="-4.724972024559975">
        <ele>17.920000000000002</ele>
        <time>2023-08-24T10:19:11Z</time>
      </trkpt>
      <trkpt lat="58.456940017640591" lon="-4.725166987627745">
        <ele>17.920000000000002</ele>
        <time>2023-08-24T10:19:12Z</time>
      </trkpt>
      <trkpt lat="58.456988967955112" lon="-4.725354993715882">
        <ele>17.920000000000002</ele>
        <time>2023-08-24T10:19:13Z</time>
      </trkpt>
      <trkpt lat="58.456998020410538" lon="-4.725535959005356">
        <ele>17.920000000000002</ele>
        <time>2023-08-24T10:19:14Z</time>
      </trkpt>
      <trkpt lat="58.456978993490338" lon="-4.725725976750255">
        <ele>17.920000000000002</ele>
        <time>2023-08-24T10:19:15Z</time>
      </trkpt>
      <trkpt lat="58.456940017640591" lon="-4.725906020030379">
        <ele>17.920000000000002</ele>
        <time>2023-08-24T10:19:16Z</time>
      </trkpt>
      <trkpt lat="58.456862987950444" lon="-4.726050021126866">
        <ele>17.440000000000001</ele>
        <time>2023-08-24T10:19:17Z</time>
      </trkpt>
      <trkpt lat="58.456783024594188" lon="-4.726185975596309">
        <ele>17.440000000000001</ele>
        <time>2023-08-24T10:19:18Z</time>
      </trkpt>
      <trkpt lat="58.456665007397532" lon="-4.726242972537875">
        <ele>16.960000000000001</ele>
        <time>2023-08-24T10:19:19Z</time>
      </trkpt>
      <trkpt lat="58.456533998250961" lon="-4.726306004449725">
        <ele>16.48</ele>
        <time>2023-08-24T10:19:20Z</time>
      </trkpt>
      <trkpt lat="58.45627399161458" lon="-4.726431984454393">
        <ele>16.48</ele>
        <time>2023-08-24T10:19:22Z</time>
      </trkpt>
      <trkpt lat="58.455116031691432" lon="-4.727515010163188">
        <ele>15.039999999999999</ele>
        <time>2023-08-24T10:19:31Z</time>
      </trkpt>
      <trkpt lat="58.453983971849084" lon="-4.728759974241257">
        <ele>13.119999999999999</ele>
        <time>2023-08-24T10:19:41Z</time>
      </trkpt>
      <trkpt lat="58.453498994931579" lon="-4.729406973347068">
        <ele>13.6</ele>
        <time>2023-08-24T10:19:46Z</time>
      </trkpt>
      <trkpt lat="58.453027009963989" lon="-4.730133013799787">
        <ele>14.08</ele>
        <time>2023-08-24T10:19:52Z</time>
      </trkpt>
      <trkpt lat="58.452923996374011" lon="-4.730220017954707">
        <ele>14.08</ele>
        <time>2023-08-24T10:19:53Z</time>
      </trkpt>
      <trkpt lat="58.451867960393429" lon="-4.731117971241474">
        <ele>14.08</ele>
        <time>2023-08-24T10:20:01Z</time>
      </trkpt>
      <trkpt lat="58.451586998999119" lon="-4.731402033939958">
        <ele>14.08</ele>
        <time>2023-08-24T10:20:03Z</time>
      </trkpt>
      <trkpt lat="58.451467975974083" lon="-4.731593979522586">
        <ele>14.08</ele>
        <time>2023-08-24T10:20:04Z</time>
      </trkpt>
      <trkpt lat="58.451350964605808" lon="-4.731785003095865">
        <ele>14.56</ele>
        <time>2023-08-24T10:20:05Z</time>
      </trkpt>
      <trkpt lat="58.450720980763435" lon="-4.732706006616354">
        <ele>15.039999999999999</ele>
        <time>2023-08-24T10:20:11Z</time>
      </trkpt>
      <trkpt lat="58.450608998537064" lon="-4.732836009934545">
        <ele>15.039999999999999</ele>
        <time>2023-08-24T10:20:12Z</time>
      </trkpt>
      <trkpt lat="58.450481006875634" lon="-4.732914967462421">
        <ele>15.039999999999999</ele>
        <time>2023-08-24T10:20:13Z</time>
      </trkpt>
      <trkpt lat="58.450353015214205" lon="-4.732995014637709">
        <ele>15.039999999999999</ele>
        <time>2023-08-24T10:20:14Z</time>
      </trkpt>
      <trkpt lat="58.450219994410872" lon="-4.733076989650726">
        <ele>15.039999999999999</ele>
        <time>2023-08-24T10:20:15Z</time>
      </trkpt>
      <trkpt lat="58.448804961517453" lon="-4.734124979004264">
        <ele>16.48</ele>
        <time>2023-08-24T10:20:25Z</time>
      </trkpt>
      <trkpt lat="58.447350030764937" lon="-4.735270030796528">
        <ele>16</ele>
        <time>2023-08-24T10:20:35Z</time>
      </trkpt>
      <trkpt lat="58.446220988407731" lon="-4.736623959615827">
        <ele>11.67</ele>
        <time>2023-08-24T10:20:43Z</time>
      </trkpt>
      <trkpt lat="58.445180039852858" lon="-4.738435037434101">
        <ele>10.23</ele>
        <time>2023-08-24T10:20:52Z</time>
      </trkpt>
      <trkpt lat="58.44510099850595" lon="-4.738694038242102">
        <ele>10.23</ele>
        <time>2023-08-24T10:20:53Z</time>
      </trkpt>
      <trkpt lat="58.445036960765719" lon="-4.738967958837748">
        <ele>10.23</ele>
        <time>2023-08-24T10:20:54Z</time>
      </trkpt>
      <trkpt lat="58.444983987137675" lon="-4.739239029586315">
        <ele>10.23</ele>
        <time>2023-08-24T10:20:55Z</time>
      </trkpt>
      <trkpt lat="58.444955991581082" lon="-4.739519990980625">
        <ele>10.23</ele>
        <time>2023-08-24T10:20:56Z</time>
      </trkpt>
      <trkpt lat="58.444927996024489" lon="-4.739802964031696">
        <ele>10.23</ele>
        <time>2023-08-24T10:20:57Z</time>
      </trkpt>
      <trkpt lat="58.444898994639516" lon="-4.740091972053051">
        <ele>10.23</ele>
        <time>2023-08-24T10:20:58Z</time>
      </trkpt>
      <trkpt lat="58.444878961890936" lon="-4.740385003387928">
        <ele>10.23</ele>
        <time>2023-08-24T10:20:59Z</time>
      </trkpt>
      <trkpt lat="58.444819031283259" lon="-4.743717983365059">
        <ele>15.52</ele>
        <time>2023-08-24T10:21:11Z</time>
      </trkpt>
      <trkpt lat="58.444701014086604" lon="-4.746113028377295">
        <ele>17.920000000000002</ele>
        <time>2023-08-24T10:21:20Z</time>
      </trkpt>
      <trkpt lat="58.444249983876944" lon="-4.749601995572448">
        <ele>22.25</ele>
        <time>2023-08-24T10:21:33Z</time>
      </trkpt>
      <trkpt lat="58.443899033591151" lon="-4.752327036112547">
        <ele>25.609999999999999</ele>
        <time>2023-08-24T10:21:44Z</time>
      </trkpt>
      <trkpt lat="58.443866008892655" lon="-4.75282902829349">
        <ele>25.609999999999999</ele>
        <time>2023-08-24T10:21:49Z</time>
      </trkpt>
      <trkpt lat="58.443872965872288" lon="-4.752927012741566">
        <ele>25.129999999999999</ele>
        <time>2023-08-24T10:21:58Z</time>
      </trkpt>
      <trkpt lat="58.443877995014191" lon="-4.752995995804668">
        <ele>25.129999999999999</ele>
        <time>2023-08-24T10:21:59Z</time>
      </trkpt>
      <trkpt lat="58.443884029984474" lon="-4.753084005787969">
        <ele>25.129999999999999</ele>
        <time>2023-08-24T10:22:00Z</time>
      </trkpt>
      <trkpt lat="58.443915965035558" lon="-4.753358010202646">
        <ele>25.129999999999999</ele>
        <time>2023-08-24T10:22:02Z</time>
      </trkpt>
      <trkpt lat="58.443957958370447" lon="-4.753522966057062">
        <ele>25.129999999999999</ele>
        <time>2023-08-24T10:22:03Z</time>
      </trkpt>
      <trkpt lat="58.444004980847239" lon="-4.7537109721452">
        <ele>24.170000000000002</ele>
        <time>2023-08-24T10:22:04Z</time>
      </trkpt>
      <trkpt lat="58.444085028022528" lon="-4.753897972404957">
        <ele>23.690000000000001</ele>
        <time>2023-08-24T10:22:05Z</time>
      </trkpt>
      <trkpt lat="58.444173960015178" lon="-4.754048008471727">
        <ele>23.210000000000001</ele>
        <time>2023-08-24T10:22:06Z</time>
      </trkpt>
      <trkpt lat="58.444274961948395" lon="-4.754192009568214">
        <ele>22.73</ele>
        <time>2023-08-24T10:22:07Z</time>
      </trkpt>
      <trkpt lat="58.444394990801811" lon="-4.754296028986573">
        <ele>22.25</ele>
        <time>2023-08-24T10:22:08Z</time>
      </trkpt>
      <trkpt lat="58.444520970806479" lon="-4.754405999556184">
        <ele>21.77</ele>
        <time>2023-08-24T10:22:09Z</time>
      </trkpt>
      <trkpt lat="58.445803988724947" lon="-4.755544010549784">
        <ele>17.440000000000001</ele>
        <time>2023-08-24T10:22:19Z</time>
      </trkpt>
      <trkpt lat="58.446532962843776" lon="-4.75658998824656">
        <ele>15.039999999999999</ele>
        <time>2023-08-24T10:22:25Z</time>
      </trkpt>
      <trkpt lat="58.447618000209332" lon="-4.758464014157653">
        <ele>17.440000000000001</ele>
        <time>2023-08-24T10:22:35Z</time>
      </trkpt>
      <trkpt lat="58.447723025456071" lon="-4.758800966665149">
        <ele>16.960000000000001</ele>
        <time>2023-08-24T10:22:39Z</time>
      </trkpt>
      <trkpt lat="58.447768036276102" lon="-4.758969023823738">
        <ele>16.960000000000001</ele>
        <time>2023-08-24T10:22:47Z</time>
      </trkpt>
      <trkpt lat="58.447802988812327" lon="-4.759097015485168">
        <ele>16.960000000000001</ele>
        <time>2023-08-24T10:22:48Z</time>
      </trkpt>
      <trkpt lat="58.447827966883779" lon="-4.759259959682822">
        <ele>16.960000000000001</ele>
        <time>2023-08-24T10:22:49Z</time>
      </trkpt>
      <trkpt lat="58.447962999343872" lon="-4.760142993181944">
        <ele>16</ele>
        <time>2023-08-24T10:22:54Z</time>
      </trkpt>
      <trkpt lat="58.448013039305806" lon="-4.760469971224666">
        <ele>14.56</ele>
        <time>2023-08-24T10:23:01Z</time>
      </trkpt>
      <trkpt lat="58.448143964633346" lon="-4.761327020823956">
        <ele>14.08</ele>
        <time>2023-08-24T10:23:05Z</time>
      </trkpt>
      <trkpt lat="58.448197022080421" lon="-4.761547967791557">
        <ele>14.08</ele>
        <time>2023-08-24T10:23:06Z</time>
      </trkpt>
      <trkpt lat="58.448278997093439" lon="-4.761738991364837">
        <ele>13.6</ele>
        <time>2023-08-24T10:23:07Z</time>
      </trkpt>
      <trkpt lat="58.448360972106457" lon="-4.761930014938116">
        <ele>12.630000000000001</ele>
        <time>2023-08-24T10:23:08Z</time>
      </trkpt>
      <trkpt lat="58.44847303815186" lon="-4.762061024084687">
        <ele>12.15</ele>
        <time>2023-08-24T10:23:09Z</time>
      </trkpt>
      <trkpt lat="58.448587032034993" lon="-4.762193961068988">
        <ele>11.19</ele>
        <time>2023-08-24T10:23:10Z</time>
      </trkpt>
      <trkpt lat="58.448716029524803" lon="-4.762265039607883">
        <ele>10.23</ele>
        <time>2023-08-24T10:23:11Z</time>
      </trkpt>
      <trkpt lat="58.448844021186233" lon="-4.762310972437263">
        <ele>9.75</ele>
        <time>2023-08-24T10:23:12Z</time>
      </trkpt>
      <trkpt lat="58.448962960392237" lon="-4.762319019064307">
        <ele>8.789999999999999</ele>
        <time>2023-08-24T10:23:13Z</time>
      </trkpt>
      <trkpt lat="58.449087012559175" lon="-4.762269984930754">
        <ele>7.83</ele>
        <time>2023-08-24T10:23:14Z</time>
      </trkpt>
      <trkpt lat="58.449208969250321" lon="-4.762169988825917">
        <ele>6.87</ele>
        <time>2023-08-24T10:23:15Z</time>
      </trkpt>
      <trkpt lat="58.449334027245641" lon="-4.762035962194204">
        <ele>6.39</ele>
        <time>2023-08-24T10:23:16Z</time>
      </trkpt>
      <trkpt lat="58.449450032785535" lon="-4.761889027431607">
        <ele>5.42</ele>
        <time>2023-08-24T10:23:17Z</time>
      </trkpt>
      <trkpt lat="58.449557991698384" lon="-4.761713007465005">
        <ele>4.94</ele>
        <time>2023-08-24T10:23:18Z</time>
      </trkpt>
      <trkpt lat="58.449659999459982" lon="-4.761546039953828">
        <ele>4.46</ele>
        <time>2023-08-24T10:23:19Z</time>
      </trkpt>
      <trkpt lat="58.450444964691997" lon="-4.76054297760129">
        <ele>-1.3</ele>
        <time>2023-08-24T10:23:26Z</time>
      </trkpt>
      <trkpt lat="58.451314000412822" lon="-4.759589033201337">
        <ele>-1.79</ele>
        <time>2023-08-24T10:23:33Z</time>
      </trkpt>
      <trkpt lat="58.451449032872915" lon="-4.759475039318204">
        <ele>-1.3</ele>
        <time>2023-08-24T10:23:34Z</time>
      </trkpt>
      <trkpt lat="58.452703971415758" lon="-4.758967012166977">
        <ele>2.54</ele>
        <time>2023-08-24T10:23:43Z</time>
      </trkpt>
      <trkpt lat="58.452960038557649" lon="-4.758862992748618">
        <ele>3.98</ele>
        <time>2023-08-24T10:23:48Z</time>
      </trkpt>
      <trkpt lat="58.453067997470498" lon="-4.758850000798702">
        <ele>3.98</ele>
        <time>2023-08-24T10:23:58Z</time>
      </trkpt>
      <trkpt lat="58.453190959990025" lon="-4.758875984698534">
        <ele>4.46</ele>
        <time>2023-08-24T10:24:00Z</time>
      </trkpt>
      <trkpt lat="58.453271007165313" lon="-4.758891994133592">
        <ele>4.46</ele>
        <time>2023-08-24T10:24:01Z</time>
      </trkpt>
      <trkpt lat="58.454144988209009" lon="-4.759158035740256">
        <ele>5.91</ele>
        <time>2023-08-24T10:24:08Z</time>
      </trkpt>
      <trkpt lat="58.454945962876081" lon="-4.759371019899845">
        <ele>8.789999999999999</ele>
        <time>2023-08-24T10:24:13Z</time>
      </trkpt>
      <trkpt lat="58.455463964492083" lon="-4.75936003960669">
        <ele>9.75</ele>
        <time>2023-08-24T10:24:16Z</time>
      </trkpt>
      <trkpt lat="58.456562999635935" lon="-4.759630020707846">
        <ele>14.08</ele>
        <time>2023-08-24T10:24:23Z</time>
      </trkpt>
      <trkpt lat="58.456699959933758" lon="-4.759634966030717">
        <ele>15.039999999999999</ele>
        <time>2023-08-24T10:24:24Z</time>
      </trkpt>
      <trkpt lat="58.456841027364135" lon="-4.75955500267446">
        <ele>15.52</ele>
        <time>2023-08-24T10:24:25Z</time>
      </trkpt>
      <trkpt lat="58.456989973783493" lon="-4.759461963549256">
        <ele>16</ele>
        <time>2023-08-24T10:24:26Z</time>
      </trkpt>
      <trkpt lat="58.457143027335405" lon="-4.759327014908195">
        <ele>16.960000000000001</ele>
        <time>2023-08-24T10:24:27Z</time>
      </trkpt>
      <trkpt lat="58.45872201025486" lon="-4.758063023909926">
        <ele>19.84</ele>
        <time>2023-08-24T10:24:36Z</time>
      </trkpt>
      <trkpt lat="58.460438959300518" lon="-4.75650398992002">
        <ele>20.809999999999999</ele>
        <time>2023-08-24T10:24:46Z</time>
      </trkpt>
      <trkpt lat="58.461669003590941" lon="-4.754926012828946">
        <ele>18.879999999999999</ele>
        <time>2023-08-24T10:24:54Z</time>
      </trkpt>
      <trkpt lat="58.462651027366519" lon="-4.753331020474434">
        <ele>16.48</ele>
        <time>2023-08-24T10:25:01Z</time>
      </trkpt>
      <trkpt lat="58.463166011497378" lon="-4.752002991735935">
        <ele>16.48</ele>
        <time>2023-08-24T10:25:06Z</time>
      </trkpt>
      <trkpt lat="58.46325402148068" lon="-4.751777015626431">
        <ele>16.48</ele>
        <time>2023-08-24T10:25:07Z</time>
      </trkpt>
      <trkpt lat="58.463364997878671" lon="-4.751593032851815">
        <ele>16.48</ele>
        <time>2023-08-24T10:25:08Z</time>
      </trkpt>
      <trkpt lat="58.463477985933423" lon="-4.751404020935297">
        <ele>16.48</ele>
        <time>2023-08-24T10:25:09Z</time>
      </trkpt>
      <trkpt lat="58.463593991473317" lon="-4.751194976270199">
        <ele>16</ele>
        <time>2023-08-24T10:25:10Z</time>
      </trkpt>
      <trkpt lat="58.463698010891676" lon="-4.750936981290579">
        <ele>16</ele>
        <time>2023-08-24T10:25:11Z</time>
      </trkpt>
      <trkpt lat="58.463801024481654" lon="-4.750683009624481">
        <ele>16</ele>
        <time>2023-08-24T10:25:12Z</time>
      </trkpt>
      <trkpt lat="58.464682968333364" lon="-4.748957008123398">
        <ele>16.48</ele>
        <time>2023-08-24T10:25:19Z</time>
      </trkpt>
      <trkpt lat="58.465074989944696" lon="-4.747959980741143">
        <ele>16.960000000000001</ele>
        <time>2023-08-24T10:25:23Z</time>
      </trkpt>
      <trkpt lat="58.465203987434506" lon="-4.74782201461494">
        <ele>17.440000000000001</ele>
        <time>2023-08-24T10:25:24Z</time>
      </trkpt>
      <trkpt lat="58.465334996581078" lon="-4.747682036831975">
        <ele>17.440000000000001</ele>
        <time>2023-08-24T10:25:25Z</time>
      </trkpt>
      <trkpt lat="58.466621031984687" lon="-4.746584007516503">
        <ele>18.399999999999999</ele>
        <time>2023-08-24T10:25:33Z</time>
      </trkpt>
      <trkpt lat="58.466967958956957" lon="-4.746313020586968">
        <ele>18.399999999999999</ele>
        <time>2023-08-24T10:25:35Z</time>
      </trkpt>
      <trkpt lat="58.467116989195347" lon="-4.746129959821701">
        <ele>18.399999999999999</ele>
        <time>2023-08-24T10:25:36Z</time>
      </trkpt>
      <trkpt lat="58.467258978635073" lon="-4.745913958176971">
        <ele>18.879999999999999</ele>
        <time>2023-08-24T10:25:37Z</time>
      </trkpt>
      <trkpt lat="58.467395016923547" lon="-4.745706003159285">
        <ele>18.879999999999999</ele>
        <time>2023-08-24T10:25:38Z</time>
      </trkpt>
      <trkpt lat="58.467525020241737" lon="-4.745507016777992">
        <ele>18.879999999999999</ele>
        <time>2023-08-24T10:25:39Z</time>
      </trkpt>
      <trkpt lat="58.467654017731547" lon="-4.745309036225081">
        <ele>19.359999999999999</ele>
        <time>2023-08-24T10:25:40Z</time>
      </trkpt>
      <trkpt lat="58.467796007171273" lon="-4.745123041793704">
        <ele>19.359999999999999</ele>
        <time>2023-08-24T10:25:41Z</time>
      </trkpt>
      <trkpt lat="58.467964986339211" lon="-4.745005024597049">
        <ele>19.84</ele>
        <time>2023-08-24T10:25:42Z</time>
      </trkpt>
      <trkpt lat="58.468135977163911" lon="-4.744883989915252">
        <ele>20.32</ele>
        <time>2023-08-24T10:25:43Z</time>
      </trkpt>
      <trkpt lat="58.468307973816991" lon="-4.744763039052486">
        <ele>20.809999999999999</ele>
        <time>2023-08-24T10:25:44Z</time>
      </trkpt>
      <trkpt lat="58.469188995659351" lon="-4.744114028289914">
        <ele>21.77</ele>
        <time>2023-08-24T10:25:49Z</time>
      </trkpt>
      <trkpt lat="58.469341965392232" lon="-4.743925016373396">
        <ele>21.77</ele>
        <time>2023-08-24T10:25:50Z</time>
      </trkpt>
      <trkpt lat="58.469484960660338" lon="-4.743686970323324">
        <ele>22.25</ele>
        <time>2023-08-24T10:25:51Z</time>
      </trkpt>
      <trkpt lat="58.469619993120432" lon="-4.743410032242537">
        <ele>22.25</ele>
        <time>2023-08-24T10:25:52Z</time>
      </trkpt>
      <trkpt lat="58.469757037237287" lon="-4.743125969544053">
        <ele>22.25</ele>
        <time>2023-08-24T10:25:53Z</time>
      </trkpt>
      <trkpt lat="58.470528004691005" lon="-4.741628961637616">
        <ele>21.77</ele>
        <time>2023-08-24T10:25:59Z</time>
      </trkpt>
      <trkpt lat="58.470680974423885" lon="-4.741444978863001">
        <ele>22.25</ele>
        <time>2023-08-24T10:26:00Z</time>
      </trkpt>
      <trkpt lat="58.471456971019506" lon="-4.740452980622649">
        <ele>23.210000000000001</ele>
        <time>2023-08-24T10:26:05Z</time>
      </trkpt>
      <trkpt lat="58.471585968509316" lon="-4.740189034491777">
        <ele>23.690000000000001</ele>
        <time>2023-08-24T10:26:06Z</time>
      </trkpt>
      <trkpt lat="58.473077025264502" lon="-4.737226031720638">
        <ele>24.170000000000002</ele>
        <time>2023-08-24T10:26:17Z</time>
      </trkpt>
      <trkpt lat="58.473220020532608" lon="-4.737011035904288">
        <ele>24.170000000000002</ele>
        <time>2023-08-24T10:26:18Z</time>
      </trkpt>
      <trkpt lat="58.473357986658812" lon="-4.736805008724332">
        <ele>24.649999999999999</ele>
        <time>2023-08-24T10:26:19Z</time>
      </trkpt>
      <trkpt lat="58.473496958613396" lon="-4.736635023728013">
        <ele>24.649999999999999</ele>
        <time>2023-08-24T10:26:20Z</time>
      </trkpt>
      <trkpt lat="58.473651017993689" lon="-4.736523041501641">
        <ele>24.649999999999999</ele>
        <time>2023-08-24T10:26:21Z</time>
      </trkpt>
      <trkpt lat="58.473809016868472" lon="-4.736407035961747">
        <ele>25.129999999999999</ele>
        <time>2023-08-24T10:26:22Z</time>
      </trkpt>
      <trkpt lat="58.473965004086494" lon="-4.736292036250234">
        <ele>24.649999999999999</ele>
        <time>2023-08-24T10:26:23Z</time>
      </trkpt>
      <trkpt lat="58.475686982274055" lon="-4.735027961432934">
        <ele>24.649999999999999</ele>
        <time>2023-08-24T10:26:33Z</time>
      </trkpt>
      <trkpt lat="58.476028963923454" lon="-4.734776001423597">
        <ele>24.649999999999999</ele>
        <time>2023-08-24T10:26:35Z</time>
      </trkpt>
      <trkpt lat="58.477665027603507" lon="-4.733675960451365">
        <ele>25.609999999999999</ele>
        <time>2023-08-24T10:26:44Z</time>
      </trkpt>
      <trkpt lat="58.477826965972781" lon="-4.733515027910471">
        <ele>25.609999999999999</ele>
        <time>2023-08-24T10:26:45Z</time>
      </trkpt>
      <trkpt lat="58.478143969550729" lon="-4.733198024332523">
        <ele>25.609999999999999</ele>
        <time>2023-08-24T10:26:47Z</time>
      </trkpt>
      <trkpt lat="58.478316972032189" lon="-4.733089981600642">
        <ele>25.609999999999999</ele>
        <time>2023-08-24T10:26:48Z</time>
      </trkpt>
      <trkpt lat="58.478496009483933" lon="-4.732986968010664">
        <ele>25.609999999999999</ele>
        <time>2023-08-24T10:26:49Z</time>
      </trkpt>
      <trkpt lat="58.478994984179735" lon="-4.732668958604336">
        <ele>25.609999999999999</ele>
        <time>2023-08-24T10:26:52Z</time>
      </trkpt>
      <trkpt lat="58.479140996932983" lon="-4.732523029670119">
        <ele>25.609999999999999</ele>
        <time>2023-08-24T10:26:53Z</time>
      </trkpt>
      <trkpt lat="58.479281980544329" lon="-4.732369976118207">
        <ele>25.129999999999999</ele>
        <time>2023-08-24T10:26:54Z</time>
      </trkpt>
      <trkpt lat="58.479580041021109" lon="-4.731906037777662">
        <ele>24.170000000000002</ele>
        <time>2023-08-24T10:26:58Z</time>
      </trkpt>
      <trkpt lat="58.47960602492094" lon="-4.731865972280502">
        <ele>24.170000000000002</ele>
        <time>2023-08-24T10:26:59Z</time>
      </trkpt>
      <trkpt lat="58.47960602492094" lon="-4.731865972280502">
        <ele>24.170000000000002</ele>
        <time>2023-08-24T10:27:09Z</time>
      </trkpt>
      <trkpt lat="58.47969202324748" lon="-4.731762036681175">
        <ele>23.690000000000001</ele>
        <time>2023-08-24T10:27:13Z</time>
      </trkpt>
      <trkpt lat="58.479769974946976" lon="-4.731690036132932">
        <ele>23.210000000000001</ele>
        <time>2023-08-24T10:27:14Z</time>
      </trkpt>
      <trkpt lat="58.480521999299526" lon="-4.731123000383377">
        <ele>22.25</ele>
        <time>2023-08-24T10:27:20Z</time>
      </trkpt>
      <trkpt lat="58.481637965887785" lon="-4.730687979608774">
        <ele>21.289999999999999</ele>
        <time>2023-08-24T10:27:28Z</time>
      </trkpt>
      <trkpt lat="58.482739012688398" lon="-4.7297109849751">
        <ele>19.84</ele>
        <time>2023-08-24T10:27:36Z</time>
      </trkpt>
      <trkpt lat="58.484220011159778" lon="-4.728493010625243">
        <ele>19.359999999999999</ele>
        <time>2023-08-24T10:27:46Z</time>
      </trkpt>
      <trkpt lat="58.484786963090301" lon="-4.727810975164175">
        <ele>20.32</ele>
        <time>2023-08-24T10:27:50Z</time>
      </trkpt>
      <trkpt lat="58.484928030520678" lon="-4.727640990167856">
        <ele>20.809999999999999</ele>
        <time>2023-08-24T10:27:51Z</time>
      </trkpt>
      <trkpt lat="58.485082006081939" lon="-4.727543005719781">
        <ele>21.289999999999999</ele>
        <time>2023-08-24T10:27:52Z</time>
      </trkpt>
      <trkpt lat="58.485238999128342" lon="-4.72745600156486">
        <ele>21.77</ele>
        <time>2023-08-24T10:27:53Z</time>
      </trkpt>
      <trkpt lat="58.485390041023493" lon="-4.7273900359869">
        <ele>22.25</ele>
        <time>2023-08-24T10:27:54Z</time>
      </trkpt>
      <trkpt lat="58.48553697578609" lon="-4.727354999631643">
        <ele>22.73</ele>
        <time>2023-08-24T10:27:55Z</time>
      </trkpt>
      <trkpt lat="58.485675025731325" lon="-4.727320969104767">
        <ele>23.210000000000001</ele>
        <time>2023-08-24T10:27:56Z</time>
      </trkpt>
      <trkpt lat="58.485957998782396" lon="-4.727250980213285">
        <ele>24.170000000000002</ele>
        <time>2023-08-24T10:27:58Z</time>
      </trkpt>
      <trkpt lat="58.487102966755629" lon="-4.726605992764235">
        <ele>26.57</ele>
        <time>2023-08-24T10:28:05Z</time>
      </trkpt>
      <trkpt lat="58.487438997253776" lon="-4.726456962525845">
        <ele>26.09</ele>
        <time>2023-08-24T10:28:07Z</time>
      </trkpt>
      <trkpt lat="58.487591966986656" lon="-4.726353026926518">
        <ele>26.09</ele>
        <time>2023-08-24T10:28:08Z</time>
      </trkpt>
      <trkpt lat="58.487746026366949" lon="-4.726249007508159">
        <ele>26.09</ele>
        <time>2023-08-24T10:28:09Z</time>
      </trkpt>
      <trkpt lat="58.488047020509839" lon="-4.726044991984963">
        <ele>26.09</ele>
        <time>2023-08-24T10:28:11Z</time>
      </trkpt>
      <trkpt lat="58.488205019384623" lon="-4.725998975336552">
        <ele>26.09</ele>
        <time>2023-08-24T10:28:12Z</time>
      </trkpt>
      <trkpt lat="58.488869033753872" lon="-4.725889004766941">
        <ele>26.57</ele>
        <time>2023-08-24T10:28:16Z</time>
      </trkpt>
      <trkpt lat="58.489474039524794" lon="-4.725451972335577">
        <ele>27.050000000000001</ele>
        <time>2023-08-24T10:28:20Z</time>
      </trkpt>
      <trkpt lat="58.489589039236307" lon="-4.725248962640762">
        <ele>26.57</ele>
        <time>2023-08-24T10:28:21Z</time>
      </trkpt>
      <trkpt lat="58.489706972613931" lon="-4.725044025108218">
        <ele>26.57</ele>
        <time>2023-08-24T10:28:22Z</time>
      </trkpt>
      <trkpt lat="58.490058006718755" lon="-4.724445976316929">
        <ele>26.57</ele>
        <time>2023-08-24T10:28:25Z</time>
      </trkpt>
      <trkpt lat="58.490179041400552" lon="-4.724280014634132">
        <ele>27.050000000000001</ele>
        <time>2023-08-24T10:28:26Z</time>
      </trkpt>
      <trkpt lat="58.490313990041614" lon="-4.724185969680548">
        <ele>27.050000000000001</ele>
        <time>2023-08-24T10:28:27Z</time>
      </trkpt>
      <trkpt lat="58.490451034158468" lon="-4.724097959697247">
        <ele>27.530000000000001</ele>
        <time>2023-08-24T10:28:28Z</time>
      </trkpt>
      <trkpt lat="58.490601992234588" lon="-4.724073987454176">
        <ele>27.530000000000001</ele>
        <time>2023-08-24T10:28:29Z</time>
      </trkpt>
      <trkpt lat="58.490754039958119" lon="-4.724050015211105">
        <ele>28.02</ele>
        <time>2023-08-24T10:28:30Z</time>
      </trkpt>
      <trkpt lat="58.49157202988863" lon="-4.72390802577138">
        <ele>29.940000000000001</ele>
        <time>2023-08-24T10:28:36Z</time>
      </trkpt>
      <trkpt lat="58.491712007671595" lon="-4.723833007737994">
        <ele>29.940000000000001</ele>
        <time>2023-08-24T10:28:37Z</time>
      </trkpt>
      <trkpt lat="58.491863971576095" lon="-4.723749021068215">
        <ele>30.420000000000002</ele>
        <time>2023-08-24T10:28:38Z</time>
      </trkpt>
      <trkpt lat="58.492481969296932" lon="-4.723105961456895">
        <ele>30.899999999999999</ele>
        <time>2023-08-24T10:28:42Z</time>
      </trkpt>
      <trkpt lat="58.492621025070548" lon="-4.722873028367758">
        <ele>31.379999999999999</ele>
        <time>2023-08-24T10:28:43Z</time>
      </trkpt>
      <trkpt lat="58.492764020338655" lon="-4.722635988146067">
        <ele>31.859999999999999</ele>
        <time>2023-08-24T10:28:44Z</time>
      </trkpt>
      <trkpt lat="58.493040958419442" lon="-4.72221102565527">
        <ele>32.82</ele>
        <time>2023-08-24T10:28:46Z</time>
      </trkpt>
      <trkpt lat="58.493179008364677" lon="-4.722026959061623">
        <ele>33.299999999999997</ele>
        <time>2023-08-24T10:28:47Z</time>
      </trkpt>
      <trkpt lat="58.493323009461164" lon="-4.721868960186839">
        <ele>33.299999999999997</ele>
        <time>2023-08-24T10:28:48Z</time>
      </trkpt>
      <trkpt lat="58.494937028735876" lon="-4.72034596838057">
        <ele>33.780000000000001</ele>
        <time>2023-08-24T10:28:58Z</time>
      </trkpt>
      <trkpt lat="58.49507499486208" lon="-4.720128960907459">
        <ele>34.259999999999998</ele>
        <time>2023-08-24T10:28:59Z</time>
      </trkpt>
      <trkpt lat="58.495787037536502" lon="-4.719185996800661">
        <ele>36.189999999999998</ele>
        <time>2023-08-24T10:29:04Z</time>
      </trkpt>
      <trkpt lat="58.496612990275025" lon="-4.718503961339593">
        <ele>39.07</ele>
        <time>2023-08-24T10:29:09Z</time>
      </trkpt>
      <trkpt lat="58.496762020513415" lon="-4.718302963301539">
        <ele>39.07</ele>
        <time>2023-08-24T10:29:10Z</time>
      </trkpt>
      <trkpt lat="58.496911972761154" lon="-4.718097019940615">
        <ele>39.549999999999997</ele>
        <time>2023-08-24T10:29:11Z</time>
      </trkpt>
      <trkpt lat="58.497038958594203" lon="-4.717842964455485">
        <ele>40.030000000000001</ele>
        <time>2023-08-24T10:29:12Z</time>
      </trkpt>
      <trkpt lat="58.497153036296368" lon="-4.717567032203078">
        <ele>40.030000000000001</ele>
        <time>2023-08-24T10:29:13Z</time>
      </trkpt>
      <trkpt lat="58.497264012694359" lon="-4.717299984768033">
        <ele>40.509999999999998</ele>
        <time>2023-08-24T10:29:14Z</time>
      </trkpt>
      <trkpt lat="58.497691992670298" lon="-4.716268004849553">
        <ele>41.469999999999999</ele>
        <time>2023-08-24T10:29:18Z</time>
      </trkpt>
      <trkpt lat="58.498941985890269" lon="-4.714652979746461">
        <ele>45.32</ele>
        <time>2023-08-24T10:29:26Z</time>
      </trkpt>
      <trkpt lat="58.499386981129646" lon="-4.714121986180544">
        <ele>45.799999999999997</ele>
        <time>2023-08-24T10:29:29Z</time>
      </trkpt>
      <trkpt lat="58.499509021639824" lon="-4.713885029777885">
        <ele>45.799999999999997</ele>
        <time>2023-08-24T10:29:30Z</time>
      </trkpt>
      <trkpt lat="58.499621003866196" lon="-4.7136390209198">
        <ele>45.799999999999997</ele>
        <time>2023-08-24T10:29:31Z</time>
      </trkpt>
      <trkpt lat="58.499727034941316" lon="-4.713408015668392">
        <ele>45.799999999999997</ele>
        <time>2023-08-24T10:29:32Z</time>
      </trkpt>
      <trkpt lat="58.499828958883882" lon="-4.713183967396617">
        <ele>45.799999999999997</ele>
        <time>2023-08-24T10:29:33Z</time>
      </trkpt>
      <trkpt lat="58.500079996883869" lon="-4.712635036557913">
        <ele>44.840000000000003</ele>
        <time>2023-08-24T10:29:37Z</time>
      </trkpt>
      <trkpt lat="58.500369004905224" lon="-4.712063977494836">
        <ele>43.399999999999999</ele>
        <time>2023-08-24T10:29:43Z</time>
      </trkpt>
      <trkpt lat="58.501082975417376" lon="-4.710811972618103">
        <ele>41.950000000000003</ele>
        <time>2023-08-24T10:29:53Z</time>
      </trkpt>
      <trkpt lat="58.501528976485133" lon="-4.710031030699611">
        <ele>41.469999999999999</ele>
        <time>2023-08-24T10:29:59Z</time>
      </trkpt>
      <trkpt lat="58.502171030268073" lon="-4.709032997488976">
        <ele>41.469999999999999</ele>
        <time>2023-08-24T10:30:05Z</time>
      </trkpt>
      <trkpt lat="58.502306984737515" lon="-4.708910034969449">
        <ele>41.469999999999999</ele>
        <time>2023-08-24T10:30:06Z</time>
      </trkpt>
      <trkpt lat="58.502452997490764" lon="-4.708798974752426">
        <ele>41.950000000000003</ele>
        <time>2023-08-24T10:30:07Z</time>
      </trkpt>
      <trkpt lat="58.503759987652302" lon="-4.707504976540804">
        <ele>42.439999999999998</ele>
        <time>2023-08-24T10:30:16Z</time>
      </trkpt>
      <trkpt lat="58.504070034250617" lon="-4.706921009346843">
        <ele>42.439999999999998</ele>
        <time>2023-08-24T10:30:19Z</time>
      </trkpt>
      <trkpt lat="58.504165001213551" lon="-4.706811960786581">
        <ele>42.439999999999998</ele>
        <time>2023-08-24T10:30:20Z</time>
      </trkpt>
      <trkpt lat="58.504271032288671" lon="-4.70672101713717">
        <ele>42.920000000000002</ele>
        <time>2023-08-24T10:30:21Z</time>
      </trkpt>
      <trkpt lat="58.504395000636578" lon="-4.706650022417307">
        <ele>42.920000000000002</ele>
        <time>2023-08-24T10:30:22Z</time>
      </trkpt>
      <trkpt lat="58.504532966762781" lon="-4.706570981070399">
        <ele>42.920000000000002</ele>
        <time>2023-08-24T10:30:23Z</time>
      </trkpt>
      <trkpt lat="58.504686020314693" lon="-4.706534016877413">
        <ele>42.920000000000002</ele>
        <time>2023-08-24T10:30:24Z</time>
      </trkpt>
      <trkpt lat="58.505154987797141" lon="-4.706524964421988">
        <ele>41.950000000000003</ele>
        <time>2023-08-24T10:30:27Z</time>
      </trkpt>
      <trkpt lat="58.50575496442616" lon="-4.706581961363554">
        <ele>40.509999999999998</ele>
        <time>2023-08-24T10:30:31Z</time>
      </trkpt>
      <trkpt lat="58.505898965522647" lon="-4.70652898773551">
        <ele>40.509999999999998</ele>
        <time>2023-08-24T10:30:32Z</time>
      </trkpt>
      <trkpt lat="58.506043972447515" lon="-4.706475008279085">
        <ele>40.509999999999998</ele>
        <time>2023-08-24T10:30:33Z</time>
      </trkpt>
      <trkpt lat="58.506179004907608" lon="-4.706370988860726">
        <ele>40.509999999999998</ele>
        <time>2023-08-24T10:30:34Z</time>
      </trkpt>
      <trkpt lat="58.50631101988256" lon="-4.706246014684439">
        <ele>40.509999999999998</ele>
        <time>2023-08-24T10:30:35Z</time>
      </trkpt>
      <trkpt lat="58.506425013765693" lon="-4.706139983609319">
        <ele>40.030000000000001</ele>
        <time>2023-08-24T10:30:36Z</time>
      </trkpt>
      <trkpt lat="58.506542025133967" lon="-4.705921970307827">
        <ele>40.030000000000001</ele>
        <time>2023-08-24T10:30:37Z</time>
      </trkpt>
      <trkpt lat="58.506649984046817" lon="-4.705721978098154">
        <ele>39.549999999999997</ele>
        <time>2023-08-24T10:30:38Z</time>
      </trkpt>
      <trkpt lat="58.506759032607079" lon="-4.70551997423172">
        <ele>39.549999999999997</ele>
        <time>2023-08-24T10:30:39Z</time>
      </trkpt>
      <trkpt lat="58.507122974842787" lon="-4.704899964854121">
        <ele>39.07</ele>
        <time>2023-08-24T10:30:42Z</time>
      </trkpt>
      <trkpt lat="58.507255995646119" lon="-4.704698966816068">
        <ele>38.590000000000003</ele>
        <time>2023-08-24T10:30:43Z</time>
      </trkpt>
      <trkpt lat="58.507934007793665" lon="-4.703715015202761">
        <ele>35.229999999999997</ele>
        <time>2023-08-24T10:30:48Z</time>
      </trkpt>
      <trkpt lat="58.508043978363276" lon="-4.703448973596096">
        <ele>34.740000000000002</ele>
        <time>2023-08-24T10:30:49Z</time>
      </trkpt>
      <trkpt lat="58.508785022422671" lon="-4.701749039813876">
        <ele>29.940000000000001</ele>
        <time>2023-08-24T10:30:56Z</time>
      </trkpt>
      <trkpt lat="58.508898010477424" lon="-4.701574025675654">
        <ele>29.460000000000001</ele>
        <time>2023-08-24T10:30:57Z</time>
      </trkpt>
      <trkpt lat="58.509036982432008" lon="-4.701461037620902">
        <ele>28.98</ele>
        <time>2023-08-24T10:30:58Z</time>
      </trkpt>
      <trkpt lat="58.509188024327159" lon="-4.701418038457632">
        <ele>28.5</ele>
        <time>2023-08-24T10:30:59Z</time>
      </trkpt>
      <trkpt lat="58.509337976574898" lon="-4.701375039294362">
        <ele>28.02</ele>
        <time>2023-08-24T10:31:00Z</time>
      </trkpt>
      <trkpt lat="58.50949396379292" lon="-4.701381996273994">
        <ele>27.530000000000001</ele>
        <time>2023-08-24T10:31:01Z</time>
      </trkpt>
      <trkpt lat="58.509653974324465" lon="-4.701432958245277">
        <ele>27.050000000000001</ele>
        <time>2023-08-24T10:31:02Z</time>
      </trkpt>
      <trkpt lat="58.510352019220591" lon="-4.701654994860292">
        <ele>26.09</ele>
        <time>2023-08-24T10:31:06Z</time>
      </trkpt>
      <trkpt lat="58.510499959811568" lon="-4.701618030667305">
        <ele>25.609999999999999</ele>
        <time>2023-08-24T10:31:07Z</time>
      </trkpt>
      <trkpt lat="58.510644966736436" lon="-4.701561033725739">
        <ele>25.609999999999999</ele>
        <time>2023-08-24T10:31:08Z</time>
      </trkpt>
      <trkpt lat="58.510776981711388" lon="-4.701450979337096">
        <ele>25.129999999999999</ele>
        <time>2023-08-24T10:31:09Z</time>
      </trkpt>
      <trkpt lat="58.510900028049946" lon="-4.701316030696034">
        <ele>24.649999999999999</ele>
        <time>2023-08-24T10:31:10Z</time>
      </trkpt>
      <trkpt lat="58.511011004447937" lon="-4.701112015172839">
        <ele>24.649999999999999</ele>
        <time>2023-08-24T10:31:11Z</time>
      </trkpt>
      <trkpt lat="58.511126004159451" lon="-4.70089903101325">
        <ele>24.649999999999999</ele>
        <time>2023-08-24T10:31:12Z</time>
      </trkpt>
      <trkpt lat="58.511204039677978" lon="-4.700610022991896">
        <ele>24.649999999999999</ele>
        <time>2023-08-24T10:31:13Z</time>
      </trkpt>
      <trkpt lat="58.511288026347756" lon="-4.700301988050342">
        <ele>24.649999999999999</ele>
        <time>2023-08-24T10:31:14Z</time>
      </trkpt>
      <trkpt lat="58.511762022972107" lon="-4.698785031214356">
        <ele>26.57</ele>
        <time>2023-08-24T10:31:19Z</time>
      </trkpt>
      <trkpt lat="58.511891020461917" lon="-4.698559977114201">
        <ele>27.530000000000001</ele>
        <time>2023-08-24T10:31:20Z</time>
      </trkpt>
      <trkpt lat="58.512038039043546" lon="-4.698355961591005">
        <ele>28.98</ele>
        <time>2023-08-24T10:31:21Z</time>
      </trkpt>
      <trkpt lat="58.513217037543654" lon="-4.696712018921971">
        <ele>35.710000000000001</ele>
        <time>2023-08-24T10:31:29Z</time>
      </trkpt>
      <trkpt lat="58.513378975912929" lon="-4.696619985625148">
        <ele>36.189999999999998</ele>
        <time>2023-08-24T10:31:30Z</time>
      </trkpt>
      <trkpt lat="58.513544015586376" lon="-4.696535998955369">
        <ele>36.189999999999998</ele>
        <time>2023-08-24T10:31:31Z</time>
      </trkpt>
      <trkpt lat="58.514178022742271" lon="-4.69617297872901">
        <ele>38.590000000000003</ele>
        <time>2023-08-24T10:31:35Z</time>
      </trkpt>
      <trkpt lat="58.514316994696856" lon="-4.696055967360735">
        <ele>39.07</ele>
        <time>2023-08-24T10:31:36Z</time>
      </trkpt>
      <trkpt lat="58.514435011893511" lon="-4.695887994021177">
        <ele>39.549999999999997</ele>
        <time>2023-08-24T10:31:37Z</time>
      </trkpt>
      <trkpt lat="58.514553029090166" lon="-4.69569998793304">
        <ele>39.549999999999997</ele>
        <time>2023-08-24T10:31:38Z</time>
      </trkpt>
      <trkpt lat="58.514655036851764" lon="-4.695475017651916">
        <ele>39.549999999999997</ele>
        <time>2023-08-24T10:31:39Z</time>
      </trkpt>
      <trkpt lat="58.514747992157936" lon="-4.695221967995167">
        <ele>40.030000000000001</ele>
        <time>2023-08-24T10:31:40Z</time>
      </trkpt>
      <trkpt lat="58.514838013797998" lon="-4.694974031299353">
        <ele>40.030000000000001</ele>
        <time>2023-08-24T10:31:41Z</time>
      </trkpt>
      <trkpt lat="58.515073964372277" lon="-4.694328038021922">
        <ele>40.509999999999998</ele>
        <time>2023-08-24T10:31:44Z</time>
      </trkpt>
      <trkpt lat="58.515173960477114" lon="-4.694144977256656">
        <ele>40.509999999999998</ele>
        <time>2023-08-24T10:31:45Z</time>
      </trkpt>
      <trkpt lat="58.515286026522517" lon="-4.693967029452324">
        <ele>40.990000000000002</ele>
        <time>2023-08-24T10:31:46Z</time>
      </trkpt>
      <trkpt lat="58.516289005056024" lon="-4.693001015111804">
        <ele>41.469999999999999</ele>
        <time>2023-08-24T10:31:54Z</time>
      </trkpt>
      <trkpt lat="58.517910987138748" lon="-4.692036006599665">
        <ele>43.399999999999999</ele>
        <time>2023-08-24T10:32:05Z</time>
      </trkpt>
      <trkpt lat="58.518050964921713" lon="-4.6918960288167">
        <ele>43.880000000000003</ele>
        <time>2023-08-24T10:32:06Z</time>
      </trkpt>
      <trkpt lat="58.518205024302006" lon="-4.691741969436407">
        <ele>43.880000000000003</ele>
        <time>2023-08-24T10:32:07Z</time>
      </trkpt>
      <trkpt lat="58.518306026235223" lon="-4.691521022468805">
        <ele>44.359999999999999</ele>
        <time>2023-08-24T10:32:08Z</time>
      </trkpt>
      <trkpt lat="58.518419014289975" lon="-4.691278031095862">
        <ele>44.359999999999999</ele>
        <time>2023-08-24T10:32:09Z</time>
      </trkpt>
      <trkpt lat="58.518530996516347" lon="-4.691032022237778">
        <ele>44.840000000000003</ele>
        <time>2023-08-24T10:32:10Z</time>
      </trkpt>
      <trkpt lat="58.518643984571099" lon="-4.690788025036454">
        <ele>45.32</ele>
        <time>2023-08-24T10:32:11Z</time>
      </trkpt>
      <trkpt lat="58.519586026668549" lon="-4.688944006338716">
        <ele>47.240000000000002</ele>
        <time>2023-08-24T10:32:19Z</time>
      </trkpt>
      <trkpt lat="58.520294968038797" lon="-4.687185985967517">
        <ele>47.240000000000002</ele>
        <time>2023-08-24T10:32:27Z</time>
      </trkpt>
      <trkpt lat="58.520361017435789" lon="-4.68699999153614">
        <ele>46.280000000000001</ele>
        <time>2023-08-24T10:32:32Z</time>
      </trkpt>
      <trkpt lat="58.520361017435789" lon="-4.68699999153614">
        <ele>46.280000000000001</ele>
        <time>2023-08-24T10:33:02Z</time>
      </trkpt>
      <trkpt lat="58.520409967750311" lon="-4.686862025409937">
        <ele>46.759999999999998</ele>
        <time>2023-08-24T10:33:38Z</time>
      </trkpt>
      <trkpt lat="58.520480040460825" lon="-4.686663961037993">
        <ele>45.799999999999997</ele>
        <time>2023-08-24T10:33:50Z</time>
      </trkpt>
      <trkpt lat="58.520847000181675" lon="-4.685702975839376">
        <ele>44.359999999999999</ele>
        <time>2023-08-24T10:33:56Z</time>
      </trkpt>
      <trkpt lat="58.520936015993357" lon="-4.685546988621354">
        <ele>43.880000000000003</ele>
        <time>2023-08-24T10:33:57Z</time>
      </trkpt>
      <trkpt lat="58.521027965471148" lon="-4.685386978089809">
        <ele>43.399999999999999</ele>
        <time>2023-08-24T10:33:58Z</time>
      </trkpt>
      <trkpt lat="58.521142965182662" lon="-4.685293016955257">
        <ele>43.399999999999999</ele>
        <time>2023-08-24T10:33:59Z</time>
      </trkpt>
      <trkpt lat="58.521263999864459" lon="-4.685205006971955">
        <ele>42.920000000000002</ele>
        <time>2023-08-24T10:34:00Z</time>
      </trkpt>
      <trkpt lat="58.521386962383986" lon="-4.685115991160274">
        <ele>42.920000000000002</ele>
        <time>2023-08-24T10:34:01Z</time>
      </trkpt>
      <trkpt lat="58.521525012329221" lon="-4.685082966461778">
        <ele>42.439999999999998</ele>
        <time>2023-08-24T10:34:02Z</time>
      </trkpt>
      <trkpt lat="58.521665995940566" lon="-4.685075003653765">
        <ele>42.920000000000002</ele>
        <time>2023-08-24T10:34:03Z</time>
      </trkpt>
      <trkpt lat="58.52324103936553" lon="-4.684716006740928">
        <ele>42.920000000000002</ele>
        <time>2023-08-24T10:34:14Z</time>
      </trkpt>
      <trkpt lat="58.523383028805256" lon="-4.684616010636091">
        <ele>42.920000000000002</ele>
        <time>2023-08-24T10:34:15Z</time>
      </trkpt>
      <trkpt lat="58.523518983274698" lon="-4.684478966519237">
        <ele>43.399999999999999</ele>
        <time>2023-08-24T10:34:16Z</time>
      </trkpt>
      <trkpt lat="58.523993985727429" lon="-4.683898016810417">
        <ele>42.439999999999998</ele>
        <time>2023-08-24T10:34:20Z</time>
      </trkpt>
      <trkpt lat="58.524132035672665" lon="-4.68384001404047">
        <ele>42.439999999999998</ele>
        <time>2023-08-24T10:34:21Z</time>
      </trkpt>
      <trkpt lat="58.52427301928401" lon="-4.683806989341974">
        <ele>43.399999999999999</ele>
        <time>2023-08-24T10:34:22Z</time>
      </trkpt>
      <trkpt lat="58.524420037865639" lon="-4.68379600904882">
        <ele>43.880000000000003</ele>
        <time>2023-08-24T10:34:23Z</time>
      </trkpt>
      <trkpt lat="58.524560015648603" lon="-4.68385904096067">
        <ele>44.359999999999999</ele>
        <time>2023-08-24T10:34:24Z</time>
      </trkpt>
      <trkpt lat="58.524705022573471" lon="-4.683922994881868">
        <ele>44.840000000000003</ele>
        <time>2023-08-24T10:34:25Z</time>
      </trkpt>
      <trkpt lat="58.524852963164449" lon="-4.68398803845048">
        <ele>45.32</ele>
        <time>2023-08-24T10:34:26Z</time>
      </trkpt>
      <trkpt lat="58.524965029209852" lon="-4.684037994593382">
        <ele>45.799999999999997</ele>
        <time>2023-08-24T10:34:27Z</time>
      </trkpt>
      <trkpt lat="58.525126967579126" lon="-4.683984015136957">
        <ele>46.280000000000001</ele>
        <time>2023-08-24T10:34:28Z</time>
      </trkpt>
      <trkpt lat="58.525272980332375" lon="-4.683935986831784">
        <ele>46.280000000000001</ele>
        <time>2023-08-24T10:34:29Z</time>
      </trkpt>
      <trkpt lat="58.525416981428862" lon="-4.683841019868851">
        <ele>46.759999999999998</ele>
        <time>2023-08-24T10:34:30Z</time>
      </trkpt>
      <trkpt lat="58.525560982525349" lon="-4.683692995458841">
        <ele>46.759999999999998</ele>
        <time>2023-08-24T10:34:31Z</time>
      </trkpt>
      <trkpt lat="58.525709006935358" lon="-4.683541031554341">
        <ele>47.240000000000002</ele>
        <time>2023-08-24T10:34:32Z</time>
      </trkpt>
      <trkpt lat="58.527053967118263" lon="-4.682209985330701">
        <ele>47.240000000000002</ele>
        <time>2023-08-24T10:34:41Z</time>
      </trkpt>
      <trkpt lat="58.528196001425385" lon="-4.681002991273999">
        <ele>45.799999999999997</ele>
        <time>2023-08-24T10:34:48Z</time>
      </trkpt>
      <trkpt lat="58.529908005148172" lon="-4.679280007258058">
        <ele>44.359999999999999</ele>
        <time>2023-08-24T10:34:59Z</time>
      </trkpt>
      <trkpt lat="58.531636018306017" lon="-4.677266003564">
        <ele>41.469999999999999</ele>
        <time>2023-08-24T10:35:10Z</time>
      </trkpt>
      <trkpt lat="58.532227026298642" lon="-4.676595032215118">
        <ele>41.950000000000003</ele>
        <time>2023-08-24T10:35:14Z</time>
      </trkpt>
      <trkpt lat="58.532387958839536" lon="-4.676497969776392">
        <ele>41.950000000000003</ele>
        <time>2023-08-24T10:35:15Z</time>
      </trkpt>
      <trkpt lat="58.534227032214403" lon="-4.675436988472939">
        <ele>47.240000000000002</ele>
        <time>2023-08-24T10:35:27Z</time>
      </trkpt>
      <trkpt lat="58.534366004168987" lon="-4.675442017614842">
        <ele>47.719999999999999</ele>
        <time>2023-08-24T10:35:28Z</time>
      </trkpt>
      <trkpt lat="58.534498019143939" lon="-4.675447968766093">
        <ele>48.200000000000003</ele>
        <time>2023-08-24T10:35:29Z</time>
      </trkpt>
      <trkpt lat="58.534631039947271" lon="-4.675452997907996">
        <ele>48.68</ele>
        <time>2023-08-24T10:35:30Z</time>
      </trkpt>
      <trkpt lat="58.535861000418663" lon="-4.676037970930338">
        <ele>51.57</ele>
        <time>2023-08-24T10:35:38Z</time>
      </trkpt>
      <trkpt lat="58.537052990868688" lon="-4.675949038937688">
        <ele>51.090000000000003</ele>
        <time>2023-08-24T10:35:45Z</time>
      </trkpt>
      <trkpt lat="58.53875401429832" lon="-4.675550982356072">
        <ele>49.649999999999999</ele>
        <time>2023-08-24T10:35:55Z</time>
      </trkpt>
      <trkpt lat="58.540222020819783" lon="-4.675604039803147">
        <ele>48.200000000000003</ele>
        <time>2023-08-24T10:36:03Z</time>
      </trkpt>
      <trkpt lat="58.540640026330948" lon="-4.675460960716009">
        <ele>46.759999999999998</ele>
        <time>2023-08-24T10:36:07Z</time>
      </trkpt>
      <trkpt lat="58.541222987696528" lon="-4.675193997099996">
        <ele>44.359999999999999</ele>
        <time>2023-08-24T10:36:13Z</time>
      </trkpt>
      <trkpt lat="58.541351985186338" lon="-4.675128031522036">
        <ele>43.880000000000003</ele>
        <time>2023-08-24T10:36:14Z</time>
      </trkpt>
      <trkpt lat="58.54148400016129" lon="-4.675046978518367">
        <ele>42.920000000000002</ele>
        <time>2023-08-24T10:36:15Z</time>
      </trkpt>
      <trkpt lat="58.541608974337578" lon="-4.674896020442247">
        <ele>42.439999999999998</ele>
        <time>2023-08-24T10:36:16Z</time>
      </trkpt>
      <trkpt lat="58.541737971827388" lon="-4.674739027395845">
        <ele>41.950000000000003</ele>
        <time>2023-08-24T10:36:17Z</time>
      </trkpt>
      <trkpt lat="58.541873004287481" lon="-4.674574993550777">
        <ele>41.950000000000003</ele>
        <time>2023-08-24T10:36:18Z</time>
      </trkpt>
      <trkpt lat="58.542669033631682" lon="-4.673404041677713">
        <ele>40.990000000000002</ele>
        <time>2023-08-24T10:36:24Z</time>
      </trkpt>
      <trkpt lat="58.542795013636351" lon="-4.673292981460691">
        <ele>40.990000000000002</ele>
        <time>2023-08-24T10:36:25Z</time>
      </trkpt>
      <trkpt lat="58.542919987812638" lon="-4.673245036974549">
        <ele>40.990000000000002</ele>
        <time>2023-08-24T10:36:26Z</time>
      </trkpt>
      <trkpt lat="58.543053008615971" lon="-4.673210000619292">
        <ele>40.990000000000002</ele>
        <time>2023-08-24T10:36:27Z</time>
      </trkpt>
      <trkpt lat="58.543197009712458" lon="-4.673261968418956">
        <ele>40.990000000000002</ele>
        <time>2023-08-24T10:36:28Z</time>
      </trkpt>
      <trkpt lat="58.543354002758861" lon="-4.673318965360522">
        <ele>41.469999999999999</ele>
        <time>2023-08-24T10:36:29Z</time>
      </trkpt>
      <trkpt lat="58.544827038422227" lon="-4.673749962821603">
        <ele>41.950000000000003</ele>
        <time>2023-08-24T10:36:38Z</time>
      </trkpt>
      <trkpt lat="58.54670399799943" lon="-4.674310963600874">
        <ele>37.149999999999999</ele>
        <time>2023-08-24T10:36:50Z</time>
      </trkpt>
      <trkpt lat="58.54734898544848" lon="-4.674469968304038">
        <ele>32.340000000000003</ele>
        <time>2023-08-24T10:36:56Z</time>
      </trkpt>
      <trkpt lat="58.547430960461497" lon="-4.674544986337423">
        <ele>31.379999999999999</ele>
        <time>2023-08-24T10:36:57Z</time>
      </trkpt>
      <trkpt lat="58.547512013465166" lon="-4.674618998542428">
        <ele>29.940000000000001</ele>
        <time>2023-08-24T10:36:58Z</time>
      </trkpt>
      <trkpt lat="58.547591976821423" lon="-4.674711031839252">
        <ele>28.98</ele>
        <time>2023-08-24T10:36:59Z</time>
      </trkpt>
      <trkpt lat="58.547648973762989" lon="-4.674856960773468">
        <ele>28.5</ele>
        <time>2023-08-24T10:37:00Z</time>
      </trkpt>
      <trkpt lat="58.547705970704556" lon="-4.675002973526716">
        <ele>27.530000000000001</ele>
        <time>2023-08-24T10:37:01Z</time>
      </trkpt>
      <trkpt lat="58.547774031758308" lon="-4.675175976008177">
        <ele>26.57</ele>
        <time>2023-08-24T10:37:02Z</time>
      </trkpt>
      <trkpt lat="58.547806972637773" lon="-4.675296004861593">
        <ele>26.09</ele>
        <time>2023-08-24T10:37:03Z</time>
      </trkpt>
      <trkpt lat="58.547848965972662" lon="-4.675446962937713">
        <ele>25.609999999999999</ele>
        <time>2023-08-24T10:37:04Z</time>
      </trkpt>
      <trkpt lat="58.54812397621572" lon="-4.676395962014794">
        <ele>23.690000000000001</ele>
        <time>2023-08-24T10:37:11Z</time>
      </trkpt>
      <trkpt lat="58.548167981207371" lon="-4.676540968939662">
        <ele>24.170000000000002</ele>
        <time>2023-08-24T10:37:12Z</time>
      </trkpt>
      <trkpt lat="58.548215003684163" lon="-4.676670972257853">
        <ele>24.170000000000002</ele>
        <time>2023-08-24T10:37:13Z</time>
      </trkpt>
      <trkpt lat="58.54829203337431" lon="-4.676760993897915">
        <ele>24.649999999999999</ele>
        <time>2023-08-24T10:37:14Z</time>
      </trkpt>
      <trkpt lat="58.548368979245424" lon="-4.676851015537977">
        <ele>24.649999999999999</ele>
        <time>2023-08-24T10:37:15Z</time>
      </trkpt>
      <trkpt lat="58.548449026420712" lon="-4.67694497667253">
        <ele>25.129999999999999</ele>
        <time>2023-08-24T10:37:16Z</time>
      </trkpt>
      <trkpt lat="58.548537036404014" lon="-4.677047990262508">
        <ele>25.129999999999999</ele>
        <time>2023-08-24T10:37:17Z</time>
      </trkpt>
      <trkpt lat="58.549015978351235" lon="-4.67769498936832">
        <ele>28.02</ele>
        <time>2023-08-24T10:37:22Z</time>
      </trkpt>
      <trkpt lat="58.549085967242718" lon="-4.677874026820064">
        <ele>28.5</ele>
        <time>2023-08-24T10:37:23Z</time>
      </trkpt>
      <trkpt lat="58.549152016639709" lon="-4.678073013201356">
        <ele>28.98</ele>
        <time>2023-08-24T10:37:24Z</time>
      </trkpt>
      <trkpt lat="58.54917598888278" lon="-4.678306030109525">
        <ele>29.940000000000001</ele>
        <time>2023-08-24T10:37:25Z</time>
      </trkpt>
      <trkpt lat="58.549200966954231" lon="-4.678550027310848">
        <ele>30.899999999999999</ele>
        <time>2023-08-24T10:37:26Z</time>
      </trkpt>
      <trkpt lat="58.549187975004315" lon="-4.678831994533539">
        <ele>31.379999999999999</ele>
        <time>2023-08-24T10:37:27Z</time>
      </trkpt>
      <trkpt lat="58.549152016639709" lon="-4.679109016433358">
        <ele>31.859999999999999</ele>
        <time>2023-08-24T10:37:28Z</time>
      </trkpt>
      <trkpt lat="58.549113962799311" lon="-4.679391989484429">
        <ele>32.82</ele>
        <time>2023-08-24T10:37:29Z</time>
      </trkpt>
      <trkpt lat="58.549038022756577" lon="-4.67967102304101">
        <ele>33.780000000000001</ele>
        <time>2023-08-24T10:37:30Z</time>
      </trkpt>
      <trkpt lat="58.548954036086798" lon="-4.679927006363869">
        <ele>34.740000000000002</ele>
        <time>2023-08-24T10:37:31Z</time>
      </trkpt>
      <trkpt lat="58.548879018053412" lon="-4.680158011615276">
        <ele>35.710000000000001</ele>
        <time>2023-08-24T10:37:32Z</time>
      </trkpt>
      <trkpt lat="58.548759995028377" lon="-4.680521031841636">
        <ele>38.590000000000003</ele>
        <time>2023-08-24T10:37:34Z</time>
      </trkpt>
      <trkpt lat="58.548743985593319" lon="-4.6806610096246">
        <ele>40.030000000000001</ele>
        <time>2023-08-24T10:37:35Z</time>
      </trkpt>
      <trkpt lat="58.548753038048744" lon="-4.680838035419583">
        <ele>41.469999999999999</ele>
        <time>2023-08-24T10:37:36Z</time>
      </trkpt>
      <trkpt lat="58.54876602999866" lon="-4.680997962132096">
        <ele>42.920000000000002</ele>
        <time>2023-08-24T10:37:37Z</time>
      </trkpt>
      <trkpt lat="58.548841970041394" lon="-4.681099969893694">
        <ele>44.359999999999999</ele>
        <time>2023-08-24T10:37:38Z</time>
      </trkpt>
      <trkpt lat="58.548954036086798" lon="-4.681249000132084">
        <ele>45.32</ele>
        <time>2023-08-24T10:37:39Z</time>
      </trkpt>
      <trkpt lat="58.54904598556459" lon="-4.681275989860296">
        <ele>46.759999999999998</ele>
        <time>2023-08-24T10:37:40Z</time>
      </trkpt>
      <trkpt lat="58.54917598888278" lon="-4.681313037872315">
        <ele>47.719999999999999</ele>
        <time>2023-08-24T10:37:41Z</time>
      </trkpt>
      <trkpt lat="58.550039995461702" lon="-4.681604979559779">
        <ele>57.340000000000003</ele>
        <time>2023-08-24T10:37:47Z</time>
      </trkpt>
      <trkpt lat="58.550161030143499" lon="-4.681726014241576">
        <ele>58.780000000000001</ele>
        <time>2023-08-24T10:37:48Z</time>
      </trkpt>
      <trkpt lat="58.550265971571207" lon="-4.681888958439231">
        <ele>60.219999999999999</ele>
        <time>2023-08-24T10:37:49Z</time>
      </trkpt>
      <trkpt lat="58.550777016207576" lon="-4.682809039950371">
        <ele>64.549999999999997</ele>
        <time>2023-08-24T10:37:54Z</time>
      </trkpt>
      <trkpt lat="58.550845999270678" lon="-4.68304599635303">
        <ele>65.510000000000005</ele>
        <time>2023-08-24T10:37:55Z</time>
      </trkpt>
      <trkpt lat="58.550921017304063" lon="-4.683299968019128">
        <ele>65.510000000000005</ele>
        <time>2023-08-24T10:37:56Z</time>
      </trkpt>
      <trkpt lat="58.551080022007227" lon="-4.684071019291878">
        <ele>66.469999999999999</ele>
        <time>2023-08-24T10:37:59Z</time>
      </trkpt>
      <trkpt lat="58.5511090233922" lon="-4.684322979301214">
        <ele>67.430000000000007</ele>
        <time>2023-08-24T10:38:00Z</time>
      </trkpt>
      <trkpt lat="58.551356038078666" lon="-4.686650969088078">
        <ele>62.619999999999997</ele>
        <time>2023-08-24T10:38:08Z</time>
      </trkpt>
      <trkpt lat="58.551660971716046" lon="-4.689369974657893">
        <ele>55.409999999999997</ele>
        <time>2023-08-24T10:38:17Z</time>
      </trkpt>
      <trkpt lat="58.551678992807865" lon="-4.6896390337497">
        <ele>54.450000000000003</ele>
        <time>2023-08-24T10:38:18Z</time>
      </trkpt>
      <trkpt lat="58.55173397809267" lon="-4.689910020679236">
        <ele>53.969999999999999</ele>
        <time>2023-08-24T10:38:19Z</time>
      </trkpt>
      <trkpt lat="58.551786029711366" lon="-4.690173966810107">
        <ele>53.009999999999998</ele>
        <time>2023-08-24T10:38:20Z</time>
      </trkpt>
      <trkpt lat="58.551884014159441" lon="-4.690385023131967">
        <ele>52.049999999999997</ele>
        <time>2023-08-24T10:38:21Z</time>
      </trkpt>
      <trkpt lat="58.552013011649251" lon="-4.690559031441808">
        <ele>51.090000000000003</ele>
        <time>2023-08-24T10:38:22Z</time>
      </trkpt>
      <trkpt lat="58.552149971947074" lon="-4.690745025873184">
        <ele>50.130000000000003</ele>
        <time>2023-08-24T10:38:23Z</time>
      </trkpt>
      <trkpt lat="58.55229296721518" lon="-4.690937977284193">
        <ele>49.159999999999997</ele>
        <time>2023-08-24T10:38:24Z</time>
      </trkpt>
      <trkpt lat="58.553398037329316" lon="-4.692490976303816">
        <ele>44.840000000000003</ele>
        <time>2023-08-24T10:38:32Z</time>
      </trkpt>
      <trkpt lat="58.553497027605772" lon="-4.692715024575591">
        <ele>44.359999999999999</ele>
        <time>2023-08-24T10:38:33Z</time>
      </trkpt>
      <trkpt lat="58.553591994568706" lon="-4.692929014563561">
        <ele>44.359999999999999</ele>
        <time>2023-08-24T10:38:34Z</time>
      </trkpt>
      <trkpt lat="58.553674975410104" lon="-4.693115008994937">
        <ele>44.359999999999999</ele>
        <time>2023-08-24T10:38:35Z</time>
      </trkpt>
      <trkpt lat="58.553695008158684" lon="-4.693413991481066">
        <ele>44.359999999999999</ele>
        <time>2023-08-24T10:38:36Z</time>
      </trkpt>
      <trkpt lat="58.553715040907264" lon="-4.693700987845659">
        <ele>43.880000000000003</ele>
        <time>2023-08-24T10:38:37Z</time>
      </trkpt>
      <trkpt lat="58.553735995665193" lon="-4.693997958675027">
        <ele>43.880000000000003</ele>
        <time>2023-08-24T10:38:38Z</time>
      </trkpt>
      <trkpt lat="58.55381797067821" lon="-4.695197995752096">
        <ele>42.439999999999998</ele>
        <time>2023-08-24T10:38:42Z</time>
      </trkpt>
      <trkpt lat="58.553864993155003" lon="-4.695492032915354">
        <ele>41.950000000000003</ele>
        <time>2023-08-24T10:38:43Z</time>
      </trkpt>
      <trkpt lat="58.554425993934274" lon="-4.698522007092834">
        <ele>34.259999999999998</ele>
        <time>2023-08-24T10:38:53Z</time>
      </trkpt>
      <trkpt lat="58.554425993934274" lon="-4.69881403259933">
        <ele>33.299999999999997</ele>
        <time>2023-08-24T10:38:54Z</time>
      </trkpt>
      <trkpt lat="58.554425993934274" lon="-4.699117038398981">
        <ele>32.340000000000003</ele>
        <time>2023-08-24T10:38:55Z</time>
      </trkpt>
      <trkpt lat="58.554399004206061" lon="-4.699424989521503">
        <ele>30.899999999999999</ele>
        <time>2023-08-24T10:38:56Z</time>
      </trkpt>
      <trkpt lat="58.554364973679185" lon="-4.699719026684761">
        <ele>29.940000000000001</ele>
        <time>2023-08-24T10:38:57Z</time>
      </trkpt>
      <trkpt lat="58.554203035309911" lon="-4.701392976567149">
        <ele>25.129999999999999</ele>
        <time>2023-08-24T10:39:04Z</time>
      </trkpt>
      <trkpt lat="58.554087029770017" lon="-4.703772012144327">
        <ele>18.399999999999999</ele>
        <time>2023-08-24T10:39:13Z</time>
      </trkpt>
      <trkpt lat="58.554083006456494" lon="-4.704010980203748">
        <ele>17.440000000000001</ele>
        <time>2023-08-24T10:39:14Z</time>
      </trkpt>
      <trkpt lat="58.554119970649481" lon="-4.70422899350524">
        <ele>16.960000000000001</ele>
        <time>2023-08-24T10:39:15Z</time>
      </trkpt>
      <trkpt lat="58.554167998954654" lon="-4.704452035948634">
        <ele>16</ele>
        <time>2023-08-24T10:39:16Z</time>
      </trkpt>
      <trkpt lat="58.554227007552981" lon="-4.70465898513794">
        <ele>15.52</ele>
        <time>2023-08-24T10:39:17Z</time>
      </trkpt>
      <trkpt lat="58.554301019757986" lon="-4.704871969297528">
        <ele>15.039999999999999</ele>
        <time>2023-08-24T10:39:18Z</time>
      </trkpt>
      <trkpt lat="58.554382994771004" lon="-4.7051100153476">
        <ele>14.08</ele>
        <time>2023-08-24T10:39:19Z</time>
      </trkpt>
      <trkpt lat="58.554466981440783" lon="-4.705277988687158">
        <ele>14.08</ele>
        <time>2023-08-24T10:39:20Z</time>
      </trkpt>
      <trkpt lat="58.554562032222748" lon="-4.705468006432056">
        <ele>13.6</ele>
        <time>2023-08-24T10:39:21Z</time>
      </trkpt>
      <trkpt lat="58.55488901026547" lon="-4.706100001931191">
        <ele>14.08</ele>
        <time>2023-08-24T10:39:25Z</time>
      </trkpt>
      <trkpt lat="58.554967967793345" lon="-4.706209972500801">
        <ele>14.08</ele>
        <time>2023-08-24T10:39:26Z</time>
      </trkpt>
      <trkpt lat="58.555047009140253" lon="-4.70629395917058">
        <ele>14.56</ele>
        <time>2023-08-24T10:39:27Z</time>
      </trkpt>
      <trkpt lat="58.55514700524509" lon="-4.706316003575921">
        <ele>14.56</ele>
        <time>2023-08-24T10:39:28Z</time>
      </trkpt>
      <trkpt lat="58.555220011621714" lon="-4.706333018839359">
        <ele>15.039999999999999</ele>
        <time>2023-08-24T10:39:29Z</time>
      </trkpt>
      <trkpt lat="58.555334005504847" lon="-4.706263029947877">
        <ele>15.039999999999999</ele>
        <time>2023-08-24T10:39:30Z</time>
      </trkpt>
      <trkpt lat="58.555430984124541" lon="-4.706202009692788">
        <ele>15.52</ele>
        <time>2023-08-24T10:39:31Z</time>
      </trkpt>
      <trkpt lat="58.555536009371281" lon="-4.706136966124177">
        <ele>16</ele>
        <time>2023-08-24T10:39:32Z</time>
      </trkpt>
      <trkpt lat="58.555644974112511" lon="-4.706069994717836">
        <ele>16.960000000000001</ele>
        <time>2023-08-24T10:39:33Z</time>
      </trkpt>
      <trkpt lat="58.555766008794308" lon="-4.706049039959908">
        <ele>17.440000000000001</ele>
        <time>2023-08-24T10:39:34Z</time>
      </trkpt>
      <trkpt lat="58.555875979363918" lon="-4.706043004989624">
        <ele>17.920000000000002</ele>
        <time>2023-08-24T10:39:35Z</time>
      </trkpt>
      <trkpt lat="58.555982010439038" lon="-4.706036970019341">
        <ele>18.879999999999999</ele>
        <time>2023-08-24T10:39:36Z</time>
      </trkpt>
      <trkpt lat="58.556096004322171" lon="-4.706048034131527">
        <ele>19.84</ele>
        <time>2023-08-24T10:39:37Z</time>
      </trkpt>
      <trkpt lat="58.556209998205304" lon="-4.706094972789288">
        <ele>20.32</ele>
        <time>2023-08-24T10:39:38Z</time>
      </trkpt>
      <trkpt lat="58.557468960061669" lon="-4.706612974405289">
        <ele>27.530000000000001</ele>
        <time>2023-08-24T10:39:48Z</time>
      </trkpt>
      <trkpt lat="58.557817982509732" lon="-4.706811038777232">
        <ele>29.940000000000001</ele>
        <time>2023-08-24T10:39:51Z</time>
      </trkpt>
      <trkpt lat="58.557926025241613" lon="-4.706939030438662">
        <ele>30.420000000000002</ele>
        <time>2023-08-24T10:39:52Z</time>
      </trkpt>
      <trkpt lat="58.558039013296366" lon="-4.707085965201259">
        <ele>31.379999999999999</ele>
        <time>2023-08-24T10:39:53Z</time>
      </trkpt>
      <trkpt lat="58.558106990531087" lon="-4.707289980724454">
        <ele>31.859999999999999</ele>
        <time>2023-08-24T10:39:54Z</time>
      </trkpt>
      <trkpt lat="58.558172034099698" lon="-4.707487039268017">
        <ele>32.340000000000003</ele>
        <time>2023-08-24T10:39:55Z</time>
      </trkpt>
      <trkpt lat="58.558219978585839" lon="-4.707678984850645">
        <ele>32.82</ele>
        <time>2023-08-24T10:39:56Z</time>
      </trkpt>
      <trkpt lat="58.558257026597857" lon="-4.707837989553809">
        <ele>33.780000000000001</ele>
        <time>2023-08-24T10:39:57Z</time>
      </trkpt>
      <trkpt lat="58.558272030204535" lon="-4.707950977608562">
        <ele>34.259999999999998</ele>
        <time>2023-08-24T10:39:58Z</time>
      </trkpt>
      <trkpt lat="58.558276975527406" lon="-4.708019038662314">
        <ele>34.740000000000002</ele>
        <time>2023-08-24T10:39:59Z</time>
      </trkpt>
      <trkpt lat="58.55828401632607" lon="-4.708119034767151">
        <ele>37.149999999999999</ele>
        <time>2023-08-24T10:40:09Z</time>
      </trkpt>
      <trkpt lat="58.558289967477322" lon="-4.708209978416562">
        <ele>37.149999999999999</ele>
        <time>2023-08-24T10:40:18Z</time>
      </trkpt>
      <trkpt lat="58.558294996619225" lon="-4.708288013935089">
        <ele>37.149999999999999</ele>
        <time>2023-08-24T10:40:19Z</time>
      </trkpt>
      <trkpt lat="58.558303965255618" lon="-4.708410976454616">
        <ele>37.149999999999999</ele>
        <time>2023-08-24T10:40:20Z</time>
      </trkpt>
      <trkpt lat="58.558315029367805" lon="-4.708568975329399">
        <ele>37.630000000000003</ele>
        <time>2023-08-24T10:40:21Z</time>
      </trkpt>
      <trkpt lat="58.55832701548934" lon="-4.708752958104014">
        <ele>37.630000000000003</ele>
        <time>2023-08-24T10:40:22Z</time>
      </trkpt>
      <trkpt lat="58.558447966352105" lon="-4.710498992353678">
        <ele>38.109999999999999</ele>
        <time>2023-08-24T10:40:29Z</time>
      </trkpt>
      <trkpt lat="58.558480991050601" lon="-4.711179016157985">
        <ele>38.590000000000003</ele>
        <time>2023-08-24T10:40:32Z</time>
      </trkpt>
      <trkpt lat="58.55847897939384" lon="-4.711410021409392">
        <ele>38.590000000000003</ele>
        <time>2023-08-24T10:40:33Z</time>
      </trkpt>
      <trkpt lat="58.558461964130402" lon="-4.71376801840961">
        <ele>38.109999999999999</ele>
        <time>2023-08-24T10:40:44Z</time>
      </trkpt>
      <trkpt lat="58.558460036292672" lon="-4.714015033096075">
        <ele>37.630000000000003</ele>
        <time>2023-08-24T10:40:45Z</time>
      </trkpt>
      <trkpt lat="58.558514015749097" lon="-4.714174959808588">
        <ele>38.109999999999999</ele>
        <time>2023-08-24T10:40:46Z</time>
      </trkpt>
      <trkpt lat="58.558579981327057" lon="-4.71437101252377">
        <ele>38.109999999999999</ele>
        <time>2023-08-24T10:40:47Z</time>
      </trkpt>
      <trkpt lat="58.558649970218539" lon="-4.714578967541456">
        <ele>38.590000000000003</ele>
        <time>2023-08-24T10:40:48Z</time>
      </trkpt>
      <trkpt lat="58.559497967362404" lon="-4.716874016448855">
        <ele>45.32</ele>
        <time>2023-08-24T10:40:59Z</time>
      </trkpt>
      <trkpt lat="58.560018986463547" lon="-4.717928962782025">
        <ele>48.68</ele>
        <time>2023-08-24T10:41:04Z</time>
      </trkpt>
      <trkpt lat="58.560134992003441" lon="-4.718119986355305">
        <ele>49.159999999999997</ele>
        <time>2023-08-24T10:41:05Z</time>
      </trkpt>
      <trkpt lat="58.5613579954952" lon="-4.719348018988967">
        <ele>46.280000000000001</ele>
        <time>2023-08-24T10:41:15Z</time>
      </trkpt>
      <trkpt lat="58.562695998698473" lon="-4.720024019479752">
        <ele>37.630000000000003</ele>
        <time>2023-08-24T10:41:26Z</time>
      </trkpt>
      <trkpt lat="58.563005039468408" lon="-4.720251001417637">
        <ele>36.189999999999998</ele>
        <time>2023-08-24T10:41:29Z</time>
      </trkpt>
      <trkpt lat="58.563087014481425" lon="-4.720344040542841">
        <ele>35.710000000000001</ele>
        <time>2023-08-24T10:41:30Z</time>
      </trkpt>
      <trkpt lat="58.563160020858049" lon="-4.72042802721262">
        <ele>35.229999999999997</ele>
        <time>2023-08-24T10:41:31Z</time>
      </trkpt>
      <trkpt lat="58.5632040258497" lon="-4.720539003610611">
        <ele>34.740000000000002</ele>
        <time>2023-08-24T10:41:32Z</time>
      </trkpt>
      <trkpt lat="58.563235960900784" lon="-4.720657020807266">
        <ele>34.259999999999998</ele>
        <time>2023-08-24T10:41:33Z</time>
      </trkpt>
      <trkpt lat="58.563262028619647" lon="-4.720755005255342">
        <ele>33.780000000000001</ele>
        <time>2023-08-24T10:41:34Z</time>
      </trkpt>
      <trkpt lat="58.563281977549195" lon="-4.720828011631966">
        <ele>33.299999999999997</ele>
        <time>2023-08-24T10:41:35Z</time>
      </trkpt>
      <trkpt lat="58.563293963670731" lon="-4.720875034108758">
        <ele>33.299999999999997</ele>
        <time>2023-08-24T10:41:36Z</time>
      </trkpt>
      <trkpt lat="58.563331011682749" lon="-4.72100998274982">
        <ele>31.859999999999999</ele>
        <time>2023-08-24T10:41:44Z</time>
      </trkpt>
      <trkpt lat="58.563340986147523" lon="-4.721155995503068">
        <ele>31.379999999999999</ele>
        <time>2023-08-24T10:41:45Z</time>
      </trkpt>
      <trkpt lat="58.563344003632665" lon="-4.721191031858325">
        <ele>31.379999999999999</ele>
        <time>2023-08-24T10:41:46Z</time>
      </trkpt>
      <trkpt lat="58.563346015289426" lon="-4.721220033243299">
        <ele>31.379999999999999</ele>
        <time>2023-08-24T10:41:47Z</time>
      </trkpt>
      <trkpt lat="58.563346015289426" lon="-4.721220033243299">
        <ele>31.379999999999999</ele>
        <time>2023-08-24T10:42:00Z</time>
      </trkpt>
      <trkpt lat="58.5633559897542" lon="-4.721365040168166">
        <ele>30.420000000000002</ele>
        <time>2023-08-24T10:42:12Z</time>
      </trkpt>
      <trkpt lat="58.5633559897542" lon="-4.721365040168166">
        <ele>30.420000000000002</ele>
        <time>2023-08-24T10:42:37Z</time>
      </trkpt>
      <trkpt lat="58.5633559897542" lon="-4.721365040168166">
        <ele>30.899999999999999</ele>
        <time>2023-08-24T10:42:58Z</time>
      </trkpt>
      <trkpt lat="58.563361018896103" lon="-4.7214409802109">
        <ele>30.899999999999999</ele>
        <time>2023-08-24T10:43:25Z</time>
      </trkpt>
      <trkpt lat="58.563531003892422" lon="-4.721465036273003">
        <ele>37.149999999999999</ele>
        <time>2023-08-24T11:18:21Z</time>
      </trkpt>
      <trkpt lat="58.563494039699435" lon="-4.721477022394538">
        <ele>30.899999999999999</ele>
        <time>2023-08-24T11:18:45Z</time>
      </trkpt>
      <trkpt lat="58.56337602250278" lon="-4.721385994926095">
        <ele>30.899999999999999</ele>
        <time>2023-08-24T11:18:57Z</time>
      </trkpt>
      <trkpt lat="58.563359007239342" lon="-4.721387000754476">
        <ele>31.859999999999999</ele>
        <time>2023-08-24T11:19:07Z</time>
      </trkpt>
      <trkpt lat="58.563363030552864" lon="-4.721468975767493">
        <ele>31.379999999999999</ele>
        <time>2023-08-24T11:19:10Z</time>
      </trkpt>
      <trkpt lat="58.563423966988921" lon="-4.722334994003177">
        <ele>29.460000000000001</ele>
        <time>2023-08-24T11:19:17Z</time>
      </trkpt>
      <trkpt lat="58.563461015000939" lon="-4.722845032811165">
        <ele>30.899999999999999</ele>
        <time>2023-08-24T11:19:21Z</time>
      </trkpt>
      <trkpt lat="58.563470989465714" lon="-4.722991967573762">
        <ele>30.899999999999999</ele>
        <time>2023-08-24T11:19:22Z</time>
      </trkpt>
      <trkpt lat="58.563480963930488" lon="-4.72313404083252">
        <ele>31.379999999999999</ele>
        <time>2023-08-24T11:19:23Z</time>
      </trkpt>
      <trkpt lat="58.563552964478731" lon="-4.723413996398449">
        <ele>32.340000000000003</ele>
        <time>2023-08-24T11:19:25Z</time>
      </trkpt>
      <trkpt lat="58.564006006345153" lon="-4.725334960967302">
        <ele>39.07</ele>
        <time>2023-08-24T11:19:36Z</time>
      </trkpt>
      <trkpt lat="58.56434497050941" lon="-4.728535003960133">
        <ele>45.32</ele>
        <time>2023-08-24T11:19:50Z</time>
      </trkpt>
      <trkpt lat="58.564276993274689" lon="-4.730102000758052">
        <ele>43.880000000000003</ele>
        <time>2023-08-24T11:19:56Z</time>
      </trkpt>
      <trkpt lat="58.564294008538127" lon="-4.730379022657871">
        <ele>43.399999999999999</ele>
        <time>2023-08-24T11:19:57Z</time>
      </trkpt>
      <trkpt lat="58.564317980781198" lon="-4.730643974617124">
        <ele>42.439999999999998</ele>
        <time>2023-08-24T11:19:58Z</time>
      </trkpt>
      <trkpt lat="58.56438796967268" lon="-4.730933988466859">
        <ele>41.469999999999999</ele>
        <time>2023-08-24T11:19:59Z</time>
      </trkpt>
      <trkpt lat="58.564455024898052" lon="-4.731210004538298">
        <ele>40.509999999999998</ele>
        <time>2023-08-24T11:20:00Z</time>
      </trkpt>
      <trkpt lat="58.564521996304393" lon="-4.731485014781356">
        <ele>40.030000000000001</ele>
        <time>2023-08-24T11:20:01Z</time>
      </trkpt>
      <trkpt lat="58.565051984041929" lon="-4.733799006789923">
        <ele>36.189999999999998</ele>
        <time>2023-08-24T11:20:10Z</time>
      </trkpt>
      <trkpt lat="58.565078973770142" lon="-4.733977038413286">
        <ele>36.189999999999998</ele>
        <time>2023-08-24T11:20:11Z</time>
      </trkpt>
      <trkpt lat="58.565157009288669" lon="-4.73422204144299">
        <ele>36.189999999999998</ele>
        <time>2023-08-24T11:20:13Z</time>
      </trkpt>
      <trkpt lat="58.565210988745093" lon="-4.734357995912433">
        <ele>35.710000000000001</ele>
        <time>2023-08-24T11:20:14Z</time>
      </trkpt>
      <trkpt lat="58.565272009000182" lon="-4.734570980072022">
        <ele>35.710000000000001</ele>
        <time>2023-08-24T11:20:15Z</time>
      </trkpt>
      <trkpt lat="58.565348032861948" lon="-4.735193001106381">
        <ele>33.780000000000001</ele>
        <time>2023-08-24T11:20:20Z</time>
      </trkpt>
      <trkpt lat="58.565382985398173" lon="-4.735204987227917">
        <ele>32.82</ele>
        <time>2023-08-24T11:20:21Z</time>
      </trkpt>
      <trkpt lat="58.565426990389824" lon="-4.735220996662974">
        <ele>32.340000000000003</ele>
        <time>2023-08-24T11:20:22Z</time>
      </trkpt>
      <trkpt lat="58.565469989553094" lon="-4.735236000269651">
        <ele>31.379999999999999</ele>
        <time>2023-08-24T11:20:23Z</time>
      </trkpt>
      <trkpt lat="58.565515000373125" lon="-4.735252009704709">
        <ele>30.899999999999999</ele>
        <time>2023-08-24T11:20:24Z</time>
      </trkpt>
      <trkpt lat="58.565624970942736" lon="-4.735289979726076">
        <ele>29.460000000000001</ele>
        <time>2023-08-24T11:20:26Z</time>
      </trkpt>
      <trkpt lat="58.565689008682966" lon="-4.735312024131417">
        <ele>28.98</ele>
        <time>2023-08-24T11:20:27Z</time>
      </trkpt>
      <trkpt lat="58.565777018666267" lon="-4.735343959182501">
        <ele>28.02</ele>
        <time>2023-08-24T11:20:28Z</time>
      </trkpt>
      <trkpt lat="58.565823035314679" lon="-4.735442027449608">
        <ele>27.530000000000001</ele>
        <time>2023-08-24T11:20:29Z</time>
      </trkpt>
      <trkpt lat="58.565871985629201" lon="-4.735546968877316">
        <ele>26.57</ele>
        <time>2023-08-24T11:20:30Z</time>
      </trkpt>
      <trkpt lat="58.565924037247896" lon="-4.7356600407511">
        <ele>26.09</ele>
        <time>2023-08-24T11:20:31Z</time>
      </trkpt>
      <trkpt lat="58.565980028361082" lon="-4.735779985785484">
        <ele>24.649999999999999</ele>
        <time>2023-08-24T11:20:32Z</time>
      </trkpt>
      <trkpt lat="58.566853003576398" lon="-4.737466005608439">
        <ele>12.15</ele>
        <time>2023-08-24T11:20:45Z</time>
      </trkpt>
      <trkpt lat="58.567490028217435" lon="-4.739088993519545">
        <ele>5.42</ele>
        <time>2023-08-24T11:20:55Z</time>
      </trkpt>
      <trkpt lat="58.567621959373355" lon="-4.739646976813674">
        <ele>6.39</ele>
        <time>2023-08-24T11:20:59Z</time>
      </trkpt>
      <trkpt lat="58.567634029313922" lon="-4.739744961261749">
        <ele>6.39</ele>
        <time>2023-08-24T11:21:00Z</time>
      </trkpt>
      <trkpt lat="58.567644003778696" lon="-4.739828025922179">
        <ele>6.87</ele>
        <time>2023-08-24T11:21:01Z</time>
      </trkpt>
      <trkpt lat="58.567689014598727" lon="-4.739904971793294">
        <ele>6.39</ele>
        <time>2023-08-24T11:21:02Z</time>
      </trkpt>
      <trkpt lat="58.56773897074163" lon="-4.739991975948215">
        <ele>6.87</ele>
        <time>2023-08-24T11:21:03Z</time>
      </trkpt>
      <trkpt lat="58.567808037623763" lon="-4.74013295955956">
        <ele>6.87</ele>
        <time>2023-08-24T11:21:04Z</time>
      </trkpt>
      <trkpt lat="58.568240040913224" lon="-4.74180799908936">
        <ele>12.630000000000001</ele>
        <time>2023-08-24T11:21:12Z</time>
      </trkpt>
      <trkpt lat="58.568522008135915" lon="-4.744687015190721">
        <ele>26.57</ele>
        <time>2023-08-24T11:21:23Z</time>
      </trkpt>
      <trkpt lat="58.568562995642424" lon="-4.746589958667755">
        <ele>33.299999999999997</ele>
        <time>2023-08-24T11:21:31Z</time>
      </trkpt>
      <trkpt lat="58.568547992035747" lon="-4.746711999177933">
        <ele>33.299999999999997</ele>
        <time>2023-08-24T11:21:32Z</time>
      </trkpt>
      <trkpt lat="58.568585962057114" lon="-4.746850971132517">
        <ele>33.780000000000001</ele>
        <time>2023-08-24T11:21:33Z</time>
      </trkpt>
      <trkpt lat="58.568623010069132" lon="-4.746954990550876">
        <ele>33.780000000000001</ele>
        <time>2023-08-24T11:21:34Z</time>
      </trkpt>
      <trkpt lat="58.568663997575641" lon="-4.747101003304124">
        <ele>33.780000000000001</ele>
        <time>2023-08-24T11:21:35Z</time>
      </trkpt>
      <trkpt lat="58.568694004788995" lon="-4.747272999957204">
        <ele>34.259999999999998</ele>
        <time>2023-08-24T11:21:36Z</time>
      </trkpt>
      <trkpt lat="58.568919980898499" lon="-4.748249994590879">
        <ele>36.670000000000002</ele>
        <time>2023-08-24T11:21:41Z</time>
      </trkpt>
      <trkpt lat="58.569106981158257" lon="-4.74913596175611">
        <ele>39.07</ele>
        <time>2023-08-24T11:21:45Z</time>
      </trkpt>
      <trkpt lat="58.569616014137864" lon="-4.750896999612451">
        <ele>45.799999999999997</ele>
        <time>2023-08-24T11:21:54Z</time>
      </trkpt>
      <trkpt lat="58.570528971031308" lon="-4.75418102927506">
        <ele>55.409999999999997</ele>
        <time>2023-08-24T11:22:09Z</time>
      </trkpt>
      <trkpt lat="58.570727035403252" lon="-4.755421970039606">
        <ele>53.490000000000002</ele>
        <time>2023-08-24T11:22:14Z</time>
      </trkpt>
      <trkpt lat="58.570712031796575" lon="-4.755693040788174">
        <ele>52.530000000000001</ele>
        <time>2023-08-24T11:22:15Z</time>
      </trkpt>
      <trkpt lat="58.570556966587901" lon="-4.758413974195719">
        <ele>52.049999999999997</ele>
        <time>2023-08-24T11:22:24Z</time>
      </trkpt>
      <trkpt lat="58.570468034595251" lon="-4.761666990816593">
        <ele>43.399999999999999</ele>
        <time>2023-08-24T11:22:35Z</time>
      </trkpt>
      <trkpt lat="58.570640031248331" lon="-4.763823989778757">
        <ele>35.229999999999997</ele>
        <time>2023-08-24T11:22:44Z</time>
      </trkpt>
      <trkpt lat="58.570710020139813" lon="-4.764390019699931">
        <ele>33.299999999999997</ele>
        <time>2023-08-24T11:22:47Z</time>
      </trkpt>
      <trkpt lat="58.570742961019278" lon="-4.764569979161024">
        <ele>32.340000000000003</ele>
        <time>2023-08-24T11:22:48Z</time>
      </trkpt>
      <trkpt lat="58.570798030123115" lon="-4.764724038541317">
        <ele>31.859999999999999</ele>
        <time>2023-08-24T11:22:49Z</time>
      </trkpt>
      <trkpt lat="58.570871036499739" lon="-4.76488103158772">
        <ele>31.379999999999999</ele>
        <time>2023-08-24T11:22:50Z</time>
      </trkpt>
      <trkpt lat="58.570950999855995" lon="-4.765027966350317">
        <ele>31.379999999999999</ele>
        <time>2023-08-24T11:22:51Z</time>
      </trkpt>
      <trkpt lat="58.571044960990548" lon="-4.765144977718592">
        <ele>31.379999999999999</ele>
        <time>2023-08-24T11:22:52Z</time>
      </trkpt>
      <trkpt lat="58.571158032864332" lon="-4.765210021287203">
        <ele>30.899999999999999</ele>
        <time>2023-08-24T11:22:53Z</time>
      </trkpt>
      <trkpt lat="58.571271020919085" lon="-4.765273975208402">
        <ele>30.899999999999999</ele>
        <time>2023-08-24T11:22:54Z</time>
      </trkpt>
      <trkpt lat="58.571384008973837" lon="-4.765316974371672">
        <ele>30.899999999999999</ele>
        <time>2023-08-24T11:22:55Z</time>
      </trkpt>
      <trkpt lat="58.572712959721684" lon="-4.765662979334593">
        <ele>27.050000000000001</ele>
        <time>2023-08-24T11:23:06Z</time>
      </trkpt>
      <trkpt lat="58.573682997375727" lon="-4.765917034819722">
        <ele>21.77</ele>
        <time>2023-08-24T11:23:14Z</time>
      </trkpt>
      <trkpt lat="58.573810989037156" lon="-4.765975959599018">
        <ele>21.289999999999999</ele>
        <time>2023-08-24T11:23:15Z</time>
      </trkpt>
      <trkpt lat="58.573920037597418" lon="-4.766102023422718">
        <ele>20.809999999999999</ele>
        <time>2023-08-24T11:23:16Z</time>
      </trkpt>
      <trkpt lat="58.574679018929601" lon="-4.766820017248392">
        <ele>16</ele>
        <time>2023-08-24T11:23:23Z</time>
      </trkpt>
      <trkpt lat="58.574746996164322" lon="-4.766985978931189">
        <ele>15.039999999999999</ele>
        <time>2023-08-24T11:23:24Z</time>
      </trkpt>
      <trkpt lat="58.574810028076172" lon="-4.767142971977592">
        <ele>14.08</ele>
        <time>2023-08-24T11:23:25Z</time>
      </trkpt>
      <trkpt lat="58.575184028595686" lon="-4.768087025731802">
        <ele>5.91</ele>
        <time>2023-08-24T11:23:31Z</time>
      </trkpt>
      <trkpt lat="58.575242031365633" lon="-4.7681890334934">
        <ele>4.46</ele>
        <time>2023-08-24T11:23:32Z</time>
      </trkpt>
      <trkpt lat="58.575315037742257" lon="-4.768237983807921">
        <ele>3.98</ele>
        <time>2023-08-24T11:23:33Z</time>
      </trkpt>
      <trkpt lat="58.575412016361952" lon="-4.768302021548152">
        <ele>3.5</ele>
        <time>2023-08-24T11:23:34Z</time>
      </trkpt>
      <trkpt lat="58.575454009696841" lon="-4.768281988799572">
        <ele>3.5</ele>
        <time>2023-08-24T11:23:35Z</time>
      </trkpt>
      <trkpt lat="58.575528021901846" lon="-4.768247036263347">
        <ele>3.5</ele>
        <time>2023-08-24T11:23:36Z</time>
      </trkpt>
      <trkpt lat="58.576054992154241" lon="-4.768032040446997">
        <ele>6.39</ele>
        <time>2023-08-24T11:23:46Z</time>
      </trkpt>
      <trkpt lat="58.576120035722852" lon="-4.768023993819952">
        <ele>5.91</ele>
        <time>2023-08-24T11:23:57Z</time>
      </trkpt>
      <trkpt lat="58.576120035722852" lon="-4.768023993819952">
        <ele>5.91</ele>
        <time>2023-08-24T11:24:18Z</time>
      </trkpt>
      <trkpt lat="58.576120035722852" lon="-4.768023993819952">
        <ele>6.87</ele>
        <time>2023-08-24T11:24:35Z</time>
      </trkpt>
      <trkpt lat="58.576089022681117" lon="-4.768027011305094">
        <ele>8.310000000000001</ele>
        <time>2023-08-24T11:24:37Z</time>
      </trkpt>
      <trkpt lat="58.576071001589298" lon="-4.768029022961855">
        <ele>8.789999999999999</ele>
        <time>2023-08-24T11:24:38Z</time>
      </trkpt>
      <trkpt lat="58.576047029346228" lon="-4.768032962456346">
        <ele>9.27</ele>
        <time>2023-08-24T11:24:39Z</time>
      </trkpt>
      <trkpt lat="58.575948039069772" lon="-4.768045032396913">
        <ele>8.310000000000001</ele>
        <time>2023-08-24T11:24:47Z</time>
      </trkpt>
      <trkpt lat="58.575948039069772" lon="-4.768045032396913">
        <ele>7.35</ele>
        <time>2023-08-24T11:25:07Z</time>
      </trkpt>
      <trkpt lat="58.575948039069772" lon="-4.768045032396913">
        <ele>7.35</ele>
        <time>2023-08-24T11:26:05Z</time>
      </trkpt>
      <trkpt lat="58.575878972187638" lon="-4.768077973276377">
        <ele>7.83</ele>
        <time>2023-08-24T11:26:43Z</time>
      </trkpt>
      <trkpt lat="58.575828010216355" lon="-4.768102029338479">
        <ele>7.83</ele>
        <time>2023-08-24T11:26:44Z</time>
      </trkpt>
      <trkpt lat="58.575412016361952" lon="-4.768302021548152">
        <ele>6.87</ele>
        <time>2023-08-24T11:26:51Z</time>
      </trkpt>
      <trkpt lat="58.575327023863792" lon="-4.768246030434966">
        <ele>6.39</ele>
        <time>2023-08-24T11:26:52Z</time>
      </trkpt>
      <trkpt lat="58.575258040800691" lon="-4.768200013786554">
        <ele>6.39</ele>
        <time>2023-08-24T11:26:53Z</time>
      </trkpt>
      <trkpt lat="58.575195008888841" lon="-4.768114015460014">
        <ele>6.39</ele>
        <time>2023-08-24T11:26:54Z</time>
      </trkpt>
      <trkpt lat="58.575140023604035" lon="-4.76797697134316">
        <ele>6.87</ele>
        <time>2023-08-24T11:26:55Z</time>
      </trkpt>
      <trkpt lat="58.575083026662469" lon="-4.767831964418292">
        <ele>7.35</ele>
        <time>2023-08-24T11:26:56Z</time>
      </trkpt>
      <trkpt lat="58.575021000579" lon="-4.76767698302865">
        <ele>8.310000000000001</ele>
        <time>2023-08-24T11:26:57Z</time>
      </trkpt>
      <trkpt lat="58.57472000643611" lon="-4.766918001696467">
        <ele>13.6</ele>
        <time>2023-08-24T11:27:02Z</time>
      </trkpt>
      <trkpt lat="58.574650017544627" lon="-4.766800990328193">
        <ele>14.56</ele>
        <time>2023-08-24T11:27:03Z</time>
      </trkpt>
      <trkpt lat="58.574557984247804" lon="-4.766741981729865">
        <ele>15.52</ele>
        <time>2023-08-24T11:27:04Z</time>
      </trkpt>
      <trkpt lat="58.574264030903578" lon="-4.7664949670434">
        <ele>18.399999999999999</ele>
        <time>2023-08-24T11:27:07Z</time>
      </trkpt>
      <trkpt lat="58.573698000982404" lon="-4.765920974314213">
        <ele>23.210000000000001</ele>
        <time>2023-08-24T11:27:13Z</time>
      </trkpt>
      <trkpt lat="58.573580989614129" lon="-4.765889961272478">
        <ele>23.690000000000001</ele>
        <time>2023-08-24T11:27:14Z</time>
      </trkpt>
      <trkpt lat="58.572254972532392" lon="-4.765544040128589">
        <ele>31.859999999999999</ele>
        <time>2023-08-24T11:27:24Z</time>
      </trkpt>
      <trkpt lat="58.571085026487708" lon="-4.765168027952313">
        <ele>37.630000000000003</ele>
        <time>2023-08-24T11:27:34Z</time>
      </trkpt>
      <trkpt lat="58.570985030382872" lon="-4.765082029625773">
        <ele>38.109999999999999</ele>
        <time>2023-08-24T11:27:35Z</time>
      </trkpt>
      <trkpt lat="58.570898026227951" lon="-4.764939034357667">
        <ele>38.109999999999999</ele>
        <time>2023-08-24T11:27:36Z</time>
      </trkpt>
      <trkpt lat="58.570818984881043" lon="-4.764770977199078">
        <ele>38.590000000000003</ele>
        <time>2023-08-24T11:27:37Z</time>
      </trkpt>
      <trkpt lat="58.57074799016118" lon="-4.764592023566365">
        <ele>38.590000000000003</ele>
        <time>2023-08-24T11:27:38Z</time>
      </trkpt>
      <trkpt lat="58.570709014311433" lon="-4.764389013871551">
        <ele>38.590000000000003</ele>
        <time>2023-08-24T11:27:39Z</time>
      </trkpt>
      <trkpt lat="58.57068101875484" lon="-4.764202013611794">
        <ele>38.590000000000003</ele>
        <time>2023-08-24T11:27:40Z</time>
      </trkpt>
      <trkpt lat="58.570661991834641" lon="-4.764025993645191">
        <ele>38.109999999999999</ele>
        <time>2023-08-24T11:27:41Z</time>
      </trkpt>
      <trkpt lat="58.570604994893074" lon="-4.763497011736035">
        <ele>39.07</ele>
        <time>2023-08-24T11:27:45Z</time>
      </trkpt>
      <trkpt lat="58.5705950204283" lon="-4.763411013409495">
        <ele>39.549999999999997</ele>
        <time>2023-08-24T11:27:46Z</time>
      </trkpt>
      <trkpt lat="58.570566019043326" lon="-4.763306993991137">
        <ele>39.549999999999997</ele>
        <time>2023-08-24T11:27:47Z</time>
      </trkpt>
      <trkpt lat="58.570529976859689" lon="-4.763315040618181">
        <ele>39.549999999999997</ele>
        <time>2023-08-24T11:27:48Z</time>
      </trkpt>
      <trkpt lat="58.570487983524799" lon="-4.763324009254575">
        <ele>39.549999999999997</ele>
        <time>2023-08-24T11:27:49Z</time>
      </trkpt>
      <trkpt lat="58.570438027381897" lon="-4.76333498954773">
        <ele>40.030000000000001</ele>
        <time>2023-08-24T11:27:50Z</time>
      </trkpt>
      <trkpt lat="58.570385975763202" lon="-4.763346975669265">
        <ele>40.030000000000001</ele>
        <time>2023-08-24T11:27:51Z</time>
      </trkpt>
      <trkpt lat="58.570340964943171" lon="-4.763357033953071">
        <ele>40.509999999999998</ele>
        <time>2023-08-24T11:27:52Z</time>
      </trkpt>
      <trkpt lat="58.570298971608281" lon="-4.763366002589464">
        <ele>40.990000000000002</ele>
        <time>2023-08-24T11:27:53Z</time>
      </trkpt>
      <trkpt lat="58.570256978273392" lon="-4.763374971225858">
        <ele>41.469999999999999</ele>
        <time>2023-08-24T11:27:54Z</time>
      </trkpt>
      <trkpt lat="58.570222025737166" lon="-4.763383017852902">
        <ele>41.950000000000003</ele>
        <time>2023-08-24T11:27:55Z</time>
      </trkpt>
      <trkpt lat="58.570196963846684" lon="-4.763388969004154">
        <ele>42.439999999999998</ele>
        <time>2023-08-24T11:27:56Z</time>
      </trkpt>
      <trkpt lat="58.570196963846684" lon="-4.763388969004154">
        <ele>42.439999999999998</ele>
        <time>2023-08-24T11:27:57Z</time>
      </trkpt>
      <trkpt lat="58.570196963846684" lon="-4.763388969004154">
        <ele>42.920000000000002</ele>
        <time>2023-08-24T11:28:08Z</time>
      </trkpt>
      <trkpt lat="58.570196963846684" lon="-4.763388969004154">
        <ele>42.920000000000002</ele>
        <time>2023-08-24T11:28:21Z</time>
      </trkpt>
      <trkpt lat="58.57021096162498" lon="-4.763842010870576">
        <ele>43.399999999999999</ele>
        <time>2023-08-24T11:28:27Z</time>
      </trkpt>
      <trkpt lat="58.570123035460711" lon="-4.763828013092279">
        <ele>40.990000000000002</ele>
        <time>2023-08-24T11:28:34Z</time>
      </trkpt>
      <trkpt lat="58.570154970511794" lon="-4.763759030029178">
        <ele>38.590000000000003</ele>
        <time>2023-08-24T11:49:24Z</time>
      </trkpt>
      <trkpt lat="58.570155976340175" lon="-4.763755006715655">
        <ele>35.229999999999997</ele>
        <time>2023-08-24T11:50:09Z</time>
      </trkpt>
      <trkpt lat="58.570172991603613" lon="-4.763698009774089">
        <ele>35.710000000000001</ele>
        <time>2023-08-24T11:50:13Z</time>
      </trkpt>
      <trkpt lat="58.570215990766883" lon="-4.763385029509664">
        <ele>36.670000000000002</ele>
        <time>2023-08-24T11:50:17Z</time>
      </trkpt>
      <trkpt lat="58.57027399353683" lon="-4.763372037559748">
        <ele>36.670000000000002</ele>
        <time>2023-08-24T11:50:18Z</time>
      </trkpt>
      <trkpt lat="58.570299977436662" lon="-4.763366002589464">
        <ele>36.189999999999998</ele>
        <time>2023-08-24T11:50:19Z</time>
      </trkpt>
      <trkpt lat="58.570415982976556" lon="-4.763340018689632">
        <ele>34.259999999999998</ele>
        <time>2023-08-24T11:50:27Z</time>
      </trkpt>
      <trkpt lat="58.570465017110109" lon="-4.763329038396478">
        <ele>33.780000000000001</ele>
        <time>2023-08-24T11:50:32Z</time>
      </trkpt>
      <trkpt lat="58.570575993508101" lon="-4.763196017593145">
        <ele>33.780000000000001</ele>
        <time>2023-08-24T11:50:37Z</time>
      </trkpt>
      <trkpt lat="58.570568030700088" lon="-4.763087974861264">
        <ele>33.780000000000001</ele>
        <time>2023-08-24T11:50:38Z</time>
      </trkpt>
      <trkpt lat="58.570484966039658" lon="-4.761908976361156">
        <ele>36.189999999999998</ele>
        <time>2023-08-24T11:50:46Z</time>
      </trkpt>
      <trkpt lat="58.570489995181561" lon="-4.760335022583604">
        <ele>43.399999999999999</ele>
        <time>2023-08-24T11:50:57Z</time>
      </trkpt>
      <trkpt lat="58.570555960759521" lon="-4.758438030257821">
        <ele>50.609999999999999</ele>
        <time>2023-08-24T11:51:07Z</time>
      </trkpt>
      <trkpt lat="58.570713959634304" lon="-4.755646018311381">
        <ele>52.049999999999997</ele>
        <time>2023-08-24T11:51:22Z</time>
      </trkpt>
      <trkpt lat="58.570721000432968" lon="-4.755230024456978">
        <ele>52.049999999999997</ele>
        <time>2023-08-24T11:51:25Z</time>
      </trkpt>
      <trkpt lat="58.570696022361517" lon="-4.755092980340123">
        <ele>52.049999999999997</ele>
        <time>2023-08-24T11:51:26Z</time>
      </trkpt>
      <trkpt lat="58.570469962432981" lon="-4.753900989890099">
        <ele>53.969999999999999</ele>
        <time>2023-08-24T11:51:37Z</time>
      </trkpt>
      <trkpt lat="58.570277011021972" lon="-4.753129016608">
        <ele>54.93</ele>
        <time>2023-08-24T11:51:46Z</time>
      </trkpt>
      <trkpt lat="58.569870991632342" lon="-4.751735022291541">
        <ele>51.090000000000003</ele>
        <time>2023-08-24T11:51:56Z</time>
      </trkpt>
      <trkpt lat="58.569343015551567" lon="-4.749997034668922">
        <ele>47.240000000000002</ele>
        <time>2023-08-24T11:52:08Z</time>
      </trkpt>
      <trkpt lat="58.569028023630381" lon="-4.748760033398867">
        <ele>47.240000000000002</ele>
        <time>2023-08-24T11:52:19Z</time>
      </trkpt>
      <trkpt lat="58.568698028102517" lon="-4.747294038534164">
        <ele>45.799999999999997</ele>
        <time>2023-08-24T11:52:30Z</time>
      </trkpt>
      <trkpt lat="58.568607000634074" lon="-4.746910985559225">
        <ele>43.880000000000003</ele>
        <time>2023-08-24T11:52:36Z</time>
      </trkpt>
      <trkpt lat="58.568487977609038" lon="-4.746799003332853">
        <ele>42.439999999999998</ele>
        <time>2023-08-24T11:52:41Z</time>
      </trkpt>
      <trkpt lat="58.568449001759291" lon="-4.746842002496123">
        <ele>41.950000000000003</ele>
        <time>2023-08-24T11:52:43Z</time>
      </trkpt>
      <trkpt lat="58.567608967423439" lon="-4.747604001313448">
        <ele>42.920000000000002</ele>
        <time>2023-08-24T11:52:55Z</time>
      </trkpt>
      <trkpt lat="58.567380979657173" lon="-4.747824026271701">
        <ele>43.399999999999999</ele>
        <time>2023-08-24T11:52:57Z</time>
      </trkpt>
      <trkpt lat="58.567225998267531" lon="-4.747972972691059">
        <ele>43.880000000000003</ele>
        <time>2023-08-24T11:52:59Z</time>
      </trkpt>
      <trkpt lat="58.567152991890907" lon="-4.748066011816263">
        <ele>43.880000000000003</ele>
        <time>2023-08-24T11:53:00Z</time>
      </trkpt>
      <trkpt lat="58.567092977464199" lon="-4.748194003477693">
        <ele>44.359999999999999</ele>
        <time>2023-08-24T11:53:01Z</time>
      </trkpt>
      <trkpt lat="58.567035980522633" lon="-4.74831503815949">
        <ele>44.359999999999999</ele>
        <time>2023-08-24T11:53:02Z</time>
      </trkpt>
      <trkpt lat="58.566992981359363" lon="-4.74844797514379">
        <ele>44.840000000000003</ele>
        <time>2023-08-24T11:53:03Z</time>
      </trkpt>
      <trkpt lat="58.566911006346345" lon="-4.748732959851623">
        <ele>45.32</ele>
        <time>2023-08-24T11:53:05Z</time>
      </trkpt>
      <trkpt lat="58.566868007183075" lon="-4.748884001746774">
        <ele>45.32</ele>
        <time>2023-08-24T11:53:06Z</time>
      </trkpt>
      <trkpt lat="58.566391998901963" lon="-4.750676974654198">
        <ele>44.840000000000003</ele>
        <time>2023-08-24T11:53:15Z</time>
      </trkpt>
      <trkpt lat="58.565470995381474" lon="-4.753524977713823">
        <ele>42.439999999999998</ele>
        <time>2023-08-24T11:53:27Z</time>
      </trkpt>
      <trkpt lat="58.564984006807208" lon="-4.75471998564899">
        <ele>43.399999999999999</ele>
        <time>2023-08-24T11:53:34Z</time>
      </trkpt>
      <trkpt lat="58.564851991832256" lon="-4.755045035853982">
        <ele>43.399999999999999</ele>
        <time>2023-08-24T11:53:41Z</time>
      </trkpt>
      <trkpt lat="58.564851991832256" lon="-4.755045035853982">
        <ele>43.399999999999999</ele>
        <time>2023-08-24T11:53:52Z</time>
      </trkpt>
      <trkpt lat="58.564851991832256" lon="-4.755045035853982">
        <ele>43.399999999999999</ele>
        <time>2023-08-24T11:54:24Z</time>
      </trkpt>
      <trkpt lat="58.564851991832256" lon="-4.755045035853982">
        <ele>42.920000000000002</ele>
        <time>2023-08-24T11:55:16Z</time>
      </trkpt>
      <trkpt lat="58.564851991832256" lon="-4.755045035853982">
        <ele>42.920000000000002</ele>
        <time>2023-08-24T11:56:12Z</time>
      </trkpt>
      <trkpt lat="58.564851991832256" lon="-4.755045035853982">
        <ele>42.920000000000002</ele>
        <time>2023-08-24T11:57:01Z</time>
      </trkpt>
      <trkpt lat="58.564851991832256" lon="-4.755045035853982">
        <ele>43.399999999999999</ele>
        <time>2023-08-24T11:57:53Z</time>
      </trkpt>
      <trkpt lat="58.564851991832256" lon="-4.755045035853982">
        <ele>43.880000000000003</ele>
        <time>2023-08-24T11:58:45Z</time>
      </trkpt>
      <trkpt lat="58.564851991832256" lon="-4.755045035853982">
        <ele>43.880000000000003</ele>
        <time>2023-08-24T11:59:34Z</time>
      </trkpt>
      <trkpt lat="58.564851991832256" lon="-4.755045035853982">
        <ele>43.880000000000003</ele>
        <time>2023-08-24T12:00:08Z</time>
      </trkpt>
      <trkpt lat="58.564681001007557" lon="-4.755463041365147">
        <ele>44.840000000000003</ele>
        <time>2023-08-24T12:00:17Z</time>
      </trkpt>
      <trkpt lat="58.564327033236623" lon="-4.756407011300325">
        <ele>45.32</ele>
        <time>2023-08-24T12:00:24Z</time>
      </trkpt>
      <trkpt lat="58.564270958304405" lon="-4.756572972983122">
        <ele>45.799999999999997</ele>
        <time>2023-08-24T12:00:31Z</time>
      </trkpt>
      <trkpt lat="58.564126035198569" lon="-4.757005982100964">
        <ele>46.280000000000001</ele>
        <time>2023-08-24T12:00:39Z</time>
      </trkpt>
      <trkpt lat="58.563932999968529" lon="-4.757581986486912">
        <ele>47.240000000000002</ele>
        <time>2023-08-24T12:00:44Z</time>
      </trkpt>
      <trkpt lat="58.563932999968529" lon="-4.757581986486912">
        <ele>47.719999999999999</ele>
        <time>2023-08-24T12:00:54Z</time>
      </trkpt>
      <trkpt lat="58.56374298222363" lon="-4.758147010579705">
        <ele>48.200000000000003</ele>
        <time>2023-08-24T12:01:02Z</time>
      </trkpt>
      <trkpt lat="58.563164966180921" lon="-4.759829007089138">
        <ele>48.200000000000003</ele>
        <time>2023-08-24T12:01:13Z</time>
      </trkpt>
      <trkpt lat="58.562444038689137" lon="-4.76168098859489">
        <ele>47.240000000000002</ele>
        <time>2023-08-24T12:01:22Z</time>
      </trkpt>
      <trkpt lat="58.561441982164979" lon="-4.763568006455898">
        <ele>47.240000000000002</ele>
        <time>2023-08-24T12:01:32Z</time>
      </trkpt>
      <trkpt lat="58.561323964968324" lon="-4.763706978410482">
        <ele>47.719999999999999</ele>
        <time>2023-08-24T12:01:33Z</time>
      </trkpt>
      <trkpt lat="58.560143038630486" lon="-4.765056967735291">
        <ele>46.280000000000001</ele>
        <time>2023-08-24T12:01:45Z</time>
      </trkpt>
      <trkpt lat="58.558824984356761" lon="-4.765929020941258">
        <ele>44.359999999999999</ele>
        <time>2023-08-24T12:01:54Z</time>
      </trkpt>
      <trkpt lat="58.558561038225889" lon="-4.766138987615705">
        <ele>44.359999999999999</ele>
        <time>2023-08-24T12:01:56Z</time>
      </trkpt>
      <trkpt lat="58.558445032685995" lon="-4.766288017854095">
        <ele>44.840000000000003</ele>
        <time>2023-08-24T12:01:57Z</time>
      </trkpt>
      <trkpt lat="58.558325003832579" lon="-4.766440987586975">
        <ele>44.840000000000003</ele>
        <time>2023-08-24T12:01:58Z</time>
      </trkpt>
      <trkpt lat="58.557623019441962" lon="-4.767337013036013">
        <ele>47.719999999999999</ele>
        <time>2023-08-24T12:02:04Z</time>
      </trkpt>
      <trkpt lat="58.557502990588546" lon="-4.767407001927495">
        <ele>48.200000000000003</ele>
        <time>2023-08-24T12:02:05Z</time>
      </trkpt>
      <trkpt lat="58.557373993098736" lon="-4.767483025789261">
        <ele>48.200000000000003</ele>
        <time>2023-08-24T12:02:06Z</time>
      </trkpt>
      <trkpt lat="58.557106023654342" lon="-4.767640018835664">
        <ele>49.159999999999997</ele>
        <time>2023-08-24T12:02:08Z</time>
      </trkpt>
      <trkpt lat="58.556977026164532" lon="-4.767729034647346">
        <ele>49.159999999999997</ele>
        <time>2023-08-24T12:02:09Z</time>
      </trkpt>
      <trkpt lat="58.556860014796257" lon="-4.767859959974885">
        <ele>50.130000000000003</ele>
        <time>2023-08-24T12:02:10Z</time>
      </trkpt>
      <trkpt lat="58.556747026741505" lon="-4.767987029626966">
        <ele>50.609999999999999</ele>
        <time>2023-08-24T12:02:11Z</time>
      </trkpt>
      <trkpt lat="58.556640995666385" lon="-4.76810596883297">
        <ele>51.57</ele>
        <time>2023-08-24T12:02:12Z</time>
      </trkpt>
      <trkpt lat="58.556546028703451" lon="-4.76821300573647">
        <ele>52.530000000000001</ele>
        <time>2023-08-24T12:02:13Z</time>
      </trkpt>
      <trkpt lat="58.556453995406628" lon="-4.768303027376533">
        <ele>53.009999999999998</ele>
        <time>2023-08-24T12:02:14Z</time>
      </trkpt>
      <trkpt lat="58.556358022615314" lon="-4.768372010439634">
        <ele>53.969999999999999</ele>
        <time>2023-08-24T12:02:15Z</time>
      </trkpt>
      <trkpt lat="58.555845972150564" lon="-4.768735030665994">
        <ele>55.409999999999997</ele>
        <time>2023-08-24T12:02:20Z</time>
      </trkpt>
      <trkpt lat="58.555760979652405" lon="-4.768871990963817">
        <ele>55.409999999999997</ele>
        <time>2023-08-24T12:02:21Z</time>
      </trkpt>
      <trkpt lat="58.555683027952909" lon="-4.769027978181839">
        <ele>55.409999999999997</ele>
        <time>2023-08-24T12:02:22Z</time>
      </trkpt>
      <trkpt lat="58.555613039061427" lon="-4.769193017855287">
        <ele>55.409999999999997</ele>
        <time>2023-08-24T12:02:23Z</time>
      </trkpt>
      <trkpt lat="58.555561993271112" lon="-4.769384963437915">
        <ele>55.890000000000001</ele>
        <time>2023-08-24T12:02:24Z</time>
      </trkpt>
      <trkpt lat="58.555511031299829" lon="-4.769571963697672">
        <ele>55.890000000000001</ele>
        <time>2023-08-24T12:02:25Z</time>
      </trkpt>
      <trkpt lat="58.555460991337895" lon="-4.769756030291319">
        <ele>55.890000000000001</ele>
        <time>2023-08-24T12:02:26Z</time>
      </trkpt>
      <trkpt lat="58.555364012718201" lon="-4.770119972527027">
        <ele>55.890000000000001</ele>
        <time>2023-08-24T12:02:28Z</time>
      </trkpt>
      <trkpt lat="58.555326964706182" lon="-4.770255004987121">
        <ele>55.890000000000001</ele>
        <time>2023-08-24T12:02:29Z</time>
      </trkpt>
      <trkpt lat="58.555225962772965" lon="-4.770419960841537">
        <ele>55.409999999999997</ele>
        <time>2023-08-24T12:02:30Z</time>
      </trkpt>
      <trkpt lat="58.555137030780315" lon="-4.770563961938024">
        <ele>54.93</ele>
        <time>2023-08-24T12:02:31Z</time>
      </trkpt>
      <trkpt lat="58.555043991655111" lon="-4.770715003833175">
        <ele>54.450000000000003</ele>
        <time>2023-08-24T12:02:32Z</time>
      </trkpt>
      <trkpt lat="58.553824005648494" lon="-4.772414015606046">
        <ele>46.759999999999998</ele>
        <time>2023-08-24T12:02:43Z</time>
      </trkpt>
      <trkpt lat="58.55289101600647" lon="-4.77352000772953">
        <ele>39.549999999999997</ele>
        <time>2023-08-24T12:02:51Z</time>
      </trkpt>
      <trkpt lat="58.552631009370089" lon="-4.773767022415996">
        <ele>37.630000000000003</ele>
        <time>2023-08-24T12:02:53Z</time>
      </trkpt>
      <trkpt lat="58.552473010495305" lon="-4.773857966065407">
        <ele>36.189999999999998</ele>
        <time>2023-08-24T12:02:54Z</time>
      </trkpt>
      <trkpt lat="58.551314966753125" lon="-4.774524997919798">
        <ele>29.460000000000001</ele>
        <time>2023-08-24T12:03:00Z</time>
      </trkpt>
      <trkpt lat="58.550407961010933" lon="-4.775360003113747">
        <ele>24.170000000000002</ele>
        <time>2023-08-24T12:03:06Z</time>
      </trkpt>
      <trkpt lat="58.550276029855013" lon="-4.77551800198853">
        <ele>23.210000000000001</ele>
        <time>2023-08-24T12:03:07Z</time>
      </trkpt>
      <trkpt lat="58.550168992951512" lon="-4.775723023340106">
        <ele>22.73</ele>
        <time>2023-08-24T12:03:08Z</time>
      </trkpt>
      <trkpt lat="58.550062039867043" lon="-4.775935001671314">
        <ele>21.77</ele>
        <time>2023-08-24T12:03:09Z</time>
      </trkpt>
      <trkpt lat="58.549956008791924" lon="-4.776147985830903">
        <ele>21.289999999999999</ele>
        <time>2023-08-24T12:03:10Z</time>
      </trkpt>
      <trkpt lat="58.549248995259404" lon="-4.777326984331012">
        <ele>17.920000000000002</ele>
        <time>2023-08-24T12:03:16Z</time>
      </trkpt>
      <trkpt lat="58.549103988334537" lon="-4.777465034276247">
        <ele>17.440000000000001</ele>
        <time>2023-08-24T12:03:17Z</time>
      </trkpt>
      <trkpt lat="58.548952024430037" lon="-4.777566958218813">
        <ele>16.960000000000001</ele>
        <time>2023-08-24T12:03:18Z</time>
      </trkpt>
      <trkpt lat="58.548798970878124" lon="-4.777668965980411">
        <ele>16</ele>
        <time>2023-08-24T12:03:19Z</time>
      </trkpt>
      <trkpt lat="58.548647006973624" lon="-4.777769967913628">
        <ele>15.52</ele>
        <time>2023-08-24T12:03:20Z</time>
      </trkpt>
      <trkpt lat="58.547122003510594" lon="-4.778245976194739">
        <ele>9.75</ele>
        <time>2023-08-24T12:03:29Z</time>
      </trkpt>
      <trkpt lat="58.54535099118948" lon="-4.779045023024082">
        <ele>7.35</ele>
        <time>2023-08-24T12:03:40Z</time>
      </trkpt>
      <trkpt lat="58.544244999065995" lon="-4.779399996623397">
        <ele>7.35</ele>
        <time>2023-08-24T12:03:47Z</time>
      </trkpt>
      <trkpt lat="58.544085994362831" lon="-4.779522037133575">
        <ele>7.83</ele>
        <time>2023-08-24T12:03:48Z</time>
      </trkpt>
      <trkpt lat="58.543927995488048" lon="-4.77964399382472">
        <ele>7.83</ele>
        <time>2023-08-24T12:03:49Z</time>
      </trkpt>
      <trkpt lat="58.543055020272732" lon="-4.780369028449059">
        <ele>8.789999999999999</ele>
        <time>2023-08-24T12:03:55Z</time>
      </trkpt>
      <trkpt lat="58.542938008904457" lon="-4.780519986525178">
        <ele>8.310000000000001</ele>
        <time>2023-08-24T12:03:56Z</time>
      </trkpt>
      <trkpt lat="58.542584963142872" lon="-4.780943021178246">
        <ele>7.35</ele>
        <time>2023-08-24T12:03:59Z</time>
      </trkpt>
      <trkpt lat="58.542473986744881" lon="-4.781027007848024">
        <ele>7.35</ele>
        <time>2023-08-24T12:04:00Z</time>
      </trkpt>
      <trkpt lat="58.542309030890465" lon="-4.781071012839675">
        <ele>7.35</ele>
        <time>2023-08-24T12:04:01Z</time>
      </trkpt>
      <trkpt lat="58.542152037844062" lon="-4.781113006174564">
        <ele>6.87</ele>
        <time>2023-08-24T12:04:02Z</time>
      </trkpt>
      <trkpt lat="58.54199999012053" lon="-4.78112599812448">
        <ele>6.87</ele>
        <time>2023-08-24T12:04:03Z</time>
      </trkpt>
      <trkpt lat="58.541836962103844" lon="-4.781141001731157">
        <ele>6.39</ele>
        <time>2023-08-24T12:04:04Z</time>
      </trkpt>
      <trkpt lat="58.541166996583343" lon="-4.781207973137498">
        <ele>6.39</ele>
        <time>2023-08-24T12:04:08Z</time>
      </trkpt>
      <trkpt lat="58.541003968566656" lon="-4.781290031969547">
        <ele>6.39</ele>
        <time>2023-08-24T12:04:09Z</time>
      </trkpt>
      <trkpt lat="58.539374023675919" lon="-4.782368028536439">
        <ele>6.39</ele>
        <time>2023-08-24T12:04:19Z</time>
      </trkpt>
      <trkpt lat="58.538041971623898" lon="-4.783624978736043">
        <ele>6.87</ele>
        <time>2023-08-24T12:04:28Z</time>
      </trkpt>
      <trkpt lat="58.537774002179503" lon="-4.783912980929017">
        <ele>7.35</ele>
        <time>2023-08-24T12:04:30Z</time>
      </trkpt>
      <trkpt lat="58.537654979154468" lon="-4.784093024209142">
        <ele>7.35</ele>
        <time>2023-08-24T12:04:31Z</time>
      </trkpt>
      <trkpt lat="58.537533022463322" lon="-4.784279018640518">
        <ele>7.35</ele>
        <time>2023-08-24T12:04:32Z</time>
      </trkpt>
      <trkpt lat="58.537425985559821" lon="-4.784522010013461">
        <ele>7.35</ele>
        <time>2023-08-24T12:04:33Z</time>
      </trkpt>
      <trkpt lat="58.537318026646972" lon="-4.784769024699926">
        <ele>7.35</ele>
        <time>2023-08-24T12:04:34Z</time>
      </trkpt>
      <trkpt lat="58.536595003679395" lon="-4.787059966474772">
        <ele>11.67</ele>
        <time>2023-08-24T12:04:43Z</time>
      </trkpt>
      <trkpt lat="58.536503976210952" lon="-4.787264987826347">
        <ele>12.15</ele>
        <time>2023-08-24T12:04:44Z</time>
      </trkpt>
      <trkpt lat="58.536408003419638" lon="-4.787458023056388">
        <ele>13.119999999999999</ele>
        <time>2023-08-24T12:04:45Z</time>
      </trkpt>
      <trkpt lat="58.536294009536505" lon="-4.787634965032339">
        <ele>13.6</ele>
        <time>2023-08-24T12:04:46Z</time>
      </trkpt>
      <trkpt lat="58.535134037956595" lon="-4.789030971005559">
        <ele>21.77</ele>
        <time>2023-08-24T12:04:54Z</time>
      </trkpt>
      <trkpt lat="58.534372039139271" lon="-4.78995599783957">
        <ele>25.609999999999999</ele>
        <time>2023-08-24T12:05:00Z</time>
      </trkpt>
      <trkpt lat="58.534256033599377" lon="-4.790038978680968">
        <ele>26.09</ele>
        <time>2023-08-24T12:05:01Z</time>
      </trkpt>
      <trkpt lat="58.534117983654141" lon="-4.790067980065942">
        <ele>26.09</ele>
        <time>2023-08-24T12:05:02Z</time>
      </trkpt>
      <trkpt lat="58.532723989337683" lon="-4.790356988087297">
        <ele>23.690000000000001</ele>
        <time>2023-08-24T12:05:11Z</time>
      </trkpt>
      <trkpt lat="58.532512011006474" lon="-4.790446003898978">
        <ele>22.73</ele>
        <time>2023-08-24T12:05:13Z</time>
      </trkpt>
      <trkpt lat="58.532431963831186" lon="-4.790500989183784">
        <ele>22.73</ele>
        <time>2023-08-24T12:05:14Z</time>
      </trkpt>
      <trkpt lat="58.532363986596465" lon="-4.790548011660576">
        <ele>22.25</ele>
        <time>2023-08-24T12:05:15Z</time>
      </trkpt>
      <trkpt lat="58.531809020787477" lon="-4.791233986616135">
        <ele>21.77</ele>
        <time>2023-08-24T12:05:21Z</time>
      </trkpt>
      <trkpt lat="58.530757008120418" lon="-4.792926963418722">
        <ele>20.809999999999999</ele>
        <time>2023-08-24T12:05:30Z</time>
      </trkpt>
      <trkpt lat="58.52947399020195" lon="-4.795060995966196">
        <ele>19.359999999999999</ele>
        <time>2023-08-24T12:05:41Z</time>
      </trkpt>
      <trkpt lat="58.528086030855775" lon="-4.796755984425545">
        <ele>17.440000000000001</ele>
        <time>2023-08-24T12:05:51Z</time>
      </trkpt>
      <trkpt lat="58.526803012937307" lon="-4.797454029321671">
        <ele>17.920000000000002</ele>
        <time>2023-08-24T12:05:59Z</time>
      </trkpt>
      <trkpt lat="58.525572968646884" lon="-4.797537010163069">
        <ele>16.960000000000001</ele>
        <time>2023-08-24T12:06:07Z</time>
      </trkpt>
      <trkpt lat="58.524382989853621" lon="-4.79751898907125">
        <ele>15.039999999999999</ele>
        <time>2023-08-24T12:06:16Z</time>
      </trkpt>
      <trkpt lat="58.523227041587234" lon="-4.797542961314321">
        <ele>12.630000000000001</ele>
        <time>2023-08-24T12:06:23Z</time>
      </trkpt>
      <trkpt lat="58.523067031055689" lon="-4.797615967690945">
        <ele>12.630000000000001</ele>
        <time>2023-08-24T12:06:24Z</time>
      </trkpt>
      <trkpt lat="58.522911965847015" lon="-4.797704983502626">
        <ele>12.630000000000001</ele>
        <time>2023-08-24T12:06:25Z</time>
      </trkpt>
      <trkpt lat="58.522767964750528" lon="-4.797827024012804">
        <ele>12.630000000000001</ele>
        <time>2023-08-24T12:06:26Z</time>
      </trkpt>
      <trkpt lat="58.522626981139183" lon="-4.797956021502614">
        <ele>12.630000000000001</ele>
        <time>2023-08-24T12:06:27Z</time>
      </trkpt>
      <trkpt lat="58.522506030276418" lon="-4.798129023984075">
        <ele>12.630000000000001</ele>
        <time>2023-08-24T12:06:28Z</time>
      </trkpt>
      <trkpt lat="58.52238298393786" lon="-4.798305965960026">
        <ele>12.630000000000001</ele>
        <time>2023-08-24T12:06:29Z</time>
      </trkpt>
      <trkpt lat="58.522262033075094" lon="-4.798493972048163">
        <ele>12.630000000000001</ele>
        <time>2023-08-24T12:06:30Z</time>
      </trkpt>
      <trkpt lat="58.522153990343213" lon="-4.798725983127952">
        <ele>12.15</ele>
        <time>2023-08-24T12:06:31Z</time>
      </trkpt>
      <trkpt lat="58.520959988236427" lon="-4.801080962643027">
        <ele>12.630000000000001</ele>
        <time>2023-08-24T12:06:41Z</time>
      </trkpt>
      <trkpt lat="58.519266005605459" lon="-4.803323037922382">
        <ele>14.08</ele>
        <time>2023-08-24T12:06:53Z</time>
      </trkpt>
      <trkpt lat="58.518144004046917" lon="-4.804152008146048">
        <ele>16.48</ele>
        <time>2023-08-24T12:07:01Z</time>
      </trkpt>
      <trkpt lat="58.516738023608923" lon="-4.805190023034811">
        <ele>16.960000000000001</ele>
        <time>2023-08-24T12:07:11Z</time>
      </trkpt>
      <trkpt lat="58.516619000583887" lon="-4.805279038846493">
        <ele>17.920000000000002</ele>
        <time>2023-08-24T12:07:17Z</time>
      </trkpt>
      <trkpt lat="58.516380032524467" lon="-4.805454974994063">
        <ele>19.84</ele>
        <time>2023-08-24T12:07:35Z</time>
      </trkpt>
      <trkpt lat="58.515518959611654" lon="-4.80609099380672">
        <ele>19.359999999999999</ele>
        <time>2023-08-24T12:07:42Z</time>
      </trkpt>
      <trkpt lat="58.513220977038145" lon="-4.807761004194617">
        <ele>20.32</ele>
        <time>2023-08-24T12:07:57Z</time>
      </trkpt>
      <trkpt lat="58.510514963418245" lon="-4.809445012360811">
        <ele>23.210000000000001</ele>
        <time>2023-08-24T12:08:13Z</time>
      </trkpt>
      <trkpt lat="58.508730959147215" lon="-4.809857988730073">
        <ele>24.170000000000002</ele>
        <time>2023-08-24T12:08:23Z</time>
      </trkpt>
      <trkpt lat="58.507182989269495" lon="-4.810583023354411">
        <ele>24.170000000000002</ele>
        <time>2023-08-24T12:08:32Z</time>
      </trkpt>
      <trkpt lat="58.50504501722753" lon="-4.811970982700586">
        <ele>23.690000000000001</ele>
        <time>2023-08-24T12:08:45Z</time>
      </trkpt>
      <trkpt lat="58.504223003983498" lon="-4.812663998454809">
        <ele>23.210000000000001</ele>
        <time>2023-08-24T12:08:52Z</time>
      </trkpt>
      <trkpt lat="58.504181010648608" lon="-4.812714038416743">
        <ele>23.210000000000001</ele>
        <time>2023-08-24T12:08:53Z</time>
      </trkpt>
      <trkpt lat="58.504090989008546" lon="-4.81281797401607">
        <ele>23.210000000000001</ele>
        <time>2023-08-24T12:09:01Z</time>
      </trkpt>
      <trkpt lat="58.503761999309063" lon="-4.81322499923408">
        <ele>22.73</ele>
        <time>2023-08-24T12:09:06Z</time>
      </trkpt>
      <trkpt lat="58.502883994951844" lon="-4.814698034897447">
        <ele>23.210000000000001</ele>
        <time>2023-08-24T12:09:14Z</time>
      </trkpt>
      <trkpt lat="58.501928960904479" lon="-4.816241981461644">
        <ele>23.210000000000001</ele>
        <time>2023-08-24T12:09:23Z</time>
      </trkpt>
      <trkpt lat="58.501817984506488" lon="-4.8163409717381">
        <ele>22.73</ele>
        <time>2023-08-24T12:09:24Z</time>
      </trkpt>
      <trkpt lat="58.501709019765258" lon="-4.816377013921738">
        <ele>22.25</ele>
        <time>2023-08-24T12:09:25Z</time>
      </trkpt>
      <trkpt lat="58.501597037538886" lon="-4.816410960629582">
        <ele>21.77</ele>
        <time>2023-08-24T12:09:26Z</time>
      </trkpt>
      <trkpt lat="58.501488994807005" lon="-4.81638397090137">
        <ele>21.77</ele>
        <time>2023-08-24T12:09:27Z</time>
      </trkpt>
      <trkpt lat="58.501369971781969" lon="-4.816353963688016">
        <ele>21.289999999999999</ele>
        <time>2023-08-24T12:09:28Z</time>
      </trkpt>
      <trkpt lat="58.501246003434062" lon="-4.816323034465313">
        <ele>21.289999999999999</ele>
        <time>2023-08-24T12:09:29Z</time>
      </trkpt>
      <trkpt lat="58.500977028161287" lon="-4.816255979239941">
        <ele>20.809999999999999</ele>
        <time>2023-08-24T12:09:31Z</time>
      </trkpt>
      <trkpt lat="58.500835038721561" lon="-4.816281041130424">
        <ele>20.809999999999999</ele>
        <time>2023-08-24T12:09:32Z</time>
      </trkpt>
      <trkpt lat="58.500699000433087" lon="-4.816354969516397">
        <ele>20.32</ele>
        <time>2023-08-24T12:09:33Z</time>
      </trkpt>
      <trkpt lat="58.500567991286516" lon="-4.81642697006464">
        <ele>19.84</ele>
        <time>2023-08-24T12:09:34Z</time>
      </trkpt>
      <trkpt lat="58.50044603459537" lon="-4.81653300113976">
        <ele>19.359999999999999</ele>
        <time>2023-08-24T12:09:35Z</time>
      </trkpt>
      <trkpt lat="58.500336986035109" lon="-4.816712038591504">
        <ele>18.879999999999999</ele>
        <time>2023-08-24T12:09:36Z</time>
      </trkpt>
      <trkpt lat="58.500219974666834" lon="-4.816903984174132">
        <ele>18.879999999999999</ele>
        <time>2023-08-24T12:09:37Z</time>
      </trkpt>
      <trkpt lat="58.500105980783701" lon="-4.817127026617527">
        <ele>18.399999999999999</ele>
        <time>2023-08-24T12:09:38Z</time>
      </trkpt>
      <trkpt lat="58.499034019187093" lon="-4.819752993062139">
        <ele>19.84</ele>
        <time>2023-08-24T12:09:48Z</time>
      </trkpt>
      <trkpt lat="58.498066999018192" lon="-4.822465041652322">
        <ele>22.25</ele>
        <time>2023-08-24T12:09:58Z</time>
      </trkpt>
      <trkpt lat="58.497172985225916" lon="-4.824907025322318">
        <ele>23.210000000000001</ele>
        <time>2023-08-24T12:10:07Z</time>
      </trkpt>
      <trkpt lat="58.496813988313079" lon="-4.825783018022776">
        <ele>23.690000000000001</ele>
        <time>2023-08-24T12:10:12Z</time>
      </trkpt>
      <trkpt lat="58.496766965836287" lon="-4.825983010232449">
        <ele>23.690000000000001</ele>
        <time>2023-08-24T12:10:13Z</time>
      </trkpt>
      <trkpt lat="58.496259022504091" lon="-4.828204968944192">
        <ele>25.129999999999999</ele>
        <time>2023-08-24T12:10:21Z</time>
      </trkpt>
      <trkpt lat="58.495822995901108" lon="-4.831050960347056">
        <ele>29.940000000000001</ele>
        <time>2023-08-24T12:10:30Z</time>
      </trkpt>
      <trkpt lat="58.495417982339859" lon="-4.833708023652434">
        <ele>32.340000000000003</ele>
        <time>2023-08-24T12:10:39Z</time>
      </trkpt>
      <trkpt lat="58.495198963209987" lon="-4.83470999635756">
        <ele>35.229999999999997</ele>
        <time>2023-08-24T12:10:45Z</time>
      </trkpt>
      <trkpt lat="58.494825968518853" lon="-4.836414037272334">
        <ele>37.630000000000003</ele>
        <time>2023-08-24T12:10:54Z</time>
      </trkpt>
      <trkpt lat="58.494606027379632" lon="-4.837913978844881">
        <ele>37.630000000000003</ele>
        <time>2023-08-24T12:11:00Z</time>
      </trkpt>
      <trkpt lat="58.494183998554945" lon="-4.841271014884114">
        <ele>36.670000000000002</ele>
        <time>2023-08-24T12:11:10Z</time>
      </trkpt>
      <trkpt lat="58.493504980579019" lon="-4.846678012982011">
        <ele>43.880000000000003</ele>
        <time>2023-08-24T12:11:25Z</time>
      </trkpt>
      <trkpt lat="58.49294800311327" lon="-4.850155999884009">
        <ele>49.159999999999997</ele>
        <time>2023-08-24T12:11:35Z</time>
      </trkpt>
      <trkpt lat="58.492738958448172" lon="-4.851007014513016">
        <ele>50.130000000000003</ele>
        <time>2023-08-24T12:11:39Z</time>
      </trkpt>
      <trkpt lat="58.49267098121345" lon="-4.851284036412835">
        <ele>50.130000000000003</ele>
        <time>2023-08-24T12:11:46Z</time>
      </trkpt>
      <trkpt lat="58.49264801479876" lon="-4.851377997547388">
        <ele>51.57</ele>
        <time>2023-08-24T12:12:06Z</time>
      </trkpt>
      <trkpt lat="58.49262798205018" lon="-4.851457960903645">
        <ele>51.57</ele>
        <time>2023-08-24T12:12:18Z</time>
      </trkpt>
      <trkpt lat="58.492601998150349" lon="-4.851563991978765">
        <ele>51.090000000000003</ele>
        <time>2023-08-24T12:12:19Z</time>
      </trkpt>
      <trkpt lat="58.492259010672569" lon="-4.85282002016902">
        <ele>51.57</ele>
        <time>2023-08-24T12:12:26Z</time>
      </trkpt>
      <trkpt lat="58.491722987964749" lon="-4.854578040540218">
        <ele>53.009999999999998</ele>
        <time>2023-08-24T12:12:35Z</time>
      </trkpt>
      <trkpt lat="58.490863004699349" lon="-4.857396958395839">
        <ele>56.859999999999999</ele>
        <time>2023-08-24T12:12:46Z</time>
      </trkpt>
      <trkpt lat="58.489672020077705" lon="-4.860700014978647">
        <ele>62.140000000000001</ele>
        <time>2023-08-24T12:12:58Z</time>
      </trkpt>
      <trkpt lat="58.488841038197279" lon="-4.863449027761817">
        <ele>65.030000000000001</ele>
        <time>2023-08-24T12:13:07Z</time>
      </trkpt>
      <trkpt lat="58.487761029973626" lon="-4.865786992013454">
        <ele>66.950000000000003</ele>
        <time>2023-08-24T12:13:15Z</time>
      </trkpt>
      <trkpt lat="58.48674195818603" lon="-4.868086986243725">
        <ele>71.269999999999996</ele>
        <time>2023-08-24T12:13:23Z</time>
      </trkpt>
      <trkpt lat="58.48560000769794" lon="-4.870463004335761">
        <ele>75.120000000000005</ele>
        <time>2023-08-24T12:13:33Z</time>
      </trkpt>
      <trkpt lat="58.4845279622823" lon="-4.872065037488937">
        <ele>78.969999999999999</ele>
        <time>2023-08-24T12:13:41Z</time>
      </trkpt>
      <trkpt lat="58.483965033665299" lon="-4.873126018792391">
        <ele>83.290000000000006</ele>
        <time>2023-08-24T12:13:47Z</time>
      </trkpt>
      <trkpt lat="58.483812985941768" lon="-4.873413015156984">
        <ele>86.659999999999997</ele>
        <time>2023-08-24T12:13:54Z</time>
      </trkpt>
      <trkpt lat="58.483379976823926" lon="-4.874228993430734">
        <ele>89.540000000000006</ele>
        <time>2023-08-24T12:14:00Z</time>
      </trkpt>
      <trkpt lat="58.482022024691105" lon="-4.876480959355831">
        <ele>97.709999999999994</ele>
        <time>2023-08-24T12:14:12Z</time>
      </trkpt>
      <trkpt lat="58.480136012658477" lon="-4.879641020670533">
        <ele>108.77</ele>
        <time>2023-08-24T12:14:26Z</time>
      </trkpt>
      <trkpt lat="58.47831797786057" lon="-4.883216992020607">
        <ele>119.81999999999999</ele>
        <time>2023-08-24T12:14:40Z</time>
      </trkpt>
      <trkpt lat="58.477033032104373" lon="-4.885164024308324">
        <ele>128.94999999999999</ele>
        <time>2023-08-24T12:14:49Z</time>
      </trkpt>
      <trkpt lat="58.475063033401966" lon="-4.887622017413378">
        <ele>142.88999999999999</ele>
        <time>2023-08-24T12:15:02Z</time>
      </trkpt>
      <trkpt lat="58.473755037412047" lon="-4.888919033110142">
        <ele>151.53999999999999</ele>
        <time>2023-08-24T12:15:11Z</time>
      </trkpt>
      <trkpt lat="58.473533000797033" lon="-4.889135034754872">
        <ele>155.38999999999999</ele>
        <time>2023-08-24T12:15:16Z</time>
      </trkpt>
      <trkpt lat="58.473486984148622" lon="-4.889179961755872">
        <ele>158.75</ele>
        <time>2023-08-24T12:15:26Z</time>
      </trkpt>
      <trkpt lat="58.473486984148622" lon="-4.889179961755872">
        <ele>158.75</ele>
        <time>2023-08-24T12:15:41Z</time>
      </trkpt>
      <trkpt lat="58.473422024399042" lon="-4.889242993667722">
        <ele>161.63999999999999</ele>
        <time>2023-08-24T12:15:43Z</time>
      </trkpt>
      <trkpt lat="58.473367961123586" lon="-4.889294961467385">
        <ele>162.59999999999999</ele>
        <time>2023-08-24T12:15:44Z</time>
      </trkpt>
      <trkpt lat="58.472760021686554" lon="-4.890101971104741">
        <ele>164.52000000000001</ele>
        <time>2023-08-24T12:15:50Z</time>
      </trkpt>
      <trkpt lat="58.471352029591799" lon="-4.891782039776444">
        <ele>170.28999999999999</ele>
        <time>2023-08-24T12:16:00Z</time>
      </trkpt>
      <trkpt lat="58.470352990552783" lon="-4.893048964440823">
        <ele>174.13999999999999</ele>
        <time>2023-08-24T12:16:08Z</time>
      </trkpt>
      <trkpt lat="58.469665003940463" lon="-4.894767003133893">
        <ele>177.02000000000001</ele>
        <time>2023-08-24T12:16:15Z</time>
      </trkpt>
      <trkpt lat="58.469386976212263" lon="-4.895486002787948">
        <ele>177.02000000000001</ele>
        <time>2023-08-24T12:16:20Z</time>
      </trkpt>
      <trkpt lat="58.468891019001603" lon="-4.897208986803889">
        <ele>177.5</ele>
        <time>2023-08-24T12:16:27Z</time>
      </trkpt>
      <trkpt lat="58.46843202598393" lon="-4.899199018254876">
        <ele>176.06</ele>
        <time>2023-08-24T12:16:35Z</time>
      </trkpt>
      <trkpt lat="58.468342004343867" lon="-4.899378977715969">
        <ele>175.58000000000001</ele>
        <time>2023-08-24T12:16:36Z</time>
      </trkpt>
      <trkpt lat="58.468251982703805" lon="-4.899559020996094">
        <ele>175.58000000000001</ele>
        <time>2023-08-24T12:16:37Z</time>
      </trkpt>
      <trkpt lat="58.468166990205646" lon="-4.899729005992413">
        <ele>175.58000000000001</ele>
        <time>2023-08-24T12:16:38Z</time>
      </trkpt>
      <trkpt lat="58.46808903850615" lon="-4.89983101375401">
        <ele>175.58000000000001</ele>
        <time>2023-08-24T12:16:40Z</time>
      </trkpt>
      <trkpt lat="58.467619987204671" lon="-4.900319008156657">
        <ele>175.09999999999999</ele>
        <time>2023-08-24T12:16:46Z</time>
      </trkpt>
      <trkpt lat="58.466582978144288" lon="-4.901188965886831">
        <ele>177.02000000000001</ele>
        <time>2023-08-24T12:16:55Z</time>
      </trkpt>
      <trkpt lat="58.465252015739679" lon="-4.902549013495445">
        <ele>180.87</ele>
        <time>2023-08-24T12:17:05Z</time>
      </trkpt>
      <trkpt lat="58.4644790366292" lon="-4.904370987787843">
        <ele>185.66999999999999</ele>
        <time>2023-08-24T12:17:13Z</time>
      </trkpt>
      <trkpt lat="58.463919963687658" lon="-4.906517006456852">
        <ele>190.96000000000001</ele>
        <time>2023-08-24T12:17:21Z</time>
      </trkpt>
      <trkpt lat="58.462776001542807" lon="-4.909035013988614">
        <ele>190.96000000000001</ele>
        <time>2023-08-24T12:17:29Z</time>
      </trkpt>
      <trkpt lat="58.462671982124448" lon="-4.909358974546194">
        <ele>188.56</ele>
        <time>2023-08-24T12:17:31Z</time>
      </trkpt>
      <trkpt lat="58.461997993290424" lon="-4.912021989002824">
        <ele>181.83000000000001</ele>
        <time>2023-08-24T12:17:38Z</time>
      </trkpt>
      <trkpt lat="58.461770005524158" lon="-4.912925977259874">
        <ele>180.38</ele>
        <time>2023-08-24T12:17:41Z</time>
      </trkpt>
      <trkpt lat="58.460668958723545" lon="-4.916041027754545">
        <ele>176.06</ele>
        <time>2023-08-24T12:17:51Z</time>
      </trkpt>
      <trkpt lat="58.459270019084215" lon="-4.920372040942311">
        <ele>168.37</ele>
        <time>2023-08-24T12:18:05Z</time>
      </trkpt>
      <trkpt lat="58.459167005494237" lon="-4.920640010386705">
        <ele>167.88999999999999</ele>
        <time>2023-08-24T12:18:06Z</time>
      </trkpt>
      <trkpt lat="58.459031973034143" lon="-4.920846037566662">
        <ele>167.41</ele>
        <time>2023-08-24T12:18:07Z</time>
      </trkpt>
      <trkpt lat="58.458881014958024" lon="-4.921059021726251">
        <ele>166.93000000000001</ele>
        <time>2023-08-24T12:18:08Z</time>
      </trkpt>
      <trkpt lat="58.457717020064592" lon="-4.922674968838692">
        <ele>167.41</ele>
        <time>2023-08-24T12:18:16Z</time>
      </trkpt>
      <trkpt lat="58.456785036250949" lon="-4.924890976399183">
        <ele>165.96000000000001</ele>
        <time>2023-08-24T12:18:24Z</time>
      </trkpt>
      <trkpt lat="58.455144027248025" lon="-4.928518999367952">
        <ele>163.56</ele>
        <time>2023-08-24T12:18:37Z</time>
      </trkpt>
      <trkpt lat="58.453644001856446" lon="-4.930959977209568">
        <ele>161.16</ele>
        <time>2023-08-24T12:18:48Z</time>
      </trkpt>
      <trkpt lat="58.452968001365662" lon="-4.933035001158714">
        <ele>157.78999999999999</ele>
        <time>2023-08-24T12:18:56Z</time>
      </trkpt>
      <trkpt lat="58.452765997499228" lon="-4.933654004707933">
        <ele>157.31</ele>
        <time>2023-08-24T12:18:57Z</time>
      </trkpt>
      <trkpt lat="58.452658038586378" lon="-4.93392800912261">
        <ele>156.83000000000001</ele>
        <time>2023-08-24T12:18:58Z</time>
      </trkpt>
      <trkpt lat="58.451037984341383" lon="-4.937038030475378">
        <ele>151.06</ele>
        <time>2023-08-24T12:19:10Z</time>
      </trkpt>
      <trkpt lat="58.449335033074021" lon="-4.939574981108308">
        <ele>146.74000000000001</ele>
        <time>2023-08-24T12:19:21Z</time>
      </trkpt>
      <trkpt lat="58.448728015646338" lon="-4.940448040142655">
        <ele>144.34</ele>
        <time>2023-08-24T12:19:26Z</time>
      </trkpt>
      <trkpt lat="58.447699975222349" lon="-4.942705035209656">
        <ele>141.44999999999999</ele>
        <time>2023-08-24T12:19:34Z</time>
      </trkpt>
      <trkpt lat="58.446620972827077" lon="-4.945093039423227">
        <ele>132.80000000000001</ele>
        <time>2023-08-24T12:19:44Z</time>
      </trkpt>
      <trkpt lat="58.445554962381721" lon="-4.947965014725924">
        <ele>121.73999999999999</ele>
        <time>2023-08-24T12:19:55Z</time>
      </trkpt>
      <trkpt lat="58.444406976923347" lon="-4.950127964839339">
        <ele>110.20999999999999</ele>
        <time>2023-08-24T12:20:05Z</time>
      </trkpt>
      <trkpt lat="58.444171026349068" lon="-4.950448991730809">
        <ele>108.29000000000001</ele>
        <time>2023-08-24T12:20:07Z</time>
      </trkpt>
      <trkpt lat="58.444041023030877" lon="-4.950563991442323">
        <ele>107.31999999999999</ele>
        <time>2023-08-24T12:20:08Z</time>
      </trkpt>
      <trkpt lat="58.443910013884306" lon="-4.950678991153836">
        <ele>106.36</ele>
        <time>2023-08-24T12:20:09Z</time>
      </trkpt>
      <trkpt lat="58.443410033360124" lon="-4.951190035790205">
        <ele>101.08</ele>
        <time>2023-08-24T12:20:14Z</time>
      </trkpt>
      <trkpt lat="58.443197971209884" lon="-4.951617009937763">
        <ele>100.11</ele>
        <time>2023-08-24T12:20:15Z</time>
      </trkpt>
      <trkpt lat="58.443095963448286" lon="-4.951873999089003">
        <ele>99.150000000000006</ele>
        <time>2023-08-24T12:20:16Z</time>
      </trkpt>
      <trkpt lat="58.442004974931479" lon="-4.954789979383349">
        <ele>87.140000000000001</ele>
        <time>2023-08-24T12:20:28Z</time>
      </trkpt>
      <trkpt lat="58.440775014460087" lon="-4.957538992166519">
        <ele>80.409999999999997</ele>
        <time>2023-08-24T12:20:38Z</time>
      </trkpt>
      <trkpt lat="58.43977396376431" lon="-4.95912803336978">
        <ele>74.640000000000001</ele>
        <time>2023-08-24T12:20:46Z</time>
      </trkpt>
      <trkpt lat="58.439523009583354" lon="-4.959587026387453">
        <ele>71.269999999999996</ele>
        <time>2023-08-24T12:20:51Z</time>
      </trkpt>
      <trkpt lat="58.4394739754498" lon="-4.959675036370754">
        <ele>70.790000000000006</ele>
        <time>2023-08-24T12:20:52Z</time>
      </trkpt>
      <trkpt lat="58.439410021528602" lon="-4.959791963919997">
        <ele>70.310000000000002</ele>
        <time>2023-08-24T12:20:53Z</time>
      </trkpt>
      <trkpt lat="58.438912974670529" lon="-4.960682960227132">
        <ele>69.349999999999994</ele>
        <time>2023-08-24T12:20:58Z</time>
      </trkpt>
      <trkpt lat="58.438665959984064" lon="-4.960987977683544">
        <ele>68.870000000000005</ele>
        <time>2023-08-24T12:21:01Z</time>
      </trkpt>
      <trkpt lat="58.438285002484918" lon="-4.961459040641785">
        <ele>67.909999999999997</ele>
        <time>2023-08-24T12:21:04Z</time>
      </trkpt>
      <trkpt lat="58.437903961166739" lon="-4.961960026994348">
        <ele>66.469999999999999</ele>
        <time>2023-08-24T12:21:07Z</time>
      </trkpt>
      <trkpt lat="58.436839962378144" lon="-4.964449033141136">
        <ele>63.579999999999998</ele>
        <time>2023-08-24T12:21:17Z</time>
      </trkpt>
      <trkpt lat="58.436739966273308" lon="-4.964625975117087">
        <ele>63.579999999999998</ele>
        <time>2023-08-24T12:21:18Z</time>
      </trkpt>
      <trkpt lat="58.436621027067304" lon="-4.96478003449738">
        <ele>63.579999999999998</ele>
        <time>2023-08-24T12:21:19Z</time>
      </trkpt>
      <trkpt lat="58.435980984941125" lon="-4.965731967240572">
        <ele>63.579999999999998</ele>
        <time>2023-08-24T12:21:25Z</time>
      </trkpt>
      <trkpt lat="58.434792011976242" lon="-4.967797016724944">
        <ele>67.430000000000007</ele>
        <time>2023-08-24T12:21:34Z</time>
      </trkpt>
      <trkpt lat="58.433328028768301" lon="-4.96997999958694">
        <ele>70.790000000000006</ele>
        <time>2023-08-24T12:21:44Z</time>
      </trkpt>
      <trkpt lat="58.432430997490883" lon="-4.970994964241982">
        <ele>75.120000000000005</ele>
        <time>2023-08-24T12:21:51Z</time>
      </trkpt>
      <trkpt lat="58.432264029979706" lon="-4.971106024459004">
        <ele>75.120000000000005</ele>
        <time>2023-08-24T12:21:52Z</time>
      </trkpt>
      <trkpt lat="58.430509027093649" lon="-4.97170097194612">
        <ele>78.969999999999999</ele>
        <time>2023-08-24T12:22:03Z</time>
      </trkpt>
      <trkpt lat="58.430385980755091" lon="-4.97180599719286">
        <ele>78.969999999999999</ele>
        <time>2023-08-24T12:22:04Z</time>
      </trkpt>
      <trkpt lat="58.430267963558435" lon="-4.971933988854289">
        <ele>78.969999999999999</ele>
        <time>2023-08-24T12:22:05Z</time>
      </trkpt>
      <trkpt lat="58.430041987448931" lon="-4.972308995202184">
        <ele>78.969999999999999</ele>
        <time>2023-08-24T12:22:06Z</time>
      </trkpt>
      <trkpt lat="58.429930005222559" lon="-4.972533965483308">
        <ele>78</ele>
        <time>2023-08-24T12:22:08Z</time>
      </trkpt>
      <trkpt lat="58.429145039990544" lon="-4.975538039579988">
        <ele>76.079999999999998</ele>
        <time>2023-08-24T12:22:17Z</time>
      </trkpt>
      <trkpt lat="58.428672971203923" lon="-4.978874959051609">
        <ele>66.469999999999999</ele>
        <time>2023-08-24T12:22:27Z</time>
      </trkpt>
      <trkpt lat="58.428269969299436" lon="-4.981591030955315">
        <ele>53.969999999999999</ele>
        <time>2023-08-24T12:22:37Z</time>
      </trkpt>
      <trkpt lat="58.427518028765917" lon="-4.983904017135501">
        <ele>46.280000000000001</ele>
        <time>2023-08-24T12:22:44Z</time>
      </trkpt>
      <trkpt lat="58.42715903185308" lon="-4.984479015693069">
        <ele>45.799999999999997</ele>
        <time>2023-08-24T12:22:47Z</time>
      </trkpt>
      <trkpt lat="58.427028022706509" lon="-4.984577000141144">
        <ele>45.32</ele>
        <time>2023-08-24T12:22:48Z</time>
      </trkpt>
      <trkpt lat="58.426901958882809" lon="-4.984643971547484">
        <ele>44.359999999999999</ele>
        <time>2023-08-24T12:22:49Z</time>
      </trkpt>
      <trkpt lat="58.426773967221379" lon="-4.984659980982542">
        <ele>43.880000000000003</ele>
        <time>2023-08-24T12:22:50Z</time>
      </trkpt>
      <trkpt lat="58.426622003316879" lon="-4.98459099791944">
        <ele>42.920000000000002</ele>
        <time>2023-08-24T12:22:51Z</time>
      </trkpt>
      <trkpt lat="58.426459981128573" lon="-4.984517991542816">
        <ele>41.950000000000003</ele>
        <time>2023-08-24T12:22:52Z</time>
      </trkpt>
      <trkpt lat="58.426284966990352" lon="-4.98443802818656">
        <ele>41.469999999999999</ele>
        <time>2023-08-24T12:22:53Z</time>
      </trkpt>
      <trkpt lat="58.425391037017107" lon="-4.984123958274722">
        <ele>38.109999999999999</ele>
        <time>2023-08-24T12:22:58Z</time>
      </trkpt>
      <trkpt lat="58.425232032313943" lon="-4.984158994629979">
        <ele>37.630000000000003</ele>
        <time>2023-08-24T12:22:59Z</time>
      </trkpt>
      <trkpt lat="58.425088031217456" lon="-4.984242981299758">
        <ele>36.670000000000002</ele>
        <time>2023-08-24T12:23:00Z</time>
      </trkpt>
      <trkpt lat="58.424966996535659" lon="-4.984373990446329">
        <ele>35.710000000000001</ele>
        <time>2023-08-24T12:23:02Z</time>
      </trkpt>
      <trkpt lat="58.424764992669225" lon="-4.98473902232945">
        <ele>35.229999999999997</ele>
        <time>2023-08-24T12:23:03Z</time>
      </trkpt>
      <trkpt lat="58.424696009606123" lon="-4.984981007874012">
        <ele>34.740000000000002</ele>
        <time>2023-08-24T12:23:04Z</time>
      </trkpt>
      <trkpt lat="58.42462501488626" lon="-4.985230034217238">
        <ele>34.259999999999998</ele>
        <time>2023-08-24T12:23:05Z</time>
      </trkpt>
      <trkpt lat="58.424583021551371" lon="-4.985485011711717">
        <ele>33.780000000000001</ele>
        <time>2023-08-24T12:23:06Z</time>
      </trkpt>
      <trkpt lat="58.424575980752707" lon="-4.985785000026226">
        <ele>32.82</ele>
        <time>2023-08-24T12:23:07Z</time>
      </trkpt>
      <trkpt lat="58.424569023773074" lon="-4.986094040796161">
        <ele>32.340000000000003</ele>
        <time>2023-08-24T12:23:08Z</time>
      </trkpt>
      <trkpt lat="58.424572041258216" lon="-4.986397968605161">
        <ele>31.859999999999999</ele>
        <time>2023-08-24T12:23:09Z</time>
      </trkpt>
      <trkpt lat="58.424609005451202" lon="-4.986692005768418">
        <ele>31.379999999999999</ele>
        <time>2023-08-24T12:23:10Z</time>
      </trkpt>
      <trkpt lat="58.424770021811128" lon="-4.988217009231448">
        <ele>27.050000000000001</ele>
        <time>2023-08-24T12:23:18Z</time>
      </trkpt>
      <trkpt lat="58.424759041517973" lon="-4.988651024177671">
        <ele>25.609999999999999</ele>
        <time>2023-08-24T12:23:21Z</time>
      </trkpt>
      <trkpt lat="58.424735991284251" lon="-4.988886974751949">
        <ele>24.649999999999999</ele>
        <time>2023-08-24T12:23:27Z</time>
      </trkpt>
      <trkpt lat="58.424735991284251" lon="-4.988886974751949">
        <ele>24.170000000000002</ele>
        <time>2023-08-24T12:23:28Z</time>
      </trkpt>
      <trkpt lat="58.424735991284251" lon="-4.988886974751949">
        <ele>22.25</ele>
        <time>2023-08-24T12:23:41Z</time>
      </trkpt>
      <trkpt lat="58.424735991284251" lon="-4.988886974751949">
        <ele>22.25</ele>
        <time>2023-08-24T12:24:03Z</time>
      </trkpt>
      <trkpt lat="58.424624009057879" lon="-4.989131977781653">
        <ele>20.32</ele>
        <time>2023-08-24T12:24:24Z</time>
      </trkpt>
      <trkpt lat="58.424584027379751" lon="-4.989218981936574">
        <ele>20.32</ele>
        <time>2023-08-24T12:24:25Z</time>
      </trkpt>
      <trkpt lat="58.424538010731339" lon="-4.98931897804141">
        <ele>19.359999999999999</ele>
        <time>2023-08-24T12:24:27Z</time>
      </trkpt>
      <trkpt lat="58.424418987706304" lon="-4.989579990506172">
        <ele>19.359999999999999</ele>
        <time>2023-08-24T12:24:28Z</time>
      </trkpt>
      <trkpt lat="58.423720020800829" lon="-4.990870971232653">
        <ele>15.52</ele>
        <time>2023-08-24T12:24:35Z</time>
      </trkpt>
      <trkpt lat="58.423589011654258" lon="-4.991086972877383">
        <ele>14.56</ele>
        <time>2023-08-24T12:24:37Z</time>
      </trkpt>
      <trkpt lat="58.422889960929751" lon="-4.993214970454574">
        <ele>11.67</ele>
        <time>2023-08-24T12:24:43Z</time>
      </trkpt>
      <trkpt lat="58.422382017597556" lon="-4.996736040338874">
        <ele>18.879999999999999</ele>
        <time>2023-08-24T12:24:54Z</time>
      </trkpt>
      <trkpt lat="58.42155396938324" lon="-5.001447005197406">
        <ele>33.299999999999997</ele>
        <time>2023-08-24T12:25:06Z</time>
      </trkpt>
      <trkpt lat="58.420637995004654" lon="-5.003241989761591">
        <ele>37.630000000000003</ele>
        <time>2023-08-24T12:25:12Z</time>
      </trkpt>
      <trkpt lat="58.41936101205647" lon="-5.004241028800607">
        <ele>39.07</ele>
        <time>2023-08-24T12:25:18Z</time>
      </trkpt>
      <trkpt lat="58.419127995148301" lon="-5.00431596301496">
        <ele>39.07</ele>
        <time>2023-08-24T12:25:19Z</time>
      </trkpt>
      <trkpt lat="58.418891960754991" lon="-5.004326021298766">
        <ele>39.07</ele>
        <time>2023-08-24T12:25:20Z</time>
      </trkpt>
      <trkpt lat="58.417128995060921" lon="-5.004068026319146">
        <ele>33.780000000000001</ele>
        <time>2023-08-24T12:25:28Z</time>
      </trkpt>
      <trkpt lat="58.414666978642344" lon="-5.003618001937866">
        <ele>39.549999999999997</ele>
        <time>2023-08-24T12:25:39Z</time>
      </trkpt>
      <trkpt lat="58.411266021430492" lon="-5.002996986731887">
        <ele>50.130000000000003</ele>
        <time>2023-08-24T12:25:54Z</time>
      </trkpt>
      <trkpt lat="58.408132027834654" lon="-5.002556014806032">
        <ele>48.200000000000003</ele>
        <time>2023-08-24T12:26:08Z</time>
      </trkpt>
      <trkpt lat="58.406887985765934" lon="-5.00321801751852">
        <ele>46.759999999999998</ele>
        <time>2023-08-24T12:26:14Z</time>
      </trkpt>
      <trkpt lat="58.405859023332596" lon="-5.004689963534474">
        <ele>46.280000000000001</ele>
        <time>2023-08-24T12:26:20Z</time>
      </trkpt>
      <trkpt lat="58.405036004260182" lon="-5.007113004103303">
        <ele>45.32</ele>
        <time>2023-08-24T12:26:27Z</time>
      </trkpt>
      <trkpt lat="58.404050040990114" lon="-5.009333034977317">
        <ele>44.840000000000003</ele>
        <time>2023-08-24T12:26:34Z</time>
      </trkpt>
      <trkpt lat="58.402643976733088" lon="-5.010827025398612">
        <ele>44.840000000000003</ele>
        <time>2023-08-24T12:26:41Z</time>
      </trkpt>
      <trkpt lat="58.399319965392351" lon="-5.013849958777428">
        <ele>56.859999999999999</ele>
        <time>2023-08-24T12:26:57Z</time>
      </trkpt>
      <trkpt lat="58.398144990205765" lon="-5.015016971156001">
        <ele>62.140000000000001</ele>
        <time>2023-08-24T12:27:03Z</time>
      </trkpt>
      <trkpt lat="58.396913018077612" lon="-5.01677599735558">
        <ele>59.259999999999998</ele>
        <time>2023-08-24T12:27:11Z</time>
      </trkpt>
      <trkpt lat="58.394486038014293" lon="-5.021193008869886">
        <ele>44.359999999999999</ele>
        <time>2023-08-24T12:27:24Z</time>
      </trkpt>
      <trkpt lat="58.392924992367625" lon="-5.022840974852443">
        <ele>39.07</ele>
        <time>2023-08-24T12:27:32Z</time>
      </trkpt>
      <trkpt lat="58.390371026471257" lon="-5.024859001860023">
        <ele>40.990000000000002</ele>
        <time>2023-08-24T12:27:44Z</time>
      </trkpt>
      <trkpt lat="58.38797396980226" lon="-5.027019018307328">
        <ele>45.32</ele>
        <time>2023-08-24T12:27:56Z</time>
      </trkpt>
      <trkpt lat="58.386421976611018" lon="-5.029261009767652">
        <ele>50.130000000000003</ele>
        <time>2023-08-24T12:28:05Z</time>
      </trkpt>
      <trkpt lat="58.384563038125634" lon="-5.032042041420937">
        <ele>33.299999999999997</ele>
        <time>2023-08-24T12:28:16Z</time>
      </trkpt>
      <trkpt lat="58.383668018504977" lon="-5.032880986109376">
        <ele>21.77</ele>
        <time>2023-08-24T12:28:21Z</time>
      </trkpt>
      <trkpt lat="58.382415007799864" lon="-5.033131018280983">
        <ele>9.75</ele>
        <time>2023-08-24T12:28:28Z</time>
      </trkpt>
      <trkpt lat="58.381770020350814" lon="-5.032833963632584">
        <ele>7.35</ele>
        <time>2023-08-24T12:28:31Z</time>
      </trkpt>
      <trkpt lat="58.380777016282082" lon="-5.031844982877374">
        <ele>4.94</ele>
        <time>2023-08-24T12:28:35Z</time>
      </trkpt>
      <trkpt lat="58.380604013800621" lon="-5.0315569806844">
        <ele>3.98</ele>
        <time>2023-08-24T12:28:36Z</time>
      </trkpt>
      <trkpt lat="58.38043101131916" lon="-5.031267972663045">
        <ele>3.5</ele>
        <time>2023-08-24T12:28:37Z</time>
      </trkpt>
      <trkpt lat="58.380272006615996" lon="-5.030936971306801">
        <ele>3.02</ele>
        <time>2023-08-24T12:28:38Z</time>
      </trkpt>
      <trkpt lat="58.380139991641045" lon="-5.03056900575757">
        <ele>3.02</ele>
        <time>2023-08-24T12:28:39Z</time>
      </trkpt>
      <trkpt lat="58.380025997757912" lon="-5.030183019116521">
        <ele>2.54</ele>
        <time>2023-08-24T12:28:40Z</time>
      </trkpt>
      <trkpt lat="58.379909992218018" lon="-5.029790997505188">
        <ele>2.54</ele>
        <time>2023-08-24T12:28:41Z</time>
      </trkpt>
      <trkpt lat="58.379791975021362" lon="-5.029390007257462">
        <ele>2.54</ele>
        <time>2023-08-24T12:28:42Z</time>
      </trkpt>
      <trkpt lat="58.379619978368282" lon="-5.028521977365017">
        <ele>2.06</ele>
        <time>2023-08-24T12:28:44Z</time>
      </trkpt>
      <trkpt lat="58.378537958487868" lon="-5.023368028923869">
        <ele>3.98</ele>
        <time>2023-08-24T12:28:56Z</time>
      </trkpt>
      <trkpt lat="58.377237003296614" lon="-5.018552960827947">
        <ele>9.75</ele>
        <time>2023-08-24T12:29:09Z</time>
      </trkpt>
      <trkpt lat="58.377112029120326" lon="-5.018249033018947">
        <ele>10.23</ele>
        <time>2023-08-24T12:29:10Z</time>
      </trkpt>
      <trkpt lat="58.376988982781768" lon="-5.017951978370547">
        <ele>10.23</ele>
        <time>2023-08-24T12:29:11Z</time>
      </trkpt>
      <trkpt lat="58.376839030534029" lon="-5.017701024189591">
        <ele>10.710000000000001</ele>
        <time>2023-08-24T12:29:12Z</time>
      </trkpt>
      <trkpt lat="58.376682037487626" lon="-5.017479993402958">
        <ele>11.19</ele>
        <time>2023-08-24T12:29:14Z</time>
      </trkpt>
      <trkpt lat="58.376168981194496" lon="-5.017030974850059">
        <ele>11.67</ele>
        <time>2023-08-24T12:29:16Z</time>
      </trkpt>
      <trkpt lat="58.3760030195117" lon="-5.016954028978944">
        <ele>12.15</ele>
        <time>2023-08-24T12:29:18Z</time>
      </trkpt>
      <trkpt lat="58.375379992648959" lon="-5.016779014840722">
        <ele>12.15</ele>
        <time>2023-08-24T12:29:21Z</time>
      </trkpt>
      <trkpt lat="58.375215958803892" lon="-5.016766022890806">
        <ele>12.15</ele>
        <time>2023-08-24T12:29:22Z</time>
      </trkpt>
      <trkpt lat="58.374368967488408" lon="-5.016908012330532">
        <ele>12.630000000000001</ele>
        <time>2023-08-24T12:29:27Z</time>
      </trkpt>
      <trkpt lat="58.374209040775895" lon="-5.016960985958576">
        <ele>13.119999999999999</ele>
        <time>2023-08-24T12:29:28Z</time>
      </trkpt>
      <trkpt lat="58.374031009152532" lon="-5.017017982900143">
        <ele>13.119999999999999</ele>
        <time>2023-08-24T12:29:29Z</time>
      </trkpt>
      <trkpt lat="58.373907040804625" lon="-5.017117979004979">
        <ele>13.6</ele>
        <time>2023-08-24T12:29:30Z</time>
      </trkpt>
      <trkpt lat="58.373764967545867" lon="-5.017253011465073">
        <ele>14.08</ele>
        <time>2023-08-24T12:29:31Z</time>
      </trkpt>
      <trkpt lat="58.373628007248044" lon="-5.017421990633011">
        <ele>14.08</ele>
        <time>2023-08-24T12:29:32Z</time>
      </trkpt>
      <trkpt lat="58.373498003929853" lon="-5.01761301420629">
        <ele>14.08</ele>
        <time>2023-08-24T12:29:33Z</time>
      </trkpt>
      <trkpt lat="58.373379986733198" lon="-5.017847958952189">
        <ele>14.56</ele>
        <time>2023-08-24T12:29:34Z</time>
      </trkpt>
      <trkpt lat="58.373272027820349" lon="-5.018095979467034">
        <ele>14.56</ele>
        <time>2023-08-24T12:29:35Z</time>
      </trkpt>
      <trkpt lat="58.373177982866764" lon="-5.018375013023615">
        <ele>15.039999999999999</ele>
        <time>2023-08-24T12:29:36Z</time>
      </trkpt>
      <trkpt lat="58.373084021732211" lon="-5.018659997731447">
        <ele>15.039999999999999</ele>
        <time>2023-08-24T12:29:37Z</time>
      </trkpt>
      <trkpt lat="58.37213896214962" lon="-5.020843986421824">
        <ele>14.08</ele>
        <time>2023-08-24T12:29:45Z</time>
      </trkpt>
      <trkpt lat="58.370943032205105" lon="-5.022630002349615">
        <ele>14.56</ele>
        <time>2023-08-24T12:29:53Z</time>
      </trkpt>
      <trkpt lat="58.370835995301604" lon="-5.022912975400686">
        <ele>14.56</ele>
        <time>2023-08-24T12:29:54Z</time>
      </trkpt>
      <trkpt lat="58.370754020288587" lon="-5.023238025605679">
        <ele>14.56</ele>
        <time>2023-08-24T12:29:55Z</time>
      </trkpt>
      <trkpt lat="58.370673973113298" lon="-5.023560980334878">
        <ele>14.56</ele>
        <time>2023-08-24T12:29:56Z</time>
      </trkpt>
      <trkpt lat="58.370647989213467" lon="-5.023910002782941">
        <ele>14.56</ele>
        <time>2023-08-24T12:29:57Z</time>
      </trkpt>
      <trkpt lat="58.370630973950028" lon="-5.02427201718092">
        <ele>14.08</ele>
        <time>2023-08-24T12:29:58Z</time>
      </trkpt>
      <trkpt lat="58.37063298560679" lon="-5.02463897690177">
        <ele>14.08</ele>
        <time>2023-08-24T12:29:59Z</time>
      </trkpt>
      <trkpt lat="58.37067699059844" lon="-5.025010965764523">
        <ele>14.08</ele>
        <time>2023-08-24T12:30:00Z</time>
      </trkpt>
      <trkpt lat="58.370723007246852" lon="-5.025394018739462">
        <ele>14.08</ele>
        <time>2023-08-24T12:30:01Z</time>
      </trkpt>
      <trkpt lat="58.370786039158702" lon="-5.025773970410228">
        <ele>14.56</ele>
        <time>2023-08-24T12:30:02Z</time>
      </trkpt>
      <trkpt lat="58.3708690200001" lon="-5.026147970929742">
        <ele>14.56</ele>
        <time>2023-08-24T12:30:03Z</time>
      </trkpt>
      <trkpt lat="58.371938969939947" lon="-5.03099899739027">
        <ele>14.56</ele>
        <time>2023-08-24T12:30:15Z</time>
      </trkpt>
      <trkpt lat="58.372434005141258" lon="-5.033421032130718">
        <ele>14.56</ele>
        <time>2023-08-24T12:30:21Z</time>
      </trkpt>
      <trkpt lat="58.372473986819386" lon="-5.033822022378445">
        <ele>14.08</ele>
        <time>2023-08-24T12:30:22Z</time>
      </trkpt>
      <trkpt lat="58.372464012354612" lon="-5.034219995141029">
        <ele>14.08</ele>
        <time>2023-08-24T12:30:23Z</time>
      </trkpt>
      <trkpt lat="58.372432999312878" lon="-5.03460799343884">
        <ele>14.08</ele>
        <time>2023-08-24T12:30:24Z</time>
      </trkpt>
      <trkpt lat="58.372374996542931" lon="-5.034963972866535">
        <ele>14.08</ele>
        <time>2023-08-24T12:30:25Z</time>
      </trkpt>
      <trkpt lat="58.372298972681165" lon="-5.035322969779372">
        <ele>13.6</ele>
        <time>2023-08-24T12:30:26Z</time>
      </trkpt>
      <trkpt lat="58.372204005718231" lon="-5.035665035247803">
        <ele>13.6</ele>
        <time>2023-08-24T12:30:27Z</time>
      </trkpt>
      <trkpt lat="58.372096968814731" lon="-5.036002993583679">
        <ele>13.119999999999999</ele>
        <time>2023-08-24T12:30:28Z</time>
      </trkpt>
      <trkpt lat="58.37183796800673" lon="-5.037072021514177">
        <ele>12.15</ele>
        <time>2023-08-24T12:30:31Z</time>
      </trkpt>
      <trkpt lat="58.37179203517735" lon="-5.037451973184943">
        <ele>11.67</ele>
        <time>2023-08-24T12:30:32Z</time>
      </trkpt>
      <trkpt lat="58.371764039620757" lon="-5.03783100284636">
        <ele>11.67</ele>
        <time>2023-08-24T12:30:33Z</time>
      </trkpt>
      <trkpt lat="58.371797986328602" lon="-5.038215983659029">
        <ele>11.19</ele>
        <time>2023-08-24T12:30:34Z</time>
      </trkpt>
      <trkpt lat="58.371833022683859" lon="-5.038610016927123">
        <ele>10.710000000000001</ele>
        <time>2023-08-24T12:30:35Z</time>
      </trkpt>
      <trkpt lat="58.371870992705226" lon="-5.039002038538456">
        <ele>10.710000000000001</ele>
        <time>2023-08-24T12:30:36Z</time>
      </trkpt>
      <trkpt lat="58.371953973546624" lon="-5.039380984380841">
        <ele>10.710000000000001</ele>
        <time>2023-08-24T12:30:37Z</time>
      </trkpt>
      <trkpt lat="58.372037960216403" lon="-5.039769988507032">
        <ele>10.710000000000001</ele>
        <time>2023-08-24T12:30:38Z</time>
      </trkpt>
      <trkpt lat="58.373083015903831" lon="-5.044708019122481">
        <ele>12.15</ele>
        <time>2023-08-24T12:30:50Z</time>
      </trkpt>
      <trkpt lat="58.374034026637673" lon="-5.04949601367116">
        <ele>14.08</ele>
        <time>2023-08-24T12:31:02Z</time>
      </trkpt>
      <trkpt lat="58.375049997121096" lon="-5.054226005449891">
        <ele>27.050000000000001</ele>
        <time>2023-08-24T12:31:14Z</time>
      </trkpt>
      <trkpt lat="58.376009976491332" lon="-5.056989016011357">
        <ele>36.670000000000002</ele>
        <time>2023-08-24T12:31:22Z</time>
      </trkpt>
      <trkpt lat="58.377425009384751" lon="-5.059956964105368">
        <ele>41.469999999999999</ele>
        <time>2023-08-24T12:31:32Z</time>
      </trkpt>
      <trkpt lat="58.3789680339396" lon="-5.06312096491456">
        <ele>42.439999999999998</ele>
        <time>2023-08-24T12:31:43Z</time>
      </trkpt>
      <trkpt lat="58.379188980907202" lon="-5.063703004270792">
        <ele>42.920000000000002</ele>
        <time>2023-08-24T12:31:45Z</time>
      </trkpt>
      <trkpt lat="58.379260981455445" lon="-5.064030988141894">
        <ele>43.880000000000003</ele>
        <time>2023-08-24T12:31:46Z</time>
      </trkpt>
      <trkpt lat="58.379330970346928" lon="-5.064354026690126">
        <ele>44.840000000000003</ele>
        <time>2023-08-24T12:31:47Z</time>
      </trkpt>
      <trkpt lat="58.379362989217043" lon="-5.064693996682763">
        <ele>45.32</ele>
        <time>2023-08-24T12:31:48Z</time>
      </trkpt>
      <trkpt lat="58.379395008087158" lon="-5.065031033009291">
        <ele>46.280000000000001</ele>
        <time>2023-08-24T12:31:49Z</time>
      </trkpt>
      <trkpt lat="58.379378998652101" lon="-5.065363040193915">
        <ele>47.719999999999999</ele>
        <time>2023-08-24T12:31:50Z</time>
      </trkpt>
      <trkpt lat="58.379360977560282" lon="-5.065703010186553">
        <ele>48.200000000000003</ele>
        <time>2023-08-24T12:31:51Z</time>
      </trkpt>
      <trkpt lat="58.379322001710534" lon="-5.066034011542797">
        <ele>48.68</ele>
        <time>2023-08-24T12:31:52Z</time>
      </trkpt>
      <trkpt lat="58.379263998940587" lon="-5.066375993192196">
        <ele>49.159999999999997</ele>
        <time>2023-08-24T12:31:53Z</time>
      </trkpt>
      <trkpt lat="58.379203984513879" lon="-5.06672996096313">
        <ele>49.649999999999999</ele>
        <time>2023-08-24T12:31:54Z</time>
      </trkpt>
      <trkpt lat="58.378773992881179" lon="-5.06853399798274">
        <ele>49.649999999999999</ele>
        <time>2023-08-24T12:31:59Z</time>
      </trkpt>
      <trkpt lat="58.378639966249466" lon="-5.068841027095914">
        <ele>49.649999999999999</ele>
        <time>2023-08-24T12:32:00Z</time>
      </trkpt>
      <trkpt lat="58.378484984859824" lon="-5.06911301985383">
        <ele>49.159999999999997</ele>
        <time>2023-08-24T12:32:01Z</time>
      </trkpt>
      <trkpt lat="58.378312988206744" lon="-5.069375038146973">
        <ele>48.68</ele>
        <time>2023-08-24T12:32:02Z</time>
      </trkpt>
      <trkpt lat="58.378138979896903" lon="-5.069638984277844">
        <ele>48.68</ele>
        <time>2023-08-24T12:32:03Z</time>
      </trkpt>
      <trkpt lat="58.377942005172372" lon="-5.069832019507885">
        <ele>48.200000000000003</ele>
        <time>2023-08-24T12:32:04Z</time>
      </trkpt>
      <trkpt lat="58.377741007134318" lon="-5.070022959262133">
        <ele>48.68</ele>
        <time>2023-08-24T12:32:05Z</time>
      </trkpt>
      <trkpt lat="58.37752802297473" lon="-5.070176012814045">
        <ele>48.68</ele>
        <time>2023-08-24T12:32:06Z</time>
      </trkpt>
      <trkpt lat="58.374968022108078" lon="-5.071967979893088">
        <ele>51.090000000000003</ele>
        <time>2023-08-24T12:32:18Z</time>
      </trkpt>
      <trkpt lat="58.374240975826979" lon="-5.072687985375524">
        <ele>52.049999999999997</ele>
        <time>2023-08-24T12:32:22Z</time>
      </trkpt>
      <trkpt lat="58.374084988608956" lon="-5.072938017547131">
        <ele>52.530000000000001</ele>
        <time>2023-08-24T12:32:23Z</time>
      </trkpt>
      <trkpt lat="58.373592970892787" lon="-5.073617035523057">
        <ele>53.969999999999999</ele>
        <time>2023-08-24T12:32:26Z</time>
      </trkpt>
      <trkpt lat="58.373414017260075" lon="-5.073777968063951">
        <ele>53.969999999999999</ele>
        <time>2023-08-24T12:32:27Z</time>
      </trkpt>
      <trkpt lat="58.373227017000318" lon="-5.07390595972538">
        <ele>54.450000000000003</ele>
        <time>2023-08-24T12:32:28Z</time>
      </trkpt>
      <trkpt lat="58.372055981308222" lon="-5.074569974094629">
        <ele>54.450000000000003</ele>
        <time>2023-08-24T12:32:34Z</time>
      </trkpt>
      <trkpt lat="58.37188096717" lon="-5.074728978797793">
        <ele>54.450000000000003</ele>
        <time>2023-08-24T12:32:35Z</time>
      </trkpt>
      <trkpt lat="58.370440034195781" lon="-5.07678103633225">
        <ele>50.130000000000003</ele>
        <time>2023-08-24T12:32:44Z</time>
      </trkpt>
      <trkpt lat="58.370320005342364" lon="-5.07706300355494">
        <ele>49.649999999999999</ele>
        <time>2023-08-24T12:32:45Z</time>
      </trkpt>
      <trkpt lat="58.370207017287612" lon="-5.077367015182972">
        <ele>49.159999999999997</ele>
        <time>2023-08-24T12:32:46Z</time>
      </trkpt>
      <trkpt lat="58.370091011747718" lon="-5.077678989619017">
        <ele>48.68</ele>
        <time>2023-08-24T12:32:47Z</time>
      </trkpt>
      <trkpt lat="58.369980035349727" lon="-5.078004039824009">
        <ele>48.200000000000003</ele>
        <time>2023-08-24T12:32:48Z</time>
      </trkpt>
      <trkpt lat="58.369306968525052" lon="-5.079854009672999">
        <ele>47.719999999999999</ele>
        <time>2023-08-24T12:32:55Z</time>
      </trkpt>
      <trkpt lat="58.368150014430285" lon="-5.081239035353065">
        <ele>53.490000000000002</ele>
        <time>2023-08-24T12:33:01Z</time>
      </trkpt>
      <trkpt lat="58.365954961627722" lon="-5.083377007395029">
        <ele>62.619999999999997</ele>
        <time>2023-08-24T12:33:13Z</time>
      </trkpt>
      <trkpt lat="58.365451041609049" lon="-5.083972960710526">
        <ele>63.100000000000001</ele>
        <time>2023-08-24T12:33:16Z</time>
      </trkpt>
      <trkpt lat="58.36453003808856" lon="-5.085937008261681">
        <ele>65.510000000000005</ele>
        <time>2023-08-24T12:33:23Z</time>
      </trkpt>
      <trkpt lat="58.364417972043157" lon="-5.086218975484371">
        <ele>65.510000000000005</ele>
        <time>2023-08-24T12:33:24Z</time>
      </trkpt>
      <trkpt lat="58.364374972879887" lon="-5.086581995710731">
        <ele>65.989999999999995</ele>
        <time>2023-08-24T12:33:25Z</time>
      </trkpt>
      <trkpt lat="58.364331973716617" lon="-5.086935963481665">
        <ele>66.469999999999999</ele>
        <time>2023-08-24T12:33:26Z</time>
      </trkpt>
      <trkpt lat="58.364288974553347" lon="-5.087292026728392">
        <ele>66.950000000000003</ele>
        <time>2023-08-24T12:33:27Z</time>
      </trkpt>
      <trkpt lat="58.364308001473546" lon="-5.087648006156087">
        <ele>67.909999999999997</ele>
        <time>2023-08-24T12:33:28Z</time>
      </trkpt>
      <trkpt lat="58.364326022565365" lon="-5.088005997240543">
        <ele>68.390000000000001</ele>
        <time>2023-08-24T12:33:29Z</time>
      </trkpt>
      <trkpt lat="58.364386036992073" lon="-5.088354013860226">
        <ele>68.870000000000005</ele>
        <time>2023-08-24T12:33:30Z</time>
      </trkpt>
      <trkpt lat="58.364469017833471" lon="-5.088703958317637">
        <ele>69.349999999999994</ele>
        <time>2023-08-24T12:33:31Z</time>
      </trkpt>
      <trkpt lat="58.364555016160011" lon="-5.089063961058855">
        <ele>69.829999999999998</ele>
        <time>2023-08-24T12:33:32Z</time>
      </trkpt>
      <trkpt lat="58.364775963127613" lon="-5.09008202701807">
        <ele>70.790000000000006</ele>
        <time>2023-08-24T12:33:35Z</time>
      </trkpt>
      <trkpt lat="58.364803958684206" lon="-5.09038201533258">
        <ele>70.790000000000006</ele>
        <time>2023-08-24T12:33:36Z</time>
      </trkpt>
      <trkpt lat="58.364779986441135" lon="-5.090691978111863">
        <ele>70.790000000000006</ele>
        <time>2023-08-24T12:33:37Z</time>
      </trkpt>
      <trkpt lat="58.36474796757102" lon="-5.09098500944674">
        <ele>70.790000000000006</ele>
        <time>2023-08-24T12:33:38Z</time>
      </trkpt>
      <trkpt lat="58.364697005599737" lon="-5.091239986941218">
        <ele>71.269999999999996</ele>
        <time>2023-08-24T12:33:39Z</time>
      </trkpt>
      <trkpt lat="58.364593992009759" lon="-5.091493958607316">
        <ele>71.269999999999996</ele>
        <time>2023-08-24T12:33:40Z</time>
      </trkpt>
      <trkpt lat="58.364501958712935" lon="-5.091719012707472">
        <ele>71.269999999999996</ele>
        <time>2023-08-24T12:33:41Z</time>
      </trkpt>
      <trkpt lat="58.364388970658183" lon="-5.091897966340184">
        <ele>71.269999999999996</ele>
        <time>2023-08-24T12:33:42Z</time>
      </trkpt>
      <trkpt lat="58.364254022017121" lon="-5.092045990750194">
        <ele>71.269999999999996</ele>
        <time>2023-08-24T12:33:43Z</time>
      </trkpt>
      <trkpt lat="58.364091999828815" lon="-5.092126959934831">
        <ele>71.760000000000005</ele>
        <time>2023-08-24T12:33:44Z</time>
      </trkpt>
      <trkpt lat="58.363921009004116" lon="-5.092134000733495">
        <ele>71.760000000000005</ele>
        <time>2023-08-24T12:33:45Z</time>
      </trkpt>
      <trkpt lat="58.363745994865894" lon="-5.09212302044034">
        <ele>71.760000000000005</ele>
        <time>2023-08-24T12:33:46Z</time>
      </trkpt>
      <trkpt lat="58.362252004444599" lon="-5.0917780213058">
        <ele>71.269999999999996</ele>
        <time>2023-08-24T12:33:54Z</time>
      </trkpt>
      <trkpt lat="58.362071039155126" lon="-5.091741979122162">
        <ele>71.269999999999996</ele>
        <time>2023-08-24T12:33:55Z</time>
      </trkpt>
      <trkpt lat="58.361896025016904" lon="-5.091761006042361">
        <ele>71.269999999999996</ele>
        <time>2023-08-24T12:33:56Z</time>
      </trkpt>
      <trkpt lat="58.361726040020585" lon="-5.091796964406967">
        <ele>70.790000000000006</ele>
        <time>2023-08-24T12:33:57Z</time>
      </trkpt>
      <trkpt lat="58.361556977033615" lon="-5.09190701879561">
        <ele>70.790000000000006</ele>
        <time>2023-08-24T12:33:58Z</time>
      </trkpt>
      <trkpt lat="58.36137400008738" lon="-5.092026041820645">
        <ele>70.310000000000002</ele>
        <time>2023-08-24T12:33:59Z</time>
      </trkpt>
      <trkpt lat="58.361195968464017" lon="-5.092211030423641">
        <ele>69.829999999999998</ele>
        <time>2023-08-24T12:34:00Z</time>
      </trkpt>
      <trkpt lat="58.361018020659685" lon="-5.092417979612947">
        <ele>69.829999999999998</ele>
        <time>2023-08-24T12:34:01Z</time>
      </trkpt>
      <trkpt lat="58.360846024006605" lon="-5.092659965157509">
        <ele>70.310000000000002</ele>
        <time>2023-08-24T12:34:02Z</time>
      </trkpt>
      <trkpt lat="58.360233977437019" lon="-5.093783978372812">
        <ele>72.239999999999995</ele>
        <time>2023-08-24T12:34:06Z</time>
      </trkpt>
      <trkpt lat="58.359100995585322" lon="-5.096124960109592">
        <ele>77.519999999999996</ele>
        <time>2023-08-24T12:34:14Z</time>
      </trkpt>
      <trkpt lat="58.358625993132591" lon="-5.096858963370323">
        <ele>79.450000000000003</ele>
        <time>2023-08-24T12:34:17Z</time>
      </trkpt>
      <trkpt lat="58.358490960672498" lon="-5.097097009420395">
        <ele>79.930000000000007</ele>
        <time>2023-08-24T12:34:18Z</time>
      </trkpt>
      <trkpt lat="58.358371015638113" lon="-5.097370008006692">
        <ele>79.930000000000007</ele>
        <time>2023-08-24T12:34:19Z</time>
      </trkpt>
      <trkpt lat="58.358273031190038" lon="-5.097677959129214">
        <ele>80.409999999999997</ele>
        <time>2023-08-24T12:34:20Z</time>
      </trkpt>
      <trkpt lat="58.358173035085201" lon="-5.097993034869432">
        <ele>80.890000000000001</ele>
        <time>2023-08-24T12:34:21Z</time>
      </trkpt>
      <trkpt lat="58.357867011800408" lon="-5.098953014239669">
        <ele>81.849999999999994</ele>
        <time>2023-08-24T12:34:24Z</time>
      </trkpt>
      <trkpt lat="58.357754023745656" lon="-5.099257025867701">
        <ele>82.329999999999998</ele>
        <time>2023-08-24T12:34:25Z</time>
      </trkpt>
      <trkpt lat="58.357605999335647" lon="-5.099498005583882">
        <ele>82.810000000000002</ele>
        <time>2023-08-24T12:34:26Z</time>
      </trkpt>
      <trkpt lat="58.356761019676924" lon="-5.100985039025545">
        <ele>84.730000000000004</ele>
        <time>2023-08-24T12:34:32Z</time>
      </trkpt>
      <trkpt lat="58.356650965288281" lon="-5.101268012076616">
        <ele>84.730000000000004</ele>
        <time>2023-08-24T12:34:33Z</time>
      </trkpt>
      <trkpt lat="58.356576031073928" lon="-5.101605970412493">
        <ele>84.730000000000004</ele>
        <time>2023-08-24T12:34:34Z</time>
      </trkpt>
      <trkpt lat="58.356499001383781" lon="-5.101957004517317">
        <ele>85.209999999999994</ele>
        <time>2023-08-24T12:34:35Z</time>
      </trkpt>
      <trkpt lat="58.356448039412498" lon="-5.102338967844844">
        <ele>85.209999999999994</ele>
        <time>2023-08-24T12:34:36Z</time>
      </trkpt>
      <trkpt lat="58.355901958420873" lon="-5.105856014415622">
        <ele>88.579999999999998</ele>
        <time>2023-08-24T12:34:45Z</time>
      </trkpt>
      <trkpt lat="58.35535797290504" lon="-5.107982000336051">
        <ele>90.980000000000004</ele>
        <time>2023-08-24T12:34:51Z</time>
      </trkpt>
      <trkpt lat="58.354527996852994" lon="-5.110764959827066">
        <ele>88.579999999999998</ele>
        <time>2023-08-24T12:34:59Z</time>
      </trkpt>
      <trkpt lat="58.353553013876081" lon="-5.113898031413555">
        <ele>84.730000000000004</ele>
        <time>2023-08-24T12:35:08Z</time>
      </trkpt>
      <trkpt lat="58.353409012779593" lon="-5.114204976707697">
        <ele>84.730000000000004</ele>
        <time>2023-08-24T12:35:09Z</time>
      </trkpt>
      <trkpt lat="58.352355994284153" lon="-5.116020999848843">
        <ele>83.290000000000006</ele>
        <time>2023-08-24T12:35:16Z</time>
      </trkpt>
      <trkpt lat="58.352183997631073" lon="-5.11620900593698">
        <ele>82.810000000000002</ele>
        <time>2023-08-24T12:35:17Z</time>
      </trkpt>
      <trkpt lat="58.351996997371316" lon="-5.116328028962016">
        <ele>82.329999999999998</ele>
        <time>2023-08-24T12:35:18Z</time>
      </trkpt>
      <trkpt lat="58.351806979626417" lon="-5.116412015631795">
        <ele>81.849999999999994</ele>
        <time>2023-08-24T12:35:19Z</time>
      </trkpt>
      <trkpt lat="58.351612016558647" lon="-5.116441017016769">
        <ele>81.370000000000005</ele>
        <time>2023-08-24T12:35:20Z</time>
      </trkpt>
      <trkpt lat="58.351415963843465" lon="-5.116417966783047">
        <ele>80.890000000000001</ele>
        <time>2023-08-24T12:35:21Z</time>
      </trkpt>
      <trkpt lat="58.351225024089217" lon="-5.116396006196737">
        <ele>79.930000000000007</ele>
        <time>2023-08-24T12:35:22Z</time>
      </trkpt>
      <trkpt lat="58.350841971114278" lon="-5.116350995376706">
        <ele>77.519999999999996</ele>
        <time>2023-08-24T12:35:24Z</time>
      </trkpt>
      <trkpt lat="58.350654970854521" lon="-5.116329034790397">
        <ele>76.560000000000002</ele>
        <time>2023-08-24T12:35:25Z</time>
      </trkpt>
      <trkpt lat="58.350469982251525" lon="-5.116374967619777">
        <ele>75.120000000000005</ele>
        <time>2023-08-24T12:35:26Z</time>
      </trkpt>
      <trkpt lat="58.350293962284923" lon="-5.116474963724613">
        <ele>73.200000000000003</ele>
        <time>2023-08-24T12:35:27Z</time>
      </trkpt>
      <trkpt lat="58.350118026137352" lon="-5.116589041426778">
        <ele>71.269999999999996</ele>
        <time>2023-08-24T12:35:28Z</time>
      </trkpt>
      <trkpt lat="58.349947035312653" lon="-5.116763971745968">
        <ele>69.349999999999994</ele>
        <time>2023-08-24T12:35:29Z</time>
      </trkpt>
      <trkpt lat="58.349777972325683" lon="-5.116965975612402">
        <ele>66.950000000000003</ele>
        <time>2023-08-24T12:35:30Z</time>
      </trkpt>
      <trkpt lat="58.349631959572434" lon="-5.117237968370318">
        <ele>64.549999999999997</ele>
        <time>2023-08-24T12:35:31Z</time>
      </trkpt>
      <trkpt lat="58.349493993446231" lon="-5.117525970563293">
        <ele>62.140000000000001</ele>
        <time>2023-08-24T12:35:32Z</time>
      </trkpt>
      <trkpt lat="58.349013961851597" lon="-5.118751991540194">
        <ele>52.049999999999997</ele>
        <time>2023-08-24T12:35:36Z</time>
      </trkpt>
      <trkpt lat="58.348923018202186" lon="-5.119056003168225">
        <ele>46.759999999999998</ele>
        <time>2023-08-24T12:35:38Z</time>
      </trkpt>
      <trkpt lat="58.348850011825562" lon="-5.119763016700745">
        <ele>44.359999999999999</ele>
        <time>2023-08-24T12:35:39Z</time>
      </trkpt>
      <trkpt lat="58.348831990733743" lon="-5.120142968371511">
        <ele>41.469999999999999</ele>
        <time>2023-08-24T12:35:40Z</time>
      </trkpt>
      <trkpt lat="58.348723025992513" lon="-5.124570960178971">
        <ele>22.25</ele>
        <time>2023-08-24T12:35:51Z</time>
      </trkpt>
      <trkpt lat="58.348576007410884" lon="-5.128644984215498">
        <ele>25.129999999999999</ele>
        <time>2023-08-24T12:36:02Z</time>
      </trkpt>
      <trkpt lat="58.348635016009212" lon="-5.13135401532054">
        <ele>24.649999999999999</ele>
        <time>2023-08-24T12:36:09Z</time>
      </trkpt>
      <trkpt lat="58.348539965227246" lon="-5.133227035403252">
        <ele>25.609999999999999</ele>
        <time>2023-08-24T12:36:14Z</time>
      </trkpt>
      <trkpt lat="58.3485699724406" lon="-5.133606987074018">
        <ele>25.609999999999999</ele>
        <time>2023-08-24T12:36:15Z</time>
      </trkpt>
      <trkpt lat="58.348600985482335" lon="-5.133988028392196">
        <ele>25.129999999999999</ele>
        <time>2023-08-24T12:36:16Z</time>
      </trkpt>
      <trkpt lat="58.34921495988965" lon="-5.13683301396668">
        <ele>22.25</ele>
        <time>2023-08-24T12:36:24Z</time>
      </trkpt>
      <trkpt lat="58.350251968950033" lon="-5.139142982661724">
        <ele>22.25</ele>
        <time>2023-08-24T12:36:32Z</time>
      </trkpt>
      <trkpt lat="58.351151011884212" lon="-5.141583038493991">
        <ele>21.77</ele>
        <time>2023-08-24T12:36:40Z</time>
      </trkpt>
      <trkpt lat="58.351457035169005" lon="-5.143092032521963">
        <ele>23.210000000000001</ele>
        <time>2023-08-24T12:36:45Z</time>
      </trkpt>
      <trkpt lat="58.351936982944608" lon="-5.145860994234681">
        <ele>24.649999999999999</ele>
        <time>2023-08-24T12:36:57Z</time>
      </trkpt>
      <trkpt lat="58.3521359693259" lon="-5.147009985521436">
        <ele>24.170000000000002</ele>
        <time>2023-08-24T12:37:02Z</time>
      </trkpt>
      <trkpt lat="58.352220961824059" lon="-5.147994020953775">
        <ele>23.690000000000001</ele>
        <time>2023-08-24T12:37:08Z</time>
      </trkpt>
      <trkpt lat="58.352191038429737" lon="-5.148514034226537">
        <ele>23.210000000000001</ele>
        <time>2023-08-24T12:37:10Z</time>
      </trkpt>
      <trkpt lat="58.351947963237762" lon="-5.150559972971678">
        <ele>20.809999999999999</ele>
        <time>2023-08-24T12:37:22Z</time>
      </trkpt>
      <trkpt lat="58.351659961044788" lon="-5.152661986649036">
        <ele>19.359999999999999</ele>
        <time>2023-08-24T12:37:34Z</time>
      </trkpt>
      <trkpt lat="58.351442031562328" lon="-5.154814962297678">
        <ele>18.879999999999999</ele>
        <time>2023-08-24T12:37:45Z</time>
      </trkpt>
      <trkpt lat="58.351153023540974" lon="-5.156631991267204">
        <ele>19.84</ele>
        <time>2023-08-24T12:37:55Z</time>
      </trkpt>
      <trkpt lat="58.350520022213459" lon="-5.158371990546584">
        <ele>19.359999999999999</ele>
        <time>2023-08-24T12:38:03Z</time>
      </trkpt>
      <trkpt lat="58.349605975672603" lon="-5.159541014581919">
        <ele>22.25</ele>
        <time>2023-08-24T12:38:11Z</time>
      </trkpt>
      <trkpt lat="58.348275013267994" lon="-5.160294966772199">
        <ele>28.5</ele>
        <time>2023-08-24T12:38:21Z</time>
      </trkpt>
      <trkpt lat="58.347049998119473" lon="-5.160797964781523">
        <ele>36.670000000000002</ele>
        <time>2023-08-24T12:38:30Z</time>
      </trkpt>
      <trkpt lat="58.346766019240022" lon="-5.160814980044961">
        <ele>38.109999999999999</ele>
        <time>2023-08-24T12:38:32Z</time>
      </trkpt>
      <trkpt lat="58.346069986000657" lon="-5.160445002838969">
        <ele>41.469999999999999</ele>
        <time>2023-08-24T12:38:38Z</time>
      </trkpt>
      <trkpt lat="58.344994001090527" lon="-5.159019995480776">
        <ele>44.359999999999999</ele>
        <time>2023-08-24T12:38:46Z</time>
      </trkpt>
      <trkpt lat="58.344862991943955" lon="-5.158888986334205">
        <ele>44.840000000000003</ele>
        <time>2023-08-24T12:38:47Z</time>
      </trkpt>
      <trkpt lat="58.344727037474513" lon="-5.158826038241386">
        <ele>45.32</ele>
        <time>2023-08-24T12:38:48Z</time>
      </trkpt>
      <trkpt lat="58.344580018892884" lon="-5.158783961087465">
        <ele>45.32</ele>
        <time>2023-08-24T12:38:49Z</time>
      </trkpt>
      <trkpt lat="58.344430988654494" lon="-5.158742973580957">
        <ele>45.799999999999997</ele>
        <time>2023-08-24T12:38:50Z</time>
      </trkpt>
      <trkpt lat="58.344281958416104" lon="-5.158702991902828">
        <ele>45.799999999999997</ele>
        <time>2023-08-24T12:38:51Z</time>
      </trkpt>
      <trkpt lat="58.344128988683224" lon="-5.158703997731209">
        <ele>45.799999999999997</ele>
        <time>2023-08-24T12:38:52Z</time>
      </trkpt>
      <trkpt lat="58.343370007351041" lon="-5.158763006329536">
        <ele>46.280000000000001</ele>
        <time>2023-08-24T12:38:57Z</time>
      </trkpt>
      <trkpt lat="58.34321603178978" lon="-5.158732999116182">
        <ele>46.280000000000001</ele>
        <time>2023-08-24T12:38:58Z</time>
      </trkpt>
      <trkpt lat="58.343061972409487" lon="-5.158670973032713">
        <ele>46.759999999999998</ele>
        <time>2023-08-24T12:38:59Z</time>
      </trkpt>
      <trkpt lat="58.342916965484619" lon="-5.158567037433386">
        <ele>46.759999999999998</ele>
        <time>2023-08-24T12:39:00Z</time>
      </trkpt>
      <trkpt lat="58.34278604015708" lon="-5.158421024680138">
        <ele>47.240000000000002</ele>
        <time>2023-08-24T12:39:01Z</time>
      </trkpt>
      <trkpt lat="58.342656036838889" lon="-5.158277023583651">
        <ele>47.719999999999999</ele>
        <time>2023-08-24T12:39:02Z</time>
      </trkpt>
      <trkpt lat="58.34253097884357" lon="-5.158107038587332">
        <ele>48.200000000000003</ele>
        <time>2023-08-24T12:39:03Z</time>
      </trkpt>
      <trkpt lat="58.342411033809185" lon="-5.157914003357291">
        <ele>49.159999999999997</ele>
        <time>2023-08-24T12:39:05Z</time>
      </trkpt>
      <trkpt lat="58.342319000512362" lon="-5.157658020034432">
        <ele>50.130000000000003</ele>
        <time>2023-08-24T12:39:06Z</time>
      </trkpt>
      <trkpt lat="58.34216401912272" lon="-5.15711797401309">
        <ele>51.090000000000003</ele>
        <time>2023-08-24T12:39:07Z</time>
      </trkpt>
      <trkpt lat="58.342114984989166" lon="-5.156823014840484">
        <ele>52.049999999999997</ele>
        <time>2023-08-24T12:39:08Z</time>
      </trkpt>
      <trkpt lat="58.342096041887999" lon="-5.156522020697594">
        <ele>53.009999999999998</ele>
        <time>2023-08-24T12:39:09Z</time>
      </trkpt>
      <trkpt lat="58.34208196029067" lon="-5.156217003241181">
        <ele>53.490000000000002</ele>
        <time>2023-08-24T12:39:10Z</time>
      </trkpt>
      <trkpt lat="58.342091012746096" lon="-5.15589396469295">
        <ele>54.450000000000003</ele>
        <time>2023-08-24T12:39:11Z</time>
      </trkpt>
      <trkpt lat="58.342099981382489" lon="-5.155560029670596">
        <ele>54.93</ele>
        <time>2023-08-24T12:39:12Z</time>
      </trkpt>
      <trkpt lat="58.342153960838914" lon="-5.155220981687307">
        <ele>55.409999999999997</ele>
        <time>2023-08-24T12:39:13Z</time>
      </trkpt>
      <trkpt lat="58.342220010235906" lon="-5.154883023351431">
        <ele>55.409999999999997</ele>
        <time>2023-08-24T12:39:14Z</time>
      </trkpt>
      <trkpt lat="58.342287987470627" lon="-5.154531989246607">
        <ele>55.890000000000001</ele>
        <time>2023-08-24T12:39:15Z</time>
      </trkpt>
      <trkpt lat="58.342521004378796" lon="-5.153065994381905">
        <ele>57.82</ele>
        <time>2023-08-24T12:39:19Z</time>
      </trkpt>
      <trkpt lat="58.342554029077291" lon="-5.152700962498784">
        <ele>58.299999999999997</ele>
        <time>2023-08-24T12:39:20Z</time>
      </trkpt>
      <trkpt lat="58.342565009370446" lon="-5.152329979464412">
        <ele>58.780000000000001</ele>
        <time>2023-08-24T12:39:21Z</time>
      </trkpt>
      <trkpt lat="58.342571966350079" lon="-5.151966959238052">
        <ele>59.259999999999998</ele>
        <time>2023-08-24T12:39:22Z</time>
      </trkpt>
      <trkpt lat="58.342538019642234" lon="-5.151604022830725">
        <ele>60.700000000000003</ele>
        <time>2023-08-24T12:39:23Z</time>
      </trkpt>
      <trkpt lat="58.342503989115357" lon="-5.151245025917888">
        <ele>61.18</ele>
        <time>2023-08-24T12:39:24Z</time>
      </trkpt>
      <trkpt lat="58.34244598634541" lon="-5.150911007076502">
        <ele>62.140000000000001</ele>
        <time>2023-08-24T12:39:25Z</time>
      </trkpt>
      <trkpt lat="58.342367028817534" lon="-5.150587968528271">
        <ele>63.579999999999998</ele>
        <time>2023-08-24T12:39:26Z</time>
      </trkpt>
      <trkpt lat="58.342287987470627" lon="-5.150265013799071">
        <ele>64.549999999999997</ele>
        <time>2023-08-24T12:39:27Z</time>
      </trkpt>
      <trkpt lat="58.342190003022552" lon="-5.149968964979053">
        <ele>65.510000000000005</ele>
        <time>2023-08-24T12:39:28Z</time>
      </trkpt>
      <trkpt lat="58.342087995260954" lon="-5.149679034948349">
        <ele>65.989999999999995</ele>
        <time>2023-08-24T12:39:29Z</time>
      </trkpt>
      <trkpt lat="58.341970983892679" lon="-5.14940301887691">
        <ele>66.950000000000003</ele>
        <time>2023-08-24T12:39:30Z</time>
      </trkpt>
      <trkpt lat="58.340965993702412" lon="-5.147681040689349">
        <ele>69.349999999999994</ele>
        <time>2023-08-24T12:39:37Z</time>
      </trkpt>
      <trkpt lat="58.340314971283078" lon="-5.146251004189253">
        <ele>69.349999999999994</ele>
        <time>2023-08-24T12:39:42Z</time>
      </trkpt>
      <trkpt lat="58.340156972408295" lon="-5.146025028079748">
        <ele>69.349999999999994</ele>
        <time>2023-08-24T12:39:43Z</time>
      </trkpt>
      <trkpt lat="58.340021017938852" lon="-5.145828975364566">
        <ele>69.349999999999994</ele>
        <time>2023-08-24T12:39:44Z</time>
      </trkpt>
      <trkpt lat="58.339815996587276" lon="-5.145670976489782">
        <ele>69.349999999999994</ele>
        <time>2023-08-24T12:39:45Z</time>
      </trkpt>
      <trkpt lat="58.339632013812661" lon="-5.145529992878437">
        <ele>69.349999999999994</ele>
        <time>2023-08-24T12:39:46Z</time>
      </trkpt>
      <trkpt lat="58.339441996067762" lon="-5.145394038408995">
        <ele>69.829999999999998</ele>
        <time>2023-08-24T12:39:47Z</time>
      </trkpt>
      <trkpt lat="58.339237980544567" lon="-5.145335029810667">
        <ele>69.829999999999998</ele>
        <time>2023-08-24T12:39:48Z</time>
      </trkpt>
      <trkpt lat="58.339029019698501" lon="-5.145276021212339">
        <ele>70.310000000000002</ele>
        <time>2023-08-24T12:39:49Z</time>
      </trkpt>
      <trkpt lat="58.338029980659485" lon="-5.144766988232732">
        <ele>71.760000000000005</ele>
        <time>2023-08-24T12:39:54Z</time>
      </trkpt>
      <trkpt lat="58.337848009541631" lon="-5.144574036821723">
        <ele>71.760000000000005</ele>
        <time>2023-08-24T12:39:55Z</time>
      </trkpt>
      <trkpt lat="58.337680958211422" lon="-5.144342025741935">
        <ele>71.760000000000005</ele>
        <time>2023-08-24T12:39:56Z</time>
      </trkpt>
      <trkpt lat="58.337540980428457" lon="-5.144056035205722">
        <ele>72.239999999999995</ele>
        <time>2023-08-24T12:39:57Z</time>
      </trkpt>
      <trkpt lat="58.337410977110267" lon="-5.14375202357769">
        <ele>72.239999999999995</ele>
        <time>2023-08-24T12:39:58Z</time>
      </trkpt>
      <trkpt lat="58.337282985448837" lon="-5.143453041091561">
        <ele>72.239999999999995</ele>
        <time>2023-08-24T12:39:59Z</time>
      </trkpt>
      <trkpt lat="58.337185001000762" lon="-5.143122039735317">
        <ele>72.719999999999999</ele>
        <time>2023-08-24T12:40:00Z</time>
      </trkpt>
      <trkpt lat="58.3370949793607" lon="-5.142779974266887">
        <ele>72.719999999999999</ele>
        <time>2023-08-24T12:40:01Z</time>
      </trkpt>
      <trkpt lat="58.337011998519301" lon="-5.142430029809475">
        <ele>73.200000000000003</ele>
        <time>2023-08-24T12:40:02Z</time>
      </trkpt>
      <trkpt lat="58.336977967992425" lon="-5.142066003754735">
        <ele>73.680000000000007</ele>
        <time>2023-08-24T12:40:03Z</time>
      </trkpt>
      <trkpt lat="58.33694402128458" lon="-5.141702983528376">
        <ele>74.640000000000001</ele>
        <time>2023-08-24T12:40:04Z</time>
      </trkpt>
      <trkpt lat="58.336931029334664" lon="-5.14132596552372">
        <ele>75.599999999999994</ele>
        <time>2023-08-24T12:40:05Z</time>
      </trkpt>
      <trkpt lat="58.336931029334664" lon="-5.140955988317728">
        <ele>76.560000000000002</ele>
        <time>2023-08-24T12:40:06Z</time>
      </trkpt>
      <trkpt lat="58.336945027112961" lon="-5.140577964484692">
        <ele>77.519999999999996</ele>
        <time>2023-08-24T12:40:07Z</time>
      </trkpt>
      <trkpt lat="58.336989032104611" lon="-5.140211004763842">
        <ele>78</ele>
        <time>2023-08-24T12:40:08Z</time>
      </trkpt>
      <trkpt lat="58.337134961038828" lon="-5.138722965493798">
        <ele>80.890000000000001</ele>
        <time>2023-08-24T12:40:12Z</time>
      </trkpt>
      <trkpt lat="58.337145019322634" lon="-5.138354999944568">
        <ele>81.370000000000005</ele>
        <time>2023-08-24T12:40:13Z</time>
      </trkpt>
      <trkpt lat="58.337118029594421" lon="-5.137989968061447">
        <ele>81.849999999999994</ele>
        <time>2023-08-24T12:40:14Z</time>
      </trkpt>
      <trkpt lat="58.337091961875558" lon="-5.1376280374825">
        <ele>82.329999999999998</ele>
        <time>2023-08-24T12:40:15Z</time>
      </trkpt>
      <trkpt lat="58.337033037096262" lon="-5.137281026691198">
        <ele>82.329999999999998</ele>
        <time>2023-08-24T12:40:16Z</time>
      </trkpt>
      <trkpt lat="58.336953995749354" lon="-5.136957988142967">
        <ele>82.810000000000002</ele>
        <time>2023-08-24T12:40:17Z</time>
      </trkpt>
      <trkpt lat="58.336855005472898" lon="-5.136654982343316">
        <ele>83.290000000000006</ele>
        <time>2023-08-24T12:40:18Z</time>
      </trkpt>
      <trkpt lat="58.336730031296611" lon="-5.136385001242161">
        <ele>83.290000000000006</ele>
        <time>2023-08-24T12:40:19Z</time>
      </trkpt>
      <trkpt lat="58.336604973301291" lon="-5.136115020141006">
        <ele>83.769999999999996</ele>
        <time>2023-08-24T12:40:20Z</time>
      </trkpt>
      <trkpt lat="58.336466001346707" lon="-5.135865993797779">
        <ele>83.769999999999996</ele>
        <time>2023-08-24T12:40:21Z</time>
      </trkpt>
      <trkpt lat="58.336300039663911" lon="-5.135659966617823">
        <ele>84.25</ele>
        <time>2023-08-24T12:40:22Z</time>
      </trkpt>
      <trkpt lat="58.336130976676941" lon="-5.135451005771756">
        <ele>84.25</ele>
        <time>2023-08-24T12:40:23Z</time>
      </trkpt>
      <trkpt lat="58.335958980023861" lon="-5.1352449785918">
        <ele>84.730000000000004</ele>
        <time>2023-08-24T12:40:24Z</time>
      </trkpt>
      <trkpt lat="58.335774997249246" lon="-5.135067030787468">
        <ele>85.209999999999994</ele>
        <time>2023-08-24T12:40:25Z</time>
      </trkpt>
      <trkpt lat="58.334305984899402" lon="-5.133842015638948">
        <ele>81.849999999999994</ele>
        <time>2023-08-24T12:40:33Z</time>
      </trkpt>
      <trkpt lat="58.334103981032968" lon="-5.133787030354142">
        <ele>79.930000000000007</ele>
        <time>2023-08-24T12:40:34Z</time>
      </trkpt>
      <trkpt lat="58.333898037672043" lon="-5.133731039240956">
        <ele>78.480000000000004</ele>
        <time>2023-08-24T12:40:35Z</time>
      </trkpt>
      <trkpt lat="58.333684969693422" lon="-5.133735984563828">
        <ele>76.560000000000002</ele>
        <time>2023-08-24T12:40:36Z</time>
      </trkpt>
      <trkpt lat="58.333467040210962" lon="-5.133746964856982">
        <ele>74.159999999999997</ele>
        <time>2023-08-24T12:40:37Z</time>
      </trkpt>
      <trkpt lat="58.330774018540978" lon="-5.133880991488695">
        <ele>50.130000000000003</ele>
        <time>2023-08-24T12:40:49Z</time>
      </trkpt>
      <trkpt lat="58.329190006479621" lon="-5.134253986179829">
        <ele>37.149999999999999</ele>
        <time>2023-08-24T12:40:57Z</time>
      </trkpt>
      <trkpt lat="58.328072028234601" lon="-5.135069964453578">
        <ele>27.050000000000001</ele>
        <time>2023-08-24T12:41:03Z</time>
      </trkpt>
      <trkpt lat="58.32789801992476" lon="-5.135127967223525">
        <ele>25.129999999999999</ele>
        <time>2023-08-24T12:41:04Z</time>
      </trkpt>
      <trkpt lat="58.326913984492421" lon="-5.135371964424849">
        <ele>16.48</ele>
        <time>2023-08-24T12:41:10Z</time>
      </trkpt>
      <trkpt lat="58.326768977567554" lon="-5.135317984968424">
        <ele>15.039999999999999</ele>
        <time>2023-08-24T12:41:11Z</time>
      </trkpt>
      <trkpt lat="58.326628999784589" lon="-5.13526601716876">
        <ele>13.6</ele>
        <time>2023-08-24T12:41:12Z</time>
      </trkpt>
      <trkpt lat="58.326362958177924" lon="-5.135067030787468">
        <ele>11.67</ele>
        <time>2023-08-24T12:41:14Z</time>
      </trkpt>
      <trkpt lat="58.326231027022004" lon="-5.134945996105671">
        <ele>10.710000000000001</ele>
        <time>2023-08-24T12:41:15Z</time>
      </trkpt>
      <trkpt lat="58.326131030917168" lon="-5.134770981967449">
        <ele>9.75</ele>
        <time>2023-08-24T12:41:16Z</time>
      </trkpt>
      <trkpt lat="58.32602902315557" lon="-5.134593034163117">
        <ele>8.789999999999999</ele>
        <time>2023-08-24T12:41:17Z</time>
      </trkpt>
      <trkpt lat="58.325920980423689" lon="-5.13440502807498">
        <ele>8.310000000000001</ele>
        <time>2023-08-24T12:41:18Z</time>
      </trkpt>
      <trkpt lat="58.32465598359704" lon="-5.131831029430032">
        <ele>16</ele>
        <time>2023-08-24T12:41:29Z</time>
      </trkpt>
      <trkpt lat="58.323020003736019" lon="-5.128937009721994">
        <ele>18.399999999999999</ele>
        <time>2023-08-24T12:41:40Z</time>
      </trkpt>
      <trkpt lat="58.321727011352777" lon="-5.126181961968541">
        <ele>16.960000000000001</ele>
        <time>2023-08-24T12:41:50Z</time>
      </trkpt>
      <trkpt lat="58.320641973987222" lon="-5.124533995985985">
        <ele>17.920000000000002</ele>
        <time>2023-08-24T12:41:57Z</time>
      </trkpt>
      <trkpt lat="58.319462975487113" lon="-5.123195992782712">
        <ele>20.809999999999999</ele>
        <time>2023-08-24T12:42:04Z</time>
      </trkpt>
      <trkpt lat="58.319275975227356" lon="-5.123081998899579">
        <ele>20.809999999999999</ele>
        <time>2023-08-24T12:42:05Z</time>
      </trkpt>
      <trkpt lat="58.319081012159586" lon="-5.123023996129632">
        <ele>20.809999999999999</ele>
        <time>2023-08-24T12:42:06Z</time>
      </trkpt>
      <trkpt lat="58.318878002464771" lon="-5.1229980122298">
        <ele>20.809999999999999</ele>
        <time>2023-08-24T12:42:07Z</time>
      </trkpt>
      <trkpt lat="58.318673986941576" lon="-5.122987031936646">
        <ele>20.809999999999999</ele>
        <time>2023-08-24T12:42:08Z</time>
      </trkpt>
      <trkpt lat="58.31846795976162" lon="-5.123045034706593">
        <ele>21.289999999999999</ele>
        <time>2023-08-24T12:42:09Z</time>
      </trkpt>
      <trkpt lat="58.318262016400695" lon="-5.123102031648159">
        <ele>21.289999999999999</ele>
        <time>2023-08-24T12:42:10Z</time>
      </trkpt>
      <trkpt lat="58.318053977563977" lon="-5.123160034418106">
        <ele>21.289999999999999</ele>
        <time>2023-08-24T12:42:11Z</time>
      </trkpt>
      <trkpt lat="58.315848028287292" lon="-5.123776020482183">
        <ele>28.5</ele>
        <time>2023-08-24T12:42:22Z</time>
      </trkpt>
      <trkpt lat="58.313561026006937" lon="-5.124397035688162">
        <ele>35.710000000000001</ele>
        <time>2023-08-24T12:42:33Z</time>
      </trkpt>
      <trkpt lat="58.31206301227212" lon="-5.12433098629117">
        <ele>39.549999999999997</ele>
        <time>2023-08-24T12:42:40Z</time>
      </trkpt>
      <trkpt lat="58.310583019629121" lon="-5.123413000255823">
        <ele>46.759999999999998</ele>
        <time>2023-08-24T12:42:48Z</time>
      </trkpt>
      <trkpt lat="58.308803038671613" lon="-5.122451009228826">
        <ele>45.799999999999997</ele>
        <time>2023-08-24T12:42:57Z</time>
      </trkpt>
      <trkpt lat="58.307326985523105" lon="-5.122050018981099">
        <ele>41.950000000000003</ele>
        <time>2023-08-24T12:43:06Z</time>
      </trkpt>
      <trkpt lat="58.307009981945157" lon="-5.121822031214833">
        <ele>41.950000000000003</ele>
        <time>2023-08-24T12:43:08Z</time>
      </trkpt>
      <trkpt lat="58.306856006383896" lon="-5.121651040390134">
        <ele>42.439999999999998</ele>
        <time>2023-08-24T12:43:09Z</time>
      </trkpt>
      <trkpt lat="58.306699013337493" lon="-5.121477032080293">
        <ele>42.439999999999998</ele>
        <time>2023-08-24T12:43:10Z</time>
      </trkpt>
      <trkpt lat="58.306568004190922" lon="-5.121240997686982">
        <ele>42.920000000000002</ele>
        <time>2023-08-24T12:43:11Z</time>
      </trkpt>
      <trkpt lat="58.306431965902448" lon="-5.120993983000517">
        <ele>43.399999999999999</ele>
        <time>2023-08-24T12:43:12Z</time>
      </trkpt>
      <trkpt lat="58.306072968989611" lon="-5.120132993906736">
        <ele>44.840000000000003</ele>
        <time>2023-08-24T12:43:15Z</time>
      </trkpt>
      <trkpt lat="58.305952018126845" lon="-5.119834011420608">
        <ele>45.799999999999997</ele>
        <time>2023-08-24T12:43:16Z</time>
      </trkpt>
      <trkpt lat="58.305826960131526" lon="-5.119526982307434">
        <ele>46.759999999999998</ele>
        <time>2023-08-24T12:43:17Z</time>
      </trkpt>
      <trkpt lat="58.304857006296515" lon="-5.117726968601346">
        <ele>57.82</ele>
        <time>2023-08-24T12:43:24Z</time>
      </trkpt>
      <trkpt lat="58.30346804112196" lon="-5.116485022008419">
        <ele>74.640000000000001</ele>
        <time>2023-08-24T12:43:32Z</time>
      </trkpt>
      <trkpt lat="58.301485972478986" lon="-5.115673989057541">
        <ele>92.900000000000006</ele>
        <time>2023-08-24T12:43:42Z</time>
      </trkpt>
      <trkpt lat="58.30024897120893" lon="-5.115214996039867">
        <ele>101.08</ele>
        <time>2023-08-24T12:43:49Z</time>
      </trkpt>
      <trkpt lat="58.299691993743181" lon="-5.11487502604723">
        <ele>103.48</ele>
        <time>2023-08-24T12:43:52Z</time>
      </trkpt>
      <trkpt lat="58.299512034282088" lon="-5.114731024950743">
        <ele>103.95999999999999</ele>
        <time>2023-08-24T12:43:53Z</time>
      </trkpt>
      <trkpt lat="58.298799991607666" lon="-5.113752018660307">
        <ele>103.48</ele>
        <time>2023-08-24T12:43:58Z</time>
      </trkpt>
      <trkpt lat="58.298674011602998" lon="-5.113525036722422">
        <ele>102.52</ele>
        <time>2023-08-24T12:43:59Z</time>
      </trkpt>
      <trkpt lat="58.298057019710541" lon="-5.111708007752895">
        <ele>91.939999999999998</ele>
        <time>2023-08-24T12:44:05Z</time>
      </trkpt>
      <trkpt lat="58.297900026664138" lon="-5.110563961789012">
        <ele>85.689999999999998</ele>
        <time>2023-08-24T12:44:08Z</time>
      </trkpt>
      <trkpt lat="58.297877982258797" lon="-5.110181998461485">
        <ele>84.25</ele>
        <time>2023-08-24T12:44:09Z</time>
      </trkpt>
      <trkpt lat="58.297877982258797" lon="-5.10978695936501">
        <ele>82.329999999999998</ele>
        <time>2023-08-24T12:44:10Z</time>
      </trkpt>
      <trkpt lat="58.297912012785673" lon="-5.109010962769389">
        <ele>78.969999999999999</ele>
        <time>2023-08-24T12:44:12Z</time>
      </trkpt>
      <trkpt lat="58.298084009438753" lon="-5.105989035218954">
        <ele>71.760000000000005</ele>
        <time>2023-08-24T12:44:20Z</time>
      </trkpt>
      <trkpt lat="58.298059031367302" lon="-5.105624003335834">
        <ele>71.760000000000005</ele>
        <time>2023-08-24T12:44:21Z</time>
      </trkpt>
      <trkpt lat="58.298003040254116" lon="-5.10527296923101">
        <ele>72.239999999999995</ele>
        <time>2023-08-24T12:44:22Z</time>
      </trkpt>
      <trkpt lat="58.297945959493518" lon="-5.104915983974934">
        <ele>72.719999999999999</ele>
        <time>2023-08-24T12:44:23Z</time>
      </trkpt>
      <trkpt lat="58.297859961166978" lon="-5.104580959305167">
        <ele>73.200000000000003</ele>
        <time>2023-08-24T12:44:24Z</time>
      </trkpt>
      <trkpt lat="58.297753008082509" lon="-5.104265967383981">
        <ele>74.159999999999997</ele>
        <time>2023-08-24T12:44:25Z</time>
      </trkpt>
      <trkpt lat="58.297643037512898" lon="-5.103944018483162">
        <ele>75.120000000000005</ele>
        <time>2023-08-24T12:44:26Z</time>
      </trkpt>
      <trkpt lat="58.297509010881186" lon="-5.103670014068484">
        <ele>76.079999999999998</ele>
        <time>2023-08-24T12:44:27Z</time>
      </trkpt>
      <trkpt lat="58.297364003956318" lon="-5.103397015482187">
        <ele>76.560000000000002</ele>
        <time>2023-08-24T12:44:28Z</time>
      </trkpt>
      <trkpt lat="58.297215979546309" lon="-5.103120999410749">
        <ele>77.519999999999996</ele>
        <time>2023-08-24T12:44:29Z</time>
      </trkpt>
      <trkpt lat="58.295881999656558" lon="-5.100196972489357">
        <ele>85.209999999999994</ele>
        <time>2023-08-24T12:44:39Z</time>
      </trkpt>
      <trkpt lat="58.294013002887368" lon="-5.095953969284892">
        <ele>91.939999999999998</ele>
        <time>2023-08-24T12:44:53Z</time>
      </trkpt>
      <trkpt lat="58.291986007243395" lon="-5.092369029298425">
        <ele>96.269999999999996</ele>
        <time>2023-08-24T12:45:06Z</time>
      </trkpt>
      <trkpt lat="58.291084030643106" lon="-5.090171964839101">
        <ele>92.900000000000006</ele>
        <time>2023-08-24T12:45:13Z</time>
      </trkpt>
      <trkpt lat="58.29070701263845" lon="-5.087812040001154">
        <ele>83.290000000000006</ele>
        <time>2023-08-24T12:45:19Z</time>
      </trkpt>
      <trkpt lat="58.290625037625432" lon="-5.085232006385922">
        <ele>73.680000000000007</ele>
        <time>2023-08-24T12:45:25Z</time>
      </trkpt>
      <trkpt lat="58.290567034855485" lon="-5.084824981167913">
        <ele>71.760000000000005</ele>
        <time>2023-08-24T12:45:26Z</time>
      </trkpt>
      <trkpt lat="58.290508026257157" lon="-5.084407981485128">
        <ele>69.349999999999994</ele>
        <time>2023-08-24T12:45:27Z</time>
      </trkpt>
      <trkpt lat="58.290442982688546" lon="-5.083989975973964">
        <ele>67.430000000000007</ele>
        <time>2023-08-24T12:45:28Z</time>
      </trkpt>
      <trkpt lat="58.290347009897232" lon="-5.083604995161295">
        <ele>65.030000000000001</ele>
        <time>2023-08-24T12:45:29Z</time>
      </trkpt>
      <trkpt lat="58.290232010185719" lon="-5.083236023783684">
        <ele>63.100000000000001</ele>
        <time>2023-08-24T12:45:30Z</time>
      </trkpt>
      <trkpt lat="58.290110975503922" lon="-5.082874009385705">
        <ele>61.18</ele>
        <time>2023-08-24T12:45:31Z</time>
      </trkpt>
      <trkpt lat="58.289981978014112" lon="-5.082535967230797">
        <ele>59.259999999999998</ele>
        <time>2023-08-24T12:45:32Z</time>
      </trkpt>
      <trkpt lat="58.289836971089244" lon="-5.082215024158359">
        <ele>56.859999999999999</ele>
        <time>2023-08-24T12:45:33Z</time>
      </trkpt>
      <trkpt lat="58.289692969992757" lon="-5.081893997266889">
        <ele>54.93</ele>
        <time>2023-08-24T12:45:34Z</time>
      </trkpt>
      <trkpt lat="58.289520973339677" lon="-5.081620998680592">
        <ele>53.009999999999998</ele>
        <time>2023-08-24T12:45:35Z</time>
      </trkpt>
      <trkpt lat="58.289345037192106" lon="-5.081366021186113">
        <ele>50.609999999999999</ele>
        <time>2023-08-24T12:45:36Z</time>
      </trkpt>
      <trkpt lat="58.287899997085333" lon="-5.079111959785223">
        <ele>38.109999999999999</ele>
        <time>2023-08-24T12:45:45Z</time>
      </trkpt>
      <trkpt lat="58.286383962258697" lon="-5.076262028887868">
        <ele>38.590000000000003</ele>
        <time>2023-08-24T12:45:55Z</time>
      </trkpt>
      <trkpt lat="58.284830041229725" lon="-5.07431298494339">
        <ele>45.799999999999997</ele>
        <time>2023-08-24T12:46:04Z</time>
      </trkpt>
      <trkpt lat="58.28280103392899" lon="-5.072207031771541">
        <ele>59.740000000000002</ele>
        <time>2023-08-24T12:46:15Z</time>
      </trkpt>
      <trkpt lat="58.280679993331432" lon="-5.07029696367681">
        <ele>68.870000000000005</ele>
        <time>2023-08-24T12:46:26Z</time>
      </trkpt>
      <trkpt lat="58.279039990156889" lon="-5.06799504160881">
        <ele>74.640000000000001</ele>
        <time>2023-08-24T12:46:35Z</time>
      </trkpt>
      <trkpt lat="58.278213031589985" lon="-5.066480012610555">
        <ele>78.969999999999999</ele>
        <time>2023-08-24T12:46:40Z</time>
      </trkpt>
      <trkpt lat="58.278056038543582" lon="-5.066167032346129">
        <ele>79.450000000000003</ele>
        <time>2023-08-24T12:46:41Z</time>
      </trkpt>
      <trkpt lat="58.2762919832021" lon="-5.063088024035096">
        <ele>81.849999999999994</ele>
        <time>2023-08-24T12:46:52Z</time>
      </trkpt>
      <trkpt lat="58.274225005879998" lon="-5.060357032343745">
        <ele>86.659999999999997</ele>
        <time>2023-08-24T12:47:04Z</time>
      </trkpt>
      <trkpt lat="58.272258024662733" lon="-5.058030970394611">
        <ele>90.980000000000004</ele>
        <time>2023-08-24T12:47:15Z</time>
      </trkpt>
      <trkpt lat="58.270140001550317" lon="-5.0561130233109">
        <ele>98.189999999999998</ele>
        <time>2023-08-24T12:47:26Z</time>
      </trkpt>
      <trkpt lat="58.268753970041871" lon="-5.054245032370091">
        <ele>104.92</ele>
        <time>2023-08-24T12:47:34Z</time>
      </trkpt>
      <trkpt lat="58.267696006223559" lon="-5.05155997350812">
        <ele>107.31999999999999</ele>
        <time>2023-08-24T12:47:42Z</time>
      </trkpt>
      <trkpt lat="58.2671810220927" lon="-5.048609962686896">
        <ele>99.150000000000006</ele>
        <time>2023-08-24T12:47:50Z</time>
      </trkpt>
      <trkpt lat="58.26683702878654" lon="-5.04466300830245">
        <ele>80.890000000000001</ele>
        <time>2023-08-24T12:48:00Z</time>
      </trkpt>
      <trkpt lat="58.266288014128804" lon="-5.04283600486815">
        <ele>72.719999999999999</ele>
        <time>2023-08-24T12:48:05Z</time>
      </trkpt>
      <trkpt lat="58.26612800359726" lon="-5.042554959654808">
        <ele>71.269999999999996</ele>
        <time>2023-08-24T12:48:06Z</time>
      </trkpt>
      <trkpt lat="58.265965981408954" lon="-5.042289001867175">
        <ele>69.349999999999994</ele>
        <time>2023-08-24T12:48:07Z</time>
      </trkpt>
      <trkpt lat="58.265803037211299" lon="-5.042022038251162">
        <ele>67.430000000000007</ele>
        <time>2023-08-24T12:48:08Z</time>
      </trkpt>
      <trkpt lat="58.265626011416316" lon="-5.041782986372709">
        <ele>65.989999999999995</ele>
        <time>2023-08-24T12:48:09Z</time>
      </trkpt>
      <trkpt lat="58.265436999499798" lon="-5.041576959192753">
        <ele>64.069999999999993</ele>
        <time>2023-08-24T12:48:10Z</time>
      </trkpt>
      <trkpt lat="58.265239018946886" lon="-5.04141703248024">
        <ele>62.619999999999997</ele>
        <time>2023-08-24T12:48:11Z</time>
      </trkpt>
      <trkpt lat="58.264241991564631" lon="-5.040717981755734">
        <ele>54.450000000000003</ele>
        <time>2023-08-24T12:48:16Z</time>
      </trkpt>
      <trkpt lat="58.264046022668481" lon="-5.040653022006154">
        <ele>52.530000000000001</ele>
        <time>2023-08-24T12:48:17Z</time>
      </trkpt>
      <trkpt lat="58.263856004923582" lon="-5.040635000914335">
        <ele>51.090000000000003</ele>
        <time>2023-08-24T12:48:18Z</time>
      </trkpt>
      <trkpt lat="58.263664981350303" lon="-5.040660984814167">
        <ele>49.649999999999999</ele>
        <time>2023-08-24T12:48:19Z</time>
      </trkpt>
      <trkpt lat="58.263476975262165" lon="-5.040686968713999">
        <ele>48.200000000000003</ele>
        <time>2023-08-24T12:48:20Z</time>
      </trkpt>
      <trkpt lat="58.26294899918139" lon="-5.040697026997805">
        <ele>45.32</ele>
        <time>2023-08-24T12:48:23Z</time>
      </trkpt>
      <trkpt lat="58.262786976993084" lon="-5.040633995085955">
        <ele>44.359999999999999</ele>
        <time>2023-08-24T12:48:24Z</time>
      </trkpt>
      <trkpt lat="58.262622021138668" lon="-5.040558977052569">
        <ele>42.920000000000002</ele>
        <time>2023-08-24T12:48:25Z</time>
      </trkpt>
      <trkpt lat="58.262472990900278" lon="-5.040428973734379">
        <ele>41.950000000000003</ele>
        <time>2023-08-24T12:48:26Z</time>
      </trkpt>
      <trkpt lat="58.262318009510636" lon="-5.040204003453255">
        <ele>40.509999999999998</ele>
        <time>2023-08-24T12:48:27Z</time>
      </trkpt>
      <trkpt lat="58.262164033949375" lon="-5.039979033172131">
        <ele>39.549999999999997</ele>
        <time>2023-08-24T12:48:28Z</time>
      </trkpt>
      <trkpt lat="58.261508988216519" lon="-5.039132963865995">
        <ele>32.82</ele>
        <time>2023-08-24T12:48:32Z</time>
      </trkpt>
      <trkpt lat="58.261314025148749" lon="-5.039045959711075">
        <ele>30.899999999999999</ele>
        <time>2023-08-24T12:48:33Z</time>
      </trkpt>
      <trkpt lat="58.261112021282315" lon="-5.038956021890044">
        <ele>28.98</ele>
        <time>2023-08-24T12:48:34Z</time>
      </trkpt>
      <trkpt lat="58.260341975837946" lon="-5.038591995835304">
        <ele>21.289999999999999</ele>
        <time>2023-08-24T12:48:38Z</time>
      </trkpt>
      <trkpt lat="58.260190011933446" lon="-5.038403989747167">
        <ele>19.84</ele>
        <time>2023-08-24T12:48:39Z</time>
      </trkpt>
      <trkpt lat="58.260033018887043" lon="-5.038210032507777">
        <ele>17.920000000000002</ele>
        <time>2023-08-24T12:48:40Z</time>
      </trkpt>
      <trkpt lat="58.259893041104078" lon="-5.037961006164551">
        <ele>16.48</ele>
        <time>2023-08-24T12:48:41Z</time>
      </trkpt>
      <trkpt lat="58.259746022522449" lon="-5.03768197260797">
        <ele>14.56</ele>
        <time>2023-08-24T12:48:42Z</time>
      </trkpt>
      <trkpt lat="58.259419966489077" lon="-5.037144022062421">
        <ele>11.19</ele>
        <time>2023-08-24T12:48:44Z</time>
      </trkpt>
      <trkpt lat="58.259244030341506" lon="-5.036917962133884">
        <ele>9.75</ele>
        <time>2023-08-24T12:48:45Z</time>
      </trkpt>
      <trkpt lat="58.259054012596607" lon="-5.036710007116199">
        <ele>8.310000000000001</ele>
        <time>2023-08-24T12:48:46Z</time>
      </trkpt>
      <trkpt lat="58.25884697958827" lon="-5.036596013233066">
        <ele>7.35</ele>
        <time>2023-08-24T12:48:47Z</time>
      </trkpt>
      <trkpt lat="58.258641036227345" lon="-5.036483025178313">
        <ele>6.39</ele>
        <time>2023-08-24T12:48:48Z</time>
      </trkpt>
      <trkpt lat="58.258249014616013" lon="-5.0361970346421">
        <ele>4.94</ele>
        <time>2023-08-24T12:48:50Z</time>
      </trkpt>
      <trkpt lat="58.25805296190083" lon="-5.036029983311892">
        <ele>4.94</ele>
        <time>2023-08-24T12:48:51Z</time>
      </trkpt>
      <trkpt lat="58.257916001603007" lon="-5.035803001374006">
        <ele>4.94</ele>
        <time>2023-08-24T12:48:52Z</time>
      </trkpt>
      <trkpt lat="58.25779396109283" lon="-5.03551198169589">
        <ele>4.94</ele>
        <time>2023-08-24T12:48:53Z</time>
      </trkpt>
      <trkpt lat="58.257690025493503" lon="-5.035199001431465">
        <ele>5.42</ele>
        <time>2023-08-24T12:48:54Z</time>
      </trkpt>
      <trkpt lat="58.257588017731905" lon="-5.034871017560363">
        <ele>5.42</ele>
        <time>2023-08-24T12:48:55Z</time>
      </trkpt>
      <trkpt lat="58.2575140055269" lon="-5.034513026475906">
        <ele>5.91</ele>
        <time>2023-08-24T12:48:56Z</time>
      </trkpt>
      <trkpt lat="58.257437981665134" lon="-5.034152017906308">
        <ele>6.39</ele>
        <time>2023-08-24T12:48:57Z</time>
      </trkpt>
      <trkpt lat="58.256798023357987" lon="-5.031699975952506">
        <ele>13.119999999999999</ele>
        <time>2023-08-24T12:49:04Z</time>
      </trkpt>
      <trkpt lat="58.256580010056496" lon="-5.030821971595287">
        <ele>17.920000000000002</ele>
        <time>2023-08-24T12:49:07Z</time>
      </trkpt>
      <trkpt lat="58.256551008671522" lon="-5.030549978837371">
        <ele>19.359999999999999</ele>
        <time>2023-08-24T12:49:08Z</time>
      </trkpt>
      <trkpt lat="58.256551008671522" lon="-5.03028703853488">
        <ele>20.809999999999999</ele>
        <time>2023-08-24T12:49:09Z</time>
      </trkpt>
      <trkpt lat="58.256551008671522" lon="-5.030008004978299">
        <ele>22.25</ele>
        <time>2023-08-24T12:49:10Z</time>
      </trkpt>
      <trkpt lat="58.256579004228115" lon="-5.029720002785325">
        <ele>23.210000000000001</ele>
        <time>2023-08-24T12:49:11Z</time>
      </trkpt>
      <trkpt lat="58.256646981462836" lon="-5.029453039169312">
        <ele>24.649999999999999</ele>
        <time>2023-08-24T12:49:12Z</time>
      </trkpt>
      <trkpt lat="58.256731973960996" lon="-5.029199989512563">
        <ele>25.609999999999999</ele>
        <time>2023-08-24T12:49:13Z</time>
      </trkpt>
      <trkpt lat="58.256817972287536" lon="-5.028939982876182">
        <ele>26.57</ele>
        <time>2023-08-24T12:49:14Z</time>
      </trkpt>
      <trkpt lat="58.256927020847797" lon="-5.028691040351987">
        <ele>27.530000000000001</ele>
        <time>2023-08-24T12:49:15Z</time>
      </trkpt>
      <trkpt lat="58.257048977538943" lon="-5.028449976816773">
        <ele>28.02</ele>
        <time>2023-08-24T12:49:16Z</time>
      </trkpt>
      <trkpt lat="58.257168000563979" lon="-5.028216037899256">
        <ele>28.5</ele>
        <time>2023-08-24T12:49:17Z</time>
      </trkpt>
      <trkpt lat="58.257606960833073" lon="-5.027350019663572">
        <ele>29.460000000000001</ele>
        <time>2023-08-24T12:49:22Z</time>
      </trkpt>
      <trkpt lat="58.257774012163281" lon="-5.026753982529044">
        <ele>29.940000000000001</ele>
        <time>2023-08-24T12:49:25Z</time>
      </trkpt>
      <trkpt lat="58.257806031033397" lon="-5.026521971449256">
        <ele>29.940000000000001</ele>
        <time>2023-08-24T12:49:26Z</time>
      </trkpt>
      <trkpt lat="58.257823968306184" lon="-5.02627001143992">
        <ele>30.420000000000002</ele>
        <time>2023-08-24T12:49:27Z</time>
      </trkpt>
      <trkpt lat="58.257842995226383" lon="-5.026007993146777">
        <ele>29.940000000000001</ele>
        <time>2023-08-24T12:49:28Z</time>
      </trkpt>
      <trkpt lat="58.257855987176299" lon="-5.025738012045622">
        <ele>30.420000000000002</ele>
        <time>2023-08-24T12:49:29Z</time>
      </trkpt>
      <trkpt lat="58.257828997448087" lon="-5.025458978489041">
        <ele>30.420000000000002</ele>
        <time>2023-08-24T12:49:30Z</time>
      </trkpt>
      <trkpt lat="58.257801001891494" lon="-5.025169970467687">
        <ele>30.899999999999999</ele>
        <time>2023-08-24T12:49:31Z</time>
      </trkpt>
      <trkpt lat="58.257742999121547" lon="-5.024890014901757">
        <ele>30.899999999999999</ele>
        <time>2023-08-24T12:49:32Z</time>
      </trkpt>
      <trkpt lat="58.257676027715206" lon="-5.024615004658699">
        <ele>31.379999999999999</ele>
        <time>2023-08-24T12:49:33Z</time>
      </trkpt>
      <trkpt lat="58.25757703743875" lon="-5.024360027164221">
        <ele>31.859999999999999</ele>
        <time>2023-08-24T12:49:34Z</time>
      </trkpt>
      <trkpt lat="58.257461031898856" lon="-5.024146037176251">
        <ele>31.859999999999999</ele>
        <time>2023-08-24T12:49:35Z</time>
      </trkpt>
      <trkpt lat="58.257343014702201" lon="-5.02392902970314">
        <ele>32.340000000000003</ele>
        <time>2023-08-24T12:49:36Z</time>
      </trkpt>
      <trkpt lat="58.256215984001756" lon="-5.02264198847115">
        <ele>32.82</ele>
        <time>2023-08-24T12:49:44Z</time>
      </trkpt>
      <trkpt lat="58.255506958812475" lon="-5.022315010428429">
        <ele>32.340000000000003</ele>
        <time>2023-08-24T12:49:49Z</time>
      </trkpt>
      <trkpt lat="58.254381017759442" lon="-5.022483989596367">
        <ele>28.02</ele>
        <time>2023-08-24T12:49:57Z</time>
      </trkpt>
      <trkpt lat="58.253894029185176" lon="-5.022467980161309">
        <ele>26.09</ele>
        <time>2023-08-24T12:50:00Z</time>
      </trkpt>
      <trkpt lat="58.253395976498723" lon="-5.022240998223424">
        <ele>25.609999999999999</ele>
        <time>2023-08-24T12:50:03Z</time>
      </trkpt>
      <trkpt lat="58.253234960138798" lon="-5.022137984633446">
        <ele>25.609999999999999</ele>
        <time>2023-08-24T12:50:04Z</time>
      </trkpt>
      <trkpt lat="58.253089031204581" lon="-5.022010998800397">
        <ele>25.609999999999999</ele>
        <time>2023-08-24T12:50:05Z</time>
      </trkpt>
      <trkpt lat="58.252585027366877" lon="-5.021412027999759">
        <ele>28.02</ele>
        <time>2023-08-24T12:50:09Z</time>
      </trkpt>
      <trkpt lat="58.252486037090421" lon="-5.021215975284576">
        <ele>28.98</ele>
        <time>2023-08-24T12:50:10Z</time>
      </trkpt>
      <trkpt lat="58.252385035157204" lon="-5.021000979468226">
        <ele>29.940000000000001</ele>
        <time>2023-08-24T12:50:11Z</time>
      </trkpt>
      <trkpt lat="58.251606021076441" lon="-5.018720012158155">
        <ele>40.030000000000001</ele>
        <time>2023-08-24T12:50:19Z</time>
      </trkpt>
      <trkpt lat="58.251042002812028" lon="-5.01698998734355">
        <ele>51.57</ele>
        <time>2023-08-24T12:50:26Z</time>
      </trkpt>
      <trkpt lat="58.250560965389013" lon="-5.014959974214435">
        <ele>57.82</ele>
        <time>2023-08-24T12:50:33Z</time>
      </trkpt>
      <trkpt lat="58.250217977911234" lon="-5.013029035180807">
        <ele>57.82</ele>
        <time>2023-08-24T12:50:39Z</time>
      </trkpt>
      <trkpt lat="58.250011028721929" lon="-5.010864995419979">
        <ele>53.969999999999999</ele>
        <time>2023-08-24T12:50:47Z</time>
      </trkpt>
      <trkpt lat="58.249890999868512" lon="-5.009243013337255">
        <ele>46.280000000000001</ele>
        <time>2023-08-24T12:50:54Z</time>
      </trkpt>
      <trkpt lat="58.24986501596868" lon="-5.009030029177666">
        <ele>44.840000000000003</ele>
        <time>2023-08-24T12:50:55Z</time>
      </trkpt>
      <trkpt lat="58.249818999320269" lon="-5.008831964805722">
        <ele>43.880000000000003</ele>
        <time>2023-08-24T12:50:56Z</time>
      </trkpt>
      <trkpt lat="58.249748004600406" lon="-5.008606994524598">
        <ele>42.439999999999998</ele>
        <time>2023-08-24T12:50:57Z</time>
      </trkpt>
      <trkpt lat="58.249641973525286" lon="-5.008376995101571">
        <ele>40.990000000000002</ele>
        <time>2023-08-24T12:50:58Z</time>
      </trkpt>
      <trkpt lat="58.249142998829484" lon="-5.007373010739684">
        <ele>35.229999999999997</ele>
        <time>2023-08-24T12:51:02Z</time>
      </trkpt>
      <trkpt lat="58.247695025056601" lon="-5.005364958196878">
        <ele>24.649999999999999</ele>
        <time>2023-08-24T12:51:12Z</time>
      </trkpt>
      <trkpt lat="58.247184986248612" lon="-5.004876963794231">
        <ele>22.25</ele>
        <time>2023-08-24T12:51:15Z</time>
      </trkpt>
      <trkpt lat="58.246824983507395" lon="-5.004706978797913">
        <ele>20.809999999999999</ele>
        <time>2023-08-24T12:51:17Z</time>
      </trkpt>
      <trkpt lat="58.246653992682695" lon="-5.004705972969532">
        <ele>20.809999999999999</ele>
        <time>2023-08-24T12:51:18Z</time>
      </trkpt>
      <trkpt lat="58.246480990201235" lon="-5.004746960476041">
        <ele>20.809999999999999</ele>
        <time>2023-08-24T12:51:19Z</time>
      </trkpt>
      <trkpt lat="58.2457609847188" lon="-5.005018031224608">
        <ele>21.289999999999999</ele>
        <time>2023-08-24T12:51:23Z</time>
      </trkpt>
      <trkpt lat="58.245587982237339" lon="-5.004960028454661">
        <ele>21.77</ele>
        <time>2023-08-24T12:51:24Z</time>
      </trkpt>
      <trkpt lat="58.245422020554543" lon="-5.00487101264298">
        <ele>22.25</ele>
        <time>2023-08-24T12:51:25Z</time>
      </trkpt>
      <trkpt lat="58.245278019458055" lon="-5.004684012383223">
        <ele>22.73</ele>
        <time>2023-08-24T12:51:26Z</time>
      </trkpt>
      <trkpt lat="58.245125971734524" lon="-5.004488965496421">
        <ele>23.210000000000001</ele>
        <time>2023-08-24T12:51:27Z</time>
      </trkpt>
      <trkpt lat="58.244822965934873" lon="-5.004096021875739">
        <ele>24.170000000000002</ele>
        <time>2023-08-24T12:51:29Z</time>
      </trkpt>
      <trkpt lat="58.244679970666766" lon="-5.003958977758884">
        <ele>24.649999999999999</ele>
        <time>2023-08-24T12:51:30Z</time>
      </trkpt>
      <trkpt lat="58.244525995105505" lon="-5.003914972767234">
        <ele>25.129999999999999</ele>
        <time>2023-08-24T12:51:31Z</time>
      </trkpt>
      <trkpt lat="58.244374031201005" lon="-5.003911033272743">
        <ele>25.129999999999999</ele>
        <time>2023-08-24T12:51:32Z</time>
      </trkpt>
      <trkpt lat="58.244204968214035" lon="-5.003989990800619">
        <ele>25.609999999999999</ele>
        <time>2023-08-24T12:51:33Z</time>
      </trkpt>
      <trkpt lat="58.244041018188" lon="-5.004117982462049">
        <ele>25.609999999999999</ele>
        <time>2023-08-24T12:51:34Z</time>
      </trkpt>
      <trkpt lat="58.243872039020061" lon="-5.004330966621637">
        <ele>26.09</ele>
        <time>2023-08-24T12:51:35Z</time>
      </trkpt>
      <trkpt lat="58.243688978254795" lon="-5.004560966044664">
        <ele>26.09</ele>
        <time>2023-08-24T12:51:36Z</time>
      </trkpt>
      <trkpt lat="58.243127977475524" lon="-5.005266973748803">
        <ele>27.530000000000001</ele>
        <time>2023-08-24T12:51:39Z</time>
      </trkpt>
      <trkpt lat="58.242978025227785" lon="-5.005523962900043">
        <ele>28.5</ele>
        <time>2023-08-24T12:51:40Z</time>
      </trkpt>
      <trkpt lat="58.242850033566356" lon="-5.005847001448274">
        <ele>29.460000000000001</ele>
        <time>2023-08-24T12:51:41Z</time>
      </trkpt>
      <trkpt lat="58.242122987285256" lon="-5.007540984079242">
        <ele>38.590000000000003</ele>
        <time>2023-08-24T12:51:47Z</time>
      </trkpt>
      <trkpt lat="58.242049980908632" lon="-5.007675010710955">
        <ele>39.549999999999997</ele>
        <time>2023-08-24T12:51:48Z</time>
      </trkpt>
      <trkpt lat="58.241349002346396" lon="-5.008531976491213">
        <ele>46.280000000000001</ele>
        <time>2023-08-24T12:51:54Z</time>
      </trkpt>
      <trkpt lat="58.240170003846288" lon="-5.00996695831418">
        <ele>56.859999999999999</ele>
        <time>2023-08-24T12:52:01Z</time>
      </trkpt>
      <trkpt lat="58.239993983879685" lon="-5.01013501547277">
        <ele>57.82</ele>
        <time>2023-08-24T12:52:02Z</time>
      </trkpt>
      <trkpt lat="58.239807989448309" lon="-5.010252026841044">
        <ele>59.259999999999998</ele>
        <time>2023-08-24T12:52:03Z</time>
      </trkpt>
      <trkpt lat="58.238449031487107" lon="-5.010703979060054">
        <ele>64.549999999999997</ele>
        <time>2023-08-24T12:52:10Z</time>
      </trkpt>
      <trkpt lat="58.238274017348886" lon="-5.01069501042366">
        <ele>65.030000000000001</ele>
        <time>2023-08-24T12:52:11Z</time>
      </trkpt>
      <trkpt lat="58.23809296824038" lon="-5.010655028745532">
        <ele>65.510000000000005</ele>
        <time>2023-08-24T12:52:12Z</time>
      </trkpt>
      <trkpt lat="58.237612014636397" lon="-5.010457970201969">
        <ele>65.989999999999995</ele>
        <time>2023-08-24T12:52:15Z</time>
      </trkpt>
      <trkpt lat="58.23746700771153" lon="-5.010468028485775">
        <ele>66.469999999999999</ele>
        <time>2023-08-24T12:52:16Z</time>
      </trkpt>
      <trkpt lat="58.237341027706861" lon="-5.010531982406974">
        <ele>66.950000000000003</ele>
        <time>2023-08-24T12:52:17Z</time>
      </trkpt>
      <trkpt lat="58.237211024388671" lon="-5.010689981281757">
        <ele>67.430000000000007</ele>
        <time>2023-08-24T12:52:18Z</time>
      </trkpt>
      <trkpt lat="58.237069034948945" lon="-5.010864995419979">
        <ele>67.909999999999997</ele>
        <time>2023-08-24T12:52:19Z</time>
      </trkpt>
      <trkpt lat="58.236932996660471" lon="-5.011078985407949">
        <ele>68.390000000000001</ele>
        <time>2023-08-24T12:52:20Z</time>
      </trkpt>
      <trkpt lat="58.236203016713262" lon="-5.012603988870978">
        <ele>71.760000000000005</ele>
        <time>2023-08-24T12:52:27Z</time>
      </trkpt>
      <trkpt lat="58.236023979261518" lon="-5.013027023524046">
        <ele>72.719999999999999</ele>
        <time>2023-08-24T12:52:31Z</time>
      </trkpt>
      <trkpt lat="58.235988020896912" lon="-5.013112016022205">
        <ele>73.200000000000003</ele>
        <time>2023-08-24T12:52:32Z</time>
      </trkpt>
      <trkpt lat="58.235948961228132" lon="-5.013255011290312">
        <ele>73.680000000000007</ele>
        <time>2023-08-24T12:52:34Z</time>
      </trkpt>
      <trkpt lat="58.235944015905261" lon="-5.013398006558418">
        <ele>74.159999999999997</ele>
        <time>2023-08-24T12:52:35Z</time>
      </trkpt>
      <trkpt lat="58.235930018126965" lon="-5.013777958229184">
        <ele>74.159999999999997</ele>
        <time>2023-08-24T12:52:36Z</time>
      </trkpt>
      <trkpt lat="58.23585600592196" lon="-5.014185989275575">
        <ele>75.599999999999994</ele>
        <time>2023-08-24T12:52:38Z</time>
      </trkpt>
      <trkpt lat="58.235844019800425" lon="-5.014436021447182">
        <ele>76.079999999999998</ele>
        <time>2023-08-24T12:52:39Z</time>
      </trkpt>
      <trkpt lat="58.235844019800425" lon="-5.014683958142996">
        <ele>77.040000000000006</ele>
        <time>2023-08-24T12:52:40Z</time>
      </trkpt>
      <trkpt lat="58.235844019800425" lon="-5.015203971415758">
        <ele>78.480000000000004</ele>
        <time>2023-08-24T12:52:42Z</time>
      </trkpt>
      <trkpt lat="58.235795991495252" lon="-5.01623704098165">
        <ele>82.329999999999998</ele>
        <time>2023-08-24T12:52:46Z</time>
      </trkpt>
      <trkpt lat="58.235752992331982" lon="-5.016476009041071">
        <ele>83.290000000000006</ele>
        <time>2023-08-24T12:52:47Z</time>
      </trkpt>
      <trkpt lat="58.235716028138995" lon="-5.01668899320066">
        <ele>84.730000000000004</ele>
        <time>2023-08-24T12:52:48Z</time>
      </trkpt>
      <trkpt lat="58.23568400926888" lon="-5.016866018995643">
        <ele>86.659999999999997</ele>
        <time>2023-08-24T12:52:49Z</time>
      </trkpt>
      <trkpt lat="58.235672023147345" lon="-5.017023012042046">
        <ele>87.620000000000005</ele>
        <time>2023-08-24T12:52:50Z</time>
      </trkpt>
      <trkpt lat="58.235672023147345" lon="-5.017159972339869">
        <ele>89.060000000000002</ele>
        <time>2023-08-24T12:52:51Z</time>
      </trkpt>
      <trkpt lat="58.235708987340331" lon="-5.017293998971582">
        <ele>90.5</ele>
        <time>2023-08-24T12:52:52Z</time>
      </trkpt>
      <trkpt lat="58.2357710134238" lon="-5.017431965097785">
        <ele>91.459999999999994</ele>
        <time>2023-08-24T12:52:53Z</time>
      </trkpt>
      <trkpt lat="58.235848965123296" lon="-5.017604967579246">
        <ele>92.900000000000006</ele>
        <time>2023-08-24T12:52:54Z</time>
      </trkpt>
      <trkpt lat="58.235954996198416" lon="-5.017755003646016">
        <ele>94.349999999999994</ele>
        <time>2023-08-24T12:52:55Z</time>
      </trkpt>
      <trkpt lat="58.236074019223452" lon="-5.017905039712787">
        <ele>95.790000000000006</ele>
        <time>2023-08-24T12:52:56Z</time>
      </trkpt>
      <trkpt lat="58.236421030014753" lon="-5.01834399998188">
        <ele>99.150000000000006</ele>
        <time>2023-08-24T12:53:01Z</time>
      </trkpt>
      <trkpt lat="58.236486995592713" lon="-5.018427986651659">
        <ele>100.11</ele>
        <time>2023-08-24T12:53:14Z</time>
      </trkpt>
      <trkpt lat="58.236875999718904" lon="-5.019084960222244">
        <ele>101.56</ele>
        <time>2023-08-24T12:53:19Z</time>
      </trkpt>
      <trkpt lat="58.236959986388683" lon="-5.019228961318731">
        <ele>101.08</ele>
        <time>2023-08-24T12:53:20Z</time>
      </trkpt>
      <trkpt lat="58.237022012472153" lon="-5.019471030682325">
        <ele>101.08</ele>
        <time>2023-08-24T12:53:21Z</time>
      </trkpt>
      <trkpt lat="58.237084038555622" lon="-5.019713016226888">
        <ele>101.08</ele>
        <time>2023-08-24T12:53:22Z</time>
      </trkpt>
      <trkpt lat="58.237147992476821" lon="-5.019962964579463">
        <ele>101.08</ele>
        <time>2023-08-24T12:53:23Z</time>
      </trkpt>
      <trkpt lat="58.237228039652109" lon="-5.0201699975878">
        <ele>101.56</ele>
        <time>2023-08-24T12:53:24Z</time>
      </trkpt>
      <trkpt lat="58.23731898330152" lon="-5.020345011726022">
        <ele>101.56</ele>
        <time>2023-08-24T12:53:25Z</time>
      </trkpt>
      <trkpt lat="58.23740498162806" lon="-5.020512985065579">
        <ele>102.04000000000001</ele>
        <time>2023-08-24T12:53:26Z</time>
      </trkpt>
      <trkpt lat="58.237485028803349" lon="-5.020667966455221">
        <ele>102.04000000000001</ele>
        <time>2023-08-24T12:53:27Z</time>
      </trkpt>
      <trkpt lat="58.237541019916534" lon="-5.020848009735346">
        <ele>102.52</ele>
        <time>2023-08-24T12:53:28Z</time>
      </trkpt>
      <trkpt lat="58.237584019079804" lon="-5.021060993894935">
        <ele>103</ele>
        <time>2023-08-24T12:53:29Z</time>
      </trkpt>
      <trkpt lat="58.237684015184641" lon="-5.021559968590736">
        <ele>103</ele>
        <time>2023-08-24T12:53:31Z</time>
      </trkpt>
      <trkpt lat="58.237761966884136" lon="-5.021826010197401">
        <ele>102.52</ele>
        <time>2023-08-24T12:53:32Z</time>
      </trkpt>
      <trkpt lat="58.237863974645734" lon="-5.02208299934864">
        <ele>103</ele>
        <time>2023-08-24T12:53:33Z</time>
      </trkpt>
      <trkpt lat="58.238073019310832" lon="-5.022610975429416">
        <ele>103</ele>
        <time>2023-08-24T12:53:35Z</time>
      </trkpt>
      <trkpt lat="58.238157005980611" lon="-5.022885985672474">
        <ele>103</ele>
        <time>2023-08-24T12:53:36Z</time>
      </trkpt>
      <trkpt lat="58.238507034257054" lon="-5.024344017729163">
        <ele>103</ele>
        <time>2023-08-24T12:53:41Z</time>
      </trkpt>
      <trkpt lat="58.238613987341523" lon="-5.02457401715219">
        <ele>103.48</ele>
        <time>2023-08-24T12:53:42Z</time>
      </trkpt>
      <trkpt lat="58.23873401619494" lon="-5.024780966341496">
        <ele>103.48</ele>
        <time>2023-08-24T12:53:43Z</time>
      </trkpt>
      <trkpt lat="58.238955968990922" lon="-5.025165025144815">
        <ele>103.95999999999999</ele>
        <time>2023-08-24T12:53:45Z</time>
      </trkpt>
      <trkpt lat="58.239056970924139" lon="-5.025340961292386">
        <ele>103.95999999999999</ele>
        <time>2023-08-24T12:53:46Z</time>
      </trkpt>
      <trkpt lat="58.23914397507906" lon="-5.025545982643962">
        <ele>103.48</ele>
        <time>2023-08-24T12:53:47Z</time>
      </trkpt>
      <trkpt lat="58.239876972511411" lon="-5.027534002438188">
        <ele>103</ele>
        <time>2023-08-24T12:53:55Z</time>
      </trkpt>
      <trkpt lat="58.239935981109738" lon="-5.027784034609795">
        <ele>103.48</ele>
        <time>2023-08-24T12:53:56Z</time>
      </trkpt>
      <trkpt lat="58.239954002201557" lon="-5.028029037639499">
        <ele>104.44</ele>
        <time>2023-08-24T12:53:57Z</time>
      </trkpt>
      <trkpt lat="58.240022985264659" lon="-5.029510958120227">
        <ele>110.69</ele>
        <time>2023-08-24T12:54:03Z</time>
      </trkpt>
      <trkpt lat="58.239995995536447" lon="-5.029785968363285">
        <ele>111.65000000000001</ele>
        <time>2023-08-24T12:54:04Z</time>
      </trkpt>
      <trkpt lat="58.239967999979854" lon="-5.030068019405007">
        <ele>112.61</ele>
        <time>2023-08-24T12:54:05Z</time>
      </trkpt>
      <trkpt lat="58.239877978339791" lon="-5.031080972403288">
        <ele>115.98</ele>
        <time>2023-08-24T12:54:09Z</time>
      </trkpt>
      <trkpt lat="58.239877978339791" lon="-5.031297979876399">
        <ele>117.42</ele>
        <time>2023-08-24T12:54:10Z</time>
      </trkpt>
      <trkpt lat="58.239906979724765" lon="-5.031496966257691">
        <ele>118.38</ele>
        <time>2023-08-24T12:54:11Z</time>
      </trkpt>
      <trkpt lat="58.239946961402893" lon="-5.031698970124126">
        <ele>119.81999999999999</ele>
        <time>2023-08-24T12:54:12Z</time>
      </trkpt>
      <trkpt lat="58.23998099192977" lon="-5.031869960948825">
        <ele>120.78</ele>
        <time>2023-08-24T12:54:13Z</time>
      </trkpt>
      <trkpt lat="58.240056009963155" lon="-5.032095015048981">
        <ele>123.67</ele>
        <time>2023-08-24T12:54:15Z</time>
      </trkpt>
      <trkpt lat="58.240435961633921" lon="-5.033215004950762">
        <ele>126.06999999999999</ele>
        <time>2023-08-24T12:54:21Z</time>
      </trkpt>
      <trkpt lat="58.240780038759112" lon="-5.034641018137336">
        <ele>120.78</ele>
        <time>2023-08-24T12:54:27Z</time>
      </trkpt>
      <trkpt lat="58.240809962153435" lon="-5.034917034208775">
        <ele>119.34</ele>
        <time>2023-08-24T12:54:28Z</time>
      </trkpt>
      <trkpt lat="58.241100981831551" lon="-5.037166988477111">
        <ele>107.81</ele>
        <time>2023-08-24T12:54:36Z</time>
      </trkpt>
      <trkpt lat="58.241197038441896" lon="-5.037381984293461">
        <ele>106.36</ele>
        <time>2023-08-24T12:54:37Z</time>
      </trkpt>
      <trkpt lat="58.241281025111675" lon="-5.037567978724837">
        <ele>104.92</ele>
        <time>2023-08-24T12:54:38Z</time>
      </trkpt>
      <trkpt lat="58.241666005924344" lon="-5.038446988910437">
        <ele>98.189999999999998</ele>
        <time>2023-08-24T12:54:42Z</time>
      </trkpt>
      <trkpt lat="58.241718979552388" lon="-5.038714036345482">
        <ele>96.75</ele>
        <time>2023-08-24T12:54:43Z</time>
      </trkpt>
      <trkpt lat="58.242071019485593" lon="-5.040638018399477">
        <ele>86.180000000000007</ele>
        <time>2023-08-24T12:54:50Z</time>
      </trkpt>
      <trkpt lat="58.242088034749031" lon="-5.040814960375428">
        <ele>84.730000000000004</ele>
        <time>2023-08-24T12:54:51Z</time>
      </trkpt>
      <trkpt lat="58.242045035585761" lon="-5.041071027517319">
        <ele>83.290000000000006</ele>
        <time>2023-08-24T12:54:52Z</time>
      </trkpt>
      <trkpt lat="58.242006981745362" lon="-5.041303960606456">
        <ele>81.849999999999994</ele>
        <time>2023-08-24T12:54:53Z</time>
      </trkpt>
      <trkpt lat="58.241973035037518" lon="-5.041541000828147">
        <ele>80.890000000000001</ele>
        <time>2023-08-24T12:54:54Z</time>
      </trkpt>
      <trkpt lat="58.241951996460557" lon="-5.041787009686232">
        <ele>79.450000000000003</ele>
        <time>2023-08-24T12:54:55Z</time>
      </trkpt>
      <trkpt lat="58.241928024217486" lon="-5.042051039636135">
        <ele>78</ele>
        <time>2023-08-24T12:54:56Z</time>
      </trkpt>
      <trkpt lat="58.241894999518991" lon="-5.042828964069486">
        <ele>74.640000000000001</ele>
        <time>2023-08-24T12:54:59Z</time>
      </trkpt>
      <trkpt lat="58.241894999518991" lon="-5.043046977370977">
        <ele>73.680000000000007</ele>
        <time>2023-08-24T12:55:00Z</time>
      </trkpt>
      <trkpt lat="58.24193699285388" lon="-5.043258033692837">
        <ele>72.239999999999995</ele>
        <time>2023-08-24T12:55:01Z</time>
      </trkpt>
      <trkpt lat="58.241989966481924" lon="-5.043469006195664">
        <ele>71.269999999999996</ele>
        <time>2023-08-24T12:55:02Z</time>
      </trkpt>
      <trkpt lat="58.242059033364058" lon="-5.043693976476789">
        <ele>70.790000000000006</ele>
        <time>2023-08-24T12:55:03Z</time>
      </trkpt>
      <trkpt lat="58.242131033912301" lon="-5.043927999213338">
        <ele>69.829999999999998</ele>
        <time>2023-08-24T12:55:04Z</time>
      </trkpt>
      <trkpt lat="58.242739979177713" lon="-5.045944014564157">
        <ele>64.069999999999993</ele>
        <time>2023-08-24T12:55:12Z</time>
      </trkpt>
      <trkpt lat="58.242766968905926" lon="-5.046164039522409">
        <ele>62.619999999999997</ele>
        <time>2023-08-24T12:55:13Z</time>
      </trkpt>
      <trkpt lat="58.24277501553297" lon="-5.046371994540095">
        <ele>61.659999999999997</ele>
        <time>2023-08-24T12:55:14Z</time>
      </trkpt>
      <trkpt lat="58.24277501553297" lon="-5.046606017276645">
        <ele>60.700000000000003</ele>
        <time>2023-08-24T12:55:15Z</time>
      </trkpt>
      <trkpt lat="58.24277501553297" lon="-5.046836016699672">
        <ele>59.740000000000002</ele>
        <time>2023-08-24T12:55:16Z</time>
      </trkpt>
      <trkpt lat="58.242793958634138" lon="-5.04702502861619">
        <ele>58.780000000000001</ele>
        <time>2023-08-24T12:55:17Z</time>
      </trkpt>
      <trkpt lat="58.24286101385951" lon="-5.047359969466925">
        <ele>55.890000000000001</ele>
        <time>2023-08-24T12:55:20Z</time>
      </trkpt>
      <trkpt lat="58.242910970002413" lon="-5.047499025240541">
        <ele>54.93</ele>
        <time>2023-08-24T12:55:21Z</time>
      </trkpt>
      <trkpt lat="58.242953969165683" lon="-5.047620981931686">
        <ele>53.969999999999999</ele>
        <time>2023-08-24T12:55:22Z</time>
      </trkpt>
      <trkpt lat="58.242996968328953" lon="-5.047738999128342">
        <ele>53.009999999999998</ele>
        <time>2023-08-24T12:55:23Z</time>
      </trkpt>
      <trkpt lat="58.243040973320603" lon="-5.047860033810139">
        <ele>52.049999999999997</ele>
        <time>2023-08-24T12:55:24Z</time>
      </trkpt>
      <trkpt lat="58.243085984140635" lon="-5.047985007986426">
        <ele>51.090000000000003</ele>
        <time>2023-08-24T12:55:25Z</time>
      </trkpt>
      <trkpt lat="58.243130994960666" lon="-5.048111993819475">
        <ele>50.609999999999999</ele>
        <time>2023-08-24T12:55:26Z</time>
      </trkpt>
      <trkpt lat="58.243177011609077" lon="-5.048238979652524">
        <ele>50.609999999999999</ele>
        <time>2023-08-24T12:55:27Z</time>
      </trkpt>
      <trkpt lat="58.243437018245459" lon="-5.04895999096334">
        <ele>46.280000000000001</ele>
        <time>2023-08-24T12:55:35Z</time>
      </trkpt>
      <trkpt lat="58.243715967983007" lon="-5.049782004207373">
        <ele>44.359999999999999</ele>
        <time>2023-08-24T12:55:41Z</time>
      </trkpt>
      <trkpt lat="58.243771037086844" lon="-5.049965986981988">
        <ele>43.880000000000003</ele>
        <time>2023-08-24T12:55:42Z</time>
      </trkpt>
      <trkpt lat="58.244067002087831" lon="-5.05095798522234">
        <ele>44.359999999999999</ele>
        <time>2023-08-24T12:55:48Z</time>
      </trkpt>
      <trkpt lat="58.244217038154602" lon="-5.051458971574903">
        <ele>44.840000000000003</ele>
        <time>2023-08-24T12:55:52Z</time>
      </trkpt>
      <trkpt lat="58.244461035355926" lon="-5.051973033696413">
        <ele>46.280000000000001</ele>
        <time>2023-08-24T12:55:57Z</time>
      </trkpt>
      <trkpt lat="58.244594978168607" lon="-5.052227005362511">
        <ele>46.759999999999998</ele>
        <time>2023-08-24T12:55:59Z</time>
      </trkpt>
      <trkpt lat="58.244646023958921" lon="-5.052383998408914">
        <ele>46.759999999999998</ele>
        <time>2023-08-24T12:56:00Z</time>
      </trkpt>
      <trkpt lat="58.244688017293811" lon="-5.052564041689038">
        <ele>46.280000000000001</ele>
        <time>2023-08-24T12:56:01Z</time>
      </trkpt>
      <trkpt lat="58.244733028113842" lon="-5.052760010585189">
        <ele>45.799999999999997</ele>
        <time>2023-08-24T12:56:02Z</time>
      </trkpt>
      <trkpt lat="58.244782984256744" lon="-5.052972994744778">
        <ele>45.799999999999997</ele>
        <time>2023-08-24T12:56:03Z</time>
      </trkpt>
      <trkpt lat="58.244836963713169" lon="-5.053199976682663">
        <ele>45.32</ele>
        <time>2023-08-24T12:56:04Z</time>
      </trkpt>
      <trkpt lat="58.244919022545218" lon="-5.05336401052773">
        <ele>44.840000000000003</ele>
        <time>2023-08-24T12:56:05Z</time>
      </trkpt>
      <trkpt lat="58.245118008926511" lon="-5.053762989118695">
        <ele>43.399999999999999</ele>
        <time>2023-08-24T12:56:08Z</time>
      </trkpt>
      <trkpt lat="58.245171988382936" lon="-5.053872037678957">
        <ele>41.950000000000003</ele>
        <time>2023-08-24T12:56:09Z</time>
      </trkpt>
      <trkpt lat="58.245209958404303" lon="-5.054030036553741">
        <ele>40.990000000000002</ele>
        <time>2023-08-24T12:56:10Z</time>
      </trkpt>
      <trkpt lat="58.245226973667741" lon="-5.054205972701311">
        <ele>40.030000000000001</ele>
        <time>2023-08-24T12:56:11Z</time>
      </trkpt>
      <trkpt lat="58.245242983102798" lon="-5.054371012374759">
        <ele>39.07</ele>
        <time>2023-08-24T12:56:12Z</time>
      </trkpt>
      <trkpt lat="58.245258992537856" lon="-5.054535968229175">
        <ele>38.590000000000003</ele>
        <time>2023-08-24T12:56:13Z</time>
      </trkpt>
      <trkpt lat="58.245284976437688" lon="-5.054805027320981">
        <ele>37.630000000000003</ele>
        <time>2023-08-24T12:56:14Z</time>
      </trkpt>
      <trkpt lat="58.245277013629675" lon="-5.054945005103946">
        <ele>36.670000000000002</ele>
        <time>2023-08-24T12:56:15Z</time>
      </trkpt>
      <trkpt lat="58.245238037779927" lon="-5.056041022762656">
        <ele>32.340000000000003</ele>
        <time>2023-08-24T12:56:20Z</time>
      </trkpt>
      <trkpt lat="58.245261004194617" lon="-5.05624302662909">
        <ele>31.859999999999999</ele>
        <time>2023-08-24T12:56:21Z</time>
      </trkpt>
      <trkpt lat="58.245282964780927" lon="-5.056432038545609">
        <ele>31.379999999999999</ele>
        <time>2023-08-24T12:56:22Z</time>
      </trkpt>
      <trkpt lat="58.245304003357887" lon="-5.05660898052156">
        <ele>31.379999999999999</ele>
        <time>2023-08-24T12:56:23Z</time>
      </trkpt>
      <trkpt lat="58.245326969772577" lon="-5.056798998266459">
        <ele>31.379999999999999</ele>
        <time>2023-08-24T12:56:24Z</time>
      </trkpt>
      <trkpt lat="58.245350020006299" lon="-5.05701600573957">
        <ele>31.859999999999999</ele>
        <time>2023-08-24T12:56:25Z</time>
      </trkpt>
      <trkpt lat="58.245350020006299" lon="-5.057226978242397">
        <ele>31.859999999999999</ele>
        <time>2023-08-24T12:56:26Z</time>
      </trkpt>
      <trkpt lat="58.245350020006299" lon="-5.05742697045207">
        <ele>31.859999999999999</ele>
        <time>2023-08-24T12:56:27Z</time>
      </trkpt>
      <trkpt lat="58.245350020006299" lon="-5.057600978761911">
        <ele>31.859999999999999</ele>
        <time>2023-08-24T12:56:28Z</time>
      </trkpt>
      <trkpt lat="58.245378015562892" lon="-5.057771969586611">
        <ele>32.340000000000003</ele>
        <time>2023-08-24T12:56:29Z</time>
      </trkpt>
      <trkpt lat="58.245440041646361" lon="-5.057873977348208">
        <ele>32.340000000000003</ele>
        <time>2023-08-24T12:56:30Z</time>
      </trkpt>
      <trkpt lat="58.245508018881083" lon="-5.057986965402961">
        <ele>32.340000000000003</ele>
        <time>2023-08-24T12:56:31Z</time>
      </trkpt>
      <trkpt lat="58.245670963078737" lon="-5.058259963989258">
        <ele>32.340000000000003</ele>
        <time>2023-08-24T12:56:33Z</time>
      </trkpt>
      <trkpt lat="58.245710022747517" lon="-5.058345962315798">
        <ele>32.340000000000003</ele>
        <time>2023-08-24T12:56:34Z</time>
      </trkpt>
      <trkpt lat="58.245779005810618" lon="-5.058495998382568">
        <ele>32.340000000000003</ele>
        <time>2023-08-24T12:56:35Z</time>
      </trkpt>
      <trkpt lat="58.245789986103773" lon="-5.05860798060894">
        <ele>32.340000000000003</ele>
        <time>2023-08-24T12:56:36Z</time>
      </trkpt>
      <trkpt lat="58.245808007195592" lon="-5.05877997726202">
        <ele>32.340000000000003</ele>
        <time>2023-08-24T12:56:37Z</time>
      </trkpt>
      <trkpt lat="58.245828039944172" lon="-5.05897200666368">
        <ele>32.82</ele>
        <time>2023-08-24T12:56:38Z</time>
      </trkpt>
      <trkpt lat="58.245860980823636" lon="-5.059181973338127">
        <ele>32.82</ele>
        <time>2023-08-24T12:56:39Z</time>
      </trkpt>
      <trkpt lat="58.245917977765203" lon="-5.059377020224929">
        <ele>33.299999999999997</ele>
        <time>2023-08-24T12:56:40Z</time>
      </trkpt>
      <trkpt lat="58.24597698636353" lon="-5.059582041576505">
        <ele>33.780000000000001</ele>
        <time>2023-08-24T12:56:41Z</time>
      </trkpt>
      <trkpt lat="58.24604001827538" lon="-5.059797959402204">
        <ele>34.259999999999998</ele>
        <time>2023-08-24T12:56:42Z</time>
      </trkpt>
      <trkpt lat="58.24610497802496" lon="-5.060023013502359">
        <ele>34.259999999999998</ele>
        <time>2023-08-24T12:56:43Z</time>
      </trkpt>
      <trkpt lat="58.246167004108429" lon="-5.060234991833568">
        <ele>34.259999999999998</ele>
        <time>2023-08-24T12:56:44Z</time>
      </trkpt>
      <trkpt lat="58.246222995221615" lon="-5.060428027063608">
        <ele>34.259999999999998</ele>
        <time>2023-08-24T12:56:45Z</time>
      </trkpt>
      <trkpt lat="58.246273035183549" lon="-5.060602035373449">
        <ele>34.740000000000002</ele>
        <time>2023-08-24T12:56:46Z</time>
      </trkpt>
      <trkpt lat="58.246300024911761" lon="-5.060783000662923">
        <ele>35.229999999999997</ele>
        <time>2023-08-24T12:56:47Z</time>
      </trkpt>
      <trkpt lat="58.246464980766177" lon="-5.061898967251182">
        <ele>37.630000000000003</ele>
        <time>2023-08-24T12:56:53Z</time>
      </trkpt>
      <trkpt lat="58.246494987979531" lon="-5.062099965289235">
        <ele>38.109999999999999</ele>
        <time>2023-08-24T12:56:54Z</time>
      </trkpt>
      <trkpt lat="58.246545027941465" lon="-5.062271039932966">
        <ele>38.590000000000003</ele>
        <time>2023-08-24T12:56:55Z</time>
      </trkpt>
      <trkpt lat="58.246618034318089" lon="-5.062377993017435">
        <ele>39.549999999999997</ele>
        <time>2023-08-24T12:56:56Z</time>
      </trkpt>
      <trkpt lat="58.246692968532443" lon="-5.062444964423776">
        <ele>40.030000000000001</ele>
        <time>2023-08-24T12:56:57Z</time>
      </trkpt>
      <trkpt lat="58.246772009879351" lon="-5.062515959143639">
        <ele>40.509999999999998</ele>
        <time>2023-08-24T12:56:58Z</time>
      </trkpt>
      <trkpt lat="58.246935037896037" lon="-5.062662977725267">
        <ele>40.509999999999998</ele>
        <time>2023-08-24T12:57:00Z</time>
      </trkpt>
      <trkpt lat="58.2470060326159" lon="-5.062739001587033">
        <ele>40.509999999999998</ele>
        <time>2023-08-24T12:57:01Z</time>
      </trkpt>
      <trkpt lat="58.247047020122409" lon="-5.062892977148294">
        <ele>40.030000000000001</ele>
        <time>2023-08-24T12:57:02Z</time>
      </trkpt>
      <trkpt lat="58.247093036770821" lon="-5.063066985458136">
        <ele>39.549999999999997</ele>
        <time>2023-08-24T12:57:03Z</time>
      </trkpt>
      <trkpt lat="58.247143998742104" lon="-5.063255997374654">
        <ele>39.07</ele>
        <time>2023-08-24T12:57:04Z</time>
      </trkpt>
      <trkpt lat="58.247211975976825" lon="-5.063437968492508">
        <ele>38.590000000000003</ele>
        <time>2023-08-24T12:57:05Z</time>
      </trkpt>
      <trkpt lat="58.247293028980494" lon="-5.063592027872801">
        <ele>38.109999999999999</ele>
        <time>2023-08-24T12:57:06Z</time>
      </trkpt>
      <trkpt lat="58.247377015650272" lon="-5.06371901370585">
        <ele>37.630000000000003</ele>
        <time>2023-08-24T12:57:07Z</time>
      </trkpt>
      <trkpt lat="58.247477011755109" lon="-5.063810963183641">
        <ele>37.149999999999999</ele>
        <time>2023-08-24T12:57:08Z</time>
      </trkpt>
      <trkpt lat="58.247580025345087" lon="-5.063908025622368">
        <ele>36.189999999999998</ele>
        <time>2023-08-24T12:57:09Z</time>
      </trkpt>
      <trkpt lat="58.247683038935065" lon="-5.064002992585301">
        <ele>35.229999999999997</ele>
        <time>2023-08-24T12:57:10Z</time>
      </trkpt>
      <trkpt lat="58.247787980362773" lon="-5.064101982861757">
        <ele>34.259999999999998</ele>
        <time>2023-08-24T12:57:11Z</time>
      </trkpt>
      <trkpt lat="58.248647963628173" lon="-5.064927013590932">
        <ele>25.129999999999999</ele>
        <time>2023-08-24T12:57:18Z</time>
      </trkpt>
      <trkpt lat="58.248844016343355" lon="-5.065175034105778">
        <ele>22.73</ele>
        <time>2023-08-24T12:57:20Z</time>
      </trkpt>
      <trkpt lat="58.248925991356373" lon="-5.065334960818291">
        <ele>21.77</ele>
        <time>2023-08-24T12:57:21Z</time>
      </trkpt>
      <trkpt lat="58.248994974419475" lon="-5.065516009926796">
        <ele>21.289999999999999</ele>
        <time>2023-08-24T12:57:22Z</time>
      </trkpt>
      <trkpt lat="58.249066974967718" lon="-5.065704016014934">
        <ele>20.809999999999999</ele>
        <time>2023-08-24T12:57:23Z</time>
      </trkpt>
      <trkpt lat="58.249141993001103" lon="-5.065899984911084">
        <ele>20.32</ele>
        <time>2023-08-24T12:57:24Z</time>
      </trkpt>
      <trkpt lat="58.249210976064205" lon="-5.066120009869337">
        <ele>19.84</ele>
        <time>2023-08-24T12:57:25Z</time>
      </trkpt>
      <trkpt lat="58.249261016026139" lon="-5.066341040655971">
        <ele>19.84</ele>
        <time>2023-08-24T12:57:26Z</time>
      </trkpt>
      <trkpt lat="58.24930602684617" lon="-5.066538015380502">
        <ele>19.359999999999999</ele>
        <time>2023-08-24T12:57:27Z</time>
      </trkpt>
      <trkpt lat="58.249336034059525" lon="-5.066743958741427">
        <ele>19.359999999999999</ele>
        <time>2023-08-24T12:57:28Z</time>
      </trkpt>
      <trkpt lat="58.249321030452847" lon="-5.066917967051268">
        <ele>18.879999999999999</ele>
        <time>2023-08-24T12:57:29Z</time>
      </trkpt>
      <trkpt lat="58.24930502101779" lon="-5.067107984796166">
        <ele>18.879999999999999</ele>
        <time>2023-08-24T12:57:30Z</time>
      </trkpt>
      <trkpt lat="58.249277025461197" lon="-5.067310994490981">
        <ele>18.879999999999999</ele>
        <time>2023-08-24T12:57:31Z</time>
      </trkpt>
      <trkpt lat="58.248891960829496" lon="-5.069157024845481">
        <ele>23.690000000000001</ele>
        <time>2023-08-24T12:57:39Z</time>
      </trkpt>
      <trkpt lat="58.248756006360054" lon="-5.069774016737938">
        <ele>26.09</ele>
        <time>2023-08-24T12:57:42Z</time>
      </trkpt>
      <trkpt lat="58.24872700497508" lon="-5.069964034482837">
        <ele>27.050000000000001</ele>
        <time>2023-08-24T12:57:43Z</time>
      </trkpt>
      <trkpt lat="58.248723987489939" lon="-5.070190010592341">
        <ele>28.02</ele>
        <time>2023-08-24T12:57:44Z</time>
      </trkpt>
      <trkpt lat="58.248868994414806" lon="-5.072208037599921">
        <ele>39.549999999999997</ele>
        <time>2023-08-24T12:57:52Z</time>
      </trkpt>
      <trkpt lat="58.248858014121652" lon="-5.072435019537807">
        <ele>40.990000000000002</ele>
        <time>2023-08-24T12:57:53Z</time>
      </trkpt>
      <trkpt lat="58.248829012736678" lon="-5.073028961196542">
        <ele>45.32</ele>
        <time>2023-08-24T12:57:56Z</time>
      </trkpt>
      <trkpt lat="58.248844016343355" lon="-5.073190983384848">
        <ele>46.759999999999998</ele>
        <time>2023-08-24T12:57:57Z</time>
      </trkpt>
      <trkpt lat="58.248953986912966" lon="-5.073800012469292">
        <ele>51.57</ele>
        <time>2023-08-24T12:58:00Z</time>
      </trkpt>
      <trkpt lat="58.249002015218139" lon="-5.074005033820868">
        <ele>53.009999999999998</ele>
        <time>2023-08-24T12:58:01Z</time>
      </trkpt>
      <trkpt lat="58.249068986624479" lon="-5.074211983010173">
        <ele>54.450000000000003</ele>
        <time>2023-08-24T12:58:02Z</time>
      </trkpt>
      <trkpt lat="58.249248024076223" lon="-5.074759991839528">
        <ele>58.299999999999997</ele>
        <time>2023-08-24T12:58:05Z</time>
      </trkpt>
      <trkpt lat="58.249286999925971" lon="-5.074943974614143">
        <ele>59.259999999999998</ele>
        <time>2023-08-24T12:58:06Z</time>
      </trkpt>
      <trkpt lat="58.249319018796086" lon="-5.075168022885919">
        <ele>60.219999999999999</ele>
        <time>2023-08-24T12:58:07Z</time>
      </trkpt>
      <trkpt lat="58.249319018796086" lon="-5.075414031744003">
        <ele>60.700000000000003</ele>
        <time>2023-08-24T12:58:08Z</time>
      </trkpt>
      <trkpt lat="58.249319018796086" lon="-5.075670015066862">
        <ele>61.18</ele>
        <time>2023-08-24T12:58:09Z</time>
      </trkpt>
      <trkpt lat="58.249294962733984" lon="-5.075913006439805">
        <ele>61.659999999999997</ele>
        <time>2023-08-24T12:58:10Z</time>
      </trkpt>
      <trkpt lat="58.249264033511281" lon="-5.076173013076186">
        <ele>62.140000000000001</ele>
        <time>2023-08-24T12:58:11Z</time>
      </trkpt>
      <trkpt lat="58.249087007716298" lon="-5.078090038150549">
        <ele>65.510000000000005</ele>
        <time>2023-08-24T12:58:18Z</time>
      </trkpt>
      <trkpt lat="58.249082984402776" lon="-5.078193973749876">
        <ele>65.989999999999995</ele>
        <time>2023-08-24T12:58:19Z</time>
      </trkpt>
      <trkpt lat="58.2491369638592" lon="-5.078435959294438">
        <ele>65.989999999999995</ele>
        <time>2023-08-24T12:58:20Z</time>
      </trkpt>
      <trkpt lat="58.249168982729316" lon="-5.078579960390925">
        <ele>66.469999999999999</ele>
        <time>2023-08-24T12:58:21Z</time>
      </trkpt>
      <trkpt lat="58.249224973842502" lon="-5.078723039478064">
        <ele>66.950000000000003</ele>
        <time>2023-08-24T12:58:22Z</time>
      </trkpt>
      <trkpt lat="58.249278031289577" lon="-5.078857988119125">
        <ele>67.430000000000007</ele>
        <time>2023-08-24T12:58:23Z</time>
      </trkpt>
      <trkpt lat="58.249337961897254" lon="-5.079010035842657">
        <ele>67.909999999999997</ele>
        <time>2023-08-24T12:58:24Z</time>
      </trkpt>
      <trkpt lat="58.249397976323962" lon="-5.079163005575538">
        <ele>68.390000000000001</ele>
        <time>2023-08-24T12:58:25Z</time>
      </trkpt>
      <trkpt lat="58.249411974102259" lon="-5.07936199195683">
        <ele>68.870000000000005</ele>
        <time>2023-08-24T12:58:26Z</time>
      </trkpt>
      <trkpt lat="58.249419014900923" lon="-5.079556033015251">
        <ele>68.870000000000005</ele>
        <time>2023-08-24T12:58:27Z</time>
      </trkpt>
      <trkpt lat="58.249423960223794" lon="-5.079771028831601">
        <ele>68.390000000000001</ele>
        <time>2023-08-24T12:58:28Z</time>
      </trkpt>
      <trkpt lat="58.249405017122626" lon="-5.080011002719402">
        <ele>68.390000000000001</ele>
        <time>2023-08-24T12:58:29Z</time>
      </trkpt>
      <trkpt lat="58.249385990202427" lon="-5.080251982435584">
        <ele>67.909999999999997</ele>
        <time>2023-08-24T12:58:30Z</time>
      </trkpt>
      <trkpt lat="58.249339973554015" lon="-5.080467984080315">
        <ele>67.909999999999997</ele>
        <time>2023-08-24T12:58:31Z</time>
      </trkpt>
      <trkpt lat="58.249294040724635" lon="-5.080673005431891">
        <ele>67.909999999999997</ele>
        <time>2023-08-24T12:58:32Z</time>
      </trkpt>
      <trkpt lat="58.249246012419462" lon="-5.080883977934718">
        <ele>67.909999999999997</ele>
        <time>2023-08-24T12:58:33Z</time>
      </trkpt>
      <trkpt lat="58.249237965792418" lon="-5.081099979579449">
        <ele>67.430000000000007</ele>
        <time>2023-08-24T12:58:34Z</time>
      </trkpt>
      <trkpt lat="58.249245006591082" lon="-5.081307012587786">
        <ele>67.430000000000007</ele>
        <time>2023-08-24T12:58:35Z</time>
      </trkpt>
      <trkpt lat="58.249259004369378" lon="-5.081663997843862">
        <ele>66.950000000000003</ele>
        <time>2023-08-24T12:58:37Z</time>
      </trkpt>
      <trkpt lat="58.249303009361029" lon="-5.081828031688929">
        <ele>66.950000000000003</ele>
        <time>2023-08-24T12:58:38Z</time>
      </trkpt>
      <trkpt lat="58.249347014352679" lon="-5.081989970058203">
        <ele>66.469999999999999</ele>
        <time>2023-08-24T12:58:39Z</time>
      </trkpt>
      <trkpt lat="58.249389007687569" lon="-5.082146963104606">
        <ele>66.950000000000003</ele>
        <time>2023-08-24T12:58:40Z</time>
      </trkpt>
      <trkpt lat="58.249428989365697" lon="-5.082322983071208">
        <ele>66.950000000000003</ele>
        <time>2023-08-24T12:58:41Z</time>
      </trkpt>
      <trkpt lat="58.249468971043825" lon="-5.082514006644487">
        <ele>67.430000000000007</ele>
        <time>2023-08-24T12:58:42Z</time>
      </trkpt>
      <trkpt lat="58.249870967119932" lon="-5.084436982870102">
        <ele>71.269999999999996</ele>
        <time>2023-08-24T12:58:50Z</time>
      </trkpt>
      <trkpt lat="58.249920001253486" lon="-5.08486102335155">
        <ele>72.239999999999995</ele>
        <time>2023-08-24T12:58:52Z</time>
      </trkpt>
      <trkpt lat="58.249932993203402" lon="-5.085051041096449">
        <ele>73.200000000000003</ele>
        <time>2023-08-24T12:58:53Z</time>
      </trkpt>
      <trkpt lat="58.249988984316587" lon="-5.085243992507458">
        <ele>73.200000000000003</ele>
        <time>2023-08-24T12:58:54Z</time>
      </trkpt>
      <trkpt lat="58.25007900595665" lon="-5.085390005260706">
        <ele>73.200000000000003</ele>
        <time>2023-08-24T12:58:55Z</time>
      </trkpt>
      <trkpt lat="58.250180007889867" lon="-5.085553033277392">
        <ele>74.159999999999997</ele>
        <time>2023-08-24T12:58:56Z</time>
      </trkpt>
      <trkpt lat="58.250300958752632" lon="-5.085693011060357">
        <ele>75.120000000000005</ele>
        <time>2023-08-24T12:58:57Z</time>
      </trkpt>
      <trkpt lat="58.250430962070823" lon="-5.085813039913774">
        <ele>75.599999999999994</ele>
        <time>2023-08-24T12:58:58Z</time>
      </trkpt>
      <trkpt lat="58.25065903365612" lon="-5.086024012416601">
        <ele>77.040000000000006</ele>
        <time>2023-08-24T12:59:00Z</time>
      </trkpt>
      <trkpt lat="58.250750983133912" lon="-5.08610799908638">
        <ele>78</ele>
        <time>2023-08-24T12:59:01Z</time>
      </trkpt>
      <trkpt lat="58.250807980075479" lon="-5.086232973262668">
        <ele>78.969999999999999</ele>
        <time>2023-08-24T12:59:02Z</time>
      </trkpt>
      <trkpt lat="58.250855002552271" lon="-5.086389966309071">
        <ele>79.930000000000007</ele>
        <time>2023-08-24T12:59:03Z</time>
      </trkpt>
      <trkpt lat="58.250906970351934" lon="-5.086562968790531">
        <ele>80.409999999999997</ele>
        <time>2023-08-24T12:59:04Z</time>
      </trkpt>
      <trkpt lat="58.250911999493837" lon="-5.086751980707049">
        <ele>80.409999999999997</ele>
        <time>2023-08-24T12:59:05Z</time>
      </trkpt>
      <trkpt lat="58.25091702863574" lon="-5.086970999836922">
        <ele>80.409999999999997</ele>
        <time>2023-08-24T12:59:06Z</time>
      </trkpt>
      <trkpt lat="58.250964973121881" lon="-5.08849399164319">
        <ele>77.040000000000006</ele>
        <time>2023-08-24T12:59:12Z</time>
      </trkpt>
      <trkpt lat="58.250997997820377" lon="-5.088687026873231">
        <ele>76.560000000000002</ele>
        <time>2023-08-24T12:59:13Z</time>
      </trkpt>
      <trkpt lat="58.25102599337697" lon="-5.088849971070886">
        <ele>76.079999999999998</ele>
        <time>2023-08-24T12:59:14Z</time>
      </trkpt>
      <trkpt lat="58.251057006418705" lon="-5.08903001435101">
        <ele>76.079999999999998</ele>
        <time>2023-08-24T12:59:15Z</time>
      </trkpt>
      <trkpt lat="58.251043008640409" lon="-5.089199999347329">
        <ele>76.560000000000002</ele>
        <time>2023-08-24T12:59:16Z</time>
      </trkpt>
      <trkpt lat="58.251023981720209" lon="-5.089413989335299">
        <ele>77.040000000000006</ele>
        <time>2023-08-24T12:59:17Z</time>
      </trkpt>
      <trkpt lat="58.251004032790661" lon="-5.089649017900229">
        <ele>78</ele>
        <time>2023-08-24T12:59:18Z</time>
      </trkpt>
      <trkpt lat="58.251010989770293" lon="-5.089917993173003">
        <ele>78.969999999999999</ele>
        <time>2023-08-24T12:59:19Z</time>
      </trkpt>
      <trkpt lat="58.25104602612555" lon="-5.090186968445778">
        <ele>79.450000000000003</ele>
        <time>2023-08-24T12:59:20Z</time>
      </trkpt>
      <trkpt lat="58.251078967005014" lon="-5.090443035587668">
        <ele>80.409999999999997</ele>
        <time>2023-08-24T12:59:21Z</time>
      </trkpt>
      <trkpt lat="58.251108974218369" lon="-5.090674040839076">
        <ele>81.370000000000005</ele>
        <time>2023-08-24T12:59:22Z</time>
      </trkpt>
      <trkpt lat="58.251097993925214" lon="-5.090862968936563">
        <ele>82.329999999999998</ele>
        <time>2023-08-24T12:59:23Z</time>
      </trkpt>
      <trkpt lat="58.251059018075466" lon="-5.091020967811346">
        <ele>84.25</ele>
        <time>2023-08-24T12:59:24Z</time>
      </trkpt>
      <trkpt lat="58.250655010342598" lon="-5.092069040983915">
        <ele>94.349999999999994</ele>
        <time>2023-08-24T12:59:30Z</time>
      </trkpt>
      <trkpt lat="58.250224012881517" lon="-5.093067996203899">
        <ele>98.189999999999998</ele>
        <time>2023-08-24T12:59:39Z</time>
      </trkpt>
      <trkpt lat="58.250151006504893" lon="-5.093321967869997">
        <ele>96.75</ele>
        <time>2023-08-24T12:59:41Z</time>
      </trkpt>
      <trkpt lat="58.250140026211739" lon="-5.093488013371825">
        <ele>95.310000000000002</ele>
        <time>2023-08-24T12:59:42Z</time>
      </trkpt>
      <trkpt lat="58.250161986798048" lon="-5.093631008639932">
        <ele>94.349999999999994</ele>
        <time>2023-08-24T12:59:43Z</time>
      </trkpt>
      <trkpt lat="58.250198028981686" lon="-5.093883974477649">
        <ele>91.939999999999998</ele>
        <time>2023-08-24T12:59:45Z</time>
      </trkpt>
      <trkpt lat="58.250177996233106" lon="-5.094009032472968">
        <ele>90.5</ele>
        <time>2023-08-24T12:59:46Z</time>
      </trkpt>
      <trkpt lat="58.250156035646796" lon="-5.094137024134398">
        <ele>89.060000000000002</ele>
        <time>2023-08-24T12:59:47Z</time>
      </trkpt>
      <trkpt lat="58.250100966542959" lon="-5.094240037724376">
        <ele>87.620000000000005</ele>
        <time>2023-08-24T12:59:48Z</time>
      </trkpt>
      <trkpt lat="58.25003600679338" lon="-5.094363000243902">
        <ele>86.180000000000007</ele>
        <time>2023-08-24T12:59:49Z</time>
      </trkpt>
      <trkpt lat="58.249511970207095" lon="-5.095575023442507">
        <ele>68.870000000000005</ele>
        <time>2023-08-24T12:59:58Z</time>
      </trkpt>
      <trkpt lat="58.249508030712605" lon="-5.095748025923967">
        <ele>67.430000000000007</ele>
        <time>2023-08-24T12:59:59Z</time>
      </trkpt>
      <trkpt lat="58.249438041821122" lon="-5.096920989453793">
        <ele>56.859999999999999</ele>
        <time>2023-08-24T13:00:05Z</time>
      </trkpt>
      <trkpt lat="58.249415997415781" lon="-5.097101032733917">
        <ele>55.409999999999997</ele>
        <time>2023-08-24T13:00:06Z</time>
      </trkpt>
      <trkpt lat="58.249369980767369" lon="-5.097259031608701">
        <ele>53.969999999999999</ele>
        <time>2023-08-24T13:00:07Z</time>
      </trkpt>
      <trkpt lat="58.249239977449179" lon="-5.097534041851759">
        <ele>50.609999999999999</ele>
        <time>2023-08-24T13:00:09Z</time>
      </trkpt>
      <trkpt lat="58.249170994386077" lon="-5.097649963572621">
        <ele>49.649999999999999</ele>
        <time>2023-08-24T13:00:10Z</time>
      </trkpt>
      <trkpt lat="58.249104022979736" lon="-5.097741996869445">
        <ele>48.68</ele>
        <time>2023-08-24T13:00:11Z</time>
      </trkpt>
      <trkpt lat="58.24904702603817" lon="-5.097822966054082">
        <ele>47.719999999999999</ele>
        <time>2023-08-24T13:00:12Z</time>
      </trkpt>
      <trkpt lat="58.248954992741346" lon="-5.097842998802662">
        <ele>47.240000000000002</ele>
        <time>2023-08-24T13:00:13Z</time>
      </trkpt>
      <trkpt lat="58.248905958607793" lon="-5.097786001861095">
        <ele>46.759999999999998</ele>
        <time>2023-08-24T13:00:14Z</time>
      </trkpt>
      <trkpt lat="58.248844016343355" lon="-5.097712995484471">
        <ele>45.799999999999997</ele>
        <time>2023-08-24T13:00:15Z</time>
      </trkpt>
      <trkpt lat="58.248782996088266" lon="-5.097642000764608">
        <ele>45.32</ele>
        <time>2023-08-24T13:00:16Z</time>
      </trkpt>
      <trkpt lat="58.248739996924996" lon="-5.097591960802674">
        <ele>44.840000000000003</ele>
        <time>2023-08-24T13:00:17Z</time>
      </trkpt>
      <trkpt lat="58.2487259991467" lon="-5.097600007429719">
        <ele>44.840000000000003</ele>
        <time>2023-08-24T13:00:18Z</time>
      </trkpt>
      <trkpt lat="58.248680988326669" lon="-5.097626997157931">
        <ele>44.359999999999999</ele>
        <time>2023-08-24T13:00:19Z</time>
      </trkpt>
      <trkpt lat="58.248632960021496" lon="-5.097655998542905">
        <ele>43.880000000000003</ele>
        <time>2023-08-24T13:00:20Z</time>
      </trkpt>
      <trkpt lat="58.24861996807158" lon="-5.097734034061432">
        <ele>43.880000000000003</ele>
        <time>2023-08-24T13:00:21Z</time>
      </trkpt>
      <trkpt lat="58.248589960858226" lon="-5.097913993522525">
        <ele>44.840000000000003</ele>
        <time>2023-08-24T13:00:22Z</time>
      </trkpt>
      <trkpt lat="58.248580992221832" lon="-5.098092025145888">
        <ele>45.32</ele>
        <time>2023-08-24T13:00:23Z</time>
      </trkpt>
      <trkpt lat="58.248571017757058" lon="-5.098276007920504">
        <ele>46.759999999999998</ele>
        <time>2023-08-24T13:00:24Z</time>
      </trkpt>
      <trkpt lat="58.248560959473252" lon="-5.098470970988274">
        <ele>47.719999999999999</ele>
        <time>2023-08-24T13:00:25Z</time>
      </trkpt>
      <trkpt lat="58.248550985008478" lon="-5.098670963197947">
        <ele>48.68</ele>
        <time>2023-08-24T13:00:26Z</time>
      </trkpt>
      <trkpt lat="58.248500023037195" lon="-5.098877996206284">
        <ele>50.130000000000003</ele>
        <time>2023-08-24T13:00:27Z</time>
      </trkpt>
      <trkpt lat="58.248443026095629" lon="-5.099034989252687">
        <ele>51.57</ele>
        <time>2023-08-24T13:00:28Z</time>
      </trkpt>
      <trkpt lat="58.248388962820172" lon="-5.099181002005935">
        <ele>53.009999999999998</ele>
        <time>2023-08-24T13:00:29Z</time>
      </trkpt>
      <trkpt lat="58.248341018334031" lon="-5.099313016980887">
        <ele>54.93</ele>
        <time>2023-08-24T13:00:30Z</time>
      </trkpt>
      <trkpt lat="58.248271029442549" lon="-5.099414018914104">
        <ele>56.859999999999999</ele>
        <time>2023-08-24T13:00:31Z</time>
      </trkpt>
      <trkpt lat="58.248209003359079" lon="-5.099445031955838">
        <ele>58.299999999999997</ele>
        <time>2023-08-24T13:00:32Z</time>
      </trkpt>
      <trkpt lat="58.248116970062256" lon="-5.099393986165524">
        <ele>60.219999999999999</ele>
        <time>2023-08-24T13:00:33Z</time>
      </trkpt>
      <trkpt lat="58.248051004484296" lon="-5.099268006160855">
        <ele>62.140000000000001</ele>
        <time>2023-08-24T13:00:34Z</time>
      </trkpt>
      <trkpt lat="58.247989984229207" lon="-5.099129034206271">
        <ele>63.579999999999998</ele>
        <time>2023-08-24T13:00:35Z</time>
      </trkpt>
      <trkpt lat="58.247921001166105" lon="-5.098971035331488">
        <ele>65.510000000000005</ele>
        <time>2023-08-24T13:00:36Z</time>
      </trkpt>
      <trkpt lat="58.247847994789481" lon="-5.098801972344518">
        <ele>67.430000000000007</ele>
        <time>2023-08-24T13:00:37Z</time>
      </trkpt>
      <trkpt lat="58.247601985931396" lon="-5.098308026790619">
        <ele>72.239999999999995</ele>
        <time>2023-08-24T13:00:40Z</time>
      </trkpt>
      <trkpt lat="58.247493021190166" lon="-5.098178023472428">
        <ele>74.159999999999997</ele>
        <time>2023-08-24T13:00:41Z</time>
      </trkpt>
      <trkpt lat="58.247385984286666" lon="-5.098048020154238">
        <ele>75.599999999999994</ele>
        <time>2023-08-24T13:00:42Z</time>
      </trkpt>
      <trkpt lat="58.247278025373816" lon="-5.097986999899149">
        <ele>77.519999999999996</ele>
        <time>2023-08-24T13:00:43Z</time>
      </trkpt>
      <trkpt lat="58.247164031490684" lon="-5.097965961322188">
        <ele>79.450000000000003</ele>
        <time>2023-08-24T13:00:44Z</time>
      </trkpt>
      <trkpt lat="58.24704903177917" lon="-5.097944000735879">
        <ele>81.370000000000005</ele>
        <time>2023-08-24T13:00:45Z</time>
      </trkpt>
      <trkpt lat="58.24694300070405" lon="-5.097942994907498">
        <ele>83.290000000000006</ele>
        <time>2023-08-24T13:00:46Z</time>
      </trkpt>
      <trkpt lat="58.246845016255975" lon="-5.097954981029034">
        <ele>85.209999999999994</ele>
        <time>2023-08-24T13:00:47Z</time>
      </trkpt>
      <trkpt lat="58.246767986565828" lon="-5.0980119779706">
        <ele>87.140000000000001</ele>
        <time>2023-08-24T13:00:48Z</time>
      </trkpt>
      <trkpt lat="58.246692968532443" lon="-5.098078027367592">
        <ele>89.060000000000002</ele>
        <time>2023-08-24T13:00:49Z</time>
      </trkpt>
      <trkpt lat="58.246623985469341" lon="-5.09822404012084">
        <ele>90.5</ele>
        <time>2023-08-24T13:00:50Z</time>
      </trkpt>
      <trkpt lat="58.246600013226271" lon="-5.098402993753552">
        <ele>91.939999999999998</ele>
        <time>2023-08-24T13:00:51Z</time>
      </trkpt>
      <trkpt lat="58.246575035154819" lon="-5.098626036196947">
        <ele>93.390000000000001</ele>
        <time>2023-08-24T13:00:52Z</time>
      </trkpt>
      <trkpt lat="58.246596995741129" lon="-5.098857041448355">
        <ele>94.829999999999998</ele>
        <time>2023-08-24T13:00:53Z</time>
      </trkpt>
      <trkpt lat="58.24662197381258" lon="-5.099111013114452">
        <ele>96.75</ele>
        <time>2023-08-24T13:00:54Z</time>
      </trkpt>
      <trkpt lat="58.246787013486028" lon="-5.100958971306682">
        <ele>107.81</ele>
        <time>2023-08-24T13:01:01Z</time>
      </trkpt>
      <trkpt lat="58.246787013486028" lon="-5.101156029850245">
        <ele>108.77</ele>
        <time>2023-08-24T13:01:02Z</time>
      </trkpt>
      <trkpt lat="58.246787013486028" lon="-5.101303970441222">
        <ele>110.20999999999999</ele>
        <time>2023-08-24T13:01:03Z</time>
      </trkpt>
      <trkpt lat="58.246725993230939" lon="-5.101505974307656">
        <ele>111.17</ele>
        <time>2023-08-24T13:01:04Z</time>
      </trkpt>
      <trkpt lat="58.246674025431275" lon="-5.101675959303975">
        <ele>112.61</ele>
        <time>2023-08-24T13:01:05Z</time>
      </trkpt>
      <trkpt lat="58.246636977419257" lon="-5.101797999814153">
        <ele>113.56999999999999</ele>
        <time>2023-08-24T13:01:06Z</time>
      </trkpt>
      <trkpt lat="58.246490964666009" lon="-5.10202799923718">
        <ele>115.5</ele>
        <time>2023-08-24T13:01:08Z</time>
      </trkpt>
      <trkpt lat="58.246419969946146" lon="-5.102141993120313">
        <ele>115.98</ele>
        <time>2023-08-24T13:01:09Z</time>
      </trkpt>
      <trkpt lat="58.246339000761509" lon="-5.102218016982079">
        <ele>115.98</ele>
        <time>2023-08-24T13:01:10Z</time>
      </trkpt>
      <trkpt lat="58.24623104184866" lon="-5.102251963689923">
        <ele>115.98</ele>
        <time>2023-08-24T13:01:11Z</time>
      </trkpt>
      <trkpt lat="58.246133979409933" lon="-5.102281970903277">
        <ele>115.5</ele>
        <time>2023-08-24T13:01:12Z</time>
      </trkpt>
      <trkpt lat="58.246046975255013" lon="-5.10230896063149">
        <ele>115.5</ele>
        <time>2023-08-24T13:01:13Z</time>
      </trkpt>
      <trkpt lat="58.245981009677052" lon="-5.10232899338007">
        <ele>114.53</ele>
        <time>2023-08-24T13:01:14Z</time>
      </trkpt>
      <trkpt lat="58.245914038270712" lon="-5.10235003195703">
        <ele>113.09</ele>
        <time>2023-08-24T13:01:20Z</time>
      </trkpt>
      <trkpt lat="58.245891993865371" lon="-5.102356988936663">
        <ele>112.13</ele>
        <time>2023-08-24T13:01:22Z</time>
      </trkpt>
      <trkpt lat="58.245813036337495" lon="-5.102380961179733">
        <ele>111.17</ele>
        <time>2023-08-24T13:01:24Z</time>
      </trkpt>
      <trkpt lat="58.245743969455361" lon="-5.102403005585074">
        <ele>110.69</ele>
        <time>2023-08-24T13:01:25Z</time>
      </trkpt>
      <trkpt lat="58.245657971128821" lon="-5.102429995313287">
        <ele>110.20999999999999</ele>
        <time>2023-08-24T13:01:26Z</time>
      </trkpt>
      <trkpt lat="58.245560992509127" lon="-5.102460002526641">
        <ele>109.73</ele>
        <time>2023-08-24T13:01:27Z</time>
      </trkpt>
      <trkpt lat="58.245413973927498" lon="-5.102506019175053">
        <ele>109.25</ele>
        <time>2023-08-24T13:01:28Z</time>
      </trkpt>
      <trkpt lat="58.244991023093462" lon="-5.102949002757669">
        <ele>107.31999999999999</ele>
        <time>2023-08-24T13:01:32Z</time>
      </trkpt>
      <trkpt lat="58.244952969253063" lon="-5.103111024945974">
        <ele>106.84</ele>
        <time>2023-08-24T13:01:33Z</time>
      </trkpt>
      <trkpt lat="58.244935031980276" lon="-5.103298025205731">
        <ele>106.36</ele>
        <time>2023-08-24T13:01:34Z</time>
      </trkpt>
      <trkpt lat="58.244919022545218" lon="-5.103520983830094">
        <ele>105.40000000000001</ele>
        <time>2023-08-24T13:01:35Z</time>
      </trkpt>
      <trkpt lat="58.244911981746554" lon="-5.10376900434494">
        <ele>104.44</ele>
        <time>2023-08-24T13:01:36Z</time>
      </trkpt>
      <trkpt lat="58.244778038933873" lon="-5.105691980570555">
        <ele>96.75</ele>
        <time>2023-08-24T13:01:44Z</time>
      </trkpt>
      <trkpt lat="58.244419964030385" lon="-5.107712019234896">
        <ele>87.140000000000001</ele>
        <time>2023-08-24T13:01:51Z</time>
      </trkpt>
      <trkpt lat="58.244404960423708" lon="-5.107989041134715">
        <ele>84.25</ele>
        <time>2023-08-24T13:01:53Z</time>
      </trkpt>
      <trkpt lat="58.244404960423708" lon="-5.108703011646867">
        <ele>80.409999999999997</ele>
        <time>2023-08-24T13:01:55Z</time>
      </trkpt>
      <trkpt lat="58.244380988180637" lon="-5.10888397693634">
        <ele>78.480000000000004</ele>
        <time>2023-08-24T13:01:56Z</time>
      </trkpt>
      <trkpt lat="58.244333965703845" lon="-5.109056979417801">
        <ele>77.040000000000006</ele>
        <time>2023-08-24T13:01:57Z</time>
      </trkpt>
      <trkpt lat="58.244212009012699" lon="-5.109582021832466">
        <ele>71.760000000000005</ele>
        <time>2023-08-24T13:02:01Z</time>
      </trkpt>
      <trkpt lat="58.244288032874465" lon="-5.110156014561653">
        <ele>70.310000000000002</ele>
        <time>2023-08-24T13:02:03Z</time>
      </trkpt>
      <trkpt lat="58.244333965703845" lon="-5.110391965135932">
        <ele>69.829999999999998</ele>
        <time>2023-08-24T13:02:04Z</time>
      </trkpt>
      <trkpt lat="58.24449498206377" lon="-5.110994037240744">
        <ele>68.390000000000001</ele>
        <time>2023-08-24T13:02:08Z</time>
      </trkpt>
      <trkpt lat="58.24457704089582" lon="-5.111325960606337">
        <ele>68.390000000000001</ele>
        <time>2023-08-24T13:02:09Z</time>
      </trkpt>
      <trkpt lat="58.24457704089582" lon="-5.111463004723191">
        <ele>67.909999999999997</ele>
        <time>2023-08-24T13:02:10Z</time>
      </trkpt>
      <trkpt lat="58.244548961520195" lon="-5.111835999414325">
        <ele>68.390000000000001</ele>
        <time>2023-08-24T13:02:13Z</time>
      </trkpt>
      <trkpt lat="58.244522977620363" lon="-5.111956028267741">
        <ele>68.390000000000001</ele>
        <time>2023-08-24T13:02:14Z</time>
      </trkpt>
      <trkpt lat="58.24449498206377" lon="-5.112078990787268">
        <ele>68.870000000000005</ele>
        <time>2023-08-24T13:02:15Z</time>
      </trkpt>
      <trkpt lat="58.244455000385642" lon="-5.11216901242733">
        <ele>69.349999999999994</ele>
        <time>2023-08-24T13:02:16Z</time>
      </trkpt>
      <trkpt lat="58.24440898373723" lon="-5.112261967733502">
        <ele>69.829999999999998</ele>
        <time>2023-08-24T13:02:17Z</time>
      </trkpt>
      <trkpt lat="58.244347963482141" lon="-5.112315025180578">
        <ele>70.310000000000002</ele>
        <time>2023-08-24T13:02:18Z</time>
      </trkpt>
      <trkpt lat="58.244276968762279" lon="-5.112321982160211">
        <ele>70.790000000000006</ele>
        <time>2023-08-24T13:02:19Z</time>
      </trkpt>
      <trkpt lat="58.244203040376306" lon="-5.112328017130494">
        <ele>71.760000000000005</ele>
        <time>2023-08-24T13:02:20Z</time>
      </trkpt>
      <trkpt lat="58.244097009301186" lon="-5.112364981323481">
        <ele>74.159999999999997</ele>
        <time>2023-08-24T13:02:22Z</time>
      </trkpt>
      <trkpt lat="58.244067002087831" lon="-5.11238400824368">
        <ele>74.640000000000001</ele>
        <time>2023-08-24T13:02:23Z</time>
      </trkpt>
      <trkpt lat="58.244067002087831" lon="-5.11238400824368">
        <ele>77.519999999999996</ele>
        <time>2023-08-24T13:02:31Z</time>
      </trkpt>
      <trkpt lat="58.244034983217716" lon="-5.11240404099226">
        <ele>78.480000000000004</ele>
        <time>2023-08-24T13:02:42Z</time>
      </trkpt>
      <trkpt lat="58.243975974619389" lon="-5.112441005185247">
        <ele>79.450000000000003</ele>
        <time>2023-08-24T13:02:43Z</time>
      </trkpt>
      <trkpt lat="58.243966000154614" lon="-5.112461037933826">
        <ele>80.409999999999997</ele>
        <time>2023-08-24T13:02:44Z</time>
      </trkpt>
      <trkpt lat="58.243514969944954" lon="-5.113334013149142">
        <ele>83.290000000000006</ele>
        <time>2023-08-24T13:02:50Z</time>
      </trkpt>
      <trkpt lat="58.24313904158771" lon="-5.114158038049936">
        <ele>84.730000000000004</ele>
        <time>2023-08-24T13:02:54Z</time>
      </trkpt>
      <trkpt lat="58.243106016889215" lon="-5.114390971139073">
        <ele>85.209999999999994</ele>
        <time>2023-08-24T13:02:55Z</time>
      </trkpt>
      <trkpt lat="58.24307500384748" lon="-5.114608984440565">
        <ele>85.689999999999998</ele>
        <time>2023-08-24T13:02:56Z</time>
      </trkpt>
      <trkpt lat="58.243049019947648" lon="-5.1147919613868">
        <ele>87.140000000000001</ele>
        <time>2023-08-24T13:02:57Z</time>
      </trkpt>
      <trkpt lat="58.24298900552094" lon="-5.11496203020215">
        <ele>88.099999999999994</ele>
        <time>2023-08-24T13:02:58Z</time>
      </trkpt>
      <trkpt lat="58.24290401302278" lon="-5.115069989115">
        <ele>89.540000000000006</ele>
        <time>2023-08-24T13:02:59Z</time>
      </trkpt>
      <trkpt lat="58.242811979725957" lon="-5.115185994654894">
        <ele>91.459999999999994</ele>
        <time>2023-08-24T13:03:00Z</time>
      </trkpt>
      <trkpt lat="58.24271097779274" lon="-5.115313986316323">
        <ele>92.420000000000002</ele>
        <time>2023-08-24T13:03:01Z</time>
      </trkpt>
      <trkpt lat="58.242608970031142" lon="-5.115459999069572">
        <ele>94.349999999999994</ele>
        <time>2023-08-24T13:03:02Z</time>
      </trkpt>
      <trkpt lat="58.242008993402123" lon="-5.116923982277513">
        <ele>103</ele>
        <time>2023-08-24T13:03:08Z</time>
      </trkpt>
      <trkpt lat="58.241935987025499" lon="-5.117183988913894">
        <ele>103.95999999999999</ele>
        <time>2023-08-24T13:03:09Z</time>
      </trkpt>
      <trkpt lat="58.241864992305636" lon="-5.117437038570643">
        <ele>105.40000000000001</ele>
        <time>2023-08-24T13:03:10Z</time>
      </trkpt>
      <trkpt lat="58.241839008405805" lon="-5.117723029106855">
        <ele>106.36</ele>
        <time>2023-08-24T13:03:11Z</time>
      </trkpt>
      <trkpt lat="58.241822998970747" lon="-5.118041038513184">
        <ele>107.81</ele>
        <time>2023-08-24T13:03:12Z</time>
      </trkpt>
      <trkpt lat="58.241814030334353" lon="-5.118370028212667">
        <ele>108.77</ele>
        <time>2023-08-24T13:03:13Z</time>
      </trkpt>
      <trkpt lat="58.241835990920663" lon="-5.118712009862065">
        <ele>110.20999999999999</ele>
        <time>2023-08-24T13:03:14Z</time>
      </trkpt>
      <trkpt lat="58.241859041154385" lon="-5.119062038138509">
        <ele>111.65000000000001</ele>
        <time>2023-08-24T13:03:15Z</time>
      </trkpt>
      <trkpt lat="58.241879995912313" lon="-5.121563030406833">
        <ele>125.11</ele>
        <time>2023-08-24T13:03:23Z</time>
      </trkpt>
      <trkpt lat="58.241844037547708" lon="-5.12269601225853">
        <ele>129.91999999999999</ele>
        <time>2023-08-24T13:03:27Z</time>
      </trkpt>
      <trkpt lat="58.241877984255552" lon="-5.122963981702924">
        <ele>130.88</ele>
        <time>2023-08-24T13:03:28Z</time>
      </trkpt>
      <trkpt lat="58.241937998682261" lon="-5.123762022703886">
        <ele>134.72</ele>
        <time>2023-08-24T13:03:32Z</time>
      </trkpt>
      <trkpt lat="58.241937998682261" lon="-5.123837040737271">
        <ele>135.68000000000001</ele>
        <time>2023-08-24T13:03:33Z</time>
      </trkpt>
      <trkpt lat="58.241937998682261" lon="-5.123855983838439">
        <ele>137.61000000000001</ele>
        <time>2023-08-24T13:03:41Z</time>
      </trkpt>
      <trkpt lat="58.241937998682261" lon="-5.123855983838439">
        <ele>139.05000000000001</ele>
        <time>2023-08-24T13:03:54Z</time>
      </trkpt>
      <trkpt lat="58.241932969540358" lon="-5.123875010758638">
        <ele>140.49000000000001</ele>
        <time>2023-08-24T13:03:55Z</time>
      </trkpt>
      <trkpt lat="58.241937998682261" lon="-5.123855983838439">
        <ele>140.49000000000001</ele>
        <time>2023-08-24T13:03:56Z</time>
      </trkpt>
      <trkpt lat="58.241937998682261" lon="-5.123855983838439">
        <ele>140.97</ele>
        <time>2023-08-24T13:04:03Z</time>
      </trkpt>
      <trkpt lat="58.241937998682261" lon="-5.123855983838439">
        <ele>140.97</ele>
        <time>2023-08-24T13:04:15Z</time>
      </trkpt>
      <trkpt lat="58.241937998682261" lon="-5.123855983838439">
        <ele>140.97</ele>
        <time>2023-08-24T13:05:02Z</time>
      </trkpt>
      <trkpt lat="58.241937998682261" lon="-5.123855983838439">
        <ele>140.97</ele>
        <time>2023-08-24T13:05:52Z</time>
      </trkpt>
      <trkpt lat="58.241937998682261" lon="-5.123855983838439">
        <ele>140.97</ele>
        <time>2023-08-24T13:06:45Z</time>
      </trkpt>
      <trkpt lat="58.241937998682261" lon="-5.123855983838439">
        <ele>140.97</ele>
        <time>2023-08-24T13:07:39Z</time>
      </trkpt>
      <trkpt lat="58.241937998682261" lon="-5.123855983838439">
        <ele>140.97</ele>
        <time>2023-08-24T13:08:38Z</time>
      </trkpt>
      <trkpt lat="58.241937998682261" lon="-5.123855983838439">
        <ele>140.97</ele>
        <time>2023-08-24T13:09:26Z</time>
      </trkpt>
      <trkpt lat="58.241894999518991" lon="-5.124027980491519">
        <ele>140.97</ele>
        <time>2023-08-24T13:10:15Z</time>
      </trkpt>
      <trkpt lat="58.241865998134017" lon="-5.124089000746608">
        <ele>140.97</ele>
        <time>2023-08-24T13:10:16Z</time>
      </trkpt>
      <trkpt lat="58.241827022284269" lon="-5.124171981588006">
        <ele>141.44999999999999</ele>
        <time>2023-08-24T13:10:17Z</time>
      </trkpt>
      <trkpt lat="58.241245988756418" lon="-5.125456005334854">
        <ele>142.41</ele>
        <time>2023-08-24T13:10:26Z</time>
      </trkpt>
      <trkpt lat="58.240369996055961" lon="-5.127580985426903">
        <ele>140.49000000000001</ele>
        <time>2023-08-24T13:10:37Z</time>
      </trkpt>
      <trkpt lat="58.240225994959474" lon="-5.127912992611527">
        <ele>140.49000000000001</ele>
        <time>2023-08-24T13:10:39Z</time>
      </trkpt>
      <trkpt lat="58.240141002461314" lon="-5.128027992323041">
        <ele>139.53</ele>
        <time>2023-08-24T13:10:40Z</time>
      </trkpt>
      <trkpt lat="58.239977974444628" lon="-5.128248017281294">
        <ele>138.56999999999999</ele>
        <time>2023-08-24T13:10:42Z</time>
      </trkpt>
      <trkpt lat="58.239900022745132" lon="-5.128353964537382">
        <ele>138.09</ele>
        <time>2023-08-24T13:10:43Z</time>
      </trkpt>
      <trkpt lat="58.239855011925101" lon="-5.128524033352733">
        <ele>137.13</ele>
        <time>2023-08-24T13:10:44Z</time>
      </trkpt>
      <trkpt lat="58.239841014146805" lon="-5.128726959228516">
        <ele>136.63999999999999</ele>
        <time>2023-08-24T13:10:45Z</time>
      </trkpt>
      <trkpt lat="58.239855011925101" lon="-5.128946984186769">
        <ele>136.16</ele>
        <time>2023-08-24T13:10:46Z</time>
      </trkpt>
      <trkpt lat="58.239870015531778" lon="-5.129176983609796">
        <ele>136.16</ele>
        <time>2023-08-24T13:10:47Z</time>
      </trkpt>
      <trkpt lat="58.23987202718854" lon="-5.129405977204442">
        <ele>136.16</ele>
        <time>2023-08-24T13:10:48Z</time>
      </trkpt>
      <trkpt lat="58.239858029410243" lon="-5.129643017426133">
        <ele>136.16</ele>
        <time>2023-08-24T13:10:49Z</time>
      </trkpt>
      <trkpt lat="58.239844031631947" lon="-5.129880979657173">
        <ele>136.16</ele>
        <time>2023-08-24T13:10:50Z</time>
      </trkpt>
      <trkpt lat="58.239817041903734" lon="-5.13010703958571">
        <ele>136.16</ele>
        <time>2023-08-24T13:10:51Z</time>
      </trkpt>
      <trkpt lat="58.239761972799897" lon="-5.130327986553311">
        <ele>136.16</ele>
        <time>2023-08-24T13:10:52Z</time>
      </trkpt>
      <trkpt lat="58.239592993631959" lon="-5.131003987044096">
        <ele>135.19999999999999</ele>
        <time>2023-08-24T13:10:55Z</time>
      </trkpt>
      <trkpt lat="58.239534990862012" lon="-5.131238009780645">
        <ele>135.19999999999999</ele>
        <time>2023-08-24T13:10:56Z</time>
      </trkpt>
      <trkpt lat="58.239461984485388" lon="-5.131383016705513">
        <ele>134.72</ele>
        <time>2023-08-24T13:10:57Z</time>
      </trkpt>
      <trkpt lat="58.239368023350835" lon="-5.131555013358593">
        <ele>134.72</ele>
        <time>2023-08-24T13:10:58Z</time>
      </trkpt>
      <trkpt lat="58.239262998104095" lon="-5.131722986698151">
        <ele>134.24000000000001</ele>
        <time>2023-08-24T13:10:59Z</time>
      </trkpt>
      <trkpt lat="58.238749019801617" lon="-5.132534019649029">
        <ele>132.31999999999999</ele>
        <time>2023-08-24T13:11:04Z</time>
      </trkpt>
      <trkpt lat="58.238654974848032" lon="-5.132595961913467">
        <ele>132.31999999999999</ele>
        <time>2023-08-24T13:11:05Z</time>
      </trkpt>
      <trkpt lat="58.238555984571576" lon="-5.132580036297441">
        <ele>132.31999999999999</ele>
        <time>2023-08-24T13:11:06Z</time>
      </trkpt>
      <trkpt lat="58.23847996070981" lon="-5.132550029084086">
        <ele>131.84</ele>
        <time>2023-08-24T13:11:07Z</time>
      </trkpt>
      <trkpt lat="58.238444002345204" lon="-5.132535025477409">
        <ele>131.84</ele>
        <time>2023-08-24T13:11:08Z</time>
      </trkpt>
      <trkpt lat="58.238345012068748" lon="-5.13249596580863">
        <ele>130.88</ele>
        <time>2023-08-24T13:11:16Z</time>
      </trkpt>
      <trkpt lat="58.238158011808991" lon="-5.132363028824329">
        <ele>130.40000000000001</ele>
        <time>2023-08-24T13:11:22Z</time>
      </trkpt>
      <trkpt lat="58.237843019887805" lon="-5.132118025794625">
        <ele>130.40000000000001</ele>
        <time>2023-08-24T13:11:26Z</time>
      </trkpt>
      <trkpt lat="58.237731959670782" lon="-5.132032027468085">
        <ele>130.40000000000001</ele>
        <time>2023-08-24T13:11:27Z</time>
      </trkpt>
      <trkpt lat="58.237631963565946" lon="-5.132051976397634">
        <ele>130.40000000000001</ele>
        <time>2023-08-24T13:11:28Z</time>
      </trkpt>
      <trkpt lat="58.237538002431393" lon="-5.13214903883636">
        <ele>130.88</ele>
        <time>2023-08-24T13:11:29Z</time>
      </trkpt>
      <trkpt lat="58.237442029640079" lon="-5.132255991920829">
        <ele>131.36000000000001</ele>
        <time>2023-08-24T13:11:30Z</time>
      </trkpt>
      <trkpt lat="58.237380003556609" lon="-5.132438968867064">
        <ele>131.84</ele>
        <time>2023-08-24T13:11:31Z</time>
      </trkpt>
      <trkpt lat="58.237302973866463" lon="-5.132696963846684">
        <ele>132.31999999999999</ele>
        <time>2023-08-24T13:11:32Z</time>
      </trkpt>
      <trkpt lat="58.237290987744927" lon="-5.132913971319795">
        <ele>132.80000000000001</ele>
        <time>2023-08-24T13:11:33Z</time>
      </trkpt>
      <trkpt lat="58.237286964431405" lon="-5.133211025968194">
        <ele>133.75999999999999</ele>
        <time>2023-08-24T13:11:34Z</time>
      </trkpt>
      <trkpt lat="58.237301968038082" lon="-5.133523000404239">
        <ele>134.24000000000001</ele>
        <time>2023-08-24T13:11:35Z</time>
      </trkpt>
      <trkpt lat="58.237315965816379" lon="-5.133828017860651">
        <ele>134.72</ele>
        <time>2023-08-24T13:11:36Z</time>
      </trkpt>
      <trkpt lat="58.237329041585326" lon="-5.134096993133426">
        <ele>135.19999999999999</ele>
        <time>2023-08-24T13:11:37Z</time>
      </trkpt>
      <trkpt lat="58.2373390160501" lon="-5.134311988949776">
        <ele>135.19999999999999</ele>
        <time>2023-08-24T13:11:38Z</time>
      </trkpt>
      <trkpt lat="58.237327029928565" lon="-5.134499995037913">
        <ele>135.68000000000001</ele>
        <time>2023-08-24T13:11:39Z</time>
      </trkpt>
      <trkpt lat="58.237276989966631" lon="-5.134617006406188">
        <ele>135.68000000000001</ele>
        <time>2023-08-24T13:11:40Z</time>
      </trkpt>
      <trkpt lat="58.237219993025064" lon="-5.13475296087563">
        <ele>136.16</ele>
        <time>2023-08-24T13:11:41Z</time>
      </trkpt>
      <trkpt lat="58.237152015790343" lon="-5.134910959750414">
        <ele>136.16</ele>
        <time>2023-08-24T13:11:42Z</time>
      </trkpt>
      <trkpt lat="58.236815985292196" lon="-5.135647980496287">
        <ele>136.16</ele>
        <time>2023-08-24T13:11:48Z</time>
      </trkpt>
      <trkpt lat="58.23648096062243" lon="-5.136260027065873">
        <ele>134.24000000000001</ele>
        <time>2023-08-24T13:11:52Z</time>
      </trkpt>
      <trkpt lat="58.236413989216089" lon="-5.136436969041824">
        <ele>133.28</ele>
        <time>2023-08-24T13:11:53Z</time>
      </trkpt>
      <trkpt lat="58.236385993659496" lon="-5.136654982343316">
        <ele>132.80000000000001</ele>
        <time>2023-08-24T13:11:54Z</time>
      </trkpt>
      <trkpt lat="58.236355986446142" lon="-5.136889005079866">
        <ele>131.84</ele>
        <time>2023-08-24T13:11:55Z</time>
      </trkpt>
      <trkpt lat="58.236326985061169" lon="-5.137117998674512">
        <ele>130.88</ele>
        <time>2023-08-24T13:11:56Z</time>
      </trkpt>
      <trkpt lat="58.236299995332956" lon="-5.137331988662481">
        <ele>129.43000000000001</ele>
        <time>2023-08-24T13:11:57Z</time>
      </trkpt>
      <trkpt lat="58.236255990341306" lon="-5.137502979487181">
        <ele>128.47</ele>
        <time>2023-08-24T13:11:58Z</time>
      </trkpt>
      <trkpt lat="58.236192036420107" lon="-5.137602975592017">
        <ele>127.03</ele>
        <time>2023-08-24T13:11:59Z</time>
      </trkpt>
      <trkpt lat="58.236098997294903" lon="-5.137638011947274">
        <ele>125.59</ele>
        <time>2023-08-24T13:12:00Z</time>
      </trkpt>
      <trkpt lat="58.236037977039814" lon="-5.137617979198694">
        <ele>124.63</ele>
        <time>2023-08-24T13:12:01Z</time>
      </trkpt>
      <trkpt lat="58.235966982319951" lon="-5.137494010850787">
        <ele>123.19</ele>
        <time>2023-08-24T13:12:02Z</time>
      </trkpt>
      <trkpt lat="58.235882995650172" lon="-5.137345986440778">
        <ele>122.22</ele>
        <time>2023-08-24T13:12:03Z</time>
      </trkpt>
      <trkpt lat="58.235791968181729" lon="-5.137187987565994">
        <ele>121.26000000000001</ele>
        <time>2023-08-24T13:12:04Z</time>
      </trkpt>
      <trkpt lat="58.235700018703938" lon="-5.137025965377688">
        <ele>120.3</ele>
        <time>2023-08-24T13:12:05Z</time>
      </trkpt>
      <trkpt lat="58.235591975972056" lon="-5.136868972331286">
        <ele>119.81999999999999</ele>
        <time>2023-08-24T13:12:06Z</time>
      </trkpt>
      <trkpt lat="58.235473036766052" lon="-5.136762019246817">
        <ele>119.34</ele>
        <time>2023-08-24T13:12:07Z</time>
      </trkpt>
      <trkpt lat="58.235347978770733" lon="-5.136699993163347">
        <ele>118.86</ele>
        <time>2023-08-24T13:12:08Z</time>
      </trkpt>
      <trkpt lat="58.235229039564729" lon="-5.136703010648489">
        <ele>118.38</ele>
        <time>2023-08-24T13:12:09Z</time>
      </trkpt>
      <trkpt lat="58.235110016539693" lon="-5.136751960963011">
        <ele>117.90000000000001</ele>
        <time>2023-08-24T13:12:10Z</time>
      </trkpt>
      <trkpt lat="58.234980013221502" lon="-5.136807030066848">
        <ele>117.90000000000001</ele>
        <time>2023-08-24T13:12:11Z</time>
      </trkpt>
      <trkpt lat="58.234840035438538" lon="-5.136865032836795">
        <ele>117.42</ele>
        <time>2023-08-24T13:12:12Z</time>
      </trkpt>
      <trkpt lat="58.234276017174125" lon="-5.137053038924933">
        <ele>115.5</ele>
        <time>2023-08-24T13:12:16Z</time>
      </trkpt>
      <trkpt lat="58.234144002199173" lon="-5.137010039761663">
        <ele>115.01000000000001</ele>
        <time>2023-08-24T13:12:17Z</time>
      </trkpt>
      <trkpt lat="58.234010981395841" lon="-5.136967962607741">
        <ele>115.01000000000001</ele>
        <time>2023-08-24T13:12:18Z</time>
      </trkpt>
      <trkpt lat="58.233768995851278" lon="-5.136889005079866">
        <ele>114.53</ele>
        <time>2023-08-24T13:12:20Z</time>
      </trkpt>
      <trkpt lat="58.233676962554455" lon="-5.136858997866511">
        <ele>114.05</ele>
        <time>2023-08-24T13:12:21Z</time>
      </trkpt>
      <trkpt lat="58.233576966449618" lon="-5.136940972879529">
        <ele>114.05</ele>
        <time>2023-08-24T13:12:22Z</time>
      </trkpt>
      <trkpt lat="58.233484011143446" lon="-5.137018002569675">
        <ele>114.05</ele>
        <time>2023-08-24T13:12:23Z</time>
      </trkpt>
      <trkpt lat="58.233379991725087" lon="-5.137104000896215">
        <ele>114.05</ele>
        <time>2023-08-24T13:12:24Z</time>
      </trkpt>
      <trkpt lat="58.233163990080357" lon="-5.137282032519579">
        <ele>113.09</ele>
        <time>2023-08-24T13:12:26Z</time>
      </trkpt>
      <trkpt lat="58.232985958456993" lon="-5.137427961453795">
        <ele>111.65000000000001</ele>
        <time>2023-08-24T13:12:28Z</time>
      </trkpt>
      <trkpt lat="58.232925022020936" lon="-5.13756399974227">
        <ele>110.69</ele>
        <time>2023-08-24T13:12:29Z</time>
      </trkpt>
      <trkpt lat="58.232886968180537" lon="-5.137743959203363">
        <ele>109.73</ele>
        <time>2023-08-24T13:12:30Z</time>
      </trkpt>
      <trkpt lat="58.232843969017267" lon="-5.137947974726558">
        <ele>108.29000000000001</ele>
        <time>2023-08-24T13:12:31Z</time>
      </trkpt>
      <trkpt lat="58.232797030359507" lon="-5.138167999684811">
        <ele>107.31999999999999</ele>
        <time>2023-08-24T13:12:32Z</time>
      </trkpt>
      <trkpt lat="58.23272000066936" lon="-5.138363968580961">
        <ele>106.36</ele>
        <time>2023-08-24T13:12:33Z</time>
      </trkpt>
      <trkpt lat="58.232640037313104" lon="-5.138564966619015">
        <ele>104.92</ele>
        <time>2023-08-24T13:12:34Z</time>
      </trkpt>
      <trkpt lat="58.232426969334483" lon="-5.139124961569905">
        <ele>101.56</ele>
        <time>2023-08-24T13:12:37Z</time>
      </trkpt>
      <trkpt lat="58.23239604011178" lon="-5.139319002628326">
        <ele>100.59999999999999</ele>
        <time>2023-08-24T13:12:38Z</time>
      </trkpt>
      <trkpt lat="58.232367960736156" lon="-5.139498962089419">
        <ele>99.629999999999995</ele>
        <time>2023-08-24T13:12:39Z</time>
      </trkpt>
      <trkpt lat="58.232357986271381" lon="-5.139726027846336">
        <ele>98.670000000000002</ele>
        <time>2023-08-24T13:12:40Z</time>
      </trkpt>
      <trkpt lat="58.232348011806607" lon="-5.139939012005925">
        <ele>97.709999999999994</ele>
        <time>2023-08-24T13:12:41Z</time>
      </trkpt>
      <trkpt lat="58.232338959351182" lon="-5.140156019479036">
        <ele>96.269999999999996</ele>
        <time>2023-08-24T13:12:42Z</time>
      </trkpt>
      <trkpt lat="58.232328984886408" lon="-5.14037998393178">
        <ele>95.790000000000006</ele>
        <time>2023-08-24T13:12:43Z</time>
      </trkpt>
      <trkpt lat="58.232343988493085" lon="-5.141585972160101">
        <ele>91.459999999999994</ele>
        <time>2023-08-24T13:12:50Z</time>
      </trkpt>
      <trkpt lat="58.232308030128479" lon="-5.142402034252882">
        <ele>90.019999999999996</ele>
        <time>2023-08-24T13:12:59Z</time>
      </trkpt>
      <trkpt lat="58.232279028743505" lon="-5.142921963706613">
        <ele>89.540000000000006</ele>
        <time>2023-08-24T13:13:03Z</time>
      </trkpt>
      <trkpt lat="58.232263019308448" lon="-5.143208038061857">
        <ele>90.019999999999996</ele>
        <time>2023-08-24T13:13:06Z</time>
      </trkpt>
      <trkpt lat="58.232265030965209" lon="-5.14353702776134">
        <ele>89.540000000000006</ele>
        <time>2023-08-24T13:13:12Z</time>
      </trkpt>
      <trkpt lat="58.232265030965209" lon="-5.143565023317933">
        <ele>89.540000000000006</ele>
        <time>2023-08-24T13:13:13Z</time>
      </trkpt>
      <trkpt lat="58.232276011258364" lon="-5.144237000495195">
        <ele>89.540000000000006</ele>
        <time>2023-08-24T13:13:21Z</time>
      </trkpt>
      <trkpt lat="58.232273999601603" lon="-5.144779980182648">
        <ele>89.060000000000002</ele>
        <time>2023-08-24T13:13:25Z</time>
      </trkpt>
      <trkpt lat="58.232264025136828" lon="-5.144951976835728">
        <ele>88.579999999999998</ele>
        <time>2023-08-24T13:13:26Z</time>
      </trkpt>
      <trkpt lat="58.232218008488417" lon="-5.145764015614986">
        <ele>87.140000000000001</ele>
        <time>2023-08-24T13:13:30Z</time>
      </trkpt>
      <trkpt lat="58.232322027906775" lon="-5.147299999371171">
        <ele>82.329999999999998</ele>
        <time>2023-08-24T13:13:36Z</time>
      </trkpt>
      <trkpt lat="58.232337031513453" lon="-5.147518012672663">
        <ele>81.370000000000005</ele>
        <time>2023-08-24T13:13:37Z</time>
      </trkpt>
      <trkpt lat="58.232324039563537" lon="-5.147730996832252">
        <ele>80.890000000000001</ele>
        <time>2023-08-24T13:13:38Z</time>
      </trkpt>
      <trkpt lat="58.232275005429983" lon="-5.147910034283996">
        <ele>79.930000000000007</ele>
        <time>2023-08-24T13:13:39Z</time>
      </trkpt>
      <trkpt lat="58.23222303763032" lon="-5.148096028715372">
        <ele>79.450000000000003</ele>
        <time>2023-08-24T13:13:40Z</time>
      </trkpt>
      <trkpt lat="58.232168974354863" lon="-5.148289985954762">
        <ele>78.480000000000004</ele>
        <time>2023-08-24T13:13:41Z</time>
      </trkpt>
      <trkpt lat="58.232123041525483" lon="-5.148509005084634">
        <ele>77.040000000000006</ele>
        <time>2023-08-24T13:13:42Z</time>
      </trkpt>
      <trkpt lat="58.232099991291761" lon="-5.148730035871267">
        <ele>75.120000000000005</ele>
        <time>2023-08-24T13:13:43Z</time>
      </trkpt>
      <trkpt lat="58.232080964371562" lon="-5.148918963968754">
        <ele>73.680000000000007</ele>
        <time>2023-08-24T13:13:44Z</time>
      </trkpt>
      <trkpt lat="58.232085993513465" lon="-5.149085009470582">
        <ele>71.760000000000005</ele>
        <time>2023-08-24T13:13:45Z</time>
      </trkpt>
      <trkpt lat="58.232148019596934" lon="-5.149208977818489">
        <ele>70.310000000000002</ele>
        <time>2023-08-24T13:13:46Z</time>
      </trkpt>
      <trkpt lat="58.232220020145178" lon="-5.149352978914976">
        <ele>68.390000000000001</ele>
        <time>2023-08-24T13:13:47Z</time>
      </trkpt>
      <trkpt lat="58.232300989329815" lon="-5.149513995274901">
        <ele>66.469999999999999</ele>
        <time>2023-08-24T13:13:48Z</time>
      </trkpt>
      <trkpt lat="58.232385981827974" lon="-5.149685991927981">
        <ele>64.549999999999997</ele>
        <time>2023-08-24T13:13:49Z</time>
      </trkpt>
      <trkpt lat="58.232450019568205" lon="-5.149900987744331">
        <ele>62.619999999999997</ele>
        <time>2023-08-24T13:13:50Z</time>
      </trkpt>
      <trkpt lat="58.232517996802926" lon="-5.150135010480881">
        <ele>60.700000000000003</ele>
        <time>2023-08-24T13:13:51Z</time>
      </trkpt>
      <trkpt lat="58.232585974037647" lon="-5.15037096105516">
        <ele>58.780000000000001</ele>
        <time>2023-08-24T13:13:52Z</time>
      </trkpt>
      <trkpt lat="58.232651017606258" lon="-5.150599032640457">
        <ele>56.859999999999999</ele>
        <time>2023-08-24T13:13:53Z</time>
      </trkpt>
      <trkpt lat="58.232686975970864" lon="-5.150840012356639">
        <ele>54.93</ele>
        <time>2023-08-24T13:13:54Z</time>
      </trkpt>
      <trkpt lat="58.232713965699077" lon="-5.15110001899302">
        <ele>53.490000000000002</ele>
        <time>2023-08-24T13:13:55Z</time>
      </trkpt>
      <trkpt lat="58.232833994552493" lon="-5.152451014146209">
        <ele>43.880000000000003</ele>
        <time>2023-08-24T13:14:00Z</time>
      </trkpt>
      <trkpt lat="58.232822008430958" lon="-5.152701968327165">
        <ele>41.950000000000003</ele>
        <time>2023-08-24T13:14:01Z</time>
      </trkpt>
      <trkpt lat="58.232812033966184" lon="-5.152940014377236">
        <ele>40.509999999999998</ele>
        <time>2023-08-24T13:14:02Z</time>
      </trkpt>
      <trkpt lat="58.232813039794564" lon="-5.153371011838317">
        <ele>37.630000000000003</ele>
        <time>2023-08-24T13:14:04Z</time>
      </trkpt>
      <trkpt lat="58.232840029522777" lon="-5.153532028198242">
        <ele>35.710000000000001</ele>
        <time>2023-08-24T13:14:06Z</time>
      </trkpt>
      <trkpt lat="58.232840029522777" lon="-5.153532028198242">
        <ele>34.740000000000002</ele>
        <time>2023-08-24T13:14:07Z</time>
      </trkpt>
      <trkpt lat="58.232929967343807" lon="-5.153705030679703">
        <ele>33.299999999999997</ele>
        <time>2023-08-24T13:14:08Z</time>
      </trkpt>
      <trkpt lat="58.232968021184206" lon="-5.153777031227946">
        <ele>32.340000000000003</ele>
        <time>2023-08-24T13:14:09Z</time>
      </trkpt>
      <trkpt lat="58.233026023954153" lon="-5.153887001797557">
        <ele>31.379999999999999</ele>
        <time>2023-08-24T13:14:10Z</time>
      </trkpt>
      <trkpt lat="58.233099030330777" lon="-5.154050029814243">
        <ele>30.420000000000002</ele>
        <time>2023-08-24T13:14:11Z</time>
      </trkpt>
      <trkpt lat="58.233547965064645" lon="-5.155388033017516">
        <ele>22.73</ele>
        <time>2023-08-24T13:14:17Z</time>
      </trkpt>
      <trkpt lat="58.233717028051615" lon="-5.156223960220814">
        <ele>16</ele>
        <time>2023-08-24T13:14:21Z</time>
      </trkpt>
      <trkpt lat="58.233741000294685" lon="-5.15645002014935">
        <ele>15.039999999999999</ele>
        <time>2023-08-24T13:14:22Z</time>
      </trkpt>
      <trkpt lat="58.233730020001531" lon="-5.156554961577058">
        <ele>13.6</ele>
        <time>2023-08-24T13:14:23Z</time>
      </trkpt>
      <trkpt lat="58.233715016394854" lon="-5.156694017350674">
        <ele>12.15</ele>
        <time>2023-08-24T13:14:24Z</time>
      </trkpt>
      <trkpt lat="58.233696995303035" lon="-5.156860984861851">
        <ele>11.19</ele>
        <time>2023-08-24T13:14:25Z</time>
      </trkpt>
      <trkpt lat="58.233651984483004" lon="-5.156967015936971">
        <ele>10.23</ele>
        <time>2023-08-24T13:14:26Z</time>
      </trkpt>
      <trkpt lat="58.233603034168482" lon="-5.157080003991723">
        <ele>9.27</ele>
        <time>2023-08-24T13:14:27Z</time>
      </trkpt>
      <trkpt lat="58.233524998649955" lon="-5.157205983996391">
        <ele>8.310000000000001</ele>
        <time>2023-08-24T13:14:28Z</time>
      </trkpt>
      <trkpt lat="58.233444029465318" lon="-5.157291982322931">
        <ele>7.35</ele>
        <time>2023-08-24T13:14:29Z</time>
      </trkpt>
      <trkpt lat="58.233359036967158" lon="-5.157384015619755">
        <ele>6.39</ele>
        <time>2023-08-24T13:14:30Z</time>
      </trkpt>
      <trkpt lat="58.233074974268675" lon="-5.157688027247787">
        <ele>4.46</ele>
        <time>2023-08-24T13:14:33Z</time>
      </trkpt>
      <trkpt lat="58.232969027012587" lon="-5.15780202113092">
        <ele>3.98</ele>
        <time>2023-08-24T13:14:34Z</time>
      </trkpt>
      <trkpt lat="58.232943965122104" lon="-5.157887013629079">
        <ele>3.5</ele>
        <time>2023-08-24T13:14:35Z</time>
      </trkpt>
      <trkpt lat="58.232899960130453" lon="-5.158034032210708">
        <ele>3.5</ele>
        <time>2023-08-24T13:14:36Z</time>
      </trkpt>
      <trkpt lat="58.232860984280705" lon="-5.158206028863788">
        <ele>3.02</ele>
        <time>2023-08-24T13:14:37Z</time>
      </trkpt>
      <trkpt lat="58.232860984280705" lon="-5.158400991931558">
        <ele>3.02</ele>
        <time>2023-08-24T13:14:38Z</time>
      </trkpt>
      <trkpt lat="58.232860984280705" lon="-5.158610958606005">
        <ele>3.02</ele>
        <time>2023-08-24T13:14:39Z</time>
      </trkpt>
      <trkpt lat="58.232902977615595" lon="-5.158829977735877">
        <ele>3.02</ele>
        <time>2023-08-24T13:14:40Z</time>
      </trkpt>
      <trkpt lat="58.232960980385542" lon="-5.159041034057736">
        <ele>3.02</ele>
        <time>2023-08-24T13:14:41Z</time>
      </trkpt>
      <trkpt lat="58.23302099481225" lon="-5.159255024045706">
        <ele>3.02</ele>
        <time>2023-08-24T13:14:42Z</time>
      </trkpt>
      <trkpt lat="58.233081009238958" lon="-5.159470019862056">
        <ele>2.54</ele>
        <time>2023-08-24T13:14:43Z</time>
      </trkpt>
      <trkpt lat="58.233227021992207" lon="-5.159841002896428">
        <ele>3.02</ele>
        <time>2023-08-24T13:14:45Z</time>
      </trkpt>
      <trkpt lat="58.233792968094349" lon="-5.161076998338103">
        <ele>3.98</ele>
        <time>2023-08-24T13:14:53Z</time>
      </trkpt>
      <trkpt lat="58.23385801166296" lon="-5.161232985556126">
        <ele>4.94</ele>
        <time>2023-08-24T13:14:57Z</time>
      </trkpt>
      <trkpt lat="58.233982985839248" lon="-5.161571027711034">
        <ele>5.91</ele>
        <time>2023-08-24T13:15:00Z</time>
      </trkpt>
      <trkpt lat="58.234283979982138" lon="-5.162613987922669">
        <ele>5.91</ele>
        <time>2023-08-24T13:15:06Z</time>
      </trkpt>
      <trkpt lat="58.234314993023872" lon="-5.162760000675917">
        <ele>6.39</ele>
        <time>2023-08-24T13:15:07Z</time>
      </trkpt>
      <trkpt lat="58.234340976923704" lon="-5.162910036742687">
        <ele>6.39</ele>
        <time>2023-08-24T13:15:08Z</time>
      </trkpt>
      <trkpt lat="58.234332008287311" lon="-5.163060994818807">
        <ele>6.87</ele>
        <time>2023-08-24T13:15:09Z</time>
      </trkpt>
      <trkpt lat="58.234323961660266" lon="-5.163204995915294">
        <ele>7.35</ele>
        <time>2023-08-24T13:15:10Z</time>
      </trkpt>
      <trkpt lat="58.234317004680634" lon="-5.163332987576723">
        <ele>7.83</ele>
        <time>2023-08-24T13:15:11Z</time>
      </trkpt>
      <trkpt lat="58.23431096971035" lon="-5.163442958146334">
        <ele>8.789999999999999</ele>
        <time>2023-08-24T13:15:12Z</time>
      </trkpt>
      <trkpt lat="58.234305018559098" lon="-5.163547983393073">
        <ele>9.27</ele>
        <time>2023-08-24T13:15:13Z</time>
      </trkpt>
      <trkpt lat="58.234298983588815" lon="-5.163659965619445">
        <ele>9.75</ele>
        <time>2023-08-24T13:15:14Z</time>
      </trkpt>
      <trkpt lat="58.234318010509014" lon="-5.163802960887551">
        <ele>10.23</ele>
        <time>2023-08-24T13:15:15Z</time>
      </trkpt>
      <trkpt lat="58.234338965266943" lon="-5.163965988904238">
        <ele>11.19</ele>
        <time>2023-08-24T13:15:16Z</time>
      </trkpt>
      <trkpt lat="58.234366038814187" lon="-5.164159024134278">
        <ele>11.19</ele>
        <time>2023-08-24T13:15:17Z</time>
      </trkpt>
      <trkpt lat="58.234438961371779" lon="-5.164281986653805">
        <ele>11.67</ele>
        <time>2023-08-24T13:15:18Z</time>
      </trkpt>
      <trkpt lat="58.234510039910674" lon="-5.164405032992363">
        <ele>12.15</ele>
        <time>2023-08-24T13:15:19Z</time>
      </trkpt>
      <trkpt lat="58.234577011317015" lon="-5.164518021047115">
        <ele>12.15</ele>
        <time>2023-08-24T13:15:20Z</time>
      </trkpt>
      <trkpt lat="58.234647000208497" lon="-5.16463696025312">
        <ele>12.15</ele>
        <time>2023-08-24T13:15:21Z</time>
      </trkpt>
      <trkpt lat="58.234721012413502" lon="-5.164763024076819">
        <ele>12.15</ele>
        <time>2023-08-24T13:15:22Z</time>
      </trkpt>
      <trkpt lat="58.234770968556404" lon="-5.164918005466461">
        <ele>12.15</ele>
        <time>2023-08-24T13:15:23Z</time>
      </trkpt>
      <trkpt lat="58.234821008518338" lon="-5.165082961320877">
        <ele>12.15</ele>
        <time>2023-08-24T13:15:24Z</time>
      </trkpt>
      <trkpt lat="58.23486995883286" lon="-5.165245989337564">
        <ele>12.630000000000001</ele>
        <time>2023-08-24T13:15:25Z</time>
      </trkpt>
      <trkpt lat="58.234915975481272" lon="-5.165398959070444">
        <ele>13.119999999999999</ele>
        <time>2023-08-24T13:15:26Z</time>
      </trkpt>
      <trkpt lat="58.235173970460892" lon="-5.166257014498115">
        <ele>16</ele>
        <time>2023-08-24T13:15:32Z</time>
      </trkpt>
      <trkpt lat="58.235208000987768" lon="-5.166411995887756">
        <ele>16.48</ele>
        <time>2023-08-24T13:15:33Z</time>
      </trkpt>
      <trkpt lat="58.235227027907968" lon="-5.166593967005611">
        <ele>16.960000000000001</ele>
        <time>2023-08-24T13:15:34Z</time>
      </trkpt>
      <trkpt lat="58.23542702011764" lon="-5.168622974306345">
        <ele>25.129999999999999</ele>
        <time>2023-08-24T13:15:43Z</time>
      </trkpt>
      <trkpt lat="58.235419979318976" lon="-5.169180035591126">
        <ele>30.420000000000002</ele>
        <time>2023-08-24T13:15:46Z</time>
      </trkpt>
      <trkpt lat="58.235402964055538" lon="-5.169541966170073">
        <ele>38.109999999999999</ele>
        <time>2023-08-24T13:15:52Z</time>
      </trkpt>
      <trkpt lat="58.235410004854202" lon="-5.170306982472539">
        <ele>45.799999999999997</ele>
        <time>2023-08-24T13:15:58Z</time>
      </trkpt>
      <trkpt lat="58.235415033996105" lon="-5.170441009104252">
        <ele>46.759999999999998</ele>
        <time>2023-08-24T13:15:59Z</time>
      </trkpt>
      <trkpt lat="58.235329035669565" lon="-5.171192027628422">
        <ele>50.130000000000003</ele>
        <time>2023-08-24T13:16:04Z</time>
      </trkpt>
      <trkpt lat="58.235329035669565" lon="-5.171336028724909">
        <ele>50.609999999999999</ele>
        <time>2023-08-24T13:16:05Z</time>
      </trkpt>
      <trkpt lat="58.23534001596272" lon="-5.171494027599692">
        <ele>51.090000000000003</ele>
        <time>2023-08-24T13:16:06Z</time>
      </trkpt>
      <trkpt lat="58.235388966277242" lon="-5.171603998169303">
        <ele>51.090000000000003</ele>
        <time>2023-08-24T13:16:07Z</time>
      </trkpt>
      <trkpt lat="58.235443029552698" lon="-5.171722015365958">
        <ele>51.57</ele>
        <time>2023-08-24T13:16:08Z</time>
      </trkpt>
      <trkpt lat="58.235497009009123" lon="-5.171840032562614">
        <ele>52.049999999999997</ele>
        <time>2023-08-24T13:16:09Z</time>
      </trkpt>
      <trkpt lat="58.235550988465548" lon="-5.171967018395662">
        <ele>52.049999999999997</ele>
        <time>2023-08-24T13:16:10Z</time>
      </trkpt>
      <trkpt lat="58.235597005113959" lon="-5.172124011442065">
        <ele>52.530000000000001</ele>
        <time>2023-08-24T13:16:11Z</time>
      </trkpt>
      <trkpt lat="58.235645033419132" lon="-5.172287961468101">
        <ele>53.009999999999998</ele>
        <time>2023-08-24T13:16:12Z</time>
      </trkpt>
      <trkpt lat="58.235692977905273" lon="-5.172453001141548">
        <ele>53.490000000000002</ele>
        <time>2023-08-24T13:16:13Z</time>
      </trkpt>
      <trkpt lat="58.235742012038827" lon="-5.172617034986615">
        <ele>53.969999999999999</ele>
        <time>2023-08-24T13:16:14Z</time>
      </trkpt>
      <trkpt lat="58.236059015616775" lon="-5.173495961353183">
        <ele>55.890000000000001</ele>
        <time>2023-08-24T13:16:20Z</time>
      </trkpt>
      <trkpt lat="58.236087011173368" lon="-5.173649014905095">
        <ele>56.369999999999997</ele>
        <time>2023-08-24T13:16:21Z</time>
      </trkpt>
      <trkpt lat="58.236098997294903" lon="-5.173806007951498">
        <ele>56.859999999999999</ele>
        <time>2023-08-24T13:16:22Z</time>
      </trkpt>
      <trkpt lat="58.236124981194735" lon="-5.174137009307742">
        <ele>56.859999999999999</ele>
        <time>2023-08-24T13:16:24Z</time>
      </trkpt>
      <trkpt lat="58.236151970922947" lon="-5.174493994563818">
        <ele>56.369999999999997</ele>
        <time>2023-08-24T13:16:26Z</time>
      </trkpt>
      <trkpt lat="58.236170997843146" lon="-5.174687029793859">
        <ele>56.369999999999997</ele>
        <time>2023-08-24T13:16:27Z</time>
      </trkpt>
      <trkpt lat="58.236397979781032" lon="-5.175512982532382">
        <ele>54.450000000000003</ele>
        <time>2023-08-24T13:16:32Z</time>
      </trkpt>
      <trkpt lat="58.236464029178023" lon="-5.175620019435883">
        <ele>54.450000000000003</ele>
        <time>2023-08-24T13:16:33Z</time>
      </trkpt>
      <trkpt lat="58.236531000584364" lon="-5.175720015540719">
        <ele>53.969999999999999</ele>
        <time>2023-08-24T13:16:34Z</time>
      </trkpt>
      <trkpt lat="58.236612975597382" lon="-5.175805008038878">
        <ele>53.490000000000002</ele>
        <time>2023-08-24T13:16:35Z</time>
      </trkpt>
      <trkpt lat="58.236711965873837" lon="-5.175859993323684">
        <ele>53.490000000000002</ele>
        <time>2023-08-24T13:16:36Z</time>
      </trkpt>
      <trkpt lat="58.23682302609086" lon="-5.175897963345051">
        <ele>53.009999999999998</ele>
        <time>2023-08-24T13:16:37Z</time>
      </trkpt>
      <trkpt lat="58.236940959468484" lon="-5.175913972780109">
        <ele>53.009999999999998</ele>
        <time>2023-08-24T13:16:38Z</time>
      </trkpt>
      <trkpt lat="58.237054031342268" lon="-5.175927970558405">
        <ele>52.530000000000001</ele>
        <time>2023-08-24T13:16:39Z</time>
      </trkpt>
      <trkpt lat="58.238038988783956" lon="-5.176355028524995">
        <ele>47.240000000000002</ele>
        <time>2023-08-24T13:16:48Z</time>
      </trkpt>
      <trkpt lat="58.238288015127182" lon="-5.176488971337676">
        <ele>46.280000000000001</ele>
        <time>2023-08-24T13:16:50Z</time>
      </trkpt>
      <trkpt lat="58.238525977358222" lon="-5.176642024889588">
        <ele>46.280000000000001</ele>
        <time>2023-08-24T13:16:52Z</time>
      </trkpt>
      <trkpt lat="58.238608036190271" lon="-5.176750989630818">
        <ele>45.799999999999997</ele>
        <time>2023-08-24T13:16:53Z</time>
      </trkpt>
      <trkpt lat="58.23871498927474" lon="-5.176893984898925">
        <ele>45.32</ele>
        <time>2023-08-24T13:16:54Z</time>
      </trkpt>
      <trkpt lat="58.238824959844351" lon="-5.177016025409102">
        <ele>45.32</ele>
        <time>2023-08-24T13:16:55Z</time>
      </trkpt>
      <trkpt lat="58.23894901201129" lon="-5.177105963230133">
        <ele>44.840000000000003</ele>
        <time>2023-08-24T13:16:56Z</time>
      </trkpt>
      <trkpt lat="58.239072980359197" lon="-5.177195984870195">
        <ele>44.840000000000003</ele>
        <time>2023-08-24T13:16:57Z</time>
      </trkpt>
      <trkpt lat="58.239192003384233" lon="-5.177283994853497">
        <ele>44.840000000000003</ele>
        <time>2023-08-24T13:16:58Z</time>
      </trkpt>
      <trkpt lat="58.239298034459352" lon="-5.177361024543643">
        <ele>44.840000000000003</ele>
        <time>2023-08-24T13:16:59Z</time>
      </trkpt>
      <trkpt lat="58.23938000947237" lon="-5.177403017878532">
        <ele>45.32</ele>
        <time>2023-08-24T13:17:00Z</time>
      </trkpt>
      <trkpt lat="58.23946600779891" lon="-5.177391031756997">
        <ele>45.32</ele>
        <time>2023-08-24T13:17:01Z</time>
      </trkpt>
      <trkpt lat="58.239646973088384" lon="-5.177279971539974">
        <ele>45.32</ele>
        <time>2023-08-24T13:17:03Z</time>
      </trkpt>
      <trkpt lat="58.239756021648645" lon="-5.177259016782045">
        <ele>45.799999999999997</ele>
        <time>2023-08-24T13:17:04Z</time>
      </trkpt>
      <trkpt lat="58.239863980561495" lon="-5.177320037037134">
        <ele>46.280000000000001</ele>
        <time>2023-08-24T13:17:05Z</time>
      </trkpt>
      <trkpt lat="58.239958025515079" lon="-5.177429001778364">
        <ele>46.759999999999998</ele>
        <time>2023-08-24T13:17:06Z</time>
      </trkpt>
      <trkpt lat="58.240063972771168" lon="-5.177552970126271">
        <ele>47.240000000000002</ele>
        <time>2023-08-24T13:17:07Z</time>
      </trkpt>
      <trkpt lat="58.24017696082592" lon="-5.177684985101223">
        <ele>47.719999999999999</ele>
        <time>2023-08-24T13:17:08Z</time>
      </trkpt>
      <trkpt lat="58.240365972742438" lon="-5.177967958152294">
        <ele>48.68</ele>
        <time>2023-08-24T13:17:10Z</time>
      </trkpt>
      <trkpt lat="58.240452976897359" lon="-5.178142972290516">
        <ele>49.649999999999999</ele>
        <time>2023-08-24T13:17:11Z</time>
      </trkpt>
      <trkpt lat="58.240503016859293" lon="-5.178331984207034">
        <ele>50.609999999999999</ele>
        <time>2023-08-24T13:17:12Z</time>
      </trkpt>
      <trkpt lat="58.240521959960461" lon="-5.178601965308189">
        <ele>52.049999999999997</ele>
        <time>2023-08-24T13:17:13Z</time>
      </trkpt>
      <trkpt lat="58.240521959960461" lon="-5.178804975003004">
        <ele>53.490000000000002</ele>
        <time>2023-08-24T13:17:14Z</time>
      </trkpt>
      <trkpt lat="58.240521959960461" lon="-5.178970014676452">
        <ele>54.93</ele>
        <time>2023-08-24T13:17:15Z</time>
      </trkpt>
      <trkpt lat="58.240521959960461" lon="-5.179081996902823">
        <ele>55.890000000000001</ele>
        <time>2023-08-24T13:17:16Z</time>
      </trkpt>
      <trkpt lat="58.240522965788841" lon="-5.179135976359248">
        <ele>57.340000000000003</ele>
        <time>2023-08-24T13:17:17Z</time>
      </trkpt>
      <trkpt lat="58.240537969395518" lon="-5.179190961644054">
        <ele>58.299999999999997</ele>
        <time>2023-08-24T13:17:18Z</time>
      </trkpt>
      <trkpt lat="58.240564037114382" lon="-5.179286012426019">
        <ele>61.18</ele>
        <time>2023-08-24T13:17:23Z</time>
      </trkpt>
      <trkpt lat="58.240592032670975" lon="-5.179391959682107">
        <ele>62.140000000000001</ele>
        <time>2023-08-24T13:17:24Z</time>
      </trkpt>
      <trkpt lat="58.240628996863961" lon="-5.179527997970581">
        <ele>63.100000000000001</ele>
        <time>2023-08-24T13:17:25Z</time>
      </trkpt>
      <trkpt lat="58.240763023495674" lon="-5.180023033171892">
        <ele>64.549999999999997</ele>
        <time>2023-08-24T13:17:28Z</time>
      </trkpt>
      <trkpt lat="58.240828989073634" lon="-5.18019100651145">
        <ele>65.030000000000001</ele>
        <time>2023-08-24T13:17:29Z</time>
      </trkpt>
      <trkpt lat="58.240906018763781" lon="-5.180272981524468">
        <ele>65.510000000000005</ele>
        <time>2023-08-24T13:17:30Z</time>
      </trkpt>
      <trkpt lat="58.240968966856599" lon="-5.18034003674984">
        <ele>66.469999999999999</ele>
        <time>2023-08-24T13:17:31Z</time>
      </trkpt>
      <trkpt lat="58.241021018475294" lon="-5.180395022034645">
        <ele>66.950000000000003</ele>
        <time>2023-08-24T13:17:32Z</time>
      </trkpt>
      <trkpt lat="58.241154039278626" lon="-5.18053600564599">
        <ele>68.870000000000005</ele>
        <time>2023-08-24T13:17:35Z</time>
      </trkpt>
      <trkpt lat="58.241293011233211" lon="-5.18068503588438">
        <ele>69.829999999999998</ele>
        <time>2023-08-24T13:17:37Z</time>
      </trkpt>
      <trkpt lat="58.241384038701653" lon="-5.180781008675695">
        <ele>70.310000000000002</ele>
        <time>2023-08-24T13:17:38Z</time>
      </trkpt>
      <trkpt lat="58.241485040634871" lon="-5.180887961760163">
        <ele>71.269999999999996</ele>
        <time>2023-08-24T13:17:39Z</time>
      </trkpt>
      <trkpt lat="58.241556035354733" lon="-5.18105098977685">
        <ele>71.760000000000005</ele>
        <time>2023-08-24T13:17:40Z</time>
      </trkpt>
      <trkpt lat="58.241626024246216" lon="-5.181214017793536">
        <ele>72.239999999999995</ele>
        <time>2023-08-24T13:17:41Z</time>
      </trkpt>
      <trkpt lat="58.241682015359402" lon="-5.181390959769487">
        <ele>73.200000000000003</ele>
        <time>2023-08-24T13:17:42Z</time>
      </trkpt>
      <trkpt lat="58.241690983995795" lon="-5.181605033576489">
        <ele>73.680000000000007</ele>
        <time>2023-08-24T13:17:43Z</time>
      </trkpt>
      <trkpt lat="58.241700036451221" lon="-5.181833021342754">
        <ele>73.680000000000007</ele>
        <time>2023-08-24T13:17:44Z</time>
      </trkpt>
      <trkpt lat="58.241867003962398" lon="-5.184196969494224">
        <ele>72.719999999999999</ele>
        <time>2023-08-24T13:17:53Z</time>
      </trkpt>
      <trkpt lat="58.242226000875235" lon="-5.185994971543551">
        <ele>79.450000000000003</ele>
        <time>2023-08-24T13:18:02Z</time>
      </trkpt>
      <trkpt lat="58.242601007223129" lon="-5.187412016093731">
        <ele>81.370000000000005</ele>
        <time>2023-08-24T13:18:10Z</time>
      </trkpt>
      <trkpt lat="58.242853973060846" lon="-5.188337964937091">
        <ele>78.969999999999999</ele>
        <time>2023-08-24T13:18:16Z</time>
      </trkpt>
      <trkpt lat="58.242984982207417" lon="-5.188926961272955">
        <ele>75.120000000000005</ele>
        <time>2023-08-24T13:18:19Z</time>
      </trkpt>
      <trkpt lat="58.243008032441139" lon="-5.189140029251576">
        <ele>74.159999999999997</ele>
        <time>2023-08-24T13:18:20Z</time>
      </trkpt>
      <trkpt lat="58.243029993027449" lon="-5.189349995926023">
        <ele>73.200000000000003</ele>
        <time>2023-08-24T13:18:21Z</time>
      </trkpt>
      <trkpt lat="58.24303200468421" lon="-5.189549988135696">
        <ele>72.239999999999995</ele>
        <time>2023-08-24T13:18:22Z</time>
      </trkpt>
      <trkpt lat="58.243018006905913" lon="-5.189744029194117">
        <ele>71.269999999999996</ele>
        <time>2023-08-24T13:18:23Z</time>
      </trkpt>
      <trkpt lat="58.242986993864179" lon="-5.189950978383422">
        <ele>70.310000000000002</ele>
        <time>2023-08-24T13:18:24Z</time>
      </trkpt>
      <trkpt lat="58.242954974994063" lon="-5.190162034705281">
        <ele>69.349999999999994</ele>
        <time>2023-08-24T13:18:25Z</time>
      </trkpt>
      <trkpt lat="58.24277501553297" lon="-5.19108303822577">
        <ele>67.430000000000007</ele>
        <time>2023-08-24T13:18:30Z</time>
      </trkpt>
      <trkpt lat="58.242735033854842" lon="-5.191225027665496">
        <ele>66.950000000000003</ele>
        <time>2023-08-24T13:18:31Z</time>
      </trkpt>
      <trkpt lat="58.24268801137805" lon="-5.191365005448461">
        <ele>66.469999999999999</ele>
        <time>2023-08-24T13:18:32Z</time>
      </trkpt>
      <trkpt lat="58.242636965587735" lon="-5.19151596352458">
        <ele>65.510000000000005</ele>
        <time>2023-08-24T13:18:33Z</time>
      </trkpt>
      <trkpt lat="58.242586003616452" lon="-5.191670022904873">
        <ele>65.030000000000001</ele>
        <time>2023-08-24T13:18:34Z</time>
      </trkpt>
      <trkpt lat="58.242535041645169" lon="-5.191831039264798">
        <ele>64.549999999999997</ele>
        <time>2023-08-24T13:18:35Z</time>
      </trkpt>
      <trkpt lat="58.242502016946673" lon="-5.192007981240749">
        <ele>64.069999999999993</ele>
        <time>2023-08-24T13:18:36Z</time>
      </trkpt>
      <trkpt lat="58.242469998076558" lon="-5.19218098372221">
        <ele>63.579999999999998</ele>
        <time>2023-08-24T13:18:37Z</time>
      </trkpt>
      <trkpt lat="58.242439990863204" lon="-5.192345017567277">
        <ele>63.579999999999998</ele>
        <time>2023-08-24T13:18:38Z</time>
      </trkpt>
      <trkpt lat="58.242385005578399" lon="-5.192491030320525">
        <ele>63.100000000000001</ele>
        <time>2023-08-24T13:18:39Z</time>
      </trkpt>
      <trkpt lat="58.242319040000439" lon="-5.192630002275109">
        <ele>62.619999999999997</ele>
        <time>2023-08-24T13:18:40Z</time>
      </trkpt>
      <trkpt lat="58.24155000038445" lon="-5.194315016269684">
        <ele>69.829999999999998</ele>
        <time>2023-08-24T13:18:50Z</time>
      </trkpt>
      <trkpt lat="58.240920016542077" lon="-5.196161968633533">
        <ele>71.760000000000005</ele>
        <time>2023-08-24T13:18:59Z</time>
      </trkpt>
      <trkpt lat="58.240908030420542" lon="-5.196318961679936">
        <ele>71.760000000000005</ele>
        <time>2023-08-24T13:19:00Z</time>
      </trkpt>
      <trkpt lat="58.240921022370458" lon="-5.196504034101963">
        <ele>71.760000000000005</ele>
        <time>2023-08-24T13:19:01Z</time>
      </trkpt>
      <trkpt lat="58.241014983505011" lon="-5.197541965171695">
        <ele>71.760000000000005</ele>
        <time>2023-08-24T13:19:07Z</time>
      </trkpt>
      <trkpt lat="58.241044990718365" lon="-5.197649002075195">
        <ele>71.269999999999996</ele>
        <time>2023-08-24T13:19:08Z</time>
      </trkpt>
      <trkpt lat="58.241083966568112" lon="-5.197787974029779">
        <ele>70.790000000000006</ele>
        <time>2023-08-24T13:19:09Z</time>
      </trkpt>
      <trkpt lat="58.241126965731382" lon="-5.197935998439789">
        <ele>70.310000000000002</ele>
        <time>2023-08-24T13:19:10Z</time>
      </trkpt>
      <trkpt lat="58.241193015128374" lon="-5.198047980666161">
        <ele>69.829999999999998</ele>
        <time>2023-08-24T13:19:11Z</time>
      </trkpt>
      <trkpt lat="58.241259986534715" lon="-5.198161974549294">
        <ele>69.349999999999994</ele>
        <time>2023-08-24T13:19:12Z</time>
      </trkpt>
      <trkpt lat="58.241326035931706" lon="-5.198273034766316">
        <ele>68.870000000000005</ele>
        <time>2023-08-24T13:19:13Z</time>
      </trkpt>
      <trkpt lat="58.241394013166428" lon="-5.198383005335927">
        <ele>68.390000000000001</ele>
        <time>2023-08-24T13:19:14Z</time>
      </trkpt>
      <trkpt lat="58.241672040894628" lon="-5.198858007788658">
        <ele>65.989999999999995</ele>
        <time>2023-08-24T13:19:18Z</time>
      </trkpt>
      <trkpt lat="58.241732977330685" lon="-5.198980970308185">
        <ele>65.030000000000001</ele>
        <time>2023-08-24T13:19:19Z</time>
      </trkpt>
      <trkpt lat="58.242231030017138" lon="-5.199995012953877">
        <ele>56.859999999999999</ele>
        <time>2023-08-24T13:19:28Z</time>
      </trkpt>
      <trkpt lat="58.242771998047829" lon="-5.201064040884376">
        <ele>54.93</ele>
        <time>2023-08-24T13:19:39Z</time>
      </trkpt>
      <trkpt lat="58.24326996691525" lon="-5.202098032459617">
        <ele>54.450000000000003</ele>
        <time>2023-08-24T13:19:49Z</time>
      </trkpt>
      <trkpt lat="58.243358982726932" lon="-5.202323002740741">
        <ele>54.450000000000003</ele>
        <time>2023-08-24T13:19:51Z</time>
      </trkpt>
      <trkpt lat="58.243406005203724" lon="-5.202439008280635">
        <ele>54.450000000000003</ele>
        <time>2023-08-24T13:19:52Z</time>
      </trkpt>
      <trkpt lat="58.243693001568317" lon="-5.203194972127676">
        <ele>53.490000000000002</ele>
        <time>2023-08-24T13:19:58Z</time>
      </trkpt>
      <trkpt lat="58.24395501986146" lon="-5.203979015350342">
        <ele>53.009999999999998</ele>
        <time>2023-08-24T13:20:03Z</time>
      </trkpt>
      <trkpt lat="58.243993995711207" lon="-5.204069958999753">
        <ele>53.009999999999998</ele>
        <time>2023-08-24T13:20:04Z</time>
      </trkpt>
      <trkpt lat="58.244351986795664" lon="-5.204970007762313">
        <ele>57.82</ele>
        <time>2023-08-24T13:20:12Z</time>
      </trkpt>
      <trkpt lat="58.244501017034054" lon="-5.205662017688155">
        <ele>58.299999999999997</ele>
        <time>2023-08-24T13:20:17Z</time>
      </trkpt>
      <trkpt lat="58.244734033942223" lon="-5.207483991980553">
        <ele>50.609999999999999</ele>
        <time>2023-08-24T13:20:27Z</time>
      </trkpt>
      <trkpt lat="58.244747025892138" lon="-5.208026971668005">
        <ele>47.240000000000002</ele>
        <time>2023-08-24T13:20:30Z</time>
      </trkpt>
      <trkpt lat="58.244720958173275" lon="-5.208197040483356">
        <ele>46.280000000000001</ele>
        <time>2023-08-24T13:20:31Z</time>
      </trkpt>
      <trkpt lat="58.244695980101824" lon="-5.208364007994533">
        <ele>45.799999999999997</ele>
        <time>2023-08-24T13:20:32Z</time>
      </trkpt>
      <trkpt lat="58.24466697871685" lon="-5.208513960242271">
        <ele>44.840000000000003</ele>
        <time>2023-08-24T13:20:33Z</time>
      </trkpt>
      <trkpt lat="58.244631020352244" lon="-5.208658967167139">
        <ele>44.359999999999999</ele>
        <time>2023-08-24T13:20:34Z</time>
      </trkpt>
      <trkpt lat="58.244597995653749" lon="-5.208797017112374">
        <ele>43.880000000000003</ele>
        <time>2023-08-24T13:20:35Z</time>
      </trkpt>
      <trkpt lat="58.244503028690815" lon="-5.209186021238565">
        <ele>43.399999999999999</ele>
        <time>2023-08-24T13:20:38Z</time>
      </trkpt>
      <trkpt lat="58.244473021477461" lon="-5.209308983758092">
        <ele>43.399999999999999</ele>
        <time>2023-08-24T13:20:39Z</time>
      </trkpt>
      <trkpt lat="58.244447959586978" lon="-5.209407974034548">
        <ele>43.399999999999999</ele>
        <time>2023-08-24T13:20:40Z</time>
      </trkpt>
      <trkpt lat="58.244467992335558" lon="-5.209551975131035">
        <ele>43.880000000000003</ele>
        <time>2023-08-24T13:20:41Z</time>
      </trkpt>
      <trkpt lat="58.244485007598996" lon="-5.209681978449225">
        <ele>43.880000000000003</ele>
        <time>2023-08-24T13:20:42Z</time>
      </trkpt>
      <trkpt lat="58.244505040347576" lon="-5.209824973717332">
        <ele>43.880000000000003</ele>
        <time>2023-08-24T13:20:43Z</time>
      </trkpt>
      <trkpt lat="58.244524989277124" lon="-5.209975009784102">
        <ele>44.359999999999999</ele>
        <time>2023-08-24T13:20:44Z</time>
      </trkpt>
      <trkpt lat="58.244545022025704" lon="-5.210127979516983">
        <ele>44.359999999999999</ele>
        <time>2023-08-24T13:20:45Z</time>
      </trkpt>
      <trkpt lat="58.244651975110173" lon="-5.211337991058826">
        <ele>46.280000000000001</ele>
        <time>2023-08-24T13:20:53Z</time>
      </trkpt>
      <trkpt lat="58.244661027565598" lon="-5.211469000205398">
        <ele>46.280000000000001</ele>
        <time>2023-08-24T13:20:54Z</time>
      </trkpt>
      <trkpt lat="58.24466597288847" lon="-5.211993036791682">
        <ele>47.240000000000002</ele>
        <time>2023-08-24T13:21:00Z</time>
      </trkpt>
      <trkpt lat="58.244634037837386" lon="-5.212266035377979">
        <ele>47.240000000000002</ele>
        <time>2023-08-24T13:21:02Z</time>
      </trkpt>
      <trkpt lat="58.244358021765947" lon="-5.213857004418969">
        <ele>45.32</ele>
        <time>2023-08-24T13:21:10Z</time>
      </trkpt>
      <trkpt lat="58.244293984025717" lon="-5.213996982201934">
        <ele>44.840000000000003</ele>
        <time>2023-08-24T13:21:11Z</time>
      </trkpt>
      <trkpt lat="58.244208991527557" lon="-5.214107036590576">
        <ele>44.359999999999999</ele>
        <time>2023-08-24T13:21:12Z</time>
      </trkpt>
      <trkpt lat="58.24412701651454" lon="-5.214213989675045">
        <ele>43.880000000000003</ele>
        <time>2023-08-24T13:21:13Z</time>
      </trkpt>
      <trkpt lat="58.24402098543942" lon="-5.214221030473709">
        <ele>43.399999999999999</ele>
        <time>2023-08-24T13:21:14Z</time>
      </trkpt>
      <trkpt lat="58.243914032354951" lon="-5.214227987453342">
        <ele>43.399999999999999</ele>
        <time>2023-08-24T13:21:15Z</time>
      </trkpt>
      <trkpt lat="58.243810012936592" lon="-5.214234022423625">
        <ele>43.399999999999999</ele>
        <time>2023-08-24T13:21:16Z</time>
      </trkpt>
      <trkpt lat="58.243714040145278" lon="-5.214166967198253">
        <ele>42.920000000000002</ele>
        <time>2023-08-24T13:21:17Z</time>
      </trkpt>
      <trkpt lat="58.243619995191693" lon="-5.2140730060637">
        <ele>43.399999999999999</ele>
        <time>2023-08-24T13:21:18Z</time>
      </trkpt>
      <trkpt lat="58.243532991036773" lon="-5.213960018008947">
        <ele>43.399999999999999</ele>
        <time>2023-08-24T13:21:19Z</time>
      </trkpt>
      <trkpt lat="58.243455039337277" lon="-5.213824985548854">
        <ele>43.880000000000003</ele>
        <time>2023-08-24T13:21:20Z</time>
      </trkpt>
      <trkpt lat="58.243380021303892" lon="-5.213694982230663">
        <ele>43.880000000000003</ele>
        <time>2023-08-24T13:21:21Z</time>
      </trkpt>
      <trkpt lat="58.2433329988271" lon="-5.213614013046026">
        <ele>43.880000000000003</ele>
        <time>2023-08-24T13:21:22Z</time>
      </trkpt>
      <trkpt lat="58.24322503991425" lon="-5.213573025539517">
        <ele>43.880000000000003</ele>
        <time>2023-08-24T13:21:23Z</time>
      </trkpt>
      <trkpt lat="58.24316100217402" lon="-5.213548969477415">
        <ele>43.880000000000003</ele>
        <time>2023-08-24T13:21:24Z</time>
      </trkpt>
      <trkpt lat="58.243124037981033" lon="-5.213594986125827">
        <ele>43.880000000000003</ele>
        <time>2023-08-24T13:21:25Z</time>
      </trkpt>
      <trkpt lat="58.243058994412422" lon="-5.213675033301115">
        <ele>43.880000000000003</ele>
        <time>2023-08-24T13:21:26Z</time>
      </trkpt>
      <trkpt lat="58.242970984429121" lon="-5.213782992213965">
        <ele>43.399999999999999</ele>
        <time>2023-08-24T13:21:27Z</time>
      </trkpt>
      <trkpt lat="58.242544010281563" lon="-5.214309962466359">
        <ele>42.920000000000002</ele>
        <time>2023-08-24T13:21:31Z</time>
      </trkpt>
      <trkpt lat="58.242463963106275" lon="-5.214449018239975">
        <ele>43.399999999999999</ele>
        <time>2023-08-24T13:21:32Z</time>
      </trkpt>
      <trkpt lat="58.242391040548682" lon="-5.214595030993223">
        <ele>43.399999999999999</ele>
        <time>2023-08-24T13:21:33Z</time>
      </trkpt>
      <trkpt lat="58.242352986708283" lon="-5.214754035696387">
        <ele>43.880000000000003</ele>
        <time>2023-08-24T13:21:34Z</time>
      </trkpt>
      <trkpt lat="58.242329014465213" lon="-5.214936006814241">
        <ele>44.840000000000003</ele>
        <time>2023-08-24T13:21:35Z</time>
      </trkpt>
      <trkpt lat="58.242348963394761" lon="-5.215137004852295">
        <ele>45.32</ele>
        <time>2023-08-24T13:21:36Z</time>
      </trkpt>
      <trkpt lat="58.242372013628483" lon="-5.215357029810548">
        <ele>46.280000000000001</ele>
        <time>2023-08-24T13:21:37Z</time>
      </trkpt>
      <trkpt lat="58.24241098947823" lon="-5.215566996484995">
        <ele>46.759999999999998</ele>
        <time>2023-08-24T13:21:38Z</time>
      </trkpt>
      <trkpt lat="58.242451976984739" lon="-5.215791966766119">
        <ele>47.240000000000002</ele>
        <time>2023-08-24T13:21:39Z</time>
      </trkpt>
      <trkpt lat="58.242977019399405" lon="-5.218200003728271">
        <ele>46.280000000000001</ele>
        <time>2023-08-24T13:21:48Z</time>
      </trkpt>
      <trkpt lat="58.24331296607852" lon="-5.21966096945107">
        <ele>44.359999999999999</ele>
        <time>2023-08-24T13:21:53Z</time>
      </trkpt>
      <trkpt lat="58.243346996605396" lon="-5.219964981079102">
        <ele>43.880000000000003</ele>
        <time>2023-08-24T13:21:54Z</time>
      </trkpt>
      <trkpt lat="58.243379015475512" lon="-5.220252983272076">
        <ele>43.399999999999999</ele>
        <time>2023-08-24T13:21:55Z</time>
      </trkpt>
      <trkpt lat="58.243416985496879" lon="-5.221263002604246">
        <ele>42.439999999999998</ele>
        <time>2023-08-24T13:21:59Z</time>
      </trkpt>
      <trkpt lat="58.243387984111905" lon="-5.221498031169176">
        <ele>42.439999999999998</ele>
        <time>2023-08-24T13:22:00Z</time>
      </trkpt>
      <trkpt lat="58.243337022140622" lon="-5.221696011722088">
        <ele>41.950000000000003</ele>
        <time>2023-08-24T13:22:01Z</time>
      </trkpt>
      <trkpt lat="58.24326803907752" lon="-5.2218749653548">
        <ele>41.469999999999999</ele>
        <time>2023-08-24T13:22:02Z</time>
      </trkpt>
      <trkpt lat="58.243177011609077" lon="-5.222004968672991">
        <ele>41.469999999999999</ele>
        <time>2023-08-24T13:22:03Z</time>
      </trkpt>
      <trkpt lat="58.243092019110918" lon="-5.222124997526407">
        <ele>41.469999999999999</ele>
        <time>2023-08-24T13:22:04Z</time>
      </trkpt>
      <trkpt lat="58.24301297776401" lon="-5.222236979752779">
        <ele>41.469999999999999</ele>
        <time>2023-08-24T13:22:05Z</time>
      </trkpt>
      <trkpt lat="58.242952963337302" lon="-5.222383998334408">
        <ele>40.990000000000002</ele>
        <time>2023-08-24T13:22:06Z</time>
      </trkpt>
      <trkpt lat="58.242894038558006" lon="-5.222530011087656">
        <ele>40.990000000000002</ele>
        <time>2023-08-24T13:22:07Z</time>
      </trkpt>
      <trkpt lat="58.242862019687891" lon="-5.222707958891988">
        <ele>40.990000000000002</ele>
        <time>2023-08-24T13:22:08Z</time>
      </trkpt>
      <trkpt lat="58.242835029959679" lon="-5.222908034920692">
        <ele>41.469999999999999</ele>
        <time>2023-08-24T13:22:09Z</time>
      </trkpt>
      <trkpt lat="58.242807034403086" lon="-5.22311900742352">
        <ele>41.469999999999999</ele>
        <time>2023-08-24T13:22:10Z</time>
      </trkpt>
      <trkpt lat="58.242741990834475" lon="-5.224022995680571">
        <ele>41.950000000000003</ele>
        <time>2023-08-24T13:22:14Z</time>
      </trkpt>
      <trkpt lat="58.242721036076546" lon="-5.224735960364342">
        <ele>40.030000000000001</ele>
        <time>2023-08-24T13:22:17Z</time>
      </trkpt>
      <trkpt lat="58.242765963077545" lon="-5.224940981715918">
        <ele>39.07</ele>
        <time>2023-08-24T13:22:18Z</time>
      </trkpt>
      <trkpt lat="58.242811979725957" lon="-5.225154971703887">
        <ele>38.109999999999999</ele>
        <time>2023-08-24T13:22:19Z</time>
      </trkpt>
      <trkpt lat="58.242898983880877" lon="-5.225322023034096">
        <ele>37.630000000000003</ele>
        <time>2023-08-24T13:22:20Z</time>
      </trkpt>
      <trkpt lat="58.242994034662843" lon="-5.225489996373653">
        <ele>36.670000000000002</ele>
        <time>2023-08-24T13:22:21Z</time>
      </trkpt>
      <trkpt lat="58.243093024939299" lon="-5.225664004683495">
        <ele>35.229999999999997</ele>
        <time>2023-08-24T13:22:22Z</time>
      </trkpt>
      <trkpt lat="58.243195032700896" lon="-5.225843964144588">
        <ele>33.780000000000001</ele>
        <time>2023-08-24T13:22:23Z</time>
      </trkpt>
      <trkpt lat="58.243288993835449" lon="-5.226031970232725">
        <ele>32.340000000000003</ele>
        <time>2023-08-24T13:22:24Z</time>
      </trkpt>
      <trkpt lat="58.243346996605396" lon="-5.226202961057425">
        <ele>30.899999999999999</ele>
        <time>2023-08-24T13:22:25Z</time>
      </trkpt>
      <trkpt lat="58.243378009647131" lon="-5.226292982697487">
        <ele>29.460000000000001</ele>
        <time>2023-08-24T13:22:26Z</time>
      </trkpt>
      <trkpt lat="58.243378009647131" lon="-5.226292982697487">
        <ele>28.02</ele>
        <time>2023-08-24T13:22:27Z</time>
      </trkpt>
      <trkpt lat="58.243427965790033" lon="-5.226436983793974">
        <ele>24.170000000000002</ele>
        <time>2023-08-24T13:22:38Z</time>
      </trkpt>
      <trkpt lat="58.243565009906888" lon="-5.226895976811647">
        <ele>16.960000000000001</ele>
        <time>2023-08-24T13:22:45Z</time>
      </trkpt>
      <trkpt lat="58.243574984371662" lon="-5.226935036480427">
        <ele>16.48</ele>
        <time>2023-08-24T13:22:46Z</time>
      </trkpt>
      <trkpt lat="58.243584036827087" lon="-5.226969989016652">
        <ele>15.52</ele>
        <time>2023-08-24T13:22:47Z</time>
      </trkpt>
      <trkpt lat="58.243593005463481" lon="-5.227004019543529">
        <ele>15.039999999999999</ele>
        <time>2023-08-24T13:22:48Z</time>
      </trkpt>
      <trkpt lat="58.243602979928255" lon="-5.227046012878418">
        <ele>14.56</ele>
        <time>2023-08-24T13:22:49Z</time>
      </trkpt>
      <trkpt lat="58.24361496604979" lon="-5.227088006213307">
        <ele>14.08</ele>
        <time>2023-08-24T13:22:50Z</time>
      </trkpt>
      <trkpt lat="58.243626030161977" lon="-5.227134022861719">
        <ele>13.6</ele>
        <time>2023-08-24T13:22:51Z</time>
      </trkpt>
      <trkpt lat="58.243640027940273" lon="-5.227188002318144">
        <ele>13.119999999999999</ele>
        <time>2023-08-24T13:22:52Z</time>
      </trkpt>
      <trkpt lat="58.24365796521306" lon="-5.227256985381246">
        <ele>12.630000000000001</ele>
        <time>2023-08-24T13:22:53Z</time>
      </trkpt>
      <trkpt lat="58.243680009618402" lon="-5.227343989536166">
        <ele>11.67</ele>
        <time>2023-08-24T13:22:55Z</time>
      </trkpt>
      <trkpt lat="58.243733989074826" lon="-5.227554962038994">
        <ele>11.19</ele>
        <time>2023-08-24T13:22:56Z</time>
      </trkpt>
      <trkpt lat="58.243829039856791" lon="-5.227924017235637">
        <ele>10.710000000000001</ele>
        <time>2023-08-24T13:22:59Z</time>
      </trkpt>
      <trkpt lat="58.244155012071133" lon="-5.229191025719047">
        <ele>9.75</ele>
        <time>2023-08-24T13:23:05Z</time>
      </trkpt>
      <trkpt lat="58.244464974850416" lon="-5.230393996462226">
        <ele>7.35</ele>
        <time>2023-08-24T13:23:11Z</time>
      </trkpt>
      <trkpt lat="58.244517026469111" lon="-5.230597006157041">
        <ele>7.35</ele>
        <time>2023-08-24T13:23:12Z</time>
      </trkpt>
      <trkpt lat="58.24502999894321" lon="-5.232613021507859">
        <ele>9.27</ele>
        <time>2023-08-24T13:23:22Z</time>
      </trkpt>
      <trkpt lat="58.24511700309813" lon="-5.233081988990307">
        <ele>9.27</ele>
        <time>2023-08-24T13:23:24Z</time>
      </trkpt>
      <trkpt lat="58.245132006704807" lon="-5.233221966773272">
        <ele>10.23</ele>
        <time>2023-08-24T13:23:25Z</time>
      </trkpt>
      <trkpt lat="58.245100993663073" lon="-5.233337972313166">
        <ele>10.710000000000001</ele>
        <time>2023-08-24T13:23:26Z</time>
      </trkpt>
      <trkpt lat="58.245055982843041" lon="-5.233449032530189">
        <ele>10.710000000000001</ele>
        <time>2023-08-24T13:23:27Z</time>
      </trkpt>
      <trkpt lat="58.244992028921843" lon="-5.23358004167676">
        <ele>10.710000000000001</ele>
        <time>2023-08-24T13:23:28Z</time>
      </trkpt>
      <trkpt lat="58.244917010888457" lon="-5.233735023066402">
        <ele>10.23</ele>
        <time>2023-08-24T13:23:29Z</time>
      </trkpt>
      <trkpt lat="58.244165992364287" lon="-5.23527997545898">
        <ele>13.119999999999999</ele>
        <time>2023-08-24T13:23:37Z</time>
      </trkpt>
      <trkpt lat="58.24352502822876" lon="-5.236200978979468">
        <ele>16</ele>
        <time>2023-08-24T13:23:44Z</time>
      </trkpt>
      <trkpt lat="58.242381988093257" lon="-5.237490031868219">
        <ele>17.440000000000001</ele>
        <time>2023-08-24T13:23:54Z</time>
      </trkpt>
      <trkpt lat="58.242291966453195" lon="-5.237591033801436">
        <ele>16.960000000000001</ele>
        <time>2023-08-24T13:23:56Z</time>
      </trkpt>
      <trkpt lat="58.241842025890946" lon="-5.239002965390682">
        <ele>17.440000000000001</ele>
        <time>2023-08-24T13:24:03Z</time>
      </trkpt>
      <trkpt lat="58.241760972887278" lon="-5.239173034206033">
        <ele>17.440000000000001</ele>
        <time>2023-08-24T13:24:04Z</time>
      </trkpt>
      <trkpt lat="58.2414869684726" lon="-5.239637978374958">
        <ele>17.440000000000001</ele>
        <time>2023-08-24T13:24:07Z</time>
      </trkpt>
      <trkpt lat="58.241385966539383" lon="-5.239752978086472">
        <ele>17.440000000000001</ele>
        <time>2023-08-24T13:24:08Z</time>
      </trkpt>
      <trkpt lat="58.241278007626534" lon="-5.239839982241392">
        <ele>17.440000000000001</ele>
        <time>2023-08-24T13:24:09Z</time>
      </trkpt>
      <trkpt lat="58.241164013743401" lon="-5.239893961697817">
        <ele>17.440000000000001</ele>
        <time>2023-08-24T13:24:10Z</time>
      </trkpt>
      <trkpt lat="58.241055971011519" lon="-5.239921035245061">
        <ele>17.920000000000002</ele>
        <time>2023-08-24T13:24:11Z</time>
      </trkpt>
      <trkpt lat="58.24094801209867" lon="-5.239948024973273">
        <ele>17.920000000000002</ele>
        <time>2023-08-24T13:24:12Z</time>
      </trkpt>
      <trkpt lat="58.24084198102355" lon="-5.239953976124525">
        <ele>17.920000000000002</ele>
        <time>2023-08-24T13:24:14Z</time>
      </trkpt>
      <trkpt lat="58.24058398604393" lon="-5.23989899083972">
        <ele>16.960000000000001</ele>
        <time>2023-08-24T13:24:20Z</time>
      </trkpt>
      <trkpt lat="58.240286009386182" lon="-5.23983595892787">
        <ele>16.48</ele>
        <time>2023-08-24T13:24:29Z</time>
      </trkpt>
      <trkpt lat="58.23987496085465" lon="-5.23974996060133">
        <ele>15.52</ele>
        <time>2023-08-24T13:24:33Z</time>
      </trkpt>
      <trkpt lat="58.239771025255322" lon="-5.239817015826702">
        <ele>15.52</ele>
        <time>2023-08-24T13:24:34Z</time>
      </trkpt>
      <trkpt lat="58.239642027765512" lon="-5.23989899083972">
        <ele>15.039999999999999</ele>
        <time>2023-08-24T13:24:35Z</time>
      </trkpt>
      <trkpt lat="58.239557035267353" lon="-5.240022959187627">
        <ele>15.039999999999999</ele>
        <time>2023-08-24T13:24:36Z</time>
      </trkpt>
      <trkpt lat="58.239457039162517" lon="-5.240168971940875">
        <ele>14.56</ele>
        <time>2023-08-24T13:24:37Z</time>
      </trkpt>
      <trkpt lat="58.238839963451028" lon="-5.241064997389913">
        <ele>18.399999999999999</ele>
        <time>2023-08-24T13:24:43Z</time>
      </trkpt>
      <trkpt lat="58.238749019801617" lon="-5.241198018193245">
        <ele>18.879999999999999</ele>
        <time>2023-08-24T13:24:44Z</time>
      </trkpt>
      <trkpt lat="58.238641982898116" lon="-5.241277981549501">
        <ele>19.84</ele>
        <time>2023-08-24T13:24:45Z</time>
      </trkpt>
      <trkpt lat="58.23852295987308" lon="-5.241288961842656">
        <ele>20.809999999999999</ele>
        <time>2023-08-24T13:24:46Z</time>
      </trkpt>
      <trkpt lat="58.238402009010315" lon="-5.241300025954843">
        <ele>22.25</ele>
        <time>2023-08-24T13:24:47Z</time>
      </trkpt>
      <trkpt lat="58.237538002431393" lon="-5.241228025406599">
        <ele>29.940000000000001</ele>
        <time>2023-08-24T13:24:54Z</time>
      </trkpt>
      <trkpt lat="58.237432977184653" lon="-5.241218972951174">
        <ele>30.899999999999999</ele>
        <time>2023-08-24T13:24:55Z</time>
      </trkpt>
      <trkpt lat="58.237341027706861" lon="-5.241268007084727">
        <ele>32.340000000000003</ele>
        <time>2023-08-24T13:24:56Z</time>
      </trkpt>
      <trkpt lat="58.236781032755971" lon="-5.241630021482706">
        <ele>38.590000000000003</ele>
        <time>2023-08-24T13:25:01Z</time>
      </trkpt>
      <trkpt lat="58.236678019165993" lon="-5.241775028407574">
        <ele>40.990000000000002</ele>
        <time>2023-08-24T13:25:02Z</time>
      </trkpt>
      <trkpt lat="58.235344961285591" lon="-5.243823984637857">
        <ele>64.549999999999997</ele>
        <time>2023-08-24T13:25:14Z</time>
      </trkpt>
      <trkpt lat="58.23469502851367" lon="-5.245087975636125">
        <ele>76.079999999999998</ele>
        <time>2023-08-24T13:25:21Z</time>
      </trkpt>
      <trkpt lat="58.234486989676952" lon="-5.245492989197373">
        <ele>77.519999999999996</ele>
        <time>2023-08-24T13:25:23Z</time>
      </trkpt>
      <trkpt lat="58.233241019770503" lon="-5.247299959883094">
        <ele>82.810000000000002</ele>
        <time>2023-08-24T13:25:33Z</time>
      </trkpt>
      <trkpt lat="58.232357986271381" lon="-5.248639974743128">
        <ele>86.180000000000007</ele>
        <time>2023-08-24T13:25:42Z</time>
      </trkpt>
      <trkpt lat="58.231542007997632" lon="-5.25006297044456">
        <ele>83.290000000000006</ele>
        <time>2023-08-24T13:25:49Z</time>
      </trkpt>
      <trkpt lat="58.231459027156234" lon="-5.250276960432529">
        <ele>82.810000000000002</ele>
        <time>2023-08-24T13:25:50Z</time>
      </trkpt>
      <trkpt lat="58.231388032436371" lon="-5.250518023967743">
        <ele>82.329999999999998</ele>
        <time>2023-08-24T13:25:51Z</time>
      </trkpt>
      <trkpt lat="58.231341009959579" lon="-5.250793034210801">
        <ele>81.849999999999994</ele>
        <time>2023-08-24T13:25:52Z</time>
      </trkpt>
      <trkpt lat="58.231295999139547" lon="-5.251079024747014">
        <ele>81.370000000000005</ele>
        <time>2023-08-24T13:25:53Z</time>
      </trkpt>
      <trkpt lat="58.231248976662755" lon="-5.251369960606098">
        <ele>80.409999999999997</ele>
        <time>2023-08-24T13:25:54Z</time>
      </trkpt>
      <trkpt lat="58.231105981394649" lon="-5.25227596051991">
        <ele>80.890000000000001</ele>
        <time>2023-08-24T13:25:58Z</time>
      </trkpt>
      <trkpt lat="58.231116961687803" lon="-5.252450974658132">
        <ele>81.370000000000005</ele>
        <time>2023-08-24T13:25:59Z</time>
      </trkpt>
      <trkpt lat="58.231139006093144" lon="-5.25266102515161">
        <ele>81.370000000000005</ele>
        <time>2023-08-24T13:26:00Z</time>
      </trkpt>
      <trkpt lat="58.231165995821357" lon="-5.252923965454102">
        <ele>81.370000000000005</ele>
        <time>2023-08-24T13:26:01Z</time>
      </trkpt>
      <trkpt lat="58.231213018298149" lon="-5.253161005675793">
        <ele>81.370000000000005</ele>
        <time>2023-08-24T13:26:02Z</time>
      </trkpt>
      <trkpt lat="58.231417033821344" lon="-5.254194997251034">
        <ele>80.409999999999997</ele>
        <time>2023-08-24T13:26:06Z</time>
      </trkpt>
      <trkpt lat="58.231465984135866" lon="-5.254447963088751">
        <ele>80.409999999999997</ele>
        <time>2023-08-24T13:26:07Z</time>
      </trkpt>
      <trkpt lat="58.231441006064415" lon="-5.254639992490411">
        <ele>80.409999999999997</ele>
        <time>2023-08-24T13:26:08Z</time>
      </trkpt>
      <trkpt lat="58.2314089871943" lon="-5.254872003570199">
        <ele>80.409999999999997</ele>
        <time>2023-08-24T13:26:09Z</time>
      </trkpt>
      <trkpt lat="58.231377974152565" lon="-5.255105020478368">
        <ele>80.890000000000001</ele>
        <time>2023-08-24T13:26:10Z</time>
      </trkpt>
      <trkpt lat="58.231316031888127" lon="-5.255563007667661">
        <ele>80.890000000000001</ele>
        <time>2023-08-24T13:26:12Z</time>
      </trkpt>
      <trkpt lat="58.231289964169264" lon="-5.25639901868999">
        <ele>80.890000000000001</ele>
        <time>2023-08-24T13:26:15Z</time>
      </trkpt>
      <trkpt lat="58.231274960562587" lon="-5.256854994222522">
        <ele>80.409999999999997</ele>
        <time>2023-08-24T13:26:17Z</time>
      </trkpt>
      <trkpt lat="58.231235984712839" lon="-5.25697804056108">
        <ele>79.930000000000007</ele>
        <time>2023-08-24T13:26:18Z</time>
      </trkpt>
      <trkpt lat="58.231179993599653" lon="-5.257070995867252">
        <ele>79.450000000000003</ele>
        <time>2023-08-24T13:26:19Z</time>
      </trkpt>
      <trkpt lat="58.231119979172945" lon="-5.257126986980438">
        <ele>78.969999999999999</ele>
        <time>2023-08-24T13:26:20Z</time>
      </trkpt>
      <trkpt lat="58.231018977239728" lon="-5.257115000858903">
        <ele>78.969999999999999</ele>
        <time>2023-08-24T13:26:21Z</time>
      </trkpt>
      <trkpt lat="58.230904983356595" lon="-5.257102008908987">
        <ele>78.480000000000004</ele>
        <time>2023-08-24T13:26:22Z</time>
      </trkpt>
      <trkpt lat="58.230781015008688" lon="-5.25708700530231">
        <ele>78</ele>
        <time>2023-08-24T13:26:23Z</time>
      </trkpt>
      <trkpt lat="58.230535006150603" lon="-5.257058003917337">
        <ele>78</ele>
        <time>2023-08-24T13:26:25Z</time>
      </trkpt>
      <trkpt lat="58.230419000610709" lon="-5.25704400613904">
        <ele>77.519999999999996</ele>
        <time>2023-08-24T13:26:26Z</time>
      </trkpt>
      <trkpt lat="58.230309030041099" lon="-5.257115000858903">
        <ele>77.519999999999996</ele>
        <time>2023-08-24T13:26:27Z</time>
      </trkpt>
      <trkpt lat="58.230183972045779" lon="-5.257197981700301">
        <ele>77.519999999999996</ele>
        <time>2023-08-24T13:26:28Z</time>
      </trkpt>
      <trkpt lat="58.23005698621273" lon="-5.257282974198461">
        <ele>77.040000000000006</ele>
        <time>2023-08-24T13:26:29Z</time>
      </trkpt>
      <trkpt lat="58.229729002341628" lon="-5.257583968341351">
        <ele>77.040000000000006</ele>
        <time>2023-08-24T13:26:32Z</time>
      </trkpt>
      <trkpt lat="58.229617020115256" lon="-5.257715983316302">
        <ele>77.040000000000006</ele>
        <time>2023-08-24T13:26:33Z</time>
      </trkpt>
      <trkpt lat="58.228614963591099" lon="-5.259583974257112">
        <ele>75.120000000000005</ele>
        <time>2023-08-24T13:26:42Z</time>
      </trkpt>
      <trkpt lat="58.228471968322992" lon="-5.260007008910179">
        <ele>74.640000000000001</ele>
        <time>2023-08-24T13:26:44Z</time>
      </trkpt>
      <trkpt lat="58.228435004130006" lon="-5.260200966149569">
        <ele>74.159999999999997</ele>
        <time>2023-08-24T13:26:45Z</time>
      </trkpt>
      <trkpt lat="58.228427041321993" lon="-5.260441023856401">
        <ele>73.680000000000007</ele>
        <time>2023-08-24T13:26:46Z</time>
      </trkpt>
      <trkpt lat="58.228439027443528" lon="-5.260698013007641">
        <ele>73.680000000000007</ele>
        <time>2023-08-24T13:26:47Z</time>
      </trkpt>
      <trkpt lat="58.228452019393444" lon="-5.26097696274519">
        <ele>73.200000000000003</ele>
        <time>2023-08-24T13:26:48Z</time>
      </trkpt>
      <trkpt lat="58.228488983586431" lon="-5.263469992205501">
        <ele>71.269999999999996</ele>
        <time>2023-08-24T13:26:56Z</time>
      </trkpt>
      <trkpt lat="58.228485966101289" lon="-5.263686999678612">
        <ele>71.760000000000005</ele>
        <time>2023-08-24T13:26:57Z</time>
      </trkpt>
      <trkpt lat="58.228468028828502" lon="-5.26389897800982">
        <ele>72.239999999999995</ele>
        <time>2023-08-24T13:26:58Z</time>
      </trkpt>
      <trkpt lat="58.228398039937019" lon="-5.264039039611816">
        <ele>72.239999999999995</ele>
        <time>2023-08-24T13:26:59Z</time>
      </trkpt>
      <trkpt lat="58.228284968063235" lon="-5.264174994081259">
        <ele>72.239999999999995</ele>
        <time>2023-08-24T13:27:00Z</time>
      </trkpt>
      <trkpt lat="58.22816401720047" lon="-5.264321006834507">
        <ele>71.760000000000005</ele>
        <time>2023-08-24T13:27:01Z</time>
      </trkpt>
      <trkpt lat="58.227317025884986" lon="-5.265345023944974">
        <ele>68.870000000000005</ele>
        <time>2023-08-24T13:27:08Z</time>
      </trkpt>
      <trkpt lat="58.227239996194839" lon="-5.265477960929275">
        <ele>67.909999999999997</ele>
        <time>2023-08-24T13:27:09Z</time>
      </trkpt>
      <trkpt lat="58.227184005081654" lon="-5.265654986724258">
        <ele>67.430000000000007</ele>
        <time>2023-08-24T13:27:10Z</time>
      </trkpt>
      <trkpt lat="58.227131031453609" lon="-5.265859002247453">
        <ele>66.950000000000003</ele>
        <time>2023-08-24T13:27:11Z</time>
      </trkpt>
      <trkpt lat="58.227120973169804" lon="-5.266106016933918">
        <ele>66.469999999999999</ele>
        <time>2023-08-24T13:27:12Z</time>
      </trkpt>
      <trkpt lat="58.22711200453341" lon="-5.26636702939868">
        <ele>66.469999999999999</ele>
        <time>2023-08-24T13:27:13Z</time>
      </trkpt>
      <trkpt lat="58.227097000926733" lon="-5.267090974375606">
        <ele>65.030000000000001</ele>
        <time>2023-08-24T13:27:16Z</time>
      </trkpt>
      <trkpt lat="58.227115022018552" lon="-5.267330026254058">
        <ele>64.549999999999997</ele>
        <time>2023-08-24T13:27:17Z</time>
      </trkpt>
      <trkpt lat="58.22713396511972" lon="-5.26759103871882">
        <ele>64.069999999999993</ele>
        <time>2023-08-24T13:27:18Z</time>
      </trkpt>
      <trkpt lat="58.227453986182809" lon="-5.270111979916692">
        <ele>58.299999999999997</ele>
        <time>2023-08-24T13:27:27Z</time>
      </trkpt>
      <trkpt lat="58.227991014719009" lon="-5.273062996566296">
        <ele>50.609999999999999</ele>
        <time>2023-08-24T13:27:38Z</time>
      </trkpt>
      <trkpt lat="58.228636002168059" lon="-5.276194978505373">
        <ele>40.509999999999998</ele>
        <time>2023-08-24T13:27:49Z</time>
      </trkpt>
      <trkpt lat="58.229554994031787" lon="-5.279770027846098">
        <ele>30.420000000000002</ele>
        <time>2023-08-24T13:28:01Z</time>
      </trkpt>
      <trkpt lat="58.230301989242435" lon="-5.283335018903017">
        <ele>24.649999999999999</ele>
        <time>2023-08-24T13:28:13Z</time>
      </trkpt>
      <trkpt lat="58.230512039735913" lon="-5.284239007160068">
        <ele>23.690000000000001</ele>
        <time>2023-08-24T13:28:18Z</time>
      </trkpt>
      <trkpt lat="58.230561995878816" lon="-5.284386025741696">
        <ele>23.690000000000001</ele>
        <time>2023-08-24T13:28:19Z</time>
      </trkpt>
      <trkpt lat="58.230814039707184" lon="-5.285145007073879">
        <ele>23.210000000000001</ele>
        <time>2023-08-24T13:28:23Z</time>
      </trkpt>
      <trkpt lat="58.230868019163609" lon="-5.285387998446822">
        <ele>22.73</ele>
        <time>2023-08-24T13:28:24Z</time>
      </trkpt>
      <trkpt lat="58.230908000841737" lon="-5.285658985376358">
        <ele>22.73</ele>
        <time>2023-08-24T13:28:25Z</time>
      </trkpt>
      <trkpt lat="58.231286024674773" lon="-5.28899297118187">
        <ele>23.210000000000001</ele>
        <time>2023-08-24T13:28:36Z</time>
      </trkpt>
      <trkpt lat="58.231375962495804" lon="-5.290160989388824">
        <ele>23.210000000000001</ele>
        <time>2023-08-24T13:28:40Z</time>
      </trkpt>
      <trkpt lat="58.231370011344552" lon="-5.290429964661598">
        <ele>23.690000000000001</ele>
        <time>2023-08-24T13:28:41Z</time>
      </trkpt>
      <trkpt lat="58.231349978595972" lon="-5.290702963247895">
        <ele>23.690000000000001</ele>
        <time>2023-08-24T13:28:42Z</time>
      </trkpt>
      <trkpt lat="58.231057031080127" lon="-5.293229017406702">
        <ele>24.170000000000002</ele>
        <time>2023-08-24T13:28:51Z</time>
      </trkpt>
      <trkpt lat="58.230960974469781" lon="-5.293862018734217">
        <ele>25.609999999999999</ele>
        <time>2023-08-24T13:28:54Z</time>
      </trkpt>
      <trkpt lat="58.230866007506847" lon="-5.294416984543204">
        <ele>27.530000000000001</ele>
        <time>2023-08-24T13:28:57Z</time>
      </trkpt>
      <trkpt lat="58.230866007506847" lon="-5.294571965932846">
        <ele>28.5</ele>
        <time>2023-08-24T13:28:58Z</time>
      </trkpt>
      <trkpt lat="58.230866007506847" lon="-5.294700041413307">
        <ele>29.460000000000001</ele>
        <time>2023-08-24T13:28:59Z</time>
      </trkpt>
      <trkpt lat="58.230866007506847" lon="-5.294800037518144">
        <ele>30.420000000000002</ele>
        <time>2023-08-24T13:29:00Z</time>
      </trkpt>
      <trkpt lat="58.230866007506847" lon="-5.294809006154537">
        <ele>31.379999999999999</ele>
        <time>2023-08-24T13:29:01Z</time>
      </trkpt>
      <trkpt lat="58.230836000293493" lon="-5.29494202695787">
        <ele>31.859999999999999</ele>
        <time>2023-08-24T13:29:02Z</time>
      </trkpt>
      <trkpt lat="58.230814961716533" lon="-5.295013021677733">
        <ele>32.82</ele>
        <time>2023-08-24T13:29:03Z</time>
      </trkpt>
      <trkpt lat="58.230758970603347" lon="-5.295089967548847">
        <ele>33.299999999999997</ele>
        <time>2023-08-24T13:29:04Z</time>
      </trkpt>
      <trkpt lat="58.230689987540245" lon="-5.295186024159193">
        <ele>33.299999999999997</ele>
        <time>2023-08-24T13:29:05Z</time>
      </trkpt>
      <trkpt lat="58.229936035349965" lon="-5.296198977157474">
        <ele>30.420000000000002</ele>
        <time>2023-08-24T13:29:13Z</time>
      </trkpt>
      <trkpt lat="58.228887040168047" lon="-5.297389039769769">
        <ele>26.57</ele>
        <time>2023-08-24T13:29:23Z</time>
      </trkpt>
      <trkpt lat="58.228826019912958" lon="-5.297552989795804">
        <ele>27.050000000000001</ele>
        <time>2023-08-24T13:29:24Z</time>
      </trkpt>
      <trkpt lat="58.228784026578069" lon="-5.297662960365415">
        <ele>27.050000000000001</ele>
        <time>2023-08-24T13:29:25Z</time>
      </trkpt>
      <trkpt lat="58.228757958859205" lon="-5.297911986708641">
        <ele>27.050000000000001</ele>
        <time>2023-08-24T13:29:26Z</time>
      </trkpt>
      <trkpt lat="58.228738009929657" lon="-5.298105021938682">
        <ele>27.530000000000001</ele>
        <time>2023-08-24T13:29:27Z</time>
      </trkpt>
      <trkpt lat="58.228718983009458" lon="-5.29829503968358">
        <ele>28.02</ele>
        <time>2023-08-24T13:29:28Z</time>
      </trkpt>
      <trkpt lat="58.228681012988091" lon="-5.298654958605766">
        <ele>28.98</ele>
        <time>2023-08-24T13:29:30Z</time>
      </trkpt>
      <trkpt lat="58.228630973026156" lon="-5.298823015764356">
        <ele>28.98</ele>
        <time>2023-08-24T13:29:31Z</time>
      </trkpt>
      <trkpt lat="58.228570036590099" lon="-5.298994006589055">
        <ele>28.98</ele>
        <time>2023-08-24T13:29:32Z</time>
      </trkpt>
      <trkpt lat="58.228505998849869" lon="-5.299094002693892">
        <ele>28.98</ele>
        <time>2023-08-24T13:29:33Z</time>
      </trkpt>
      <trkpt lat="58.228428969159722" lon="-5.299213025718927">
        <ele>28.98</ele>
        <time>2023-08-24T13:29:34Z</time>
      </trkpt>
      <trkpt lat="58.228061003610492" lon="-5.299781989306212">
        <ele>31.379999999999999</ele>
        <time>2023-08-24T13:29:39Z</time>
      </trkpt>
      <trkpt lat="58.22777995839715" lon="-5.300062028691173">
        <ele>31.859999999999999</ele>
        <time>2023-08-24T13:29:43Z</time>
      </trkpt>
      <trkpt lat="58.227679040282965" lon="-5.30016303062439">
        <ele>31.859999999999999</ele>
        <time>2023-08-24T13:29:50Z</time>
      </trkpt>
      <trkpt lat="58.227679040282965" lon="-5.30016303062439">
        <ele>31.859999999999999</ele>
        <time>2023-08-24T13:30:35Z</time>
      </trkpt>
      <trkpt lat="58.227679040282965" lon="-5.30016303062439">
        <ele>31.379999999999999</ele>
        <time>2023-08-24T13:31:27Z</time>
      </trkpt>
      <trkpt lat="58.227496985346079" lon="-5.300345001742244">
        <ele>30.420000000000002</ele>
        <time>2023-08-24T13:31:42Z</time>
      </trkpt>
      <trkpt lat="58.227323982864618" lon="-5.300519010052085">
        <ele>30.420000000000002</ele>
        <time>2023-08-24T13:31:45Z</time>
      </trkpt>
      <trkpt lat="58.226931039243937" lon="-5.300912037491798">
        <ele>28.5</ele>
        <time>2023-08-24T13:31:51Z</time>
      </trkpt>
      <trkpt lat="58.2264459785074" lon="-5.30179699882865">
        <ele>26.57</ele>
        <time>2023-08-24T13:31:59Z</time>
      </trkpt>
      <trkpt lat="58.226311029866338" lon="-5.302221039310098">
        <ele>26.09</ele>
        <time>2023-08-24T13:32:01Z</time>
      </trkpt>
      <trkpt lat="58.2262940146029" lon="-5.302390018478036">
        <ele>26.09</ele>
        <time>2023-08-24T13:32:02Z</time>
      </trkpt>
      <trkpt lat="58.2262749876827" lon="-5.302566960453987">
        <ele>25.609999999999999</ele>
        <time>2023-08-24T13:32:03Z</time>
      </trkpt>
      <trkpt lat="58.226256966590881" lon="-5.302740968763828">
        <ele>25.609999999999999</ele>
        <time>2023-08-24T13:32:04Z</time>
      </trkpt>
      <trkpt lat="58.226240035146475" lon="-5.302907014265657">
        <ele>25.609999999999999</ele>
        <time>2023-08-24T13:32:05Z</time>
      </trkpt>
      <trkpt lat="58.226224025711417" lon="-5.303055960685015">
        <ele>25.129999999999999</ele>
        <time>2023-08-24T13:32:07Z</time>
      </trkpt>
      <trkpt lat="58.226167028769851" lon="-5.303328037261963">
        <ele>24.649999999999999</ele>
        <time>2023-08-24T13:32:08Z</time>
      </trkpt>
      <trkpt lat="58.226125035434961" lon="-5.303450999781489">
        <ele>24.649999999999999</ele>
        <time>2023-08-24T13:32:09Z</time>
      </trkpt>
      <trkpt lat="58.226085975766182" lon="-5.303520988672972">
        <ele>24.170000000000002</ele>
        <time>2023-08-24T13:32:10Z</time>
      </trkpt>
      <trkpt lat="58.225954966619611" lon="-5.303747970610857">
        <ele>22.73</ele>
        <time>2023-08-24T13:32:15Z</time>
      </trkpt>
      <trkpt lat="58.225922025740147" lon="-5.303803961724043">
        <ele>22.25</ele>
        <time>2023-08-24T13:32:16Z</time>
      </trkpt>
      <trkpt lat="58.225884977728128" lon="-5.303867999464274">
        <ele>22.25</ele>
        <time>2023-08-24T13:32:17Z</time>
      </trkpt>
      <trkpt lat="58.225840972736478" lon="-5.303944023326039">
        <ele>21.77</ele>
        <time>2023-08-24T13:32:18Z</time>
      </trkpt>
      <trkpt lat="58.225793028250337" lon="-5.304025998339057">
        <ele>21.77</ele>
        <time>2023-08-24T13:32:19Z</time>
      </trkpt>
      <trkpt lat="58.225679034367204" lon="-5.304158013314009">
        <ele>21.289999999999999</ele>
        <time>2023-08-24T13:32:21Z</time>
      </trkpt>
      <trkpt lat="58.225616002455354" lon="-5.304197994992137">
        <ele>21.289999999999999</ele>
        <time>2023-08-24T13:32:22Z</time>
      </trkpt>
      <trkpt lat="58.225552970543504" lon="-5.304236970841885">
        <ele>21.77</ele>
        <time>2023-08-24T13:32:23Z</time>
      </trkpt>
      <trkpt lat="58.225493039935827" lon="-5.304275024682283">
        <ele>21.77</ele>
        <time>2023-08-24T13:32:24Z</time>
      </trkpt>
      <trkpt lat="58.22543696500361" lon="-5.304309977218509">
        <ele>21.77</ele>
        <time>2023-08-24T13:32:25Z</time>
      </trkpt>
      <trkpt lat="58.225388014689088" lon="-5.304345013573766">
        <ele>21.77</ele>
        <time>2023-08-24T13:32:26Z</time>
      </trkpt>
      <trkpt lat="58.225344009697437" lon="-5.304411984980106">
        <ele>21.77</ele>
        <time>2023-08-24T13:32:27Z</time>
      </trkpt>
      <trkpt lat="58.225304028019309" lon="-5.304485997185111">
        <ele>22.25</ele>
        <time>2023-08-24T13:32:28Z</time>
      </trkpt>
      <trkpt lat="58.225283995270729" lon="-5.304588004946709">
        <ele>22.25</ele>
        <time>2023-08-24T13:32:29Z</time>
      </trkpt>
      <trkpt lat="58.22526203468442" lon="-5.304694036021829">
        <ele>22.73</ele>
        <time>2023-08-24T13:32:30Z</time>
      </trkpt>
      <trkpt lat="58.225240996107459" lon="-5.304799983277917">
        <ele>23.210000000000001</ele>
        <time>2023-08-24T13:32:31Z</time>
      </trkpt>
      <trkpt lat="58.22522196918726" lon="-5.304895034059882">
        <ele>23.210000000000001</ele>
        <time>2023-08-24T13:32:32Z</time>
      </trkpt>
      <trkpt lat="58.225182993337512" lon="-5.305011039599776">
        <ele>23.690000000000001</ele>
        <time>2023-08-24T13:32:33Z</time>
      </trkpt>
      <trkpt lat="58.225146029144526" lon="-5.305125033482909">
        <ele>24.170000000000002</ele>
        <time>2023-08-24T13:32:34Z</time>
      </trkpt>
      <trkpt lat="58.225106969475746" lon="-5.305239027366042">
        <ele>24.649999999999999</ele>
        <time>2023-08-24T13:32:35Z</time>
      </trkpt>
      <trkpt lat="58.225024994462729" lon="-5.305485958233476">
        <ele>25.609999999999999</ele>
        <time>2023-08-24T13:32:37Z</time>
      </trkpt>
      <trkpt lat="58.224980989471078" lon="-5.305632976815105">
        <ele>26.09</ele>
        <time>2023-08-24T13:32:38Z</time>
      </trkpt>
      <trkpt lat="58.224582010880113" lon="-5.307322014123201">
        <ele>28.98</ele>
        <time>2023-08-24T13:32:49Z</time>
      </trkpt>
      <trkpt lat="58.224432980641723" lon="-5.307875974103808">
        <ele>28.02</ele>
        <time>2023-08-24T13:32:54Z</time>
      </trkpt>
      <trkpt lat="58.224301971495152" lon="-5.308367991819978">
        <ele>26.09</ele>
        <time>2023-08-24T13:33:00Z</time>
      </trkpt>
      <trkpt lat="58.224182026460767" lon="-5.30869597569108">
        <ele>25.129999999999999</ele>
        <time>2023-08-24T13:33:02Z</time>
      </trkpt>
      <trkpt lat="58.224135003983974" lon="-5.308793960139155">
        <ele>24.649999999999999</ele>
        <time>2023-08-24T13:33:03Z</time>
      </trkpt>
      <trkpt lat="58.224074989557266" lon="-5.308863027021289">
        <ele>24.170000000000002</ele>
        <time>2023-08-24T13:33:04Z</time>
      </trkpt>
      <trkpt lat="58.223950015380979" lon="-5.309005016461015">
        <ele>23.210000000000001</ele>
        <time>2023-08-24T13:33:06Z</time>
      </trkpt>
      <trkpt lat="58.223882960155606" lon="-5.3090800344944">
        <ele>22.73</ele>
        <time>2023-08-24T13:33:07Z</time>
      </trkpt>
      <trkpt lat="58.223818000406027" lon="-5.309159997850657">
        <ele>21.77</ele>
        <time>2023-08-24T13:33:08Z</time>
      </trkpt>
      <trkpt lat="58.223756980150938" lon="-5.309264017269015">
        <ele>21.289999999999999</ele>
        <time>2023-08-24T13:33:10Z</time>
      </trkpt>
      <trkpt lat="58.223585989326239" lon="-5.30963902361691">
        <ele>20.32</ele>
        <time>2023-08-24T13:33:12Z</time>
      </trkpt>
      <trkpt lat="58.223532009869814" lon="-5.309780007228255">
        <ele>20.32</ele>
        <time>2023-08-24T13:33:13Z</time>
      </trkpt>
      <trkpt lat="58.22331097908318" lon="-5.310355005785823">
        <ele>20.809999999999999</ele>
        <time>2023-08-24T13:33:18Z</time>
      </trkpt>
      <trkpt lat="58.223107969388366" lon="-5.311008039861918">
        <ele>22.73</ele>
        <time>2023-08-24T13:33:21Z</time>
      </trkpt>
      <trkpt lat="58.223069999366999" lon="-5.311193028464913">
        <ele>23.690000000000001</ele>
        <time>2023-08-24T13:33:22Z</time>
      </trkpt>
      <trkpt lat="58.222947036847472" lon="-5.312335984781385">
        <ele>24.649999999999999</ele>
        <time>2023-08-24T13:33:29Z</time>
      </trkpt>
      <trkpt lat="58.222934966906905" lon="-5.312690958380699">
        <ele>25.129999999999999</ele>
        <time>2023-08-24T13:33:30Z</time>
      </trkpt>
      <trkpt lat="58.222976038232446" lon="-5.313217006623745">
        <ele>26.57</ele>
        <time>2023-08-24T13:33:33Z</time>
      </trkpt>
      <trkpt lat="58.222989030182362" lon="-5.313423033803701">
        <ele>27.530000000000001</ele>
        <time>2023-08-24T13:33:34Z</time>
      </trkpt>
      <trkpt lat="58.222953993827105" lon="-5.313633000478149">
        <ele>28.5</ele>
        <time>2023-08-24T13:33:35Z</time>
      </trkpt>
      <trkpt lat="58.222904959693551" lon="-5.313855037093163">
        <ele>28.98</ele>
        <time>2023-08-24T13:33:36Z</time>
      </trkpt>
      <trkpt lat="58.22283698245883" lon="-5.314032984897494">
        <ele>29.940000000000001</ele>
        <time>2023-08-24T13:33:37Z</time>
      </trkpt>
      <trkpt lat="58.222778979688883" lon="-5.314185032621026">
        <ele>32.340000000000003</ele>
        <time>2023-08-24T13:33:39Z</time>
      </trkpt>
      <trkpt lat="58.222688036039472" lon="-5.314421989023686">
        <ele>33.299999999999997</ele>
        <time>2023-08-24T13:33:40Z</time>
      </trkpt>
      <trkpt lat="58.222645036876202" lon="-5.31453900039196">
        <ele>33.780000000000001</ele>
        <time>2023-08-24T13:33:41Z</time>
      </trkpt>
      <trkpt lat="58.222617963328958" lon="-5.314674032852054">
        <ele>34.740000000000002</ele>
        <time>2023-08-24T13:33:42Z</time>
      </trkpt>
      <trkpt lat="58.22259902022779" lon="-5.31477302312851">
        <ele>37.149999999999999</ele>
        <time>2023-08-24T13:33:47Z</time>
      </trkpt>
      <trkpt lat="58.222506986930966" lon="-5.315228998661041">
        <ele>40.030000000000001</ele>
        <time>2023-08-24T13:33:54Z</time>
      </trkpt>
      <trkpt lat="58.222444960847497" lon="-5.315542984753847">
        <ele>40.990000000000002</ele>
        <time>2023-08-24T13:33:56Z</time>
      </trkpt>
      <trkpt lat="58.222291991114616" lon="-5.316040031611919">
        <ele>42.439999999999998</ele>
        <time>2023-08-24T13:33:59Z</time>
      </trkpt>
      <trkpt lat="58.222224013879895" lon="-5.316195013001561">
        <ele>43.399999999999999</ele>
        <time>2023-08-24T13:34:00Z</time>
      </trkpt>
      <trkpt lat="58.222156036645174" lon="-5.316351000219584">
        <ele>43.880000000000003</ele>
        <time>2023-08-24T13:34:01Z</time>
      </trkpt>
      <trkpt lat="58.22208596393466" lon="-5.316512016579509">
        <ele>44.359999999999999</ele>
        <time>2023-08-24T13:34:02Z</time>
      </trkpt>
      <trkpt lat="58.222011029720306" lon="-5.316682001575828">
        <ele>44.840000000000003</ele>
        <time>2023-08-24T13:34:03Z</time>
      </trkpt>
      <trkpt lat="58.221939029172063" lon="-5.316846035420895">
        <ele>45.799999999999997</ele>
        <time>2023-08-24T13:34:04Z</time>
      </trkpt>
      <trkpt lat="58.221874991431832" lon="-5.317067988216877">
        <ele>46.280000000000001</ele>
        <time>2023-08-24T13:34:05Z</time>
      </trkpt>
      <trkpt lat="58.221812965348363" lon="-5.317283989861608">
        <ele>46.759999999999998</ele>
        <time>2023-08-24T13:34:06Z</time>
      </trkpt>
      <trkpt lat="58.221476012840867" lon="-5.319280978292227">
        <ele>51.57</ele>
        <time>2023-08-24T13:34:14Z</time>
      </trkpt>
      <trkpt lat="58.221341986209154" lon="-5.32023299485445">
        <ele>54.450000000000003</ele>
        <time>2023-08-24T13:34:18Z</time>
      </trkpt>
      <trkpt lat="58.221283983439207" lon="-5.320428041741252">
        <ele>55.409999999999997</ele>
        <time>2023-08-24T13:34:19Z</time>
      </trkpt>
      <trkpt lat="58.221220029518008" lon="-5.320628033950925">
        <ele>56.369999999999997</ele>
        <time>2023-08-24T13:34:20Z</time>
      </trkpt>
      <trkpt lat="58.221154985949397" lon="-5.32083397731185">
        <ele>56.859999999999999</ele>
        <time>2023-08-24T13:34:21Z</time>
      </trkpt>
      <trkpt lat="58.221089020371437" lon="-5.321037992835045">
        <ele>57.82</ele>
        <time>2023-08-24T13:34:22Z</time>
      </trkpt>
      <trkpt lat="58.220952982082963" lon="-5.321368994191289">
        <ele>59.259999999999998</ele>
        <time>2023-08-24T13:34:24Z</time>
      </trkpt>
      <trkpt lat="58.220874024555087" lon="-5.321495980024338">
        <ele>59.740000000000002</ele>
        <time>2023-08-24T13:34:25Z</time>
      </trkpt>
      <trkpt lat="58.220790959894657" lon="-5.32162900082767">
        <ele>59.740000000000002</ele>
        <time>2023-08-24T13:34:26Z</time>
      </trkpt>
      <trkpt lat="58.220704961568117" lon="-5.321766966953874">
        <ele>60.219999999999999</ele>
        <time>2023-08-24T13:34:27Z</time>
      </trkpt>
      <trkpt lat="58.220609994605184" lon="-5.321919014677405">
        <ele>60.219999999999999</ele>
        <time>2023-08-24T13:34:28Z</time>
      </trkpt>
      <trkpt lat="58.220047987997532" lon="-5.322883017361164">
        <ele>60.700000000000003</ele>
        <time>2023-08-24T13:34:35Z</time>
      </trkpt>
      <trkpt lat="58.22000096552074" lon="-5.322975972667337">
        <ele>60.700000000000003</ele>
        <time>2023-08-24T13:34:42Z</time>
      </trkpt>
      <trkpt lat="58.21995603851974" lon="-5.323064988479018">
        <ele>60.700000000000003</ele>
        <time>2023-08-24T13:34:43Z</time>
      </trkpt>
      <trkpt lat="58.219898035749793" lon="-5.323179988190532">
        <ele>60.219999999999999</ele>
        <time>2023-08-24T13:34:44Z</time>
      </trkpt>
      <trkpt lat="58.219813965260983" lon="-5.323277972638607">
        <ele>60.219999999999999</ele>
        <time>2023-08-24T13:34:45Z</time>
      </trkpt>
      <trkpt lat="58.21972000412643" lon="-5.323387021198869">
        <ele>59.740000000000002</ele>
        <time>2023-08-24T13:34:46Z</time>
      </trkpt>
      <trkpt lat="58.219616990536451" lon="-5.323506966233254">
        <ele>59.259999999999998</ele>
        <time>2023-08-24T13:34:47Z</time>
      </trkpt>
      <trkpt lat="58.218787014484406" lon="-5.324471974745393">
        <ele>57.340000000000003</ele>
        <time>2023-08-24T13:34:56Z</time>
      </trkpt>
      <trkpt lat="58.217884032055736" lon="-5.325865969061852">
        <ele>59.259999999999998</ele>
        <time>2023-08-24T13:35:06Z</time>
      </trkpt>
      <trkpt lat="58.217598041519523" lon="-5.326683036983013">
        <ele>61.18</ele>
        <time>2023-08-24T13:35:10Z</time>
      </trkpt>
      <trkpt lat="58.216931009665132" lon="-5.329102976247668">
        <ele>65.510000000000005</ele>
        <time>2023-08-24T13:35:20Z</time>
      </trkpt>
      <trkpt lat="58.216129029169679" lon="-5.331793986260891">
        <ele>64.549999999999997</ele>
        <time>2023-08-24T13:35:32Z</time>
      </trkpt>
      <trkpt lat="58.215926019474864" lon="-5.332453977316618">
        <ele>63.579999999999998</ele>
        <time>2023-08-24T13:35:35Z</time>
      </trkpt>
      <trkpt lat="58.215438025072217" lon="-5.333369029685855">
        <ele>58.299999999999997</ele>
        <time>2023-08-24T13:35:40Z</time>
      </trkpt>
      <trkpt lat="58.215309027582407" lon="-5.333495009690523">
        <ele>57.340000000000003</ele>
        <time>2023-08-24T13:35:41Z</time>
      </trkpt>
      <trkpt lat="58.215181035920978" lon="-5.333620989695191">
        <ele>56.369999999999997</ele>
        <time>2023-08-24T13:35:43Z</time>
      </trkpt>
      <trkpt lat="58.213710011914372" lon="-5.335070975124836">
        <ele>54.93</ele>
        <time>2023-08-24T13:35:53Z</time>
      </trkpt>
      <trkpt lat="58.212577030062675" lon="-5.336188031360507">
        <ele>56.859999999999999</ele>
        <time>2023-08-24T13:36:03Z</time>
      </trkpt>
      <trkpt lat="58.212454989552498" lon="-5.336308982223272">
        <ele>57.340000000000003</ele>
        <time>2023-08-24T13:36:04Z</time>
      </trkpt>
      <trkpt lat="58.211360983550549" lon="-5.337467025965452">
        <ele>64.069999999999993</ele>
        <time>2023-08-24T13:36:14Z</time>
      </trkpt>
      <trkpt lat="58.211259981617332" lon="-5.337488986551762">
        <ele>65.989999999999995</ele>
        <time>2023-08-24T13:36:16Z</time>
      </trkpt>
      <trkpt lat="58.210595967248082" lon="-5.337632987648249">
        <ele>71.760000000000005</ele>
        <time>2023-08-24T13:36:23Z</time>
      </trkpt>
      <trkpt lat="58.210214003920555" lon="-5.337716974318028">
        <ele>73.200000000000003</ele>
        <time>2023-08-24T13:36:26Z</time>
      </trkpt>
      <trkpt lat="58.209108011797071" lon="-5.33795703202486">
        <ele>72.719999999999999</ele>
        <time>2023-08-24T13:36:33Z</time>
      </trkpt>
      <trkpt lat="58.208235036581755" lon="-5.338188037276268">
        <ele>69.829999999999998</ele>
        <time>2023-08-24T13:36:39Z</time>
      </trkpt>
      <trkpt lat="58.2080979924649" lon="-5.338251991197467">
        <ele>68.870000000000005</ele>
        <time>2023-08-24T13:36:40Z</time>
      </trkpt>
      <trkpt lat="58.207963965833187" lon="-5.338373025879264">
        <ele>68.390000000000001</ele>
        <time>2023-08-24T13:36:41Z</time>
      </trkpt>
      <trkpt lat="58.206524960696697" lon="-5.339791998267174">
        <ele>65.510000000000005</ele>
        <time>2023-08-24T13:36:51Z</time>
      </trkpt>
      <trkpt lat="58.206368973478675" lon="-5.339874979108572">
        <ele>65.510000000000005</ele>
        <time>2023-08-24T13:36:52Z</time>
      </trkpt>
      <trkpt lat="58.20573496632278" lon="-5.340284015983343">
        <ele>65.989999999999995</ele>
        <time>2023-08-24T13:36:58Z</time>
      </trkpt>
      <trkpt lat="58.205588031560183" lon="-5.340489037334919">
        <ele>65.989999999999995</ele>
        <time>2023-08-24T13:36:59Z</time>
      </trkpt>
      <trkpt lat="58.205512007698417" lon="-5.340609988197684">
        <ele>65.989999999999995</ele>
        <time>2023-08-24T13:37:00Z</time>
      </trkpt>
      <trkpt lat="58.205445036292076" lon="-5.340787013992667">
        <ele>65.989999999999995</ele>
        <time>2023-08-24T13:37:01Z</time>
      </trkpt>
      <trkpt lat="58.205318972468376" lon="-5.341121032834053">
        <ele>65.030000000000001</ele>
        <time>2023-08-24T13:37:03Z</time>
      </trkpt>
      <trkpt lat="58.205250995233655" lon="-5.34124500118196">
        <ele>64.549999999999997</ele>
        <time>2023-08-24T13:37:04Z</time>
      </trkpt>
      <trkpt lat="58.205181006342173" lon="-5.34132999368012">
        <ele>64.069999999999993</ele>
        <time>2023-08-24T13:37:05Z</time>
      </trkpt>
      <trkpt lat="58.205069024115801" lon="-5.341376010328531">
        <ele>63.100000000000001</ele>
        <time>2023-08-24T13:37:06Z</time>
      </trkpt>
      <trkpt lat="58.204963998869061" lon="-5.341420015320182">
        <ele>62.619999999999997</ele>
        <time>2023-08-24T13:37:07Z</time>
      </trkpt>
      <trkpt lat="58.204858973622322" lon="-5.341413980349898">
        <ele>62.140000000000001</ele>
        <time>2023-08-24T13:37:08Z</time>
      </trkpt>
      <trkpt lat="58.204744979739189" lon="-5.34137299284339">
        <ele>61.659999999999997</ele>
        <time>2023-08-24T13:37:09Z</time>
      </trkpt>
      <trkpt lat="58.204629980027676" lon="-5.341332005336881">
        <ele>61.18</ele>
        <time>2023-08-24T13:37:10Z</time>
      </trkpt>
      <trkpt lat="58.2045319955796" lon="-5.341248018667102">
        <ele>60.219999999999999</ele>
        <time>2023-08-24T13:37:11Z</time>
      </trkpt>
      <trkpt lat="58.204421019181609" lon="-5.341151040047407">
        <ele>59.259999999999998</ele>
        <time>2023-08-24T13:37:12Z</time>
      </trkpt>
      <trkpt lat="58.203389961272478" lon="-5.340184019878507">
        <ele>53.969999999999999</ele>
        <time>2023-08-24T13:37:22Z</time>
      </trkpt>
      <trkpt lat="58.203297005966306" lon="-5.34004001878202">
        <ele>53.969999999999999</ele>
        <time>2023-08-24T13:37:23Z</time>
      </trkpt>
      <trkpt lat="58.203216958791018" lon="-5.339872967451811">
        <ele>53.969999999999999</ele>
        <time>2023-08-24T13:37:24Z</time>
      </trkpt>
      <trkpt lat="58.203144036233425" lon="-5.339701976627111">
        <ele>53.969999999999999</ele>
        <time>2023-08-24T13:37:25Z</time>
      </trkpt>
      <trkpt lat="58.203104976564646" lon="-5.33952696248889">
        <ele>53.490000000000002</ele>
        <time>2023-08-24T13:37:26Z</time>
      </trkpt>
      <trkpt lat="58.203067006543279" lon="-5.339345997199416">
        <ele>53.009999999999998</ele>
        <time>2023-08-24T13:37:27Z</time>
      </trkpt>
      <trkpt lat="58.203029036521912" lon="-5.339167965576053">
        <ele>53.009999999999998</ele>
        <time>2023-08-24T13:37:28Z</time>
      </trkpt>
      <trkpt lat="58.202990982681513" lon="-5.338994041085243">
        <ele>51.57</ele>
        <time>2023-08-24T13:37:30Z</time>
      </trkpt>
      <trkpt lat="58.20289702154696" lon="-5.338719030842185">
        <ele>50.609999999999999</ele>
        <time>2023-08-24T13:37:31Z</time>
      </trkpt>
      <trkpt lat="58.20283398963511" lon="-5.338625991716981">
        <ele>50.130000000000003</ele>
        <time>2023-08-24T13:37:32Z</time>
      </trkpt>
      <trkpt lat="58.202772969380021" lon="-5.338535970076919">
        <ele>49.649999999999999</ele>
        <time>2023-08-24T13:37:33Z</time>
      </trkpt>
      <trkpt lat="58.202472981065512" lon="-5.338274035602808">
        <ele>47.240000000000002</ele>
        <time>2023-08-24T13:37:37Z</time>
      </trkpt>
      <trkpt lat="58.202392011880875" lon="-5.338216032832861">
        <ele>45.799999999999997</ele>
        <time>2023-08-24T13:37:39Z</time>
      </trkpt>
      <trkpt lat="58.201330024749041" lon="-5.33761203289032">
        <ele>36.670000000000002</ele>
        <time>2023-08-24T13:37:50Z</time>
      </trkpt>
      <trkpt lat="58.201135983690619" lon="-5.337556041777134">
        <ele>35.229999999999997</ele>
        <time>2023-08-24T13:37:52Z</time>
      </trkpt>
      <trkpt lat="58.201035987585783" lon="-5.337600968778133">
        <ele>33.299999999999997</ele>
        <time>2023-08-24T13:37:54Z</time>
      </trkpt>
      <trkpt lat="58.200654024258256" lon="-5.337918978184462">
        <ele>29.940000000000001</ele>
        <time>2023-08-24T13:37:57Z</time>
      </trkpt>
      <trkpt lat="58.200558973476291" lon="-5.337958037853241">
        <ele>28.02</ele>
        <time>2023-08-24T13:37:59Z</time>
      </trkpt>
      <trkpt lat="58.200364010408521" lon="-5.337904980406165">
        <ele>27.050000000000001</ele>
        <time>2023-08-24T13:38:00Z</time>
      </trkpt>
      <trkpt lat="58.200289998203516" lon="-5.337749999016523">
        <ele>25.609999999999999</ele>
        <time>2023-08-24T13:38:01Z</time>
      </trkpt>
      <trkpt lat="58.200220009312034" lon="-5.337585965171456">
        <ele>24.170000000000002</ele>
        <time>2023-08-24T13:38:02Z</time>
      </trkpt>
      <trkpt lat="58.20014700293541" lon="-5.337415980175138">
        <ele>22.73</ele>
        <time>2023-08-24T13:38:03Z</time>
      </trkpt>
      <trkpt lat="58.200075002387166" lon="-5.33724800683558">
        <ele>21.77</ele>
        <time>2023-08-24T13:38:04Z</time>
      </trkpt>
      <trkpt lat="58.199985986575484" lon="-5.337111968547106">
        <ele>20.32</ele>
        <time>2023-08-24T13:38:05Z</time>
      </trkpt>
      <trkpt lat="58.199879033491015" lon="-5.337032005190849">
        <ele>19.359999999999999</ele>
        <time>2023-08-24T13:38:06Z</time>
      </trkpt>
      <trkpt lat="58.199765961617231" lon="-5.33694701269269">
        <ele>17.920000000000002</ele>
        <time>2023-08-24T13:38:07Z</time>
      </trkpt>
      <trkpt lat="58.199651967734098" lon="-5.33686101436615">
        <ele>16.960000000000001</ele>
        <time>2023-08-24T13:38:08Z</time>
      </trkpt>
      <trkpt lat="58.199531016871333" lon="-5.336800999939442">
        <ele>14.56</ele>
        <time>2023-08-24T13:38:10Z</time>
      </trkpt>
      <trkpt lat="58.198347995057702" lon="-5.336440997198224">
        <ele>9.75</ele>
        <time>2023-08-24T13:38:20Z</time>
      </trkpt>
      <trkpt lat="58.198221009224653" lon="-5.336449965834618">
        <ele>9.75</ele>
        <time>2023-08-24T13:38:22Z</time>
      </trkpt>
      <trkpt lat="58.198151020333171" lon="-5.336454994976521">
        <ele>9.75</ele>
        <time>2023-08-24T13:38:23Z</time>
      </trkpt>
      <trkpt lat="58.197649028152227" lon="-5.336694968864322">
        <ele>9.75</ele>
        <time>2023-08-24T13:38:29Z</time>
      </trkpt>
      <trkpt lat="58.197565041482449" lon="-5.336666973307729">
        <ele>10.23</ele>
        <time>2023-08-24T13:38:30Z</time>
      </trkpt>
      <trkpt lat="58.197467979043722" lon="-5.336635038256645">
        <ele>9.75</ele>
        <time>2023-08-24T13:38:31Z</time>
      </trkpt>
      <trkpt lat="58.197371000424027" lon="-5.336584998294711">
        <ele>9.75</ele>
        <time>2023-08-24T13:38:32Z</time>
      </trkpt>
      <trkpt lat="58.197275027632713" lon="-5.336473016068339">
        <ele>9.27</ele>
        <time>2023-08-24T13:38:33Z</time>
      </trkpt>
      <trkpt lat="58.197170002385974" lon="-5.336350975558162">
        <ele>9.27</ele>
        <time>2023-08-24T13:38:34Z</time>
      </trkpt>
      <trkpt lat="58.197071012109518" lon="-5.336181996390224">
        <ele>9.27</ele>
        <time>2023-08-24T13:38:35Z</time>
      </trkpt>
      <trkpt lat="58.196975961327553" lon="-5.335990972816944">
        <ele>9.27</ele>
        <time>2023-08-24T13:38:36Z</time>
      </trkpt>
      <trkpt lat="58.196876971051097" lon="-5.335792992264032">
        <ele>9.27</ele>
        <time>2023-08-24T13:38:37Z</time>
      </trkpt>
      <trkpt lat="58.19677697494626" lon="-5.33559400588274">
        <ele>9.27</ele>
        <time>2023-08-24T13:38:38Z</time>
      </trkpt>
      <trkpt lat="58.196681002154946" lon="-5.3354009706527">
        <ele>9.27</ele>
        <time>2023-08-24T13:38:40Z</time>
      </trkpt>
      <trkpt lat="58.196497019380331" lon="-5.33503401093185">
        <ele>9.27</ele>
        <time>2023-08-24T13:38:42Z</time>
      </trkpt>
      <trkpt lat="58.195329001173377" lon="-5.33363800495863">
        <ele>12.15</ele>
        <time>2023-08-24T13:38:52Z</time>
      </trkpt>
      <trkpt lat="58.194078002125025" lon="-5.332244010642171">
        <ele>13.6</ele>
        <time>2023-08-24T13:39:03Z</time>
      </trkpt>
      <trkpt lat="58.193654967471957" lon="-5.331889959052205">
        <ele>14.08</ele>
        <time>2023-08-24T13:39:06Z</time>
      </trkpt>
      <trkpt lat="58.193528987467289" lon="-5.331798009574413">
        <ele>14.08</ele>
        <time>2023-08-24T13:39:07Z</time>
      </trkpt>
      <trkpt lat="58.193408036604524" lon="-5.331774959340692">
        <ele>14.56</ele>
        <time>2023-08-24T13:39:08Z</time>
      </trkpt>
      <trkpt lat="58.193300999701023" lon="-5.331755010411143">
        <ele>14.56</ele>
        <time>2023-08-24T13:39:09Z</time>
      </trkpt>
      <trkpt lat="58.193202009424567" lon="-5.331735983490944">
        <ele>15.52</ele>
        <time>2023-08-24T13:39:11Z</time>
      </trkpt>
      <trkpt lat="58.192075984552503" lon="-5.331934969872236">
        <ele>17.920000000000002</ele>
        <time>2023-08-24T13:39:19Z</time>
      </trkpt>
      <trkpt lat="58.1910399813205" lon="-5.33232799731195">
        <ele>19.359999999999999</ele>
        <time>2023-08-24T13:39:27Z</time>
      </trkpt>
      <trkpt lat="58.189805997535586" lon="-5.332283992320299">
        <ele>17.440000000000001</ele>
        <time>2023-08-24T13:39:36Z</time>
      </trkpt>
      <trkpt lat="58.189325965940952" lon="-5.332237975671887">
        <ele>19.84</ele>
        <time>2023-08-24T13:39:41Z</time>
      </trkpt>
      <trkpt lat="58.189176013693213" lon="-5.332063967362046">
        <ele>20.32</ele>
        <time>2023-08-24T13:39:42Z</time>
      </trkpt>
      <trkpt lat="58.18912697955966" lon="-5.331912003457546">
        <ele>21.289999999999999</ele>
        <time>2023-08-24T13:39:43Z</time>
      </trkpt>
      <trkpt lat="58.188938973471522" lon="-5.330235958099365">
        <ele>29.460000000000001</ele>
        <time>2023-08-24T13:39:51Z</time>
      </trkpt>
      <trkpt lat="58.188899997621775" lon="-5.329807978123426">
        <ele>31.859999999999999</ele>
        <time>2023-08-24T13:39:53Z</time>
      </trkpt>
      <trkpt lat="58.188880970701575" lon="-5.329593988135457">
        <ele>33.299999999999997</ele>
        <time>2023-08-24T13:39:54Z</time>
      </trkpt>
      <trkpt lat="58.188848029822111" lon="-5.329395001754165">
        <ele>34.259999999999998</ele>
        <time>2023-08-24T13:39:55Z</time>
      </trkpt>
      <trkpt lat="58.18880301900208" lon="-5.329192997887731">
        <ele>35.710000000000001</ele>
        <time>2023-08-24T13:39:56Z</time>
      </trkpt>
      <trkpt lat="58.188755996525288" lon="-5.328980013728142">
        <ele>36.670000000000002</ele>
        <time>2023-08-24T13:39:57Z</time>
      </trkpt>
      <trkpt lat="58.188701011240482" lon="-5.328734004870057">
        <ele>37.630000000000003</ele>
        <time>2023-08-24T13:39:58Z</time>
      </trkpt>
      <trkpt lat="58.188613001257181" lon="-5.328556979075074">
        <ele>38.590000000000003</ele>
        <time>2023-08-24T13:39:59Z</time>
      </trkpt>
      <trkpt lat="58.188514010980725" lon="-5.328360004350543">
        <ele>39.07</ele>
        <time>2023-08-24T13:40:00Z</time>
      </trkpt>
      <trkpt lat="58.188407979905605" lon="-5.32822597771883">
        <ele>40.030000000000001</ele>
        <time>2023-08-24T13:40:01Z</time>
      </trkpt>
      <trkpt lat="58.188305972144008" lon="-5.328103015199304">
        <ele>40.030000000000001</ele>
        <time>2023-08-24T13:40:02Z</time>
      </trkpt>
      <trkpt lat="58.188206981867552" lon="-5.327983992174268">
        <ele>40.509999999999998</ele>
        <time>2023-08-24T13:40:03Z</time>
      </trkpt>
      <trkpt lat="58.187312968075275" lon="-5.327080003917217">
        <ele>39.07</ele>
        <time>2023-08-24T13:40:12Z</time>
      </trkpt>
      <trkpt lat="58.186864033341408" lon="-5.326639031991363">
        <ele>41.469999999999999</ele>
        <time>2023-08-24T13:40:17Z</time>
      </trkpt>
      <trkpt lat="58.186785997822881" lon="-5.326511962339282">
        <ele>42.439999999999998</ele>
        <time>2023-08-24T13:40:18Z</time>
      </trkpt>
      <trkpt lat="58.186709973961115" lon="-5.326387993991375">
        <ele>43.399999999999999</ele>
        <time>2023-08-24T13:40:19Z</time>
      </trkpt>
      <trkpt lat="58.186646020039916" lon="-5.326246004551649">
        <ele>44.359999999999999</ele>
        <time>2023-08-24T13:40:20Z</time>
      </trkpt>
      <trkpt lat="58.18659296259284" lon="-5.326051041483879">
        <ele>45.32</ele>
        <time>2023-08-24T13:40:21Z</time>
      </trkpt>
      <trkpt lat="58.186528002843261" lon="-5.325809977948666">
        <ele>46.280000000000001</ele>
        <time>2023-08-24T13:40:22Z</time>
      </trkpt>
      <trkpt lat="58.186135981231928" lon="-5.324366027489305">
        <ele>50.130000000000003</ele>
        <time>2023-08-24T13:40:28Z</time>
      </trkpt>
      <trkpt lat="58.186083007603884" lon="-5.32409998588264">
        <ele>50.130000000000003</ele>
        <time>2023-08-24T13:40:29Z</time>
      </trkpt>
      <trkpt lat="58.186042020097375" lon="-5.323818018659949">
        <ele>50.130000000000003</ele>
        <time>2023-08-24T13:40:30Z</time>
      </trkpt>
      <trkpt lat="58.186000026762486" lon="-5.323529010638595">
        <ele>50.130000000000003</ele>
        <time>2023-08-24T13:40:31Z</time>
      </trkpt>
      <trkpt lat="58.185959039255977" lon="-5.323246037587524">
        <ele>50.130000000000003</ele>
        <time>2023-08-24T13:40:32Z</time>
      </trkpt>
      <trkpt lat="58.185921991243958" lon="-5.322987036779523">
        <ele>50.130000000000003</ele>
        <time>2023-08-24T13:40:33Z</time>
      </trkpt>
      <trkpt lat="58.185863988474011" lon="-5.322782015427947">
        <ele>50.130000000000003</ele>
        <time>2023-08-24T13:40:34Z</time>
      </trkpt>
      <trkpt lat="58.185799028724432" lon="-5.322596020996571">
        <ele>50.130000000000003</ele>
        <time>2023-08-24T13:40:35Z</time>
      </trkpt>
      <trkpt lat="58.185716969892383" lon="-5.322407009080052">
        <ele>49.649999999999999</ele>
        <time>2023-08-24T13:40:36Z</time>
      </trkpt>
      <trkpt lat="58.185615967959166" lon="-5.322220008820295">
        <ele>49.159999999999997</ele>
        <time>2023-08-24T13:40:37Z</time>
      </trkpt>
      <trkpt lat="58.185512032359838" lon="-5.322027979418635">
        <ele>48.200000000000003</ele>
        <time>2023-08-24T13:40:38Z</time>
      </trkpt>
      <trkpt lat="58.18540801294148" lon="-5.321835028007627">
        <ele>47.719999999999999</ele>
        <time>2023-08-24T13:40:39Z</time>
      </trkpt>
      <trkpt lat="58.185312040150166" lon="-5.321617014706135">
        <ele>47.240000000000002</ele>
        <time>2023-08-24T13:40:40Z</time>
      </trkpt>
      <trkpt lat="58.185244984924793" lon="-5.321348961442709">
        <ele>47.240000000000002</ele>
        <time>2023-08-24T13:40:41Z</time>
      </trkpt>
      <trkpt lat="58.184860004112124" lon="-5.319765033200383">
        <ele>49.159999999999997</ele>
        <time>2023-08-24T13:40:47Z</time>
      </trkpt>
      <trkpt lat="58.184841983020306" lon="-5.319507038220763">
        <ele>49.649999999999999</ele>
        <time>2023-08-24T13:40:48Z</time>
      </trkpt>
      <trkpt lat="58.184826979413629" lon="-5.31928600743413">
        <ele>50.130000000000003</ele>
        <time>2023-08-24T13:40:49Z</time>
      </trkpt>
      <trkpt lat="58.184811975806952" lon="-5.319082997739315">
        <ele>51.090000000000003</ele>
        <time>2023-08-24T13:40:50Z</time>
      </trkpt>
      <trkpt lat="58.184797978028655" lon="-5.318877976387739">
        <ele>51.57</ele>
        <time>2023-08-24T13:40:51Z</time>
      </trkpt>
      <trkpt lat="58.184805018827319" lon="-5.317377028986812">
        <ele>57.82</ele>
        <time>2023-08-24T13:40:57Z</time>
      </trkpt>
      <trkpt lat="58.184833014383912" lon="-5.316920969635248">
        <ele>60.219999999999999</ele>
        <time>2023-08-24T13:40:59Z</time>
      </trkpt>
      <trkpt lat="58.184823961928487" lon="-5.316733969375491">
        <ele>62.140000000000001</ele>
        <time>2023-08-24T13:41:01Z</time>
      </trkpt>
      <trkpt lat="58.184770988300443" lon="-5.316418977454305">
        <ele>63.100000000000001</ele>
        <time>2023-08-24T13:41:02Z</time>
      </trkpt>
      <trkpt lat="58.184728994965553" lon="-5.316233988851309">
        <ele>63.579999999999998</ele>
        <time>2023-08-24T13:41:03Z</time>
      </trkpt>
      <trkpt lat="58.184317024424672" lon="-5.314956000074744">
        <ele>61.18</ele>
        <time>2023-08-24T13:41:12Z</time>
      </trkpt>
      <trkpt lat="58.183960039168596" lon="-5.31399903818965">
        <ele>57.82</ele>
        <time>2023-08-24T13:41:19Z</time>
      </trkpt>
      <trkpt lat="58.183298036456108" lon="-5.312250992283225">
        <ele>51.090000000000003</ele>
        <time>2023-08-24T13:41:30Z</time>
      </trkpt>
      <trkpt lat="58.183161998167634" lon="-5.311717987060547">
        <ele>50.130000000000003</ele>
        <time>2023-08-24T13:41:34Z</time>
      </trkpt>
      <trkpt lat="58.182950019836426" lon="-5.310812992975116">
        <ele>46.280000000000001</ele>
        <time>2023-08-24T13:41:41Z</time>
      </trkpt>
      <trkpt lat="58.182906014844775" lon="-5.310608977451921">
        <ele>44.840000000000003</ele>
        <time>2023-08-24T13:41:43Z</time>
      </trkpt>
      <trkpt lat="58.182885982096195" lon="-5.310516022145748">
        <ele>43.880000000000003</ele>
        <time>2023-08-24T13:41:45Z</time>
      </trkpt>
      <trkpt lat="58.182838037610054" lon="-5.310002965852618">
        <ele>41.469999999999999</ele>
        <time>2023-08-24T13:41:49Z</time>
      </trkpt>
      <trkpt lat="58.182835020124912" lon="-5.30987698584795">
        <ele>40.509999999999998</ele>
        <time>2023-08-24T13:41:50Z</time>
      </trkpt>
      <trkpt lat="58.182832002639771" lon="-5.30974798835814">
        <ele>40.030000000000001</ele>
        <time>2023-08-24T13:41:51Z</time>
      </trkpt>
      <trkpt lat="58.182825967669487" lon="-5.309482030570507">
        <ele>39.549999999999997</ele>
        <time>2023-08-24T13:41:53Z</time>
      </trkpt>
      <trkpt lat="58.182822028174996" lon="-5.309336017817259">
        <ele>39.07</ele>
        <time>2023-08-24T13:41:54Z</time>
      </trkpt>
      <trkpt lat="58.182782968506217" lon="-5.309180030599237">
        <ele>38.109999999999999</ele>
        <time>2023-08-24T13:41:56Z</time>
      </trkpt>
      <trkpt lat="58.182739969342947" lon="-5.309029994532466">
        <ele>38.109999999999999</ele>
        <time>2023-08-24T13:41:57Z</time>
      </trkpt>
      <trkpt lat="58.182271001860499" lon="-5.307418992742896">
        <ele>37.149999999999999</ele>
        <time>2023-08-24T13:42:04Z</time>
      </trkpt>
      <trkpt lat="58.181747971102595" lon="-5.305891977623105">
        <ele>36.670000000000002</ele>
        <time>2023-08-24T13:42:13Z</time>
      </trkpt>
      <trkpt lat="58.181487964466214" lon="-5.305294012650847">
        <ele>37.149999999999999</ele>
        <time>2023-08-24T13:42:17Z</time>
      </trkpt>
      <trkpt lat="58.180928975343704" lon="-5.304006971418858">
        <ele>40.990000000000002</ele>
        <time>2023-08-24T13:42:26Z</time>
      </trkpt>
      <trkpt lat="58.180217016488314" lon="-5.303043974563479">
        <ele>45.32</ele>
        <time>2023-08-24T13:42:35Z</time>
      </trkpt>
      <trkpt lat="58.18008097819984" lon="-5.302773993462324">
        <ele>45.32</ele>
        <time>2023-08-24T13:42:36Z</time>
      </trkpt>
      <trkpt lat="58.180024987086654" lon="-5.302597973495722">
        <ele>45.32</ele>
        <time>2023-08-24T13:42:37Z</time>
      </trkpt>
      <trkpt lat="58.180002020671964" lon="-5.302394041791558">
        <ele>45.32</ele>
        <time>2023-08-24T13:42:38Z</time>
      </trkpt>
      <trkpt lat="58.179804040119052" lon="-5.300673991441727">
        <ele>47.240000000000002</ele>
        <time>2023-08-24T13:42:46Z</time>
      </trkpt>
      <trkpt lat="58.179683005437255" lon="-5.299196010455489">
        <ele>49.159999999999997</ele>
        <time>2023-08-24T13:42:54Z</time>
      </trkpt>
      <trkpt lat="58.179683005437255" lon="-5.299196010455489">
        <ele>51.090000000000003</ele>
        <time>2023-08-24T13:43:01Z</time>
      </trkpt>
      <trkpt lat="58.179681999608874" lon="-5.299178995192051">
        <ele>52.049999999999997</ele>
        <time>2023-08-24T13:43:11Z</time>
      </trkpt>
      <trkpt lat="58.179675964638591" lon="-5.299080004915595">
        <ele>52.049999999999997</ele>
        <time>2023-08-24T13:43:12Z</time>
      </trkpt>
      <trkpt lat="58.17956599406898" lon="-5.298181967809796">
        <ele>53.969999999999999</ele>
        <time>2023-08-24T13:43:20Z</time>
      </trkpt>
      <trkpt lat="58.179446971043944" lon="-5.297312010079622">
        <ele>56.859999999999999</ele>
        <time>2023-08-24T13:43:30Z</time>
      </trkpt>
      <trkpt lat="58.179341023787856" lon="-5.296530984342098">
        <ele>60.700000000000003</ele>
        <time>2023-08-24T13:43:35Z</time>
      </trkpt>
      <trkpt lat="58.179325014352798" lon="-5.296412967145443">
        <ele>61.18</ele>
        <time>2023-08-24T13:43:36Z</time>
      </trkpt>
      <trkpt lat="58.179309004917741" lon="-5.296299979090691">
        <ele>62.140000000000001</ele>
        <time>2023-08-24T13:43:37Z</time>
      </trkpt>
      <trkpt lat="58.179297018796206" lon="-5.296207023784518">
        <ele>62.619999999999997</ele>
        <time>2023-08-24T13:43:38Z</time>
      </trkpt>
      <trkpt lat="58.179297018796206" lon="-5.296207023784518">
        <ele>64.069999999999993</ele>
        <time>2023-08-24T13:43:45Z</time>
      </trkpt>
      <trkpt lat="58.179281009361148" lon="-5.296096969395876">
        <ele>65.030000000000001</ele>
        <time>2023-08-24T13:43:51Z</time>
      </trkpt>
      <trkpt lat="58.179043969139457" lon="-5.295105976983905">
        <ele>65.510000000000005</ele>
        <time>2023-08-24T13:43:58Z</time>
      </trkpt>
      <trkpt lat="58.178547006100416" lon="-5.293316021561623">
        <ele>62.619999999999997</ele>
        <time>2023-08-24T13:44:07Z</time>
      </trkpt>
      <trkpt lat="58.178129000589252" lon="-5.291424980387092">
        <ele>67.909999999999997</ele>
        <time>2023-08-24T13:44:16Z</time>
      </trkpt>
      <trkpt lat="58.178058005869389" lon="-5.289267981424928">
        <ele>65.989999999999995</ele>
        <time>2023-08-24T13:44:26Z</time>
      </trkpt>
      <trkpt lat="58.178069991990924" lon="-5.289081986993551">
        <ele>65.510000000000005</ele>
        <time>2023-08-24T13:44:27Z</time>
      </trkpt>
      <trkpt lat="58.178084995597601" lon="-5.28890697285533">
        <ele>65.030000000000001</ele>
        <time>2023-08-24T13:44:28Z</time>
      </trkpt>
      <trkpt lat="58.178115002810955" lon="-5.288758026435971">
        <ele>64.069999999999993</ele>
        <time>2023-08-24T13:44:29Z</time>
      </trkpt>
      <trkpt lat="58.178144004195929" lon="-5.288619976490736">
        <ele>63.579999999999998</ele>
        <time>2023-08-24T13:44:30Z</time>
      </trkpt>
      <trkpt lat="58.178174011409283" lon="-5.288473963737488">
        <ele>63.579999999999998</ele>
        <time>2023-08-24T13:44:31Z</time>
      </trkpt>
      <trkpt lat="58.178339973092079" lon="-5.287956967949867">
        <ele>62.619999999999997</ele>
        <time>2023-08-24T13:44:34Z</time>
      </trkpt>
      <trkpt lat="58.178401999175549" lon="-5.287793017923832">
        <ele>62.619999999999997</ele>
        <time>2023-08-24T13:44:35Z</time>
      </trkpt>
      <trkpt lat="58.178482968360186" lon="-5.287652034312487">
        <ele>62.619999999999997</ele>
        <time>2023-08-24T13:44:36Z</time>
      </trkpt>
      <trkpt lat="58.17855698056519" lon="-5.287525970488787">
        <ele>62.140000000000001</ele>
        <time>2023-08-24T13:44:38Z</time>
      </trkpt>
      <trkpt lat="58.178917989134789" lon="-5.286905039101839">
        <ele>62.140000000000001</ele>
        <time>2023-08-24T13:44:42Z</time>
      </trkpt>
      <trkpt lat="58.178954031318426" lon="-5.286769000813365">
        <ele>62.140000000000001</ele>
        <time>2023-08-24T13:44:43Z</time>
      </trkpt>
      <trkpt lat="58.178982026875019" lon="-5.286599015817046">
        <ele>62.140000000000001</ele>
        <time>2023-08-24T13:44:44Z</time>
      </trkpt>
      <trkpt lat="58.179012034088373" lon="-5.286412015557289">
        <ele>62.140000000000001</ele>
        <time>2023-08-24T13:44:45Z</time>
      </trkpt>
      <trkpt lat="58.179076993837953" lon="-5.286008007824421">
        <ele>62.619999999999997</ele>
        <time>2023-08-24T13:44:47Z</time>
      </trkpt>
      <trkpt lat="58.17913600243628" lon="-5.285640964284539">
        <ele>62.619999999999997</ele>
        <time>2023-08-24T13:44:49Z</time>
      </trkpt>
      <trkpt lat="58.179176989942789" lon="-5.285484977066517">
        <ele>63.100000000000001</ele>
        <time>2023-08-24T13:44:50Z</time>
      </trkpt>
      <trkpt lat="58.179238010197878" lon="-5.285349022597075">
        <ele>63.579999999999998</ele>
        <time>2023-08-24T13:44:51Z</time>
      </trkpt>
      <trkpt lat="58.179300036281347" lon="-5.285210972651839">
        <ele>64.069999999999993</ele>
        <time>2023-08-24T13:44:52Z</time>
      </trkpt>
      <trkpt lat="58.179360972717404" lon="-5.285075018182397">
        <ele>64.549999999999997</ele>
        <time>2023-08-24T13:44:53Z</time>
      </trkpt>
      <trkpt lat="58.17941403016448" lon="-5.28495498932898">
        <ele>65.510000000000005</ele>
        <time>2023-08-24T13:44:54Z</time>
      </trkpt>
      <trkpt lat="58.179461974650621" lon="-5.284848958253861">
        <ele>66.469999999999999</ele>
        <time>2023-08-24T13:44:55Z</time>
      </trkpt>
      <trkpt lat="58.179516959935427" lon="-5.284723984077573">
        <ele>67.909999999999997</ele>
        <time>2023-08-24T13:44:57Z</time>
      </trkpt>
      <trkpt lat="58.179771015420556" lon="-5.283050034195185">
        <ele>69.349999999999994</ele>
        <time>2023-08-24T13:45:05Z</time>
      </trkpt>
      <trkpt lat="58.179787024855614" lon="-5.282879965379834">
        <ele>69.349999999999994</ele>
        <time>2023-08-24T13:45:06Z</time>
      </trkpt>
      <trkpt lat="58.179803034290671" lon="-5.28269799426198">
        <ele>69.349999999999994</ele>
        <time>2023-08-24T13:45:07Z</time>
      </trkpt>
      <trkpt lat="58.179815020412207" lon="-5.282510994002223">
        <ele>69.349999999999994</ele>
        <time>2023-08-24T13:45:08Z</time>
      </trkpt>
      <trkpt lat="58.179796999320388" lon="-5.282344026491046">
        <ele>69.349999999999994</ele>
        <time>2023-08-24T13:45:09Z</time>
      </trkpt>
      <trkpt lat="58.17975701764226" lon="-5.282207988202572">
        <ele>69.349999999999994</ele>
        <time>2023-08-24T13:45:10Z</time>
      </trkpt>
      <trkpt lat="58.179720975458622" lon="-5.282086031511426">
        <ele>69.829999999999998</ele>
        <time>2023-08-24T13:45:11Z</time>
      </trkpt>
      <trkpt lat="58.179689040407538" lon="-5.281977988779545">
        <ele>69.829999999999998</ele>
        <time>2023-08-24T13:45:12Z</time>
      </trkpt>
      <trkpt lat="58.179627014324069" lon="-5.281915962696075">
        <ele>70.790000000000006</ele>
        <time>2023-08-24T13:45:14Z</time>
      </trkpt>
      <trkpt lat="58.179502040147781" lon="-5.281905988231301">
        <ele>71.269999999999996</ele>
        <time>2023-08-24T13:45:15Z</time>
      </trkpt>
      <trkpt lat="58.179449988529086" lon="-5.281915962696075">
        <ele>72.239999999999995</ele>
        <time>2023-08-24T13:45:16Z</time>
      </trkpt>
      <trkpt lat="58.179406989365816" lon="-5.281953010708094">
        <ele>72.719999999999999</ele>
        <time>2023-08-24T13:45:17Z</time>
      </trkpt>
      <trkpt lat="58.179353009909391" lon="-5.282000033184886">
        <ele>73.680000000000007</ele>
        <time>2023-08-24T13:45:18Z</time>
      </trkpt>
      <trkpt lat="58.179282015189528" lon="-5.282061975449324">
        <ele>74.640000000000001</ele>
        <time>2023-08-24T13:45:19Z</time>
      </trkpt>
      <trkpt lat="58.178955959156156" lon="-5.282345032319427">
        <ele>79.930000000000007</ele>
        <time>2023-08-24T13:45:24Z</time>
      </trkpt>
      <trkpt lat="58.178709028288722" lon="-5.282560028135777">
        <ele>83.290000000000006</ele>
        <time>2023-08-24T13:45:27Z</time>
      </trkpt>
      <trkpt lat="58.17864197306335" lon="-5.282618030905724">
        <ele>85.689999999999998</ele>
        <time>2023-08-24T13:45:29Z</time>
      </trkpt>
      <trkpt lat="58.17859997972846" lon="-5.282672010362148">
        <ele>86.659999999999997</ele>
        <time>2023-08-24T13:45:30Z</time>
      </trkpt>
      <trkpt lat="58.178540971130133" lon="-5.282749040052295">
        <ele>87.620000000000005</ele>
        <time>2023-08-24T13:45:31Z</time>
      </trkpt>
      <trkpt lat="58.178171999752522" lon="-5.283236028626561">
        <ele>92.900000000000006</ele>
        <time>2023-08-24T13:45:36Z</time>
      </trkpt>
      <trkpt lat="58.178101005032659" lon="-5.283329989761114">
        <ele>93.870000000000005</ele>
        <time>2023-08-24T13:45:37Z</time>
      </trkpt>
      <trkpt lat="58.17804099060595" lon="-5.283341975882649">
        <ele>95.310000000000002</ele>
        <time>2023-08-24T13:45:38Z</time>
      </trkpt>
      <trkpt lat="58.177971001714468" lon="-5.28332001529634">
        <ele>96.269999999999996</ele>
        <time>2023-08-24T13:45:39Z</time>
      </trkpt>
      <trkpt lat="58.177920961752534" lon="-5.283185988664627">
        <ele>97.230000000000004</ele>
        <time>2023-08-24T13:45:40Z</time>
      </trkpt>
      <trkpt lat="58.177905958145857" lon="-5.283037964254618">
        <ele>98.189999999999998</ele>
        <time>2023-08-24T13:45:41Z</time>
      </trkpt>
      <trkpt lat="58.177886009216309" lon="-5.282850963994861">
        <ele>99.150000000000006</ele>
        <time>2023-08-24T13:45:42Z</time>
      </trkpt>
      <trkpt lat="58.177787018939853" lon="-5.282002966850996">
        <ele>102.52</ele>
        <time>2023-08-24T13:45:46Z</time>
      </trkpt>
      <trkpt lat="58.177732033655047" lon="-5.281845973804593">
        <ele>103.48</ele>
        <time>2023-08-24T13:45:47Z</time>
      </trkpt>
      <trkpt lat="58.177672019228339" lon="-5.281676994636655">
        <ele>103.95999999999999</ele>
        <time>2023-08-24T13:45:48Z</time>
      </trkpt>
      <trkpt lat="58.177593983709812" lon="-5.281530981883407">
        <ele>104.92</ele>
        <time>2023-08-24T13:45:49Z</time>
      </trkpt>
      <trkpt lat="58.177508991211653" lon="-5.281372983008623">
        <ele>105.40000000000001</ele>
        <time>2023-08-24T13:45:50Z</time>
      </trkpt>
      <trkpt lat="58.177428022027016" lon="-5.281222024932504">
        <ele>106.36</ele>
        <time>2023-08-24T13:45:51Z</time>
      </trkpt>
      <trkpt lat="58.177346969023347" lon="-5.281051034107804">
        <ele>107.81</ele>
        <time>2023-08-24T13:45:52Z</time>
      </trkpt>
      <trkpt lat="58.177319979295135" lon="-5.280836038291454">
        <ele>108.77</ele>
        <time>2023-08-24T13:45:53Z</time>
      </trkpt>
      <trkpt lat="58.177233980968595" lon="-5.280146040022373">
        <ele>111.17</ele>
        <time>2023-08-24T13:45:56Z</time>
      </trkpt>
      <trkpt lat="58.177221994847059" lon="-5.279933977872133">
        <ele>112.61</ele>
        <time>2023-08-24T13:45:57Z</time>
      </trkpt>
      <trkpt lat="58.177221994847059" lon="-5.279714036732912">
        <ele>113.56999999999999</ele>
        <time>2023-08-24T13:45:58Z</time>
      </trkpt>
      <trkpt lat="58.177229035645723" lon="-5.279489988461137">
        <ele>115.5</ele>
        <time>2023-08-24T13:46:00Z</time>
      </trkpt>
      <trkpt lat="58.177489964291453" lon="-5.277611017227173">
        <ele>117.90000000000001</ele>
        <time>2023-08-24T13:46:08Z</time>
      </trkpt>
      <trkpt lat="58.177492981776595" lon="-5.277361990883946">
        <ele>117.90000000000001</ele>
        <time>2023-08-24T13:46:09Z</time>
      </trkpt>
      <trkpt lat="58.177463980391622" lon="-5.277120005339384">
        <ele>118.38</ele>
        <time>2023-08-24T13:46:10Z</time>
      </trkpt>
      <trkpt lat="58.17733297124505" lon="-5.275215972214937">
        <ele>118.86</ele>
        <time>2023-08-24T13:46:18Z</time>
      </trkpt>
      <trkpt lat="58.177303969860077" lon="-5.274980021640658">
        <ele>117.90000000000001</ele>
        <time>2023-08-24T13:46:19Z</time>
      </trkpt>
      <trkpt lat="58.177257031202316" lon="-5.274771982803941">
        <ele>117.42</ele>
        <time>2023-08-24T13:46:20Z</time>
      </trkpt>
      <trkpt lat="58.177097020670772" lon="-5.274072010070086">
        <ele>113.56999999999999</ele>
        <time>2023-08-24T13:46:24Z</time>
      </trkpt>
      <trkpt lat="58.17705200985074" lon="-5.273872017860413">
        <ele>112.61</ele>
        <time>2023-08-24T13:46:25Z</time>
      </trkpt>
      <trkpt lat="58.176985960453749" lon="-5.273619974032044">
        <ele>111.65000000000001</ele>
        <time>2023-08-24T13:46:26Z</time>
      </trkpt>
      <trkpt lat="58.176386989653111" lon="-5.272067980840802">
        <ele>102.04000000000001</ele>
        <time>2023-08-24T13:46:31Z</time>
      </trkpt>
      <trkpt lat="58.175736973062158" lon="-5.270624030381441">
        <ele>88.579999999999998</ele>
        <time>2023-08-24T13:46:37Z</time>
      </trkpt>
      <trkpt lat="58.174929041415453" lon="-5.269219977781177">
        <ele>74.159999999999997</ele>
        <time>2023-08-24T13:46:45Z</time>
      </trkpt>
      <trkpt lat="58.174096969887614" lon="-5.266810012981296">
        <ele>59.259999999999998</ele>
        <time>2023-08-24T13:46:53Z</time>
      </trkpt>
      <trkpt lat="58.173780972138047" lon="-5.265890015289187">
        <ele>51.57</ele>
        <time>2023-08-24T13:46:57Z</time>
      </trkpt>
      <trkpt lat="58.173735961318016" lon="-5.26565901003778">
        <ele>49.649999999999999</ele>
        <time>2023-08-24T13:46:58Z</time>
      </trkpt>
      <trkpt lat="58.173610987141728" lon="-5.264689978212118">
        <ele>40.509999999999998</ele>
        <time>2023-08-24T13:47:03Z</time>
      </trkpt>
      <trkpt lat="58.173587014898658" lon="-5.264503983780742">
        <ele>39.549999999999997</ele>
        <time>2023-08-24T13:47:04Z</time>
      </trkpt>
      <trkpt lat="58.173542004078627" lon="-5.263947006314993">
        <ele>36.670000000000002</ele>
        <time>2023-08-24T13:47:07Z</time>
      </trkpt>
      <trkpt lat="58.173536974936724" lon="-5.263776015490294">
        <ele>35.710000000000001</ele>
        <time>2023-08-24T13:47:09Z</time>
      </trkpt>
      <trkpt lat="58.173563964664936" lon="-5.262611014768481">
        <ele>35.710000000000001</ele>
        <time>2023-08-24T13:47:15Z</time>
      </trkpt>
      <trkpt lat="58.173552984371781" lon="-5.26245703920722">
        <ele>36.189999999999998</ele>
        <time>2023-08-24T13:47:17Z</time>
      </trkpt>
      <trkpt lat="58.17352700047195" lon="-5.262104999274015">
        <ele>36.670000000000002</ele>
        <time>2023-08-24T13:47:18Z</time>
      </trkpt>
      <trkpt lat="58.173328014090657" lon="-5.261279968544841">
        <ele>37.149999999999999</ele>
        <time>2023-08-24T13:47:22Z</time>
      </trkpt>
      <trkpt lat="58.173266993835568" lon="-5.261108977720141">
        <ele>37.149999999999999</ele>
        <time>2023-08-24T13:47:23Z</time>
      </trkpt>
      <trkpt lat="58.17320697940886" lon="-5.260936981067061">
        <ele>37.149999999999999</ele>
        <time>2023-08-24T13:47:24Z</time>
      </trkpt>
      <trkpt lat="58.173131039366126" lon="-5.260780993849039">
        <ele>37.149999999999999</ele>
        <time>2023-08-24T13:47:25Z</time>
      </trkpt>
      <trkpt lat="58.173005981370807" lon="-5.260640010237694">
        <ele>37.149999999999999</ele>
        <time>2023-08-24T13:47:26Z</time>
      </trkpt>
      <trkpt lat="58.172746980562806" lon="-5.260346978902817">
        <ele>35.710000000000001</ele>
        <time>2023-08-24T13:47:29Z</time>
      </trkpt>
      <trkpt lat="58.172292010858655" lon="-5.259831994771957">
        <ele>33.780000000000001</ele>
        <time>2023-08-24T13:47:32Z</time>
      </trkpt>
      <trkpt lat="58.172200983390212" lon="-5.259728981181979">
        <ele>31.859999999999999</ele>
        <time>2023-08-24T13:47:34Z</time>
      </trkpt>
      <trkpt lat="58.172007026150823" lon="-5.259639965370297">
        <ele>30.899999999999999</ele>
        <time>2023-08-24T13:47:35Z</time>
      </trkpt>
      <trkpt lat="58.171940976753831" lon="-5.259712971746922">
        <ele>29.460000000000001</ele>
        <time>2023-08-24T13:47:36Z</time>
      </trkpt>
      <trkpt lat="58.17183100618422" lon="-5.259834006428719">
        <ele>28.5</ele>
        <time>2023-08-24T13:47:37Z</time>
      </trkpt>
      <trkpt lat="58.171719023957849" lon="-5.260027041658759">
        <ele>27.050000000000001</ele>
        <time>2023-08-24T13:47:38Z</time>
      </trkpt>
      <trkpt lat="58.171619027853012" lon="-5.260231979191303">
        <ele>26.09</ele>
        <time>2023-08-24T13:47:39Z</time>
      </trkpt>
      <trkpt lat="58.171290960162878" lon="-5.260883001610637">
        <ele>22.25</ele>
        <time>2023-08-24T13:47:42Z</time>
      </trkpt>
      <trkpt lat="58.171162968501449" lon="-5.261065978556871">
        <ele>21.289999999999999</ele>
        <time>2023-08-24T13:47:43Z</time>
      </trkpt>
      <trkpt lat="58.170696012675762" lon="-5.26172898709774">
        <ele>15.039999999999999</ele>
        <time>2023-08-24T13:47:47Z</time>
      </trkpt>
      <trkpt lat="58.170587969943881" lon="-5.261800987645984">
        <ele>13.119999999999999</ele>
        <time>2023-08-24T13:47:48Z</time>
      </trkpt>
      <trkpt lat="58.170461989939213" lon="-5.261828983202577">
        <ele>12.15</ele>
        <time>2023-08-24T13:47:49Z</time>
      </trkpt>
      <trkpt lat="58.170355958864093" lon="-5.261764023452997">
        <ele>10.710000000000001</ele>
        <time>2023-08-24T13:47:50Z</time>
      </trkpt>
      <trkpt lat="58.17024196498096" lon="-5.261695040389895">
        <ele>10.23</ele>
        <time>2023-08-24T13:47:51Z</time>
      </trkpt>
      <trkpt lat="58.170144986361265" lon="-5.261635025963187">
        <ele>9.27</ele>
        <time>2023-08-24T13:47:53Z</time>
      </trkpt>
      <trkpt lat="58.169864024966955" lon="-5.261364039033651">
        <ele>8.310000000000001</ele>
        <time>2023-08-24T13:47:55Z</time>
      </trkpt>
      <trkpt lat="58.169742990285158" lon="-5.261288015171886">
        <ele>7.83</ele>
        <time>2023-08-24T13:47:56Z</time>
      </trkpt>
      <trkpt lat="58.169595971703529" lon="-5.261277034878731">
        <ele>7.35</ele>
        <time>2023-08-24T13:47:57Z</time>
      </trkpt>
      <trkpt lat="58.169449036940932" lon="-5.261265970766544">
        <ele>6.87</ele>
        <time>2023-08-24T13:47:58Z</time>
      </trkpt>
      <trkpt lat="58.169324984773993" lon="-5.26125599630177">
        <ele>7.35</ele>
        <time>2023-08-24T13:47:59Z</time>
      </trkpt>
      <trkpt lat="58.169206967577338" lon="-5.26118902489543">
        <ele>7.35</ele>
        <time>2023-08-24T13:48:00Z</time>
      </trkpt>
      <trkpt lat="58.169127004221082" lon="-5.261036977171898">
        <ele>7.35</ele>
        <time>2023-08-24T13:48:01Z</time>
      </trkpt>
      <trkpt lat="58.169024996459484" lon="-5.260842014104128">
        <ele>7.35</ele>
        <time>2023-08-24T13:48:02Z</time>
      </trkpt>
      <trkpt lat="58.168964982032776" lon="-5.260659959167242">
        <ele>8.310000000000001</ele>
        <time>2023-08-24T13:48:03Z</time>
      </trkpt>
      <trkpt lat="58.168891975656152" lon="-5.260440018028021">
        <ele>9.27</ele>
        <time>2023-08-24T13:48:04Z</time>
      </trkpt>
      <trkpt lat="58.168817963451147" lon="-5.260216975584626">
        <ele>9.75</ele>
        <time>2023-08-24T13:48:05Z</time>
      </trkpt>
      <trkpt lat="58.168609002605081" lon="-5.25958196260035">
        <ele>12.15</ele>
        <time>2023-08-24T13:48:08Z</time>
      </trkpt>
      <trkpt lat="58.167948005720973" lon="-5.257582040503621">
        <ele>16.48</ele>
        <time>2023-08-24T13:48:16Z</time>
      </trkpt>
      <trkpt lat="58.167602000758052" lon="-5.256532961502671">
        <ele>21.289999999999999</ele>
        <time>2023-08-24T13:48:22Z</time>
      </trkpt>
      <trkpt lat="58.167347023263574" lon="-5.255008041858673">
        <ele>27.050000000000001</ele>
        <time>2023-08-24T13:48:30Z</time>
      </trkpt>
      <trkpt lat="58.167301006615162" lon="-5.254666982218623">
        <ele>27.530000000000001</ele>
        <time>2023-08-24T13:48:33Z</time>
      </trkpt>
      <trkpt lat="58.167263958603144" lon="-5.254399012774229">
        <ele>27.530000000000001</ele>
        <time>2023-08-24T13:48:36Z</time>
      </trkpt>
      <trkpt lat="58.167108977213502" lon="-5.253264019265771">
        <ele>28.02</ele>
        <time>2023-08-24T13:48:42Z</time>
      </trkpt>
      <trkpt lat="58.166688960045576" lon="-5.250862017273903">
        <ele>30.899999999999999</ele>
        <time>2023-08-24T13:48:52Z</time>
      </trkpt>
      <trkpt lat="58.166300961747766" lon="-5.249412031844258">
        <ele>36.189999999999998</ele>
        <time>2023-08-24T13:48:59Z</time>
      </trkpt>
      <trkpt lat="58.166237007826567" lon="-5.249229976907373">
        <ele>37.149999999999999</ele>
        <time>2023-08-24T13:49:00Z</time>
      </trkpt>
      <trkpt lat="58.166166013106704" lon="-5.2490299846977">
        <ele>38.109999999999999</ele>
        <time>2023-08-24T13:49:01Z</time>
      </trkpt>
      <trkpt lat="58.165871975943446" lon="-5.248444005846977">
        <ele>41.950000000000003</ele>
        <time>2023-08-24T13:49:04Z</time>
      </trkpt>
      <trkpt lat="58.165760999545455" lon="-5.24830000475049">
        <ele>43.399999999999999</ele>
        <time>2023-08-24T13:49:05Z</time>
      </trkpt>
      <trkpt lat="58.165649017319083" lon="-5.248157009482384">
        <ele>44.840000000000003</ele>
        <time>2023-08-24T13:49:06Z</time>
      </trkpt>
      <trkpt lat="58.165527982637286" lon="-5.24804200977087">
        <ele>45.799999999999997</ele>
        <time>2023-08-24T13:49:07Z</time>
      </trkpt>
      <trkpt lat="58.165397979319096" lon="-5.247922986745834">
        <ele>47.240000000000002</ele>
        <time>2023-08-24T13:49:08Z</time>
      </trkpt>
      <trkpt lat="58.164715021848679" lon="-5.247339019551873">
        <ele>53.969999999999999</ele>
        <time>2023-08-24T13:49:13Z</time>
      </trkpt>
      <trkpt lat="58.164605973288417" lon="-5.247248997911811">
        <ele>54.93</ele>
        <time>2023-08-24T13:49:14Z</time>
      </trkpt>
      <trkpt lat="58.164478987455368" lon="-5.247186971828342">
        <ele>55.890000000000001</ele>
        <time>2023-08-24T13:49:15Z</time>
      </trkpt>
      <trkpt lat="58.164358036592603" lon="-5.247171968221664">
        <ele>56.369999999999997</ele>
        <time>2023-08-24T13:49:16Z</time>
      </trkpt>
      <trkpt lat="58.164230966940522" lon="-5.247155958786607">
        <ele>56.859999999999999</ele>
        <time>2023-08-24T13:49:17Z</time>
      </trkpt>
      <trkpt lat="58.163711037486792" lon="-5.247090999037027">
        <ele>55.409999999999997</ele>
        <time>2023-08-24T13:49:21Z</time>
      </trkpt>
      <trkpt lat="58.163628978654742" lon="-5.247011035680771">
        <ele>55.409999999999997</ele>
        <time>2023-08-24T13:49:22Z</time>
      </trkpt>
      <trkpt lat="58.16353702917695" lon="-5.246876003220677">
        <ele>54.93</ele>
        <time>2023-08-24T13:49:23Z</time>
      </trkpt>
      <trkpt lat="58.163446001708508" lon="-5.246743988245726">
        <ele>54.93</ele>
        <time>2023-08-24T13:49:24Z</time>
      </trkpt>
      <trkpt lat="58.163391016423702" lon="-5.246547013521195">
        <ele>54.93</ele>
        <time>2023-08-24T13:49:25Z</time>
      </trkpt>
      <trkpt lat="58.163327984511852" lon="-5.246321959421039">
        <ele>54.93</ele>
        <time>2023-08-24T13:49:26Z</time>
      </trkpt>
      <trkpt lat="58.163263024762273" lon="-5.24608701467514">
        <ele>54.450000000000003</ele>
        <time>2023-08-24T13:49:27Z</time>
      </trkpt>
      <trkpt lat="58.163197981193662" lon="-5.245827008038759">
        <ele>53.969999999999999</ele>
        <time>2023-08-24T13:49:28Z</time>
      </trkpt>
      <trkpt lat="58.162756003439426" lon="-5.243905037641525">
        <ele>53.969999999999999</ele>
        <time>2023-08-24T13:49:35Z</time>
      </trkpt>
      <trkpt lat="58.162709986791015" lon="-5.243656011298299">
        <ele>54.450000000000003</ele>
        <time>2023-08-24T13:49:36Z</time>
      </trkpt>
      <trkpt lat="58.162668999284506" lon="-5.243397010490298">
        <ele>55.409999999999997</ele>
        <time>2023-08-24T13:49:37Z</time>
      </trkpt>
      <trkpt lat="58.162465989589691" lon="-5.240472983568907">
        <ele>64.069999999999993</ele>
        <time>2023-08-24T13:49:47Z</time>
      </trkpt>
      <trkpt lat="58.162244036793709" lon="-5.238420004025102">
        <ele>63.100000000000001</ele>
        <time>2023-08-24T13:49:55Z</time>
      </trkpt>
      <trkpt lat="58.162154015153646" lon="-5.237593967467547">
        <ele>61.18</ele>
        <time>2023-08-24T13:49:58Z</time>
      </trkpt>
      <trkpt lat="58.161770040169358" lon="-5.235682977363467">
        <ele>53.490000000000002</ele>
        <time>2023-08-24T13:50:04Z</time>
      </trkpt>
      <trkpt lat="58.16168999299407" lon="-5.235512992367148">
        <ele>52.530000000000001</ele>
        <time>2023-08-24T13:50:05Z</time>
      </trkpt>
      <trkpt lat="58.161607012152672" lon="-5.235419031232595">
        <ele>51.57</ele>
        <time>2023-08-24T13:50:06Z</time>
      </trkpt>
      <trkpt lat="58.161512967199087" lon="-5.235355999320746">
        <ele>50.609999999999999</ele>
        <time>2023-08-24T13:50:08Z</time>
      </trkpt>
      <trkpt lat="58.1609389744699" lon="-5.235328003764153">
        <ele>50.130000000000003</ele>
        <time>2023-08-24T13:50:12Z</time>
      </trkpt>
      <trkpt lat="58.160820035263896" lon="-5.23536304011941">
        <ele>50.130000000000003</ele>
        <time>2023-08-24T13:50:13Z</time>
      </trkpt>
      <trkpt lat="58.160586012527347" lon="-5.235431017354131">
        <ele>49.159999999999997</ele>
        <time>2023-08-24T13:50:15Z</time>
      </trkpt>
      <trkpt lat="58.160476963967085" lon="-5.235377959907055">
        <ele>49.159999999999997</ele>
        <time>2023-08-24T13:50:16Z</time>
      </trkpt>
      <trkpt lat="58.160387026146054" lon="-5.235304031521082">
        <ele>48.68</ele>
        <time>2023-08-24T13:50:17Z</time>
      </trkpt>
      <trkpt lat="58.160321982577443" lon="-5.235164975747466">
        <ele>48.200000000000003</ele>
        <time>2023-08-24T13:50:19Z</time>
      </trkpt>
      <trkpt lat="58.160231038928032" lon="-5.234845960512757">
        <ele>48.200000000000003</ele>
        <time>2023-08-24T13:50:20Z</time>
      </trkpt>
      <trkpt lat="58.16020798869431" lon="-5.234640017151833">
        <ele>48.200000000000003</ele>
        <time>2023-08-24T13:50:21Z</time>
      </trkpt>
      <trkpt lat="58.1600980181247" lon="-5.233634021133184">
        <ele>48.200000000000003</ele>
        <time>2023-08-24T13:50:26Z</time>
      </trkpt>
      <trkpt lat="58.160043032839894" lon="-5.233446015045047">
        <ele>48.200000000000003</ele>
        <time>2023-08-24T13:50:27Z</time>
      </trkpt>
      <trkpt lat="58.15999299287796" lon="-5.233275024220347">
        <ele>48.200000000000003</ele>
        <time>2023-08-24T13:50:28Z</time>
      </trkpt>
      <trkpt lat="58.15984396263957" lon="-5.232763979583979">
        <ele>45.799999999999997</ele>
        <time>2023-08-24T13:50:32Z</time>
      </trkpt>
      <trkpt lat="58.159784032031894" lon="-5.232640011236072">
        <ele>45.32</ele>
        <time>2023-08-24T13:50:33Z</time>
      </trkpt>
      <trkpt lat="58.159633995965123" lon="-5.232341028749943">
        <ele>43.399999999999999</ele>
        <time>2023-08-24T13:50:35Z</time>
      </trkpt>
      <trkpt lat="58.159567024558783" lon="-5.23220700211823">
        <ele>38.590000000000003</ele>
        <time>2023-08-24T13:50:41Z</time>
      </trkpt>
      <trkpt lat="58.159553026780486" lon="-5.232178000733256">
        <ele>38.109999999999999</ele>
        <time>2023-08-24T13:50:43Z</time>
      </trkpt>
      <trkpt lat="58.159526959061623" lon="-5.23218504153192">
        <ele>36.670000000000002</ele>
        <time>2023-08-24T13:50:45Z</time>
      </trkpt>
      <trkpt lat="58.159506004303694" lon="-5.232240026816726">
        <ele>36.189999999999998</ele>
        <time>2023-08-24T13:50:46Z</time>
      </trkpt>
      <trkpt lat="58.159473985433578" lon="-5.232318984344602">
        <ele>35.710000000000001</ele>
        <time>2023-08-24T13:50:47Z</time>
      </trkpt>
      <trkpt lat="58.159008035436273" lon="-5.23345498368144">
        <ele>33.780000000000001</ele>
        <time>2023-08-24T13:50:53Z</time>
      </trkpt>
      <trkpt lat="58.158292975276709" lon="-5.235080989077687">
        <ele>29.460000000000001</ele>
        <time>2023-08-24T13:51:00Z</time>
      </trkpt>
      <trkpt lat="58.158183004707098" lon="-5.235274024307728">
        <ele>28.02</ele>
        <time>2023-08-24T13:51:01Z</time>
      </trkpt>
      <trkpt lat="58.158062975853682" lon="-5.235446020960808">
        <ele>26.57</ele>
        <time>2023-08-24T13:51:02Z</time>
      </trkpt>
      <trkpt lat="58.15793196670711" lon="-5.235549034550786">
        <ele>25.129999999999999</ele>
        <time>2023-08-24T13:51:03Z</time>
      </trkpt>
      <trkpt lat="58.157797018066049" lon="-5.235654981806874">
        <ele>23.210000000000001</ele>
        <time>2023-08-24T13:51:04Z</time>
      </trkpt>
      <trkpt lat="58.157657962292433" lon="-5.235764030367136">
        <ele>21.289999999999999</ele>
        <time>2023-08-24T13:51:05Z</time>
      </trkpt>
      <trkpt lat="58.156537972390652" lon="-5.23643902502954">
        <ele>7.35</ele>
        <time>2023-08-24T13:51:15Z</time>
      </trkpt>
      <trkpt lat="58.155372971668839" lon="-5.237200018018484">
        <ele>-0.82</ele>
        <time>2023-08-24T13:51:26Z</time>
      </trkpt>
      <trkpt lat="58.155083041638136" lon="-5.237660016864538">
        <ele>-1.3</ele>
        <time>2023-08-24T13:51:30Z</time>
      </trkpt>
      <trkpt lat="58.154550036415458" lon="-5.238526035100222">
        <ele>-1.3</ele>
        <time>2023-08-24T13:51:39Z</time>
      </trkpt>
      <trkpt lat="58.153616040945053" lon="-5.239934027194977">
        <ele>0.62</ele>
        <time>2023-08-24T13:51:54Z</time>
      </trkpt>
      <trkpt lat="58.153136009350419" lon="-5.240554958581924">
        <ele>4.46</ele>
        <time>2023-08-24T13:52:03Z</time>
      </trkpt>
      <trkpt lat="58.15298798494041" lon="-5.24065101519227">
        <ele>4.94</ele>
        <time>2023-08-24T13:52:04Z</time>
      </trkpt>
      <trkpt lat="58.152906009927392" lon="-5.240702982991934">
        <ele>5.42</ele>
        <time>2023-08-24T13:52:05Z</time>
      </trkpt>
      <trkpt lat="58.152811964973807" lon="-5.240687979385257">
        <ele>5.42</ele>
        <time>2023-08-24T13:52:06Z</time>
      </trkpt>
      <trkpt lat="58.152714986354113" lon="-5.240654032677412">
        <ele>5.91</ele>
        <time>2023-08-24T13:52:07Z</time>
      </trkpt>
      <trkpt lat="58.152615996077657" lon="-5.240618996322155">
        <ele>5.91</ele>
        <time>2023-08-24T13:52:08Z</time>
      </trkpt>
      <trkpt lat="58.15251599997282" lon="-5.240584965795279">
        <ele>5.91</ele>
        <time>2023-08-24T13:52:09Z</time>
      </trkpt>
      <trkpt lat="58.152163960039616" lon="-5.240460997447372">
        <ele>5.91</ele>
        <time>2023-08-24T13:52:13Z</time>
      </trkpt>
      <trkpt lat="58.152078967541456" lon="-5.240431996062398">
        <ele>5.91</ele>
        <time>2023-08-24T13:52:14Z</time>
      </trkpt>
      <trkpt lat="58.151994980871677" lon="-5.240413974970579">
        <ele>5.91</ele>
        <time>2023-08-24T13:52:15Z</time>
      </trkpt>
      <trkpt lat="58.151907976716757" lon="-5.240413974970579">
        <ele>5.91</ele>
        <time>2023-08-24T13:52:16Z</time>
      </trkpt>
      <trkpt lat="58.151819966733456" lon="-5.240431996062398">
        <ele>5.91</ele>
        <time>2023-08-24T13:52:17Z</time>
      </trkpt>
      <trkpt lat="58.15105402842164" lon="-5.240781018510461">
        <ele>8.310000000000001</ele>
        <time>2023-08-24T13:52:27Z</time>
      </trkpt>
      <trkpt lat="58.150351038202643" lon="-5.241073966026306">
        <ele>8.310000000000001</ele>
        <time>2023-08-24T13:52:35Z</time>
      </trkpt>
      <trkpt lat="58.149321991950274" lon="-5.240899035707116">
        <ele>9.75</ele>
        <time>2023-08-24T13:52:46Z</time>
      </trkpt>
      <trkpt lat="58.148502996191382" lon="-5.240706000477076">
        <ele>14.08</ele>
        <time>2023-08-24T13:52:55Z</time>
      </trkpt>
      <trkpt lat="58.148145005106926" lon="-5.240541966632009">
        <ele>16</ele>
        <time>2023-08-24T13:52:59Z</time>
      </trkpt>
      <trkpt lat="58.148065963760018" lon="-5.240502990782261">
        <ele>16.48</ele>
        <time>2023-08-24T13:53:01Z</time>
      </trkpt>
      <trkpt lat="58.147609988227487" lon="-5.240284977480769">
        <ele>18.399999999999999</ele>
        <time>2023-08-24T13:53:08Z</time>
      </trkpt>
      <trkpt lat="58.147574029862881" lon="-5.240179030224681">
        <ele>19.359999999999999</ele>
        <time>2023-08-24T13:53:10Z</time>
      </trkpt>
      <trkpt lat="58.147544022649527" lon="-5.240089008584619">
        <ele>19.359999999999999</ele>
        <time>2023-08-24T13:53:11Z</time>
      </trkpt>
      <trkpt lat="58.147523989900947" lon="-5.24002798832953">
        <ele>19.84</ele>
        <time>2023-08-24T13:53:12Z</time>
      </trkpt>
      <trkpt lat="58.147236993536353" lon="-5.239869989454746">
        <ele>19.359999999999999</ele>
        <time>2023-08-24T13:53:15Z</time>
      </trkpt>
      <trkpt lat="58.147095004096627" lon="-5.239792037755251">
        <ele>18.879999999999999</ele>
        <time>2023-08-24T13:53:16Z</time>
      </trkpt>
      <trkpt lat="58.147031972184777" lon="-5.239697992801666">
        <ele>18.399999999999999</ele>
        <time>2023-08-24T13:53:17Z</time>
      </trkpt>
      <trkpt lat="58.14684396609664" lon="-5.239416025578976">
        <ele>16.48</ele>
        <time>2023-08-24T13:53:20Z</time>
      </trkpt>
      <trkpt lat="58.146744975820184" lon="-5.239461036399007">
        <ele>16</ele>
        <time>2023-08-24T13:53:21Z</time>
      </trkpt>
      <trkpt lat="58.146698959171772" lon="-5.23953203111887">
        <ele>15.039999999999999</ele>
        <time>2023-08-24T13:53:22Z</time>
      </trkpt>
      <trkpt lat="58.146582031622529" lon="-5.239682989194989">
        <ele>14.08</ele>
        <time>2023-08-24T13:53:24Z</time>
      </trkpt>
      <trkpt lat="58.14652000553906" lon="-5.239678965881467">
        <ele>13.6</ele>
        <time>2023-08-24T13:53:25Z</time>
      </trkpt>
      <trkpt lat="58.146443981677294" lon="-5.239675026386976">
        <ele>13.119999999999999</ele>
        <time>2023-08-24T13:53:26Z</time>
      </trkpt>
      <trkpt lat="58.14626301638782" lon="-5.239665973931551">
        <ele>11.19</ele>
        <time>2023-08-24T13:53:28Z</time>
      </trkpt>
      <trkpt lat="58.145794970914721" lon="-5.23968399502337">
        <ele>9.27</ele>
        <time>2023-08-24T13:53:32Z</time>
      </trkpt>
      <trkpt lat="58.145685000345111" lon="-5.239609982818365">
        <ele>8.789999999999999</ele>
        <time>2023-08-24T13:53:33Z</time>
      </trkpt>
      <trkpt lat="58.145443014800549" lon="-5.23944896645844">
        <ele>9.27</ele>
        <time>2023-08-24T13:53:35Z</time>
      </trkpt>
      <trkpt lat="58.145228018984199" lon="-5.23927696980536">
        <ele>10.710000000000001</ele>
        <time>2023-08-24T13:53:37Z</time>
      </trkpt>
      <trkpt lat="58.144925013184547" lon="-5.239193988963962">
        <ele>14.56</ele>
        <time>2023-08-24T13:53:40Z</time>
      </trkpt>
      <trkpt lat="58.144832979887724" lon="-5.23916901089251">
        <ele>15.52</ele>
        <time>2023-08-24T13:53:41Z</time>
      </trkpt>
      <trkpt lat="58.144734995439649" lon="-5.239122994244099">
        <ele>16.48</ele>
        <time>2023-08-24T13:53:42Z</time>
      </trkpt>
      <trkpt lat="58.144648997113109" lon="-5.23901897482574">
        <ele>16.960000000000001</ele>
        <time>2023-08-24T13:53:43Z</time>
      </trkpt>
      <trkpt lat="58.144580014050007" lon="-5.23884697817266">
        <ele>17.920000000000002</ele>
        <time>2023-08-24T13:53:44Z</time>
      </trkpt>
      <trkpt lat="58.144507007673383" lon="-5.238666012883186">
        <ele>18.879999999999999</ele>
        <time>2023-08-24T13:53:45Z</time>
      </trkpt>
      <trkpt lat="58.144450010731816" lon="-5.238451017066836">
        <ele>19.84</ele>
        <time>2023-08-24T13:53:46Z</time>
      </trkpt>
      <trkpt lat="58.144298968836665" lon="-5.237681977450848">
        <ele>24.170000000000002</ele>
        <time>2023-08-24T13:53:51Z</time>
      </trkpt>
      <trkpt lat="58.144195033237338" lon="-5.237465975806117">
        <ele>24.649999999999999</ele>
        <time>2023-08-24T13:53:52Z</time>
      </trkpt>
      <trkpt lat="58.144111968576908" lon="-5.237366985529661">
        <ele>25.129999999999999</ele>
        <time>2023-08-24T13:53:53Z</time>
      </trkpt>
      <trkpt lat="58.144014989957213" lon="-5.237313006073237">
        <ele>25.609999999999999</ele>
        <time>2023-08-24T13:53:54Z</time>
      </trkpt>
      <trkpt lat="58.143905019387603" lon="-5.237250979989767">
        <ele>26.09</ele>
        <time>2023-08-24T13:53:55Z</time>
      </trkpt>
      <trkpt lat="58.143799994140863" lon="-5.237191971391439">
        <ele>26.09</ele>
        <time>2023-08-24T13:53:56Z</time>
      </trkpt>
      <trkpt lat="58.143708966672421" lon="-5.237142015248537">
        <ele>26.09</ele>
        <time>2023-08-24T13:53:57Z</time>
      </trkpt>
      <trkpt lat="58.143622968345881" lon="-5.237092981114984">
        <ele>26.57</ele>
        <time>2023-08-24T13:53:58Z</time>
      </trkpt>
      <trkpt lat="58.143530013039708" lon="-5.237056016921997">
        <ele>26.57</ele>
        <time>2023-08-24T13:53:59Z</time>
      </trkpt>
      <trkpt lat="58.143417024984956" lon="-5.237030033022165">
        <ele>26.09</ele>
        <time>2023-08-24T13:54:00Z</time>
      </trkpt>
      <trkpt lat="58.143279980868101" lon="-5.236997008323669">
        <ele>26.09</ele>
        <time>2023-08-24T13:54:01Z</time>
      </trkpt>
      <trkpt lat="58.143140003085136" lon="-5.236963983625174">
        <ele>26.09</ele>
        <time>2023-08-24T13:54:02Z</time>
      </trkpt>
      <trkpt lat="58.142892988398671" lon="-5.236905980855227">
        <ele>26.09</ele>
        <time>2023-08-24T13:54:04Z</time>
      </trkpt>
      <trkpt lat="58.142672041431069" lon="-5.236904975026846">
        <ele>26.57</ele>
        <time>2023-08-24T13:54:06Z</time>
      </trkpt>
      <trkpt lat="58.142562992870808" lon="-5.236911009997129">
        <ele>26.57</ele>
        <time>2023-08-24T13:54:07Z</time>
      </trkpt>
      <trkpt lat="58.142459979280829" lon="-5.236916961148381">
        <ele>28.5</ele>
        <time>2023-08-24T13:54:09Z</time>
      </trkpt>
      <trkpt lat="58.142313966527581" lon="-5.237109996378422">
        <ele>28.98</ele>
        <time>2023-08-24T13:54:10Z</time>
      </trkpt>
      <trkpt lat="58.142229979857802" lon="-5.237259026616812">
        <ele>29.460000000000001</ele>
        <time>2023-08-24T13:54:11Z</time>
      </trkpt>
      <trkpt lat="58.142059994861484" lon="-5.237567983567715">
        <ele>30.420000000000002</ele>
        <time>2023-08-24T13:54:13Z</time>
      </trkpt>
      <trkpt lat="58.141957987099886" lon="-5.237836036831141">
        <ele>30.899999999999999</ele>
        <time>2023-08-24T13:54:16Z</time>
      </trkpt>
      <trkpt lat="58.141908030956984" lon="-5.238049020990729">
        <ele>30.899999999999999</ele>
        <time>2023-08-24T13:54:17Z</time>
      </trkpt>
      <trkpt lat="58.141889004036784" lon="-5.238128984346986">
        <ele>30.899999999999999</ele>
        <time>2023-08-24T13:54:18Z</time>
      </trkpt>
      <trkpt lat="58.141870982944965" lon="-5.238206014037132">
        <ele>30.420000000000002</ele>
        <time>2023-08-24T13:54:19Z</time>
      </trkpt>
      <trkpt lat="58.141851034015417" lon="-5.23828798905015">
        <ele>30.420000000000002</ele>
        <time>2023-08-24T13:54:20Z</time>
      </trkpt>
      <trkpt lat="58.141831001266837" lon="-5.23837398737669">
        <ele>30.899999999999999</ele>
        <time>2023-08-24T13:54:21Z</time>
      </trkpt>
      <trkpt lat="58.141809962689877" lon="-5.238464009016752">
        <ele>30.899999999999999</ele>
        <time>2023-08-24T13:54:22Z</time>
      </trkpt>
      <trkpt lat="58.141791019588709" lon="-5.238528968766332">
        <ele>30.899999999999999</ele>
        <time>2023-08-24T13:54:23Z</time>
      </trkpt>
      <trkpt lat="58.141742991283536" lon="-5.238558975979686">
        <ele>31.379999999999999</ele>
        <time>2023-08-24T13:54:24Z</time>
      </trkpt>
      <trkpt lat="58.141631009057164" lon="-5.238629970699549">
        <ele>31.379999999999999</ele>
        <time>2023-08-24T13:54:26Z</time>
      </trkpt>
      <trkpt lat="58.141475021839142" lon="-5.238815965130925">
        <ele>31.859999999999999</ele>
        <time>2023-08-24T13:54:29Z</time>
      </trkpt>
      <trkpt lat="58.141308976337314" lon="-5.239091981202364">
        <ele>31.859999999999999</ele>
        <time>2023-08-24T13:54:30Z</time>
      </trkpt>
      <trkpt lat="58.141246028244495" lon="-5.239311000332236">
        <ele>31.379999999999999</ele>
        <time>2023-08-24T13:54:31Z</time>
      </trkpt>
      <trkpt lat="58.141199005767703" lon="-5.239539993926883">
        <ele>31.379999999999999</ele>
        <time>2023-08-24T13:54:32Z</time>
      </trkpt>
      <trkpt lat="58.141122981905937" lon="-5.240054978057742">
        <ele>31.379999999999999</ele>
        <time>2023-08-24T13:54:35Z</time>
      </trkpt>
      <trkpt lat="58.141019968315959" lon="-5.240761991590262">
        <ele>31.379999999999999</ele>
        <time>2023-08-24T13:54:38Z</time>
      </trkpt>
      <trkpt lat="58.140931036323309" lon="-5.24114596657455">
        <ele>31.859999999999999</ele>
        <time>2023-08-24T13:54:40Z</time>
      </trkpt>
      <trkpt lat="58.140833973884583" lon="-5.241363979876041">
        <ele>31.859999999999999</ele>
        <time>2023-08-24T13:54:41Z</time>
      </trkpt>
      <trkpt lat="58.140743030235171" lon="-5.241422988474369">
        <ele>31.379999999999999</ele>
        <time>2023-08-24T13:54:42Z</time>
      </trkpt>
      <trkpt lat="58.14067698083818" lon="-5.241314023733139">
        <ele>31.379999999999999</ele>
        <time>2023-08-24T13:54:43Z</time>
      </trkpt>
      <trkpt lat="58.140619983896613" lon="-5.241221990436316">
        <ele>31.379999999999999</ele>
        <time>2023-08-24T13:54:44Z</time>
      </trkpt>
      <trkpt lat="58.140558041632175" lon="-5.241061979904771">
        <ele>30.899999999999999</ele>
        <time>2023-08-24T13:54:45Z</time>
      </trkpt>
      <trkpt lat="58.14052501693368" lon="-5.240862993523479">
        <ele>30.899999999999999</ele>
        <time>2023-08-24T13:54:46Z</time>
      </trkpt>
      <trkpt lat="58.140492998063564" lon="-5.240671969950199">
        <ele>30.899999999999999</ele>
        <time>2023-08-24T13:54:47Z</time>
      </trkpt>
      <trkpt lat="58.140467014163733" lon="-5.240511959418654">
        <ele>30.899999999999999</ele>
        <time>2023-08-24T13:54:48Z</time>
      </trkpt>
      <trkpt lat="58.140431977808475" lon="-5.240353038534522">
        <ele>31.379999999999999</ele>
        <time>2023-08-24T13:54:49Z</time>
      </trkpt>
      <trkpt lat="58.140379004180431" lon="-5.24026402272284">
        <ele>31.859999999999999</ele>
        <time>2023-08-24T13:54:51Z</time>
      </trkpt>
      <trkpt lat="58.140195021405816" lon="-5.240296041592956">
        <ele>32.340000000000003</ele>
        <time>2023-08-24T13:54:52Z</time>
      </trkpt>
      <trkpt lat="58.140013972297311" lon="-5.240327976644039">
        <ele>33.780000000000001</ele>
        <time>2023-08-24T13:54:54Z</time>
      </trkpt>
      <trkpt lat="58.139933003112674" lon="-5.240266034379602">
        <ele>34.740000000000002</ele>
        <time>2023-08-24T13:54:55Z</time>
      </trkpt>
      <trkpt lat="58.139869971200824" lon="-5.240217000246048">
        <ele>35.710000000000001</ele>
        <time>2023-08-24T13:54:56Z</time>
      </trkpt>
      <trkpt lat="58.139808028936386" lon="-5.240168971940875">
        <ele>36.670000000000002</ele>
        <time>2023-08-24T13:54:57Z</time>
      </trkpt>
      <trkpt lat="58.139742985367775" lon="-5.240118009969592">
        <ele>37.630000000000003</ele>
        <time>2023-08-24T13:54:58Z</time>
      </trkpt>
      <trkpt lat="58.139680959284306" lon="-5.240068975836039">
        <ele>39.07</ele>
        <time>2023-08-24T13:55:00Z</time>
      </trkpt>
      <trkpt lat="58.139460012316704" lon="-5.239897985011339">
        <ele>41.950000000000003</ele>
        <time>2023-08-24T13:55:03Z</time>
      </trkpt>
      <trkpt lat="58.139411984011531" lon="-5.239884993061423">
        <ele>42.920000000000002</ele>
        <time>2023-08-24T13:55:04Z</time>
      </trkpt>
      <trkpt lat="58.139350963756442" lon="-5.239905025810003">
        <ele>43.399999999999999</ele>
        <time>2023-08-24T13:55:05Z</time>
      </trkpt>
      <trkpt lat="58.139289021492004" lon="-5.239925980567932">
        <ele>44.359999999999999</ele>
        <time>2023-08-24T13:55:06Z</time>
      </trkpt>
      <trkpt lat="58.139229007065296" lon="-5.239983983337879">
        <ele>44.840000000000003</ele>
        <time>2023-08-24T13:55:07Z</time>
      </trkpt>
      <trkpt lat="58.139198999851942" lon="-5.24009202606976">
        <ele>46.280000000000001</ele>
        <time>2023-08-24T13:55:08Z</time>
      </trkpt>
      <trkpt lat="58.139198999851942" lon="-5.240207025781274">
        <ele>47.719999999999999</ele>
        <time>2023-08-24T13:55:09Z</time>
      </trkpt>
      <trkpt lat="58.139198999851942" lon="-5.240344991907477">
        <ele>48.68</ele>
        <time>2023-08-24T13:55:10Z</time>
      </trkpt>
      <trkpt lat="58.139224983751774" lon="-5.240444988012314">
        <ele>49.649999999999999</ele>
        <time>2023-08-24T13:55:11Z</time>
      </trkpt>
      <trkpt lat="58.139265971258283" lon="-5.240595024079084">
        <ele>51.090000000000003</ele>
        <time>2023-08-24T13:55:12Z</time>
      </trkpt>
      <trkpt lat="58.139307964593172" lon="-5.240745982155204">
        <ele>52.530000000000001</ele>
        <time>2023-08-24T13:55:13Z</time>
      </trkpt>
      <trkpt lat="58.139435034245253" lon="-5.241207992658019">
        <ele>57.340000000000003</ele>
        <time>2023-08-24T13:55:17Z</time>
      </trkpt>
      <trkpt lat="58.139426987618208" lon="-5.241503035649657">
        <ele>58.780000000000001</ele>
        <time>2023-08-24T13:55:18Z</time>
      </trkpt>
      <trkpt lat="58.139398992061615" lon="-5.241628009825945">
        <ele>59.740000000000002</ele>
        <time>2023-08-24T13:55:19Z</time>
      </trkpt>
      <trkpt lat="58.138976963236928" lon="-5.242826035246253">
        <ele>63.100000000000001</ele>
        <time>2023-08-24T13:55:28Z</time>
      </trkpt>
      <trkpt lat="58.138916026800871" lon="-5.242998031899333">
        <ele>63.100000000000001</ele>
        <time>2023-08-24T13:55:29Z</time>
      </trkpt>
      <trkpt lat="58.138847965747118" lon="-5.243188971653581">
        <ele>62.619999999999997</ele>
        <time>2023-08-24T13:55:30Z</time>
      </trkpt>
      <trkpt lat="58.138266010209918" lon="-5.244829980656505">
        <ele>57.82</ele>
        <time>2023-08-24T13:55:37Z</time>
      </trkpt>
      <trkpt lat="58.137331008911133" lon="-5.247199041768909">
        <ele>48.200000000000003</ele>
        <time>2023-08-24T13:55:47Z</time>
      </trkpt>
      <trkpt lat="58.136871010065079" lon="-5.248087020590901">
        <ele>43.880000000000003</ele>
        <time>2023-08-24T13:55:52Z</time>
      </trkpt>
      <trkpt lat="58.13661796040833" lon="-5.24857702665031">
        <ele>41.469999999999999</ele>
        <time>2023-08-24T13:55:55Z</time>
      </trkpt>
      <trkpt lat="58.136531040072441" lon="-5.248743994161487">
        <ele>40.990000000000002</ele>
        <time>2023-08-24T13:55:56Z</time>
      </trkpt>
      <trkpt lat="58.13644596375525" lon="-5.248909033834934">
        <ele>40.509999999999998</ele>
        <time>2023-08-24T13:55:57Z</time>
      </trkpt>
      <trkpt lat="58.136362982913852" lon="-5.249070972204208">
        <ele>40.030000000000001</ele>
        <time>2023-08-24T13:55:58Z</time>
      </trkpt>
      <trkpt lat="58.136310009285808" lon="-5.249307006597519">
        <ele>39.07</ele>
        <time>2023-08-24T13:56:00Z</time>
      </trkpt>
      <trkpt lat="58.13629399985075" lon="-5.249509010463953">
        <ele>38.590000000000003</ele>
        <time>2023-08-24T13:56:01Z</time>
      </trkpt>
      <trkpt lat="58.136277990415692" lon="-5.249702967703342">
        <ele>38.109999999999999</ele>
        <time>2023-08-24T13:56:02Z</time>
      </trkpt>
      <trkpt lat="58.136284025385976" lon="-5.252053001895547">
        <ele>37.149999999999999</ele>
        <time>2023-08-24T13:56:11Z</time>
      </trkpt>
      <trkpt lat="58.136261980980635" lon="-5.252287024632096">
        <ele>36.670000000000002</ele>
        <time>2023-08-24T13:56:12Z</time>
      </trkpt>
      <trkpt lat="58.136239014565945" lon="-5.252521969377995">
        <ele>36.189999999999998</ele>
        <time>2023-08-24T13:56:13Z</time>
      </trkpt>
      <trkpt lat="58.136202972382307" lon="-5.252935029566288">
        <ele>33.780000000000001</ele>
        <time>2023-08-24T13:56:16Z</time>
      </trkpt>
      <trkpt lat="58.136194003745914" lon="-5.253031002357602">
        <ele>32.82</ele>
        <time>2023-08-24T13:56:17Z</time>
      </trkpt>
      <trkpt lat="58.136266004294157" lon="-5.253381030634046">
        <ele>30.420000000000002</ele>
        <time>2023-08-24T13:56:19Z</time>
      </trkpt>
      <trkpt lat="58.136375974863768" lon="-5.254018977284432">
        <ele>28.5</ele>
        <time>2023-08-24T13:56:21Z</time>
      </trkpt>
      <trkpt lat="58.136390978470445" lon="-5.254242019727826">
        <ele>27.530000000000001</ele>
        <time>2023-08-24T13:56:22Z</time>
      </trkpt>
      <trkpt lat="58.136434983462095" lon="-5.254906034097076">
        <ele>26.09</ele>
        <time>2023-08-24T13:56:25Z</time>
      </trkpt>
      <trkpt lat="58.136450992897153" lon="-5.255137039348483">
        <ele>26.09</ele>
        <time>2023-08-24T13:56:26Z</time>
      </trkpt>
      <trkpt lat="58.136484017595649" lon="-5.255327979102731">
        <ele>26.09</ele>
        <time>2023-08-24T13:56:27Z</time>
      </trkpt>
      <trkpt lat="58.136516036465764" lon="-5.25549896992743">
        <ele>26.09</ele>
        <time>2023-08-24T13:56:28Z</time>
      </trkpt>
      <trkpt lat="58.136597005650401" lon="-5.255744978785515">
        <ele>26.09</ele>
        <time>2023-08-24T13:56:29Z</time>
      </trkpt>
      <trkpt lat="58.136670012027025" lon="-5.255965003743768">
        <ele>26.09</ele>
        <time>2023-08-24T13:56:30Z</time>
      </trkpt>
      <trkpt lat="58.13689598813653" lon="-5.256653996184468">
        <ele>24.649999999999999</ele>
        <time>2023-08-24T13:56:33Z</time>
      </trkpt>
      <trkpt lat="58.137134034186602" lon="-5.257601989433169">
        <ele>21.77</ele>
        <time>2023-08-24T13:56:37Z</time>
      </trkpt>
      <trkpt lat="58.137203017249703" lon="-5.258076991885901">
        <ele>18.399999999999999</ele>
        <time>2023-08-24T13:56:39Z</time>
      </trkpt>
      <trkpt lat="58.137203017249703" lon="-5.258303973823786">
        <ele>16.960000000000001</ele>
        <time>2023-08-24T13:56:40Z</time>
      </trkpt>
      <trkpt lat="58.137203017249703" lon="-5.25852701626718">
        <ele>15.039999999999999</ele>
        <time>2023-08-24T13:56:41Z</time>
      </trkpt>
      <trkpt lat="58.137184996157885" lon="-5.258773025125265">
        <ele>13.6</ele>
        <time>2023-08-24T13:56:42Z</time>
      </trkpt>
      <trkpt lat="58.137149959802628" lon="-5.259007969871163">
        <ele>12.630000000000001</ele>
        <time>2023-08-24T13:56:43Z</time>
      </trkpt>
      <trkpt lat="58.137115007266402" lon="-5.259249033406377">
        <ele>11.67</ele>
        <time>2023-08-24T13:56:44Z</time>
      </trkpt>
      <trkpt lat="58.137031020596623" lon="-5.259811962023377">
        <ele>10.23</ele>
        <time>2023-08-24T13:56:46Z</time>
      </trkpt>
      <trkpt lat="58.136622989550233" lon="-5.261186007410288">
        <ele>10.710000000000001</ele>
        <time>2023-08-24T13:56:54Z</time>
      </trkpt>
      <trkpt lat="58.136545959860086" lon="-5.261339982971549">
        <ele>11.67</ele>
        <time>2023-08-24T13:56:55Z</time>
      </trkpt>
      <trkpt lat="58.136467002332211" lon="-5.261498987674713">
        <ele>13.119999999999999</ele>
        <time>2023-08-24T13:56:56Z</time>
      </trkpt>
      <trkpt lat="58.136330964043736" lon="-5.261862007901073">
        <ele>15.039999999999999</ele>
        <time>2023-08-24T13:56:58Z</time>
      </trkpt>
      <trkpt lat="58.136259969323874" lon="-5.262024030089378">
        <ele>16.48</ele>
        <time>2023-08-24T13:56:59Z</time>
      </trkpt>
      <trkpt lat="58.136186040937901" lon="-5.262109022587538">
        <ele>17.440000000000001</ele>
        <time>2023-08-24T13:57:00Z</time>
      </trkpt>
      <trkpt lat="58.136108005419374" lon="-5.262181023135781">
        <ele>19.84</ele>
        <time>2023-08-24T13:57:02Z</time>
      </trkpt>
      <trkpt lat="58.136071963235736" lon="-5.262197032570839">
        <ele>20.809999999999999</ele>
        <time>2023-08-24T13:57:03Z</time>
      </trkpt>
      <trkpt lat="58.135912958532572" lon="-5.26226400397718">
        <ele>23.690000000000001</ele>
        <time>2023-08-24T13:57:06Z</time>
      </trkpt>
      <trkpt lat="58.135160012170672" lon="-5.262572038918734">
        <ele>28.5</ele>
        <time>2023-08-24T13:57:13Z</time>
      </trkpt>
      <trkpt lat="58.135051969438791" lon="-5.262605985626578">
        <ele>28.98</ele>
        <time>2023-08-24T13:57:14Z</time>
      </trkpt>
      <trkpt lat="58.134947028011084" lon="-5.262640016153455">
        <ele>29.940000000000001</ele>
        <time>2023-08-24T13:57:15Z</time>
      </trkpt>
      <trkpt lat="58.134833034127951" lon="-5.262645967304707">
        <ele>30.899999999999999</ele>
        <time>2023-08-24T13:57:16Z</time>
      </trkpt>
      <trkpt lat="58.134728008881211" lon="-5.262578995898366">
        <ele>32.340000000000003</ele>
        <time>2023-08-24T13:57:17Z</time>
      </trkpt>
      <trkpt lat="58.134618038311601" lon="-5.262508001178503">
        <ele>33.299999999999997</ele>
        <time>2023-08-24T13:57:18Z</time>
      </trkpt>
      <trkpt lat="58.134516030550003" lon="-5.262443041428924">
        <ele>36.189999999999998</ele>
        <time>2023-08-24T13:57:20Z</time>
      </trkpt>
      <trkpt lat="58.134322995319963" lon="-5.262290993705392">
        <ele>37.630000000000003</ele>
        <time>2023-08-24T13:57:21Z</time>
      </trkpt>
      <trkpt lat="58.134299023076892" lon="-5.262139029800892">
        <ele>39.07</ele>
        <time>2023-08-24T13:57:22Z</time>
      </trkpt>
      <trkpt lat="58.134270021691918" lon="-5.261958986520767">
        <ele>40.030000000000001</ele>
        <time>2023-08-24T13:57:23Z</time>
      </trkpt>
      <trkpt lat="58.134239008650184" lon="-5.261762011796236">
        <ele>40.509999999999998</ele>
        <time>2023-08-24T13:57:24Z</time>
      </trkpt>
      <trkpt lat="58.134206989780068" lon="-5.261560007929802">
        <ele>41.469999999999999</ele>
        <time>2023-08-24T13:57:25Z</time>
      </trkpt>
      <trkpt lat="58.134160973131657" lon="-5.261388011276722">
        <ele>41.469999999999999</ele>
        <time>2023-08-24T13:57:26Z</time>
      </trkpt>
      <trkpt lat="58.13410297036171" lon="-5.261204028502107">
        <ele>41.950000000000003</ele>
        <time>2023-08-24T13:57:27Z</time>
      </trkpt>
      <trkpt lat="58.134043961763382" lon="-5.261057009920478">
        <ele>42.439999999999998</ele>
        <time>2023-08-24T13:57:29Z</time>
      </trkpt>
      <trkpt lat="58.133354969322681" lon="-5.259927967563272">
        <ele>43.880000000000003</ele>
        <time>2023-08-24T13:57:37Z</time>
      </trkpt>
      <trkpt lat="58.133250027894974" lon="-5.259755970910192">
        <ele>43.399999999999999</ele>
        <time>2023-08-24T13:57:43Z</time>
      </trkpt>
      <trkpt lat="58.132906034588814" lon="-5.259247021749616">
        <ele>43.880000000000003</ele>
        <time>2023-08-24T13:57:48Z</time>
      </trkpt>
      <trkpt lat="58.132819030433893" lon="-5.259135039523244">
        <ele>43.880000000000003</ele>
        <time>2023-08-24T13:57:49Z</time>
      </trkpt>
      <trkpt lat="58.132015960291028" lon="-5.258896993473172">
        <ele>46.280000000000001</ele>
        <time>2023-08-24T13:57:57Z</time>
      </trkpt>
      <trkpt lat="58.131881011649966" lon="-5.258867992088199">
        <ele>47.240000000000002</ele>
        <time>2023-08-24T13:57:58Z</time>
      </trkpt>
      <trkpt lat="58.131790990009904" lon="-5.258726002648473">
        <ele>47.719999999999999</ele>
        <time>2023-08-24T13:57:59Z</time>
      </trkpt>
      <trkpt lat="58.131690993905067" lon="-5.25856900960207">
        <ele>48.200000000000003</ele>
        <time>2023-08-24T13:58:00Z</time>
      </trkpt>
      <trkpt lat="58.131581023335457" lon="-5.258396007120609">
        <ele>48.68</ele>
        <time>2023-08-24T13:58:01Z</time>
      </trkpt>
      <trkpt lat="58.13081600703299" lon="-5.256738988682628">
        <ele>50.609999999999999</ele>
        <time>2023-08-24T13:58:10Z</time>
      </trkpt>
      <trkpt lat="58.130743000656366" lon="-5.256686015054584">
        <ele>51.090000000000003</ele>
        <time>2023-08-24T13:58:11Z</time>
      </trkpt>
      <trkpt lat="58.130680974572897" lon="-5.256641004234552">
        <ele>51.57</ele>
        <time>2023-08-24T13:58:12Z</time>
      </trkpt>
      <trkpt lat="58.130589025095105" lon="-5.25661401450634">
        <ele>52.049999999999997</ele>
        <time>2023-08-24T13:58:13Z</time>
      </trkpt>
      <trkpt lat="58.130501015111804" lon="-5.256693977862597">
        <ele>52.530000000000001</ele>
        <time>2023-08-24T13:58:14Z</time>
      </trkpt>
      <trkpt lat="58.130460027605295" lon="-5.256775030866265">
        <ele>53.009999999999998</ele>
        <time>2023-08-24T13:58:15Z</time>
      </trkpt>
      <trkpt lat="58.130460027605295" lon="-5.256775030866265">
        <ele>53.490000000000002</ele>
        <time>2023-08-24T13:58:21Z</time>
      </trkpt>
      <trkpt lat="58.130271015688777" lon="-5.257189013063908">
        <ele>56.859999999999999</ele>
        <time>2023-08-24T13:58:26Z</time>
      </trkpt>
      <trkpt lat="58.129665004089475" lon="-5.258878972381353">
        <ele>59.259999999999998</ele>
        <time>2023-08-24T13:58:35Z</time>
      </trkpt>
      <trkpt lat="58.1291180010885" lon="-5.260607991367579">
        <ele>53.490000000000002</ele>
        <time>2023-08-24T13:58:44Z</time>
      </trkpt>
      <trkpt lat="58.128963019698858" lon="-5.261226994916797">
        <ele>51.090000000000003</ele>
        <time>2023-08-24T13:58:47Z</time>
      </trkpt>
      <trkpt lat="58.128894958645105" lon="-5.261431010439992">
        <ele>50.130000000000003</ele>
        <time>2023-08-24T13:58:48Z</time>
      </trkpt>
      <trkpt lat="58.128786999732256" lon="-5.261565037071705">
        <ele>49.159999999999997</ele>
        <time>2023-08-24T13:58:49Z</time>
      </trkpt>
      <trkpt lat="58.128673005849123" lon="-5.261708032339811">
        <ele>48.200000000000003</ele>
        <time>2023-08-24T13:58:50Z</time>
      </trkpt>
      <trkpt lat="58.128553982824087" lon="-5.261854967102408">
        <ele>47.240000000000002</ele>
        <time>2023-08-24T13:58:51Z</time>
      </trkpt>
      <trkpt lat="58.127955012023449" lon="-5.262771025300026">
        <ele>44.359999999999999</ele>
        <time>2023-08-24T13:58:58Z</time>
      </trkpt>
      <trkpt lat="58.127863984555006" lon="-5.262976968660951">
        <ele>43.399999999999999</ele>
        <time>2023-08-24T13:59:01Z</time>
      </trkpt>
      <trkpt lat="58.127466011792421" lon="-5.264043984934688">
        <ele>38.590000000000003</ele>
        <time>2023-08-24T13:59:08Z</time>
      </trkpt>
      <trkpt lat="58.127097962424159" lon="-5.265167998149991">
        <ele>33.299999999999997</ele>
        <time>2023-08-24T13:59:14Z</time>
      </trkpt>
      <trkpt lat="58.127006012946367" lon="-5.265279980376363">
        <ele>32.340000000000003</ele>
        <time>2023-08-24T13:59:15Z</time>
      </trkpt>
      <trkpt lat="58.126910040155053" lon="-5.265362961217761">
        <ele>31.859999999999999</ele>
        <time>2023-08-24T13:59:16Z</time>
      </trkpt>
      <trkpt lat="58.126812977716327" lon="-5.265448037534952">
        <ele>30.899999999999999</ele>
        <time>2023-08-24T13:59:17Z</time>
      </trkpt>
      <trkpt lat="58.126727985218167" lon="-5.265520960092545">
        <ele>29.460000000000001</ele>
        <time>2023-08-24T13:59:19Z</time>
      </trkpt>
      <trkpt lat="58.126513995230198" lon="-5.265620034188032">
        <ele>26.09</ele>
        <time>2023-08-24T13:59:22Z</time>
      </trkpt>
      <trkpt lat="58.126452974975109" lon="-5.265648029744625">
        <ele>25.609999999999999</ele>
        <time>2023-08-24T13:59:23Z</time>
      </trkpt>
      <trkpt lat="58.1264119874686" lon="-5.265634031966329">
        <ele>24.649999999999999</ele>
        <time>2023-08-24T13:59:24Z</time>
      </trkpt>
      <trkpt lat="58.126352978870273" lon="-5.265612993389368">
        <ele>23.690000000000001</ele>
        <time>2023-08-24T13:59:25Z</time>
      </trkpt>
      <trkpt lat="58.126276032999158" lon="-5.265586003661156">
        <ele>22.73</ele>
        <time>2023-08-24T13:59:26Z</time>
      </trkpt>
      <trkpt lat="58.126188023015857" lon="-5.265554990619421">
        <ele>21.77</ele>
        <time>2023-08-24T13:59:27Z</time>
      </trkpt>
      <trkpt lat="58.126026000827551" lon="-5.265422975644469">
        <ele>18.879999999999999</ele>
        <time>2023-08-24T13:59:29Z</time>
      </trkpt>
      <trkpt lat="58.125961041077971" lon="-5.265322979539633">
        <ele>17.440000000000001</ele>
        <time>2023-08-24T13:59:30Z</time>
      </trkpt>
      <trkpt lat="58.125903960317373" lon="-5.265234969556332">
        <ele>16.48</ele>
        <time>2023-08-24T13:59:31Z</time>
      </trkpt>
      <trkpt lat="58.125788038596511" lon="-5.265054004266858">
        <ele>14.08</ele>
        <time>2023-08-24T13:59:33Z</time>
      </trkpt>
      <trkpt lat="58.125728024169803" lon="-5.264960965141654">
        <ele>12.630000000000001</ele>
        <time>2023-08-24T13:59:34Z</time>
      </trkpt>
      <trkpt lat="58.125659041106701" lon="-5.264854012057185">
        <ele>11.67</ele>
        <time>2023-08-24T13:59:35Z</time>
      </trkpt>
      <trkpt lat="58.125601960346103" lon="-5.264809001237154">
        <ele>10.710000000000001</ele>
        <time>2023-08-24T13:59:36Z</time>
      </trkpt>
      <trkpt lat="58.125538006424904" lon="-5.264757033437491">
        <ele>9.75</ele>
        <time>2023-08-24T13:59:37Z</time>
      </trkpt>
      <trkpt lat="58.124769972637296" lon="-5.264232996851206">
        <ele>7.83</ele>
        <time>2023-08-24T13:59:46Z</time>
      </trkpt>
      <trkpt lat="58.123798007145524" lon="-5.263976007699966">
        <ele>8.310000000000001</ele>
        <time>2023-08-24T13:59:55Z</time>
      </trkpt>
      <trkpt lat="58.122974988073111" lon="-5.264150016009808">
        <ele>9.27</ele>
        <time>2023-08-24T14:00:05Z</time>
      </trkpt>
      <trkpt lat="58.122891001403332" lon="-5.264168037101626">
        <ele>9.75</ele>
        <time>2023-08-24T14:00:10Z</time>
      </trkpt>
      <trkpt lat="58.122891001403332" lon="-5.264168037101626">
        <ele>9.75</ele>
        <time>2023-08-24T14:00:11Z</time>
      </trkpt>
      <trkpt lat="58.122891001403332" lon="-5.264168037101626">
        <ele>9.75</ele>
        <time>2023-08-24T14:00:24Z</time>
      </trkpt>
      <trkpt lat="58.122853031381965" lon="-5.264144986867905">
        <ele>9.75</ele>
        <time>2023-08-24T14:11:01Z</time>
      </trkpt>
      <trkpt lat="58.122854037210345" lon="-5.264124032109976">
        <ele>13.119999999999999</ele>
        <time>2023-08-24T14:11:47Z</time>
      </trkpt>
      <trkpt lat="58.122854959219694" lon="-5.264110034331679">
        <ele>16.960000000000001</ele>
        <time>2023-08-24T14:12:42Z</time>
      </trkpt>
      <trkpt lat="58.122857976704836" lon="-5.264117997139692">
        <ele>16.960000000000001</ele>
        <time>2023-08-24T14:13:44Z</time>
      </trkpt>
      <trkpt lat="58.122863005846739" lon="-5.264114979654551">
        <ele>17.440000000000001</ele>
        <time>2023-08-24T14:14:37Z</time>
      </trkpt>
      <trkpt lat="58.122859988361597" lon="-5.264125037938356">
        <ele>16.960000000000001</ele>
        <time>2023-08-24T14:15:31Z</time>
      </trkpt>
      <trkpt lat="58.122863005846739" lon="-5.264127971604466">
        <ele>17.440000000000001</ele>
        <time>2023-08-24T14:16:26Z</time>
      </trkpt>
      <trkpt lat="58.122858982533216" lon="-5.264126965776086">
        <ele>16.960000000000001</ele>
        <time>2023-08-24T14:17:15Z</time>
      </trkpt>
      <trkpt lat="58.122857976704836" lon="-5.264127971604466">
        <ele>16.48</ele>
        <time>2023-08-24T14:17:30Z</time>
      </trkpt>
      <trkpt lat="58.122823024168611" lon="-5.264078015461564">
        <ele>16</ele>
        <time>2023-08-24T14:17:32Z</time>
      </trkpt>
      <trkpt lat="58.122762003913522" lon="-5.263996040448546">
        <ele>15.52</ele>
        <time>2023-08-24T14:17:33Z</time>
      </trkpt>
      <trkpt lat="58.122604005038738" lon="-5.263047963380814">
        <ele>15.52</ele>
        <time>2023-08-24T14:17:41Z</time>
      </trkpt>
      <trkpt lat="58.122528987005353" lon="-5.262598022818565">
        <ele>15.52</ele>
        <time>2023-08-24T14:17:44Z</time>
      </trkpt>
      <trkpt lat="58.122353972867131" lon="-5.261550033465028">
        <ele>15.52</ele>
        <time>2023-08-24T14:17:50Z</time>
      </trkpt>
      <trkpt lat="58.122244002297521" lon="-5.261178966611624">
        <ele>16.48</ele>
        <time>2023-08-24T14:17:53Z</time>
      </trkpt>
      <trkpt lat="58.122204020619392" lon="-5.261042006313801">
        <ele>16.960000000000001</ele>
        <time>2023-08-24T14:17:54Z</time>
      </trkpt>
      <trkpt lat="58.122176025062799" lon="-5.260892976075411">
        <ele>17.440000000000001</ele>
        <time>2023-08-24T14:17:55Z</time>
      </trkpt>
      <trkpt lat="58.122160015627742" lon="-5.260723996907473">
        <ele>17.440000000000001</ele>
        <time>2023-08-24T14:17:56Z</time>
      </trkpt>
      <trkpt lat="58.122144006192684" lon="-5.26054797694087">
        <ele>17.440000000000001</ele>
        <time>2023-08-24T14:17:57Z</time>
      </trkpt>
      <trkpt lat="58.122139982879162" lon="-5.26037598028779">
        <ele>17.440000000000001</ele>
        <time>2023-08-24T14:17:58Z</time>
      </trkpt>
      <trkpt lat="58.122139982879162" lon="-5.260189985856414">
        <ele>17.440000000000001</ele>
        <time>2023-08-24T14:17:59Z</time>
      </trkpt>
      <trkpt lat="58.122139982879162" lon="-5.259983036667109">
        <ele>16.960000000000001</ele>
        <time>2023-08-24T14:18:00Z</time>
      </trkpt>
      <trkpt lat="58.122139982879162" lon="-5.259768962860107">
        <ele>16.960000000000001</ele>
        <time>2023-08-24T14:18:01Z</time>
      </trkpt>
      <trkpt lat="58.122139982879162" lon="-5.259551033377647">
        <ele>16.960000000000001</ele>
        <time>2023-08-24T14:18:02Z</time>
      </trkpt>
      <trkpt lat="58.122139982879162" lon="-5.259339977055788">
        <ele>16.48</ele>
        <time>2023-08-24T14:18:03Z</time>
      </trkpt>
      <trkpt lat="58.122112993150949" lon="-5.259114000946283">
        <ele>16.48</ele>
        <time>2023-08-24T14:18:04Z</time>
      </trkpt>
      <trkpt lat="58.122044010087848" lon="-5.258517963811755">
        <ele>16.48</ele>
        <time>2023-08-24T14:18:07Z</time>
      </trkpt>
      <trkpt lat="58.122032023966312" lon="-5.257368972525001">
        <ele>18.879999999999999</ele>
        <time>2023-08-24T14:18:13Z</time>
      </trkpt>
      <trkpt lat="58.121997993439436" lon="-5.257205022498965">
        <ele>18.879999999999999</ele>
        <time>2023-08-24T14:18:14Z</time>
      </trkpt>
      <trkpt lat="58.121961029246449" lon="-5.257030008360744">
        <ele>19.359999999999999</ele>
        <time>2023-08-24T14:18:15Z</time>
      </trkpt>
      <trkpt lat="58.12192196957767" lon="-5.256842002272606">
        <ele>19.359999999999999</ele>
        <time>2023-08-24T14:18:16Z</time>
      </trkpt>
      <trkpt lat="58.1218789704144" lon="-5.256639998406172">
        <ele>19.359999999999999</ele>
        <time>2023-08-24T14:18:17Z</time>
      </trkpt>
      <trkpt lat="58.121816022321582" lon="-5.256440006196499">
        <ele>19.359999999999999</ele>
        <time>2023-08-24T14:18:18Z</time>
      </trkpt>
      <trkpt lat="58.121527014300227" lon="-5.25560500100255">
        <ele>19.359999999999999</ele>
        <time>2023-08-24T14:18:23Z</time>
      </trkpt>
      <trkpt lat="58.121496001258492" lon="-5.25545597076416">
        <ele>19.359999999999999</ele>
        <time>2023-08-24T14:18:24Z</time>
      </trkpt>
      <trkpt lat="58.121496001258492" lon="-5.255241980776191">
        <ele>19.359999999999999</ele>
        <time>2023-08-24T14:18:25Z</time>
      </trkpt>
      <trkpt lat="58.121496001258492" lon="-5.255033019930124">
        <ele>19.84</ele>
        <time>2023-08-24T14:18:26Z</time>
      </trkpt>
      <trkpt lat="58.121496001258492" lon="-5.25480997748673">
        <ele>19.84</ele>
        <time>2023-08-24T14:18:27Z</time>
      </trkpt>
      <trkpt lat="58.121527014300227" lon="-5.253296960145235">
        <ele>19.84</ele>
        <time>2023-08-24T14:18:33Z</time>
      </trkpt>
      <trkpt lat="58.121574958786368" lon="-5.252142017707229">
        <ele>22.25</ele>
        <time>2023-08-24T14:18:38Z</time>
      </trkpt>
      <trkpt lat="58.121580993756652" lon="-5.251981001347303">
        <ele>22.73</ele>
        <time>2023-08-24T14:18:39Z</time>
      </trkpt>
      <trkpt lat="58.121587028726935" lon="-5.251849992200732">
        <ele>22.73</ele>
        <time>2023-08-24T14:18:40Z</time>
      </trkpt>
      <trkpt lat="58.121594991534948" lon="-5.251637008041143">
        <ele>23.210000000000001</ele>
        <time>2023-08-24T14:18:42Z</time>
      </trkpt>
      <trkpt lat="58.121599014848471" lon="-5.251546986401081">
        <ele>23.210000000000001</ele>
        <time>2023-08-24T14:18:43Z</time>
      </trkpt>
      <trkpt lat="58.121539000421762" lon="-5.251451013609767">
        <ele>23.690000000000001</ele>
        <time>2023-08-24T14:18:44Z</time>
      </trkpt>
      <trkpt lat="58.121496001258492" lon="-5.251455958932638">
        <ele>23.690000000000001</ele>
        <time>2023-08-24T14:18:45Z</time>
      </trkpt>
      <trkpt lat="58.121439004316926" lon="-5.251462999731302">
        <ele>24.170000000000002</ele>
        <time>2023-08-24T14:18:46Z</time>
      </trkpt>
      <trkpt lat="58.121369015425444" lon="-5.251470962539315">
        <ele>24.170000000000002</ele>
        <time>2023-08-24T14:18:47Z</time>
      </trkpt>
      <trkpt lat="58.121279999613762" lon="-5.251482026651502">
        <ele>24.649999999999999</ele>
        <time>2023-08-24T14:18:48Z</time>
      </trkpt>
      <trkpt lat="58.121187966316938" lon="-5.251498958095908">
        <ele>24.649999999999999</ele>
        <time>2023-08-24T14:18:49Z</time>
      </trkpt>
      <trkpt lat="58.12112401239574" lon="-5.251556960865855">
        <ele>25.129999999999999</ele>
        <time>2023-08-24T14:18:50Z</time>
      </trkpt>
      <trkpt lat="58.121059974655509" lon="-5.251662991940975">
        <ele>25.609999999999999</ele>
        <time>2023-08-24T14:18:51Z</time>
      </trkpt>
      <trkpt lat="58.120985962450504" lon="-5.251788971945643">
        <ele>27.050000000000001</ele>
        <time>2023-08-24T14:18:52Z</time>
      </trkpt>
      <trkpt lat="58.120903987437487" lon="-5.251928027719259">
        <ele>28.02</ele>
        <time>2023-08-24T14:18:53Z</time>
      </trkpt>
      <trkpt lat="58.12082402408123" lon="-5.252062976360321">
        <ele>29.460000000000001</ele>
        <time>2023-08-24T14:18:54Z</time>
      </trkpt>
      <trkpt lat="58.120709024369717" lon="-5.252127014100552">
        <ele>30.899999999999999</ele>
        <time>2023-08-24T14:18:55Z</time>
      </trkpt>
      <trkpt lat="58.120595030486584" lon="-5.252173030748963">
        <ele>32.82</ele>
        <time>2023-08-24T14:18:56Z</time>
      </trkpt>
      <trkpt lat="58.12052202410996" lon="-5.25227403268218">
        <ele>34.259999999999998</ele>
        <time>2023-08-24T14:18:57Z</time>
      </trkpt>
      <trkpt lat="58.120299987494946" lon="-5.252581983804703">
        <ele>38.590000000000003</ele>
        <time>2023-08-24T14:19:00Z</time>
      </trkpt>
      <trkpt lat="58.120233016088605" lon="-5.252675022929907">
        <ele>39.549999999999997</ele>
        <time>2023-08-24T14:19:01Z</time>
      </trkpt>
      <trkpt lat="58.120196973904967" lon="-5.252792034298182">
        <ele>40.990000000000002</ele>
        <time>2023-08-24T14:19:02Z</time>
      </trkpt>
      <trkpt lat="58.1201780308038" lon="-5.252934023737907">
        <ele>41.950000000000003</ele>
        <time>2023-08-24T14:19:03Z</time>
      </trkpt>
      <trkpt lat="58.1201590038836" lon="-5.253068972378969">
        <ele>42.439999999999998</ele>
        <time>2023-08-24T14:19:04Z</time>
      </trkpt>
      <trkpt lat="58.12013897113502" lon="-5.253212973475456">
        <ele>43.399999999999999</ele>
        <time>2023-08-24T14:19:05Z</time>
      </trkpt>
      <trkpt lat="58.120093960314989" lon="-5.253367032855749">
        <ele>43.880000000000003</ele>
        <time>2023-08-24T14:19:06Z</time>
      </trkpt>
      <trkpt lat="58.120020031929016" lon="-5.253459988161922">
        <ele>44.840000000000003</ele>
        <time>2023-08-24T14:19:07Z</time>
      </trkpt>
      <trkpt lat="58.119946019724011" lon="-5.253553027287126">
        <ele>45.799999999999997</ele>
        <time>2023-08-24T14:19:08Z</time>
      </trkpt>
      <trkpt lat="58.119862033054233" lon="-5.253657968714833">
        <ele>47.240000000000002</ele>
        <time>2023-08-24T14:19:09Z</time>
      </trkpt>
      <trkpt lat="58.11977100558579" lon="-5.253782020881772">
        <ele>48.200000000000003</ele>
        <time>2023-08-24T14:19:10Z</time>
      </trkpt>
      <trkpt lat="58.119705962017179" lon="-5.253955023363233">
        <ele>49.649999999999999</ele>
        <time>2023-08-24T14:19:11Z</time>
      </trkpt>
      <trkpt lat="58.11964301392436" lon="-5.25412299670279">
        <ele>50.609999999999999</ele>
        <time>2023-08-24T14:19:12Z</time>
      </trkpt>
      <trkpt lat="58.119580987840891" lon="-5.254285018891096">
        <ele>51.57</ele>
        <time>2023-08-24T14:19:13Z</time>
      </trkpt>
      <trkpt lat="58.119521979242563" lon="-5.254441006109119">
        <ele>52.049999999999997</ele>
        <time>2023-08-24T14:19:14Z</time>
      </trkpt>
      <trkpt lat="58.119469005614519" lon="-5.254581989720464">
        <ele>53.490000000000002</ele>
        <time>2023-08-24T14:19:15Z</time>
      </trkpt>
      <trkpt lat="58.119395999237895" lon="-5.254737976938486">
        <ele>53.490000000000002</ele>
        <time>2023-08-24T14:19:16Z</time>
      </trkpt>
      <trkpt lat="58.119297008961439" lon="-5.254802014678717">
        <ele>53.969999999999999</ele>
        <time>2023-08-24T14:19:17Z</time>
      </trkpt>
      <trkpt lat="58.119189972057939" lon="-5.254870997741818">
        <ele>54.450000000000003</ele>
        <time>2023-08-24T14:19:18Z</time>
      </trkpt>
      <trkpt lat="58.119082013145089" lon="-5.254940986633301">
        <ele>54.93</ele>
        <time>2023-08-24T14:19:19Z</time>
      </trkpt>
      <trkpt lat="58.118592007085681" lon="-5.255312975496054">
        <ele>60.700000000000003</ele>
        <time>2023-08-24T14:19:24Z</time>
      </trkpt>
      <trkpt lat="58.118535010144114" lon="-5.25536997243762">
        <ele>61.659999999999997</ele>
        <time>2023-08-24T14:19:25Z</time>
      </trkpt>
      <trkpt lat="58.118517994880676" lon="-5.255477009341121">
        <ele>62.619999999999997</ele>
        <time>2023-08-24T14:19:26Z</time>
      </trkpt>
      <trkpt lat="58.118498967960477" lon="-5.25560500100255">
        <ele>63.100000000000001</ele>
        <time>2023-08-24T14:19:27Z</time>
      </trkpt>
      <trkpt lat="58.118511959910393" lon="-5.255737015977502">
        <ele>64.069999999999993</ele>
        <time>2023-08-24T14:19:28Z</time>
      </trkpt>
      <trkpt lat="58.118557976558805" lon="-5.255938014015555">
        <ele>65.030000000000001</ele>
        <time>2023-08-24T14:19:29Z</time>
      </trkpt>
      <trkpt lat="58.118637017905712" lon="-5.256283013150096">
        <ele>68.390000000000001</ele>
        <time>2023-08-24T14:19:33Z</time>
      </trkpt>
      <trkpt lat="58.118668030947447" lon="-5.256474036723375">
        <ele>73.680000000000007</ele>
        <time>2023-08-24T14:19:40Z</time>
      </trkpt>
      <trkpt lat="58.118674987927079" lon="-5.256591970100999">
        <ele>74.640000000000001</ele>
        <time>2023-08-24T14:19:41Z</time>
      </trkpt>
      <trkpt lat="58.118684962391853" lon="-5.256764972582459">
        <ele>76.079999999999998</ele>
        <time>2023-08-24T14:19:43Z</time>
      </trkpt>
      <trkpt lat="58.118638023734093" lon="-5.256932023912668">
        <ele>76.560000000000002</ele>
        <time>2023-08-24T14:19:44Z</time>
      </trkpt>
      <trkpt lat="58.118604999035597" lon="-5.257051968947053">
        <ele>77.040000000000006</ele>
        <time>2023-08-24T14:19:45Z</time>
      </trkpt>
      <trkpt lat="58.11856702901423" lon="-5.257185995578766">
        <ele>78</ele>
        <time>2023-08-24T14:19:46Z</time>
      </trkpt>
      <trkpt lat="58.11852402985096" lon="-5.25732496753335">
        <ele>78.480000000000004</ele>
        <time>2023-08-24T14:19:47Z</time>
      </trkpt>
      <trkpt lat="58.117805030196905" lon="-5.258905962109566">
        <ele>84.730000000000004</ele>
        <time>2023-08-24T14:19:57Z</time>
      </trkpt>
      <trkpt lat="58.116751005873084" lon="-5.260316971689463">
        <ele>89.060000000000002</ele>
        <time>2023-08-24T14:20:07Z</time>
      </trkpt>
      <trkpt lat="58.116469038650393" lon="-5.260662976652384">
        <ele>90.019999999999996</ele>
        <time>2023-08-24T14:20:10Z</time>
      </trkpt>
      <trkpt lat="58.116375999525189" lon="-5.260746963322163">
        <ele>90.5</ele>
        <time>2023-08-24T14:20:11Z</time>
      </trkpt>
      <trkpt lat="58.116271980106831" lon="-5.260784011334181">
        <ele>90.5</ele>
        <time>2023-08-24T14:20:12Z</time>
      </trkpt>
      <trkpt lat="58.116167960688472" lon="-5.260821981355548">
        <ele>90.980000000000004</ele>
        <time>2023-08-24T14:20:13Z</time>
      </trkpt>
      <trkpt lat="58.116064025089145" lon="-5.260859029367566">
        <ele>90.5</ele>
        <time>2023-08-24T14:20:14Z</time>
      </trkpt>
      <trkpt lat="58.115548035129905" lon="-5.26106396690011">
        <ele>86.180000000000007</ele>
        <time>2023-08-24T14:20:19Z</time>
      </trkpt>
      <trkpt lat="58.115473017096519" lon="-5.26114996522665">
        <ele>85.209999999999994</ele>
        <time>2023-08-24T14:20:20Z</time>
      </trkpt>
      <trkpt lat="58.115422977134585" lon="-5.261206962168217">
        <ele>84.730000000000004</ele>
        <time>2023-08-24T14:20:21Z</time>
      </trkpt>
      <trkpt lat="58.115375032648444" lon="-5.261346017941833">
        <ele>83.769999999999996</ele>
        <time>2023-08-24T14:20:22Z</time>
      </trkpt>
      <trkpt lat="58.115329016000032" lon="-5.261477027088404">
        <ele>83.290000000000006</ele>
        <time>2023-08-24T14:20:23Z</time>
      </trkpt>
      <trkpt lat="58.115278976038098" lon="-5.26162002235651">
        <ele>82.329999999999998</ele>
        <time>2023-08-24T14:20:24Z</time>
      </trkpt>
      <trkpt lat="58.115224996581674" lon="-5.261775003746152">
        <ele>81.849999999999994</ele>
        <time>2023-08-24T14:20:25Z</time>
      </trkpt>
      <trkpt lat="58.115167999640107" lon="-5.261939037591219">
        <ele>80.890000000000001</ele>
        <time>2023-08-24T14:20:26Z</time>
      </trkpt>
      <trkpt lat="58.115060040727258" lon="-5.262333992868662">
        <ele>79.930000000000007</ele>
        <time>2023-08-24T14:20:28Z</time>
      </trkpt>
      <trkpt lat="58.114969013258815" lon="-5.262784017249942">
        <ele>78.969999999999999</ele>
        <time>2023-08-24T14:20:30Z</time>
      </trkpt>
      <trkpt lat="58.114485964179039" lon="-5.265171015635133">
        <ele>78</ele>
        <time>2023-08-24T14:20:40Z</time>
      </trkpt>
      <trkpt lat="58.114398960024118" lon="-5.265554990619421">
        <ele>77.519999999999996</ele>
        <time>2023-08-24T14:20:42Z</time>
      </trkpt>
      <trkpt lat="58.114330982789397" lon="-5.265707960352302">
        <ele>77.519999999999996</ele>
        <time>2023-08-24T14:20:43Z</time>
      </trkpt>
      <trkpt lat="58.114257976412773" lon="-5.265871994197369">
        <ele>77.040000000000006</ele>
        <time>2023-08-24T14:20:44Z</time>
      </trkpt>
      <trkpt lat="58.113452978432178" lon="-5.267328014597297">
        <ele>77.519999999999996</ele>
        <time>2023-08-24T14:20:52Z</time>
      </trkpt>
      <trkpt lat="58.113040002062917" lon="-5.268126977607608">
        <ele>76.560000000000002</ele>
        <time>2023-08-24T14:20:58Z</time>
      </trkpt>
      <trkpt lat="58.112888960167766" lon="-5.268340967595577">
        <ele>74.640000000000001</ele>
        <time>2023-08-24T14:21:00Z</time>
      </trkpt>
      <trkpt lat="58.112803967669606" lon="-5.268459990620613">
        <ele>73.680000000000007</ele>
        <time>2023-08-24T14:21:01Z</time>
      </trkpt>
      <trkpt lat="58.112343968823552" lon="-5.268736006692052">
        <ele>68.390000000000001</ele>
        <time>2023-08-24T14:21:05Z</time>
      </trkpt>
      <trkpt lat="58.112243972718716" lon="-5.268824016675353">
        <ele>67.430000000000007</ele>
        <time>2023-08-24T14:21:06Z</time>
      </trkpt>
      <trkpt lat="58.112160991877317" lon="-5.268963994458318">
        <ele>66.469999999999999</ele>
        <time>2023-08-24T14:21:07Z</time>
      </trkpt>
      <trkpt lat="58.111635027453303" lon="-5.269922968000174">
        <ele>58.299999999999997</ele>
        <time>2023-08-24T14:21:13Z</time>
      </trkpt>
      <trkpt lat="58.11156596057117" lon="-5.270102005451918">
        <ele>56.859999999999999</ele>
        <time>2023-08-24T14:21:14Z</time>
      </trkpt>
      <trkpt lat="58.111498989164829" lon="-5.270274002104998">
        <ele>55.409999999999997</ele>
        <time>2023-08-24T14:21:15Z</time>
      </trkpt>
      <trkpt lat="58.111433023586869" lon="-5.270447004586458">
        <ele>53.490000000000002</ele>
        <time>2023-08-24T14:21:16Z</time>
      </trkpt>
      <trkpt lat="58.111364962533116" lon="-5.27062201872468">
        <ele>52.049999999999997</ele>
        <time>2023-08-24T14:21:17Z</time>
      </trkpt>
      <trkpt lat="58.11117896810174" lon="-5.270941033959389">
        <ele>48.68</ele>
        <time>2023-08-24T14:21:19Z</time>
      </trkpt>
      <trkpt lat="58.110946035012603" lon="-5.271599013358355">
        <ele>42.439999999999998</ele>
        <time>2023-08-24T14:21:23Z</time>
      </trkpt>
      <trkpt lat="58.110881997272372" lon="-5.271689034998417">
        <ele>40.990000000000002</ele>
        <time>2023-08-24T14:21:24Z</time>
      </trkpt>
      <trkpt lat="58.110803961753845" lon="-5.271731028333306">
        <ele>39.07</ele>
        <time>2023-08-24T14:21:25Z</time>
      </trkpt>
      <trkpt lat="58.110723998397589" lon="-5.271767992526293">
        <ele>37.630000000000003</ele>
        <time>2023-08-24T14:21:26Z</time>
      </trkpt>
      <trkpt lat="58.110635988414288" lon="-5.271807974204421">
        <ele>36.189999999999998</ele>
        <time>2023-08-24T14:21:27Z</time>
      </trkpt>
      <trkpt lat="58.110446976497769" lon="-5.271893972530961">
        <ele>33.299999999999997</ele>
        <time>2023-08-24T14:21:29Z</time>
      </trkpt>
      <trkpt lat="58.110354021191597" lon="-5.27193596586585">
        <ele>30.899999999999999</ele>
        <time>2023-08-24T14:21:30Z</time>
      </trkpt>
      <trkpt lat="58.110268022865057" lon="-5.27197502553463">
        <ele>29.460000000000001</ele>
        <time>2023-08-24T14:21:31Z</time>
      </trkpt>
      <trkpt lat="58.110113963484764" lon="-5.272074015811086">
        <ele>25.609999999999999</ele>
        <time>2023-08-24T14:21:33Z</time>
      </trkpt>
      <trkpt lat="58.110025031492114" lon="-5.272162025794387">
        <ele>24.170000000000002</ele>
        <time>2023-08-24T14:21:34Z</time>
      </trkpt>
      <trkpt lat="58.109930986538529" lon="-5.27225699275732">
        <ele>22.73</ele>
        <time>2023-08-24T14:21:35Z</time>
      </trkpt>
      <trkpt lat="58.109835013747215" lon="-5.272352965548635">
        <ele>21.289999999999999</ele>
        <time>2023-08-24T14:21:36Z</time>
      </trkpt>
      <trkpt lat="58.10973702929914" lon="-5.272451033815742">
        <ele>19.84</ele>
        <time>2023-08-24T14:21:37Z</time>
      </trkpt>
      <trkpt lat="58.109667962417006" lon="-5.272590005770326">
        <ele>18.399999999999999</ele>
        <time>2023-08-24T14:21:38Z</time>
      </trkpt>
      <trkpt lat="58.109601996839046" lon="-5.272722020745277">
        <ele>16.960000000000001</ele>
        <time>2023-08-24T14:21:39Z</time>
      </trkpt>
      <trkpt lat="58.109558997675776" lon="-5.27283500880003">
        <ele>15.52</ele>
        <time>2023-08-24T14:21:40Z</time>
      </trkpt>
      <trkpt lat="58.109537959098816" lon="-5.272980015724897">
        <ele>14.08</ele>
        <time>2023-08-24T14:21:41Z</time>
      </trkpt>
      <trkpt lat="58.109514992684126" lon="-5.273132985457778">
        <ele>13.6</ele>
        <time>2023-08-24T14:21:42Z</time>
      </trkpt>
      <trkpt lat="58.109471993520856" lon="-5.273300958797336">
        <ele>12.630000000000001</ele>
        <time>2023-08-24T14:21:43Z</time>
      </trkpt>
      <trkpt lat="58.109422037377954" lon="-5.273439008742571">
        <ele>12.15</ele>
        <time>2023-08-24T14:21:44Z</time>
      </trkpt>
      <trkpt lat="58.109350958839059" lon="-5.273631038144231">
        <ele>11.67</ele>
        <time>2023-08-24T14:21:45Z</time>
      </trkpt>
      <trkpt lat="58.108730027452111" lon="-5.274581965059042">
        <ele>7.83</ele>
        <time>2023-08-24T14:21:53Z</time>
      </trkpt>
      <trkpt lat="58.108646962791681" lon="-5.274685984477401">
        <ele>6.87</ele>
        <time>2023-08-24T14:21:54Z</time>
      </trkpt>
      <trkpt lat="58.108560964465141" lon="-5.274702999740839">
        <ele>6.39</ele>
        <time>2023-08-24T14:21:55Z</time>
      </trkpt>
      <trkpt lat="58.108468009158969" lon="-5.274722026661038">
        <ele>5.91</ele>
        <time>2023-08-24T14:21:56Z</time>
      </trkpt>
      <trkpt lat="58.108368013054132" lon="-5.274742981418967">
        <ele>5.42</ele>
        <time>2023-08-24T14:21:57Z</time>
      </trkpt>
      <trkpt lat="58.107797037810087" lon="-5.274843983352184">
        <ele>7.35</ele>
        <time>2023-08-24T14:22:03Z</time>
      </trkpt>
      <trkpt lat="58.107731994241476" lon="-5.274822022765875">
        <ele>8.310000000000001</ele>
        <time>2023-08-24T14:22:04Z</time>
      </trkpt>
      <trkpt lat="58.107672985643148" lon="-5.274801990017295">
        <ele>8.789999999999999</ele>
        <time>2023-08-24T14:22:05Z</time>
      </trkpt>
      <trkpt lat="58.10761196538806" lon="-5.274750022217631">
        <ele>9.75</ele>
        <time>2023-08-24T14:22:06Z</time>
      </trkpt>
      <trkpt lat="58.107557985931635" lon="-5.274653965607286">
        <ele>10.23</ele>
        <time>2023-08-24T14:22:07Z</time>
      </trkpt>
      <trkpt lat="58.107498977333307" lon="-5.274548018351197">
        <ele>11.19</ele>
        <time>2023-08-24T14:22:08Z</time>
      </trkpt>
      <trkpt lat="58.10743703506887" lon="-5.274422960355878">
        <ele>11.67</ele>
        <time>2023-08-24T14:22:09Z</time>
      </trkpt>
      <trkpt lat="58.107409961521626" lon="-5.274269990622997">
        <ele>12.15</ele>
        <time>2023-08-24T14:22:10Z</time>
      </trkpt>
      <trkpt lat="58.107381965965033" lon="-5.274112997576594">
        <ele>12.630000000000001</ele>
        <time>2023-08-24T14:22:11Z</time>
      </trkpt>
      <trkpt lat="58.107308959588408" lon="-5.273701027035713">
        <ele>14.56</ele>
        <time>2023-08-24T14:22:14Z</time>
      </trkpt>
      <trkpt lat="58.107290016487241" lon="-5.273592984303832">
        <ele>15.039999999999999</ele>
        <time>2023-08-24T14:22:15Z</time>
      </trkpt>
      <trkpt lat="58.107291022315621" lon="-5.273406989872456">
        <ele>15.52</ele>
        <time>2023-08-24T14:22:16Z</time>
      </trkpt>
      <trkpt lat="58.107323963195086" lon="-5.2732889726758">
        <ele>16</ele>
        <time>2023-08-24T14:22:17Z</time>
      </trkpt>
      <trkpt lat="58.107364028692245" lon="-5.273148994892836">
        <ele>16.48</ele>
        <time>2023-08-24T14:22:18Z</time>
      </trkpt>
      <trkpt lat="58.107407027855515" lon="-5.272998036816716">
        <ele>16.48</ele>
        <time>2023-08-24T14:22:19Z</time>
      </trkpt>
      <trkpt lat="58.10744097456336" lon="-5.272880019620061">
        <ele>16.48</ele>
        <time>2023-08-24T14:22:20Z</time>
      </trkpt>
      <trkpt lat="58.107432005926967" lon="-5.272782035171986">
        <ele>16.48</ele>
        <time>2023-08-24T14:22:21Z</time>
      </trkpt>
      <trkpt lat="58.107419013977051" lon="-5.272648008540273">
        <ele>16.48</ele>
        <time>2023-08-24T14:22:22Z</time>
      </trkpt>
      <trkpt lat="58.107403004541993" lon="-5.27249101549387">
        <ele>16.48</ele>
        <time>2023-08-24T14:22:23Z</time>
      </trkpt>
      <trkpt lat="58.107368974015117" lon="-5.272141993045807">
        <ele>16</ele>
        <time>2023-08-24T14:22:25Z</time>
      </trkpt>
      <trkpt lat="58.107343995943666" lon="-5.27197603136301">
        <ele>15.52</ele>
        <time>2023-08-24T14:22:26Z</time>
      </trkpt>
      <trkpt lat="58.107278030365705" lon="-5.271833036094904">
        <ele>15.039999999999999</ele>
        <time>2023-08-24T14:22:27Z</time>
      </trkpt>
      <trkpt lat="58.107067979872227" lon="-5.271392986178398">
        <ele>14.08</ele>
        <time>2023-08-24T14:22:30Z</time>
      </trkpt>
      <trkpt lat="58.106977036222816" lon="-5.271322997286916">
        <ele>13.6</ele>
        <time>2023-08-24T14:22:31Z</time>
      </trkpt>
      <trkpt lat="58.106886008754373" lon="-5.271253008395433">
        <ele>13.119999999999999</ele>
        <time>2023-08-24T14:22:32Z</time>
      </trkpt>
      <trkpt lat="58.106805961579084" lon="-5.271190982311964">
        <ele>12.630000000000001</ele>
        <time>2023-08-24T14:22:33Z</time>
      </trkpt>
      <trkpt lat="58.106742007657886" lon="-5.271142031997442">
        <ele>12.15</ele>
        <time>2023-08-24T14:22:34Z</time>
      </trkpt>
      <trkpt lat="58.106677969917655" lon="-5.271092997863889">
        <ele>12.15</ele>
        <time>2023-08-24T14:22:35Z</time>
      </trkpt>
      <trkpt lat="58.106607981026173" lon="-5.271039018407464">
        <ele>12.15</ele>
        <time>2023-08-24T14:22:36Z</time>
      </trkpt>
      <trkpt lat="58.106529023498297" lon="-5.270977998152375">
        <ele>11.67</ele>
        <time>2023-08-24T14:22:37Z</time>
      </trkpt>
      <trkpt lat="58.106456017121673" lon="-5.270886970683932">
        <ele>11.19</ele>
        <time>2023-08-24T14:22:38Z</time>
      </trkpt>
      <trkpt lat="58.106388039886951" lon="-5.270796027034521">
        <ele>11.19</ele>
        <time>2023-08-24T14:22:39Z</time>
      </trkpt>
      <trkpt lat="58.106325007975101" lon="-5.270712040364742">
        <ele>11.19</ele>
        <time>2023-08-24T14:22:40Z</time>
      </trkpt>
      <trkpt lat="58.106164997443557" lon="-5.270355977118015">
        <ele>11.19</ele>
        <time>2023-08-24T14:22:43Z</time>
      </trkpt>
      <trkpt lat="58.106102971360087" lon="-5.270270984619856">
        <ele>11.67</ele>
        <time>2023-08-24T14:22:44Z</time>
      </trkpt>
      <trkpt lat="58.106039017438889" lon="-5.270242989063263">
        <ele>12.15</ele>
        <time>2023-08-24T14:22:45Z</time>
      </trkpt>
      <trkpt lat="58.105967016890645" lon="-5.270219016820192">
        <ele>12.15</ele>
        <time>2023-08-24T14:22:46Z</time>
      </trkpt>
      <trkpt lat="58.105886969715357" lon="-5.270219016820192">
        <ele>12.630000000000001</ele>
        <time>2023-08-24T14:22:47Z</time>
      </trkpt>
      <trkpt lat="58.105808012187481" lon="-5.270219016820192">
        <ele>13.119999999999999</ele>
        <time>2023-08-24T14:22:48Z</time>
      </trkpt>
      <trkpt lat="58.105754032731056" lon="-5.270168976858258">
        <ele>13.119999999999999</ele>
        <time>2023-08-24T14:22:49Z</time>
      </trkpt>
      <trkpt lat="58.105682032182813" lon="-5.270068980753422">
        <ele>12.630000000000001</ele>
        <time>2023-08-24T14:22:50Z</time>
      </trkpt>
      <trkpt lat="58.105646995827556" lon="-5.270011983811855">
        <ele>12.630000000000001</ele>
        <time>2023-08-24T14:22:51Z</time>
      </trkpt>
      <trkpt lat="58.105611959472299" lon="-5.269909976050258">
        <ele>12.630000000000001</ele>
        <time>2023-08-24T14:22:52Z</time>
      </trkpt>
      <trkpt lat="58.105599973350763" lon="-5.269777961075306">
        <ele>12.15</ele>
        <time>2023-08-24T14:22:53Z</time>
      </trkpt>
      <trkpt lat="58.105583963915706" lon="-5.269620968028903">
        <ele>11.67</ele>
        <time>2023-08-24T14:22:54Z</time>
      </trkpt>
      <trkpt lat="58.105539958924055" lon="-5.269250990822911">
        <ele>10.710000000000001</ele>
        <time>2023-08-24T14:22:56Z</time>
      </trkpt>
      <trkpt lat="58.10548597946763" lon="-5.269070025533438">
        <ele>10.23</ele>
        <time>2023-08-24T14:22:57Z</time>
      </trkpt>
      <trkpt lat="58.105434011667967" lon="-5.268896017223597">
        <ele>9.75</ele>
        <time>2023-08-24T14:22:58Z</time>
      </trkpt>
      <trkpt lat="58.105390006676316" lon="-5.268746986985207">
        <ele>9.75</ele>
        <time>2023-08-24T14:22:59Z</time>
      </trkpt>
      <trkpt lat="58.10533300973475" lon="-5.268683033064008">
        <ele>9.27</ele>
        <time>2023-08-24T14:23:00Z</time>
      </trkpt>
      <trkpt lat="58.1052699778229" lon="-5.268638022243977">
        <ele>9.27</ele>
        <time>2023-08-24T14:23:01Z</time>
      </trkpt>
      <trkpt lat="58.105222033336759" lon="-5.268615977838635">
        <ele>9.27</ele>
        <time>2023-08-24T14:23:02Z</time>
      </trkpt>
      <trkpt lat="58.105160007253289" lon="-5.268656965345144">
        <ele>9.27</ele>
        <time>2023-08-24T14:23:03Z</time>
      </trkpt>
      <trkpt lat="58.105094041675329" lon="-5.268700970336795">
        <ele>9.27</ele>
        <time>2023-08-24T14:23:04Z</time>
      </trkpt>
      <trkpt lat="58.105009971186519" lon="-5.268733995035291">
        <ele>9.75</ele>
        <time>2023-08-24T14:23:05Z</time>
      </trkpt>
      <trkpt lat="58.104929002001882" lon="-5.268722008913755">
        <ele>10.23</ele>
        <time>2023-08-24T14:23:06Z</time>
      </trkpt>
      <trkpt lat="58.10484099201858" lon="-5.268708011135459">
        <ele>10.710000000000001</ele>
        <time>2023-08-24T14:23:07Z</time>
      </trkpt>
      <trkpt lat="58.104759017005563" lon="-5.268695019185543">
        <ele>11.19</ele>
        <time>2023-08-24T14:23:08Z</time>
      </trkpt>
      <trkpt lat="58.104676958173513" lon="-5.268760984763503">
        <ele>12.15</ele>
        <time>2023-08-24T14:23:09Z</time>
      </trkpt>
      <trkpt lat="58.104590037837625" lon="-5.268831979483366">
        <ele>12.630000000000001</ele>
        <time>2023-08-24T14:23:10Z</time>
      </trkpt>
      <trkpt lat="58.10449699871242" lon="-5.268906997516751">
        <ele>13.119999999999999</ele>
        <time>2023-08-24T14:23:11Z</time>
      </trkpt>
      <trkpt lat="58.104405971243978" lon="-5.268980003893375">
        <ele>13.6</ele>
        <time>2023-08-24T14:23:12Z</time>
      </trkpt>
      <trkpt lat="58.104157028719783" lon="-5.269181001931429">
        <ele>15.52</ele>
        <time>2023-08-24T14:23:15Z</time>
      </trkpt>
      <trkpt lat="58.104093996807933" lon="-5.269231963902712">
        <ele>16</ele>
        <time>2023-08-24T14:23:16Z</time>
      </trkpt>
      <trkpt lat="58.103858968243003" lon="-5.269221989437938">
        <ele>17.440000000000001</ele>
        <time>2023-08-24T14:23:19Z</time>
      </trkpt>
      <trkpt lat="58.103777999058366" lon="-5.269218971952796">
        <ele>17.920000000000002</ele>
        <time>2023-08-24T14:23:20Z</time>
      </trkpt>
      <trkpt lat="58.103698035702109" lon="-5.269216038286686">
        <ele>18.399999999999999</ele>
        <time>2023-08-24T14:23:21Z</time>
      </trkpt>
      <trkpt lat="58.103469964116812" lon="-5.269138002768159">
        <ele>17.920000000000002</ele>
        <time>2023-08-24T14:23:24Z</time>
      </trkpt>
      <trkpt lat="58.103420007973909" lon="-5.269064996391535">
        <ele>17.440000000000001</ele>
        <time>2023-08-24T14:23:25Z</time>
      </trkpt>
      <trkpt lat="58.103310037404299" lon="-5.268843965604901">
        <ele>16</ele>
        <time>2023-08-24T14:23:27Z</time>
      </trkpt>
      <trkpt lat="58.103278018534184" lon="-5.268781017512083">
        <ele>15.039999999999999</ele>
        <time>2023-08-24T14:23:28Z</time>
      </trkpt>
      <trkpt lat="58.103261003270745" lon="-5.268616983667016">
        <ele>14.56</ele>
        <time>2023-08-24T14:23:29Z</time>
      </trkpt>
      <trkpt lat="58.103247005492449" lon="-5.268483962863684">
        <ele>14.08</ele>
        <time>2023-08-24T14:23:30Z</time>
      </trkpt>
      <trkpt lat="58.103233007714152" lon="-5.268362006172538">
        <ele>13.6</ele>
        <time>2023-08-24T14:23:31Z</time>
      </trkpt>
      <trkpt lat="58.103221021592617" lon="-5.268244994804263">
        <ele>13.119999999999999</ele>
        <time>2023-08-24T14:23:32Z</time>
      </trkpt>
      <trkpt lat="58.103167964145541" lon="-5.26815103366971">
        <ele>12.630000000000001</ele>
        <time>2023-08-24T14:23:33Z</time>
      </trkpt>
      <trkpt lat="58.103104010224342" lon="-5.26810996234417">
        <ele>12.15</ele>
        <time>2023-08-24T14:23:34Z</time>
      </trkpt>
      <trkpt lat="58.103036032989621" lon="-5.268066041171551">
        <ele>12.15</ele>
        <time>2023-08-24T14:23:35Z</time>
      </trkpt>
      <trkpt lat="58.102966966107488" lon="-5.2680220361799">
        <ele>12.630000000000001</ele>
        <time>2023-08-24T14:23:36Z</time>
      </trkpt>
      <trkpt lat="58.102893037721515" lon="-5.267950035631657">
        <ele>12.15</ele>
        <time>2023-08-24T14:23:37Z</time>
      </trkpt>
      <trkpt lat="58.102835034951568" lon="-5.267838975414634">
        <ele>11.67</ele>
        <time>2023-08-24T14:23:38Z</time>
      </trkpt>
      <trkpt lat="58.10277602635324" lon="-5.267729004845023">
        <ele>10.710000000000001</ele>
        <time>2023-08-24T14:23:39Z</time>
      </trkpt>
      <trkpt lat="58.102709976956248" lon="-5.267647029832006">
        <ele>9.75</ele>
        <time>2023-08-24T14:23:40Z</time>
      </trkpt>
      <trkpt lat="58.102639988064766" lon="-5.267606964334846">
        <ele>9.27</ele>
        <time>2023-08-24T14:23:41Z</time>
      </trkpt>
      <trkpt lat="58.102569999173284" lon="-5.267566982656717">
        <ele>9.27</ele>
        <time>2023-08-24T14:23:42Z</time>
      </trkpt>
      <trkpt lat="58.102503027766943" lon="-5.26752901263535">
        <ele>8.789999999999999</ele>
        <time>2023-08-24T14:23:43Z</time>
      </trkpt>
      <trkpt lat="58.102442007511854" lon="-5.267493976280093">
        <ele>8.310000000000001</ele>
        <time>2023-08-24T14:23:44Z</time>
      </trkpt>
      <trkpt lat="58.102390961721539" lon="-5.267423987388611">
        <ele>8.310000000000001</ele>
        <time>2023-08-24T14:23:45Z</time>
      </trkpt>
      <trkpt lat="58.102331031113863" lon="-5.267338994890451">
        <ele>8.310000000000001</ele>
        <time>2023-08-24T14:23:46Z</time>
      </trkpt>
      <trkpt lat="58.10226196423173" lon="-5.267243022099137">
        <ele>7.83</ele>
        <time>2023-08-24T14:23:47Z</time>
      </trkpt>
      <trkpt lat="58.102193986997008" lon="-5.267146965488792">
        <ele>7.35</ele>
        <time>2023-08-24T14:23:48Z</time>
      </trkpt>
      <trkpt lat="58.102131960913539" lon="-5.267060967162252">
        <ele>6.39</ele>
        <time>2023-08-24T14:23:49Z</time>
      </trkpt>
      <trkpt lat="58.102086028084159" lon="-5.266954014077783">
        <ele>5.91</ele>
        <time>2023-08-24T14:23:50Z</time>
      </trkpt>
      <trkpt lat="58.102041017264128" lon="-5.266832979395986">
        <ele>5.42</ele>
        <time>2023-08-24T14:23:51Z</time>
      </trkpt>
      <trkpt lat="58.101990977302194" lon="-5.266699958592653">
        <ele>4.94</ele>
        <time>2023-08-24T14:23:52Z</time>
      </trkpt>
      <trkpt lat="58.101892992854118" lon="-5.266643967479467">
        <ele>4.46</ele>
        <time>2023-08-24T14:23:53Z</time>
      </trkpt>
      <trkpt lat="58.101796014234424" lon="-5.266594011336565">
        <ele>3.98</ele>
        <time>2023-08-24T14:23:54Z</time>
      </trkpt>
      <trkpt lat="58.10170004144311" lon="-5.266549000516534">
        <ele>3.98</ele>
        <time>2023-08-24T14:23:55Z</time>
      </trkpt>
      <trkpt lat="58.101612031459808" lon="-5.266509018838406">
        <ele>3.98</ele>
        <time>2023-08-24T14:23:56Z</time>
      </trkpt>
      <trkpt lat="58.101524021476507" lon="-5.266440035775304">
        <ele>3.98</ele>
        <time>2023-08-24T14:23:57Z</time>
      </trkpt>
      <trkpt lat="58.10144598595798" lon="-5.266349008306861">
        <ele>3.98</ele>
        <time>2023-08-24T14:23:58Z</time>
      </trkpt>
      <trkpt lat="58.101361999288201" lon="-5.266250018030405">
        <ele>4.46</ele>
        <time>2023-08-24T14:23:59Z</time>
      </trkpt>
      <trkpt lat="58.100623972713947" lon="-5.265171015635133">
        <ele>5.91</ele>
        <time>2023-08-24T14:24:07Z</time>
      </trkpt>
      <trkpt lat="58.100295988842845" lon="-5.264340033754706">
        <ele>6.87</ele>
        <time>2023-08-24T14:24:12Z</time>
      </trkpt>
      <trkpt lat="58.100271010771394" lon="-5.264133000746369">
        <ele>7.35</ele>
        <time>2023-08-24T14:24:13Z</time>
      </trkpt>
      <trkpt lat="58.100246032699943" lon="-5.263936026021838">
        <ele>7.35</ele>
        <time>2023-08-24T14:24:14Z</time>
      </trkpt>
      <trkpt lat="58.100195992738008" lon="-5.263519026339054">
        <ele>7.35</ele>
        <time>2023-08-24T14:24:16Z</time>
      </trkpt>
      <trkpt lat="58.1001550052315" lon="-5.263324985280633">
        <ele>7.83</ele>
        <time>2023-08-24T14:24:17Z</time>
      </trkpt>
      <trkpt lat="58.100107982754707" lon="-5.263138990849257">
        <ele>7.83</ele>
        <time>2023-08-24T14:24:18Z</time>
      </trkpt>
      <trkpt lat="58.099879994988441" lon="-5.262610008940101">
        <ele>9.75</ele>
        <time>2023-08-24T14:24:22Z</time>
      </trkpt>
      <trkpt lat="58.09985501691699" lon="-5.262470031157136">
        <ele>10.23</ele>
        <time>2023-08-24T14:24:23Z</time>
      </trkpt>
      <trkpt lat="58.099873960018158" lon="-5.262338016182184">
        <ele>10.23</ele>
        <time>2023-08-24T14:24:24Z</time>
      </trkpt>
      <trkpt lat="58.099901033565402" lon="-5.261989999562502">
        <ele>10.710000000000001</ele>
        <time>2023-08-24T14:24:26Z</time>
      </trkpt>
      <trkpt lat="58.099888041615486" lon="-5.261828983202577">
        <ele>10.23</ele>
        <time>2023-08-24T14:24:27Z</time>
      </trkpt>
      <trkpt lat="58.099806988611817" lon="-5.261648017913103">
        <ele>10.23</ele>
        <time>2023-08-24T14:24:28Z</time>
      </trkpt>
      <trkpt lat="58.099733982235193" lon="-5.261483984068036">
        <ele>10.23</ele>
        <time>2023-08-24T14:24:29Z</time>
      </trkpt>
      <trkpt lat="58.099656030535698" lon="-5.261307964101434">
        <ele>10.23</ele>
        <time>2023-08-24T14:24:30Z</time>
      </trkpt>
      <trkpt lat="58.099562991410494" lon="-5.261144014075398">
        <ele>10.710000000000001</ele>
        <time>2023-08-24T14:24:31Z</time>
      </trkpt>
      <trkpt lat="58.099260991439223" lon="-5.260639004409313">
        <ele>10.710000000000001</ele>
        <time>2023-08-24T14:24:34Z</time>
      </trkpt>
      <trkpt lat="58.099186979234219" lon="-5.260432977229357">
        <ele>10.710000000000001</ele>
        <time>2023-08-24T14:24:35Z</time>
      </trkpt>
      <trkpt lat="58.099112967029214" lon="-5.260226028040052">
        <ele>11.19</ele>
        <time>2023-08-24T14:24:36Z</time>
      </trkpt>
      <trkpt lat="58.09903803281486" lon="-5.260015977546573">
        <ele>11.19</ele>
        <time>2023-08-24T14:24:37Z</time>
      </trkpt>
      <trkpt lat="58.098962008953094" lon="-5.259791007265449">
        <ele>11.19</ele>
        <time>2023-08-24T14:24:38Z</time>
      </trkpt>
      <trkpt lat="58.098918003961444" lon="-5.259551033377647">
        <ele>11.19</ele>
        <time>2023-08-24T14:24:39Z</time>
      </trkpt>
      <trkpt lat="58.098365971818566" lon="-5.257351035252214">
        <ele>10.710000000000001</ele>
        <time>2023-08-24T14:24:48Z</time>
      </trkpt>
      <trkpt lat="58.097840007394552" lon="-5.256117973476648">
        <ele>11.19</ele>
        <time>2023-08-24T14:24:54Z</time>
      </trkpt>
      <trkpt lat="58.0977270193398" lon="-5.255944970995188">
        <ele>11.67</ele>
        <time>2023-08-24T14:24:55Z</time>
      </trkpt>
      <trkpt lat="58.096789000555873" lon="-5.254519963636994">
        <ele>13.119999999999999</ele>
        <time>2023-08-24T14:25:04Z</time>
      </trkpt>
      <trkpt lat="58.096730997785926" lon="-5.254391971975565">
        <ele>13.119999999999999</ele>
        <time>2023-08-24T14:25:05Z</time>
      </trkpt>
      <trkpt lat="58.096682969480753" lon="-5.254239002242684">
        <ele>13.119999999999999</ele>
        <time>2023-08-24T14:25:06Z</time>
      </trkpt>
      <trkpt lat="58.096640976145864" lon="-5.25407999753952">
        <ele>13.6</ele>
        <time>2023-08-24T14:25:07Z</time>
      </trkpt>
      <trkpt lat="58.096610968932509" lon="-5.253888973966241">
        <ele>13.6</ele>
        <time>2023-08-24T14:25:08Z</time>
      </trkpt>
      <trkpt lat="58.096579033881426" lon="-5.253682024776936">
        <ele>13.6</ele>
        <time>2023-08-24T14:25:09Z</time>
      </trkpt>
      <trkpt lat="58.096470991149545" lon="-5.252985991537571">
        <ele>14.08</ele>
        <time>2023-08-24T14:25:12Z</time>
      </trkpt>
      <trkpt lat="58.096433021128178" lon="-5.252739982679486">
        <ele>14.56</ele>
        <time>2023-08-24T14:25:13Z</time>
      </trkpt>
      <trkpt lat="58.096372000873089" lon="-5.252504032105207">
        <ele>15.039999999999999</ele>
        <time>2023-08-24T14:25:14Z</time>
      </trkpt>
      <trkpt lat="58.096278039738536" lon="-5.252271015197039">
        <ele>15.039999999999999</ele>
        <time>2023-08-24T14:25:15Z</time>
      </trkpt>
      <trkpt lat="58.096180977299809" lon="-5.252032969146967">
        <ele>15.52</ele>
        <time>2023-08-24T14:25:16Z</time>
      </trkpt>
      <trkpt lat="58.095501959323883" lon="-5.249862978234887">
        <ele>16.960000000000001</ele>
        <time>2023-08-24T14:25:24Z</time>
      </trkpt>
      <trkpt lat="58.094451958313584" lon="-5.247179009020329">
        <ele>19.359999999999999</ele>
        <time>2023-08-24T14:25:35Z</time>
      </trkpt>
      <trkpt lat="58.094339976087213" lon="-5.247017992660403">
        <ele>19.84</ele>
        <time>2023-08-24T14:25:36Z</time>
      </trkpt>
      <trkpt lat="58.093915013596416" lon="-5.24640804156661">
        <ele>21.77</ele>
        <time>2023-08-24T14:25:40Z</time>
      </trkpt>
      <trkpt lat="58.093823986127973" lon="-5.246248031035066">
        <ele>22.73</ele>
        <time>2023-08-24T14:25:41Z</time>
      </trkpt>
      <trkpt lat="58.09299903921783" lon="-5.244616996496916">
        <ele>31.379999999999999</ele>
        <time>2023-08-24T14:25:50Z</time>
      </trkpt>
      <trkpt lat="58.09297900646925" lon="-5.244577014818788">
        <ele>32.82</ele>
        <time>2023-08-24T14:25:51Z</time>
      </trkpt>
      <trkpt lat="58.092985963448882" lon="-5.244471989572048">
        <ele>33.780000000000001</ele>
        <time>2023-08-24T14:25:52Z</time>
      </trkpt>
      <trkpt lat="58.092994010075927" lon="-5.244361013174057">
        <ele>34.259999999999998</ele>
        <time>2023-08-24T14:25:53Z</time>
      </trkpt>
      <trkpt lat="58.09300297871232" lon="-5.24423997849226">
        <ele>35.229999999999997</ele>
        <time>2023-08-24T14:25:54Z</time>
      </trkpt>
      <trkpt lat="58.093012031167746" lon="-5.244108969345689">
        <ele>36.189999999999998</ele>
        <time>2023-08-24T14:25:55Z</time>
      </trkpt>
      <trkpt lat="58.093025023117661" lon="-5.243939990177751">
        <ele>36.670000000000002</ele>
        <time>2023-08-24T14:25:56Z</time>
      </trkpt>
      <trkpt lat="58.093196013942361" lon="-5.242430996149778">
        <ele>41.950000000000003</ele>
        <time>2023-08-24T14:26:03Z</time>
      </trkpt>
      <trkpt lat="58.093243958428502" lon="-5.242229998111725">
        <ele>42.439999999999998</ele>
        <time>2023-08-24T14:26:04Z</time>
      </trkpt>
      <trkpt lat="58.093307996168733" lon="-5.242080967873335">
        <ele>42.920000000000002</ele>
        <time>2023-08-24T14:26:05Z</time>
      </trkpt>
      <trkpt lat="58.093385025858879" lon="-5.24193998426199">
        <ele>42.920000000000002</ele>
        <time>2023-08-24T14:26:06Z</time>
      </trkpt>
      <trkpt lat="58.093490973114967" lon="-5.2419170178473">
        <ele>42.920000000000002</ele>
        <time>2023-08-24T14:26:07Z</time>
      </trkpt>
      <trkpt lat="58.093603039160371" lon="-5.241894973441958">
        <ele>42.920000000000002</ele>
        <time>2023-08-24T14:26:08Z</time>
      </trkpt>
      <trkpt lat="58.09373295865953" lon="-5.241859015077353">
        <ele>42.439999999999998</ele>
        <time>2023-08-24T14:26:09Z</time>
      </trkpt>
      <trkpt lat="58.09399195946753" lon="-5.241696992889047">
        <ele>40.990000000000002</ele>
        <time>2023-08-24T14:26:11Z</time>
      </trkpt>
      <trkpt lat="58.094111988320947" lon="-5.24157696403563">
        <ele>40.509999999999998</ele>
        <time>2023-08-24T14:26:12Z</time>
      </trkpt>
      <trkpt lat="58.094219025224447" lon="-5.241407984867692">
        <ele>40.030000000000001</ele>
        <time>2023-08-24T14:26:13Z</time>
      </trkpt>
      <trkpt lat="58.095226027071476" lon="-5.239295996725559">
        <ele>39.07</ele>
        <time>2023-08-24T14:26:23Z</time>
      </trkpt>
      <trkpt lat="58.095949972048402" lon="-5.237334966659546">
        <ele>39.549999999999997</ele>
        <time>2023-08-24T14:26:32Z</time>
      </trkpt>
      <trkpt lat="58.096506027504802" lon="-5.235525984317064">
        <ele>40.990000000000002</ele>
        <time>2023-08-24T14:26:42Z</time>
      </trkpt>
      <trkpt lat="58.096714988350868" lon="-5.234817964956164">
        <ele>41.950000000000003</ele>
        <time>2023-08-24T14:26:47Z</time>
      </trkpt>
      <trkpt lat="58.096743989735842" lon="-5.234644040465355">
        <ele>42.439999999999998</ele>
        <time>2023-08-24T14:26:48Z</time>
      </trkpt>
      <trkpt lat="58.096777014434338" lon="-5.234331982210279">
        <ele>42.920000000000002</ele>
        <time>2023-08-24T14:26:50Z</time>
      </trkpt>
      <trkpt lat="58.096777014434338" lon="-5.234208013862371">
        <ele>43.399999999999999</ele>
        <time>2023-08-24T14:26:51Z</time>
      </trkpt>
      <trkpt lat="58.096777014434338" lon="-5.234040962532163">
        <ele>43.880000000000003</ele>
        <time>2023-08-24T14:26:52Z</time>
      </trkpt>
      <trkpt lat="58.096733009442687" lon="-5.233982037752867">
        <ele>44.359999999999999</ele>
        <time>2023-08-24T14:26:53Z</time>
      </trkpt>
      <trkpt lat="58.096678024157882" lon="-5.233907019719482">
        <ele>44.840000000000003</ele>
        <time>2023-08-24T14:26:54Z</time>
      </trkpt>
      <trkpt lat="58.096607029438019" lon="-5.233810963109136">
        <ele>45.32</ele>
        <time>2023-08-24T14:26:55Z</time>
      </trkpt>
      <trkpt lat="58.096533017233014" lon="-5.233709961175919">
        <ele>45.799999999999997</ele>
        <time>2023-08-24T14:26:56Z</time>
      </trkpt>
      <trkpt lat="58.096466967836022" lon="-5.233559003099799">
        <ele>46.280000000000001</ele>
        <time>2023-08-24T14:26:57Z</time>
      </trkpt>
      <trkpt lat="58.096446013078094" lon="-5.233387006446719">
        <ele>46.759999999999998</ele>
        <time>2023-08-24T14:26:58Z</time>
      </trkpt>
      <trkpt lat="58.096382981166244" lon="-5.23287302814424">
        <ele>48.200000000000003</ele>
        <time>2023-08-24T14:27:01Z</time>
      </trkpt>
      <trkpt lat="58.096364038065076" lon="-5.232715029269457">
        <ele>48.68</ele>
        <time>2023-08-24T14:27:02Z</time>
      </trkpt>
      <trkpt lat="58.096348028630018" lon="-5.232582008466125">
        <ele>49.649999999999999</ele>
        <time>2023-08-24T14:27:03Z</time>
      </trkpt>
      <trkpt lat="58.096291031688452" lon="-5.232445970177651">
        <ele>50.609999999999999</ele>
        <time>2023-08-24T14:27:04Z</time>
      </trkpt>
      <trkpt lat="58.096235962584615" lon="-5.232312027364969">
        <ele>51.090000000000003</ele>
        <time>2023-08-24T14:27:05Z</time>
      </trkpt>
      <trkpt lat="58.096182988956571" lon="-5.23218403570354">
        <ele>52.049999999999997</ele>
        <time>2023-08-24T14:27:06Z</time>
      </trkpt>
      <trkpt lat="58.096125992015004" lon="-5.232045985758305">
        <ele>52.530000000000001</ele>
        <time>2023-08-24T14:27:07Z</time>
      </trkpt>
      <trkpt lat="58.096048962324858" lon="-5.231911037117243">
        <ele>53.009999999999998</ele>
        <time>2023-08-24T14:27:08Z</time>
      </trkpt>
      <trkpt lat="58.095976039767265" lon="-5.231823027133942">
        <ele>53.490000000000002</ele>
        <time>2023-08-24T14:27:09Z</time>
      </trkpt>
      <trkpt lat="58.095903033390641" lon="-5.231736022979021">
        <ele>53.969999999999999</ele>
        <time>2023-08-24T14:27:10Z</time>
      </trkpt>
      <trkpt lat="58.095814017578959" lon="-5.231663016602397">
        <ele>54.93</ele>
        <time>2023-08-24T14:27:11Z</time>
      </trkpt>
      <trkpt lat="58.0957290250808" lon="-5.231609037145972">
        <ele>55.409999999999997</ele>
        <time>2023-08-24T14:27:12Z</time>
      </trkpt>
      <trkpt lat="58.09564302675426" lon="-5.231554973870516">
        <ele>55.890000000000001</ele>
        <time>2023-08-24T14:27:13Z</time>
      </trkpt>
      <trkpt lat="58.095546970143914" lon="-5.231546005234122">
        <ele>56.369999999999997</ele>
        <time>2023-08-24T14:27:14Z</time>
      </trkpt>
      <trkpt lat="58.095447979867458" lon="-5.231539970263839">
        <ele>57.340000000000003</ele>
        <time>2023-08-24T14:27:15Z</time>
      </trkpt>
      <trkpt lat="58.095337003469467" lon="-5.231533013284206">
        <ele>57.82</ele>
        <time>2023-08-24T14:27:16Z</time>
      </trkpt>
      <trkpt lat="58.095226027071476" lon="-5.231524966657162">
        <ele>58.299999999999997</ele>
        <time>2023-08-24T14:27:17Z</time>
      </trkpt>
      <trkpt lat="58.094883961603045" lon="-5.231503006070852">
        <ele>59.740000000000002</ele>
        <time>2023-08-24T14:27:20Z</time>
      </trkpt>
      <trkpt lat="58.094787988811731" lon="-5.231496971100569">
        <ele>60.219999999999999</ele>
        <time>2023-08-24T14:27:21Z</time>
      </trkpt>
      <trkpt lat="58.094652034342289" lon="-5.231488002464175">
        <ele>61.18</ele>
        <time>2023-08-24T14:27:22Z</time>
      </trkpt>
      <trkpt lat="58.094603000208735" lon="-5.231523038819432">
        <ele>62.140000000000001</ele>
        <time>2023-08-24T14:27:23Z</time>
      </trkpt>
      <trkpt lat="58.094498980790377" lon="-5.231595039367676">
        <ele>63.100000000000001</ele>
        <time>2023-08-24T14:27:24Z</time>
      </trkpt>
      <trkpt lat="58.093372033908963" lon="-5.232312027364969">
        <ele>75.120000000000005</ele>
        <time>2023-08-24T14:27:34Z</time>
      </trkpt>
      <trkpt lat="58.093277988955379" lon="-5.232367012649775">
        <ele>76.079999999999998</ele>
        <time>2023-08-24T14:27:35Z</time>
      </trkpt>
      <trkpt lat="58.093196013942361" lon="-5.232443958520889">
        <ele>77.040000000000006</ele>
        <time>2023-08-24T14:27:36Z</time>
      </trkpt>
      <trkpt lat="58.093104986473918" lon="-5.232530040666461">
        <ele>77.519999999999996</ele>
        <time>2023-08-24T14:27:37Z</time>
      </trkpt>
      <trkpt lat="58.092539962381124" lon="-5.233076037839055">
        <ele>79.930000000000007</ele>
        <time>2023-08-24T14:27:42Z</time>
      </trkpt>
      <trkpt lat="58.092347010970116" lon="-5.233339983969927">
        <ele>79.930000000000007</ele>
        <time>2023-08-24T14:27:44Z</time>
      </trkpt>
      <trkpt lat="58.09222798794508" lon="-5.233505023643374">
        <ele>79.930000000000007</ele>
        <time>2023-08-24T14:27:45Z</time>
      </trkpt>
      <trkpt lat="58.091924982145429" lon="-5.234101982787252">
        <ele>80.890000000000001</ele>
        <time>2023-08-24T14:27:49Z</time>
      </trkpt>
      <trkpt lat="58.091830015182495" lon="-5.234172977507114">
        <ele>81.370000000000005</ele>
        <time>2023-08-24T14:27:50Z</time>
      </trkpt>
      <trkpt lat="58.091738987714052" lon="-5.234241038560867">
        <ele>81.370000000000005</ele>
        <time>2023-08-24T14:27:51Z</time>
      </trkpt>
      <trkpt lat="58.091633040457964" lon="-5.234239026904106">
        <ele>81.370000000000005</ele>
        <time>2023-08-24T14:27:52Z</time>
      </trkpt>
      <trkpt lat="58.091538995504379" lon="-5.234175994992256">
        <ele>81.849999999999994</ele>
        <time>2023-08-24T14:27:53Z</time>
      </trkpt>
      <trkpt lat="58.091438999399543" lon="-5.234109023585916">
        <ele>82.810000000000002</ele>
        <time>2023-08-24T14:27:54Z</time>
      </trkpt>
      <trkpt lat="58.091341014951468" lon="-5.234023025259376">
        <ele>83.290000000000006</ele>
        <time>2023-08-24T14:27:55Z</time>
      </trkpt>
      <trkpt lat="58.091258034110069" lon="-5.233908025547862">
        <ele>84.25</ele>
        <time>2023-08-24T14:27:56Z</time>
      </trkpt>
      <trkpt lat="58.091174969449639" lon="-5.233791014179587">
        <ele>85.209999999999994</ele>
        <time>2023-08-24T14:27:57Z</time>
      </trkpt>
      <trkpt lat="58.091083019971848" lon="-5.233664028346539">
        <ele>86.180000000000007</ele>
        <time>2023-08-24T14:27:58Z</time>
      </trkpt>
      <trkpt lat="58.090513972565532" lon="-5.232822988182306">
        <ele>91.459999999999994</ele>
        <time>2023-08-24T14:28:04Z</time>
      </trkpt>
      <trkpt lat="58.090457981452346" lon="-5.23268099874258">
        <ele>92.420000000000002</ele>
        <time>2023-08-24T14:28:05Z</time>
      </trkpt>
      <trkpt lat="58.090344993397593" lon="-5.232395008206368">
        <ele>93.390000000000001</ele>
        <time>2023-08-24T14:28:07Z</time>
      </trkpt>
      <trkpt lat="58.090273998677731" lon="-5.232275985181332">
        <ele>93.390000000000001</ele>
        <time>2023-08-24T14:28:08Z</time>
      </trkpt>
      <trkpt lat="58.090185988694429" lon="-5.232179006561637">
        <ele>93.390000000000001</ele>
        <time>2023-08-24T14:28:09Z</time>
      </trkpt>
      <trkpt lat="58.090082975104451" lon="-5.232085967436433">
        <ele>93.390000000000001</ele>
        <time>2023-08-24T14:28:10Z</time>
      </trkpt>
      <trkpt lat="58.089964035898447" lon="-5.232018996030092">
        <ele>93.390000000000001</ele>
        <time>2023-08-24T14:28:11Z</time>
      </trkpt>
      <trkpt lat="58.088938007131219" lon="-5.231769969686866">
        <ele>95.310000000000002</ele>
        <time>2023-08-24T14:28:19Z</time>
      </trkpt>
      <trkpt lat="58.088855026289821" lon="-5.231828978285193">
        <ele>95.310000000000002</ele>
        <time>2023-08-24T14:28:20Z</time>
      </trkpt>
      <trkpt lat="58.088771961629391" lon="-5.231905002146959">
        <ele>95.790000000000006</ele>
        <time>2023-08-24T14:28:21Z</time>
      </trkpt>
      <trkpt lat="58.088685963302851" lon="-5.231983959674835">
        <ele>95.790000000000006</ele>
        <time>2023-08-24T14:28:22Z</time>
      </trkpt>
      <trkpt lat="58.088610023260117" lon="-5.232088984921575">
        <ele>95.790000000000006</ele>
        <time>2023-08-24T14:28:23Z</time>
      </trkpt>
      <trkpt lat="58.088537016883492" lon="-5.232202978804708">
        <ele>95.310000000000002</ele>
        <time>2023-08-24T14:28:24Z</time>
      </trkpt>
      <trkpt lat="58.08846602216363" lon="-5.232387967407703">
        <ele>95.310000000000002</ele>
        <time>2023-08-24T14:28:25Z</time>
      </trkpt>
      <trkpt lat="58.088451018556952" lon="-5.232597012072802">
        <ele>94.829999999999998</ele>
        <time>2023-08-24T14:28:26Z</time>
      </trkpt>
      <trkpt lat="58.088434003293514" lon="-5.232817959040403">
        <ele>94.349999999999994</ele>
        <time>2023-08-24T14:28:27Z</time>
      </trkpt>
      <trkpt lat="58.088417993858457" lon="-5.233027003705502">
        <ele>94.349999999999994</ele>
        <time>2023-08-24T14:28:28Z</time>
      </trkpt>
      <trkpt lat="58.088387986645103" lon="-5.233194977045059">
        <ele>93.390000000000001</ele>
        <time>2023-08-24T14:28:29Z</time>
      </trkpt>
      <trkpt lat="58.088343981653452" lon="-5.233268989250064">
        <ele>93.390000000000001</ele>
        <time>2023-08-24T14:28:30Z</time>
      </trkpt>
      <trkpt lat="58.088280027732253" lon="-5.233268989250064">
        <ele>93.390000000000001</ele>
        <time>2023-08-24T14:28:31Z</time>
      </trkpt>
      <trkpt lat="58.088215989992023" lon="-5.233241999521852">
        <ele>93.390000000000001</ele>
        <time>2023-08-24T14:28:32Z</time>
      </trkpt>
      <trkpt lat="58.088153963908553" lon="-5.233158012852073">
        <ele>93.390000000000001</ele>
        <time>2023-08-24T14:28:33Z</time>
      </trkpt>
      <trkpt lat="58.088085986673832" lon="-5.23306799121201">
        <ele>93.390000000000001</ele>
        <time>2023-08-24T14:28:34Z</time>
      </trkpt>
      <trkpt lat="58.088006023317575" lon="-5.233005965128541">
        <ele>93.390000000000001</ele>
        <time>2023-08-24T14:28:35Z</time>
      </trkpt>
      <trkpt lat="58.087908960878849" lon="-5.232991967350245">
        <ele>92.900000000000006</ele>
        <time>2023-08-24T14:28:36Z</time>
      </trkpt>
      <trkpt lat="58.087678039446473" lon="-5.232999008148909">
        <ele>93.390000000000001</ele>
        <time>2023-08-24T14:28:38Z</time>
      </trkpt>
      <trkpt lat="58.087335973978043" lon="-5.233161030337215">
        <ele>94.829999999999998</ele>
        <time>2023-08-24T14:28:41Z</time>
      </trkpt>
      <trkpt lat="58.08724201284349" lon="-5.23328198119998">
        <ele>95.310000000000002</ele>
        <time>2023-08-24T14:28:42Z</time>
      </trkpt>
      <trkpt lat="58.087142016738653" lon="-5.233409972861409">
        <ele>95.790000000000006</ele>
        <time>2023-08-24T14:28:43Z</time>
      </trkpt>
      <trkpt lat="58.087035985663533" lon="-5.233545005321503">
        <ele>96.269999999999996</ele>
        <time>2023-08-24T14:28:44Z</time>
      </trkpt>
      <trkpt lat="58.086929032579064" lon="-5.233680959790945">
        <ele>96.75</ele>
        <time>2023-08-24T14:28:45Z</time>
      </trkpt>
      <trkpt lat="58.086821995675564" lon="-5.23381900973618">
        <ele>97.709999999999994</ele>
        <time>2023-08-24T14:28:46Z</time>
      </trkpt>
      <trkpt lat="58.086717976257205" lon="-5.233953036367893">
        <ele>98.189999999999998</ele>
        <time>2023-08-24T14:28:47Z</time>
      </trkpt>
      <trkpt lat="58.086550002917647" lon="-5.23426802828908">
        <ele>98.670000000000002</ele>
        <time>2023-08-24T14:28:49Z</time>
      </trkpt>
      <trkpt lat="58.086484037339687" lon="-5.234447987750173">
        <ele>99.150000000000006</ele>
        <time>2023-08-24T14:28:50Z</time>
      </trkpt>
      <trkpt lat="58.086439026519656" lon="-5.234640017151833">
        <ele>98.670000000000002</ele>
        <time>2023-08-24T14:28:51Z</time>
      </trkpt>
      <trkpt lat="58.086282033473253" lon="-5.235143015161157">
        <ele>99.150000000000006</ele>
        <time>2023-08-24T14:28:54Z</time>
      </trkpt>
      <trkpt lat="58.086215984076262" lon="-5.235254997387528">
        <ele>99.150000000000006</ele>
        <time>2023-08-24T14:28:55Z</time>
      </trkpt>
      <trkpt lat="58.08614800684154" lon="-5.235292967408896">
        <ele>99.629999999999995</ele>
        <time>2023-08-24T14:28:56Z</time>
      </trkpt>
      <trkpt lat="58.086056979373097" lon="-5.235307971015573">
        <ele>100.11</ele>
        <time>2023-08-24T14:28:57Z</time>
      </trkpt>
      <trkpt lat="58.085951032117009" lon="-5.23532398045063">
        <ele>101.08</ele>
        <time>2023-08-24T14:28:58Z</time>
      </trkpt>
      <trkpt lat="58.085851036012173" lon="-5.235288022086024">
        <ele>101.56</ele>
        <time>2023-08-24T14:28:59Z</time>
      </trkpt>
      <trkpt lat="58.085743999108672" lon="-5.235222978517413">
        <ele>102.04000000000001</ele>
        <time>2023-08-24T14:29:00Z</time>
      </trkpt>
      <trkpt lat="58.085641991347075" lon="-5.235161958262324">
        <ele>102.52</ele>
        <time>2023-08-24T14:29:01Z</time>
      </trkpt>
      <trkpt lat="58.085544006898999" lon="-5.235135974362493">
        <ele>103</ele>
        <time>2023-08-24T14:29:02Z</time>
      </trkpt>
      <trkpt lat="58.085444010794163" lon="-5.235135974362493">
        <ele>103.48</ele>
        <time>2023-08-24T14:29:03Z</time>
      </trkpt>
      <trkpt lat="58.085335968062282" lon="-5.235176961869001">
        <ele>104.92</ele>
        <time>2023-08-24T14:29:04Z</time>
      </trkpt>
      <trkpt lat="58.085233038291335" lon="-5.235266983509064">
        <ele>105.88</ele>
        <time>2023-08-24T14:29:05Z</time>
      </trkpt>
      <trkpt lat="58.085022987797856" lon="-5.23545197211206">
        <ele>108.29000000000001</ele>
        <time>2023-08-24T14:29:07Z</time>
      </trkpt>
      <trkpt lat="58.084906982257962" lon="-5.235552974045277">
        <ele>109.73</ele>
        <time>2023-08-24T14:29:08Z</time>
      </trkpt>
      <trkpt lat="58.084268029779196" lon="-5.236130990087986">
        <ele>112.61</ele>
        <time>2023-08-24T14:29:13Z</time>
      </trkpt>
      <trkpt lat="58.084044987335801" lon="-5.236385967582464">
        <ele>114.05</ele>
        <time>2023-08-24T14:29:15Z</time>
      </trkpt>
      <trkpt lat="58.083943985402584" lon="-5.236435001716018">
        <ele>115.01000000000001</ele>
        <time>2023-08-24T14:29:16Z</time>
      </trkpt>
      <trkpt lat="58.083838960155845" lon="-5.236475989222527">
        <ele>115.98</ele>
        <time>2023-08-24T14:29:17Z</time>
      </trkpt>
      <trkpt lat="58.083077967166901" lon="-5.236730966717005">
        <ele>117.90000000000001</ele>
        <time>2023-08-24T14:29:23Z</time>
      </trkpt>
      <trkpt lat="58.082566000521183" lon="-5.236769020557404">
        <ele>117.42</ele>
        <time>2023-08-24T14:29:27Z</time>
      </trkpt>
      <trkpt lat="58.082455024123192" lon="-5.236825011670589">
        <ele>116.94</ele>
        <time>2023-08-24T14:29:28Z</time>
      </trkpt>
      <trkpt lat="58.082357039675117" lon="-5.236873961985111">
        <ele>116.45999999999999</ele>
        <time>2023-08-24T14:29:29Z</time>
      </trkpt>
      <trkpt lat="58.082239022478461" lon="-5.237025003880262">
        <ele>116.45999999999999</ele>
        <time>2023-08-24T14:29:30Z</time>
      </trkpt>
      <trkpt lat="58.0821299739182" lon="-5.237162970006466">
        <ele>116.45999999999999</ele>
        <time>2023-08-24T14:29:31Z</time>
      </trkpt>
      <trkpt lat="58.081919001415372" lon="-5.237472010776401">
        <ele>115.98</ele>
        <time>2023-08-24T14:29:33Z</time>
      </trkpt>
      <trkpt lat="58.081822022795677" lon="-5.237668985500932">
        <ele>115.5</ele>
        <time>2023-08-24T14:29:34Z</time>
      </trkpt>
      <trkpt lat="58.081724038347602" lon="-5.237868977710605">
        <ele>115.5</ele>
        <time>2023-08-24T14:29:35Z</time>
      </trkpt>
      <trkpt lat="58.081428995355964" lon="-5.238466020673513">
        <ele>115.5</ele>
        <time>2023-08-24T14:29:38Z</time>
      </trkpt>
      <trkpt lat="58.08133302256465" lon="-5.238661989569664">
        <ele>115.5</ele>
        <time>2023-08-24T14:29:39Z</time>
      </trkpt>
      <trkpt lat="58.081220034509897" lon="-5.238890983164311">
        <ele>115.01000000000001</ele>
        <time>2023-08-24T14:29:40Z</time>
      </trkpt>
      <trkpt lat="58.08053900487721" lon="-5.240954020991921">
        <ele>115.01000000000001</ele>
        <time>2023-08-24T14:29:50Z</time>
      </trkpt>
      <trkpt lat="58.080484019592404" lon="-5.241105984896421">
        <ele>115.01000000000001</ele>
        <time>2023-08-24T14:29:51Z</time>
      </trkpt>
      <trkpt lat="58.080413024872541" lon="-5.241237999871373">
        <ele>114.53</ele>
        <time>2023-08-24T14:29:52Z</time>
      </trkpt>
      <trkpt lat="58.080315040424466" lon="-5.241323998197913">
        <ele>114.05</ele>
        <time>2023-08-24T14:29:53Z</time>
      </trkpt>
      <trkpt lat="58.080214960500598" lon="-5.241346964612603">
        <ele>113.09</ele>
        <time>2023-08-24T14:29:54Z</time>
      </trkpt>
      <trkpt lat="58.080117981880903" lon="-5.241330033168197">
        <ele>112.13</ele>
        <time>2023-08-24T14:29:55Z</time>
      </trkpt>
      <trkpt lat="58.080027960240841" lon="-5.241313017904759">
        <ele>111.17</ele>
        <time>2023-08-24T14:29:56Z</time>
      </trkpt>
      <trkpt lat="58.079947996884584" lon="-5.241299020126462">
        <ele>110.20999999999999</ele>
        <time>2023-08-24T14:29:57Z</time>
      </trkpt>
      <trkpt lat="58.079881025478244" lon="-5.241287034004927">
        <ele>109.73</ele>
        <time>2023-08-24T14:29:58Z</time>
      </trkpt>
      <trkpt lat="58.079826962202787" lon="-5.241276975721121">
        <ele>108.77</ele>
        <time>2023-08-24T14:29:59Z</time>
      </trkpt>
      <trkpt lat="58.079784968867898" lon="-5.241321986541152">
        <ele>108.29000000000001</ele>
        <time>2023-08-24T14:30:00Z</time>
      </trkpt>
      <trkpt lat="58.079739036038518" lon="-5.241459030658007">
        <ele>107.31999999999999</ele>
        <time>2023-08-24T14:30:01Z</time>
      </trkpt>
      <trkpt lat="58.079734006896615" lon="-5.241631027311087">
        <ele>107.31999999999999</ele>
        <time>2023-08-24T14:30:02Z</time>
      </trkpt>
      <trkpt lat="58.079727971926332" lon="-5.241818027570844">
        <ele>106.84</ele>
        <time>2023-08-24T14:30:03Z</time>
      </trkpt>
      <trkpt lat="58.07972302660346" lon="-5.24198298342526">
        <ele>106.36</ele>
        <time>2023-08-24T14:30:04Z</time>
      </trkpt>
      <trkpt lat="58.079720009118319" lon="-5.242108041420579">
        <ele>105.88</ele>
        <time>2023-08-24T14:30:05Z</time>
      </trkpt>
      <trkpt lat="58.079703999683261" lon="-5.242202002555132">
        <ele>105.88</ele>
        <time>2023-08-24T14:30:06Z</time>
      </trkpt>
      <trkpt lat="58.079668963328004" lon="-5.242269979789853">
        <ele>105.88</ele>
        <time>2023-08-24T14:30:07Z</time>
      </trkpt>
      <trkpt lat="58.079633004963398" lon="-5.242342986166477">
        <ele>105.88</ele>
        <time>2023-08-24T14:30:08Z</time>
      </trkpt>
      <trkpt lat="58.079579025506973" lon="-5.242405012249947">
        <ele>105.88</ele>
        <time>2023-08-24T14:30:09Z</time>
      </trkpt>
      <trkpt lat="58.079513981938362" lon="-5.242439964786172">
        <ele>105.88</ele>
        <time>2023-08-24T14:30:10Z</time>
      </trkpt>
      <trkpt lat="58.079441981390119" lon="-5.242478018626571">
        <ele>105.88</ele>
        <time>2023-08-24T14:30:11Z</time>
      </trkpt>
      <trkpt lat="58.079363023862243" lon="-5.24252001196146">
        <ele>105.88</ele>
        <time>2023-08-24T14:30:12Z</time>
      </trkpt>
      <trkpt lat="58.079289011657238" lon="-5.242559993639588">
        <ele>105.88</ele>
        <time>2023-08-24T14:30:13Z</time>
      </trkpt>
      <trkpt lat="58.079225979745388" lon="-5.242694020271301">
        <ele>105.88</ele>
        <time>2023-08-24T14:30:14Z</time>
      </trkpt>
      <trkpt lat="58.079167976975441" lon="-5.242815976962447">
        <ele>105.40000000000001</ele>
        <time>2023-08-24T14:30:15Z</time>
      </trkpt>
      <trkpt lat="58.079113997519016" lon="-5.24294899776578">
        <ele>104.92</ele>
        <time>2023-08-24T14:30:16Z</time>
      </trkpt>
      <trkpt lat="58.079090025275946" lon="-5.243119988590479">
        <ele>104.44</ele>
        <time>2023-08-24T14:30:17Z</time>
      </trkpt>
      <trkpt lat="58.079066975042224" lon="-5.243279999122024">
        <ele>104.44</ele>
        <time>2023-08-24T14:30:18Z</time>
      </trkpt>
      <trkpt lat="58.07901400141418" lon="-5.243662968277931">
        <ele>103.95999999999999</ele>
        <time>2023-08-24T14:30:21Z</time>
      </trkpt>
      <trkpt lat="58.078977037221193" lon="-5.243925992399454">
        <ele>103.95999999999999</ele>
        <time>2023-08-24T14:30:23Z</time>
      </trkpt>
      <trkpt lat="58.078954992815852" lon="-5.244084997102618">
        <ele>103.48</ele>
        <time>2023-08-24T14:30:24Z</time>
      </trkpt>
      <trkpt lat="58.078759023919702" lon="-5.245261983945966">
        <ele>101.08</ele>
        <time>2023-08-24T14:30:30Z</time>
      </trkpt>
      <trkpt lat="58.078704038634896" lon="-5.245446972548962">
        <ele>101.08</ele>
        <time>2023-08-24T14:30:31Z</time>
      </trkpt>
      <trkpt lat="58.078626003116369" lon="-5.245588039979339">
        <ele>100.59999999999999</ele>
        <time>2023-08-24T14:30:32Z</time>
      </trkpt>
      <trkpt lat="58.078537993133068" lon="-5.245714019984007">
        <ele>100.59999999999999</ele>
        <time>2023-08-24T14:30:33Z</time>
      </trkpt>
      <trkpt lat="58.078454006463289" lon="-5.245833965018392">
        <ele>100.59999999999999</ele>
        <time>2023-08-24T14:30:34Z</time>
      </trkpt>
      <trkpt lat="58.078368008136749" lon="-5.245943013578653">
        <ele>100.59999999999999</ele>
        <time>2023-08-24T14:30:35Z</time>
      </trkpt>
      <trkpt lat="58.078252002596855" lon="-5.246029011905193">
        <ele>100.11</ele>
        <time>2023-08-24T14:30:36Z</time>
      </trkpt>
      <trkpt lat="58.078123005107045" lon="-5.246124984696508">
        <ele>99.629999999999995</ele>
        <time>2023-08-24T14:30:37Z</time>
      </trkpt>
      <trkpt lat="58.077151961624622" lon="-5.246949009597302">
        <ele>99.150000000000006</ele>
        <time>2023-08-24T14:30:44Z</time>
      </trkpt>
      <trkpt lat="58.077051965519786" lon="-5.247087981551886">
        <ele>99.629999999999995</ele>
        <time>2023-08-24T14:30:45Z</time>
      </trkpt>
      <trkpt lat="58.076726999133825" lon="-5.247644959017634">
        <ele>102.52</ele>
        <time>2023-08-24T14:30:49Z</time>
      </trkpt>
      <trkpt lat="58.076660027727485" lon="-5.247811004519463">
        <ele>103</ele>
        <time>2023-08-24T14:30:50Z</time>
      </trkpt>
      <trkpt lat="58.076592972502112" lon="-5.24797897785902">
        <ele>103.48</ele>
        <time>2023-08-24T14:30:51Z</time>
      </trkpt>
      <trkpt lat="58.076523989439011" lon="-5.248151980340481">
        <ele>103.48</ele>
        <time>2023-08-24T14:30:52Z</time>
      </trkpt>
      <trkpt lat="58.076455006375909" lon="-5.248325988650322">
        <ele>103.48</ele>
        <time>2023-08-24T14:30:53Z</time>
      </trkpt>
      <trkpt lat="58.076366996392608" lon="-5.248433025553823">
        <ele>103.48</ele>
        <time>2023-08-24T14:30:54Z</time>
      </trkpt>
      <trkpt lat="58.07628502137959" lon="-5.248504020273686">
        <ele>103.48</ele>
        <time>2023-08-24T14:30:55Z</time>
      </trkpt>
      <trkpt lat="58.076173039153218" lon="-5.248488010838628">
        <ele>103.95999999999999</ele>
        <time>2023-08-24T14:30:56Z</time>
      </trkpt>
      <trkpt lat="58.076059967279434" lon="-5.248473007231951">
        <ele>104.44</ele>
        <time>2023-08-24T14:30:57Z</time>
      </trkpt>
      <trkpt lat="58.075947985053062" lon="-5.248456997796893">
        <ele>104.92</ele>
        <time>2023-08-24T14:30:58Z</time>
      </trkpt>
      <trkpt lat="58.075843965634704" lon="-5.248443000018597">
        <ele>104.92</ele>
        <time>2023-08-24T14:30:59Z</time>
      </trkpt>
      <trkpt lat="58.075742963701487" lon="-5.2484290022403">
        <ele>104.92</ele>
        <time>2023-08-24T14:31:00Z</time>
      </trkpt>
      <trkpt lat="58.075543977320194" lon="-5.248401006683707">
        <ele>105.88</ele>
        <time>2023-08-24T14:31:02Z</time>
      </trkpt>
      <trkpt lat="58.0754469987005" lon="-5.248420033603907">
        <ele>105.88</ele>
        <time>2023-08-24T14:31:03Z</time>
      </trkpt>
      <trkpt lat="58.075348008424044" lon="-5.248454986140132">
        <ele>106.36</ele>
        <time>2023-08-24T14:31:04Z</time>
      </trkpt>
      <trkpt lat="58.07521197013557" lon="-5.248504020273686">
        <ele>106.36</ele>
        <time>2023-08-24T14:31:05Z</time>
      </trkpt>
      <trkpt lat="58.075121026486158" lon="-5.248588006943464">
        <ele>106.84</ele>
        <time>2023-08-24T14:31:06Z</time>
      </trkpt>
      <trkpt lat="58.075007032603025" lon="-5.248694038018584">
        <ele>107.31999999999999</ele>
        <time>2023-08-24T14:31:07Z</time>
      </trkpt>
      <trkpt lat="58.074892032891512" lon="-5.248779030516744">
        <ele>107.31999999999999</ele>
        <time>2023-08-24T14:31:08Z</time>
      </trkpt>
      <trkpt lat="58.074780972674489" lon="-5.248760003596544">
        <ele>107.81</ele>
        <time>2023-08-24T14:31:09Z</time>
      </trkpt>
      <trkpt lat="58.074664967134595" lon="-5.248739970847964">
        <ele>107.81</ele>
        <time>2023-08-24T14:31:10Z</time>
      </trkpt>
      <trkpt lat="58.074141014367342" lon="-5.248737959191203">
        <ele>107.31999999999999</ele>
        <time>2023-08-24T14:31:14Z</time>
      </trkpt>
      <trkpt lat="58.07400799356401" lon="-5.248794034123421">
        <ele>107.81</ele>
        <time>2023-08-24T14:31:15Z</time>
      </trkpt>
      <trkpt lat="58.073872961103916" lon="-5.248851031064987">
        <ele>107.81</ele>
        <time>2023-08-24T14:31:16Z</time>
      </trkpt>
      <trkpt lat="58.07372996583581" lon="-5.248911967501044">
        <ele>108.29000000000001</ele>
        <time>2023-08-24T14:31:17Z</time>
      </trkpt>
      <trkpt lat="58.073603985831141" lon="-5.249035013839603">
        <ele>108.77</ele>
        <time>2023-08-24T14:31:18Z</time>
      </trkpt>
      <trkpt lat="58.072833018377423" lon="-5.249802963808179">
        <ele>108.29000000000001</ele>
        <time>2023-08-24T14:31:25Z</time>
      </trkpt>
      <trkpt lat="58.071606997400522" lon="-5.250907028093934">
        <ele>85.209999999999994</ele>
        <time>2023-08-24T14:31:35Z</time>
      </trkpt>
      <trkpt lat="58.071467019617558" lon="-5.251081958413124">
        <ele>82.810000000000002</ele>
        <time>2023-08-24T14:31:36Z</time>
      </trkpt>
      <trkpt lat="58.071353025734425" lon="-5.251225959509611">
        <ele>81.370000000000005</ele>
        <time>2023-08-24T14:31:37Z</time>
      </trkpt>
      <trkpt lat="58.070797976106405" lon="-5.251924004405737">
        <ele>71.269999999999996</ele>
        <time>2023-08-24T14:31:42Z</time>
      </trkpt>
      <trkpt lat="58.070739973336458" lon="-5.252088960260153">
        <ele>69.829999999999998</ele>
        <time>2023-08-24T14:31:43Z</time>
      </trkpt>
      <trkpt lat="58.07069999165833" lon="-5.252258023247123">
        <ele>67.909999999999997</ele>
        <time>2023-08-24T14:31:44Z</time>
      </trkpt>
      <trkpt lat="58.070652969181538" lon="-5.252462038770318">
        <ele>66.950000000000003</ele>
        <time>2023-08-24T14:31:45Z</time>
      </trkpt>
      <trkpt lat="58.070602007210255" lon="-5.2526839915663">
        <ele>65.510000000000005</ele>
        <time>2023-08-24T14:31:46Z</time>
      </trkpt>
      <trkpt lat="58.070549033582211" lon="-5.252908039838076">
        <ele>64.549999999999997</ele>
        <time>2023-08-24T14:31:47Z</time>
      </trkpt>
      <trkpt lat="58.070491030812263" lon="-5.253159999847412">
        <ele>63.579999999999998</ele>
        <time>2023-08-24T14:31:48Z</time>
      </trkpt>
      <trkpt lat="58.070410983636975" lon="-5.253296960145235">
        <ele>63.100000000000001</ele>
        <time>2023-08-24T14:31:49Z</time>
      </trkpt>
      <trkpt lat="58.070324985310435" lon="-5.253441967070103">
        <ele>62.619999999999997</ele>
        <time>2023-08-24T14:31:50Z</time>
      </trkpt>
      <trkpt lat="58.070242004469037" lon="-5.25358404032886">
        <ele>61.659999999999997</ele>
        <time>2023-08-24T14:31:51Z</time>
      </trkpt>
      <trkpt lat="58.070160029456019" lon="-5.253723012283444">
        <ele>61.659999999999997</ele>
        <time>2023-08-24T14:31:52Z</time>
      </trkpt>
      <trkpt lat="58.070084005594254" lon="-5.253852009773254">
        <ele>61.18</ele>
        <time>2023-08-24T14:31:53Z</time>
      </trkpt>
      <trkpt lat="58.070044023916125" lon="-5.254030041396618">
        <ele>60.219999999999999</ele>
        <time>2023-08-24T14:31:54Z</time>
      </trkpt>
      <trkpt lat="58.070022985339165" lon="-5.254203965887427">
        <ele>59.259999999999998</ele>
        <time>2023-08-24T14:31:55Z</time>
      </trkpt>
      <trkpt lat="58.069999013096094" lon="-5.254391971975565">
        <ele>57.82</ele>
        <time>2023-08-24T14:31:56Z</time>
      </trkpt>
      <trkpt lat="58.069932963699102" lon="-5.254568997770548">
        <ele>56.369999999999997</ele>
        <time>2023-08-24T14:31:57Z</time>
      </trkpt>
      <trkpt lat="58.06986004114151" lon="-5.254755998030305">
        <ele>54.93</ele>
        <time>2023-08-24T14:31:58Z</time>
      </trkpt>
      <trkpt lat="58.069782005622983" lon="-5.254953978583217">
        <ele>53.490000000000002</ele>
        <time>2023-08-24T14:31:59Z</time>
      </trkpt>
      <trkpt lat="58.069682009518147" lon="-5.25510803796351">
        <ele>52.049999999999997</ele>
        <time>2023-08-24T14:32:00Z</time>
      </trkpt>
      <trkpt lat="58.069503977894783" lon="-5.2555419690907">
        <ele>48.68</ele>
        <time>2023-08-24T14:32:02Z</time>
      </trkpt>
      <trkpt lat="58.069424014538527" lon="-5.25562696158886">
        <ele>47.240000000000002</ele>
        <time>2023-08-24T14:32:03Z</time>
      </trkpt>
      <trkpt lat="58.069308008998632" lon="-5.255747996270657">
        <ele>45.799999999999997</ele>
        <time>2023-08-24T14:32:04Z</time>
      </trkpt>
      <trkpt lat="58.068992011249065" lon="-5.256175976246595">
        <ele>41.950000000000003</ele>
        <time>2023-08-24T14:32:07Z</time>
      </trkpt>
      <trkpt lat="58.068895032629371" lon="-5.256349984556437">
        <ele>40.990000000000002</ele>
        <time>2023-08-24T14:32:08Z</time>
      </trkpt>
      <trkpt lat="58.068795958533883" lon="-5.256529022008181">
        <ele>40.030000000000001</ele>
        <time>2023-08-24T14:32:09Z</time>
      </trkpt>
      <trkpt lat="58.068665033206344" lon="-5.256910985335708">
        <ele>38.109999999999999</ele>
        <time>2023-08-24T14:32:11Z</time>
      </trkpt>
      <trkpt lat="58.068602001294494" lon="-5.257093040272594">
        <ele>37.149999999999999</ele>
        <time>2023-08-24T14:32:12Z</time>
      </trkpt>
      <trkpt lat="58.068537963554263" lon="-5.257280040532351">
        <ele>36.670000000000002</ele>
        <time>2023-08-24T14:32:13Z</time>
      </trkpt>
      <trkpt lat="58.06833696551621" lon="-5.259120035916567">
        <ele>30.420000000000002</ele>
        <time>2023-08-24T14:32:20Z</time>
      </trkpt>
      <trkpt lat="58.068281980231404" lon="-5.25962102226913">
        <ele>29.460000000000001</ele>
        <time>2023-08-24T14:32:22Z</time>
      </trkpt>
      <trkpt lat="58.068253984674811" lon="-5.259870970621705">
        <ele>28.98</ele>
        <time>2023-08-24T14:32:23Z</time>
      </trkpt>
      <trkpt lat="58.068131022155285" lon="-5.261906012892723">
        <ele>27.530000000000001</ele>
        <time>2023-08-24T14:32:31Z</time>
      </trkpt>
      <trkpt lat="58.068131022155285" lon="-5.262299040332437">
        <ele>25.609999999999999</ele>
        <time>2023-08-24T14:32:33Z</time>
      </trkpt>
      <trkpt lat="58.068131022155285" lon="-5.262390989810228">
        <ele>24.649999999999999</ele>
        <time>2023-08-24T14:32:34Z</time>
      </trkpt>
      <trkpt lat="58.068176032975316" lon="-5.262681003659964">
        <ele>20.32</ele>
        <time>2023-08-24T14:32:39Z</time>
      </trkpt>
      <trkpt lat="58.068189024925232" lon="-5.26273800060153">
        <ele>18.879999999999999</ele>
        <time>2023-08-24T14:32:40Z</time>
      </trkpt>
      <trkpt lat="58.068204028531909" lon="-5.262799020856619">
        <ele>18.399999999999999</ele>
        <time>2023-08-24T14:32:41Z</time>
      </trkpt>
      <trkpt lat="58.068220037966967" lon="-5.262863980606198">
        <ele>16.960000000000001</ele>
        <time>2023-08-24T14:32:42Z</time>
      </trkpt>
      <trkpt lat="58.068236969411373" lon="-5.262934975326061">
        <ele>16</ele>
        <time>2023-08-24T14:32:43Z</time>
      </trkpt>
      <trkpt lat="58.068260019645095" lon="-5.263029020279646">
        <ele>15.039999999999999</ele>
        <time>2023-08-24T14:32:44Z</time>
      </trkpt>
      <trkpt lat="58.068329002708197" lon="-5.263315010815859">
        <ele>13.119999999999999</ele>
        <time>2023-08-24T14:32:46Z</time>
      </trkpt>
      <trkpt lat="58.068367978557944" lon="-5.263479966670275">
        <ele>12.15</ele>
        <time>2023-08-24T14:32:47Z</time>
      </trkpt>
      <trkpt lat="58.068411983549595" lon="-5.263659004122019">
        <ele>11.19</ele>
        <time>2023-08-24T14:32:48Z</time>
      </trkpt>
      <trkpt lat="58.068424975499511" lon="-5.263832006603479">
        <ele>10.23</ele>
        <time>2023-08-24T14:32:49Z</time>
      </trkpt>
      <trkpt lat="58.068411983549595" lon="-5.264042979106307">
        <ele>9.27</ele>
        <time>2023-08-24T14:32:50Z</time>
      </trkpt>
      <trkpt lat="58.068397985771298" lon="-5.264261998236179">
        <ele>7.83</ele>
        <time>2023-08-24T14:32:51Z</time>
      </trkpt>
      <trkpt lat="58.068382982164621" lon="-5.264488980174065">
        <ele>6.87</ele>
        <time>2023-08-24T14:32:52Z</time>
      </trkpt>
      <trkpt lat="58.068367978557944" lon="-5.264727026224136">
        <ele>6.39</ele>
        <time>2023-08-24T14:32:53Z</time>
      </trkpt>
      <trkpt lat="58.0683150049299" lon="-5.265200017020106">
        <ele>4.46</ele>
        <time>2023-08-24T14:32:55Z</time>
      </trkpt>
      <trkpt lat="58.068276029080153" lon="-5.265416018664837">
        <ele>3.5</ele>
        <time>2023-08-24T14:32:56Z</time>
      </trkpt>
      <trkpt lat="58.068233029916883" lon="-5.265598995611072">
        <ele>2.06</ele>
        <time>2023-08-24T14:32:57Z</time>
      </trkpt>
      <trkpt lat="58.068163963034749" lon="-5.265894960612059">
        <ele>0.14</ele>
        <time>2023-08-24T14:32:59Z</time>
      </trkpt>
      <trkpt lat="58.068136973306537" lon="-5.266009038314223">
        <ele>0.14</ele>
        <time>2023-08-24T14:33:00Z</time>
      </trkpt>
      <trkpt lat="58.068052986636758" lon="-5.266060000285506">
        <ele>0.62</ele>
        <time>2023-08-24T14:33:01Z</time>
      </trkpt>
      <trkpt lat="58.067973023280501" lon="-5.266095958650112">
        <ele>0.62</ele>
        <time>2023-08-24T14:33:02Z</time>
      </trkpt>
      <trkpt lat="58.0678850132972" lon="-5.26615203358233">
        <ele>1.1</ele>
        <time>2023-08-24T14:33:03Z</time>
      </trkpt>
      <trkpt lat="58.067788034677505" lon="-5.266212970018387">
        <ele>2.06</ele>
        <time>2023-08-24T14:33:04Z</time>
      </trkpt>
      <trkpt lat="58.067689966410398" lon="-5.266274996101856">
        <ele>3.02</ele>
        <time>2023-08-24T14:33:05Z</time>
      </trkpt>
      <trkpt lat="58.067573038861156" lon="-5.266373986378312">
        <ele>3.98</ele>
        <time>2023-08-24T14:33:06Z</time>
      </trkpt>
      <trkpt lat="58.067319989204407" lon="-5.266825016587973">
        <ele>6.39</ele>
        <time>2023-08-24T14:33:10Z</time>
      </trkpt>
      <trkpt lat="58.067265003919601" lon="-5.266925012692809">
        <ele>6.87</ele>
        <time>2023-08-24T14:33:11Z</time>
      </trkpt>
      <trkpt lat="58.067204989492893" lon="-5.267031965777278">
        <ele>7.35</ele>
        <time>2023-08-24T14:33:12Z</time>
      </trkpt>
      <trkpt lat="58.067137012258172" lon="-5.267155012115836">
        <ele>7.35</ele>
        <time>2023-08-24T14:33:13Z</time>
      </trkpt>
      <trkpt lat="58.067061994224787" lon="-5.267274035140872">
        <ele>7.83</ele>
        <time>2023-08-24T14:33:14Z</time>
      </trkpt>
      <trkpt lat="58.066786983981729" lon="-5.267534041777253">
        <ele>8.789999999999999</ele>
        <time>2023-08-24T14:33:17Z</time>
      </trkpt>
      <trkpt lat="58.066693022847176" lon="-5.267622973769903">
        <ele>9.27</ele>
        <time>2023-08-24T14:33:18Z</time>
      </trkpt>
      <trkpt lat="58.066600989550352" lon="-5.2676369715482">
        <ele>9.27</ele>
        <time>2023-08-24T14:33:19Z</time>
      </trkpt>
      <trkpt lat="58.066501999273896" lon="-5.267651975154877">
        <ele>9.27</ele>
        <time>2023-08-24T14:33:20Z</time>
      </trkpt>
      <trkpt lat="58.066384987905622" lon="-5.267640994861722">
        <ele>8.789999999999999</ele>
        <time>2023-08-24T14:33:21Z</time>
      </trkpt>
      <trkpt lat="58.066279040649533" lon="-5.267549967393279">
        <ele>8.789999999999999</ele>
        <time>2023-08-24T14:33:22Z</time>
      </trkpt>
      <trkpt lat="58.066177032887936" lon="-5.267404960468411">
        <ele>9.27</ele>
        <time>2023-08-24T14:33:23Z</time>
      </trkpt>
      <trkpt lat="58.066077036783099" lon="-5.26725098490715">
        <ele>9.27</ele>
        <time>2023-08-24T14:33:24Z</time>
      </trkpt>
      <trkpt lat="58.06597301736474" lon="-5.267092986032367">
        <ele>9.27</ele>
        <time>2023-08-24T14:33:25Z</time>
      </trkpt>
      <trkpt lat="58.065229039639235" lon="-5.265800999477506">
        <ele>10.23</ele>
        <time>2023-08-24T14:33:32Z</time>
      </trkpt>
      <trkpt lat="58.065127031877637" lon="-5.265670996159315">
        <ele>10.710000000000001</ele>
        <time>2023-08-24T14:33:33Z</time>
      </trkpt>
      <trkpt lat="58.065021000802517" lon="-5.265587009489536">
        <ele>10.710000000000001</ele>
        <time>2023-08-24T14:33:34Z</time>
      </trkpt>
      <trkpt lat="58.064909018576145" lon="-5.265498999506235">
        <ele>11.19</ele>
        <time>2023-08-24T14:33:35Z</time>
      </trkpt>
      <trkpt lat="58.064798964187503" lon="-5.265413001179695">
        <ele>11.67</ele>
        <time>2023-08-24T14:33:36Z</time>
      </trkpt>
      <trkpt lat="58.064689999446273" lon="-5.265327002853155">
        <ele>12.15</ele>
        <time>2023-08-24T14:33:37Z</time>
      </trkpt>
      <trkpt lat="58.064582962542772" lon="-5.265243016183376">
        <ele>13.119999999999999</ele>
        <time>2023-08-24T14:33:38Z</time>
      </trkpt>
      <trkpt lat="58.064367966726422" lon="-5.265189958736301">
        <ele>15.52</ele>
        <time>2023-08-24T14:33:40Z</time>
      </trkpt>
      <trkpt lat="58.064267970621586" lon="-5.26518601924181">
        <ele>17.440000000000001</ele>
        <time>2023-08-24T14:33:41Z</time>
      </trkpt>
      <trkpt lat="58.064159005880356" lon="-5.265180990099907">
        <ele>19.359999999999999</ele>
        <time>2023-08-24T14:33:42Z</time>
      </trkpt>
      <trkpt lat="58.064023973420262" lon="-5.265202028676868">
        <ele>21.289999999999999</ele>
        <time>2023-08-24T14:33:43Z</time>
      </trkpt>
      <trkpt lat="58.063898999243975" lon="-5.265264976769686">
        <ele>23.210000000000001</ele>
        <time>2023-08-24T14:33:44Z</time>
      </trkpt>
      <trkpt lat="58.063780982047319" lon="-5.265322979539633">
        <ele>25.129999999999999</ele>
        <time>2023-08-24T14:33:45Z</time>
      </trkpt>
      <trkpt lat="58.063670005649328" lon="-5.265413001179695">
        <ele>27.530000000000001</ele>
        <time>2023-08-24T14:33:46Z</time>
      </trkpt>
      <trkpt lat="58.063589036464691" lon="-5.265500005334616">
        <ele>29.940000000000001</ele>
        <time>2023-08-24T14:33:47Z</time>
      </trkpt>
      <trkpt lat="58.063508989289403" lon="-5.265586003661156">
        <ele>31.379999999999999</ele>
        <time>2023-08-24T14:33:48Z</time>
      </trkpt>
      <trkpt lat="58.063406981527805" lon="-5.265697985887528">
        <ele>34.259999999999998</ele>
        <time>2023-08-24T14:33:49Z</time>
      </trkpt>
      <trkpt lat="58.063344033434987" lon="-5.265840981155634">
        <ele>36.189999999999998</ele>
        <time>2023-08-24T14:33:50Z</time>
      </trkpt>
      <trkpt lat="58.063287958502769" lon="-5.266034016385675">
        <ele>38.590000000000003</ele>
        <time>2023-08-24T14:33:51Z</time>
      </trkpt>
      <trkpt lat="58.063238002359867" lon="-5.266244988888502">
        <ele>40.030000000000001</ele>
        <time>2023-08-24T14:33:52Z</time>
      </trkpt>
      <trkpt lat="58.062937008216977" lon="-5.26750504039228">
        <ele>46.280000000000001</ele>
        <time>2023-08-24T14:33:57Z</time>
      </trkpt>
      <trkpt lat="58.062873976305127" lon="-5.267773009836674">
        <ele>46.759999999999998</ele>
        <time>2023-08-24T14:33:58Z</time>
      </trkpt>
      <trkpt lat="58.062773980200291" lon="-5.267922040075064">
        <ele>47.240000000000002</ele>
        <time>2023-08-24T14:33:59Z</time>
      </trkpt>
      <trkpt lat="58.062669038772583" lon="-5.268080038949847">
        <ele>47.719999999999999</ele>
        <time>2023-08-24T14:34:00Z</time>
      </trkpt>
      <trkpt lat="58.062545992434025" lon="-5.268181962892413">
        <ele>48.200000000000003</ele>
        <time>2023-08-24T14:34:01Z</time>
      </trkpt>
      <trkpt lat="58.062420012429357" lon="-5.268264021724463">
        <ele>49.159999999999997</ele>
        <time>2023-08-24T14:34:02Z</time>
      </trkpt>
      <trkpt lat="58.062285985797644" lon="-5.268319007009268">
        <ele>49.649999999999999</ele>
        <time>2023-08-24T14:34:03Z</time>
      </trkpt>
      <trkpt lat="58.062152964994311" lon="-5.268373992294073">
        <ele>50.609999999999999</ele>
        <time>2023-08-24T14:34:04Z</time>
      </trkpt>
      <trkpt lat="58.062009969726205" lon="-5.268384972587228">
        <ele>51.57</ele>
        <time>2023-08-24T14:34:05Z</time>
      </trkpt>
      <trkpt lat="58.061864040791988" lon="-5.268339961767197">
        <ele>52.049999999999997</ele>
        <time>2023-08-24T14:34:06Z</time>
      </trkpt>
      <trkpt lat="58.061726996675134" lon="-5.26823602616787">
        <ele>53.009999999999998</ele>
        <time>2023-08-24T14:34:07Z</time>
      </trkpt>
      <trkpt lat="58.06159095838666" lon="-5.268132006749511">
        <ele>53.969999999999999</ele>
        <time>2023-08-24T14:34:08Z</time>
      </trkpt>
      <trkpt lat="58.061457015573978" lon="-5.268029998987913">
        <ele>54.93</ele>
        <time>2023-08-24T14:34:09Z</time>
      </trkpt>
      <trkpt lat="58.06133396923542" lon="-5.267936959862709">
        <ele>55.890000000000001</ele>
        <time>2023-08-24T14:34:10Z</time>
      </trkpt>
      <trkpt lat="58.061219975352287" lon="-5.26785003952682">
        <ele>57.340000000000003</ele>
        <time>2023-08-24T14:34:11Z</time>
      </trkpt>
      <trkpt lat="58.061102963984013" lon="-5.267761023715138">
        <ele>58.780000000000001</ele>
        <time>2023-08-24T14:34:12Z</time>
      </trkpt>
      <trkpt lat="58.060980001464486" lon="-5.267667984589934">
        <ele>60.219999999999999</ele>
        <time>2023-08-24T14:34:13Z</time>
      </trkpt>
      <trkpt lat="58.060846980661154" lon="-5.267605958506465">
        <ele>61.659999999999997</ele>
        <time>2023-08-24T14:34:14Z</time>
      </trkpt>
      <trkpt lat="58.06072804145515" lon="-5.267579974606633">
        <ele>63.100000000000001</ele>
        <time>2023-08-24T14:34:15Z</time>
      </trkpt>
      <trkpt lat="58.060568030923605" lon="-5.267628002911806">
        <ele>64.549999999999997</ele>
        <time>2023-08-24T14:34:16Z</time>
      </trkpt>
      <trkpt lat="58.060444984585047" lon="-5.267665972933173">
        <ele>65.989999999999995</ele>
        <time>2023-08-24T14:34:17Z</time>
      </trkpt>
      <trkpt lat="58.060335014015436" lon="-5.267698997631669">
        <ele>66.950000000000003</ele>
        <time>2023-08-24T14:34:18Z</time>
      </trkpt>
      <trkpt lat="58.060224037617445" lon="-5.26772296987474">
        <ele>68.390000000000001</ele>
        <time>2023-08-24T14:34:19Z</time>
      </trkpt>
      <trkpt lat="58.060126975178719" lon="-5.26765801012516">
        <ele>69.829999999999998</ele>
        <time>2023-08-24T14:34:20Z</time>
      </trkpt>
      <trkpt lat="58.060034019872546" lon="-5.267533035948873">
        <ele>70.790000000000006</ele>
        <time>2023-08-24T14:34:21Z</time>
      </trkpt>
      <trkpt lat="58.059946009889245" lon="-5.267394986003637">
        <ele>71.760000000000005</ele>
        <time>2023-08-24T14:34:22Z</time>
      </trkpt>
      <trkpt lat="58.059447035193443" lon="-5.266761984676123">
        <ele>78</ele>
        <time>2023-08-24T14:34:27Z</time>
      </trkpt>
      <trkpt lat="58.05935500189662" lon="-5.266699958592653">
        <ele>78.969999999999999</ele>
        <time>2023-08-24T14:34:28Z</time>
      </trkpt>
      <trkpt lat="58.059213012456894" lon="-5.266655031591654">
        <ele>79.930000000000007</ele>
        <time>2023-08-24T14:34:29Z</time>
      </trkpt>
      <trkpt lat="58.059087032452226" lon="-5.266614966094494">
        <ele>80.890000000000001</ele>
        <time>2023-08-24T14:34:30Z</time>
      </trkpt>
      <trkpt lat="58.058963986113667" lon="-5.266574984416366">
        <ele>81.370000000000005</ele>
        <time>2023-08-24T14:34:31Z</time>
      </trkpt>
      <trkpt lat="58.058817973360419" lon="-5.266527961939573">
        <ele>82.329999999999998</ele>
        <time>2023-08-24T14:34:32Z</time>
      </trkpt>
      <trkpt lat="58.058741027489305" lon="-5.266580013558269">
        <ele>83.290000000000006</ele>
        <time>2023-08-24T14:34:33Z</time>
      </trkpt>
      <trkpt lat="58.058630973100662" lon="-5.266653019934893">
        <ele>83.769999999999996</ele>
        <time>2023-08-24T14:34:34Z</time>
      </trkpt>
      <trkpt lat="58.058513039723039" lon="-5.266731977462769">
        <ele>84.730000000000004</ele>
        <time>2023-08-24T14:34:35Z</time>
      </trkpt>
      <trkpt lat="58.058390999212861" lon="-5.266792997717857">
        <ele>85.209999999999994</ele>
        <time>2023-08-24T14:34:36Z</time>
      </trkpt>
      <trkpt lat="58.058262001723051" lon="-5.266816969960928">
        <ele>85.689999999999998</ele>
        <time>2023-08-24T14:34:37Z</time>
      </trkpt>
      <trkpt lat="58.05813199840486" lon="-5.266789980232716">
        <ele>86.180000000000007</ele>
        <time>2023-08-24T14:34:38Z</time>
      </trkpt>
      <trkpt lat="58.058008030056953" lon="-5.266715968027711">
        <ele>86.659999999999997</ele>
        <time>2023-08-24T14:34:39Z</time>
      </trkpt>
      <trkpt lat="58.057909039780498" lon="-5.266587976366282">
        <ele>87.140000000000001</ele>
        <time>2023-08-24T14:34:40Z</time>
      </trkpt>
      <trkpt lat="58.057808959856629" lon="-5.26643400080502">
        <ele>87.140000000000001</ele>
        <time>2023-08-24T14:34:41Z</time>
      </trkpt>
      <trkpt lat="58.057709969580173" lon="-5.26628103107214">
        <ele>88.099999999999994</ele>
        <time>2023-08-24T14:34:42Z</time>
      </trkpt>
      <trkpt lat="58.057618020102382" lon="-5.266139041632414">
        <ele>88.579999999999998</ele>
        <time>2023-08-24T14:34:43Z</time>
      </trkpt>
      <trkpt lat="58.057536967098713" lon="-5.266013983637095">
        <ele>89.540000000000006</ele>
        <time>2023-08-24T14:34:44Z</time>
      </trkpt>
      <trkpt lat="58.057440994307399" lon="-5.26594097726047">
        <ele>90.5</ele>
        <time>2023-08-24T14:34:45Z</time>
      </trkpt>
      <trkpt lat="58.057333035394549" lon="-5.265894960612059">
        <ele>91.459999999999994</ele>
        <time>2023-08-24T14:34:46Z</time>
      </trkpt>
      <trkpt lat="58.057213006541133" lon="-5.265842992812395">
        <ele>92.420000000000002</ele>
        <time>2023-08-24T14:34:47Z</time>
      </trkpt>
      <trkpt lat="58.057087026536465" lon="-5.265790019184351">
        <ele>92.900000000000006</ele>
        <time>2023-08-24T14:34:48Z</time>
      </trkpt>
      <trkpt lat="58.056973032653332" lon="-5.265684993937612">
        <ele>93.870000000000005</ele>
        <time>2023-08-24T14:34:49Z</time>
      </trkpt>
      <trkpt lat="58.056874964386225" lon="-5.265578962862492">
        <ele>94.349999999999994</ele>
        <time>2023-08-24T14:34:50Z</time>
      </trkpt>
      <trkpt lat="58.056790977716446" lon="-5.265489025041461">
        <ele>95.310000000000002</ele>
        <time>2023-08-24T14:34:51Z</time>
      </trkpt>
      <trkpt lat="58.056695004925132" lon="-5.265477038919926">
        <ele>96.269999999999996</ele>
        <time>2023-08-24T14:34:52Z</time>
      </trkpt>
      <trkpt lat="58.056603977456689" lon="-5.265477038919926">
        <ele>97.230000000000004</ele>
        <time>2023-08-24T14:34:53Z</time>
      </trkpt>
      <trkpt lat="58.056493001058698" lon="-5.265521965920925">
        <ele>98.670000000000002</ele>
        <time>2023-08-24T14:34:54Z</time>
      </trkpt>
      <trkpt lat="58.0563909932971" lon="-5.265612993389368">
        <ele>99.629999999999995</ele>
        <time>2023-08-24T14:34:55Z</time>
      </trkpt>
      <trkpt lat="58.055877014994621" lon="-5.26602596975863">
        <ele>105.88</ele>
        <time>2023-08-24T14:35:00Z</time>
      </trkpt>
      <trkpt lat="58.055772995576262" lon="-5.26604700833559">
        <ele>106.36</ele>
        <time>2023-08-24T14:35:01Z</time>
      </trkpt>
      <trkpt lat="58.055621031671762" lon="-5.266078021377325">
        <ele>106.84</ele>
        <time>2023-08-24T14:35:02Z</time>
      </trkpt>
      <trkpt lat="58.055537967011333" lon="-5.266053965315223">
        <ele>106.36</ele>
        <time>2023-08-24T14:35:03Z</time>
      </trkpt>
      <trkpt lat="58.055415004491806" lon="-5.265984982252121">
        <ele>106.36</ele>
        <time>2023-08-24T14:35:04Z</time>
      </trkpt>
      <trkpt lat="58.05529497563839" lon="-5.265877023339272">
        <ele>106.36</ele>
        <time>2023-08-24T14:35:05Z</time>
      </trkpt>
      <trkpt lat="58.055173018947244" lon="-5.26576898060739">
        <ele>106.36</ele>
        <time>2023-08-24T14:35:06Z</time>
      </trkpt>
      <trkpt lat="58.055047960951924" lon="-5.265643000602722">
        <ele>106.84</ele>
        <time>2023-08-24T14:35:07Z</time>
      </trkpt>
      <trkpt lat="58.054948970675468" lon="-5.265463963150978">
        <ele>107.31999999999999</ele>
        <time>2023-08-24T14:35:08Z</time>
      </trkpt>
      <trkpt lat="58.054760964587331" lon="-5.265127010643482">
        <ele>108.77</ele>
        <time>2023-08-24T14:35:10Z</time>
      </trkpt>
      <trkpt lat="58.054659962654114" lon="-5.265006981790066">
        <ele>109.73</ele>
        <time>2023-08-24T14:35:11Z</time>
      </trkpt>
      <trkpt lat="58.05454202927649" lon="-5.26488502509892">
        <ele>110.20999999999999</ele>
        <time>2023-08-24T14:35:12Z</time>
      </trkpt>
      <trkpt lat="58.053644997999072" lon="-5.264076003804803">
        <ele>117.42</ele>
        <time>2023-08-24T14:35:20Z</time>
      </trkpt>
      <trkpt lat="58.053593030199409" lon="-5.263946000486612">
        <ele>118.38</ele>
        <time>2023-08-24T14:35:21Z</time>
      </trkpt>
      <trkpt lat="58.053560005500913" lon="-5.263826977461577">
        <ele>118.86</ele>
        <time>2023-08-24T14:35:22Z</time>
      </trkpt>
      <trkpt lat="58.05353200994432" lon="-5.263729998841882">
        <ele>119.34</ele>
        <time>2023-08-24T14:35:23Z</time>
      </trkpt>
      <trkpt lat="58.053505020216107" lon="-5.263634026050568">
        <ele>120.3</ele>
        <time>2023-08-24T14:35:24Z</time>
      </trkpt>
      <trkpt lat="58.053451962769032" lon="-5.263443002477288">
        <ele>121.73999999999999</ele>
        <time>2023-08-24T14:35:26Z</time>
      </trkpt>
      <trkpt lat="58.053422039374709" lon="-5.263363961130381">
        <ele>122.70999999999999</ele>
        <time>2023-08-24T14:35:27Z</time>
      </trkpt>
      <trkpt lat="58.053378034383059" lon="-5.263320039957762">
        <ele>123.67</ele>
        <time>2023-08-24T14:35:28Z</time>
      </trkpt>
      <trkpt lat="58.053327994421124" lon="-5.263329008594155">
        <ele>124.63</ele>
        <time>2023-08-24T14:35:29Z</time>
      </trkpt>
      <trkpt lat="58.053284995257854" lon="-5.263350969180465">
        <ele>125.59</ele>
        <time>2023-08-24T14:35:30Z</time>
      </trkpt>
      <trkpt lat="58.053264962509274" lon="-5.263463035225868">
        <ele>126.55</ele>
        <time>2023-08-24T14:35:31Z</time>
      </trkpt>
      <trkpt lat="58.053248031064868" lon="-5.263579040765762">
        <ele>127.03</ele>
        <time>2023-08-24T14:35:32Z</time>
      </trkpt>
      <trkpt lat="58.053226992487907" lon="-5.263719018548727">
        <ele>127.98999999999999</ele>
        <time>2023-08-24T14:35:33Z</time>
      </trkpt>
      <trkpt lat="58.053201008588076" lon="-5.263886991888285">
        <ele>128.47</ele>
        <time>2023-08-24T14:35:34Z</time>
      </trkpt>
      <trkpt lat="58.053141999989748" lon="-5.264277001842856">
        <ele>130.88</ele>
        <time>2023-08-24T14:35:36Z</time>
      </trkpt>
      <trkpt lat="58.053109981119633" lon="-5.264489986002445">
        <ele>131.36000000000001</ele>
        <time>2023-08-24T14:35:37Z</time>
      </trkpt>
      <trkpt lat="58.05306002497673" lon="-5.264654019847512">
        <ele>132.80000000000001</ele>
        <time>2023-08-24T14:35:38Z</time>
      </trkpt>
      <trkpt lat="58.0529959872365" lon="-5.264809001237154">
        <ele>133.75999999999999</ele>
        <time>2023-08-24T14:35:39Z</time>
      </trkpt>
      <trkpt lat="58.052915018051863" lon="-5.264924000948668">
        <ele>134.72</ele>
        <time>2023-08-24T14:35:40Z</time>
      </trkpt>
      <trkpt lat="58.052830025553703" lon="-5.26501502841711">
        <ele>135.68000000000001</ele>
        <time>2023-08-24T14:35:41Z</time>
      </trkpt>
      <trkpt lat="58.052736986428499" lon="-5.265083005651832">
        <ele>136.63999999999999</ele>
        <time>2023-08-24T14:35:42Z</time>
      </trkpt>
      <trkpt lat="58.051688997074962" lon="-5.265850033611059">
        <ele>141.93000000000001</ele>
        <time>2023-08-24T14:35:51Z</time>
      </trkpt>
      <trkpt lat="58.050890034064651" lon="-5.26673499494791">
        <ele>141.93000000000001</ele>
        <time>2023-08-24T14:35:59Z</time>
      </trkpt>
      <trkpt lat="58.050816021859646" lon="-5.266921995207667">
        <ele>140.97</ele>
        <time>2023-08-24T14:36:01Z</time>
      </trkpt>
      <trkpt lat="58.050771011039615" lon="-5.267032971605659">
        <ele>140.49000000000001</ele>
        <time>2023-08-24T14:36:02Z</time>
      </trkpt>
      <trkpt lat="58.050429029390216" lon="-5.268220016732812">
        <ele>137.61000000000001</ele>
        <time>2023-08-24T14:36:08Z</time>
      </trkpt>
      <trkpt lat="58.050119988620281" lon="-5.270750010386109">
        <ele>128.94999999999999</ele>
        <time>2023-08-24T14:36:17Z</time>
      </trkpt>
      <trkpt lat="58.049716986715794" lon="-5.274366969242692">
        <ele>115.5</ele>
        <time>2023-08-24T14:36:29Z</time>
      </trkpt>
      <trkpt lat="58.049227986484766" lon="-5.276637962087989">
        <ele>105.88</ele>
        <time>2023-08-24T14:36:37Z</time>
      </trkpt>
      <trkpt lat="58.048628009855747" lon="-5.278651965782046">
        <ele>97.709999999999994</ele>
        <time>2023-08-24T14:36:45Z</time>
      </trkpt>
      <trkpt lat="58.048221990466118" lon="-5.281060002744198">
        <ele>85.689999999999998</ele>
        <time>2023-08-24T14:36:54Z</time>
      </trkpt>
      <trkpt lat="58.048015041276813" lon="-5.283155981451273">
        <ele>76.079999999999998</ele>
        <time>2023-08-24T14:37:03Z</time>
      </trkpt>
      <trkpt lat="58.04788202047348" lon="-5.283908005803824">
        <ele>72.239999999999995</ele>
        <time>2023-08-24T14:37:07Z</time>
      </trkpt>
      <trkpt lat="58.047844972461462" lon="-5.283997021615505">
        <ele>71.269999999999996</ele>
        <time>2023-08-24T14:37:08Z</time>
      </trkpt>
      <trkpt lat="58.04781898856163" lon="-5.284059969708324">
        <ele>70.790000000000006</ele>
        <time>2023-08-24T14:37:09Z</time>
      </trkpt>
      <trkpt lat="58.047799039632082" lon="-5.284107998013496">
        <ele>69.829999999999998</ele>
        <time>2023-08-24T14:37:10Z</time>
      </trkpt>
      <trkpt lat="58.047779006883502" lon="-5.284155020490289">
        <ele>69.349999999999994</ele>
        <time>2023-08-24T14:37:11Z</time>
      </trkpt>
      <trkpt lat="58.047755034640431" lon="-5.284214029088616">
        <ele>68.870000000000005</ele>
        <time>2023-08-24T14:37:12Z</time>
      </trkpt>
      <trkpt lat="58.047725027427077" lon="-5.284285023808479">
        <ele>67.909999999999997</ele>
        <time>2023-08-24T14:37:13Z</time>
      </trkpt>
      <trkpt lat="58.047728966921568" lon="-5.284433970227838">
        <ele>67.430000000000007</ele>
        <time>2023-08-24T14:37:14Z</time>
      </trkpt>
      <trkpt lat="58.047767020761967" lon="-5.284569002687931">
        <ele>66.469999999999999</ele>
        <time>2023-08-24T14:37:15Z</time>
      </trkpt>
      <trkpt lat="58.047811025753617" lon="-5.284732030704618">
        <ele>65.989999999999995</ele>
        <time>2023-08-24T14:37:16Z</time>
      </trkpt>
      <trkpt lat="58.048173040151596" lon="-5.28620095923543">
        <ele>62.619999999999997</ele>
        <time>2023-08-24T14:37:23Z</time>
      </trkpt>
      <trkpt lat="58.048317041248083" lon="-5.287082986906171">
        <ele>61.18</ele>
        <time>2023-08-24T14:37:29Z</time>
      </trkpt>
      <trkpt lat="58.048541005700827" lon="-5.288447979837656">
        <ele>60.219999999999999</ele>
        <time>2023-08-24T14:37:35Z</time>
      </trkpt>
      <trkpt lat="58.049133019521832" lon="-5.292068962007761">
        <ele>58.780000000000001</ele>
        <time>2023-08-24T14:37:48Z</time>
      </trkpt>
      <trkpt lat="58.049397971481085" lon="-5.293693961575627">
        <ele>58.780000000000001</ele>
        <time>2023-08-24T14:37:54Z</time>
      </trkpt>
      <trkpt lat="58.04951598867774" lon="-5.294124037027359">
        <ele>58.780000000000001</ele>
        <time>2023-08-24T14:37:56Z</time>
      </trkpt>
      <trkpt lat="58.049580026417971" lon="-5.294358981773257">
        <ele>58.780000000000001</ele>
        <time>2023-08-24T14:37:57Z</time>
      </trkpt>
      <trkpt lat="58.050474962219596" lon="-5.296657970175147">
        <ele>54.450000000000003</ele>
        <time>2023-08-24T14:38:07Z</time>
      </trkpt>
      <trkpt lat="58.051457991823554" lon="-5.298396963626146">
        <ele>51.090000000000003</ele>
        <time>2023-08-24T14:38:16Z</time>
      </trkpt>
      <trkpt lat="58.052602037787437" lon="-5.299793975427747">
        <ele>47.240000000000002</ele>
        <time>2023-08-24T14:38:25Z</time>
      </trkpt>
      <trkpt lat="58.053281977772713" lon="-5.300624035298824">
        <ele>44.840000000000003</ele>
        <time>2023-08-24T14:38:32Z</time>
      </trkpt>
      <trkpt lat="58.053535027429461" lon="-5.301138013601303">
        <ele>43.399999999999999</ele>
        <time>2023-08-24T14:38:35Z</time>
      </trkpt>
      <trkpt lat="58.053622031584382" lon="-5.301345968618989">
        <ele>42.439999999999998</ele>
        <time>2023-08-24T14:38:36Z</time>
      </trkpt>
      <trkpt lat="58.053707024082541" lon="-5.301548978313804">
        <ele>42.439999999999998</ele>
        <time>2023-08-24T14:38:37Z</time>
      </trkpt>
      <trkpt lat="58.053793022409081" lon="-5.30175399966538">
        <ele>41.950000000000003</ele>
        <time>2023-08-24T14:38:38Z</time>
      </trkpt>
      <trkpt lat="58.053881032392383" lon="-5.301965977996588">
        <ele>41.950000000000003</ele>
        <time>2023-08-24T14:38:39Z</time>
      </trkpt>
      <trkpt lat="58.054811004549265" lon="-5.304189026355743">
        <ele>38.109999999999999</ele>
        <time>2023-08-24T14:38:49Z</time>
      </trkpt>
      <trkpt lat="58.056191001087427" lon="-5.307531980797648">
        <ele>35.710000000000001</ele>
        <time>2023-08-24T14:39:03Z</time>
      </trkpt>
      <trkpt lat="58.057328006252646" lon="-5.310739986598492">
        <ele>37.149999999999999</ele>
        <time>2023-08-24T14:39:15Z</time>
      </trkpt>
      <trkpt lat="58.058176003396511" lon="-5.313131008297205">
        <ele>36.670000000000002</ele>
        <time>2023-08-24T14:39:25Z</time>
      </trkpt>
      <trkpt lat="58.058350011706352" lon="-5.313622020184994">
        <ele>36.670000000000002</ele>
        <time>2023-08-24T14:39:29Z</time>
      </trkpt>
      <trkpt lat="58.058421006426215" lon="-5.313822012394667">
        <ele>36.189999999999998</ele>
        <time>2023-08-24T14:39:37Z</time>
      </trkpt>
      <trkpt lat="58.058446990326047" lon="-5.31389401294291">
        <ele>36.189999999999998</ele>
        <time>2023-08-24T14:39:48Z</time>
      </trkpt>
      <trkpt lat="58.058739015832543" lon="-5.314718959853053">
        <ele>35.710000000000001</ele>
        <time>2023-08-24T14:39:54Z</time>
      </trkpt>
      <trkpt lat="58.059537978842854" lon="-5.316974027082324">
        <ele>34.740000000000002</ele>
        <time>2023-08-24T14:40:04Z</time>
      </trkpt>
      <trkpt lat="58.06025798432529" lon="-5.318905971944332">
        <ele>34.259999999999998</ele>
        <time>2023-08-24T14:40:13Z</time>
      </trkpt>
      <trkpt lat="58.060561995953321" lon="-5.319697977975011">
        <ele>33.299999999999997</ele>
        <time>2023-08-24T14:40:19Z</time>
      </trkpt>
      <trkpt lat="58.060617987066507" lon="-5.319843990728259">
        <ele>32.82</ele>
        <time>2023-08-24T14:40:26Z</time>
      </trkpt>
      <trkpt lat="58.060785038396716" lon="-5.320276999846101">
        <ele>31.859999999999999</ele>
        <time>2023-08-24T14:40:35Z</time>
      </trkpt>
      <trkpt lat="58.06128996424377" lon="-5.321593964472413">
        <ele>29.460000000000001</ele>
        <time>2023-08-24T14:40:42Z</time>
      </trkpt>
      <trkpt lat="58.061742000281811" lon="-5.322770029306412">
        <ele>28.98</ele>
        <time>2023-08-24T14:40:49Z</time>
      </trkpt>
      <trkpt lat="58.062386987730861" lon="-5.324640031903982">
        <ele>27.050000000000001</ele>
        <time>2023-08-24T14:40:58Z</time>
      </trkpt>
      <trkpt lat="58.062840029597282" lon="-5.327120991423726">
        <ele>28.98</ele>
        <time>2023-08-24T14:41:07Z</time>
      </trkpt>
      <trkpt lat="58.063474036753178" lon="-5.330600989982486">
        <ele>30.420000000000002</ele>
        <time>2023-08-24T14:41:19Z</time>
      </trkpt>
      <trkpt lat="58.063532961532474" lon="-5.33112796023488">
        <ele>30.899999999999999</ele>
        <time>2023-08-24T14:41:21Z</time>
      </trkpt>
      <trkpt lat="58.063561040908098" lon="-5.331381009891629">
        <ele>31.379999999999999</ele>
        <time>2023-08-24T14:41:22Z</time>
      </trkpt>
      <trkpt lat="58.063571015372872" lon="-5.33166297711432">
        <ele>31.859999999999999</ele>
        <time>2023-08-24T14:41:23Z</time>
      </trkpt>
      <trkpt lat="58.063543019816279" lon="-5.331918960437179">
        <ele>32.340000000000003</ele>
        <time>2023-08-24T14:41:24Z</time>
      </trkpt>
      <trkpt lat="58.063515024259686" lon="-5.332171004265547">
        <ele>32.82</ele>
        <time>2023-08-24T14:41:25Z</time>
      </trkpt>
      <trkpt lat="58.06346096098423" lon="-5.332426987588406">
        <ele>33.299999999999997</ele>
        <time>2023-08-24T14:41:26Z</time>
      </trkpt>
      <trkpt lat="58.063376974314451" lon="-5.332640977576375">
        <ele>33.780000000000001</ele>
        <time>2023-08-24T14:41:27Z</time>
      </trkpt>
      <trkpt lat="58.063291981816292" lon="-5.332858990877867">
        <ele>33.780000000000001</ele>
        <time>2023-08-24T14:41:28Z</time>
      </trkpt>
      <trkpt lat="58.06320296600461" lon="-5.333086978644133">
        <ele>34.259999999999998</ele>
        <time>2023-08-24T14:41:29Z</time>
      </trkpt>
      <trkpt lat="58.061964036896825" lon="-5.336255002766848">
        <ele>35.229999999999997</ele>
        <time>2023-08-24T14:41:42Z</time>
      </trkpt>
      <trkpt lat="58.060737010091543" lon="-5.339640034362674">
        <ele>37.630000000000003</ele>
        <time>2023-08-24T14:41:55Z</time>
      </trkpt>
      <trkpt lat="58.059510989114642" lon="-5.343259004876018">
        <ele>37.630000000000003</ele>
        <time>2023-08-24T14:42:09Z</time>
      </trkpt>
      <trkpt lat="58.059158027172089" lon="-5.344315962865949">
        <ele>36.670000000000002</ele>
        <time>2023-08-24T14:42:13Z</time>
      </trkpt>
      <trkpt lat="58.05911703966558" lon="-5.344587033614516">
        <ele>37.149999999999999</ele>
        <time>2023-08-24T14:42:14Z</time>
      </trkpt>
      <trkpt lat="58.059091977775097" lon="-5.344876041635871">
        <ele>36.670000000000002</ele>
        <time>2023-08-24T14:42:15Z</time>
      </trkpt>
      <trkpt lat="58.059083009138703" lon="-5.345168989151716">
        <ele>36.670000000000002</ele>
        <time>2023-08-24T14:42:16Z</time>
      </trkpt>
      <trkpt lat="58.059078985825181" lon="-5.34547601826489">
        <ele>36.670000000000002</ele>
        <time>2023-08-24T14:42:17Z</time>
      </trkpt>
      <trkpt lat="58.059237990528345" lon="-5.348617974668741">
        <ele>39.07</ele>
        <time>2023-08-24T14:42:27Z</time>
      </trkpt>
      <trkpt lat="58.059218963608146" lon="-5.34936698153615">
        <ele>40.030000000000001</ele>
        <time>2023-08-24T14:42:30Z</time>
      </trkpt>
      <trkpt lat="58.059208989143372" lon="-5.349580971524119">
        <ele>40.030000000000001</ele>
        <time>2023-08-24T14:42:31Z</time>
      </trkpt>
      <trkpt lat="58.059179987758398" lon="-5.349742993712425">
        <ele>40.509999999999998</ele>
        <time>2023-08-24T14:42:32Z</time>
      </trkpt>
      <trkpt lat="58.059131037443876" lon="-5.349878026172519">
        <ele>40.509999999999998</ele>
        <time>2023-08-24T14:42:33Z</time>
      </trkpt>
      <trkpt lat="58.059058031067252" lon="-5.349955977872014">
        <ele>40.030000000000001</ele>
        <time>2023-08-24T14:42:34Z</time>
      </trkpt>
      <trkpt lat="58.058963986113667" lon="-5.350022027269006">
        <ele>39.549999999999997</ele>
        <time>2023-08-24T14:42:35Z</time>
      </trkpt>
      <trkpt lat="58.058858038857579" lon="-5.350096961483359">
        <ele>39.07</ele>
        <time>2023-08-24T14:42:36Z</time>
      </trkpt>
      <trkpt lat="58.058740021660924" lon="-5.35018103197217">
        <ele>38.590000000000003</ele>
        <time>2023-08-24T14:42:37Z</time>
      </trkpt>
      <trkpt lat="58.058613035827875" lon="-5.350270969793201">
        <ele>38.109999999999999</ele>
        <time>2023-08-24T14:42:38Z</time>
      </trkpt>
      <trkpt lat="58.058486972004175" lon="-5.350360991433263">
        <ele>37.630000000000003</ele>
        <time>2023-08-24T14:42:39Z</time>
      </trkpt>
      <trkpt lat="58.058383036404848" lon="-5.350494012236595">
        <ele>37.149999999999999</ele>
        <time>2023-08-24T14:42:40Z</time>
      </trkpt>
      <trkpt lat="58.058289997279644" lon="-5.350639019161463">
        <ele>37.149999999999999</ele>
        <time>2023-08-24T14:42:41Z</time>
      </trkpt>
      <trkpt lat="58.058199975639582" lon="-5.350776985287666">
        <ele>36.670000000000002</ele>
        <time>2023-08-24T14:42:42Z</time>
      </trkpt>
      <trkpt lat="58.058112971484661" lon="-5.35091302357614">
        <ele>36.189999999999998</ele>
        <time>2023-08-24T14:42:43Z</time>
      </trkpt>
      <trkpt lat="58.058024039492011" lon="-5.351049983873963">
        <ele>36.189999999999998</ele>
        <time>2023-08-24T14:42:44Z</time>
      </trkpt>
      <trkpt lat="58.057905016466975" lon="-5.351161966100335">
        <ele>35.710000000000001</ele>
        <time>2023-08-24T14:42:45Z</time>
      </trkpt>
      <trkpt lat="58.056727023795247" lon="-5.352307017892599">
        <ele>28.02</ele>
        <time>2023-08-24T14:42:54Z</time>
      </trkpt>
      <trkpt lat="58.056501969695091" lon="-5.352607006207109">
        <ele>26.09</ele>
        <time>2023-08-24T14:42:56Z</time>
      </trkpt>
      <trkpt lat="58.056423012167215" lon="-5.352786965668201">
        <ele>25.129999999999999</ele>
        <time>2023-08-24T14:42:57Z</time>
      </trkpt>
      <trkpt lat="58.056355034932494" lon="-5.352969020605087">
        <ele>24.649999999999999</ele>
        <time>2023-08-24T14:42:58Z</time>
      </trkpt>
      <trkpt lat="58.056330978870392" lon="-5.35318803973496">
        <ele>23.690000000000001</ele>
        <time>2023-08-24T14:42:59Z</time>
      </trkpt>
      <trkpt lat="58.056310024112463" lon="-5.353410998359323">
        <ele>22.73</ele>
        <time>2023-08-24T14:43:00Z</time>
      </trkpt>
      <trkpt lat="58.056331984698772" lon="-5.353648960590363">
        <ele>22.25</ele>
        <time>2023-08-24T14:43:01Z</time>
      </trkpt>
      <trkpt lat="58.056359980255365" lon="-5.353893963620067">
        <ele>21.289999999999999</ele>
        <time>2023-08-24T14:43:02Z</time>
      </trkpt>
      <trkpt lat="58.056388981640339" lon="-5.354149024933577">
        <ele>21.289999999999999</ele>
        <time>2023-08-24T14:43:03Z</time>
      </trkpt>
      <trkpt lat="58.056494006887078" lon="-5.355076985433698">
        <ele>20.32</ele>
        <time>2023-08-24T14:43:07Z</time>
      </trkpt>
      <trkpt lat="58.056514961645007" lon="-5.355257028713822">
        <ele>20.32</ele>
        <time>2023-08-24T14:43:08Z</time>
      </trkpt>
      <trkpt lat="58.056501969695091" lon="-5.355437994003296">
        <ele>20.32</ele>
        <time>2023-08-24T14:43:09Z</time>
      </trkpt>
      <trkpt lat="58.056474979966879" lon="-5.355600016191602">
        <ele>20.32</ele>
        <time>2023-08-24T14:43:10Z</time>
      </trkpt>
      <trkpt lat="58.056440027430654" lon="-5.355743011459708">
        <ele>20.809999999999999</ele>
        <time>2023-08-24T14:43:11Z</time>
      </trkpt>
      <trkpt lat="58.056385964155197" lon="-5.35585499368608">
        <ele>20.809999999999999</ele>
        <time>2023-08-24T14:43:12Z</time>
      </trkpt>
      <trkpt lat="58.056333996355534" lon="-5.3559610247612">
        <ele>20.809999999999999</ele>
        <time>2023-08-24T14:43:13Z</time>
      </trkpt>
      <trkpt lat="58.056289991363883" lon="-5.356052974238992">
        <ele>20.32</ele>
        <time>2023-08-24T14:43:14Z</time>
      </trkpt>
      <trkpt lat="58.056255038827658" lon="-5.356124974787235">
        <ele>20.32</ele>
        <time>2023-08-24T14:43:15Z</time>
      </trkpt>
      <trkpt lat="58.056156970560551" lon="-5.356326978653669">
        <ele>19.84</ele>
        <time>2023-08-24T14:43:21Z</time>
      </trkpt>
      <trkpt lat="58.056166023015976" lon="-5.356389004737139">
        <ele>19.84</ele>
        <time>2023-08-24T14:43:22Z</time>
      </trkpt>
      <trkpt lat="58.056204998865724" lon="-5.356412976980209">
        <ele>19.359999999999999</ele>
        <time>2023-08-24T14:43:23Z</time>
      </trkpt>
      <trkpt lat="58.056257972493768" lon="-5.356443990021944">
        <ele>19.359999999999999</ele>
        <time>2023-08-24T14:43:24Z</time>
      </trkpt>
      <trkpt lat="58.056321004405618" lon="-5.356481960043311">
        <ele>19.359999999999999</ele>
        <time>2023-08-24T14:43:25Z</time>
      </trkpt>
      <trkpt lat="58.056479003280401" lon="-5.356577010825276">
        <ele>18.399999999999999</ele>
        <time>2023-08-24T14:43:27Z</time>
      </trkpt>
      <trkpt lat="58.056565001606941" lon="-5.35662897862494">
        <ele>18.399999999999999</ele>
        <time>2023-08-24T14:43:28Z</time>
      </trkpt>
      <trkpt lat="58.056667009368539" lon="-5.356755964457989">
        <ele>17.920000000000002</ele>
        <time>2023-08-24T14:43:29Z</time>
      </trkpt>
      <trkpt lat="58.056771028786898" lon="-5.356883034110069">
        <ele>17.920000000000002</ele>
        <time>2023-08-24T14:43:30Z</time>
      </trkpt>
      <trkpt lat="58.056878987699747" lon="-5.357016976922751">
        <ele>17.440000000000001</ele>
        <time>2023-08-24T14:43:31Z</time>
      </trkpt>
      <trkpt lat="58.056979989632964" lon="-5.357180004939437">
        <ele>16.960000000000001</ele>
        <time>2023-08-24T14:43:32Z</time>
      </trkpt>
      <trkpt lat="58.057072022929788" lon="-5.357362981885672">
        <ele>16.960000000000001</ele>
        <time>2023-08-24T14:43:33Z</time>
      </trkpt>
      <trkpt lat="58.05789303034544" lon="-5.359127959236503">
        <ele>15.52</ele>
        <time>2023-08-24T14:43:43Z</time>
      </trkpt>
      <trkpt lat="58.058210033923388" lon="-5.35987202078104">
        <ele>16.960000000000001</ele>
        <time>2023-08-24T14:43:48Z</time>
      </trkpt>
      <trkpt lat="58.05916003882885" lon="-5.361460978165269">
        <ele>19.359999999999999</ele>
        <time>2023-08-24T14:43:56Z</time>
      </trkpt>
      <trkpt lat="58.060283968225121" lon="-5.363570032641292">
        <ele>20.32</ele>
        <time>2023-08-24T14:44:06Z</time>
      </trkpt>
      <trkpt lat="58.061550976708531" lon="-5.366175966337323">
        <ele>17.440000000000001</ele>
        <time>2023-08-24T14:44:18Z</time>
      </trkpt>
      <trkpt lat="58.061636975035071" lon="-5.366391967982054">
        <ele>17.440000000000001</ele>
        <time>2023-08-24T14:44:19Z</time>
      </trkpt>
      <trkpt lat="58.061699001118541" lon="-5.366629008203745">
        <ele>17.440000000000001</ele>
        <time>2023-08-24T14:44:20Z</time>
      </trkpt>
      <trkpt lat="58.061749041080475" lon="-5.366905024275184">
        <ele>17.440000000000001</ele>
        <time>2023-08-24T14:44:21Z</time>
      </trkpt>
      <trkpt lat="58.062102003023028" lon="-5.368627002462745">
        <ele>17.440000000000001</ele>
        <time>2023-08-24T14:44:27Z</time>
      </trkpt>
      <trkpt lat="58.062329990789294" lon="-5.369539959356189">
        <ele>18.879999999999999</ele>
        <time>2023-08-24T14:44:33Z</time>
      </trkpt>
      <trkpt lat="58.062870958819985" lon="-5.371634010225534">
        <ele>21.77</ele>
        <time>2023-08-24T14:44:41Z</time>
      </trkpt>
      <trkpt lat="58.063491974025965" lon="-5.373907014727593">
        <ele>27.050000000000001</ele>
        <time>2023-08-24T14:44:50Z</time>
      </trkpt>
      <trkpt lat="58.064206028357148" lon="-5.376725010573864">
        <ele>29.940000000000001</ele>
        <time>2023-08-24T14:45:01Z</time>
      </trkpt>
      <trkpt lat="58.064401997253299" lon="-5.377381984144449">
        <ele>30.899999999999999</ele>
        <time>2023-08-24T14:45:04Z</time>
      </trkpt>
      <trkpt lat="58.064482966437936" lon="-5.377593040466309">
        <ele>30.899999999999999</ele>
        <time>2023-08-24T14:45:05Z</time>
      </trkpt>
      <trkpt lat="58.064577011391521" lon="-5.377764031291008">
        <ele>31.379999999999999</ele>
        <time>2023-08-24T14:45:06Z</time>
      </trkpt>
      <trkpt lat="58.065217975527048" lon="-5.379046965390444">
        <ele>34.740000000000002</ele>
        <time>2023-08-24T14:45:13Z</time>
      </trkpt>
      <trkpt lat="58.065921971574426" lon="-5.380888972431421">
        <ele>39.07</ele>
        <time>2023-08-24T14:45:23Z</time>
      </trkpt>
      <trkpt lat="58.066885974258184" lon="-5.383859016001225">
        <ele>44.359999999999999</ele>
        <time>2023-08-24T14:45:37Z</time>
      </trkpt>
      <trkpt lat="58.066998962312937" lon="-5.384542979300022">
        <ele>44.359999999999999</ele>
        <time>2023-08-24T14:45:40Z</time>
      </trkpt>
      <trkpt lat="58.067011032253504" lon="-5.38477398455143">
        <ele>44.359999999999999</ele>
        <time>2023-08-24T14:45:41Z</time>
      </trkpt>
      <trkpt lat="58.066992005333304" lon="-5.385013958439231">
        <ele>44.840000000000003</ele>
        <time>2023-08-24T14:45:42Z</time>
      </trkpt>
      <trkpt lat="58.066958980634809" lon="-5.385256027802825">
        <ele>45.32</ele>
        <time>2023-08-24T14:45:43Z</time>
      </trkpt>
      <trkpt lat="58.066926961764693" lon="-5.385497007519007">
        <ele>45.799999999999997</ele>
        <time>2023-08-24T14:45:44Z</time>
      </trkpt>
      <trkpt lat="58.066887985914946" lon="-5.385728012770414">
        <ele>46.280000000000001</ele>
        <time>2023-08-24T14:45:45Z</time>
      </trkpt>
      <trkpt lat="58.066734010353684" lon="-5.386432008817792">
        <ele>48.68</ele>
        <time>2023-08-24T14:45:50Z</time>
      </trkpt>
      <trkpt lat="58.066722024232149" lon="-5.386487999930978">
        <ele>50.130000000000003</ele>
        <time>2023-08-24T14:45:57Z</time>
      </trkpt>
      <trkpt lat="58.066706014797091" lon="-5.386561006307602">
        <ele>50.609999999999999</ele>
        <time>2023-08-24T14:45:58Z</time>
      </trkpt>
      <trkpt lat="58.06668103672564" lon="-5.386672988533974">
        <ele>51.57</ele>
        <time>2023-08-24T14:45:59Z</time>
      </trkpt>
      <trkpt lat="58.066432010382414" lon="-5.387810999527574">
        <ele>53.490000000000002</ele>
        <time>2023-08-24T14:46:05Z</time>
      </trkpt>
      <trkpt lat="58.066423963755369" lon="-5.388053990900517">
        <ele>53.969999999999999</ele>
        <time>2023-08-24T14:46:06Z</time>
      </trkpt>
      <trkpt lat="58.066437961533666" lon="-5.388299999758601">
        <ele>53.969999999999999</ele>
        <time>2023-08-24T14:46:07Z</time>
      </trkpt>
      <trkpt lat="58.066453970968723" lon="-5.38855598308146">
        <ele>54.450000000000003</ele>
        <time>2023-08-24T14:46:08Z</time>
      </trkpt>
      <trkpt lat="58.0664689745754" lon="-5.38881397806108">
        <ele>54.93</ele>
        <time>2023-08-24T14:46:09Z</time>
      </trkpt>
      <trkpt lat="58.066484984010458" lon="-5.389074990525842">
        <ele>55.409999999999997</ele>
        <time>2023-08-24T14:46:10Z</time>
      </trkpt>
      <trkpt lat="58.066572993993759" lon="-5.391054041683674">
        <ele>59.740000000000002</ele>
        <time>2023-08-24T14:46:19Z</time>
      </trkpt>
      <trkpt lat="58.066563019528985" lon="-5.391299966722727">
        <ele>60.700000000000003</ele>
        <time>2023-08-24T14:46:23Z</time>
      </trkpt>
      <trkpt lat="58.066560002043843" lon="-5.391394011676312">
        <ele>61.18</ele>
        <time>2023-08-24T14:46:26Z</time>
      </trkpt>
      <trkpt lat="58.066523037850857" lon="-5.392290037125349">
        <ele>63.579999999999998</ele>
        <time>2023-08-24T14:46:32Z</time>
      </trkpt>
      <trkpt lat="58.066310975700617" lon="-5.394417028874159">
        <ele>68.390000000000001</ele>
        <time>2023-08-24T14:46:41Z</time>
      </trkpt>
      <trkpt lat="58.065962959080935" lon="-5.397869031876326">
        <ele>72.719999999999999</ele>
        <time>2023-08-24T14:46:53Z</time>
      </trkpt>
      <trkpt lat="58.065507989376783" lon="-5.402372963726521">
        <ele>77.519999999999996</ele>
        <time>2023-08-24T14:47:07Z</time>
      </trkpt>
      <trkpt lat="58.065085038542747" lon="-5.405617011711001">
        <ele>82.810000000000002</ele>
        <time>2023-08-24T14:47:17Z</time>
      </trkpt>
      <trkpt lat="58.06506902910769" lon="-5.405881041660905">
        <ele>83.290000000000006</ele>
        <time>2023-08-24T14:47:18Z</time>
      </trkpt>
      <trkpt lat="58.065082021057606" lon="-5.4061299841851">
        <ele>83.769999999999996</ele>
        <time>2023-08-24T14:47:19Z</time>
      </trkpt>
      <trkpt lat="58.065128037706017" lon="-5.406354032456875">
        <ele>84.25</ele>
        <time>2023-08-24T14:47:20Z</time>
      </trkpt>
      <trkpt lat="58.065174976363778" lon="-5.406572967767716">
        <ele>84.730000000000004</ele>
        <time>2023-08-24T14:47:21Z</time>
      </trkpt>
      <trkpt lat="58.065219987183809" lon="-5.40677497163415">
        <ele>85.209999999999994</ele>
        <time>2023-08-24T14:47:22Z</time>
      </trkpt>
      <trkpt lat="58.065246976912022" lon="-5.406974041834474">
        <ele>86.180000000000007</ele>
        <time>2023-08-24T14:47:23Z</time>
      </trkpt>
      <trkpt lat="58.065267009660602" lon="-5.407170010730624">
        <ele>87.140000000000001</ele>
        <time>2023-08-24T14:47:24Z</time>
      </trkpt>
      <trkpt lat="58.065260974690318" lon="-5.407385006546974">
        <ele>87.620000000000005</ele>
        <time>2023-08-24T14:47:25Z</time>
      </trkpt>
      <trkpt lat="58.065231973305345" lon="-5.407602014020085">
        <ele>88.579999999999998</ele>
        <time>2023-08-24T14:47:26Z</time>
      </trkpt>
      <trkpt lat="58.06520196609199" lon="-5.407831007614732">
        <ele>89.060000000000002</ele>
        <time>2023-08-24T14:47:27Z</time>
      </trkpt>
      <trkpt lat="58.065170031040907" lon="-5.408072993159294">
        <ele>89.060000000000002</ele>
        <time>2023-08-24T14:47:28Z</time>
      </trkpt>
      <trkpt lat="58.065142035484314" lon="-5.408322019502521">
        <ele>89.540000000000006</ele>
        <time>2023-08-24T14:47:29Z</time>
      </trkpt>
      <trkpt lat="58.065123008564115" lon="-5.408582026138902">
        <ele>89.540000000000006</ele>
        <time>2023-08-24T14:47:30Z</time>
      </trkpt>
      <trkpt lat="58.065104987472296" lon="-5.408834991976619">
        <ele>89.540000000000006</ele>
        <time>2023-08-24T14:47:31Z</time>
      </trkpt>
      <trkpt lat="58.06515603326261" lon="-5.409073038026691">
        <ele>90.019999999999996</ele>
        <time>2023-08-24T14:47:32Z</time>
      </trkpt>
      <trkpt lat="58.065205989405513" lon="-5.40930999442935">
        <ele>90.019999999999996</ele>
        <time>2023-08-24T14:47:33Z</time>
      </trkpt>
      <trkpt lat="58.065257035195827" lon="-5.409551979973912">
        <ele>90.5</ele>
        <time>2023-08-24T14:47:34Z</time>
      </trkpt>
      <trkpt lat="58.065309002995491" lon="-5.409794971346855">
        <ele>90.980000000000004</ele>
        <time>2023-08-24T14:47:35Z</time>
      </trkpt>
      <trkpt lat="58.065505977720022" lon="-5.410725027322769">
        <ele>92.900000000000006</ele>
        <time>2023-08-24T14:47:39Z</time>
      </trkpt>
      <trkpt lat="58.065548976883292" lon="-5.410927031189203">
        <ele>93.390000000000001</ele>
        <time>2023-08-24T14:47:40Z</time>
      </trkpt>
      <trkpt lat="58.06554302573204" lon="-5.411144038662314">
        <ele>93.870000000000005</ele>
        <time>2023-08-24T14:47:41Z</time>
      </trkpt>
      <trkpt lat="58.065517963841558" lon="-5.411347970366478">
        <ele>94.349999999999994</ele>
        <time>2023-08-24T14:47:42Z</time>
      </trkpt>
      <trkpt lat="58.065480999648571" lon="-5.41154402308166">
        <ele>94.829999999999998</ele>
        <time>2023-08-24T14:47:43Z</time>
      </trkpt>
      <trkpt lat="58.065446969121695" lon="-5.411724988371134">
        <ele>95.790000000000006</ele>
        <time>2023-08-24T14:47:44Z</time>
      </trkpt>
      <trkpt lat="58.065314032137394" lon="-5.412346003577113">
        <ele>100.11</ele>
        <time>2023-08-24T14:47:48Z</time>
      </trkpt>
      <trkpt lat="58.065245971083641" lon="-5.412487993016839">
        <ele>100.59999999999999</ele>
        <time>2023-08-24T14:47:49Z</time>
      </trkpt>
      <trkpt lat="58.065171036869287" lon="-5.412642974406481">
        <ele>101.56</ele>
        <time>2023-08-24T14:47:50Z</time>
      </trkpt>
      <trkpt lat="58.064895020797849" lon="-5.413085035979748">
        <ele>103</ele>
        <time>2023-08-24T14:47:53Z</time>
      </trkpt>
      <trkpt lat="58.064784966409206" lon="-5.413227025419474">
        <ele>103.48</ele>
        <time>2023-08-24T14:47:54Z</time>
      </trkpt>
      <trkpt lat="58.064294038340449" lon="-5.413860026746988">
        <ele>102.52</ele>
        <time>2023-08-24T14:47:58Z</time>
      </trkpt>
      <trkpt lat="58.064188007265329" lon="-5.414070999249816">
        <ele>102.04000000000001</ele>
        <time>2023-08-24T14:47:59Z</time>
      </trkpt>
      <trkpt lat="58.064094968140125" lon="-5.414308039471507">
        <ele>102.04000000000001</ele>
        <time>2023-08-24T14:48:00Z</time>
      </trkpt>
      <trkpt lat="58.064005030319095" lon="-5.414547007530928">
        <ele>101.56</ele>
        <time>2023-08-24T14:48:01Z</time>
      </trkpt>
      <trkpt lat="58.063938980922103" lon="-5.414808019995689">
        <ele>101.08</ele>
        <time>2023-08-24T14:48:02Z</time>
      </trkpt>
      <trkpt lat="58.06380202062428" lon="-5.415292996913195">
        <ele>100.59999999999999</ele>
        <time>2023-08-24T14:48:04Z</time>
      </trkpt>
      <trkpt lat="58.063717028126121" lon="-5.415487037971616">
        <ele>100.11</ele>
        <time>2023-08-24T14:48:05Z</time>
      </trkpt>
      <trkpt lat="58.063618037849665" lon="-5.415618969127536">
        <ele>100.11</ele>
        <time>2023-08-24T14:48:06Z</time>
      </trkpt>
      <trkpt lat="58.063518041744828" lon="-5.415713014081121">
        <ele>100.11</ele>
        <time>2023-08-24T14:48:07Z</time>
      </trkpt>
      <trkpt lat="58.063426008448005" lon="-5.415799012407661">
        <ele>100.11</ele>
        <time>2023-08-24T14:48:08Z</time>
      </trkpt>
      <trkpt lat="58.062980007380247" lon="-5.416220035403967">
        <ele>96.75</ele>
        <time>2023-08-24T14:48:13Z</time>
      </trkpt>
      <trkpt lat="58.062899960204959" lon="-5.416329000145197">
        <ele>95.790000000000006</ele>
        <time>2023-08-24T14:48:14Z</time>
      </trkpt>
      <trkpt lat="58.062828965485096" lon="-5.416460009291768">
        <ele>94.829999999999998</ele>
        <time>2023-08-24T14:48:15Z</time>
      </trkpt>
      <trkpt lat="58.062418000772595" lon="-5.417231982573867">
        <ele>91.459999999999994</ele>
        <time>2023-08-24T14:48:21Z</time>
      </trkpt>
      <trkpt lat="58.062382964417338" lon="-5.417414037510753">
        <ele>90.5</ele>
        <time>2023-08-24T14:48:22Z</time>
      </trkpt>
      <trkpt lat="58.062343988567591" lon="-5.417614029720426">
        <ele>89.540000000000006</ele>
        <time>2023-08-24T14:48:23Z</time>
      </trkpt>
      <trkpt lat="58.062315993010998" lon="-5.417829025536776">
        <ele>89.060000000000002</ele>
        <time>2023-08-24T14:48:24Z</time>
      </trkpt>
      <trkpt lat="58.062315993010998" lon="-5.418064976111054">
        <ele>88.099999999999994</ele>
        <time>2023-08-24T14:48:25Z</time>
      </trkpt>
      <trkpt lat="58.062315993010998" lon="-5.418315008282661">
        <ele>86.659999999999997</ele>
        <time>2023-08-24T14:48:26Z</time>
      </trkpt>
      <trkpt lat="58.062315993010998" lon="-5.418565962463617">
        <ele>85.689999999999998</ele>
        <time>2023-08-24T14:48:27Z</time>
      </trkpt>
      <trkpt lat="58.062279028818011" lon="-5.41958000510931">
        <ele>79.930000000000007</ele>
        <time>2023-08-24T14:48:31Z</time>
      </trkpt>
      <trkpt lat="58.06189295835793" lon="-5.421604989096522">
        <ele>69.829999999999998</ele>
        <time>2023-08-24T14:48:40Z</time>
      </trkpt>
      <trkpt lat="58.061236990615726" lon="-5.423559984192252">
        <ele>58.780000000000001</ele>
        <time>2023-08-24T14:48:49Z</time>
      </trkpt>
      <trkpt lat="58.060993999242783" lon="-5.4241550154984">
        <ele>54.450000000000003</ele>
        <time>2023-08-24T14:48:52Z</time>
      </trkpt>
      <trkpt lat="58.060512961819768" lon="-5.425743972882628">
        <ele>45.799999999999997</ele>
        <time>2023-08-24T14:49:00Z</time>
      </trkpt>
      <trkpt lat="58.060423023998737" lon="-5.425846986472607">
        <ele>44.840000000000003</ele>
        <time>2023-08-24T14:49:01Z</time>
      </trkpt>
      <trkpt lat="58.060350017622113" lon="-5.425929967314005">
        <ele>43.880000000000003</ele>
        <time>2023-08-24T14:49:02Z</time>
      </trkpt>
      <trkpt lat="58.060272987931967" lon="-5.426018983125687">
        <ele>42.439999999999998</ele>
        <time>2023-08-24T14:49:03Z</time>
      </trkpt>
      <trkpt lat="58.060187995433807" lon="-5.426095006987453">
        <ele>41.469999999999999</ele>
        <time>2023-08-24T14:49:04Z</time>
      </trkpt>
      <trkpt lat="58.060008035972714" lon="-5.426148986443877">
        <ele>39.07</ele>
        <time>2023-08-24T14:49:06Z</time>
      </trkpt>
      <trkpt lat="58.0599379632622" lon="-5.426117973402143">
        <ele>37.630000000000003</ele>
        <time>2023-08-24T14:49:07Z</time>
      </trkpt>
      <trkpt lat="58.059863029047847" lon="-5.426076985895634">
        <ele>36.189999999999998</ele>
        <time>2023-08-24T14:49:08Z</time>
      </trkpt>
      <trkpt lat="58.059799997135997" lon="-5.426037004217506">
        <ele>34.740000000000002</ele>
        <time>2023-08-24T14:49:09Z</time>
      </trkpt>
      <trkpt lat="58.059748029336333" lon="-5.425967015326023">
        <ele>33.780000000000001</ele>
        <time>2023-08-24T14:49:10Z</time>
      </trkpt>
      <trkpt lat="58.059708969667554" lon="-5.425913035869598">
        <ele>32.340000000000003</ele>
        <time>2023-08-24T14:49:11Z</time>
      </trkpt>
      <trkpt lat="58.059617020189762" lon="-5.425786972045898">
        <ele>28.5</ele>
        <time>2023-08-24T14:49:14Z</time>
      </trkpt>
      <trkpt lat="58.059580978006124" lon="-5.425739027559757">
        <ele>27.530000000000001</ele>
        <time>2023-08-24T14:49:15Z</time>
      </trkpt>
      <trkpt lat="58.059552982449532" lon="-5.425684964284301">
        <ele>26.57</ele>
        <time>2023-08-24T14:49:16Z</time>
      </trkpt>
      <trkpt lat="58.059518029913306" lon="-5.425603995099664">
        <ele>25.609999999999999</ele>
        <time>2023-08-24T14:49:17Z</time>
      </trkpt>
      <trkpt lat="58.059478970244527" lon="-5.425514979287982">
        <ele>24.649999999999999</ele>
        <time>2023-08-24T14:49:18Z</time>
      </trkpt>
      <trkpt lat="58.059193985536695" lon="-5.424851970747113">
        <ele>17.440000000000001</ele>
        <time>2023-08-24T14:49:26Z</time>
      </trkpt>
      <trkpt lat="58.058999022468925" lon="-5.424400018528104">
        <ele>13.6</ele>
        <time>2023-08-24T14:49:31Z</time>
      </trkpt>
      <trkpt lat="58.058645976707339" lon="-5.423282040283084">
        <ele>12.15</ele>
        <time>2023-08-24T14:49:38Z</time>
      </trkpt>
      <trkpt lat="58.05860398337245" lon="-5.423080958425999">
        <ele>11.67</ele>
        <time>2023-08-24T14:49:39Z</time>
      </trkpt>
      <trkpt lat="58.058502981439233" lon="-5.422463966533542">
        <ele>11.67</ele>
        <time>2023-08-24T14:49:42Z</time>
      </trkpt>
      <trkpt lat="58.058464005589485" lon="-5.422255005687475">
        <ele>11.67</ele>
        <time>2023-08-24T14:49:43Z</time>
      </trkpt>
      <trkpt lat="58.057827986776829" lon="-5.420238990336657">
        <ele>15.52</ele>
        <time>2023-08-24T14:49:54Z</time>
      </trkpt>
      <trkpt lat="58.057706030085683" lon="-5.41987999342382">
        <ele>16</ele>
        <time>2023-08-24T14:49:56Z</time>
      </trkpt>
      <trkpt lat="58.057619025930762" lon="-5.419746972620487">
        <ele>16</ele>
        <time>2023-08-24T14:49:57Z</time>
      </trkpt>
      <trkpt lat="58.057530010119081" lon="-5.419610012322664">
        <ele>15.52</ele>
        <time>2023-08-24T14:49:58Z</time>
      </trkpt>
      <trkpt lat="58.057348961010575" lon="-5.419378001242876">
        <ele>15.52</ele>
        <time>2023-08-24T14:50:00Z</time>
      </trkpt>
      <trkpt lat="58.057256005704403" lon="-5.41927901096642">
        <ele>15.52</ele>
        <time>2023-08-24T14:50:01Z</time>
      </trkpt>
      <trkpt lat="58.05660598911345" lon="-5.418575014919043">
        <ele>18.399999999999999</ele>
        <time>2023-08-24T14:50:09Z</time>
      </trkpt>
      <trkpt lat="58.056466011330485" lon="-5.418378040194511">
        <ele>18.879999999999999</ele>
        <time>2023-08-24T14:50:11Z</time>
      </trkpt>
      <trkpt lat="58.056405996903777" lon="-5.41824703104794">
        <ele>19.359999999999999</ele>
        <time>2023-08-24T14:50:12Z</time>
      </trkpt>
      <trkpt lat="58.056340031325817" lon="-5.418106969445944">
        <ele>19.84</ele>
        <time>2023-08-24T14:50:13Z</time>
      </trkpt>
      <trkpt lat="58.056271970272064" lon="-5.417960034683347">
        <ele>20.32</ele>
        <time>2023-08-24T14:50:14Z</time>
      </trkpt>
      <trkpt lat="58.056209022179246" lon="-5.417823996394873">
        <ele>20.809999999999999</ele>
        <time>2023-08-24T14:50:15Z</time>
      </trkpt>
      <trkpt lat="58.056100979447365" lon="-5.417654011398554">
        <ele>21.289999999999999</ele>
        <time>2023-08-24T14:50:20Z</time>
      </trkpt>
      <trkpt lat="58.056068038567901" lon="-5.417602965608239">
        <ele>20.809999999999999</ele>
        <time>2023-08-24T14:50:23Z</time>
      </trkpt>
      <trkpt lat="58.055990003049374" lon="-5.417484026402235">
        <ele>20.809999999999999</ele>
        <time>2023-08-24T14:50:25Z</time>
      </trkpt>
      <trkpt lat="58.055936023592949" lon="-5.417401967570186">
        <ele>20.809999999999999</ele>
        <time>2023-08-24T14:50:26Z</time>
      </trkpt>
      <trkpt lat="58.05583200417459" lon="-5.417242962867022">
        <ele>20.32</ele>
        <time>2023-08-24T14:50:31Z</time>
      </trkpt>
      <trkpt lat="58.055662019178271" lon="-5.416825963184238">
        <ele>19.359999999999999</ele>
        <time>2023-08-24T14:50:41Z</time>
      </trkpt>
      <trkpt lat="58.055202020332217" lon="-5.415405984967947">
        <ele>21.77</ele>
        <time>2023-08-24T14:50:49Z</time>
      </trkpt>
      <trkpt lat="58.055012002587318" lon="-5.414575003087521">
        <ele>22.73</ele>
        <time>2023-08-24T14:50:53Z</time>
      </trkpt>
      <trkpt lat="58.05465099401772" lon="-5.411946019157767">
        <ele>30.899999999999999</ele>
        <time>2023-08-24T14:51:05Z</time>
      </trkpt>
      <trkpt lat="58.054506992921233" lon="-5.411401027813554">
        <ele>32.82</ele>
        <time>2023-08-24T14:51:10Z</time>
      </trkpt>
      <trkpt lat="58.054210022091866" lon="-5.410474995151162">
        <ele>36.189999999999998</ele>
        <time>2023-08-24T14:51:18Z</time>
      </trkpt>
      <trkpt lat="58.053685985505581" lon="-5.409050993621349">
        <ele>37.149999999999999</ele>
        <time>2023-08-24T14:51:27Z</time>
      </trkpt>
      <trkpt lat="58.053663019090891" lon="-5.408898023888469">
        <ele>37.149999999999999</ele>
        <time>2023-08-24T14:51:28Z</time>
      </trkpt>
      <trkpt lat="58.05364097468555" lon="-5.408753016963601">
        <ele>36.670000000000002</ele>
        <time>2023-08-24T14:51:29Z</time>
      </trkpt>
      <trkpt lat="58.053620019927621" lon="-5.408615972846746">
        <ele>36.189999999999998</ele>
        <time>2023-08-24T14:51:30Z</time>
      </trkpt>
      <trkpt lat="58.053604010492563" lon="-5.408484963700175">
        <ele>36.189999999999998</ele>
        <time>2023-08-24T14:51:31Z</time>
      </trkpt>
      <trkpt lat="58.053604010492563" lon="-5.40834398008883">
        <ele>35.710000000000001</ele>
        <time>2023-08-24T14:51:32Z</time>
      </trkpt>
      <trkpt lat="58.053604010492563" lon="-5.408193022012711">
        <ele>35.710000000000001</ele>
        <time>2023-08-24T14:51:33Z</time>
      </trkpt>
      <trkpt lat="58.053604010492563" lon="-5.408037034794688">
        <ele>35.229999999999997</ele>
        <time>2023-08-24T14:51:34Z</time>
      </trkpt>
      <trkpt lat="58.053568974137306" lon="-5.406804978847504">
        <ele>32.82</ele>
        <time>2023-08-24T14:51:42Z</time>
      </trkpt>
      <trkpt lat="58.053528992459178" lon="-5.406690984964371">
        <ele>32.82</ele>
        <time>2023-08-24T14:51:43Z</time>
      </trkpt>
      <trkpt lat="58.053488004952669" lon="-5.406572967767716">
        <ele>32.82</ele>
        <time>2023-08-24T14:51:44Z</time>
      </trkpt>
      <trkpt lat="58.053445005789399" lon="-5.406465008854866">
        <ele>32.82</ele>
        <time>2023-08-24T14:51:45Z</time>
      </trkpt>
      <trkpt lat="58.053389014676213" lon="-5.406394014135003">
        <ele>32.82</ele>
        <time>2023-08-24T14:51:46Z</time>
      </trkpt>
      <trkpt lat="58.053341992199421" lon="-5.406336011365056">
        <ele>33.299999999999997</ele>
        <time>2023-08-24T14:51:47Z</time>
      </trkpt>
      <trkpt lat="58.053281977772713" lon="-5.406260993331671">
        <ele>33.299999999999997</ele>
        <time>2023-08-24T14:51:48Z</time>
      </trkpt>
      <trkpt lat="58.053268985822797" lon="-5.406255964189768">
        <ele>33.780000000000001</ele>
        <time>2023-08-24T14:51:49Z</time>
      </trkpt>
      <trkpt lat="58.053281977772713" lon="-5.406260993331671">
        <ele>33.780000000000001</ele>
        <time>2023-08-24T14:51:51Z</time>
      </trkpt>
      <trkpt lat="58.053283989429474" lon="-5.406245989724994">
        <ele>33.780000000000001</ele>
        <time>2023-08-24T14:51:52Z</time>
      </trkpt>
      <trkpt lat="58.053289018571377" lon="-5.406212965026498">
        <ele>33.780000000000001</ele>
        <time>2023-08-24T14:51:53Z</time>
      </trkpt>
      <trkpt lat="58.053293963894248" lon="-5.406182035803795">
        <ele>33.780000000000001</ele>
        <time>2023-08-24T14:51:54Z</time>
      </trkpt>
      <trkpt lat="58.053295975551009" lon="-5.406166026368737">
        <ele>33.780000000000001</ele>
        <time>2023-08-24T14:51:55Z</time>
      </trkpt>
      <trkpt lat="58.053281977772713" lon="-5.406260993331671">
        <ele>33.780000000000001</ele>
        <time>2023-08-24T14:51:57Z</time>
      </trkpt>
      <trkpt lat="58.053299998864532" lon="-5.406283037737012">
        <ele>33.299999999999997</ele>
        <time>2023-08-24T14:51:58Z</time>
      </trkpt>
      <trkpt lat="58.053342998027802" lon="-5.406336011365056">
        <ele>33.299999999999997</ele>
        <time>2023-08-24T14:51:59Z</time>
      </trkpt>
      <trkpt lat="58.053397983312607" lon="-5.406406000256538">
        <ele>33.299999999999997</ele>
        <time>2023-08-24T14:52:00Z</time>
      </trkpt>
      <trkpt lat="58.053513988852501" lon="-5.406647985801101">
        <ele>32.82</ele>
        <time>2023-08-24T14:52:02Z</time>
      </trkpt>
      <trkpt lat="58.053565034642816" lon="-5.406793998554349">
        <ele>32.82</ele>
        <time>2023-08-24T14:52:03Z</time>
      </trkpt>
      <trkpt lat="58.053604010492563" lon="-5.406983010470867">
        <ele>32.82</ele>
        <time>2023-08-24T14:52:04Z</time>
      </trkpt>
      <trkpt lat="58.053604010492563" lon="-5.407166993245482">
        <ele>32.82</ele>
        <time>2023-08-24T14:52:05Z</time>
      </trkpt>
      <trkpt lat="58.053604010492563" lon="-5.407356005162001">
        <ele>32.82</ele>
        <time>2023-08-24T14:52:06Z</time>
      </trkpt>
      <trkpt lat="58.053682968020439" lon="-5.40902903303504">
        <ele>32.340000000000003</ele>
        <time>2023-08-24T14:52:15Z</time>
      </trkpt>
      <trkpt lat="58.053719010204077" lon="-5.409189965575934">
        <ele>32.340000000000003</ele>
        <time>2023-08-24T14:52:16Z</time>
      </trkpt>
      <trkpt lat="58.053845996037126" lon="-5.409587016329169">
        <ele>32.340000000000003</ele>
        <time>2023-08-24T14:52:19Z</time>
      </trkpt>
      <trkpt lat="58.053879020735621" lon="-5.409667985513806">
        <ele>32.340000000000003</ele>
        <time>2023-08-24T14:52:20Z</time>
      </trkpt>
      <trkpt lat="58.053901987150311" lon="-5.409721964970231">
        <ele>32.340000000000003</ele>
        <time>2023-08-24T14:52:21Z</time>
      </trkpt>
      <trkpt lat="58.053914979100227" lon="-5.409755995497108">
        <ele>32.340000000000003</ele>
        <time>2023-08-24T14:52:22Z</time>
      </trkpt>
      <trkpt lat="58.053793022409081" lon="-5.4099549818784">
        <ele>32.82</ele>
        <time>2023-08-24T14:52:24Z</time>
      </trkpt>
      <trkpt lat="58.053463026881218" lon="-5.410612039268017">
        <ele>26.09</ele>
        <time>2023-08-24T14:52:35Z</time>
      </trkpt>
      <trkpt lat="58.053464032709599" lon="-5.410623019561172">
        <ele>25.609999999999999</ele>
        <time>2023-08-24T14:52:48Z</time>
      </trkpt>
      <trkpt lat="58.05340401828289" lon="-5.410690996795893">
        <ele>22.73</ele>
        <time>2023-08-24T14:52:59Z</time>
      </trkpt>
      <trkpt lat="58.05340401828289" lon="-5.410690996795893">
        <ele>22.73</ele>
        <time>2023-08-24T14:53:03Z</time>
      </trkpt>
      <trkpt lat="58.053411981090903" lon="-5.411290973424912">
        <ele>21.289999999999999</ele>
        <time>2023-08-24T14:53:12Z</time>
      </trkpt>
      <trkpt lat="58.053376022726297" lon="-5.411403039470315">
        <ele>20.32</ele>
        <time>2023-08-24T14:53:14Z</time>
      </trkpt>
      <trkpt lat="58.053237972781062" lon="-5.411423994228244">
        <ele>18.879999999999999</ele>
        <time>2023-08-24T14:53:18Z</time>
      </trkpt>
      <trkpt lat="58.052934966981411" lon="-5.411197012290359">
        <ele>14.56</ele>
        <time>2023-08-24T14:53:30Z</time>
      </trkpt>
      <trkpt lat="58.052881993353367" lon="-5.411102967336774">
        <ele>12.15</ele>
        <time>2023-08-24T14:53:41Z</time>
      </trkpt>
      <trkpt lat="58.052881993353367" lon="-5.411102967336774">
        <ele>12.15</ele>
        <time>2023-08-24T14:53:58Z</time>
      </trkpt>
      <trkpt lat="58.052948964759707" lon="-5.411125011742115">
        <ele>11.19</ele>
        <time>2023-08-24T14:54:02Z</time>
      </trkpt>
      <trkpt lat="58.053077040240169" lon="-5.411337995901704">
        <ele>10.23</ele>
        <time>2023-08-24T14:54:06Z</time>
      </trkpt>
      <trkpt lat="58.053409969434142" lon="-5.411287033930421">
        <ele>10.23</ele>
        <time>2023-08-24T14:54:13Z</time>
      </trkpt>
      <trkpt lat="58.05346897803247" lon="-5.410788981243968">
        <ele>11.19</ele>
        <time>2023-08-24T14:54:17Z</time>
      </trkpt>
      <trkpt lat="58.053612979128957" lon="-5.410328982397914">
        <ele>15.039999999999999</ele>
        <time>2023-08-24T14:54:21Z</time>
      </trkpt>
      <trkpt lat="58.053738037124276" lon="-5.410067969933152">
        <ele>18.879999999999999</ele>
        <time>2023-08-24T14:54:24Z</time>
      </trkpt>
      <trkpt lat="58.05394004099071" lon="-5.409816009923816">
        <ele>22.25</ele>
        <time>2023-08-24T14:54:27Z</time>
      </trkpt>
      <trkpt lat="58.05396200157702" lon="-5.40986998938024">
        <ele>23.690000000000001</ele>
        <time>2023-08-24T14:54:28Z</time>
      </trkpt>
      <trkpt lat="58.053994020447135" lon="-5.409948024898768">
        <ele>25.609999999999999</ele>
        <time>2023-08-24T14:54:29Z</time>
      </trkpt>
      <trkpt lat="58.054036013782024" lon="-5.410051038488746">
        <ele>26.57</ele>
        <time>2023-08-24T14:54:30Z</time>
      </trkpt>
      <trkpt lat="58.054149001836777" lon="-5.410326970741153">
        <ele>28.5</ele>
        <time>2023-08-24T14:54:32Z</time>
      </trkpt>
      <trkpt lat="58.05422100238502" lon="-5.410502990707755">
        <ele>29.940000000000001</ele>
        <time>2023-08-24T14:54:33Z</time>
      </trkpt>
      <trkpt lat="58.054296020418406" lon="-5.41068403981626">
        <ele>30.899999999999999</ele>
        <time>2023-08-24T14:54:34Z</time>
      </trkpt>
      <trkpt lat="58.054677983745933" lon="-5.412114998325706">
        <ele>35.710000000000001</ele>
        <time>2023-08-24T14:54:42Z</time>
      </trkpt>
      <trkpt lat="58.054745960980654" lon="-5.412539038807154">
        <ele>36.189999999999998</ele>
        <time>2023-08-24T14:54:44Z</time>
      </trkpt>
      <trkpt lat="58.05477898567915" lon="-5.41274799965322">
        <ele>35.710000000000001</ele>
        <time>2023-08-24T14:54:45Z</time>
      </trkpt>
      <trkpt lat="58.055051984265447" lon="-5.414781030267477">
        <ele>33.299999999999997</ele>
        <time>2023-08-24T14:54:55Z</time>
      </trkpt>
      <trkpt lat="58.055095989257097" lon="-5.414965013042092">
        <ele>32.82</ele>
        <time>2023-08-24T14:54:56Z</time>
      </trkpt>
      <trkpt lat="58.055349038913846" lon="-5.415972014889121">
        <ele>30.420000000000002</ele>
        <time>2023-08-24T14:55:01Z</time>
      </trkpt>
      <trkpt lat="58.055758997797966" lon="-5.417089993134141">
        <ele>30.420000000000002</ele>
        <time>2023-08-24T14:55:07Z</time>
      </trkpt>
      <trkpt lat="58.055833010002971" lon="-5.417243968695402">
        <ele>30.420000000000002</ele>
        <time>2023-08-24T14:55:08Z</time>
      </trkpt>
      <trkpt lat="58.05591800250113" lon="-5.417373972013593">
        <ele>30.899999999999999</ele>
        <time>2023-08-24T14:55:09Z</time>
      </trkpt>
      <trkpt lat="58.056407002732158" lon="-5.41824996471405">
        <ele>29.460000000000001</ele>
        <time>2023-08-24T14:55:15Z</time>
      </trkpt>
      <trkpt lat="58.056581011041999" lon="-5.418540984392166">
        <ele>28.98</ele>
        <time>2023-08-24T14:55:17Z</time>
      </trkpt>
      <trkpt lat="58.057578038424253" lon="-5.419683018699288">
        <ele>24.170000000000002</ele>
        <time>2023-08-24T14:55:26Z</time>
      </trkpt>
      <trkpt lat="58.057670993730426" lon="-5.419826013967395">
        <ele>23.690000000000001</ele>
        <time>2023-08-24T14:55:27Z</time>
      </trkpt>
      <trkpt lat="58.057750035077333" lon="-5.41998996399343">
        <ele>23.690000000000001</ele>
        <time>2023-08-24T14:55:28Z</time>
      </trkpt>
      <trkpt lat="58.05780996568501" lon="-5.42018199339509">
        <ele>23.210000000000001</ele>
        <time>2023-08-24T14:55:29Z</time>
      </trkpt>
      <trkpt lat="58.057875009253621" lon="-5.420388020575047">
        <ele>22.73</ele>
        <time>2023-08-24T14:55:30Z</time>
      </trkpt>
      <trkpt lat="58.058533994480968" lon="-5.422651972621679">
        <ele>21.289999999999999</ele>
        <time>2023-08-24T14:55:40Z</time>
      </trkpt>
      <trkpt lat="58.058569030836225" lon="-5.42286797426641">
        <ele>20.809999999999999</ele>
        <time>2023-08-24T14:55:41Z</time>
      </trkpt>
      <trkpt lat="58.058713031932712" lon="-5.423497958108783">
        <ele>19.84</ele>
        <time>2023-08-24T14:55:44Z</time>
      </trkpt>
      <trkpt lat="58.059168001636863" lon="-5.424792040139437">
        <ele>21.289999999999999</ele>
        <time>2023-08-24T14:55:50Z</time>
      </trkpt>
      <trkpt lat="58.059775019064546" lon="-5.42600397951901">
        <ele>25.609999999999999</ele>
        <time>2023-08-24T14:55:57Z</time>
      </trkpt>
      <trkpt lat="58.05987199768424" lon="-5.426082015037537">
        <ele>26.57</ele>
        <time>2023-08-24T14:55:58Z</time>
      </trkpt>
      <trkpt lat="58.059961013495922" lon="-5.426130965352058">
        <ele>27.050000000000001</ele>
        <time>2023-08-24T14:55:59Z</time>
      </trkpt>
      <trkpt lat="58.060050029307604" lon="-5.426135994493961">
        <ele>28.02</ele>
        <time>2023-08-24T14:56:00Z</time>
      </trkpt>
      <trkpt lat="58.060147007927299" lon="-5.426106993108988">
        <ele>28.98</ele>
        <time>2023-08-24T14:56:01Z</time>
      </trkpt>
      <trkpt lat="58.060255972668529" lon="-5.426038010045886">
        <ele>29.940000000000001</ele>
        <time>2023-08-24T14:56:02Z</time>
      </trkpt>
      <trkpt lat="58.060446996241808" lon="-5.425819996744394">
        <ele>31.859999999999999</ele>
        <time>2023-08-24T14:56:04Z</time>
      </trkpt>
      <trkpt lat="58.060520002618432" lon="-5.425721006467938">
        <ele>32.82</ele>
        <time>2023-08-24T14:56:05Z</time>
      </trkpt>
      <trkpt lat="58.060566019266844" lon="-5.425568036735058">
        <ele>33.780000000000001</ele>
        <time>2023-08-24T14:56:06Z</time>
      </trkpt>
      <trkpt lat="58.061108998954296" lon="-5.423869024962187">
        <ele>42.439999999999998</ele>
        <time>2023-08-24T14:56:14Z</time>
      </trkpt>
      <trkpt lat="58.061643010005355" lon="-5.422490034252405">
        <ele>51.57</ele>
        <time>2023-08-24T14:56:21Z</time>
      </trkpt>
      <trkpt lat="58.0622139852494" lon="-5.42000899091363">
        <ele>64.549999999999997</ele>
        <time>2023-08-24T14:56:31Z</time>
      </trkpt>
      <trkpt lat="58.062315993010998" lon="-5.418996037915349">
        <ele>68.870000000000005</ele>
        <time>2023-08-24T14:56:35Z</time>
      </trkpt>
      <trkpt lat="58.062315993010998" lon="-5.418753968551755">
        <ele>70.310000000000002</ele>
        <time>2023-08-24T14:56:36Z</time>
      </trkpt>
      <trkpt lat="58.062355974689126" lon="-5.417550997808576">
        <ele>76.560000000000002</ele>
        <time>2023-08-24T14:56:41Z</time>
      </trkpt>
      <trkpt lat="58.062396962195635" lon="-5.417337007820606">
        <ele>78</ele>
        <time>2023-08-24T14:56:42Z</time>
      </trkpt>
      <trkpt lat="58.062452031299472" lon="-5.417150007560849">
        <ele>79.450000000000003</ele>
        <time>2023-08-24T14:56:43Z</time>
      </trkpt>
      <trkpt lat="58.06253400631249" lon="-5.417000977322459">
        <ele>80.890000000000001</ele>
        <time>2023-08-24T14:56:44Z</time>
      </trkpt>
      <trkpt lat="58.062617992982268" lon="-5.416845995932818">
        <ele>81.849999999999994</ele>
        <time>2023-08-24T14:56:45Z</time>
      </trkpt>
      <trkpt lat="58.062708014622331" lon="-5.41668196208775">
        <ele>82.810000000000002</ele>
        <time>2023-08-24T14:56:46Z</time>
      </trkpt>
      <trkpt lat="58.062897026538849" lon="-5.4163340292871">
        <ele>84.730000000000004</ele>
        <time>2023-08-24T14:56:48Z</time>
      </trkpt>
      <trkpt lat="58.063004985451698" lon="-5.416195979341865">
        <ele>85.689999999999998</ele>
        <time>2023-08-24T14:56:49Z</time>
      </trkpt>
      <trkpt lat="58.063127025961876" lon="-5.416080979630351">
        <ele>86.659999999999997</ele>
        <time>2023-08-24T14:56:50Z</time>
      </trkpt>
      <trkpt lat="58.063634969294071" lon="-5.415602959692478">
        <ele>90.980000000000004</ele>
        <time>2023-08-24T14:56:55Z</time>
      </trkpt>
      <trkpt lat="58.063730020076036" lon="-5.415458036586642">
        <ele>91.459999999999994</ele>
        <time>2023-08-24T14:56:56Z</time>
      </trkpt>
      <trkpt lat="58.063809983432293" lon="-5.415274975821376">
        <ele>91.939999999999998</ele>
        <time>2023-08-24T14:56:57Z</time>
      </trkpt>
      <trkpt lat="58.063877960667014" lon="-5.415052017197013">
        <ele>92.900000000000006</ele>
        <time>2023-08-24T14:56:58Z</time>
      </trkpt>
      <trkpt lat="58.063943004235625" lon="-5.414795028045774">
        <ele>93.390000000000001</ele>
        <time>2023-08-24T14:56:59Z</time>
      </trkpt>
      <trkpt lat="58.064206028357148" lon="-5.414023976773024">
        <ele>94.829999999999998</ele>
        <time>2023-08-24T14:57:02Z</time>
      </trkpt>
      <trkpt lat="58.064312981441617" lon="-5.413834964856505">
        <ele>95.310000000000002</ele>
        <time>2023-08-24T14:57:03Z</time>
      </trkpt>
      <trkpt lat="58.064432004466653" lon="-5.413681995123625">
        <ele>95.790000000000006</ele>
        <time>2023-08-24T14:57:04Z</time>
      </trkpt>
      <trkpt lat="58.064550021663308" lon="-5.413530031219125">
        <ele>96.269999999999996</ele>
        <time>2023-08-24T14:57:05Z</time>
      </trkpt>
      <trkpt lat="58.064668960869312" lon="-5.413376977667213">
        <ele>96.75</ele>
        <time>2023-08-24T14:57:06Z</time>
      </trkpt>
      <trkpt lat="58.065171958878636" lon="-5.41264096274972">
        <ele>98.670000000000002</ele>
        <time>2023-08-24T14:57:11Z</time>
      </trkpt>
      <trkpt lat="58.065256029367447" lon="-5.412467960268259">
        <ele>98.189999999999998</ele>
        <time>2023-08-24T14:57:12Z</time>
      </trkpt>
      <trkpt lat="58.065338004380465" lon="-5.41229797527194">
        <ele>98.189999999999998</ele>
        <time>2023-08-24T14:57:13Z</time>
      </trkpt>
      <trkpt lat="58.065381003543735" lon="-5.412076022475958">
        <ele>98.189999999999998</ele>
        <time>2023-08-24T14:57:14Z</time>
      </trkpt>
      <trkpt lat="58.065426014363766" lon="-5.411837976425886">
        <ele>97.709999999999994</ele>
        <time>2023-08-24T14:57:15Z</time>
      </trkpt>
      <trkpt lat="58.06554302573204" lon="-5.41113599203527">
        <ele>95.790000000000006</ele>
        <time>2023-08-24T14:57:18Z</time>
      </trkpt>
      <trkpt lat="58.065556017681956" lon="-5.410959972068667">
        <ele>95.310000000000002</ele>
        <time>2023-08-24T14:57:19Z</time>
      </trkpt>
      <trkpt lat="58.065512012690306" lon="-5.410754028707743">
        <ele>95.310000000000002</ele>
        <time>2023-08-24T14:57:20Z</time>
      </trkpt>
      <trkpt lat="58.065470019355416" lon="-5.41055697016418">
        <ele>94.829999999999998</ele>
        <time>2023-08-24T14:57:21Z</time>
      </trkpt>
      <trkpt lat="58.065425008535385" lon="-5.410343986004591">
        <ele>94.349999999999994</ele>
        <time>2023-08-24T14:57:22Z</time>
      </trkpt>
      <trkpt lat="58.06511202827096" lon="-5.408868016675115">
        <ele>91.459999999999994</ele>
        <time>2023-08-24T14:57:28Z</time>
      </trkpt>
      <trkpt lat="58.065119991078973" lon="-5.408623013645411">
        <ele>90.5</ele>
        <time>2023-08-24T14:57:29Z</time>
      </trkpt>
      <trkpt lat="58.065138012170792" lon="-5.408370969817042">
        <ele>89.540000000000006</ele>
        <time>2023-08-24T14:57:30Z</time>
      </trkpt>
      <trkpt lat="58.065163996070623" lon="-5.408115992322564">
        <ele>89.060000000000002</ele>
        <time>2023-08-24T14:57:31Z</time>
      </trkpt>
      <trkpt lat="58.065197020769119" lon="-5.407864032313228">
        <ele>88.579999999999998</ele>
        <time>2023-08-24T14:57:32Z</time>
      </trkpt>
      <trkpt lat="58.065258963033557" lon="-5.407400010153651">
        <ele>88.099999999999994</ele>
        <time>2023-08-24T14:57:34Z</time>
      </trkpt>
      <trkpt lat="58.065267009660602" lon="-5.407165987417102">
        <ele>87.620000000000005</ele>
        <time>2023-08-24T14:57:35Z</time>
      </trkpt>
      <trkpt lat="58.065243037417531" lon="-5.406930036842823">
        <ele>87.620000000000005</ele>
        <time>2023-08-24T14:57:36Z</time>
      </trkpt>
      <trkpt lat="58.06520196609199" lon="-5.406695008277893">
        <ele>87.140000000000001</ele>
        <time>2023-08-24T14:57:37Z</time>
      </trkpt>
      <trkpt lat="58.065148992463946" lon="-5.406453022733331">
        <ele>86.659999999999997</ele>
        <time>2023-08-24T14:57:38Z</time>
      </trkpt>
      <trkpt lat="58.065096018835902" lon="-5.406209025532007">
        <ele>86.180000000000007</ele>
        <time>2023-08-24T14:57:39Z</time>
      </trkpt>
      <trkpt lat="58.0650719627738" lon="-5.405948013067246">
        <ele>85.209999999999994</ele>
        <time>2023-08-24T14:57:40Z</time>
      </trkpt>
      <trkpt lat="58.065073974430561" lon="-5.405684988945723">
        <ele>84.25</ele>
        <time>2023-08-24T14:57:41Z</time>
      </trkpt>
      <trkpt lat="58.065114039927721" lon="-5.405420958995819">
        <ele>83.290000000000006</ele>
        <time>2023-08-24T14:57:42Z</time>
      </trkpt>
      <trkpt lat="58.06515502743423" lon="-5.405145026743412">
        <ele>82.810000000000002</ele>
        <time>2023-08-24T14:57:43Z</time>
      </trkpt>
      <trkpt lat="58.065548976883292" lon="-5.401968033984304">
        <ele>74.159999999999997</ele>
        <time>2023-08-24T14:57:53Z</time>
      </trkpt>
      <trkpt lat="58.066178038716316" lon="-5.395740028470755">
        <ele>63.100000000000001</ele>
        <time>2023-08-24T14:58:11Z</time>
      </trkpt>
      <trkpt lat="58.066576011478901" lon="-5.390996960923076">
        <ele>55.409999999999997</ele>
        <time>2023-08-24T14:58:25Z</time>
      </trkpt>
      <trkpt lat="58.066429998725653" lon="-5.388150969520211">
        <ele>50.130000000000003</ele>
        <time>2023-08-24T14:58:34Z</time>
      </trkpt>
      <trkpt lat="58.066413989290595" lon="-5.387892974540591">
        <ele>49.649999999999999</ele>
        <time>2023-08-24T14:58:35Z</time>
      </trkpt>
      <trkpt lat="58.066461011767387" lon="-5.387677978724241">
        <ele>49.159999999999997</ele>
        <time>2023-08-24T14:58:36Z</time>
      </trkpt>
      <trkpt lat="58.06698102504015" lon="-5.385099034756422">
        <ele>43.880000000000003</ele>
        <time>2023-08-24T14:58:46Z</time>
      </trkpt>
      <trkpt lat="58.067014971747994" lon="-5.384842967614532">
        <ele>43.399999999999999</ele>
        <time>2023-08-24T14:58:47Z</time>
      </trkpt>
      <trkpt lat="58.067001979798079" lon="-5.384595030918717">
        <ele>42.920000000000002</ele>
        <time>2023-08-24T14:58:48Z</time>
      </trkpt>
      <trkpt lat="58.066977001726627" lon="-5.384349022060633">
        <ele>42.439999999999998</ele>
        <time>2023-08-24T14:58:49Z</time>
      </trkpt>
      <trkpt lat="58.066931990906596" lon="-5.38410603068769">
        <ele>42.439999999999998</ele>
        <time>2023-08-24T14:58:50Z</time>
      </trkpt>
      <trkpt lat="58.066885974258184" lon="-5.383859016001225">
        <ele>42.439999999999998</ele>
        <time>2023-08-24T14:58:51Z</time>
      </trkpt>
      <trkpt lat="58.066826965659857" lon="-5.383617030456662">
        <ele>42.439999999999998</ele>
        <time>2023-08-24T14:58:52Z</time>
      </trkpt>
      <trkpt lat="58.066346012055874" lon="-5.382022960111499">
        <ele>41.950000000000003</ele>
        <time>2023-08-24T14:59:00Z</time>
      </trkpt>
      <trkpt lat="58.065750980749726" lon="-5.38043299689889">
        <ele>40.030000000000001</ele>
        <time>2023-08-24T14:59:10Z</time>
      </trkpt>
      <trkpt lat="58.064789995551109" lon="-5.378151023760438">
        <ele>34.259999999999998</ele>
        <time>2023-08-24T14:59:22Z</time>
      </trkpt>
      <trkpt lat="58.064358998090029" lon="-5.377257009968162">
        <ele>33.299999999999997</ele>
        <time>2023-08-24T14:59:27Z</time>
      </trkpt>
      <trkpt lat="58.064298983663321" lon="-5.377048971131444">
        <ele>33.299999999999997</ele>
        <time>2023-08-24T14:59:28Z</time>
      </trkpt>
      <trkpt lat="58.063748041167855" lon="-5.374995991587639">
        <ele>32.340000000000003</ele>
        <time>2023-08-24T14:59:36Z</time>
      </trkpt>
      <trkpt lat="58.062919992953539" lon="-5.371800977736712">
        <ele>26.57</ele>
        <time>2023-08-24T14:59:47Z</time>
      </trkpt>
      <trkpt lat="58.06193302385509" lon="-5.367923006415367">
        <ele>18.399999999999999</ele>
        <time>2023-08-24T15:00:00Z</time>
      </trkpt>
      <trkpt lat="58.061642004176974" lon="-5.36640303209424">
        <ele>15.52</ele>
        <time>2023-08-24T15:00:06Z</time>
      </trkpt>
      <trkpt lat="58.061549970880151" lon="-5.366173032671213">
        <ele>15.039999999999999</ele>
        <time>2023-08-24T15:00:07Z</time>
      </trkpt>
      <trkpt lat="58.061451986432076" lon="-5.36593004129827">
        <ele>14.56</ele>
        <time>2023-08-24T15:00:08Z</time>
      </trkpt>
      <trkpt lat="58.060049023479223" lon="-5.363101987168193">
        <ele>14.08</ele>
        <time>2023-08-24T15:00:20Z</time>
      </trkpt>
      <trkpt lat="58.058360991999507" lon="-5.360124986618757">
        <ele>11.19</ele>
        <time>2023-08-24T15:00:33Z</time>
      </trkpt>
      <trkpt lat="58.057720027863979" lon="-5.358681958168745">
        <ele>9.75</ele>
        <time>2023-08-24T15:00:40Z</time>
      </trkpt>
      <trkpt lat="58.057034974917769" lon="-5.357289975509048">
        <ele>6.87</ele>
        <time>2023-08-24T15:00:48Z</time>
      </trkpt>
      <trkpt lat="58.056635996326804" lon="-5.356715982779861">
        <ele>7.83</ele>
        <time>2023-08-24T15:00:52Z</time>
      </trkpt>
      <trkpt lat="58.056520996615291" lon="-5.356602994725108">
        <ele>8.310000000000001</ele>
        <time>2023-08-24T15:00:53Z</time>
      </trkpt>
      <trkpt lat="58.056401973590255" lon="-5.356530994176865">
        <ele>8.310000000000001</ele>
        <time>2023-08-24T15:00:54Z</time>
      </trkpt>
      <trkpt lat="58.055247031152248" lon="-5.356122041121125">
        <ele>10.710000000000001</ele>
        <time>2023-08-24T15:01:02Z</time>
      </trkpt>
      <trkpt lat="58.052869001403451" lon="-5.355455009266734">
        <ele>12.630000000000001</ele>
        <time>2023-08-24T15:01:16Z</time>
      </trkpt>
      <trkpt lat="58.051209971308708" lon="-5.354722011834383">
        <ele>14.08</ele>
        <time>2023-08-24T15:01:26Z</time>
      </trkpt>
      <trkpt lat="58.049396965652704" lon="-5.353904021903873">
        <ele>15.039999999999999</ele>
        <time>2023-08-24T15:01:37Z</time>
      </trkpt>
      <trkpt lat="58.047983022406697" lon="-5.354127986356616">
        <ele>19.359999999999999</ele>
        <time>2023-08-24T15:01:47Z</time>
      </trkpt>
      <trkpt lat="58.046332960948348" lon="-5.354667026549578">
        <ele>20.809999999999999</ele>
        <time>2023-08-24T15:02:00Z</time>
      </trkpt>
      <trkpt lat="58.045631982386112" lon="-5.3548420406878">
        <ele>21.77</ele>
        <time>2023-08-24T15:02:09Z</time>
      </trkpt>
      <trkpt lat="58.04519897326827" lon="-5.354756964370608">
        <ele>22.73</ele>
        <time>2023-08-24T15:02:17Z</time>
      </trkpt>
      <trkpt lat="58.044099016115069" lon="-5.354357985779643">
        <ele>23.210000000000001</ele>
        <time>2023-08-24T15:02:28Z</time>
      </trkpt>
      <trkpt lat="58.042804012075067" lon="-5.353562962263823">
        <ele>23.210000000000001</ele>
        <time>2023-08-24T15:02:39Z</time>
      </trkpt>
      <trkpt lat="58.041204996407032" lon="-5.352582028135657">
        <ele>21.77</ele>
        <time>2023-08-24T15:02:52Z</time>
      </trkpt>
      <trkpt lat="58.040051981806755" lon="-5.352066038176417">
        <ele>22.25</ele>
        <time>2023-08-24T15:03:01Z</time>
      </trkpt>
      <trkpt lat="58.038706015795469" lon="-5.351552981883287">
        <ele>20.32</ele>
        <time>2023-08-24T15:03:12Z</time>
      </trkpt>
      <trkpt lat="58.037405982613564" lon="-5.351360030472279">
        <ele>23.210000000000001</ele>
        <time>2023-08-24T15:03:23Z</time>
      </trkpt>
      <trkpt lat="58.035908974707127" lon="-5.351790022104979">
        <ele>25.129999999999999</ele>
        <time>2023-08-24T15:03:35Z</time>
      </trkpt>
      <trkpt lat="58.03445203229785" lon="-5.352959968149662">
        <ele>27.050000000000001</ele>
        <time>2023-08-24T15:03:48Z</time>
      </trkpt>
      <trkpt lat="58.033797992393374" lon="-5.353561034426093">
        <ele>27.050000000000001</ele>
        <time>2023-08-24T15:03:54Z</time>
      </trkpt>
      <trkpt lat="58.033712999895215" lon="-5.353721966966987">
        <ele>27.050000000000001</ele>
        <time>2023-08-24T15:03:55Z</time>
      </trkpt>
      <trkpt lat="58.033625995740294" lon="-5.353888012468815">
        <ele>26.57</ele>
        <time>2023-08-24T15:03:56Z</time>
      </trkpt>
      <trkpt lat="58.033549971878529" lon="-5.354068977758288">
        <ele>26.57</ele>
        <time>2023-08-24T15:03:57Z</time>
      </trkpt>
      <trkpt lat="58.033480988815427" lon="-5.354276010766625">
        <ele>27.050000000000001</ele>
        <time>2023-08-24T15:03:58Z</time>
      </trkpt>
      <trkpt lat="58.033413011580706" lon="-5.354481032118201">
        <ele>27.050000000000001</ele>
        <time>2023-08-24T15:03:59Z</time>
      </trkpt>
      <trkpt lat="58.03337998688221" lon="-5.354688987135887">
        <ele>27.050000000000001</ele>
        <time>2023-08-24T15:04:00Z</time>
      </trkpt>
      <trkpt lat="58.033344028517604" lon="-5.354913035407662">
        <ele>27.050000000000001</ele>
        <time>2023-08-24T15:04:01Z</time>
      </trkpt>
      <trkpt lat="58.033308992162347" lon="-5.355134988203645">
        <ele>27.530000000000001</ele>
        <time>2023-08-24T15:04:02Z</time>
      </trkpt>
      <trkpt lat="58.033283008262515" lon="-5.355342021211982">
        <ele>28.02</ele>
        <time>2023-08-24T15:04:03Z</time>
      </trkpt>
      <trkpt lat="58.033283008262515" lon="-5.355567997321487">
        <ele>28.02</ele>
        <time>2023-08-24T15:04:04Z</time>
      </trkpt>
      <trkpt lat="58.033334976062179" lon="-5.35826101899147">
        <ele>32.82</ele>
        <time>2023-08-24T15:04:16Z</time>
      </trkpt>
      <trkpt lat="58.033304968848825" lon="-5.360126998275518">
        <ele>35.710000000000001</ele>
        <time>2023-08-24T15:04:26Z</time>
      </trkpt>
      <trkpt lat="58.033231040462852" lon="-5.360356997698546">
        <ele>36.189999999999998</ele>
        <time>2023-08-24T15:04:27Z</time>
      </trkpt>
      <trkpt lat="58.033173959702253" lon="-5.360535029321909">
        <ele>36.189999999999998</ele>
        <time>2023-08-24T15:04:28Z</time>
      </trkpt>
      <trkpt lat="58.033116040751338" lon="-5.360712977126241">
        <ele>36.189999999999998</ele>
        <time>2023-08-24T15:04:29Z</time>
      </trkpt>
      <trkpt lat="58.033028030768037" lon="-5.3608169965446">
        <ele>36.189999999999998</ele>
        <time>2023-08-24T15:04:30Z</time>
      </trkpt>
      <trkpt lat="58.032923005521297" lon="-5.360929984599352">
        <ele>36.189999999999998</ele>
        <time>2023-08-24T15:04:31Z</time>
      </trkpt>
      <trkpt lat="58.032811023294926" lon="-5.361049007624388">
        <ele>36.189999999999998</ele>
        <time>2023-08-24T15:04:32Z</time>
      </trkpt>
      <trkpt lat="58.032689988613129" lon="-5.36111799068749">
        <ele>35.710000000000001</ele>
        <time>2023-08-24T15:04:33Z</time>
      </trkpt>
      <trkpt lat="58.031407976523042" lon="-5.361842019483447">
        <ele>34.740000000000002</ele>
        <time>2023-08-24T15:04:43Z</time>
      </trkpt>
      <trkpt lat="58.030741028487682" lon="-5.362138990312815">
        <ele>34.740000000000002</ele>
        <time>2023-08-24T15:04:51Z</time>
      </trkpt>
      <trkpt lat="58.030657963827252" lon="-5.362116023898125">
        <ele>34.740000000000002</ele>
        <time>2023-08-24T15:04:52Z</time>
      </trkpt>
      <trkpt lat="58.030583029612899" lon="-5.362077970057726">
        <ele>34.259999999999998</ele>
        <time>2023-08-24T15:04:53Z</time>
      </trkpt>
      <trkpt lat="58.030518991872668" lon="-5.362000018358231">
        <ele>34.259999999999998</ele>
        <time>2023-08-24T15:04:54Z</time>
      </trkpt>
      <trkpt lat="58.030450008809566" lon="-5.361916031688452">
        <ele>34.259999999999998</ele>
        <time>2023-08-24T15:04:55Z</time>
      </trkpt>
      <trkpt lat="58.030375996604562" lon="-5.361825004220009">
        <ele>33.780000000000001</ele>
        <time>2023-08-24T15:04:56Z</time>
      </trkpt>
      <trkpt lat="58.029478965327144" lon="-5.360747007653117">
        <ele>32.82</ele>
        <time>2023-08-24T15:05:06Z</time>
      </trkpt>
      <trkpt lat="58.028095029294491" lon="-5.358850015327334">
        <ele>29.940000000000001</ele>
        <time>2023-08-24T15:05:22Z</time>
      </trkpt>
      <trkpt lat="58.027175031602383" lon="-5.356968026608229">
        <ele>27.050000000000001</ele>
        <time>2023-08-24T15:05:33Z</time>
      </trkpt>
      <trkpt lat="58.026435999199748" lon="-5.355528015643358">
        <ele>23.690000000000001</ele>
        <time>2023-08-24T15:05:43Z</time>
      </trkpt>
      <trkpt lat="58.026302978396416" lon="-5.355315031483769">
        <ele>24.170000000000002</ele>
        <time>2023-08-24T15:05:45Z</time>
      </trkpt>
      <trkpt lat="58.026226032525301" lon="-5.355191985145211">
        <ele>24.649999999999999</ele>
        <time>2023-08-24T15:05:51Z</time>
      </trkpt>
      <trkpt lat="58.026226032525301" lon="-5.355191985145211">
        <ele>24.649999999999999</ele>
        <time>2023-08-24T15:05:53Z</time>
      </trkpt>
      <trkpt lat="58.026194013655186" lon="-5.355141023173928">
        <ele>24.649999999999999</ele>
        <time>2023-08-24T15:05:55Z</time>
      </trkpt>
      <trkpt lat="58.026051018387079" lon="-5.355310002341867">
        <ele>24.649999999999999</ele>
        <time>2023-08-24T15:06:04Z</time>
      </trkpt>
      <trkpt lat="58.026051018387079" lon="-5.355310002341867">
        <ele>24.649999999999999</ele>
        <time>2023-08-24T15:06:35Z</time>
      </trkpt>
      <trkpt lat="58.026051018387079" lon="-5.355305979028344">
        <ele>25.129999999999999</ele>
        <time>2023-08-24T15:06:52Z</time>
      </trkpt>
      <trkpt lat="58.026070967316628" lon="-5.355244958773255">
        <ele>24.649999999999999</ele>
        <time>2023-08-24T15:07:04Z</time>
      </trkpt>
      <trkpt lat="58.026070967316628" lon="-5.355244958773255">
        <ele>24.649999999999999</ele>
        <time>2023-08-24T15:07:11Z</time>
      </trkpt>
      <trkpt lat="58.026164006441832" lon="-5.355092994868755">
        <ele>24.170000000000002</ele>
        <time>2023-08-24T15:07:13Z</time>
      </trkpt>
      <trkpt lat="58.026190996170044" lon="-5.355136999860406">
        <ele>23.210000000000001</ele>
        <time>2023-08-24T15:07:14Z</time>
      </trkpt>
      <trkpt lat="58.026232989504933" lon="-5.355202965438366">
        <ele>22.73</ele>
        <time>2023-08-24T15:07:15Z</time>
      </trkpt>
      <trkpt lat="58.026286968961358" lon="-5.355288963764906">
        <ele>22.25</ele>
        <time>2023-08-24T15:07:16Z</time>
      </trkpt>
      <trkpt lat="58.026348995044827" lon="-5.355388037860394">
        <ele>21.77</ele>
        <time>2023-08-24T15:07:17Z</time>
      </trkpt>
      <trkpt lat="58.026928016915917" lon="-5.356401996687055">
        <ele>21.77</ele>
        <time>2023-08-24T15:07:24Z</time>
      </trkpt>
      <trkpt lat="58.027550959959626" lon="-5.35783396102488">
        <ele>24.170000000000002</ele>
        <time>2023-08-24T15:07:32Z</time>
      </trkpt>
      <trkpt lat="58.027636036276817" lon="-5.358029007911682">
        <ele>24.170000000000002</ele>
        <time>2023-08-24T15:07:33Z</time>
      </trkpt>
      <trkpt lat="58.029123991727829" lon="-5.36032497882843">
        <ele>26.57</ele>
        <time>2023-08-24T15:07:46Z</time>
      </trkpt>
      <trkpt lat="58.030514968559146" lon="-5.361995995044708">
        <ele>27.530000000000001</ele>
        <time>2023-08-24T15:07:57Z</time>
      </trkpt>
      <trkpt lat="58.030623011291027" lon="-5.362105965614319">
        <ele>28.02</ele>
        <time>2023-08-24T15:07:58Z</time>
      </trkpt>
      <trkpt lat="58.030725019052625" lon="-5.362133961170912">
        <ele>28.02</ele>
        <time>2023-08-24T15:07:59Z</time>
      </trkpt>
      <trkpt lat="58.030849993228912" lon="-5.362158017233014">
        <ele>28.02</ele>
        <time>2023-08-24T15:08:00Z</time>
      </trkpt>
      <trkpt lat="58.030967004597187" lon="-5.362091967836022">
        <ele>28.02</ele>
        <time>2023-08-24T15:08:01Z</time>
      </trkpt>
      <trkpt lat="58.031096002086997" lon="-5.362018961459398">
        <ele>27.530000000000001</ele>
        <time>2023-08-24T15:08:02Z</time>
      </trkpt>
      <trkpt lat="58.032417995855212" lon="-5.361271966248751">
        <ele>27.050000000000001</ele>
        <time>2023-08-24T15:08:10Z</time>
      </trkpt>
      <trkpt lat="58.032915964722633" lon="-5.360938031226397">
        <ele>27.050000000000001</ele>
        <time>2023-08-24T15:08:13Z</time>
      </trkpt>
      <trkpt lat="58.033039011061192" lon="-5.360806016251445">
        <ele>27.530000000000001</ele>
        <time>2023-08-24T15:08:14Z</time>
      </trkpt>
      <trkpt lat="58.03314303047955" lon="-5.360629996284843">
        <ele>27.530000000000001</ele>
        <time>2023-08-24T15:08:15Z</time>
      </trkpt>
      <trkpt lat="58.033214025199413" lon="-5.36040997132659">
        <ele>27.530000000000001</ele>
        <time>2023-08-24T15:08:16Z</time>
      </trkpt>
      <trkpt lat="58.033287031576037" lon="-5.360183995217085">
        <ele>28.02</ele>
        <time>2023-08-24T15:08:17Z</time>
      </trkpt>
      <trkpt lat="58.033319972455502" lon="-5.359907979145646">
        <ele>28.5</ele>
        <time>2023-08-24T15:08:18Z</time>
      </trkpt>
      <trkpt lat="58.033338999375701" lon="-5.359634980559349">
        <ele>28.98</ele>
        <time>2023-08-24T15:08:19Z</time>
      </trkpt>
      <trkpt lat="58.033359032124281" lon="-5.359357036650181">
        <ele>28.98</ele>
        <time>2023-08-24T15:08:20Z</time>
      </trkpt>
      <trkpt lat="58.033363977447152" lon="-5.359064005315304">
        <ele>29.460000000000001</ele>
        <time>2023-08-24T15:08:21Z</time>
      </trkpt>
      <trkpt lat="58.033283008262515" lon="-5.356380958110094">
        <ele>28.02</ele>
        <time>2023-08-24T15:08:31Z</time>
      </trkpt>
      <trkpt lat="58.033356014639139" lon="-5.354840029031038">
        <ele>25.129999999999999</ele>
        <time>2023-08-24T15:08:37Z</time>
      </trkpt>
      <trkpt lat="58.033392978832126" lon="-5.35460701212287">
        <ele>25.129999999999999</ele>
        <time>2023-08-24T15:08:38Z</time>
      </trkpt>
      <trkpt lat="58.03344402462244" lon="-5.354387992992997">
        <ele>24.649999999999999</ele>
        <time>2023-08-24T15:08:39Z</time>
      </trkpt>
      <trkpt lat="58.033513007685542" lon="-5.35418095998466">
        <ele>24.170000000000002</ele>
        <time>2023-08-24T15:08:40Z</time>
      </trkpt>
      <trkpt lat="58.033582996577024" lon="-5.353971999138594">
        <ele>23.690000000000001</ele>
        <time>2023-08-24T15:08:41Z</time>
      </trkpt>
      <trkpt lat="58.033675029873848" lon="-5.35379396751523">
        <ele>23.210000000000001</ele>
        <time>2023-08-24T15:08:42Z</time>
      </trkpt>
      <trkpt lat="58.033769996836782" lon="-5.353615013882518">
        <ele>22.73</ele>
        <time>2023-08-24T15:08:43Z</time>
      </trkpt>
      <trkpt lat="58.033881979063153" lon="-5.353471012786031">
        <ele>22.73</ele>
        <time>2023-08-24T15:08:44Z</time>
      </trkpt>
      <trkpt lat="58.034004019573331" lon="-5.35334000363946">
        <ele>22.25</ele>
        <time>2023-08-24T15:08:45Z</time>
      </trkpt>
      <trkpt lat="58.03413100540638" lon="-5.353217041119933">
        <ele>22.25</ele>
        <time>2023-08-24T15:08:46Z</time>
      </trkpt>
      <trkpt lat="58.034268971532583" lon="-5.35310598090291">
        <ele>21.77</ele>
        <time>2023-08-24T15:08:47Z</time>
      </trkpt>
      <trkpt lat="58.034989982843399" lon="-5.352527964860201">
        <ele>21.289999999999999</ele>
        <time>2023-08-24T15:08:53Z</time>
      </trkpt>
      <trkpt lat="58.035086961463094" lon="-5.352450013160706">
        <ele>21.289999999999999</ele>
        <time>2023-08-24T15:08:59Z</time>
      </trkpt>
      <trkpt lat="58.035091990604997" lon="-5.352445989847183">
        <ele>21.289999999999999</ele>
        <time>2023-08-24T15:09:05Z</time>
      </trkpt>
      <trkpt lat="58.035123003646731" lon="-5.352421011775732">
        <ele>21.289999999999999</ele>
        <time>2023-08-24T15:09:06Z</time>
      </trkpt>
      <trkpt lat="58.035171031951904" lon="-5.352383041754365">
        <ele>21.289999999999999</ele>
        <time>2023-08-24T15:09:07Z</time>
      </trkpt>
      <trkpt lat="58.035232974216342" lon="-5.352333001792431">
        <ele>21.289999999999999</ele>
        <time>2023-08-24T15:09:08Z</time>
      </trkpt>
      <trkpt lat="58.035303968936205" lon="-5.352276004850864">
        <ele>20.809999999999999</ele>
        <time>2023-08-24T15:09:09Z</time>
      </trkpt>
      <trkpt lat="58.03612899966538" lon="-5.351679967716336">
        <ele>20.32</ele>
        <time>2023-08-24T15:09:17Z</time>
      </trkpt>
      <trkpt lat="58.037231974303722" lon="-5.351352989673615">
        <ele>18.879999999999999</ele>
        <time>2023-08-24T15:09:25Z</time>
      </trkpt>
      <trkpt lat="58.038969961926341" lon="-5.351607967168093">
        <ele>16</ele>
        <time>2023-08-24T15:09:36Z</time>
      </trkpt>
      <trkpt lat="58.040368985384703" lon="-5.352198975160718">
        <ele>12.15</ele>
        <time>2023-08-24T15:09:45Z</time>
      </trkpt>
      <trkpt lat="58.042131029069424" lon="-5.353149985894561">
        <ele>10.23</ele>
        <time>2023-08-24T15:09:56Z</time>
      </trkpt>
      <trkpt lat="58.044161964207888" lon="-5.354396961629391">
        <ele>8.789999999999999</ele>
        <time>2023-08-24T15:10:09Z</time>
      </trkpt>
      <trkpt lat="58.045415980741382" lon="-5.35479904152453">
        <ele>8.789999999999999</ele>
        <time>2023-08-24T15:10:17Z</time>
      </trkpt>
      <trkpt lat="58.0458830203861" lon="-5.354814967140555">
        <ele>9.75</ele>
        <time>2023-08-24T15:10:20Z</time>
      </trkpt>
      <trkpt lat="58.046039007604122" lon="-5.354770962148905">
        <ele>9.75</ele>
        <time>2023-08-24T15:10:21Z</time>
      </trkpt>
      <trkpt lat="58.047507014125586" lon="-5.354251032695174">
        <ele>10.23</ele>
        <time>2023-08-24T15:10:29Z</time>
      </trkpt>
      <trkpt lat="58.049147017300129" lon="-5.353904021903873">
        <ele>8.789999999999999</ele>
        <time>2023-08-24T15:10:39Z</time>
      </trkpt>
      <trkpt lat="58.050490971654654" lon="-5.35430702380836">
        <ele>7.83</ele>
        <time>2023-08-24T15:10:47Z</time>
      </trkpt>
      <trkpt lat="58.052702033892274" lon="-5.355407986789942">
        <ele>8.789999999999999</ele>
        <time>2023-08-24T15:11:00Z</time>
      </trkpt>
      <trkpt lat="58.055001022294164" lon="-5.356052974238992">
        <ele>8.310000000000001</ele>
        <time>2023-08-24T15:11:13Z</time>
      </trkpt>
      <trkpt lat="58.055906016379595" lon="-5.356307029724121">
        <ele>9.75</ele>
        <time>2023-08-24T15:11:21Z</time>
      </trkpt>
      <trkpt lat="58.056070972234011" lon="-5.356352962553501">
        <ele>10.23</ele>
        <time>2023-08-24T15:11:23Z</time>
      </trkpt>
      <trkpt lat="58.056168034672737" lon="-5.35630501806736">
        <ele>10.23</ele>
        <time>2023-08-24T15:11:24Z</time>
      </trkpt>
      <trkpt lat="58.056225031614304" lon="-5.356187000870705">
        <ele>10.710000000000001</ele>
        <time>2023-08-24T15:11:25Z</time>
      </trkpt>
      <trkpt lat="58.056292003020644" lon="-5.356048028916121">
        <ele>11.19</ele>
        <time>2023-08-24T15:11:26Z</time>
      </trkpt>
      <trkpt lat="58.056367021054029" lon="-5.355892963707447">
        <ele>11.67</ele>
        <time>2023-08-24T15:11:27Z</time>
      </trkpt>
      <trkpt lat="58.056444972753525" lon="-5.355733036994934">
        <ele>12.15</ele>
        <time>2023-08-24T15:11:28Z</time>
      </trkpt>
      <trkpt lat="58.056485038250685" lon="-5.355538995936513">
        <ele>12.630000000000001</ele>
        <time>2023-08-24T15:11:29Z</time>
      </trkpt>
      <trkpt lat="58.056518984958529" lon="-5.355336992070079">
        <ele>13.119999999999999</ele>
        <time>2023-08-24T15:11:30Z</time>
      </trkpt>
      <trkpt lat="58.056500963866711" lon="-5.355136999860406">
        <ele>13.6</ele>
        <time>2023-08-24T15:11:31Z</time>
      </trkpt>
      <trkpt lat="58.056475985795259" lon="-5.354914041236043">
        <ele>14.08</ele>
        <time>2023-08-24T15:11:32Z</time>
      </trkpt>
      <trkpt lat="58.056450001895428" lon="-5.354685969650745">
        <ele>14.56</ele>
        <time>2023-08-24T15:11:33Z</time>
      </trkpt>
      <trkpt lat="58.056313963606954" lon="-5.353485010564327">
        <ele>15.52</ele>
        <time>2023-08-24T15:11:39Z</time>
      </trkpt>
      <trkpt lat="58.056316981092095" lon="-5.353332040831447">
        <ele>15.52</ele>
        <time>2023-08-24T15:11:40Z</time>
      </trkpt>
      <trkpt lat="58.056329973042011" lon="-5.353200025856495">
        <ele>15.039999999999999</ele>
        <time>2023-08-24T15:11:41Z</time>
      </trkpt>
      <trkpt lat="58.056341037154198" lon="-5.35308301448822">
        <ele>15.039999999999999</ele>
        <time>2023-08-24T15:11:42Z</time>
      </trkpt>
      <trkpt lat="58.056364003568888" lon="-5.352944964542985">
        <ele>15.52</ele>
        <time>2023-08-24T15:11:43Z</time>
      </trkpt>
      <trkpt lat="58.05641395971179" lon="-5.352813033387065">
        <ele>15.52</ele>
        <time>2023-08-24T15:11:44Z</time>
      </trkpt>
      <trkpt lat="58.056471962481737" lon="-5.352656040340662">
        <ele>16</ele>
        <time>2023-08-24T15:11:45Z</time>
      </trkpt>
      <trkpt lat="58.05656298995018" lon="-5.35252695903182">
        <ele>16</ele>
        <time>2023-08-24T15:11:46Z</time>
      </trkpt>
      <trkpt lat="58.056658040732145" lon="-5.352398967370391">
        <ele>16.48</ele>
        <time>2023-08-24T15:11:47Z</time>
      </trkpt>
      <trkpt lat="58.056757031008601" lon="-5.352267036214471">
        <ele>16.960000000000001</ele>
        <time>2023-08-24T15:11:48Z</time>
      </trkpt>
      <trkpt lat="58.056867001578212" lon="-5.352146001532674">
        <ele>17.440000000000001</ele>
        <time>2023-08-24T15:11:49Z</time>
      </trkpt>
      <trkpt lat="58.058052035048604" lon="-5.351006984710693">
        <ele>28.5</ele>
        <time>2023-08-24T15:11:59Z</time>
      </trkpt>
      <trkpt lat="58.058153036981821" lon="-5.350850997492671">
        <ele>29.940000000000001</ele>
        <time>2023-08-24T15:12:00Z</time>
      </trkpt>
      <trkpt lat="58.058370966464281" lon="-5.350513039156795">
        <ele>31.379999999999999</ele>
        <time>2023-08-24T15:12:02Z</time>
      </trkpt>
      <trkpt lat="58.058489989489317" lon="-5.350358979776502">
        <ele>31.379999999999999</ele>
        <time>2023-08-24T15:12:03Z</time>
      </trkpt>
      <trkpt lat="58.058626027777791" lon="-5.350262001156807">
        <ele>31.859999999999999</ele>
        <time>2023-08-24T15:12:04Z</time>
      </trkpt>
      <trkpt lat="58.058759970590472" lon="-5.350167034193873">
        <ele>32.340000000000003</ele>
        <time>2023-08-24T15:12:05Z</time>
      </trkpt>
      <trkpt lat="58.058884022757411" lon="-5.350079024210572">
        <ele>32.82</ele>
        <time>2023-08-24T15:12:06Z</time>
      </trkpt>
      <trkpt lat="58.059084014967084" lon="-5.349937034770846">
        <ele>34.259999999999998</ele>
        <time>2023-08-24T15:12:08Z</time>
      </trkpt>
      <trkpt lat="58.059148974716663" lon="-5.349828992038965">
        <ele>34.740000000000002</ele>
        <time>2023-08-24T15:12:09Z</time>
      </trkpt>
      <trkpt lat="58.059200020506978" lon="-5.34968800842762">
        <ele>35.229999999999997</ele>
        <time>2023-08-24T15:12:10Z</time>
      </trkpt>
      <trkpt lat="58.059212006628513" lon="-5.349508970975876">
        <ele>35.710000000000001</ele>
        <time>2023-08-24T15:12:11Z</time>
      </trkpt>
      <trkpt lat="58.059221981093287" lon="-5.349314007908106">
        <ele>36.189999999999998</ele>
        <time>2023-08-24T15:12:12Z</time>
      </trkpt>
      <trkpt lat="58.059232039377093" lon="-5.349107980728149">
        <ele>36.670000000000002</ele>
        <time>2023-08-24T15:12:13Z</time>
      </trkpt>
      <trkpt lat="58.059242013841867" lon="-5.348897008225322">
        <ele>37.149999999999999</ele>
        <time>2023-08-24T15:12:14Z</time>
      </trkpt>
      <trkpt lat="58.059241008013487" lon="-5.348669020459056">
        <ele>38.109999999999999</ele>
        <time>2023-08-24T15:12:15Z</time>
      </trkpt>
      <trkpt lat="58.059155009686947" lon="-5.346964979544282">
        <ele>37.149999999999999</ele>
        <time>2023-08-24T15:12:23Z</time>
      </trkpt>
      <trkpt lat="58.059087032452226" lon="-5.345639968290925">
        <ele>35.710000000000001</ele>
        <time>2023-08-24T15:12:30Z</time>
      </trkpt>
      <trkpt lat="58.059091977775097" lon="-5.344879981130362">
        <ele>35.229999999999997</ele>
        <time>2023-08-24T15:12:33Z</time>
      </trkpt>
      <trkpt lat="58.059111004695296" lon="-5.344627015292645">
        <ele>34.740000000000002</ele>
        <time>2023-08-24T15:12:34Z</time>
      </trkpt>
      <trkpt lat="58.059146963059902" lon="-5.344387041404843">
        <ele>34.740000000000002</ele>
        <time>2023-08-24T15:12:35Z</time>
      </trkpt>
      <trkpt lat="58.059207983314991" lon="-5.344154024496675">
        <ele>34.259999999999998</ele>
        <time>2023-08-24T15:12:36Z</time>
      </trkpt>
      <trkpt lat="58.059273026883602" lon="-5.343959983438253">
        <ele>34.259999999999998</ele>
        <time>2023-08-24T15:12:37Z</time>
      </trkpt>
      <trkpt lat="58.059823969379067" lon="-5.342334983870387">
        <ele>33.780000000000001</ele>
        <time>2023-08-24T15:12:46Z</time>
      </trkpt>
      <trkpt lat="58.059936035424471" lon="-5.342003982514143">
        <ele>33.780000000000001</ele>
        <time>2023-08-24T15:12:51Z</time>
      </trkpt>
      <trkpt lat="58.060066038742661" lon="-5.341621013358235">
        <ele>34.259999999999998</ele>
        <time>2023-08-24T15:12:58Z</time>
      </trkpt>
      <trkpt lat="58.060267036780715" lon="-5.341026987880468">
        <ele>35.710000000000001</ele>
        <time>2023-08-24T15:13:03Z</time>
      </trkpt>
      <trkpt lat="58.060356974601746" lon="-5.340762035921216">
        <ele>36.189999999999998</ele>
        <time>2023-08-24T15:13:09Z</time>
      </trkpt>
      <trkpt lat="58.060786966234446" lon="-5.339492009952664">
        <ele>37.149999999999999</ele>
        <time>2023-08-24T15:13:16Z</time>
      </trkpt>
      <trkpt lat="58.061818024143577" lon="-5.33662598580122">
        <ele>35.229999999999997</ele>
        <time>2023-08-24T15:13:28Z</time>
      </trkpt>
      <trkpt lat="58.063039015978575" lon="-5.333505989983678">
        <ele>33.299999999999997</ele>
        <time>2023-08-24T15:13:41Z</time>
      </trkpt>
      <trkpt lat="58.063476970419288" lon="-5.332387005910277">
        <ele>31.379999999999999</ele>
        <time>2023-08-24T15:13:46Z</time>
      </trkpt>
      <trkpt lat="58.063515024259686" lon="-5.332167986780405">
        <ele>30.899999999999999</ele>
        <time>2023-08-24T15:13:47Z</time>
      </trkpt>
      <trkpt lat="58.063540002331138" lon="-5.3319420106709">
        <ele>30.899999999999999</ele>
        <time>2023-08-24T15:13:48Z</time>
      </trkpt>
      <trkpt lat="58.063565986230969" lon="-5.33170698210597">
        <ele>30.899999999999999</ele>
        <time>2023-08-24T15:13:49Z</time>
      </trkpt>
      <trkpt lat="58.063567997887731" lon="-5.331443035975099">
        <ele>30.899999999999999</ele>
        <time>2023-08-24T15:13:50Z</time>
      </trkpt>
      <trkpt lat="58.063538996502757" lon="-5.331178000196815">
        <ele>30.420000000000002</ele>
        <time>2023-08-24T15:13:51Z</time>
      </trkpt>
      <trkpt lat="58.063507983461022" lon="-5.330899972468615">
        <ele>30.420000000000002</ele>
        <time>2023-08-24T15:13:52Z</time>
      </trkpt>
      <trkpt lat="58.063474036753178" lon="-5.330600989982486">
        <ele>29.940000000000001</ele>
        <time>2023-08-24T15:13:53Z</time>
      </trkpt>
      <trkpt lat="58.063420979306102" lon="-5.330307958647609">
        <ele>29.940000000000001</ele>
        <time>2023-08-24T15:13:54Z</time>
      </trkpt>
      <trkpt lat="58.062660992145538" lon="-5.326137039810419">
        <ele>29.940000000000001</ele>
        <time>2023-08-24T15:14:08Z</time>
      </trkpt>
      <trkpt lat="58.061924977228045" lon="-5.323277972638607">
        <ele>28.98</ele>
        <time>2023-08-24T15:14:19Z</time>
      </trkpt>
      <trkpt lat="58.060909006744623" lon="-5.320600038394332">
        <ele>30.899999999999999</ele>
        <time>2023-08-24T15:14:31Z</time>
      </trkpt>
      <trkpt lat="58.059982974082232" lon="-5.318188983947039">
        <ele>32.340000000000003</ele>
        <time>2023-08-24T15:14:42Z</time>
      </trkpt>
      <trkpt lat="58.058650000020862" lon="-5.314469011500478">
        <ele>32.340000000000003</ele>
        <time>2023-08-24T15:14:55Z</time>
      </trkpt>
      <trkpt lat="58.057630006223917" lon="-5.311588989570737">
        <ele>31.859999999999999</ele>
        <time>2023-08-24T15:15:06Z</time>
      </trkpt>
      <trkpt lat="58.056498030200601" lon="-5.308396993204951">
        <ele>33.299999999999997</ele>
        <time>2023-08-24T15:15:18Z</time>
      </trkpt>
      <trkpt lat="58.055234039202332" lon="-5.305199967697263">
        <ele>37.630000000000003</ele>
        <time>2023-08-24T15:15:31Z</time>
      </trkpt>
      <trkpt lat="58.054184038192034" lon="-5.302690006792545">
        <ele>40.509999999999998</ele>
        <time>2023-08-24T15:15:42Z</time>
      </trkpt>
      <trkpt lat="58.053498985245824" lon="-5.301057966426015">
        <ele>41.469999999999999</ele>
        <time>2023-08-24T15:15:49Z</time>
      </trkpt>
      <trkpt lat="58.053270997479558" lon="-5.300610959529877">
        <ele>41.469999999999999</ele>
        <time>2023-08-24T15:15:51Z</time>
      </trkpt>
      <trkpt lat="58.053131019696593" lon="-5.300439968705177">
        <ele>41.950000000000003</ele>
        <time>2023-08-24T15:15:52Z</time>
      </trkpt>
      <trkpt lat="58.051777007058263" lon="-5.298786973580718">
        <ele>45.32</ele>
        <time>2023-08-24T15:16:01Z</time>
      </trkpt>
      <trkpt lat="58.050713008269668" lon="-5.297116963192821">
        <ele>48.200000000000003</ele>
        <time>2023-08-24T15:16:10Z</time>
      </trkpt>
      <trkpt lat="58.049940029159188" lon="-5.295304963365197">
        <ele>51.090000000000003</ele>
        <time>2023-08-24T15:16:18Z</time>
      </trkpt>
      <trkpt lat="58.049462009221315" lon="-5.293928990140557">
        <ele>54.450000000000003</ele>
        <time>2023-08-24T15:16:24Z</time>
      </trkpt>
      <trkpt lat="58.049395037814975" lon="-5.29367602430284">
        <ele>54.93</ele>
        <time>2023-08-24T15:16:25Z</time>
      </trkpt>
      <trkpt lat="58.04889396764338" lon="-5.290611013770104">
        <ele>56.369999999999997</ele>
        <time>2023-08-24T15:16:35Z</time>
      </trkpt>
      <trkpt lat="58.048296002671123" lon="-5.28695298358798">
        <ele>59.740000000000002</ele>
        <time>2023-08-24T15:16:47Z</time>
      </trkpt>
      <trkpt lat="58.04760399274528" lon="-5.284006996080279">
        <ele>62.619999999999997</ele>
        <time>2023-08-24T15:16:57Z</time>
      </trkpt>
      <trkpt lat="58.047385979443789" lon="-5.283241979777813">
        <ele>63.579999999999998</ele>
        <time>2023-08-24T15:17:00Z</time>
      </trkpt>
      <trkpt lat="58.047341974452138" lon="-5.283005023375154">
        <ele>63.579999999999998</ele>
        <time>2023-08-24T15:17:01Z</time>
      </trkpt>
      <trkpt lat="58.04734599776566" lon="-5.282737975940108">
        <ele>64.069999999999993</ele>
        <time>2023-08-24T15:17:02Z</time>
      </trkpt>
      <trkpt lat="58.047353960573673" lon="-5.28246296569705">
        <ele>63.579999999999998</ele>
        <time>2023-08-24T15:17:03Z</time>
      </trkpt>
      <trkpt lat="58.047364018857479" lon="-5.282170018181205">
        <ele>63.579999999999998</ele>
        <time>2023-08-24T15:17:04Z</time>
      </trkpt>
      <trkpt lat="58.047372987493873" lon="-5.281867012381554">
        <ele>63.100000000000001</ele>
        <time>2023-08-24T15:17:05Z</time>
      </trkpt>
      <trkpt lat="58.047374999150634" lon="-5.281566018238664">
        <ele>62.619999999999997</ele>
        <time>2023-08-24T15:17:06Z</time>
      </trkpt>
      <trkpt lat="58.047337029129267" lon="-5.28127801604569">
        <ele>62.619999999999997</ele>
        <time>2023-08-24T15:17:07Z</time>
      </trkpt>
      <trkpt lat="58.047153968364" lon="-5.279900031164289">
        <ele>61.659999999999997</ele>
        <time>2023-08-24T15:17:12Z</time>
      </trkpt>
      <trkpt lat="58.047157991677523" lon="-5.279649998992682">
        <ele>61.659999999999997</ele>
        <time>2023-08-24T15:17:13Z</time>
      </trkpt>
      <trkpt lat="58.047176012769341" lon="-5.279396027326584">
        <ele>61.18</ele>
        <time>2023-08-24T15:17:14Z</time>
      </trkpt>
      <trkpt lat="58.047205014154315" lon="-5.27883100323379">
        <ele>59.740000000000002</ele>
        <time>2023-08-24T15:17:16Z</time>
      </trkpt>
      <trkpt lat="58.047190010547638" lon="-5.278534032404423">
        <ele>59.259999999999998</ele>
        <time>2023-08-24T15:17:17Z</time>
      </trkpt>
      <trkpt lat="58.047040980309248" lon="-5.277002993971109">
        <ele>57.82</ele>
        <time>2023-08-24T15:17:22Z</time>
      </trkpt>
      <trkpt lat="58.046969985589385" lon="-5.276698982343078">
        <ele>57.340000000000003</ele>
        <time>2023-08-24T15:17:23Z</time>
      </trkpt>
      <trkpt lat="58.046647030860186" lon="-5.275003993883729">
        <ele>58.780000000000001</ele>
        <time>2023-08-24T15:17:29Z</time>
      </trkpt>
      <trkpt lat="58.04663403891027" lon="-5.274740969762206">
        <ele>58.780000000000001</ele>
        <time>2023-08-24T15:17:30Z</time>
      </trkpt>
      <trkpt lat="58.046640995889902" lon="-5.274462020024657">
        <ele>58.780000000000001</ele>
        <time>2023-08-24T15:17:31Z</time>
      </trkpt>
      <trkpt lat="58.046720959246159" lon="-5.271328026428819">
        <ele>61.659999999999997</ele>
        <time>2023-08-24T15:17:41Z</time>
      </trkpt>
      <trkpt lat="58.04668097756803" lon="-5.267669996246696">
        <ele>57.82</ele>
        <time>2023-08-24T15:17:53Z</time>
      </trkpt>
      <trkpt lat="58.046527002006769" lon="-5.264682015404105">
        <ele>54.93</ele>
        <time>2023-08-24T15:18:03Z</time>
      </trkpt>
      <trkpt lat="58.046072032302618" lon="-5.261912969872356">
        <ele>54.450000000000003</ele>
        <time>2023-08-24T15:18:13Z</time>
      </trkpt>
      <trkpt lat="58.045566016808152" lon="-5.25940896011889">
        <ele>56.859999999999999</ele>
        <time>2023-08-24T15:18:22Z</time>
      </trkpt>
      <trkpt lat="58.044625986367464" lon="-5.256106993183494">
        <ele>58.780000000000001</ele>
        <time>2023-08-24T15:18:34Z</time>
      </trkpt>
      <trkpt lat="58.044478967785835" lon="-5.255617992952466">
        <ele>59.259999999999998</ele>
        <time>2023-08-24T15:18:36Z</time>
      </trkpt>
      <trkpt lat="58.044437980279326" lon="-5.255371984094381">
        <ele>58.780000000000001</ele>
        <time>2023-08-24T15:18:37Z</time>
      </trkpt>
      <trkpt lat="58.044413002207875" lon="-5.255102002993226">
        <ele>58.780000000000001</ele>
        <time>2023-08-24T15:18:38Z</time>
      </trkpt>
      <trkpt lat="58.04440101608634" lon="-5.254815006628633">
        <ele>58.780000000000001</ele>
        <time>2023-08-24T15:18:39Z</time>
      </trkpt>
      <trkpt lat="58.044388024136424" lon="-5.254516024142504">
        <ele>58.299999999999997</ele>
        <time>2023-08-24T15:18:40Z</time>
      </trkpt>
      <trkpt lat="58.044328009709716" lon="-5.253641959279776">
        <ele>56.859999999999999</ele>
        <time>2023-08-24T15:18:43Z</time>
      </trkpt>
      <trkpt lat="58.044266989454627" lon="-5.253381030634046">
        <ele>56.369999999999997</ele>
        <time>2023-08-24T15:18:44Z</time>
      </trkpt>
      <trkpt lat="58.044204963371158" lon="-5.253111971542239">
        <ele>56.369999999999997</ele>
        <time>2023-08-24T15:18:45Z</time>
      </trkpt>
      <trkpt lat="58.044141009449959" lon="-5.252838972955942">
        <ele>55.890000000000001</ele>
        <time>2023-08-24T15:18:46Z</time>
      </trkpt>
      <trkpt lat="58.044042019173503" lon="-5.252589024603367">
        <ele>55.890000000000001</ele>
        <time>2023-08-24T15:18:47Z</time>
      </trkpt>
      <trkpt lat="58.043937999755144" lon="-5.252329017966986">
        <ele>55.409999999999997</ele>
        <time>2023-08-24T15:18:48Z</time>
      </trkpt>
      <trkpt lat="58.04291901178658" lon="-5.249873958528042">
        <ele>57.82</ele>
        <time>2023-08-24T15:18:58Z</time>
      </trkpt>
      <trkpt lat="58.042482985183597" lon="-5.24900802411139">
        <ele>59.259999999999998</ele>
        <time>2023-08-24T15:19:02Z</time>
      </trkpt>
      <trkpt lat="58.042354993522167" lon="-5.248822029680014">
        <ele>59.259999999999998</ele>
        <time>2023-08-24T15:19:03Z</time>
      </trkpt>
      <trkpt lat="58.04221099242568" lon="-5.24868599139154">
        <ele>59.740000000000002</ele>
        <time>2023-08-24T15:19:04Z</time>
      </trkpt>
      <trkpt lat="58.041098965331912" lon="-5.247613023966551">
        <ele>61.18</ele>
        <time>2023-08-24T15:19:12Z</time>
      </trkpt>
      <trkpt lat="58.040652964264154" lon="-5.246983040124178">
        <ele>61.659999999999997</ele>
        <time>2023-08-24T15:19:16Z</time>
      </trkpt>
      <trkpt lat="58.040565038099885" lon="-5.246810037642717">
        <ele>62.140000000000001</ele>
        <time>2023-08-24T15:19:17Z</time>
      </trkpt>
      <trkpt lat="58.040243005380034" lon="-5.246053989976645">
        <ele>63.100000000000001</ele>
        <time>2023-08-24T15:19:23Z</time>
      </trkpt>
      <trkpt lat="58.039785018190742" lon="-5.244975993409753">
        <ele>61.659999999999997</ele>
        <time>2023-08-24T15:19:29Z</time>
      </trkpt>
      <trkpt lat="58.039603969082236" lon="-5.244550025090575">
        <ele>61.18</ele>
        <time>2023-08-24T15:19:31Z</time>
      </trkpt>
      <trkpt lat="58.039486035704613" lon="-5.244402000680566">
        <ele>61.18</ele>
        <time>2023-08-24T15:19:32Z</time>
      </trkpt>
      <trkpt lat="58.039366006851196" lon="-5.244307033717632">
        <ele>61.18</ele>
        <time>2023-08-24T15:19:33Z</time>
      </trkpt>
      <trkpt lat="58.038435028865933" lon="-5.243354011327028">
        <ele>62.140000000000001</ele>
        <time>2023-08-24T15:19:41Z</time>
      </trkpt>
      <trkpt lat="58.037264999002218" lon="-5.24198298342526">
        <ele>64.549999999999997</ele>
        <time>2023-08-24T15:19:51Z</time>
      </trkpt>
      <trkpt lat="58.036960987374187" lon="-5.241491971537471">
        <ele>66.950000000000003</ele>
        <time>2023-08-24T15:19:54Z</time>
      </trkpt>
      <trkpt lat="58.036873983219266" lon="-5.241302037611604">
        <ele>67.909999999999997</ele>
        <time>2023-08-24T15:19:55Z</time>
      </trkpt>
      <trkpt lat="58.036698969081044" lon="-5.240924013778567">
        <ele>69.829999999999998</ele>
        <time>2023-08-24T15:19:57Z</time>
      </trkpt>
      <trkpt lat="58.036604002118111" lon="-5.240746987983584">
        <ele>70.790000000000006</ele>
        <time>2023-08-24T15:19:58Z</time>
      </trkpt>
      <trkpt lat="58.036049958318472" lon="-5.23966396227479">
        <ele>74.159999999999997</ele>
        <time>2023-08-24T15:20:04Z</time>
      </trkpt>
      <trkpt lat="58.035987010225654" lon="-5.239441003650427">
        <ele>74.159999999999997</ele>
        <time>2023-08-24T15:20:05Z</time>
      </trkpt>
      <trkpt lat="58.035940993577242" lon="-5.239204969257116">
        <ele>74.159999999999997</ele>
        <time>2023-08-24T15:20:06Z</time>
      </trkpt>
      <trkpt lat="58.035901011899114" lon="-5.238998020067811">
        <ele>74.159999999999997</ele>
        <time>2023-08-24T15:20:07Z</time>
      </trkpt>
      <trkpt lat="58.035878967493773" lon="-5.238715969026089">
        <ele>74.640000000000001</ele>
        <time>2023-08-24T15:20:08Z</time>
      </trkpt>
      <trkpt lat="58.035858012735844" lon="-5.238440036773682">
        <ele>74.640000000000001</ele>
        <time>2023-08-24T15:20:09Z</time>
      </trkpt>
      <trkpt lat="58.035834962502122" lon="-5.238149017095566">
        <ele>75.120000000000005</ele>
        <time>2023-08-24T15:20:10Z</time>
      </trkpt>
      <trkpt lat="58.035773020237684" lon="-5.237346030771732">
        <ele>75.599999999999994</ele>
        <time>2023-08-24T15:20:13Z</time>
      </trkpt>
      <trkpt lat="58.035724991932511" lon="-5.237090969458222">
        <ele>75.599999999999994</ele>
        <time>2023-08-24T15:20:14Z</time>
      </trkpt>
      <trkpt lat="58.035663971677423" lon="-5.236930036917329">
        <ele>75.599999999999994</ele>
        <time>2023-08-24T15:20:15Z</time>
      </trkpt>
      <trkpt lat="58.035586019977927" lon="-5.236799027770758">
        <ele>76.079999999999998</ele>
        <time>2023-08-24T15:20:16Z</time>
      </trkpt>
      <trkpt lat="58.035489041358232" lon="-5.236730966717005">
        <ele>76.560000000000002</ele>
        <time>2023-08-24T15:20:17Z</time>
      </trkpt>
      <trkpt lat="58.035383010283113" lon="-5.236663995310664">
        <ele>77.519999999999996</ele>
        <time>2023-08-24T15:20:18Z</time>
      </trkpt>
      <trkpt lat="58.035281002521515" lon="-5.236600041389465">
        <ele>78</ele>
        <time>2023-08-24T15:20:19Z</time>
      </trkpt>
      <trkpt lat="58.035168014466763" lon="-5.2365240175277">
        <ele>79.450000000000003</ele>
        <time>2023-08-24T15:20:20Z</time>
      </trkpt>
      <trkpt lat="58.035075981169939" lon="-5.236381022259593">
        <ele>79.930000000000007</ele>
        <time>2023-08-24T15:20:21Z</time>
      </trkpt>
      <trkpt lat="58.034980008378625" lon="-5.236228974536061">
        <ele>80.890000000000001</ele>
        <time>2023-08-24T15:20:22Z</time>
      </trkpt>
      <trkpt lat="58.034870959818363" lon="-5.236057983711362">
        <ele>81.370000000000005</ele>
        <time>2023-08-24T15:20:23Z</time>
      </trkpt>
      <trkpt lat="58.034765012562275" lon="-5.235996041446924">
        <ele>82.329999999999998</ele>
        <time>2023-08-24T15:20:24Z</time>
      </trkpt>
      <trkpt lat="58.034639032557607" lon="-5.235921023413539">
        <ele>82.810000000000002</ele>
        <time>2023-08-24T15:20:25Z</time>
      </trkpt>
      <trkpt lat="58.034415990114212" lon="-5.235789008438587">
        <ele>84.730000000000004</ele>
        <time>2023-08-24T15:20:27Z</time>
      </trkpt>
      <trkpt lat="58.03432404063642" lon="-5.235704015940428">
        <ele>85.689999999999998</ele>
        <time>2023-08-24T15:20:28Z</time>
      </trkpt>
      <trkpt lat="58.034231001511216" lon="-5.235589016228914">
        <ele>86.659999999999997</ele>
        <time>2023-08-24T15:20:29Z</time>
      </trkpt>
      <trkpt lat="58.03361602127552" lon="-5.234243972226977">
        <ele>93.390000000000001</ele>
        <time>2023-08-24T15:20:36Z</time>
      </trkpt>
      <trkpt lat="58.033536979928613" lon="-5.234069041907787">
        <ele>94.349999999999994</ele>
        <time>2023-08-24T15:20:37Z</time>
      </trkpt>
      <trkpt lat="58.033347968012094" lon="-5.233654975891113">
        <ele>96.75</ele>
        <time>2023-08-24T15:20:40Z</time>
      </trkpt>
      <trkpt lat="58.033322989940643" lon="-5.233481973409653">
        <ele>97.709999999999994</ele>
        <time>2023-08-24T15:20:41Z</time>
      </trkpt>
      <trkpt lat="58.033303041011095" lon="-5.233338978141546">
        <ele>98.670000000000002</ele>
        <time>2023-08-24T15:20:42Z</time>
      </trkpt>
      <trkpt lat="58.033319972455502" lon="-5.232676975429058">
        <ele>103.48</ele>
        <time>2023-08-24T15:20:48Z</time>
      </trkpt>
      <trkpt lat="58.033399013802409" lon="-5.231131017208099">
        <ele>106.84</ele>
        <time>2023-08-24T15:20:55Z</time>
      </trkpt>
      <trkpt lat="58.033432038500905" lon="-5.229000002145767">
        <ele>106.84</ele>
        <time>2023-08-24T15:21:03Z</time>
      </trkpt>
      <trkpt lat="58.033521976321936" lon="-5.225086994469166">
        <ele>100.59999999999999</ele>
        <time>2023-08-24T15:21:16Z</time>
      </trkpt>
      <trkpt lat="58.033533962443471" lon="-5.224822964519262">
        <ele>100.11</ele>
        <time>2023-08-24T15:21:17Z</time>
      </trkpt>
      <trkpt lat="58.033528011292219" lon="-5.224562035873532">
        <ele>100.11</ele>
        <time>2023-08-24T15:21:18Z</time>
      </trkpt>
      <trkpt lat="58.033495992422104" lon="-5.224318960681558">
        <ele>100.11</ele>
        <time>2023-08-24T15:21:19Z</time>
      </trkpt>
      <trkpt lat="58.033450981602073" lon="-5.224087033420801">
        <ele>99.629999999999995</ele>
        <time>2023-08-24T15:21:20Z</time>
      </trkpt>
      <trkpt lat="58.033386021852493" lon="-5.223872037604451">
        <ele>99.629999999999995</ele>
        <time>2023-08-24T15:21:21Z</time>
      </trkpt>
      <trkpt lat="58.033259036019444" lon="-5.223443973809481">
        <ele>99.629999999999995</ele>
        <time>2023-08-24T15:21:23Z</time>
      </trkpt>
      <trkpt lat="58.03322802297771" lon="-5.223230989649892">
        <ele>100.11</ele>
        <time>2023-08-24T15:21:24Z</time>
      </trkpt>
      <trkpt lat="58.033155016601086" lon="-5.222594970837236">
        <ele>100.11</ele>
        <time>2023-08-24T15:21:27Z</time>
      </trkpt>
      <trkpt lat="58.033155016601086" lon="-5.22234401665628">
        <ele>100.59999999999999</ele>
        <time>2023-08-24T15:21:28Z</time>
      </trkpt>
      <trkpt lat="58.033266998827457" lon="-5.219625011086464">
        <ele>100.11</ele>
        <time>2023-08-24T15:21:37Z</time>
      </trkpt>
      <trkpt lat="58.033428015187383" lon="-5.21626302972436">
        <ele>100.11</ele>
        <time>2023-08-24T15:21:48Z</time>
      </trkpt>
      <trkpt lat="58.033494986593723" lon="-5.21473802626133">
        <ele>99.150000000000006</ele>
        <time>2023-08-24T15:21:53Z</time>
      </trkpt>
      <trkpt lat="58.033475037664175" lon="-5.214433008804917">
        <ele>98.670000000000002</ele>
        <time>2023-08-24T15:21:54Z</time>
      </trkpt>
      <trkpt lat="58.033457016572356" lon="-5.214137965813279">
        <ele>98.670000000000002</ele>
        <time>2023-08-24T15:21:55Z</time>
      </trkpt>
      <trkpt lat="58.033348973840475" lon="-5.212413975968957">
        <ele>95.310000000000002</ele>
        <time>2023-08-24T15:22:01Z</time>
      </trkpt>
      <trkpt lat="58.033334976062179" lon="-5.212181964889169">
        <ele>94.829999999999998</ele>
        <time>2023-08-24T15:22:02Z</time>
      </trkpt>
      <trkpt lat="58.033347968012094" lon="-5.211949031800032">
        <ele>93.870000000000005</ele>
        <time>2023-08-24T15:22:03Z</time>
      </trkpt>
      <trkpt lat="58.033390967175364" lon="-5.211755996569991">
        <ele>93.390000000000001</ele>
        <time>2023-08-24T15:22:04Z</time>
      </trkpt>
      <trkpt lat="58.033459028229117" lon="-5.211567990481854">
        <ele>92.900000000000006</ele>
        <time>2023-08-24T15:22:05Z</time>
      </trkpt>
      <trkpt lat="58.033542009070516" lon="-5.211401022970676">
        <ele>92.420000000000002</ele>
        <time>2023-08-24T15:22:06Z</time>
      </trkpt>
      <trkpt lat="58.033623984083533" lon="-5.21123799495399">
        <ele>91.939999999999998</ele>
        <time>2023-08-24T15:22:07Z</time>
      </trkpt>
      <trkpt lat="58.033768991008401" lon="-5.210947981104255">
        <ele>90.019999999999996</ele>
        <time>2023-08-24T15:22:12Z</time>
      </trkpt>
      <trkpt lat="58.033926989883184" lon="-5.210631983354688">
        <ele>88.579999999999998</ele>
        <time>2023-08-24T15:22:30Z</time>
      </trkpt>
      <trkpt lat="58.034286992624402" lon="-5.209353994578123">
        <ele>87.620000000000005</ele>
        <time>2023-08-24T15:22:37Z</time>
      </trkpt>
      <trkpt lat="58.0346670281142" lon="-5.20713304169476">
        <ele>85.689999999999998</ele>
        <time>2023-08-24T15:22:47Z</time>
      </trkpt>
      <trkpt lat="58.03473399952054" lon="-5.204239021986723">
        <ele>81.849999999999994</ele>
        <time>2023-08-24T15:22:58Z</time>
      </trkpt>
      <trkpt lat="58.03473299369216" lon="-5.203687995672226">
        <ele>80.890000000000001</ele>
        <time>2023-08-24T15:23:00Z</time>
      </trkpt>
      <trkpt lat="58.03471396677196" lon="-5.203412985429168">
        <ele>80.409999999999997</ele>
        <time>2023-08-24T15:23:01Z</time>
      </trkpt>
      <trkpt lat="58.034634003415704" lon="-5.202681999653578">
        <ele>78.480000000000004</ele>
        <time>2023-08-24T15:23:04Z</time>
      </trkpt>
      <trkpt lat="58.034591004252434" lon="-5.202484019100666">
        <ele>77.519999999999996</ele>
        <time>2023-08-24T15:23:05Z</time>
      </trkpt>
      <trkpt lat="58.034511040896177" lon="-5.202324008569121">
        <ele>77.040000000000006</ele>
        <time>2023-08-24T15:23:06Z</time>
      </trkpt>
      <trkpt lat="58.034406015649438" lon="-5.202208003029227">
        <ele>75.599999999999994</ele>
        <time>2023-08-24T15:23:07Z</time>
      </trkpt>
      <trkpt lat="58.034294033423066" lon="-5.20208302885294">
        <ele>74.640000000000001</ele>
        <time>2023-08-24T15:23:08Z</time>
      </trkpt>
      <trkpt lat="58.034080965444446" lon="-5.201846994459629">
        <ele>73.680000000000007</ele>
        <time>2023-08-24T15:23:10Z</time>
      </trkpt>
      <trkpt lat="58.033983986824751" lon="-5.201727971434593">
        <ele>73.200000000000003</ele>
        <time>2023-08-24T15:23:11Z</time>
      </trkpt>
      <trkpt lat="58.033909974619746" lon="-5.201544994488359">
        <ele>73.200000000000003</ele>
        <time>2023-08-24T15:23:12Z</time>
      </trkpt>
      <trkpt lat="58.033832022920251" lon="-5.201349025592208">
        <ele>72.239999999999995</ele>
        <time>2023-08-24T15:23:13Z</time>
      </trkpt>
      <trkpt lat="58.033758010715246" lon="-5.201136041432619">
        <ele>72.239999999999995</ele>
        <time>2023-08-24T15:23:14Z</time>
      </trkpt>
      <trkpt lat="58.0332509893924" lon="-5.198849961161614">
        <ele>69.349999999999994</ele>
        <time>2023-08-24T15:23:23Z</time>
      </trkpt>
      <trkpt lat="58.033019984140992" lon="-5.197883024811745">
        <ele>67.430000000000007</ele>
        <time>2023-08-24T15:23:27Z</time>
      </trkpt>
      <trkpt lat="58.032980002462864" lon="-5.197625029832125">
        <ele>66.950000000000003</ele>
        <time>2023-08-24T15:23:28Z</time>
      </trkpt>
      <trkpt lat="58.032705998048186" lon="-5.196018973365426">
        <ele>65.510000000000005</ele>
        <time>2023-08-24T15:23:34Z</time>
      </trkpt>
      <trkpt lat="58.03262603469193" lon="-5.195814035832882">
        <ele>65.030000000000001</ele>
        <time>2023-08-24T15:23:35Z</time>
      </trkpt>
      <trkpt lat="58.032549005001783" lon="-5.195613959804177">
        <ele>64.549999999999997</ele>
        <time>2023-08-24T15:23:36Z</time>
      </trkpt>
      <trkpt lat="58.032479016110301" lon="-5.195430982857943">
        <ele>64.069999999999993</ele>
        <time>2023-08-24T15:23:37Z</time>
      </trkpt>
      <trkpt lat="58.03241397254169" lon="-5.195263009518385">
        <ele>64.069999999999993</ele>
        <time>2023-08-24T15:23:38Z</time>
      </trkpt>
      <trkpt lat="58.032372985035181" lon="-5.19505999982357">
        <ele>64.069999999999993</ele>
        <time>2023-08-24T15:23:39Z</time>
      </trkpt>
      <trkpt lat="58.032355969771743" lon="-5.194833017885685">
        <ele>64.069999999999993</ele>
        <time>2023-08-24T15:23:40Z</time>
      </trkpt>
      <trkpt lat="58.032062016427517" lon="-5.192855978384614">
        <ele>64.549999999999997</ele>
        <time>2023-08-24T15:23:47Z</time>
      </trkpt>
      <trkpt lat="58.031678041443229" lon="-5.190475014969707">
        <ele>69.829999999999998</ele>
        <time>2023-08-24T15:23:56Z</time>
      </trkpt>
      <trkpt lat="58.031684998422861" lon="-5.190217019990087">
        <ele>70.790000000000006</ele>
        <time>2023-08-24T15:23:57Z</time>
      </trkpt>
      <trkpt lat="58.031717017292976" lon="-5.187484016641974">
        <ele>78</ele>
        <time>2023-08-24T15:24:06Z</time>
      </trkpt>
      <trkpt lat="58.031544014811516" lon="-5.185190979391336">
        <ele>78.969999999999999</ele>
        <time>2023-08-24T15:24:14Z</time>
      </trkpt>
      <trkpt lat="58.031331030651927" lon="-5.183303961530328">
        <ele>78</ele>
        <time>2023-08-24T15:24:21Z</time>
      </trkpt>
      <trkpt lat="58.031331030651927" lon="-5.183036997914314">
        <ele>78</ele>
        <time>2023-08-24T15:24:22Z</time>
      </trkpt>
      <trkpt lat="58.031260035932064" lon="-5.180442966520786">
        <ele>76.560000000000002</ele>
        <time>2023-08-24T15:24:31Z</time>
      </trkpt>
      <trkpt lat="58.031030036509037" lon="-5.178153030574322">
        <ele>78.480000000000004</ele>
        <time>2023-08-24T15:24:39Z</time>
      </trkpt>
      <trkpt lat="58.030687971040606" lon="-5.175901986658573">
        <ele>78.480000000000004</ele>
        <time>2023-08-24T15:24:47Z</time>
      </trkpt>
      <trkpt lat="58.030352024361491" lon="-5.174964973703027">
        <ele>78.480000000000004</ele>
        <time>2023-08-24T15:24:51Z</time>
      </trkpt>
      <trkpt lat="58.030245993286371" lon="-5.174769004806876">
        <ele>78.480000000000004</ele>
        <time>2023-08-24T15:24:52Z</time>
      </trkpt>
      <trkpt lat="58.030127976089716" lon="-5.174617040902376">
        <ele>78</ele>
        <time>2023-08-24T15:24:53Z</time>
      </trkpt>
      <trkpt lat="58.029999984428287" lon="-5.174453007057309">
        <ele>78</ele>
        <time>2023-08-24T15:24:54Z</time>
      </trkpt>
      <trkpt lat="58.029867969453335" lon="-5.174338007345796">
        <ele>77.519999999999996</ele>
        <time>2023-08-24T15:24:55Z</time>
      </trkpt>
      <trkpt lat="58.029239997267723" lon="-5.173794021829963">
        <ele>76.079999999999998</ele>
        <time>2023-08-24T15:25:01Z</time>
      </trkpt>
      <trkpt lat="58.029003040865064" lon="-5.173587994650006">
        <ele>75.599999999999994</ele>
        <time>2023-08-24T15:25:09Z</time>
      </trkpt>
      <trkpt lat="58.028815034776926" lon="-5.17342496663332">
        <ele>76.079999999999998</ele>
        <time>2023-08-24T15:25:21Z</time>
      </trkpt>
      <trkpt lat="58.028143979609013" lon="-5.172750977799296">
        <ele>74.159999999999997</ele>
        <time>2023-08-24T15:25:28Z</time>
      </trkpt>
      <trkpt lat="58.02704201079905" lon="-5.171539960429072">
        <ele>72.239999999999995</ele>
        <time>2023-08-24T15:25:37Z</time>
      </trkpt>
      <trkpt lat="58.026907984167337" lon="-5.171454967930913">
        <ele>72.239999999999995</ele>
        <time>2023-08-24T15:25:38Z</time>
      </trkpt>
      <trkpt lat="58.026768006384373" lon="-5.171379027888179">
        <ele>71.760000000000005</ele>
        <time>2023-08-24T15:25:39Z</time>
      </trkpt>
      <trkpt lat="58.02564499899745" lon="-5.170734040439129">
        <ele>69.829999999999998</ele>
        <time>2023-08-24T15:25:47Z</time>
      </trkpt>
      <trkpt lat="58.024533977732062" lon="-5.170345036312938">
        <ele>69.829999999999998</ele>
        <time>2023-08-24T15:25:55Z</time>
      </trkpt>
      <trkpt lat="58.024412021040916" lon="-5.170267000794411">
        <ele>69.829999999999998</ele>
        <time>2023-08-24T15:25:56Z</time>
      </trkpt>
      <trkpt lat="58.024136004969478" lon="-5.170090980827808">
        <ele>70.310000000000002</ele>
        <time>2023-08-24T15:25:58Z</time>
      </trkpt>
      <trkpt lat="58.023977000266314" lon="-5.17002803273499">
        <ele>70.310000000000002</ele>
        <time>2023-08-24T15:25:59Z</time>
      </trkpt>
      <trkpt lat="58.022791966795921" lon="-5.169649003073573">
        <ele>70.310000000000002</ele>
        <time>2023-08-24T15:26:07Z</time>
      </trkpt>
      <trkpt lat="58.022684007883072" lon="-5.169572979211807">
        <ele>70.310000000000002</ele>
        <time>2023-08-24T15:26:08Z</time>
      </trkpt>
      <trkpt lat="58.02257101982832" lon="-5.169486980885267">
        <ele>70.790000000000006</ele>
        <time>2023-08-24T15:26:09Z</time>
      </trkpt>
      <trkpt lat="58.02248602733016" lon="-5.169324958696961">
        <ele>70.790000000000006</ele>
        <time>2023-08-24T15:26:10Z</time>
      </trkpt>
      <trkpt lat="58.02239902317524" lon="-5.169160002842546">
        <ele>71.269999999999996</ele>
        <time>2023-08-24T15:26:11Z</time>
      </trkpt>
      <trkpt lat="58.02231595851481" lon="-5.168981971219182">
        <ele>71.760000000000005</ele>
        <time>2023-08-24T15:26:12Z</time>
      </trkpt>
      <trkpt lat="58.02223096601665" lon="-5.16878399066627">
        <ele>72.239999999999995</ele>
        <time>2023-08-24T15:26:13Z</time>
      </trkpt>
      <trkpt lat="58.021340975537896" lon="-5.166862020269036">
        <ele>73.680000000000007</ele>
        <time>2023-08-24T15:26:21Z</time>
      </trkpt>
      <trkpt lat="58.020479986444116" lon="-5.165201984345913">
        <ele>78</ele>
        <time>2023-08-24T15:26:29Z</time>
      </trkpt>
      <trkpt lat="58.020018981769681" lon="-5.164490025490522">
        <ele>78.480000000000004</ele>
        <time>2023-08-24T15:26:33Z</time>
      </trkpt>
      <trkpt lat="58.019551020115614" lon="-5.163922989740968">
        <ele>79.450000000000003</ele>
        <time>2023-08-24T15:26:37Z</time>
      </trkpt>
      <trkpt lat="58.019103007391095" lon="-5.163267021998763">
        <ele>82.329999999999998</ele>
        <time>2023-08-24T15:26:41Z</time>
      </trkpt>
      <trkpt lat="58.018978033214808" lon="-5.163164008408785">
        <ele>82.810000000000002</ele>
        <time>2023-08-24T15:26:42Z</time>
      </trkpt>
      <trkpt lat="58.017998021095991" lon="-5.16225297935307">
        <ele>86.659999999999997</ele>
        <time>2023-08-24T15:26:50Z</time>
      </trkpt>
      <trkpt lat="58.01700702868402" lon="-5.16119702719152">
        <ele>87.620000000000005</ele>
        <time>2023-08-24T15:26:57Z</time>
      </trkpt>
      <trkpt lat="58.016580976545811" lon="-5.160852028056979">
        <ele>88.579999999999998</ele>
        <time>2023-08-24T15:27:00Z</time>
      </trkpt>
      <trkpt lat="58.016468994319439" lon="-5.160687994211912">
        <ele>88.579999999999998</ele>
        <time>2023-08-24T15:27:01Z</time>
      </trkpt>
      <trkpt lat="58.016371009871364" lon="-5.160484984517098">
        <ele>88.099999999999994</ele>
        <time>2023-08-24T15:27:02Z</time>
      </trkpt>
      <trkpt lat="58.016266990453005" lon="-5.160266971215606">
        <ele>87.620000000000005</ele>
        <time>2023-08-24T15:27:03Z</time>
      </trkpt>
      <trkpt lat="58.016160959377885" lon="-5.160046024248004">
        <ele>87.620000000000005</ele>
        <time>2023-08-24T15:27:04Z</time>
      </trkpt>
      <trkpt lat="58.016058029606938" lon="-5.159829016774893">
        <ele>87.620000000000005</ele>
        <time>2023-08-24T15:27:05Z</time>
      </trkpt>
      <trkpt lat="58.015944035723805" lon="-5.159654002636671">
        <ele>87.140000000000001</ele>
        <time>2023-08-24T15:27:06Z</time>
      </trkpt>
      <trkpt lat="58.015829036012292" lon="-5.159478988498449">
        <ele>87.140000000000001</ele>
        <time>2023-08-24T15:27:07Z</time>
      </trkpt>
      <trkpt lat="58.01526602357626" lon="-5.158464023843408">
        <ele>85.209999999999994</ele>
        <time>2023-08-24T15:27:12Z</time>
      </trkpt>
      <trkpt lat="58.015171978622675" lon="-5.158228995278478">
        <ele>84.730000000000004</ele>
        <time>2023-08-24T15:27:13Z</time>
      </trkpt>
      <trkpt lat="58.015000987797976" lon="-5.15780202113092">
        <ele>82.810000000000002</ele>
        <time>2023-08-24T15:27:15Z</time>
      </trkpt>
      <trkpt lat="58.014880958944559" lon="-5.157690038904548">
        <ele>81.849999999999994</ele>
        <time>2023-08-24T15:27:16Z</time>
      </trkpt>
      <trkpt lat="58.014766965061426" lon="-5.157584007829428">
        <ele>80.890000000000001</ele>
        <time>2023-08-24T15:27:17Z</time>
      </trkpt>
      <trkpt lat="58.013835987076163" lon="-5.156625034287572">
        <ele>78.969999999999999</ele>
        <time>2023-08-24T15:27:24Z</time>
      </trkpt>
      <trkpt lat="58.013495011255145" lon="-5.156103009358048">
        <ele>78.969999999999999</ele>
        <time>2023-08-24T15:27:27Z</time>
      </trkpt>
      <trkpt lat="58.013394009321928" lon="-5.155903017148376">
        <ele>78.969999999999999</ele>
        <time>2023-08-24T15:27:28Z</time>
      </trkpt>
      <trkpt lat="58.013048004359007" lon="-5.155223999172449">
        <ele>78.480000000000004</ele>
        <time>2023-08-24T15:27:31Z</time>
      </trkpt>
      <trkpt lat="58.012909032404423" lon="-5.155056025832892">
        <ele>78</ele>
        <time>2023-08-24T15:27:32Z</time>
      </trkpt>
      <trkpt lat="58.01277601160109" lon="-5.154910013079643">
        <ele>78.480000000000004</ele>
        <time>2023-08-24T15:27:33Z</time>
      </trkpt>
      <trkpt lat="58.012656988576055" lon="-5.154781015589833">
        <ele>78.480000000000004</ele>
        <time>2023-08-24T15:27:34Z</time>
      </trkpt>
      <trkpt lat="58.012538971379399" lon="-5.154652018100023">
        <ele>78.480000000000004</ele>
        <time>2023-08-24T15:27:35Z</time>
      </trkpt>
      <trkpt lat="58.011935977265239" lon="-5.153905022889376">
        <ele>77.040000000000006</ele>
        <time>2023-08-24T15:27:41Z</time>
      </trkpt>
      <trkpt lat="58.011932037770748" lon="-5.153897982090712">
        <ele>77.040000000000006</ele>
        <time>2023-08-24T15:27:50Z</time>
      </trkpt>
      <trkpt lat="58.011667001992464" lon="-5.153438989073038">
        <ele>75.599999999999994</ele>
        <time>2023-08-24T15:27:55Z</time>
      </trkpt>
      <trkpt lat="58.011574968695641" lon="-5.153309991583228">
        <ele>75.599999999999994</ele>
        <time>2023-08-24T15:27:56Z</time>
      </trkpt>
      <trkpt lat="58.011381011456251" lon="-5.153037998825312">
        <ele>75.120000000000005</ele>
        <time>2023-08-24T15:27:58Z</time>
      </trkpt>
      <trkpt lat="58.011282021179795" lon="-5.152899026870728">
        <ele>75.120000000000005</ele>
        <time>2023-08-24T15:27:59Z</time>
      </trkpt>
      <trkpt lat="58.011180013418198" lon="-5.152753014117479">
        <ele>74.640000000000001</ele>
        <time>2023-08-24T15:28:00Z</time>
      </trkpt>
      <trkpt lat="58.011110024526715" lon="-5.152550004422665">
        <ele>74.159999999999997</ele>
        <time>2023-08-24T15:28:01Z</time>
      </trkpt>
      <trkpt lat="58.011039029806852" lon="-5.152342971414328">
        <ele>73.680000000000007</ele>
        <time>2023-08-24T15:28:02Z</time>
      </trkpt>
      <trkpt lat="58.010376021265984" lon="-5.150136016309261">
        <ele>72.719999999999999</ele>
        <time>2023-08-24T15:28:11Z</time>
      </trkpt>
      <trkpt lat="58.00931503996253" lon="-5.147480964660645">
        <ele>78.969999999999999</ele>
        <time>2023-08-24T15:28:22Z</time>
      </trkpt>
      <trkpt lat="58.008508030325174" lon="-5.145846996456385">
        <ele>89.060000000000002</ele>
        <time>2023-08-24T15:28:30Z</time>
      </trkpt>
      <trkpt lat="58.008438041433692" lon="-5.145630994811654">
        <ele>89.540000000000006</ele>
        <time>2023-08-24T15:28:31Z</time>
      </trkpt>
      <trkpt lat="58.007692974060774" lon="-5.143783036619425">
        <ele>96.269999999999996</ele>
        <time>2023-08-24T15:28:39Z</time>
      </trkpt>
      <trkpt lat="58.00736297853291" lon="-5.143190016970038">
        <ele>99.629999999999995</ele>
        <time>2023-08-24T15:28:43Z</time>
      </trkpt>
      <trkpt lat="58.007270023226738" lon="-5.143096977844834">
        <ele>100.11</ele>
        <time>2023-08-24T15:28:44Z</time>
      </trkpt>
      <trkpt lat="58.007162986323237" lon="-5.143049033358693">
        <ele>100.59999999999999</ele>
        <time>2023-08-24T15:28:45Z</time>
      </trkpt>
      <trkpt lat="58.006452033296227" lon="-5.142836971208453">
        <ele>105.88</ele>
        <time>2023-08-24T15:28:51Z</time>
      </trkpt>
      <trkpt lat="58.006378021091223" lon="-5.142762959003449">
        <ele>106.36</ele>
        <time>2023-08-24T15:28:52Z</time>
      </trkpt>
      <trkpt lat="58.006343990564346" lon="-5.142646031454206">
        <ele>107.31999999999999</ele>
        <time>2023-08-24T15:28:53Z</time>
      </trkpt>
      <trkpt lat="58.006324041634798" lon="-5.1424649823457">
        <ele>108.29000000000001</ele>
        <time>2023-08-24T15:28:54Z</time>
      </trkpt>
      <trkpt lat="58.006299985572696" lon="-5.142251998186112">
        <ele>108.77</ele>
        <time>2023-08-24T15:28:55Z</time>
      </trkpt>
      <trkpt lat="58.006274001672864" lon="-5.142018981277943">
        <ele>109.73</ele>
        <time>2023-08-24T15:28:56Z</time>
      </trkpt>
      <trkpt lat="58.00624500028789" lon="-5.141767021268606">
        <ele>110.20999999999999</ele>
        <time>2023-08-24T15:28:57Z</time>
      </trkpt>
      <trkpt lat="58.006184985861182" lon="-5.141537021845579">
        <ele>110.69</ele>
        <time>2023-08-24T15:28:58Z</time>
      </trkpt>
      <trkpt lat="58.006124971434474" lon="-5.141308028250933">
        <ele>111.65000000000001</ele>
        <time>2023-08-24T15:28:59Z</time>
      </trkpt>
      <trkpt lat="58.006020030006766" lon="-5.140907960012555">
        <ele>113.09</ele>
        <time>2023-08-24T15:29:01Z</time>
      </trkpt>
      <trkpt lat="58.005941994488239" lon="-5.140768988057971">
        <ele>113.56999999999999</ele>
        <time>2023-08-24T15:29:02Z</time>
      </trkpt>
      <trkpt lat="58.005861025303602" lon="-5.140648037195206">
        <ele>114.05</ele>
        <time>2023-08-24T15:29:03Z</time>
      </trkpt>
      <trkpt lat="58.005767986178398" lon="-5.140520967543125">
        <ele>114.53</ele>
        <time>2023-08-24T15:29:04Z</time>
      </trkpt>
      <trkpt lat="58.005656003952026" lon="-5.140404962003231">
        <ele>114.53</ele>
        <time>2023-08-24T15:29:05Z</time>
      </trkpt>
      <trkpt lat="58.004991989582777" lon="-5.139543972909451">
        <ele>116.45999999999999</ele>
        <time>2023-08-24T15:29:11Z</time>
      </trkpt>
      <trkpt lat="58.004905991256237" lon="-5.1393480040133">
        <ele>115.98</ele>
        <time>2023-08-24T15:29:12Z</time>
      </trkpt>
      <trkpt lat="58.004817981272936" lon="-5.139147005975246">
        <ele>115.98</ele>
        <time>2023-08-24T15:29:13Z</time>
      </trkpt>
      <trkpt lat="58.004572978243232" lon="-5.13823295943439">
        <ele>115.5</ele>
        <time>2023-08-24T15:29:17Z</time>
      </trkpt>
      <trkpt lat="58.004564009606838" lon="-5.137989968061447">
        <ele>115.98</ele>
        <time>2023-08-24T15:29:18Z</time>
      </trkpt>
      <trkpt lat="58.004555040970445" lon="-5.137755023315549">
        <ele>115.98</ele>
        <time>2023-08-24T15:29:19Z</time>
      </trkpt>
      <trkpt lat="58.004544982686639" lon="-5.137507002800703">
        <ele>115.98</ele>
        <time>2023-08-24T15:29:20Z</time>
      </trkpt>
      <trkpt lat="58.004536014050245" lon="-5.137261999770999">
        <ele>116.45999999999999</ele>
        <time>2023-08-24T15:29:21Z</time>
      </trkpt>
      <trkpt lat="58.004507012665272" lon="-5.137030994519591">
        <ele>116.45999999999999</ele>
        <time>2023-08-24T15:29:22Z</time>
      </trkpt>
      <trkpt lat="58.004448004066944" lon="-5.136811975389719">
        <ele>116.45999999999999</ele>
        <time>2023-08-24T15:29:23Z</time>
      </trkpt>
      <trkpt lat="58.004380026832223" lon="-5.136559009552002">
        <ele>116.45999999999999</ele>
        <time>2023-08-24T15:29:24Z</time>
      </trkpt>
      <trkpt lat="58.004305008798838" lon="-5.136380977928639">
        <ele>116.94</ele>
        <time>2023-08-24T15:29:25Z</time>
      </trkpt>
      <trkpt lat="58.004062017425895" lon="-5.13580396771431">
        <ele>117.42</ele>
        <time>2023-08-24T15:29:28Z</time>
      </trkpt>
      <trkpt lat="58.003973001614213" lon="-5.135698020458221">
        <ele>117.90000000000001</ele>
        <time>2023-08-24T15:29:29Z</time>
      </trkpt>
      <trkpt lat="58.003876022994518" lon="-5.13562903739512">
        <ele>118.38</ele>
        <time>2023-08-24T15:29:30Z</time>
      </trkpt>
      <trkpt lat="58.003790024667978" lon="-5.13556701131165">
        <ele>118.38</ele>
        <time>2023-08-24T15:29:31Z</time>
      </trkpt>
      <trkpt lat="58.003711989149451" lon="-5.135512026026845">
        <ele>118.86</ele>
        <time>2023-08-24T15:29:32Z</time>
      </trkpt>
      <trkpt lat="58.003637976944447" lon="-5.135458968579769">
        <ele>118.86</ele>
        <time>2023-08-24T15:29:33Z</time>
      </trkpt>
      <trkpt lat="58.003586009144783" lon="-5.135422004386783">
        <ele>119.34</ele>
        <time>2023-08-24T15:29:34Z</time>
      </trkpt>
      <trkpt lat="58.003505039960146" lon="-5.135299963876605">
        <ele>119.34</ele>
        <time>2023-08-24T15:29:35Z</time>
      </trkpt>
      <trkpt lat="58.003431027755141" lon="-5.135189993306994">
        <ele>119.34</ele>
        <time>2023-08-24T15:29:36Z</time>
      </trkpt>
      <trkpt lat="58.003361038863659" lon="-5.135069964453578">
        <ele>119.34</ele>
        <time>2023-08-24T15:29:37Z</time>
      </trkpt>
      <trkpt lat="58.002889975905418" lon="-5.133613022044301">
        <ele>120.3</ele>
        <time>2023-08-24T15:29:46Z</time>
      </trkpt>
      <trkpt lat="58.002725020051003" lon="-5.133061995729804">
        <ele>121.73999999999999</ele>
        <time>2023-08-24T15:29:49Z</time>
      </trkpt>
      <trkpt lat="58.00265796482563" lon="-5.132895028218627">
        <ele>122.22</ele>
        <time>2023-08-24T15:29:50Z</time>
      </trkpt>
      <trkpt lat="58.002589987590909" lon="-5.132750021293759">
        <ele>122.70999999999999</ele>
        <time>2023-08-24T15:29:51Z</time>
      </trkpt>
      <trkpt lat="58.002392007037997" lon="-5.132328998297453">
        <ele>124.63</ele>
        <time>2023-08-24T15:29:54Z</time>
      </trkpt>
      <trkpt lat="58.002339033409953" lon="-5.132137974724174">
        <ele>125.11</ele>
        <time>2023-08-24T15:29:55Z</time>
      </trkpt>
      <trkpt lat="58.002299973741174" lon="-5.131925996392965">
        <ele>125.59</ele>
        <time>2023-08-24T15:29:56Z</time>
      </trkpt>
      <trkpt lat="58.002259992063046" lon="-5.131712006404996">
        <ele>126.06999999999999</ele>
        <time>2023-08-24T15:29:57Z</time>
      </trkpt>
      <trkpt lat="58.002221016213298" lon="-5.131503967568278">
        <ele>126.55</ele>
        <time>2023-08-24T15:29:58Z</time>
      </trkpt>
      <trkpt lat="58.002180028706789" lon="-5.131281008943915">
        <ele>127.03</ele>
        <time>2023-08-24T15:29:59Z</time>
      </trkpt>
      <trkpt lat="58.001885991543531" lon="-5.129784001037478">
        <ele>126.55</ele>
        <time>2023-08-24T15:30:05Z</time>
      </trkpt>
      <trkpt lat="58.001762023195624" lon="-5.129241021350026">
        <ele>127.03</ele>
        <time>2023-08-24T15:30:08Z</time>
      </trkpt>
      <trkpt lat="58.001423981040716" lon="-5.128034027293325">
        <ele>127.03</ele>
        <time>2023-08-24T15:30:13Z</time>
      </trkpt>
      <trkpt lat="58.001348040997982" lon="-5.127814002335072">
        <ele>126.55</ele>
        <time>2023-08-24T15:30:14Z</time>
      </trkpt>
      <trkpt lat="58.001272017136216" lon="-5.127592971548438">
        <ele>126.55</ele>
        <time>2023-08-24T15:30:15Z</time>
      </trkpt>
      <trkpt lat="58.001156011596322" lon="-5.127132972702384">
        <ele>125.59</ele>
        <time>2023-08-24T15:30:17Z</time>
      </trkpt>
      <trkpt lat="58.001112006604671" lon="-5.126926023513079">
        <ele>124.63</ele>
        <time>2023-08-24T15:30:18Z</time>
      </trkpt>
      <trkpt lat="58.001081999391317" lon="-5.126692000776529">
        <ele>123.67</ele>
        <time>2023-08-24T15:30:19Z</time>
      </trkpt>
      <trkpt lat="58.001107983291149" lon="-5.126462001353502">
        <ele>122.22</ele>
        <time>2023-08-24T15:30:20Z</time>
      </trkpt>
      <trkpt lat="58.001133967190981" lon="-5.126222027465701">
        <ele>121.26000000000001</ele>
        <time>2023-08-24T15:30:21Z</time>
      </trkpt>
      <trkpt lat="58.001161040738225" lon="-5.125982975587249">
        <ele>119.81999999999999</ele>
        <time>2023-08-24T15:30:22Z</time>
      </trkpt>
      <trkpt lat="58.001186018809676" lon="-5.125755993649364">
        <ele>118.86</ele>
        <time>2023-08-24T15:30:23Z</time>
      </trkpt>
      <trkpt lat="58.001191969960928" lon="-5.125546026974917">
        <ele>117.42</ele>
        <time>2023-08-24T15:30:24Z</time>
      </trkpt>
      <trkpt lat="58.001143019646406" lon="-5.12536196038127">
        <ele>116.45999999999999</ele>
        <time>2023-08-24T15:30:25Z</time>
      </trkpt>
      <trkpt lat="58.001091973856091" lon="-5.125165991485119">
        <ele>115.98</ele>
        <time>2023-08-24T15:30:26Z</time>
      </trkpt>
      <trkpt lat="58.001037994399667" lon="-5.124963987618685">
        <ele>115.5</ele>
        <time>2023-08-24T15:30:27Z</time>
      </trkpt>
      <trkpt lat="58.000984014943242" lon="-5.124756032600999">
        <ele>115.01000000000001</ele>
        <time>2023-08-24T15:30:28Z</time>
      </trkpt>
      <trkpt lat="58.000927018001676" lon="-5.124539025127888">
        <ele>114.05</ele>
        <time>2023-08-24T15:30:29Z</time>
      </trkpt>
      <trkpt lat="58.000877983868122" lon="-5.124289998784661">
        <ele>113.09</ele>
        <time>2023-08-24T15:30:30Z</time>
      </trkpt>
      <trkpt lat="58.000864991918206" lon="-5.124018006026745">
        <ele>112.61</ele>
        <time>2023-08-24T15:30:31Z</time>
      </trkpt>
      <trkpt lat="58.00085099413991" lon="-5.12372899800539">
        <ele>111.65000000000001</ele>
        <time>2023-08-24T15:30:32Z</time>
      </trkpt>
      <trkpt lat="58.000756027176976" lon="-5.121708959341049">
        <ele>106.36</ele>
        <time>2023-08-24T15:30:39Z</time>
      </trkpt>
      <trkpt lat="58.000770024955273" lon="-5.12142900377512">
        <ele>105.40000000000001</ele>
        <time>2023-08-24T15:30:40Z</time>
      </trkpt>
      <trkpt lat="58.000803971663117" lon="-5.121147958561778">
        <ele>104.92</ele>
        <time>2023-08-24T15:30:41Z</time>
      </trkpt>
      <trkpt lat="58.001156011596322" lon="-5.119320033118129">
        <ele>101.08</ele>
        <time>2023-08-24T15:30:48Z</time>
      </trkpt>
      <trkpt lat="58.001373019069433" lon="-5.118438005447388">
        <ele>98.189999999999998</ele>
        <time>2023-08-24T15:30:52Z</time>
      </trkpt>
      <trkpt lat="58.001363966614008" lon="-5.118311019614339">
        <ele>97.709999999999994</ele>
        <time>2023-08-24T15:30:53Z</time>
      </trkpt>
      <trkpt lat="58.001348963007331" lon="-5.118161989375949">
        <ele>97.230000000000004</ele>
        <time>2023-08-24T15:30:54Z</time>
      </trkpt>
      <trkpt lat="58.001333037391305" lon="-5.117998039349914">
        <ele>96.75</ele>
        <time>2023-08-24T15:30:55Z</time>
      </trkpt>
      <trkpt lat="58.001296995207667" lon="-5.11782000772655">
        <ele>96.75</ele>
        <time>2023-08-24T15:30:56Z</time>
      </trkpt>
      <trkpt lat="58.0012590251863" lon="-5.117628984153271">
        <ele>96.269999999999996</ele>
        <time>2023-08-24T15:30:57Z</time>
      </trkpt>
      <trkpt lat="58.001015027984977" lon="-5.116456020623446">
        <ele>95.310000000000002</ele>
        <time>2023-08-24T15:31:02Z</time>
      </trkpt>
      <trkpt lat="58.000968005508184" lon="-5.116239013150334">
        <ele>94.829999999999998</ele>
        <time>2023-08-24T15:31:03Z</time>
      </trkpt>
      <trkpt lat="58.000891981646419" lon="-5.116100963205099">
        <ele>94.829999999999998</ele>
        <time>2023-08-24T15:31:04Z</time>
      </trkpt>
      <trkpt lat="58.000792991369963" lon="-5.115964002907276">
        <ele>94.829999999999998</ele>
        <time>2023-08-24T15:31:05Z</time>
      </trkpt>
      <trkpt lat="58.000681009143591" lon="-5.115831987932324">
        <ele>95.310000000000002</ele>
        <time>2023-08-24T15:31:06Z</time>
      </trkpt>
      <trkpt lat="58.000223021954298" lon="-5.115225976333022">
        <ele>98.189999999999998</ele>
        <time>2023-08-24T15:31:10Z</time>
      </trkpt>
      <trkpt lat="58.000123025849462" lon="-5.115032019093633">
        <ele>99.150000000000006</ele>
        <time>2023-08-24T15:31:11Z</time>
      </trkpt>
      <trkpt lat="58.000025041401386" lon="-5.114842001348734">
        <ele>100.59999999999999</ele>
        <time>2023-08-24T15:31:12Z</time>
      </trkpt>
      <trkpt lat="57.999938959255815" lon="-5.114655001088977">
        <ele>101.56</ele>
        <time>2023-08-24T15:31:13Z</time>
      </trkpt>
      <trkpt lat="57.999880034476519" lon="-5.114475963637233">
        <ele>103</ele>
        <time>2023-08-24T15:31:14Z</time>
      </trkpt>
      <trkpt lat="57.999847009778023" lon="-5.114283012226224">
        <ele>103.95999999999999</ele>
        <time>2023-08-24T15:31:15Z</time>
      </trkpt>
      <trkpt lat="57.999831000342965" lon="-5.114078996703029">
        <ele>104.92</ele>
        <time>2023-08-24T15:31:16Z</time>
      </trkpt>
      <trkpt lat="57.999831000342965" lon="-5.113860983401537">
        <ele>105.88</ele>
        <time>2023-08-24T15:31:17Z</time>
      </trkpt>
      <trkpt lat="57.999831000342965" lon="-5.113624026998878">
        <ele>106.36</ele>
        <time>2023-08-24T15:31:18Z</time>
      </trkpt>
      <trkpt lat="57.999831000342965" lon="-5.113183977082372">
        <ele>107.81</ele>
        <time>2023-08-24T15:31:20Z</time>
      </trkpt>
      <trkpt lat="57.999801998957992" lon="-5.112991025671363">
        <ele>108.29000000000001</ele>
        <time>2023-08-24T15:31:21Z</time>
      </trkpt>
      <trkpt lat="57.999760005623102" lon="-5.112822968512774">
        <ele>108.77</ele>
        <time>2023-08-24T15:31:22Z</time>
      </trkpt>
      <trkpt lat="57.999721029773355" lon="-5.112665975466371">
        <ele>108.77</ele>
        <time>2023-08-24T15:31:23Z</time>
      </trkpt>
      <trkpt lat="57.999681970104575" lon="-5.112530020996928">
        <ele>109.25</ele>
        <time>2023-08-24T15:31:24Z</time>
      </trkpt>
      <trkpt lat="57.999636037275195" lon="-5.112392976880074">
        <ele>109.25</ele>
        <time>2023-08-24T15:31:25Z</time>
      </trkpt>
      <trkpt lat="57.999539980664849" lon="-5.112103968858719">
        <ele>109.25</ele>
        <time>2023-08-24T15:31:27Z</time>
      </trkpt>
      <trkpt lat="57.999490024521947" lon="-5.11195401661098">
        <ele>109.73</ele>
        <time>2023-08-24T15:31:28Z</time>
      </trkpt>
      <trkpt lat="57.999464040622115" lon="-5.111796017736197">
        <ele>109.73</ele>
        <time>2023-08-24T15:31:29Z</time>
      </trkpt>
      <trkpt lat="57.999441996216774" lon="-5.111635001376271">
        <ele>109.73</ele>
        <time>2023-08-24T15:31:30Z</time>
      </trkpt>
      <trkpt lat="57.999430010095239" lon="-5.111471973359585">
        <ele>109.73</ele>
        <time>2023-08-24T15:31:31Z</time>
      </trkpt>
      <trkpt lat="57.999419029802084" lon="-5.111322021111846">
        <ele>110.20999999999999</ele>
        <time>2023-08-24T15:31:32Z</time>
      </trkpt>
      <trkpt lat="57.999407965689898" lon="-5.111177014186978">
        <ele>110.69</ele>
        <time>2023-08-24T15:31:33Z</time>
      </trkpt>
      <trkpt lat="57.999405032023787" lon="-5.11102999560535">
        <ele>111.17</ele>
        <time>2023-08-24T15:31:34Z</time>
      </trkpt>
      <trkpt lat="57.999435039237142" lon="-5.110275959596038">
        <ele>112.61</ele>
        <time>2023-08-24T15:31:39Z</time>
      </trkpt>
      <trkpt lat="57.999422969296575" lon="-5.110126007348299">
        <ele>113.09</ele>
        <time>2023-08-24T15:31:40Z</time>
      </trkpt>
      <trkpt lat="57.999404026195407" lon="-5.10997898876667">
        <ele>113.56999999999999</ele>
        <time>2023-08-24T15:31:41Z</time>
      </trkpt>
      <trkpt lat="57.999383993446827" lon="-5.109830964356661">
        <ele>114.05</ele>
        <time>2023-08-24T15:31:42Z</time>
      </trkpt>
      <trkpt lat="57.999331019818783" lon="-5.109689980745316">
        <ele>114.53</ele>
        <time>2023-08-24T15:31:43Z</time>
      </trkpt>
      <trkpt lat="57.999275028705597" lon="-5.109561989083886">
        <ele>115.5</ele>
        <time>2023-08-24T15:31:44Z</time>
      </trkpt>
      <trkpt lat="57.999219037592411" lon="-5.109433997422457">
        <ele>115.98</ele>
        <time>2023-08-24T15:31:45Z</time>
      </trkpt>
      <trkpt lat="57.999164974316955" lon="-5.10931002907455">
        <ele>116.45999999999999</ele>
        <time>2023-08-24T15:31:46Z</time>
      </trkpt>
      <trkpt lat="57.999057015404105" lon="-5.109066031873226">
        <ele>117.42</ele>
        <time>2023-08-24T15:31:48Z</time>
      </trkpt>
      <trkpt lat="57.999005969613791" lon="-5.108949020504952">
        <ele>117.90000000000001</ele>
        <time>2023-08-24T15:31:49Z</time>
      </trkpt>
      <trkpt lat="57.998998006805778" lon="-5.108822034671903">
        <ele>117.90000000000001</ele>
        <time>2023-08-24T15:31:50Z</time>
      </trkpt>
      <trkpt lat="57.99900303594768" lon="-5.108674010261893">
        <ele>118.38</ele>
        <time>2023-08-24T15:31:51Z</time>
      </trkpt>
      <trkpt lat="57.999007981270552" lon="-5.108519028872252">
        <ele>118.38</ele>
        <time>2023-08-24T15:31:52Z</time>
      </trkpt>
      <trkpt lat="57.999016027897596" lon="-5.108320964500308">
        <ele>118.86</ele>
        <time>2023-08-24T15:31:53Z</time>
      </trkpt>
      <trkpt lat="57.99904502928257" lon="-5.1082160230726">
        <ele>118.86</ele>
        <time>2023-08-24T15:31:54Z</time>
      </trkpt>
      <trkpt lat="57.99908903427422" lon="-5.108062969520688">
        <ele>118.86</ele>
        <time>2023-08-24T15:31:55Z</time>
      </trkpt>
      <trkpt lat="57.999288020655513" lon="-5.107367020100355">
        <ele>120.78</ele>
        <time>2023-08-24T15:31:59Z</time>
      </trkpt>
      <trkpt lat="57.999337976798415" lon="-5.107212038710713">
        <ele>120.78</ele>
        <time>2023-08-24T15:32:00Z</time>
      </trkpt>
      <trkpt lat="57.999591026455164" lon="-5.106565039604902">
        <ele>121.26000000000001</ele>
        <time>2023-08-24T15:32:04Z</time>
      </trkpt>
      <trkpt lat="57.999659003689885" lon="-5.106390025466681">
        <ele>120.78</ele>
        <time>2023-08-24T15:32:05Z</time>
      </trkpt>
      <trkpt lat="57.999671995639801" lon="-5.106205036863685">
        <ele>120.78</ele>
        <time>2023-08-24T15:32:06Z</time>
      </trkpt>
      <trkpt lat="57.999676018953323" lon="-5.106018958613277">
        <ele>121.26000000000001</ele>
        <time>2023-08-24T15:32:07Z</time>
      </trkpt>
      <trkpt lat="57.999663027003407" lon="-5.10583003051579">
        <ele>121.26000000000001</ele>
        <time>2023-08-24T15:32:08Z</time>
      </trkpt>
      <trkpt lat="57.999650035053492" lon="-5.10563800111413">
        <ele>121.73999999999999</ele>
        <time>2023-08-24T15:32:09Z</time>
      </trkpt>
      <trkpt lat="57.999636959284544" lon="-5.105440020561218">
        <ele>122.22</ele>
        <time>2023-08-24T15:32:10Z</time>
      </trkpt>
      <trkpt lat="57.999480972066522" lon="-5.103980982676148">
        <ele>124.15000000000001</ele>
        <time>2023-08-24T15:32:18Z</time>
      </trkpt>
      <trkpt lat="57.999438978731632" lon="-5.103847961872816">
        <ele>126.06999999999999</ele>
        <time>2023-08-24T15:32:24Z</time>
      </trkpt>
      <trkpt lat="57.999420035630465" lon="-5.10378803126514">
        <ele>126.55</ele>
        <time>2023-08-24T15:32:25Z</time>
      </trkpt>
      <trkpt lat="57.999458005651832" lon="-5.103658027946949">
        <ele>126.55</ele>
        <time>2023-08-24T15:32:26Z</time>
      </trkpt>
      <trkpt lat="57.999509973451495" lon="-5.103592984378338">
        <ele>127.03</ele>
        <time>2023-08-24T15:32:27Z</time>
      </trkpt>
      <trkpt lat="57.999578034505248" lon="-5.103506986051798">
        <ele>127.03</ele>
        <time>2023-08-24T15:32:28Z</time>
      </trkpt>
      <trkpt lat="57.999657997861505" lon="-5.103406989946961">
        <ele>127.03</ele>
        <time>2023-08-24T15:32:29Z</time>
      </trkpt>
      <trkpt lat="57.999751036986709" lon="-5.103289978578687">
        <ele>127.51000000000001</ele>
        <time>2023-08-24T15:32:30Z</time>
      </trkpt>
      <trkpt lat="58.000784022733569" lon="-5.102044008672237">
        <ele>131.36000000000001</ele>
        <time>2023-08-24T15:32:38Z</time>
      </trkpt>
      <trkpt lat="58.001681976020336" lon="-5.100998030975461">
        <ele>136.16</ele>
        <time>2023-08-24T15:32:44Z</time>
      </trkpt>
      <trkpt lat="58.001811979338527" lon="-5.100768031552434">
        <ele>137.13</ele>
        <time>2023-08-24T15:32:45Z</time>
      </trkpt>
      <trkpt lat="58.001917004585266" lon="-5.100507019087672">
        <ele>137.61000000000001</ele>
        <time>2023-08-24T15:32:46Z</time>
      </trkpt>
      <trkpt lat="58.00200903788209" lon="-5.100228991359472">
        <ele>138.56999999999999</ele>
        <time>2023-08-24T15:32:47Z</time>
      </trkpt>
      <trkpt lat="58.002080032601953" lon="-5.099920034408569">
        <ele>139.05000000000001</ele>
        <time>2023-08-24T15:32:48Z</time>
      </trkpt>
      <trkpt lat="58.002142980694771" lon="-5.099602025002241">
        <ele>139.53</ele>
        <time>2023-08-24T15:32:49Z</time>
      </trkpt>
      <trkpt lat="58.002187991514802" lon="-5.099270017817617">
        <ele>140.00999999999999</ele>
        <time>2023-08-24T15:32:50Z</time>
      </trkpt>
      <trkpt lat="58.002234008163214" lon="-5.098938010632992">
        <ele>140.49000000000001</ele>
        <time>2023-08-24T15:32:51Z</time>
      </trkpt>
      <trkpt lat="58.002326041460037" lon="-5.098265027627349">
        <ele>141.93000000000001</ele>
        <time>2023-08-24T15:32:53Z</time>
      </trkpt>
      <trkpt lat="58.002404998987913" lon="-5.097959004342556">
        <ele>142.41</ele>
        <time>2023-08-24T15:32:54Z</time>
      </trkpt>
      <trkpt lat="58.002503989264369" lon="-5.097663039341569">
        <ele>143.37</ele>
        <time>2023-08-24T15:32:55Z</time>
      </trkpt>
      <trkpt lat="58.003621967509389" lon="-5.095000024884939">
        <ele>151.06</ele>
        <time>2023-08-24T15:33:04Z</time>
      </trkpt>
      <trkpt lat="58.005056027323008" lon="-5.092225028201938">
        <ele>163.08000000000001</ele>
        <time>2023-08-24T15:33:14Z</time>
      </trkpt>
      <trkpt lat="58.005177984014153" lon="-5.091924034059048">
        <ele>164.52000000000001</ele>
        <time>2023-08-24T15:33:15Z</time>
      </trkpt>
      <trkpt lat="58.005668995901942" lon="-5.090740006417036">
        <ele>169.33000000000001</ele>
        <time>2023-08-24T15:33:19Z</time>
      </trkpt>
      <trkpt lat="58.005831018090248" lon="-5.09053397923708">
        <ele>170.77000000000001</ele>
        <time>2023-08-24T15:33:20Z</time>
      </trkpt>
      <trkpt lat="58.005995973944664" lon="-5.090333987027407">
        <ele>172.21000000000001</ele>
        <time>2023-08-24T15:33:21Z</time>
      </trkpt>
      <trkpt lat="58.007689034566283" lon="-5.088644027709961">
        <ele>183.75</ele>
        <time>2023-08-24T15:33:30Z</time>
      </trkpt>
      <trkpt lat="58.009890038520098" lon="-5.085972966626287">
        <ele>201.05000000000001</ele>
        <time>2023-08-24T15:33:42Z</time>
      </trkpt>
      <trkpt lat="58.012309977784753" lon="-5.083681019023061">
        <ele>217.88</ele>
        <time>2023-08-24T15:33:54Z</time>
      </trkpt>
      <trkpt lat="58.014690019190311" lon="-5.080716004595161">
        <ele>231.33000000000001</ele>
        <time>2023-08-24T15:34:06Z</time>
      </trkpt>
      <trkpt lat="58.015840016305447" lon="-5.079272976145148">
        <ele>235.18000000000001</ele>
        <time>2023-08-24T15:34:12Z</time>
      </trkpt>
      <trkpt lat="58.016051994636655" lon="-5.079131992533803">
        <ele>236.13999999999999</ele>
        <time>2023-08-24T15:34:13Z</time>
      </trkpt>
      <trkpt lat="58.016263972967863" lon="-5.078990003094077">
        <ele>236.62</ele>
        <time>2023-08-24T15:34:14Z</time>
      </trkpt>
      <trkpt lat="58.018315024673939" lon="-5.078190034255385">
        <ele>240.94999999999999</ele>
        <time>2023-08-24T15:34:23Z</time>
      </trkpt>
      <trkpt lat="58.021495034918189" lon="-5.076552964746952">
        <ele>244.78999999999999</ele>
        <time>2023-08-24T15:34:37Z</time>
      </trkpt>
      <trkpt lat="58.024182021617889" lon="-5.075156958773732">
        <ele>259.20999999999998</ele>
        <time>2023-08-24T15:34:50Z</time>
      </trkpt>
      <trkpt lat="58.026814023032784" lon="-5.073789032176137">
        <ele>257.29000000000002</ele>
        <time>2023-08-24T15:35:02Z</time>
      </trkpt>
      <trkpt lat="58.028236012905836" lon="-5.073166005313397">
        <ele>246.72</ele>
        <time>2023-08-24T15:35:08Z</time>
      </trkpt>
      <trkpt lat="58.02846098318696" lon="-5.073120994493365">
        <ele>245.27000000000001</ele>
        <time>2023-08-24T15:35:09Z</time>
      </trkpt>
      <trkpt lat="58.028682013973594" lon="-5.073100961744785">
        <ele>244.31</ele>
        <time>2023-08-24T15:35:10Z</time>
      </trkpt>
      <trkpt lat="58.030643966048956" lon="-5.07360203191638">
        <ele>237.09999999999999</ele>
        <time>2023-08-24T15:35:19Z</time>
      </trkpt>
      <trkpt lat="58.031513001769781" lon="-5.073485020548105">
        <ele>235.66</ele>
        <time>2023-08-24T15:35:23Z</time>
      </trkpt>
      <trkpt lat="58.031737972050905" lon="-5.073364991694689">
        <ele>235.18000000000001</ele>
        <time>2023-08-24T15:35:24Z</time>
      </trkpt>
      <trkpt lat="58.033653991296887" lon="-5.072108963504434">
        <ele>233.74000000000001</ele>
        <time>2023-08-24T15:35:32Z</time>
      </trkpt>
      <trkpt lat="58.035703031346202" lon="-5.070506008341909">
        <ele>233.74000000000001</ele>
        <time>2023-08-24T15:35:42Z</time>
      </trkpt>
      <trkpt lat="58.036552034318447" lon="-5.06932801567018">
        <ele>235.66</ele>
        <time>2023-08-24T15:35:47Z</time>
      </trkpt>
      <trkpt lat="58.036686982959509" lon="-5.069030039012432">
        <ele>236.13999999999999</ele>
        <time>2023-08-24T15:35:48Z</time>
      </trkpt>
      <trkpt lat="58.038071002811193" lon="-5.065721031278372">
        <ele>243.34999999999999</ele>
        <time>2023-08-24T15:35:58Z</time>
      </trkpt>
      <trkpt lat="58.039282020181417" lon="-5.063309976831079">
        <ele>250.56</ele>
        <time>2023-08-24T15:36:06Z</time>
      </trkpt>
      <trkpt lat="58.040187014266849" lon="-5.060945022851229">
        <ele>252</ele>
        <time>2023-08-24T15:36:13Z</time>
      </trkpt>
      <trkpt lat="58.042032038792968" lon="-5.057301996275783">
        <ele>246.22999999999999</ele>
        <time>2023-08-24T15:36:24Z</time>
      </trkpt>
      <trkpt lat="58.043429972603917" lon="-5.053753014653921">
        <ele>238.53999999999999</ele>
        <time>2023-08-24T15:36:34Z</time>
      </trkpt>
      <trkpt lat="58.044728999957442" lon="-5.050166985020042">
        <ele>223.63999999999999</ele>
        <time>2023-08-24T15:36:44Z</time>
      </trkpt>
      <trkpt lat="58.045416986569762" lon="-5.047591980546713">
        <ele>208.74000000000001</ele>
        <time>2023-08-24T15:36:51Z</time>
      </trkpt>
      <trkpt lat="58.045835997909307" lon="-5.044487994164228">
        <ele>193.36000000000001</ele>
        <time>2023-08-24T15:36:59Z</time>
      </trkpt>
      <trkpt lat="58.046226007863879" lon="-5.041835037991405">
        <ele>179.41999999999999</ele>
        <time>2023-08-24T15:37:08Z</time>
      </trkpt>
      <trkpt lat="58.04637998342514" lon="-5.040374994277954">
        <ele>175.09999999999999</ele>
        <time>2023-08-24T15:37:15Z</time>
      </trkpt>
      <trkpt lat="58.046342013403773" lon="-5.0393330398947">
        <ele>172.69</ele>
        <time>2023-08-24T15:37:20Z</time>
      </trkpt>
      <trkpt lat="58.046305971220136" lon="-5.039106979966164">
        <ele>172.21000000000001</ele>
        <time>2023-08-24T15:37:21Z</time>
      </trkpt>
      <trkpt lat="58.046254003420472" lon="-5.038896007463336">
        <ele>171.72999999999999</ele>
        <time>2023-08-24T15:37:22Z</time>
      </trkpt>
      <trkpt lat="58.045864999294281" lon="-5.03761600703001">
        <ele>170.28999999999999</ele>
        <time>2023-08-24T15:37:28Z</time>
      </trkpt>
      <trkpt lat="58.045827029272914" lon="-5.037397993728519">
        <ele>169.81</ele>
        <time>2023-08-24T15:37:29Z</time>
      </trkpt>
      <trkpt lat="58.045792998746037" lon="-5.037209987640381">
        <ele>169.81</ele>
        <time>2023-08-24T15:37:30Z</time>
      </trkpt>
      <trkpt lat="58.045814959332347" lon="-5.036995997652412">
        <ele>169.81</ele>
        <time>2023-08-24T15:37:31Z</time>
      </trkpt>
      <trkpt lat="58.045837003737688" lon="-5.036773961037397">
        <ele>170.28999999999999</ele>
        <time>2023-08-24T15:37:32Z</time>
      </trkpt>
      <trkpt lat="58.045871034264565" lon="-5.036539016291499">
        <ele>170.28999999999999</ele>
        <time>2023-08-24T15:37:33Z</time>
      </trkpt>
      <trkpt lat="58.045961977913976" lon="-5.036356961354613">
        <ele>170.77000000000001</ele>
        <time>2023-08-24T15:37:34Z</time>
      </trkpt>
      <trkpt lat="58.046057028695941" lon="-5.036167027428746">
        <ele>171.25</ele>
        <time>2023-08-24T15:37:35Z</time>
      </trkpt>
      <trkpt lat="58.046160964295268" lon="-5.035976003855467">
        <ele>171.25</ele>
        <time>2023-08-24T15:37:36Z</time>
      </trkpt>
      <trkpt lat="58.047059001401067" lon="-5.034548984840512">
        <ele>169.33000000000001</ele>
        <time>2023-08-24T15:37:45Z</time>
      </trkpt>
      <trkpt lat="58.047201996669173" lon="-5.034172972664237">
        <ele>168.84999999999999</ele>
        <time>2023-08-24T15:37:47Z</time>
      </trkpt>
      <trkpt lat="58.047890989109874" lon="-5.031985966488719">
        <ele>167.88999999999999</ele>
        <time>2023-08-24T15:37:58Z</time>
      </trkpt>
      <trkpt lat="58.04833397269249" lon="-5.030709989368916">
        <ele>166.93000000000001</ele>
        <time>2023-08-24T15:38:05Z</time>
      </trkpt>
      <trkpt lat="58.048405973240733" lon="-5.030552996322513">
        <ele>166.44999999999999</ele>
        <time>2023-08-24T15:38:06Z</time>
      </trkpt>
      <trkpt lat="58.048499012365937" lon="-5.030427016317844">
        <ele>166.44999999999999</ele>
        <time>2023-08-24T15:38:07Z</time>
      </trkpt>
      <trkpt lat="58.048601020127535" lon="-5.030325008556247">
        <ele>166.44999999999999</ele>
        <time>2023-08-24T15:38:08Z</time>
      </trkpt>
      <trkpt lat="58.048705039545894" lon="-5.030221994966269">
        <ele>165.96000000000001</ele>
        <time>2023-08-24T15:38:09Z</time>
      </trkpt>
      <trkpt lat="58.048821967095137" lon="-5.030162986367941">
        <ele>165.96000000000001</ele>
        <time>2023-08-24T15:38:10Z</time>
      </trkpt>
      <trkpt lat="58.048946019262075" lon="-5.030145971104503">
        <ele>165.96000000000001</ele>
        <time>2023-08-24T15:38:11Z</time>
      </trkpt>
      <trkpt lat="58.049070993438363" lon="-5.030129039660096">
        <ele>165.96000000000001</ele>
        <time>2023-08-24T15:38:12Z</time>
      </trkpt>
      <trkpt lat="58.049225974828005" lon="-5.030108001083136">
        <ele>165.47999999999999</ele>
        <time>2023-08-24T15:38:13Z</time>
      </trkpt>
      <trkpt lat="58.04932001978159" lon="-5.030154017731547">
        <ele>165.47999999999999</ele>
        <time>2023-08-24T15:38:14Z</time>
      </trkpt>
      <trkpt lat="58.049439964815974" lon="-5.030214032158256">
        <ele>165.47999999999999</ele>
        <time>2023-08-24T15:38:15Z</time>
      </trkpt>
      <trkpt lat="58.049548007547855" lon="-5.030336994677782">
        <ele>165</ele>
        <time>2023-08-24T15:38:16Z</time>
      </trkpt>
      <trkpt lat="58.049653032794595" lon="-5.030457023531199">
        <ele>165</ele>
        <time>2023-08-24T15:38:17Z</time>
      </trkpt>
      <trkpt lat="58.049758980050683" lon="-5.030599012970924">
        <ele>164.52000000000001</ele>
        <time>2023-08-24T15:38:18Z</time>
      </trkpt>
      <trkpt lat="58.049835003912449" lon="-5.030779978260398">
        <ele>165</ele>
        <time>2023-08-24T15:38:19Z</time>
      </trkpt>
      <trkpt lat="58.049912033602595" lon="-5.030963961035013">
        <ele>165</ele>
        <time>2023-08-24T15:38:20Z</time>
      </trkpt>
      <trkpt lat="58.04998897947371" lon="-5.031149033457041">
        <ele>165</ele>
        <time>2023-08-24T15:38:21Z</time>
      </trkpt>
      <trkpt lat="58.050067014992237" lon="-5.031333016231656">
        <ele>165.47999999999999</ele>
        <time>2023-08-24T15:38:22Z</time>
      </trkpt>
      <trkpt lat="58.05037597194314" lon="-5.032069031149149">
        <ele>165.47999999999999</ele>
        <time>2023-08-24T15:38:26Z</time>
      </trkpt>
      <trkpt lat="58.050450989976525" lon="-5.032249996438623">
        <ele>165</ele>
        <time>2023-08-24T15:38:27Z</time>
      </trkpt>
      <trkpt lat="58.050556015223265" lon="-5.03237497061491">
        <ele>164.52000000000001</ele>
        <time>2023-08-24T15:38:28Z</time>
      </trkpt>
      <trkpt lat="58.050675038248301" lon="-5.032487036660314">
        <ele>163.56</ele>
        <time>2023-08-24T15:38:29Z</time>
      </trkpt>
      <trkpt lat="58.050796994939446" lon="-5.032598013058305">
        <ele>162.59999999999999</ele>
        <time>2023-08-24T15:38:30Z</time>
      </trkpt>
      <trkpt lat="58.050931021571159" lon="-5.032660039141774">
        <ele>161.63999999999999</ele>
        <time>2023-08-24T15:38:31Z</time>
      </trkpt>
      <trkpt lat="58.051064964383841" lon="-5.032721981406212">
        <ele>160.19999999999999</ele>
        <time>2023-08-24T15:38:32Z</time>
      </trkpt>
      <trkpt lat="58.051199996843934" lon="-5.032717036083341">
        <ele>159.24000000000001</ele>
        <time>2023-08-24T15:38:33Z</time>
      </trkpt>
      <trkpt lat="58.051334023475647" lon="-5.032707983627915">
        <ele>157.78999999999999</ele>
        <time>2023-08-24T15:38:34Z</time>
      </trkpt>
      <trkpt lat="58.051463020965457" lon="-5.032649980857968">
        <ele>156.34999999999999</ele>
        <time>2023-08-24T15:38:35Z</time>
      </trkpt>
      <trkpt lat="58.051591012626886" lon="-5.032548978924751">
        <ele>155.38999999999999</ele>
        <time>2023-08-24T15:38:36Z</time>
      </trkpt>
      <trkpt lat="58.051716992631555" lon="-5.032427022233605">
        <ele>153.94999999999999</ele>
        <time>2023-08-24T15:38:37Z</time>
      </trkpt>
      <trkpt lat="58.051825035363436" lon="-5.032229963690043">
        <ele>152.50999999999999</ele>
        <time>2023-08-24T15:38:38Z</time>
      </trkpt>
      <trkpt lat="58.051936011761427" lon="-5.032027959823608">
        <ele>151.06</ele>
        <time>2023-08-24T15:38:39Z</time>
      </trkpt>
      <trkpt lat="58.052046988159418" lon="-5.031825033947825">
        <ele>150.58000000000001</ele>
        <time>2023-08-24T15:38:40Z</time>
      </trkpt>
      <trkpt lat="58.052156958729029" lon="-5.031625041738153">
        <ele>149.13999999999999</ele>
        <time>2023-08-24T15:38:41Z</time>
      </trkpt>
      <trkpt lat="58.052590973675251" lon="-5.030883997678757">
        <ele>147.22</ele>
        <time>2023-08-24T15:38:45Z</time>
      </trkpt>
      <trkpt lat="58.052713014185429" lon="-5.030762040987611">
        <ele>146.74000000000001</ele>
        <time>2023-08-24T15:38:46Z</time>
      </trkpt>
      <trkpt lat="58.052841005846858" lon="-5.030690040439367">
        <ele>147.22</ele>
        <time>2023-08-24T15:38:47Z</time>
      </trkpt>
      <trkpt lat="58.052979977801442" lon="-5.03065399825573">
        <ele>147.22</ele>
        <time>2023-08-24T15:38:48Z</time>
      </trkpt>
      <trkpt lat="58.053122973069549" lon="-5.030618039891124">
        <ele>147.22</ele>
        <time>2023-08-24T15:38:49Z</time>
      </trkpt>
      <trkpt lat="58.054722994565964" lon="-5.030057961121202">
        <ele>144.81999999999999</ele>
        <time>2023-08-24T15:39:00Z</time>
      </trkpt>
      <trkpt lat="58.056524014100432" lon="-5.029477011412382">
        <ele>141.44999999999999</ele>
        <time>2023-08-24T15:39:12Z</time>
      </trkpt>
      <trkpt lat="58.058577999472618" lon="-5.029231002554297">
        <ele>140.00999999999999</ele>
        <time>2023-08-24T15:39:26Z</time>
      </trkpt>
      <trkpt lat="58.059010002762079" lon="-5.029084989801049">
        <ele>140.00999999999999</ele>
        <time>2023-08-24T15:39:29Z</time>
      </trkpt>
      <trkpt lat="58.059156015515327" lon="-5.028976025059819">
        <ele>140.49000000000001</ele>
        <time>2023-08-24T15:39:30Z</time>
      </trkpt>
      <trkpt lat="58.059972999617457" lon="-5.028114030137658">
        <ele>140.49000000000001</ele>
        <time>2023-08-24T15:39:36Z</time>
      </trkpt>
      <trkpt lat="58.060074001550674" lon="-5.027900962159038">
        <ele>140.49000000000001</ele>
        <time>2023-08-24T15:39:37Z</time>
      </trkpt>
      <trkpt lat="58.060159999877214" lon="-5.027664005756378">
        <ele>140.49000000000001</ele>
        <time>2023-08-24T15:39:38Z</time>
      </trkpt>
      <trkpt lat="58.061050996184349" lon="-5.024863025173545">
        <ele>142.88999999999999</ele>
        <time>2023-08-24T15:39:50Z</time>
      </trkpt>
      <trkpt lat="58.061594981700182" lon="-5.022852960973978">
        <ele>144.81999999999999</ele>
        <time>2023-08-24T15:39:57Z</time>
      </trkpt>
      <trkpt lat="58.061661031097174" lon="-5.022524977102876">
        <ele>144.81999999999999</ele>
        <time>2023-08-24T15:39:58Z</time>
      </trkpt>
      <trkpt lat="58.061706963926554" lon="-5.022185007110238">
        <ele>144.34</ele>
        <time>2023-08-24T15:39:59Z</time>
      </trkpt>
      <trkpt lat="58.061735965311527" lon="-5.021827016025782">
        <ele>144.34</ele>
        <time>2023-08-24T15:40:00Z</time>
      </trkpt>
      <trkpt lat="58.062122035771608" lon="-5.018541980534792">
        <ele>142.41</ele>
        <time>2023-08-24T15:40:09Z</time>
      </trkpt>
      <trkpt lat="58.062773980200291" lon="-5.015187961980701">
        <ele>138.56999999999999</ele>
        <time>2023-08-24T15:40:19Z</time>
      </trkpt>
      <trkpt lat="58.06285897269845" lon="-5.013474030420184">
        <ele>134.72</ele>
        <time>2023-08-24T15:40:24Z</time>
      </trkpt>
      <trkpt lat="58.062843969091773" lon="-5.013135988265276">
        <ele>134.24000000000001</ele>
        <time>2023-08-24T15:40:25Z</time>
      </trkpt>
      <trkpt lat="58.062460999935865" lon="-5.010106014087796">
        <ele>130.40000000000001</ele>
        <time>2023-08-24T15:40:34Z</time>
      </trkpt>
      <trkpt lat="58.061921959742904" lon="-5.006885016337037">
        <ele>129.43000000000001</ele>
        <time>2023-08-24T15:40:44Z</time>
      </trkpt>
      <trkpt lat="58.061755998060107" lon="-5.005502002313733">
        <ele>129.43000000000001</ele>
        <time>2023-08-24T15:40:48Z</time>
      </trkpt>
      <trkpt lat="58.061742000281811" lon="-5.005128001794219">
        <ele>128.94999999999999</ele>
        <time>2023-08-24T15:40:49Z</time>
      </trkpt>
      <trkpt lat="58.061753986403346" lon="-5.004751989617944">
        <ele>128.94999999999999</ele>
        <time>2023-08-24T15:40:50Z</time>
      </trkpt>
      <trkpt lat="58.061834033578634" lon="-5.004364997148514">
        <ele>128.94999999999999</ele>
        <time>2023-08-24T15:40:51Z</time>
      </trkpt>
      <trkpt lat="58.061929000541568" lon="-5.004015974700451">
        <ele>129.43000000000001</ele>
        <time>2023-08-24T15:40:52Z</time>
      </trkpt>
      <trkpt lat="58.062038971111178" lon="-5.003682039678097">
        <ele>129.43000000000001</ele>
        <time>2023-08-24T15:40:53Z</time>
      </trkpt>
      <trkpt lat="58.062151037156582" lon="-5.003339974209666">
        <ele>129.43000000000001</ele>
        <time>2023-08-24T15:40:54Z</time>
      </trkpt>
      <trkpt lat="58.062563007697463" lon="-5.001946985721588">
        <ele>130.40000000000001</ele>
        <time>2023-08-24T15:40:58Z</time>
      </trkpt>
      <trkpt lat="58.062630984932184" lon="-5.001568039879203">
        <ele>130.88</ele>
        <time>2023-08-24T15:40:59Z</time>
      </trkpt>
      <trkpt lat="58.062670966610312" lon="-5.001174006611109">
        <ele>130.88</ele>
        <time>2023-08-24T15:41:00Z</time>
      </trkpt>
      <trkpt lat="58.063086038455367" lon="-4.997021025046706">
        <ele>135.68000000000001</ele>
        <time>2023-08-24T15:41:11Z</time>
      </trkpt>
      <trkpt lat="58.063306985422969" lon="-4.995185974985361">
        <ele>135.68000000000001</ele>
        <time>2023-08-24T15:41:16Z</time>
      </trkpt>
      <trkpt lat="58.063388038426638" lon="-4.994795965030789">
        <ele>135.68000000000001</ele>
        <time>2023-08-24T15:41:17Z</time>
      </trkpt>
      <trkpt lat="58.063779976218939" lon="-4.993155039846897">
        <ele>134.24000000000001</ele>
        <time>2023-08-24T15:41:21Z</time>
      </trkpt>
      <trkpt lat="58.063846025615931" lon="-4.992718007415533">
        <ele>133.75999999999999</ele>
        <time>2023-08-24T15:41:22Z</time>
      </trkpt>
      <trkpt lat="58.06386798620224" lon="-4.992258008569479">
        <ele>133.75999999999999</ele>
        <time>2023-08-24T15:41:23Z</time>
      </trkpt>
      <trkpt lat="58.063877960667014" lon="-4.991799015551806">
        <ele>134.24000000000001</ele>
        <time>2023-08-24T15:41:24Z</time>
      </trkpt>
      <trkpt lat="58.063875027000904" lon="-4.991343040019274">
        <ele>134.24000000000001</ele>
        <time>2023-08-24T15:41:25Z</time>
      </trkpt>
      <trkpt lat="58.063861029222608" lon="-4.990891003981233">
        <ele>134.24000000000001</ele>
        <time>2023-08-24T15:41:26Z</time>
      </trkpt>
      <trkpt lat="58.063788022845984" lon="-4.985905028879643">
        <ele>138.56999999999999</ele>
        <time>2023-08-24T15:41:38Z</time>
      </trkpt>
      <trkpt lat="58.063828004524112" lon="-4.985555000603199">
        <ele>139.05000000000001</ele>
        <time>2023-08-24T15:41:39Z</time>
      </trkpt>
      <trkpt lat="58.063892964273691" lon="-4.985237997025251">
        <ele>139.05000000000001</ele>
        <time>2023-08-24T15:41:40Z</time>
      </trkpt>
      <trkpt lat="58.063972005620599" lon="-4.984921999275684">
        <ele>139.53</ele>
        <time>2023-08-24T15:41:41Z</time>
      </trkpt>
      <trkpt lat="58.064073007553816" lon="-4.98461002483964">
        <ele>139.53</ele>
        <time>2023-08-24T15:41:42Z</time>
      </trkpt>
      <trkpt lat="58.064194964244962" lon="-4.984298972412944">
        <ele>139.53</ele>
        <time>2023-08-24T15:41:43Z</time>
      </trkpt>
      <trkpt lat="58.064327985048294" lon="-4.98398800380528">
        <ele>139.05000000000001</ele>
        <time>2023-08-24T15:41:44Z</time>
      </trkpt>
      <trkpt lat="58.064482966437936" lon="-4.983697989955545">
        <ele>139.05000000000001</ele>
        <time>2023-08-24T15:41:45Z</time>
      </trkpt>
      <trkpt lat="58.065996989607811" lon="-4.980746973305941">
        <ele>134.72</ele>
        <time>2023-08-24T15:41:55Z</time>
      </trkpt>
      <trkpt lat="58.066074019297957" lon="-4.980474980548024">
        <ele>134.24000000000001</ele>
        <time>2023-08-24T15:41:56Z</time>
      </trkpt>
      <trkpt lat="58.066121963784099" lon="-4.980196030810475">
        <ele>133.75999999999999</ele>
        <time>2023-08-24T15:41:57Z</time>
      </trkpt>
      <trkpt lat="58.066146019846201" lon="-4.979880033060908">
        <ele>133.28</ele>
        <time>2023-08-24T15:41:58Z</time>
      </trkpt>
      <trkpt lat="58.066154988482594" lon="-4.979549031704664">
        <ele>132.80000000000001</ele>
        <time>2023-08-24T15:41:59Z</time>
      </trkpt>
      <trkpt lat="58.066151970997453" lon="-4.979194980114698">
        <ele>132.80000000000001</ele>
        <time>2023-08-24T15:42:00Z</time>
      </trkpt>
      <trkpt lat="58.066233024001122" lon="-4.975457992404699">
        <ele>138.56999999999999</ele>
        <time>2023-08-24T15:42:10Z</time>
      </trkpt>
      <trkpt lat="58.066347017884254" lon="-4.973620008677244">
        <ele>144.34</ele>
        <time>2023-08-24T15:42:16Z</time>
      </trkpt>
      <trkpt lat="58.066600989550352" lon="-4.972205981612206">
        <ele>148.18000000000001</ele>
        <time>2023-08-24T15:42:23Z</time>
      </trkpt>
      <trkpt lat="58.066620016470551" lon="-4.972117971628904">
        <ele>148.66</ele>
        <time>2023-08-24T15:42:24Z</time>
      </trkpt>
      <trkpt lat="58.066633008420467" lon="-4.972058963030577">
        <ele>149.13999999999999</ele>
        <time>2023-08-24T15:42:25Z</time>
      </trkpt>
      <trkpt lat="58.066604007035494" lon="-4.97193499468267">
        <ele>149.13999999999999</ele>
        <time>2023-08-24T15:42:26Z</time>
      </trkpt>
      <trkpt lat="58.06655203923583" lon="-4.971887972205877">
        <ele>149.13999999999999</ele>
        <time>2023-08-24T15:42:27Z</time>
      </trkpt>
      <trkpt lat="58.066480960696936" lon="-4.971822006627917">
        <ele>149.62</ele>
        <time>2023-08-24T15:42:28Z</time>
      </trkpt>
      <trkpt lat="58.066394040361047" lon="-4.97174103744328">
        <ele>149.62</ele>
        <time>2023-08-24T15:42:29Z</time>
      </trkpt>
      <trkpt lat="58.066297983750701" lon="-4.971652021631599">
        <ele>149.62</ele>
        <time>2023-08-24T15:42:30Z</time>
      </trkpt>
      <trkpt lat="58.066192036494613" lon="-4.971553031355143">
        <ele>149.62</ele>
        <time>2023-08-24T15:42:31Z</time>
      </trkpt>
      <trkpt lat="58.066073013469577" lon="-4.9714429769665">
        <ele>149.13999999999999</ele>
        <time>2023-08-24T15:42:32Z</time>
      </trkpt>
      <trkpt lat="58.064923016354442" lon="-4.970191977918148">
        <ele>148.18000000000001</ele>
        <time>2023-08-24T15:42:40Z</time>
      </trkpt>
      <trkpt lat="58.062897026538849" lon="-4.967099977657199">
        <ele>145.78</ele>
        <time>2023-08-24T15:42:54Z</time>
      </trkpt>
      <trkpt lat="58.060913030058146" lon="-4.963661972433329">
        <ele>148.18000000000001</ele>
        <time>2023-08-24T15:43:09Z</time>
      </trkpt>
      <trkpt lat="58.059231033548713" lon="-4.959297012537718">
        <ele>151.06</ele>
        <time>2023-08-24T15:43:24Z</time>
      </trkpt>
      <trkpt lat="58.057882972061634" lon="-4.955014027655125">
        <ele>149.62</ele>
        <time>2023-08-24T15:43:37Z</time>
      </trkpt>
      <trkpt lat="58.056704979389906" lon="-4.951340993866324">
        <ele>149.62</ele>
        <time>2023-08-24T15:43:49Z</time>
      </trkpt>
      <trkpt lat="58.056599032133818" lon="-4.951107976958156">
        <ele>149.62</ele>
        <time>2023-08-24T15:43:50Z</time>
      </trkpt>
      <trkpt lat="58.055453980341554" lon="-4.949457999318838">
        <ele>148.18000000000001</ele>
        <time>2023-08-24T15:43:59Z</time>
      </trkpt>
      <trkpt lat="58.05454202927649" lon="-4.947363026440144">
        <ele>147.22</ele>
        <time>2023-08-24T15:44:07Z</time>
      </trkpt>
      <trkpt lat="58.053714986890554" lon="-4.945051968097687">
        <ele>148.18000000000001</ele>
        <time>2023-08-24T15:44:15Z</time>
      </trkpt>
      <trkpt lat="58.053048960864544" lon="-4.942654995247722">
        <ele>146.74000000000001</ele>
        <time>2023-08-24T15:44:23Z</time>
      </trkpt>
      <trkpt lat="58.05243800394237" lon="-4.939424023032188">
        <ele>145.78</ele>
        <time>2023-08-24T15:44:34Z</time>
      </trkpt>
      <trkpt lat="58.051758985966444" lon="-4.937183959409595">
        <ele>144.81999999999999</ele>
        <time>2023-08-24T15:44:42Z</time>
      </trkpt>
      <trkpt lat="58.050886010751128" lon="-4.934734012931585">
        <ele>144.34</ele>
        <time>2023-08-24T15:44:51Z</time>
      </trkpt>
      <trkpt lat="58.050616029649973" lon="-4.934266973286867">
        <ele>144.34</ele>
        <time>2023-08-24T15:44:53Z</time>
      </trkpt>
      <trkpt lat="58.050463981926441" lon="-4.934073016047478">
        <ele>144.34</ele>
        <time>2023-08-24T15:44:54Z</time>
      </trkpt>
      <trkpt lat="58.050303971394897" lon="-4.93390403687954">
        <ele>144.34</ele>
        <time>2023-08-24T15:44:55Z</time>
      </trkpt>
      <trkpt lat="58.048513010144234" lon="-4.931824989616871">
        <ele>146.74000000000001</ele>
        <time>2023-08-24T15:45:07Z</time>
      </trkpt>
      <trkpt lat="58.047553030773997" lon="-4.930214993655682">
        <ele>148.18000000000001</ele>
        <time>2023-08-24T15:45:14Z</time>
      </trkpt>
      <trkpt lat="58.047436019405723" lon="-4.929987005889416">
        <ele>148.66</ele>
        <time>2023-08-24T15:45:15Z</time>
      </trkpt>
      <trkpt lat="58.047353960573673" lon="-4.929705038666725">
        <ele>149.13999999999999</ele>
        <time>2023-08-24T15:45:16Z</time>
      </trkpt>
      <trkpt lat="58.046880969777703" lon="-4.927433039993048">
        <ele>151.06</ele>
        <time>2023-08-24T15:45:23Z</time>
      </trkpt>
      <trkpt lat="58.046715008094907" lon="-4.926600968465209">
        <ele>151.53999999999999</ele>
        <time>2023-08-24T15:45:27Z</time>
      </trkpt>
      <trkpt lat="58.046659016981721" lon="-4.926443975418806">
        <ele>152.03</ele>
        <time>2023-08-24T15:45:30Z</time>
      </trkpt>
      <trkpt lat="58.046401022002101" lon="-4.9257190246135">
        <ele>152.50999999999999</ele>
        <time>2023-08-24T15:45:35Z</time>
      </trkpt>
      <trkpt lat="58.04605501703918" lon="-4.924744963645935">
        <ele>153.47</ele>
        <time>2023-08-24T15:45:40Z</time>
      </trkpt>
      <trkpt lat="58.045593006536365" lon="-4.923041006550193">
        <ele>153.47</ele>
        <time>2023-08-24T15:45:47Z</time>
      </trkpt>
      <trkpt lat="58.044730005785823" lon="-4.919723030179739">
        <ele>153.47</ele>
        <time>2023-08-24T15:45:58Z</time>
      </trkpt>
      <trkpt lat="58.044176967814565" lon="-4.917865013703704">
        <ele>155.87</ele>
        <time>2023-08-24T15:46:05Z</time>
      </trkpt>
      <trkpt lat="58.043378004804254" lon="-4.91459297016263">
        <ele>159.24000000000001</ele>
        <time>2023-08-24T15:46:16Z</time>
      </trkpt>
      <trkpt lat="58.042976008728147" lon="-4.911113977432251">
        <ele>161.16</ele>
        <time>2023-08-24T15:46:26Z</time>
      </trkpt>
      <trkpt lat="58.042951030656695" lon="-4.908784981817007">
        <ele>159.72</ele>
        <time>2023-08-24T15:46:33Z</time>
      </trkpt>
      <trkpt lat="58.042912976816297" lon="-4.908444005995989">
        <ele>159.24000000000001</ele>
        <time>2023-08-24T15:46:34Z</time>
      </trkpt>
      <trkpt lat="58.04287601262331" lon="-4.908105041831732">
        <ele>159.24000000000001</ele>
        <time>2023-08-24T15:46:35Z</time>
      </trkpt>
      <trkpt lat="58.042785990983248" lon="-4.907793989405036">
        <ele>158.75</ele>
        <time>2023-08-24T15:46:36Z</time>
      </trkpt>
      <trkpt lat="58.042699992656708" lon="-4.907498024404049">
        <ele>158.27000000000001</ele>
        <time>2023-08-24T15:46:37Z</time>
      </trkpt>
      <trkpt lat="58.042610976845026" lon="-4.907195018604398">
        <ele>157.78999999999999</ele>
        <time>2023-08-24T15:46:38Z</time>
      </trkpt>
      <trkpt lat="58.041802039369941" lon="-4.904223969206214">
        <ele>153.94999999999999</ele>
        <time>2023-08-24T15:46:48Z</time>
      </trkpt>
      <trkpt lat="58.041597018018365" lon="-4.903542017564178">
        <ele>153.47</ele>
        <time>2023-08-24T15:46:51Z</time>
      </trkpt>
      <trkpt lat="58.040839964523911" lon="-4.901978960260749">
        <ele>153.94999999999999</ele>
        <time>2023-08-24T15:46:58Z</time>
      </trkpt>
      <trkpt lat="58.038961999118328" lon="-4.89897002466023">
        <ele>157.31</ele>
        <time>2023-08-24T15:47:12Z</time>
      </trkpt>
      <trkpt lat="58.038856973871589" lon="-4.898802973330021">
        <ele>157.31</ele>
        <time>2023-08-24T15:47:16Z</time>
      </trkpt>
      <trkpt lat="58.038682965561748" lon="-4.898526035249233">
        <ele>157.31</ele>
        <time>2023-08-24T15:47:30Z</time>
      </trkpt>
      <trkpt lat="58.038034038618207" lon="-4.897493971511722">
        <ele>155.38999999999999</ele>
        <time>2023-08-24T15:47:36Z</time>
      </trkpt>
      <trkpt lat="58.036476010456681" lon="-4.895016029477119">
        <ele>153.94999999999999</ele>
        <time>2023-08-24T15:47:49Z</time>
      </trkpt>
      <trkpt lat="58.035089978948236" lon="-4.892348991706967">
        <ele>152.03</ele>
        <time>2023-08-24T15:48:00Z</time>
      </trkpt>
      <trkpt lat="58.033406976610422" lon="-4.889270989224315">
        <ele>153.94999999999999</ele>
        <time>2023-08-24T15:48:13Z</time>
      </trkpt>
      <trkpt lat="58.032123958691955" lon="-4.888097019866109">
        <ele>156.83000000000001</ele>
        <time>2023-08-24T15:48:21Z</time>
      </trkpt>
      <trkpt lat="58.031509984284639" lon="-4.887679014354944">
        <ele>158.75</ele>
        <time>2023-08-24T15:48:25Z</time>
      </trkpt>
      <trkpt lat="58.031371012330055" lon="-4.887581029906869">
        <ele>159.24000000000001</ele>
        <time>2023-08-24T15:48:26Z</time>
      </trkpt>
      <trkpt lat="58.031257018446922" lon="-4.887410961091518">
        <ele>160.19999999999999</ele>
        <time>2023-08-24T15:48:27Z</time>
      </trkpt>
      <trkpt lat="58.031160961836576" lon="-4.887211974710226">
        <ele>160.68000000000001</ele>
        <time>2023-08-24T15:48:28Z</time>
      </trkpt>
      <trkpt lat="58.031074963510036" lon="-4.886968983337283">
        <ele>161.63999999999999</ele>
        <time>2023-08-24T15:48:29Z</time>
      </trkpt>
      <trkpt lat="58.030984019860625" lon="-4.886711994186044">
        <ele>162.12</ele>
        <time>2023-08-24T15:48:30Z</time>
      </trkpt>
      <trkpt lat="58.030322017148137" lon="-4.884289959445596">
        <ele>164.52000000000001</ele>
        <time>2023-08-24T15:48:38Z</time>
      </trkpt>
      <trkpt lat="58.029300011694431" lon="-4.880659002810717">
        <ele>165</ele>
        <time>2023-08-24T15:48:50Z</time>
      </trkpt>
      <trkpt lat="58.028595009818673" lon="-4.878756981343031">
        <ele>166.44999999999999</ele>
        <time>2023-08-24T15:48:58Z</time>
      </trkpt>
      <trkpt lat="58.028419995680451" lon="-4.878286002203822">
        <ele>166.93000000000001</ele>
        <time>2023-08-24T15:49:02Z</time>
      </trkpt>
      <trkpt lat="58.027996961027384" lon="-4.877144973725081">
        <ele>165.96000000000001</ele>
        <time>2023-08-24T15:49:08Z</time>
      </trkpt>
      <trkpt lat="58.027142006903887" lon="-4.874965008348227">
        <ele>165</ele>
        <time>2023-08-24T15:49:17Z</time>
      </trkpt>
      <trkpt lat="58.02592302672565" lon="-4.873173041269183">
        <ele>165</ele>
        <time>2023-08-24T15:49:26Z</time>
      </trkpt>
      <trkpt lat="58.025174019858241" lon="-4.871744010597467">
        <ele>164.03999999999999</ele>
        <time>2023-08-24T15:49:33Z</time>
      </trkpt>
      <trkpt lat="58.024875037372112" lon="-4.870169973000884">
        <ele>161.63999999999999</ele>
        <time>2023-08-24T15:49:39Z</time>
      </trkpt>
      <trkpt lat="58.024470023810863" lon="-4.867421966046095">
        <ele>159.24000000000001</ele>
        <time>2023-08-24T15:49:48Z</time>
      </trkpt>
      <trkpt lat="58.024399029091001" lon="-4.867184003815055">
        <ele>158.75</ele>
        <time>2023-08-24T15:49:49Z</time>
      </trkpt>
      <trkpt lat="58.024292998015881" lon="-4.867007983848453">
        <ele>158.75</ele>
        <time>2023-08-24T15:49:50Z</time>
      </trkpt>
      <trkpt lat="58.024167018011212" lon="-4.866853002458811">
        <ele>158.27000000000001</ele>
        <time>2023-08-24T15:49:51Z</time>
      </trkpt>
      <trkpt lat="58.0240139644593" lon="-4.866663990542293">
        <ele>157.78999999999999</ele>
        <time>2023-08-24T15:49:52Z</time>
      </trkpt>
      <trkpt lat="58.023893013596535" lon="-4.866574974730611">
        <ele>157.31</ele>
        <time>2023-08-24T15:49:53Z</time>
      </trkpt>
      <trkpt lat="58.023740965873003" lon="-4.86646399833262">
        <ele>156.83000000000001</ele>
        <time>2023-08-24T15:49:54Z</time>
      </trkpt>
      <trkpt lat="58.022425007075071" lon="-4.865495972335339">
        <ele>154.91</ele>
        <time>2023-08-24T15:50:03Z</time>
      </trkpt>
      <trkpt lat="58.020559027791023" lon="-4.863913971930742">
        <ele>153.47</ele>
        <time>2023-08-24T15:50:15Z</time>
      </trkpt>
      <trkpt lat="58.019341975450516" lon="-4.862607987597585">
        <ele>160.19999999999999</ele>
        <time>2023-08-24T15:50:24Z</time>
      </trkpt>
      <trkpt lat="58.018157025799155" lon="-4.860851978883147">
        <ele>168.37</ele>
        <time>2023-08-24T15:50:34Z</time>
      </trkpt>
      <trkpt lat="58.016968974843621" lon="-4.859836008399725">
        <ele>171.72999999999999</ele>
        <time>2023-08-24T15:50:42Z</time>
      </trkpt>
      <trkpt lat="58.015507003292441" lon="-4.858395997434855">
        <ele>173.66</ele>
        <time>2023-08-24T15:50:52Z</time>
      </trkpt>
      <trkpt lat="58.014587005600333" lon="-4.856587015092373">
        <ele>177.97999999999999</ele>
        <time>2023-08-24T15:51:01Z</time>
      </trkpt>
      <trkpt lat="58.013602970167994" lon="-4.854077976197004">
        <ele>177.97999999999999</ele>
        <time>2023-08-24T15:51:10Z</time>
      </trkpt>
      <trkpt lat="58.012748016044497" lon="-4.851193008944392">
        <ele>176.06</ele>
        <time>2023-08-24T15:51:19Z</time>
      </trkpt>
      <trkpt lat="58.012719014659524" lon="-4.85082202591002">
        <ele>175.58000000000001</ele>
        <time>2023-08-24T15:51:20Z</time>
      </trkpt>
      <trkpt lat="58.012691019102931" lon="-4.850474009290338">
        <ele>175.09999999999999</ele>
        <time>2023-08-24T15:51:21Z</time>
      </trkpt>
      <trkpt lat="58.01228298805654" lon="-4.847286958247423">
        <ele>171.72999999999999</ele>
        <time>2023-08-24T15:51:30Z</time>
      </trkpt>
      <trkpt lat="58.01146499812603" lon="-4.84474497847259">
        <ele>169.81</ele>
        <time>2023-08-24T15:51:38Z</time>
      </trkpt>
      <trkpt lat="58.010303014889359" lon="-4.842731980606914">
        <ele>166.93000000000001</ele>
        <time>2023-08-24T15:51:46Z</time>
      </trkpt>
      <trkpt lat="58.009634977206588" lon="-4.841700000688434">
        <ele>164.52000000000001</ele>
        <time>2023-08-24T15:51:51Z</time>
      </trkpt>
      <trkpt lat="58.00953296944499" lon="-4.841420967131853">
        <ele>164.52000000000001</ele>
        <time>2023-08-24T15:51:52Z</time>
      </trkpt>
      <trkpt lat="58.008651025593281" lon="-4.838801035657525">
        <ele>162.59999999999999</ele>
        <time>2023-08-24T15:52:00Z</time>
      </trkpt>
      <trkpt lat="58.007755000144243" lon="-4.83640699647367">
        <ele>160.19999999999999</ele>
        <time>2023-08-24T15:52:08Z</time>
      </trkpt>
      <trkpt lat="58.006827039644122" lon="-4.834572030231357">
        <ele>158.75</ele>
        <time>2023-08-24T15:52:16Z</time>
      </trkpt>
      <trkpt lat="58.006203006953001" lon="-4.832779979333282">
        <ele>159.72</ele>
        <time>2023-08-24T15:52:23Z</time>
      </trkpt>
      <trkpt lat="58.005275968462229" lon="-4.830542011186481">
        <ele>156.34999999999999</ele>
        <time>2023-08-24T15:52:31Z</time>
      </trkpt>
      <trkpt lat="58.005134984850883" lon="-4.830340007320046">
        <ele>155.87</ele>
        <time>2023-08-24T15:52:32Z</time>
      </trkpt>
      <trkpt lat="58.004975980147719" lon="-4.830181002616882">
        <ele>155.38999999999999</ele>
        <time>2023-08-24T15:52:33Z</time>
      </trkpt>
      <trkpt lat="58.003833023831248" lon="-4.828751971945167">
        <ele>153.94999999999999</ele>
        <time>2023-08-24T15:52:41Z</time>
      </trkpt>
      <trkpt lat="58.002444980666041" lon="-4.826424987986684">
        <ele>155.38999999999999</ele>
        <time>2023-08-24T15:52:51Z</time>
      </trkpt>
      <trkpt lat="58.001552978530526" lon="-4.825210031121969">
        <ele>156.34999999999999</ele>
        <time>2023-08-24T15:52:58Z</time>
      </trkpt>
      <trkpt lat="58.001446025446057" lon="-4.825076004490256">
        <ele>156.34999999999999</ele>
        <time>2023-08-24T15:52:59Z</time>
      </trkpt>
      <trkpt lat="58.000369034707546" lon="-4.82372903265059">
        <ele>154.43000000000001</ele>
        <time>2023-08-24T15:53:07Z</time>
      </trkpt>
      <trkpt lat="57.99889599904418" lon="-4.822536036372185">
        <ele>152.99000000000001</ele>
        <time>2023-08-24T15:53:16Z</time>
      </trkpt>
      <trkpt lat="57.997164968401194" lon="-4.821012038737536">
        <ele>151.53999999999999</ele>
        <time>2023-08-24T15:53:27Z</time>
      </trkpt>
      <trkpt lat="57.995683969929814" lon="-4.819845026358962">
        <ele>151.06</ele>
        <time>2023-08-24T15:53:36Z</time>
      </trkpt>
      <trkpt lat="57.994374968111515" lon="-4.818622022867203">
        <ele>149.13999999999999</ele>
        <time>2023-08-24T15:53:44Z</time>
      </trkpt>
      <trkpt lat="57.992680985480547" lon="-4.816752020269632">
        <ele>144.81999999999999</ele>
        <time>2023-08-24T15:53:54Z</time>
      </trkpt>
      <trkpt lat="57.991041988134384" lon="-4.815696990117431">
        <ele>143.84999999999999</ele>
        <time>2023-08-24T15:54:03Z</time>
      </trkpt>
      <trkpt lat="57.990751974284649" lon="-4.815438995137811">
        <ele>145.30000000000001</ele>
        <time>2023-08-24T15:54:05Z</time>
      </trkpt>
      <trkpt lat="57.990636974573135" lon="-4.81528895907104">
        <ele>145.78</ele>
        <time>2023-08-24T15:54:06Z</time>
      </trkpt>
      <trkpt lat="57.990532033145428" lon="-4.815106987953186">
        <ele>145.78</ele>
        <time>2023-08-24T15:54:07Z</time>
      </trkpt>
      <trkpt lat="57.990424996241927" lon="-4.81492199935019">
        <ele>146.25999999999999</ele>
        <time>2023-08-24T15:54:08Z</time>
      </trkpt>
      <trkpt lat="57.990320976823568" lon="-4.81472703628242">
        <ele>146.25999999999999</ele>
        <time>2023-08-24T15:54:09Z</time>
      </trkpt>
      <trkpt lat="57.989115994423628" lon="-4.812289997935295">
        <ele>143.84999999999999</ele>
        <time>2023-08-24T15:54:19Z</time>
      </trkpt>
      <trkpt lat="57.98800497315824" lon="-4.810691988095641">
        <ele>139.05000000000001</ele>
        <time>2023-08-24T15:54:27Z</time>
      </trkpt>
      <trkpt lat="57.98669395968318" lon="-4.809482982382178">
        <ele>134.72</ele>
        <time>2023-08-24T15:54:36Z</time>
      </trkpt>
      <trkpt lat="57.986553981900215" lon="-4.809265974909067">
        <ele>133.75999999999999</ele>
        <time>2023-08-24T15:54:37Z</time>
      </trkpt>
      <trkpt lat="57.98469303175807" lon="-4.806233989074826">
        <ele>122.70999999999999</ele>
        <time>2023-08-24T15:54:50Z</time>
      </trkpt>
      <trkpt lat="57.984588006511331" lon="-4.805926037952304">
        <ele>122.22</ele>
        <time>2023-08-24T15:54:51Z</time>
      </trkpt>
      <trkpt lat="57.983790971338749" lon="-4.802857004106045">
        <ele>115.01000000000001</ele>
        <time>2023-08-24T15:55:00Z</time>
      </trkpt>
      <trkpt lat="57.982865022495389" lon="-4.798814998939633">
        <ele>103</ele>
        <time>2023-08-24T15:55:11Z</time>
      </trkpt>
      <trkpt lat="57.981961034238338" lon="-4.79627100750804">
        <ele>93.870000000000005</ele>
        <time>2023-08-24T15:55:19Z</time>
      </trkpt>
      <trkpt lat="57.980682039633393" lon="-4.792665028944612">
        <ele>82.810000000000002</ele>
        <time>2023-08-24T15:55:30Z</time>
      </trkpt>
      <trkpt lat="57.979520978406072" lon="-4.789984999224544">
        <ele>76.079999999999998</ele>
        <time>2023-08-24T15:55:39Z</time>
      </trkpt>
      <trkpt lat="57.977434974163771" lon="-4.786575995385647">
        <ele>65.989999999999995</ele>
        <time>2023-08-24T15:55:53Z</time>
      </trkpt>
      <trkpt lat="57.976893000304699" lon="-4.785725986585021">
        <ele>62.619999999999997</ele>
        <time>2023-08-24T15:55:58Z</time>
      </trkpt>
      <trkpt lat="57.976750005036592" lon="-4.785626996308565">
        <ele>62.619999999999997</ele>
        <time>2023-08-24T15:55:59Z</time>
      </trkpt>
      <trkpt lat="57.976649003103375" lon="-4.785557007417083">
        <ele>62.140000000000001</ele>
        <time>2023-08-24T15:56:00Z</time>
      </trkpt>
      <trkpt lat="57.976553030312061" lon="-4.785519037395716">
        <ele>62.140000000000001</ele>
        <time>2023-08-24T15:56:01Z</time>
      </trkpt>
      <trkpt lat="57.9764439817518" lon="-4.785493975505233">
        <ele>61.659999999999997</ele>
        <time>2023-08-24T15:56:02Z</time>
      </trkpt>
      <trkpt lat="57.975438991561532" lon="-4.785161968320608">
        <ele>60.219999999999999</ele>
        <time>2023-08-24T15:56:09Z</time>
      </trkpt>
      <trkpt lat="57.97451295889914" lon="-4.784478005021811">
        <ele>61.659999999999997</ele>
        <time>2023-08-24T15:56:16Z</time>
      </trkpt>
      <trkpt lat="57.974459985271096" lon="-4.784360993653536">
        <ele>61.659999999999997</ele>
        <time>2023-08-24T15:56:17Z</time>
      </trkpt>
      <trkpt lat="57.974435007199645" lon="-4.784229984506965">
        <ele>62.619999999999997</ele>
        <time>2023-08-24T15:56:18Z</time>
      </trkpt>
      <trkpt lat="57.974412962794304" lon="-4.784038960933685">
        <ele>63.100000000000001</ele>
        <time>2023-08-24T15:56:19Z</time>
      </trkpt>
      <trkpt lat="57.974387984722853" lon="-4.783821031451225">
        <ele>63.579999999999998</ele>
        <time>2023-08-24T15:56:20Z</time>
      </trkpt>
      <trkpt lat="57.974307015538216" lon="-4.783118963241577">
        <ele>64.549999999999997</ele>
        <time>2023-08-24T15:56:23Z</time>
      </trkpt>
      <trkpt lat="57.974250018596649" lon="-4.78288502432406">
        <ele>64.549999999999997</ele>
        <time>2023-08-24T15:56:24Z</time>
      </trkpt>
      <trkpt lat="57.974175000563264" lon="-4.782657958567143">
        <ele>64.549999999999997</ele>
        <time>2023-08-24T15:56:25Z</time>
      </trkpt>
      <trkpt lat="57.973648030310869" lon="-4.7809730283916">
        <ele>64.069999999999993</ele>
        <time>2023-08-24T15:56:32Z</time>
      </trkpt>
      <trkpt lat="57.97360997647047" lon="-4.780769012868404">
        <ele>64.549999999999997</ele>
        <time>2023-08-24T15:56:33Z</time>
      </trkpt>
      <trkpt lat="57.973635038360953" lon="-4.780577989295125">
        <ele>64.549999999999997</ele>
        <time>2023-08-24T15:56:34Z</time>
      </trkpt>
      <trkpt lat="57.973661022260785" lon="-4.780376991257072">
        <ele>65.030000000000001</ele>
        <time>2023-08-24T15:56:35Z</time>
      </trkpt>
      <trkpt lat="57.973687006160617" lon="-4.78017901070416">
        <ele>65.510000000000005</ele>
        <time>2023-08-24T15:56:36Z</time>
      </trkpt>
      <trkpt lat="57.9737379681319" lon="-4.779758993536234">
        <ele>66.469999999999999</ele>
        <time>2023-08-24T15:56:38Z</time>
      </trkpt>
      <trkpt lat="57.973731011152267" lon="-4.779518013820052">
        <ele>66.950000000000003</ele>
        <time>2023-08-24T15:56:39Z</time>
      </trkpt>
      <trkpt lat="57.973678959533572" lon="-4.777507027611136">
        <ele>66.950000000000003</ele>
        <time>2023-08-24T15:56:46Z</time>
      </trkpt>
      <trkpt lat="57.973534958437085" lon="-4.776200959458947">
        <ele>65.510000000000005</ele>
        <time>2023-08-24T15:56:51Z</time>
      </trkpt>
      <trkpt lat="57.973467987030745" lon="-4.775957968086004">
        <ele>65.030000000000001</ele>
        <time>2023-08-24T15:56:52Z</time>
      </trkpt>
      <trkpt lat="57.973399003967643" lon="-4.77571195922792">
        <ele>64.549999999999997</ele>
        <time>2023-08-24T15:56:53Z</time>
      </trkpt>
      <trkpt lat="57.972584031522274" lon="-4.773945976048708">
        <ele>60.219999999999999</ele>
        <time>2023-08-24T15:57:01Z</time>
      </trkpt>
      <trkpt lat="57.972502978518605" lon="-4.773740032687783">
        <ele>59.740000000000002</ele>
        <time>2023-08-24T15:57:02Z</time>
      </trkpt>
      <trkpt lat="57.972437012940645" lon="-4.773511039093137">
        <ele>59.740000000000002</ele>
        <time>2023-08-24T15:57:03Z</time>
      </trkpt>
      <trkpt lat="57.972365012392402" lon="-4.773258995264769">
        <ele>59.740000000000002</ele>
        <time>2023-08-24T15:57:04Z</time>
      </trkpt>
      <trkpt lat="57.972341040149331" lon="-4.773036958649755">
        <ele>60.219999999999999</ele>
        <time>2023-08-24T15:57:05Z</time>
      </trkpt>
      <trkpt lat="57.972313966602087" lon="-4.772778963670135">
        <ele>60.219999999999999</ele>
        <time>2023-08-24T15:57:06Z</time>
      </trkpt>
      <trkpt lat="57.972303992137313" lon="-4.772506970912218">
        <ele>60.700000000000003</ele>
        <time>2023-08-24T15:57:07Z</time>
      </trkpt>
      <trkpt lat="57.972310027107596" lon="-4.772235983982682">
        <ele>62.140000000000001</ele>
        <time>2023-08-24T15:57:08Z</time>
      </trkpt>
      <trkpt lat="57.972314972430468" lon="-4.771963991224766">
        <ele>63.100000000000001</ele>
        <time>2023-08-24T15:57:09Z</time>
      </trkpt>
      <trkpt lat="57.972281025722623" lon="-4.769842028617859">
        <ele>65.989999999999995</ele>
        <time>2023-08-24T15:57:16Z</time>
      </trkpt>
      <trkpt lat="57.97221003100276" lon="-4.769595013931394">
        <ele>65.989999999999995</ele>
        <time>2023-08-24T15:57:17Z</time>
      </trkpt>
      <trkpt lat="57.972137024626136" lon="-4.769353028386831">
        <ele>66.469999999999999</ele>
        <time>2023-08-24T15:57:18Z</time>
      </trkpt>
      <trkpt lat="57.972064018249512" lon="-4.769107019528747">
        <ele>66.469999999999999</ele>
        <time>2023-08-24T15:57:19Z</time>
      </trkpt>
      <trkpt lat="57.971985982730985" lon="-4.768850030377507">
        <ele>66.950000000000003</ele>
        <time>2023-08-24T15:57:20Z</time>
      </trkpt>
      <trkpt lat="57.971930997446179" lon="-4.768587006255984">
        <ele>67.430000000000007</ele>
        <time>2023-08-24T15:57:21Z</time>
      </trkpt>
      <trkpt lat="57.971886992454529" lon="-4.768317025154829">
        <ele>67.430000000000007</ele>
        <time>2023-08-24T15:57:22Z</time>
      </trkpt>
      <trkpt lat="57.971839969977736" lon="-4.768032040446997">
        <ele>67.909999999999997</ele>
        <time>2023-08-24T15:57:23Z</time>
      </trkpt>
      <trkpt lat="57.971794037148356" lon="-4.767746971920133">
        <ele>67.909999999999997</ele>
        <time>2023-08-24T15:57:24Z</time>
      </trkpt>
      <trkpt lat="57.971748020499945" lon="-4.767458969727159">
        <ele>68.390000000000001</ele>
        <time>2023-08-24T15:57:25Z</time>
      </trkpt>
      <trkpt lat="57.971172016113997" lon="-4.765176996588707">
        <ele>67.430000000000007</ele>
        <time>2023-08-24T15:57:33Z</time>
      </trkpt>
      <trkpt lat="57.970759961754084" lon="-4.762491015717387">
        <ele>69.349999999999994</ele>
        <time>2023-08-24T15:57:42Z</time>
      </trkpt>
      <trkpt lat="57.970636999234557" lon="-4.761149995028973">
        <ele>68.390000000000001</ele>
        <time>2023-08-24T15:57:48Z</time>
      </trkpt>
      <trkpt lat="57.970633981749415" lon="-4.761068020015955">
        <ele>67.909999999999997</ele>
        <time>2023-08-24T15:57:49Z</time>
      </trkpt>
      <trkpt lat="57.970677986741066" lon="-4.760496960952878">
        <ele>66.469999999999999</ele>
        <time>2023-08-24T15:57:53Z</time>
      </trkpt>
      <trkpt lat="57.970819976180792" lon="-4.759375965222716">
        <ele>64.549999999999997</ele>
        <time>2023-08-24T15:58:00Z</time>
      </trkpt>
      <trkpt lat="57.970819976180792" lon="-4.759197011590004">
        <ele>64.549999999999997</ele>
        <time>2023-08-24T15:58:01Z</time>
      </trkpt>
      <trkpt lat="57.970819976180792" lon="-4.759014034643769">
        <ele>64.549999999999997</ele>
        <time>2023-08-24T15:58:02Z</time>
      </trkpt>
      <trkpt lat="57.970861969515681" lon="-4.757121987640858">
        <ele>62.619999999999997</ele>
        <time>2023-08-24T15:58:09Z</time>
      </trkpt>
      <trkpt lat="57.97090002335608" lon="-4.756230991333723">
        <ele>61.659999999999997</ele>
        <time>2023-08-24T15:58:12Z</time>
      </trkpt>
      <trkpt lat="57.970889965072274" lon="-4.755940977483988">
        <ele>61.18</ele>
        <time>2023-08-24T15:58:13Z</time>
      </trkpt>
      <trkpt lat="57.970866998657584" lon="-4.755649035796523">
        <ele>60.700000000000003</ele>
        <time>2023-08-24T15:58:14Z</time>
      </trkpt>
      <trkpt lat="57.970600035041571" lon="-4.753005970269442">
        <ele>53.969999999999999</ele>
        <time>2023-08-24T15:58:23Z</time>
      </trkpt>
      <trkpt lat="57.970549995079637" lon="-4.752728026360273">
        <ele>53.969999999999999</ele>
        <time>2023-08-24T15:58:24Z</time>
      </trkpt>
      <trkpt lat="57.970474977046251" lon="-4.752467013895512">
        <ele>53.490000000000002</ele>
        <time>2023-08-24T15:58:25Z</time>
      </trkpt>
      <trkpt lat="57.970394007861614" lon="-4.752202983945608">
        <ele>53.490000000000002</ele>
        <time>2023-08-24T15:58:26Z</time>
      </trkpt>
      <trkpt lat="57.970311027020216" lon="-4.751934008672833">
        <ele>53.490000000000002</ele>
        <time>2023-08-24T15:58:27Z</time>
      </trkpt>
      <trkpt lat="57.970098964869976" lon="-4.751087017357349">
        <ele>53.009999999999998</ele>
        <time>2023-08-24T15:58:30Z</time>
      </trkpt>
      <trkpt lat="57.970046997070313" lon="-4.750784011557698">
        <ele>53.490000000000002</ele>
        <time>2023-08-24T15:58:31Z</time>
      </trkpt>
      <trkpt lat="57.9700390342623" lon="-4.750463990494609">
        <ele>53.490000000000002</ele>
        <time>2023-08-24T15:58:32Z</time>
      </trkpt>
      <trkpt lat="57.970032999292016" lon="-4.750147992745042">
        <ele>53.490000000000002</ele>
        <time>2023-08-24T15:58:33Z</time>
      </trkpt>
      <trkpt lat="57.970025958493352" lon="-4.749857978895307">
        <ele>53.490000000000002</ele>
        <time>2023-08-24T15:58:34Z</time>
      </trkpt>
      <trkpt lat="57.969985976815224" lon="-4.748057965189219">
        <ele>53.490000000000002</ele>
        <time>2023-08-24T15:58:41Z</time>
      </trkpt>
      <trkpt lat="57.96974097378552" lon="-4.745150031521916">
        <ele>53.969999999999999</ele>
        <time>2023-08-24T15:58:51Z</time>
      </trkpt>
      <trkpt lat="57.969220038503408" lon="-4.742807038128376">
        <ele>53.969999999999999</ele>
        <time>2023-08-24T15:58:59Z</time>
      </trkpt>
      <trkpt lat="57.96903102658689" lon="-4.740227004513145">
        <ele>52.530000000000001</ele>
        <time>2023-08-24T15:59:07Z</time>
      </trkpt>
      <trkpt lat="57.968641016632318" lon="-4.73727498203516">
        <ele>47.240000000000002</ele>
        <time>2023-08-24T15:59:16Z</time>
      </trkpt>
      <trkpt lat="57.9681930039078" lon="-4.734614985063672">
        <ele>40.509999999999998</ele>
        <time>2023-08-24T15:59:25Z</time>
      </trkpt>
      <trkpt lat="57.967885974794626" lon="-4.732247013598681">
        <ele>35.229999999999997</ele>
        <time>2023-08-24T15:59:35Z</time>
      </trkpt>
      <trkpt lat="57.96780701726675" lon="-4.731174968183041">
        <ele>32.82</ele>
        <time>2023-08-24T15:59:39Z</time>
      </trkpt>
      <trkpt lat="57.967810034751892" lon="-4.73091496154666">
        <ele>32.82</ele>
        <time>2023-08-24T15:59:40Z</time>
      </trkpt>
      <trkpt lat="57.967855967581272" lon="-4.730646992102265">
        <ele>32.82</ele>
        <time>2023-08-24T15:59:41Z</time>
      </trkpt>
      <trkpt lat="57.967902990058064" lon="-4.730369970202446">
        <ele>32.82</ele>
        <time>2023-08-24T15:59:42Z</time>
      </trkpt>
      <trkpt lat="57.967952024191618" lon="-4.730079034343362">
        <ele>32.82</ele>
        <time>2023-08-24T15:59:43Z</time>
      </trkpt>
      <trkpt lat="57.968138018622994" lon="-4.72876600921154">
        <ele>35.710000000000001</ele>
        <time>2023-08-24T15:59:47Z</time>
      </trkpt>
      <trkpt lat="57.968142963945866" lon="-4.728408018127084">
        <ele>37.149999999999999</ele>
        <time>2023-08-24T15:59:48Z</time>
      </trkpt>
      <trkpt lat="57.96819400973618" lon="-4.725079983472824">
        <ele>52.530000000000001</ele>
        <time>2023-08-24T15:59:58Z</time>
      </trkpt>
      <trkpt lat="57.968061994761229" lon="-4.722731960937381">
        <ele>60.700000000000003</ele>
        <time>2023-08-24T16:00:06Z</time>
      </trkpt>
      <trkpt lat="57.968013966456056" lon="-4.722123015671969">
        <ele>62.140000000000001</ele>
        <time>2023-08-24T16:00:08Z</time>
      </trkpt>
      <trkpt lat="57.968026958405972" lon="-4.72182696685195">
        <ele>62.619999999999997</ele>
        <time>2023-08-24T16:00:09Z</time>
      </trkpt>
      <trkpt lat="57.968049002811313" lon="-4.721521027386189">
        <ele>63.100000000000001</ele>
        <time>2023-08-24T16:00:10Z</time>
      </trkpt>
      <trkpt lat="57.968354020267725" lon="-4.71742101944983">
        <ele>70.310000000000002</ele>
        <time>2023-08-24T16:00:22Z</time>
      </trkpt>
      <trkpt lat="57.968460973352194" lon="-4.71490602940321">
        <ele>75.120000000000005</ele>
        <time>2023-08-24T16:00:30Z</time>
      </trkpt>
      <trkpt lat="57.968384027481079" lon="-4.712736960500479">
        <ele>78.480000000000004</ele>
        <time>2023-08-24T16:00:38Z</time>
      </trkpt>
      <trkpt lat="57.968357037752867" lon="-4.710450964048505">
        <ele>76.079999999999998</ele>
        <time>2023-08-24T16:00:45Z</time>
      </trkpt>
      <trkpt lat="57.968587959185243" lon="-4.707611007615924">
        <ele>74.159999999999997</ele>
        <time>2023-08-24T16:00:54Z</time>
      </trkpt>
      <trkpt lat="57.96860296279192" lon="-4.707229966297746">
        <ele>73.200000000000003</ele>
        <time>2023-08-24T16:00:59Z</time>
      </trkpt>
      <trkpt lat="57.968630958348513" lon="-4.706496968865395">
        <ele>71.269999999999996</ele>
        <time>2023-08-24T16:01:04Z</time>
      </trkpt>
      <trkpt lat="57.96881896443665" lon="-4.704238967970014">
        <ele>66.469999999999999</ele>
        <time>2023-08-24T16:01:12Z</time>
      </trkpt>
      <trkpt lat="57.969484990462661" lon="-4.70014801248908">
        <ele>66.469999999999999</ele>
        <time>2023-08-24T16:01:25Z</time>
      </trkpt>
      <trkpt lat="57.969755977392197" lon="-4.697279976680875">
        <ele>66.950000000000003</ele>
        <time>2023-08-24T16:01:34Z</time>
      </trkpt>
      <trkpt lat="57.969875000417233" lon="-4.696318991482258">
        <ele>65.989999999999995</ele>
        <time>2023-08-24T16:01:37Z</time>
      </trkpt>
      <trkpt lat="57.969925962388515" lon="-4.696012968197465">
        <ele>65.030000000000001</ele>
        <time>2023-08-24T16:01:38Z</time>
      </trkpt>
      <trkpt lat="57.970023024827242" lon="-4.695736030116677">
        <ele>64.549999999999997</ele>
        <time>2023-08-24T16:01:39Z</time>
      </trkpt>
      <trkpt lat="57.97012503258884" lon="-4.695445010438561">
        <ele>63.579999999999998</ele>
        <time>2023-08-24T16:01:40Z</time>
      </trkpt>
      <trkpt lat="57.970228968188167" lon="-4.695151979103684">
        <ele>62.619999999999997</ele>
        <time>2023-08-24T16:01:41Z</time>
      </trkpt>
      <trkpt lat="57.971143014729023" lon="-4.693493032827973">
        <ele>55.890000000000001</ele>
        <time>2023-08-24T16:01:48Z</time>
      </trkpt>
      <trkpt lat="57.972287982702255" lon="-4.691755967214704">
        <ele>46.759999999999998</ele>
        <time>2023-08-24T16:01:57Z</time>
      </trkpt>
      <trkpt lat="57.972758039832115" lon="-4.690863965079188">
        <ele>42.920000000000002</ele>
        <time>2023-08-24T16:02:01Z</time>
      </trkpt>
      <trkpt lat="57.972865998744965" lon="-4.690577974542975">
        <ele>42.439999999999998</ele>
        <time>2023-08-24T16:02:02Z</time>
      </trkpt>
      <trkpt lat="57.972946967929602" lon="-4.690272035077214">
        <ele>41.469999999999999</ele>
        <time>2023-08-24T16:02:03Z</time>
      </trkpt>
      <trkpt lat="57.973017040640116" lon="-4.68996299430728">
        <ele>40.990000000000002</ele>
        <time>2023-08-24T16:02:04Z</time>
      </trkpt>
      <trkpt lat="57.973061967641115" lon="-4.68961900100112">
        <ele>40.509999999999998</ele>
        <time>2023-08-24T16:02:05Z</time>
      </trkpt>
      <trkpt lat="57.973106978461146" lon="-4.68927500769496">
        <ele>40.030000000000001</ele>
        <time>2023-08-24T16:02:06Z</time>
      </trkpt>
      <trkpt lat="57.973141008988023" lon="-4.688944006338716">
        <ele>39.549999999999997</ele>
        <time>2023-08-24T16:02:07Z</time>
      </trkpt>
      <trkpt lat="57.973151989281178" lon="-4.68858802691102">
        <ele>39.549999999999997</ele>
        <time>2023-08-24T16:02:08Z</time>
      </trkpt>
      <trkpt lat="57.973154000937939" lon="-4.688247973099351">
        <ele>39.549999999999997</ele>
        <time>2023-08-24T16:02:09Z</time>
      </trkpt>
      <trkpt lat="57.973022991791368" lon="-4.685212969779968">
        <ele>42.439999999999998</ele>
        <time>2023-08-24T16:02:18Z</time>
      </trkpt>
      <trkpt lat="57.972858035936952" lon="-4.681466007605195">
        <ele>41.950000000000003</ele>
        <time>2023-08-24T16:02:29Z</time>
      </trkpt>
      <trkpt lat="57.972682015970349" lon="-4.678505016490817">
        <ele>39.07</ele>
        <time>2023-08-24T16:02:39Z</time>
      </trkpt>
      <trkpt lat="57.972350008785725" lon="-4.675298016518354">
        <ele>34.740000000000002</ele>
        <time>2023-08-24T16:02:49Z</time>
      </trkpt>
      <trkpt lat="57.971834018826485" lon="-4.671920025721192">
        <ele>31.379999999999999</ele>
        <time>2023-08-24T16:02:59Z</time>
      </trkpt>
      <trkpt lat="57.970994990319014" lon="-4.6671880222857">
        <ele>29.460000000000001</ele>
        <time>2023-08-24T16:03:13Z</time>
      </trkpt>
      <trkpt lat="57.970740012824535" lon="-4.664319986477494">
        <ele>30.899999999999999</ele>
        <time>2023-08-24T16:03:21Z</time>
      </trkpt>
      <trkpt lat="57.970718974247575" lon="-4.663630994036794">
        <ele>31.379999999999999</ele>
        <time>2023-08-24T16:03:23Z</time>
      </trkpt>
      <trkpt lat="57.970812013372779" lon="-4.660538993775845">
        <ele>34.259999999999998</ele>
        <time>2023-08-24T16:03:31Z</time>
      </trkpt>
      <trkpt lat="57.970904968678951" lon="-4.65788695961237">
        <ele>33.299999999999997</ele>
        <time>2023-08-24T16:03:39Z</time>
      </trkpt>
      <trkpt lat="57.971002031117678" lon="-4.656711984425783">
        <ele>34.740000000000002</ele>
        <time>2023-08-24T16:03:43Z</time>
      </trkpt>
      <trkpt lat="57.971044024452567" lon="-4.656419036909938">
        <ele>34.740000000000002</ele>
        <time>2023-08-24T16:03:44Z</time>
      </trkpt>
      <trkpt lat="57.971090963110328" lon="-4.65614402666688">
        <ele>35.229999999999997</ele>
        <time>2023-08-24T16:03:45Z</time>
      </trkpt>
      <trkpt lat="57.971167992800474" lon="-4.655902041122317">
        <ele>35.229999999999997</ele>
        <time>2023-08-24T16:03:46Z</time>
      </trkpt>
      <trkpt lat="57.971248039975762" lon="-4.655663995072246">
        <ele>35.229999999999997</ele>
        <time>2023-08-24T16:03:47Z</time>
      </trkpt>
      <trkpt lat="57.972036022692919" lon="-4.654020974412561">
        <ele>33.780000000000001</ele>
        <time>2023-08-24T16:03:54Z</time>
      </trkpt>
      <trkpt lat="57.972163008525968" lon="-4.653819976374507">
        <ele>33.780000000000001</ele>
        <time>2023-08-24T16:03:55Z</time>
      </trkpt>
      <trkpt lat="57.972312960773706" lon="-4.653695002198219">
        <ele>33.780000000000001</ele>
        <time>2023-08-24T16:03:56Z</time>
      </trkpt>
      <trkpt lat="57.97246802598238" lon="-4.653575979173183">
        <ele>33.780000000000001</ele>
        <time>2023-08-24T16:03:57Z</time>
      </trkpt>
      <trkpt lat="57.972772037610412" lon="-4.653340028598905">
        <ele>33.299999999999997</ele>
        <time>2023-08-24T16:03:59Z</time>
      </trkpt>
      <trkpt lat="57.972906986251473" lon="-4.653192004188895">
        <ele>32.82</ele>
        <time>2023-08-24T16:04:00Z</time>
      </trkpt>
      <trkpt lat="57.973035983741283" lon="-4.653011038899422">
        <ele>32.340000000000003</ele>
        <time>2023-08-24T16:04:01Z</time>
      </trkpt>
      <trkpt lat="57.973138997331262" lon="-4.652763018384576">
        <ele>32.340000000000003</ele>
        <time>2023-08-24T16:04:02Z</time>
      </trkpt>
      <trkpt lat="57.973238993436098" lon="-4.652504017576575">
        <ele>31.859999999999999</ele>
        <time>2023-08-24T16:04:03Z</time>
      </trkpt>
      <trkpt lat="57.973336977884173" lon="-4.652249040082097">
        <ele>31.379999999999999</ele>
        <time>2023-08-24T16:04:04Z</time>
      </trkpt>
      <trkpt lat="57.973636966198683" lon="-4.651575973257422">
        <ele>30.420000000000002</ele>
        <time>2023-08-24T16:04:07Z</time>
      </trkpt>
      <trkpt lat="57.973756995052099" lon="-4.651373969390988">
        <ele>29.940000000000001</ele>
        <time>2023-08-24T16:04:08Z</time>
      </trkpt>
      <trkpt lat="57.974225040525198" lon="-4.650518009439111">
        <ele>26.57</ele>
        <time>2023-08-24T16:04:12Z</time>
      </trkpt>
      <trkpt lat="57.974319001659751" lon="-4.650285998359323">
        <ele>25.609999999999999</ele>
        <time>2023-08-24T16:04:13Z</time>
      </trkpt>
      <trkpt lat="57.974406005814672" lon="-4.650031020864844">
        <ele>24.649999999999999</ele>
        <time>2023-08-24T16:04:14Z</time>
      </trkpt>
      <trkpt lat="57.974611027166247" lon="-4.649276984855533">
        <ele>21.77</ele>
        <time>2023-08-24T16:04:17Z</time>
      </trkpt>
      <trkpt lat="57.974665006622672" lon="-4.64901496656239">
        <ele>20.809999999999999</ele>
        <time>2023-08-24T16:04:18Z</time>
      </trkpt>
      <trkpt lat="57.97472502104938" lon="-4.648719001561403">
        <ele>19.84</ele>
        <time>2023-08-24T16:04:19Z</time>
      </trkpt>
      <trkpt lat="57.974729966372252" lon="-4.648477016016841">
        <ele>18.879999999999999</ele>
        <time>2023-08-24T16:04:20Z</time>
      </trkpt>
      <trkpt lat="57.974734995514154" lon="-4.648199994117022">
        <ele>18.399999999999999</ele>
        <time>2023-08-24T16:04:21Z</time>
      </trkpt>
      <trkpt lat="57.974739018827677" lon="-4.647934958338738">
        <ele>17.440000000000001</ele>
        <time>2023-08-24T16:04:22Z</time>
      </trkpt>
      <trkpt lat="57.974743964150548" lon="-4.647676963359118">
        <ele>16.960000000000001</ele>
        <time>2023-08-24T16:04:23Z</time>
      </trkpt>
      <trkpt lat="57.974763996899128" lon="-4.647421985864639">
        <ele>16.48</ele>
        <time>2023-08-24T16:04:24Z</time>
      </trkpt>
      <trkpt lat="57.974806996062398" lon="-4.64718502946198">
        <ele>15.52</ele>
        <time>2023-08-24T16:04:25Z</time>
      </trkpt>
      <trkpt lat="57.975208992138505" lon="-4.645173959434032">
        <ele>12.630000000000001</ele>
        <time>2023-08-24T16:04:34Z</time>
      </trkpt>
      <trkpt lat="57.975313011556864" lon="-4.644684959203005">
        <ele>11.67</ele>
        <time>2023-08-24T16:04:36Z</time>
      </trkpt>
      <trkpt lat="57.975365985184908" lon="-4.644438028335571">
        <ele>11.67</ele>
        <time>2023-08-24T16:04:37Z</time>
      </trkpt>
      <trkpt lat="57.975384006276727" lon="-4.644182967022061">
        <ele>11.19</ele>
        <time>2023-08-24T16:04:38Z</time>
      </trkpt>
      <trkpt lat="57.975371014326811" lon="-4.64392296038568">
        <ele>11.67</ele>
        <time>2023-08-24T16:04:39Z</time>
      </trkpt>
      <trkpt lat="57.975358022376895" lon="-4.643660020083189">
        <ele>11.67</ele>
        <time>2023-08-24T16:04:40Z</time>
      </trkpt>
      <trkpt lat="57.975335977971554" lon="-4.643386015668511">
        <ele>11.19</ele>
        <time>2023-08-24T16:04:41Z</time>
      </trkpt>
      <trkpt lat="57.975276969373226" lon="-4.643109999597073">
        <ele>11.19</ele>
        <time>2023-08-24T16:04:42Z</time>
      </trkpt>
      <trkpt lat="57.975214021280408" lon="-4.64282400906086">
        <ele>11.19</ele>
        <time>2023-08-24T16:04:43Z</time>
      </trkpt>
      <trkpt lat="57.975130034610629" lon="-4.642556961625814">
        <ele>10.710000000000001</ele>
        <time>2023-08-24T16:04:44Z</time>
      </trkpt>
      <trkpt lat="57.97483297996223" lon="-4.641510983929038">
        <ele>10.23</ele>
        <time>2023-08-24T16:04:48Z</time>
      </trkpt>
      <trkpt lat="57.974800039082766" lon="-4.641246031969786">
        <ele>10.23</ele>
        <time>2023-08-24T16:04:49Z</time>
      </trkpt>
      <trkpt lat="57.97476802021265" lon="-4.640988036990166">
        <ele>10.23</ele>
        <time>2023-08-24T16:04:50Z</time>
      </trkpt>
      <trkpt lat="57.974757961928844" lon="-4.640716966241598">
        <ele>10.710000000000001</ele>
        <time>2023-08-24T16:04:51Z</time>
      </trkpt>
      <trkpt lat="57.974786041304469" lon="-4.640450002625585">
        <ele>10.710000000000001</ele>
        <time>2023-08-24T16:04:52Z</time>
      </trkpt>
      <trkpt lat="57.974812025204301" lon="-4.640196030959487">
        <ele>11.19</ele>
        <time>2023-08-24T16:04:53Z</time>
      </trkpt>
      <trkpt lat="57.974838009104133" lon="-4.639952033758164">
        <ele>11.19</ele>
        <time>2023-08-24T16:04:54Z</time>
      </trkpt>
      <trkpt lat="57.974869022145867" lon="-4.637790005654097">
        <ele>13.119999999999999</ele>
        <time>2023-08-24T16:05:02Z</time>
      </trkpt>
      <trkpt lat="57.974814958870411" lon="-4.635552959516645">
        <ele>13.119999999999999</ele>
        <time>2023-08-24T16:05:09Z</time>
      </trkpt>
      <trkpt lat="57.974772965535522" lon="-4.633831987157464">
        <ele>13.119999999999999</ele>
        <time>2023-08-24T16:05:15Z</time>
      </trkpt>
      <trkpt lat="57.974784029647708" lon="-4.632040020078421">
        <ele>12.630000000000001</ele>
        <time>2023-08-24T16:05:23Z</time>
      </trkpt>
      <trkpt lat="57.974817976355553" lon="-4.631739025935531">
        <ele>13.119999999999999</ele>
        <time>2023-08-24T16:05:24Z</time>
      </trkpt>
      <trkpt lat="57.975031966343522" lon="-4.629841027781367">
        <ele>14.56</ele>
        <time>2023-08-24T16:05:30Z</time>
      </trkpt>
      <trkpt lat="57.975126011297107" lon="-4.628631016239524">
        <ele>16</ele>
        <time>2023-08-24T16:05:34Z</time>
      </trkpt>
      <trkpt lat="57.975289961323142" lon="-4.626091970130801">
        <ele>14.56</ele>
        <time>2023-08-24T16:05:42Z</time>
      </trkpt>
      <trkpt lat="57.975286021828651" lon="-4.624720020219684">
        <ele>15.039999999999999</ele>
        <time>2023-08-24T16:05:46Z</time>
      </trkpt>
      <trkpt lat="57.975274035707116" lon="-4.624386001378298">
        <ele>14.56</ele>
        <time>2023-08-24T16:05:47Z</time>
      </trkpt>
      <trkpt lat="57.975205974653363" lon="-4.623038023710251">
        <ele>14.56</ele>
        <time>2023-08-24T16:05:52Z</time>
      </trkpt>
      <trkpt lat="57.975191976875067" lon="-4.622764019295573">
        <ele>15.039999999999999</ele>
        <time>2023-08-24T16:05:53Z</time>
      </trkpt>
      <trkpt lat="57.975050993263721" lon="-4.619957003742456">
        <ele>18.399999999999999</ele>
        <time>2023-08-24T16:06:02Z</time>
      </trkpt>
      <trkpt lat="57.975074965506792" lon="-4.61725995875895">
        <ele>14.56</ele>
        <time>2023-08-24T16:06:10Z</time>
      </trkpt>
      <trkpt lat="57.975041018798947" lon="-4.614332998171449">
        <ele>10.710000000000001</ele>
        <time>2023-08-24T16:06:19Z</time>
      </trkpt>
      <trkpt lat="57.975079994648695" lon="-4.610859034582973">
        <ele>9.27</ele>
        <time>2023-08-24T16:06:29Z</time>
      </trkpt>
      <trkpt lat="57.974871033802629" lon="-4.607773991301656">
        <ele>7.83</ele>
        <time>2023-08-24T16:06:38Z</time>
      </trkpt>
      <trkpt lat="57.974699037149549" lon="-4.604853987693787">
        <ele>7.35</ele>
        <time>2023-08-24T16:06:47Z</time>
      </trkpt>
      <trkpt lat="57.974849995225668" lon="-4.602034986019135">
        <ele>8.310000000000001</ele>
        <time>2023-08-24T16:06:55Z</time>
      </trkpt>
      <trkpt lat="57.975050993263721" lon="-4.600232960656285">
        <ele>10.23</ele>
        <time>2023-08-24T16:07:01Z</time>
      </trkpt>
      <trkpt lat="57.975702015683055" lon="-4.597700033336878">
        <ele>13.6</ele>
        <time>2023-08-24T16:07:09Z</time>
      </trkpt>
      <trkpt lat="57.976338034495711" lon="-4.595074988901615">
        <ele>15.52</ele>
        <time>2023-08-24T16:07:18Z</time>
      </trkpt>
      <trkpt lat="57.976968018338084" lon="-4.592443993315101">
        <ele>16</ele>
        <time>2023-08-24T16:07:27Z</time>
      </trkpt>
      <trkpt lat="57.977515021339059" lon="-4.59095997735858">
        <ele>16</ele>
        <time>2023-08-24T16:07:33Z</time>
      </trkpt>
      <trkpt lat="57.977618034929037" lon="-4.590828968212009">
        <ele>16</ele>
        <time>2023-08-24T16:07:34Z</time>
      </trkpt>
      <trkpt lat="57.977713001891971" lon="-4.590710029006004">
        <ele>16.48</ele>
        <time>2023-08-24T16:07:35Z</time>
      </trkpt>
      <trkpt lat="57.977891033515334" lon="-4.590501990169287">
        <ele>16.48</ele>
        <time>2023-08-24T16:07:37Z</time>
      </trkpt>
      <trkpt lat="57.978697037324309" lon="-4.589946018531919">
        <ele>19.84</ele>
        <time>2023-08-24T16:07:44Z</time>
      </trkpt>
      <trkpt lat="57.979735974222422" lon="-4.58932600915432">
        <ele>20.809999999999999</ele>
        <time>2023-08-24T16:07:52Z</time>
      </trkpt>
      <trkpt lat="57.979871006682515" lon="-4.589245039969683">
        <ele>20.809999999999999</ele>
        <time>2023-08-24T16:07:53Z</time>
      </trkpt>
      <trkpt lat="57.981146983802319" lon="-4.58855596370995">
        <ele>19.84</ele>
        <time>2023-08-24T16:08:03Z</time>
      </trkpt>
      <trkpt lat="57.982339980080724" lon="-4.587899995967746">
        <ele>17.920000000000002</ele>
        <time>2023-08-24T16:08:13Z</time>
      </trkpt>
      <trkpt lat="57.982924031093717" lon="-4.587323991581798">
        <ele>17.920000000000002</ele>
        <time>2023-08-24T16:08:18Z</time>
      </trkpt>
      <trkpt lat="57.983020003885031" lon="-4.587131962180138">
        <ele>17.920000000000002</ele>
        <time>2023-08-24T16:08:19Z</time>
      </trkpt>
      <trkpt lat="57.983108013868332" lon="-4.586928030475974">
        <ele>17.920000000000002</ele>
        <time>2023-08-24T16:08:20Z</time>
      </trkpt>
      <trkpt lat="57.983195018023252" lon="-4.586710017174482">
        <ele>17.440000000000001</ele>
        <time>2023-08-24T16:08:21Z</time>
      </trkpt>
      <trkpt lat="57.983265006914735" lon="-4.586495021358132">
        <ele>17.440000000000001</ele>
        <time>2023-08-24T16:08:22Z</time>
      </trkpt>
      <trkpt lat="57.983328960835934" lon="-4.586270973086357">
        <ele>17.920000000000002</ele>
        <time>2023-08-24T16:08:23Z</time>
      </trkpt>
      <trkpt lat="57.983394004404545" lon="-4.586042985320091">
        <ele>17.440000000000001</ele>
        <time>2023-08-24T16:08:24Z</time>
      </trkpt>
      <trkpt lat="57.983609000220895" lon="-4.583972990512848">
        <ele>16</ele>
        <time>2023-08-24T16:08:32Z</time>
      </trkpt>
      <trkpt lat="57.983592990785837" lon="-4.583755983039737">
        <ele>16</ele>
        <time>2023-08-24T16:08:33Z</time>
      </trkpt>
      <trkpt lat="57.983542028814554" lon="-4.583572000265122">
        <ele>16</ele>
        <time>2023-08-24T16:08:34Z</time>
      </trkpt>
      <trkpt lat="57.983462987467647" lon="-4.583387011662126">
        <ele>16.48</ele>
        <time>2023-08-24T16:08:35Z</time>
      </trkpt>
      <trkpt lat="57.983379000797868" lon="-4.583189031109214">
        <ele>16.48</ele>
        <time>2023-08-24T16:08:36Z</time>
      </trkpt>
      <trkpt lat="57.983284033834934" lon="-4.582998007535934">
        <ele>16.48</ele>
        <time>2023-08-24T16:08:37Z</time>
      </trkpt>
      <trkpt lat="57.983185965567827" lon="-4.58281603641808">
        <ele>16.48</ele>
        <time>2023-08-24T16:08:38Z</time>
      </trkpt>
      <trkpt lat="57.983085969462991" lon="-4.582630963996053">
        <ele>16.48</ele>
        <time>2023-08-24T16:08:39Z</time>
      </trkpt>
      <trkpt lat="57.982332017272711" lon="-4.580920971930027">
        <ele>21.77</ele>
        <time>2023-08-24T16:08:47Z</time>
      </trkpt>
      <trkpt lat="57.982005961239338" lon="-4.580001980066299">
        <ele>25.129999999999999</ele>
        <time>2023-08-24T16:08:51Z</time>
      </trkpt>
      <trkpt lat="57.981807980686426" lon="-4.579607024788857">
        <ele>27.050000000000001</ele>
        <time>2023-08-24T16:08:53Z</time>
      </trkpt>
      <trkpt lat="57.981591979041696" lon="-4.579346012324095">
        <ele>28.02</ele>
        <time>2023-08-24T16:08:55Z</time>
      </trkpt>
      <trkpt lat="57.981475973501801" lon="-4.579246016219258">
        <ele>28.5</ele>
        <time>2023-08-24T16:08:56Z</time>
      </trkpt>
      <trkpt lat="57.981244968250394" lon="-4.579034959897399">
        <ele>28.98</ele>
        <time>2023-08-24T16:08:58Z</time>
      </trkpt>
      <trkpt lat="57.981141032651067" lon="-4.578900011256337">
        <ele>29.460000000000001</ele>
        <time>2023-08-24T16:08:59Z</time>
      </trkpt>
      <trkpt lat="57.981039024889469" lon="-4.578743018209934">
        <ele>30.420000000000002</ele>
        <time>2023-08-24T16:09:00Z</time>
      </trkpt>
      <trkpt lat="57.980966018512845" lon="-4.578545037657023">
        <ele>30.899999999999999</ele>
        <time>2023-08-24T16:09:01Z</time>
      </trkpt>
      <trkpt lat="57.980894017964602" lon="-4.578349990770221">
        <ele>31.379999999999999</ele>
        <time>2023-08-24T16:09:02Z</time>
      </trkpt>
      <trkpt lat="57.980817994102836" lon="-4.578143963590264">
        <ele>31.379999999999999</ele>
        <time>2023-08-24T16:09:03Z</time>
      </trkpt>
      <trkpt lat="57.980737024918199" lon="-4.577923016622663">
        <ele>31.859999999999999</ele>
        <time>2023-08-24T16:09:04Z</time>
      </trkpt>
      <trkpt lat="57.979997992515564" lon="-4.57544800825417">
        <ele>38.590000000000003</ele>
        <time>2023-08-24T16:09:14Z</time>
      </trkpt>
      <trkpt lat="57.979661040008068" lon="-4.573264019563794">
        <ele>44.359999999999999</ele>
        <time>2023-08-24T16:09:22Z</time>
      </trkpt>
      <trkpt lat="57.979442020878196" lon="-4.570664037019014">
        <ele>51.090000000000003</ele>
        <time>2023-08-24T16:09:31Z</time>
      </trkpt>
      <trkpt lat="57.979306988418102" lon="-4.56984001211822">
        <ele>53.490000000000002</ele>
        <time>2023-08-24T16:09:34Z</time>
      </trkpt>
      <trkpt lat="57.979170028120279" lon="-4.569341037422419">
        <ele>54.450000000000003</ele>
        <time>2023-08-24T16:09:36Z</time>
      </trkpt>
      <trkpt lat="57.978716986253858" lon="-4.568081991747022">
        <ele>56.859999999999999</ele>
        <time>2023-08-24T16:09:42Z</time>
      </trkpt>
      <trkpt lat="57.978586982935667" lon="-4.567031990736723">
        <ele>59.259999999999998</ele>
        <time>2023-08-24T16:09:47Z</time>
      </trkpt>
      <trkpt lat="57.978250030428171" lon="-4.565835976973176">
        <ele>61.18</ele>
        <time>2023-08-24T16:09:55Z</time>
      </trkpt>
      <trkpt lat="57.978215999901295" lon="-4.565723994746804">
        <ele>61.18</ele>
        <time>2023-08-24T16:09:56Z</time>
      </trkpt>
      <trkpt lat="57.978182975202799" lon="-4.565617041662335">
        <ele>61.18</ele>
        <time>2023-08-24T16:09:57Z</time>
      </trkpt>
      <trkpt lat="57.978157997131348" lon="-4.565533977001905">
        <ele>61.18</ele>
        <time>2023-08-24T16:09:58Z</time>
      </trkpt>
      <trkpt lat="57.978140981867909" lon="-4.5654789917171">
        <ele>61.18</ele>
        <time>2023-08-24T16:09:59Z</time>
      </trkpt>
      <trkpt lat="57.978127989917994" lon="-4.56543599255383">
        <ele>61.18</ele>
        <time>2023-08-24T16:10:00Z</time>
      </trkpt>
      <trkpt lat="57.978120027109981" lon="-4.565410008653998">
        <ele>60.700000000000003</ele>
        <time>2023-08-24T16:10:01Z</time>
      </trkpt>
      <trkpt lat="57.978109968826175" lon="-4.565380001440644">
        <ele>60.700000000000003</ele>
        <time>2023-08-24T16:10:02Z</time>
      </trkpt>
      <trkpt lat="57.977960016578436" lon="-4.565578987821937">
        <ele>57.340000000000003</ele>
        <time>2023-08-24T16:10:17Z</time>
      </trkpt>
      <trkpt lat="57.977898996323347" lon="-4.565631961449981">
        <ele>58.299999999999997</ele>
        <time>2023-08-24T16:10:45Z</time>
      </trkpt>
      <trkpt lat="57.977880975231528" lon="-4.56569298170507">
        <ele>58.780000000000001</ele>
        <time>2023-08-24T16:11:01Z</time>
      </trkpt>
      <trkpt lat="57.977880975231528" lon="-4.56569298170507">
        <ele>58.780000000000001</ele>
        <time>2023-08-24T16:11:25Z</time>
      </trkpt>
      <trkpt lat="57.977882986888289" lon="-4.565703961998224">
        <ele>58.299999999999997</ele>
        <time>2023-08-24T16:11:46Z</time>
      </trkpt>
      <trkpt lat="57.977882986888289" lon="-4.565703961998224">
        <ele>58.299999999999997</ele>
        <time>2023-08-24T16:12:05Z</time>
      </trkpt>
      <trkpt lat="57.977886004373431" lon="-4.565716031938791">
        <ele>57.82</ele>
        <time>2023-08-24T16:12:24Z</time>
      </trkpt>
      <trkpt lat="57.977884998545051" lon="-4.565726006403565">
        <ele>57.340000000000003</ele>
        <time>2023-08-24T16:13:08Z</time>
      </trkpt>
      <trkpt lat="57.977892039343715" lon="-4.565722988918424">
        <ele>57.340000000000003</ele>
        <time>2023-08-24T16:13:55Z</time>
      </trkpt>
      <trkpt lat="57.977888016030192" lon="-4.565725000575185">
        <ele>57.340000000000003</ele>
        <time>2023-08-24T16:14:41Z</time>
      </trkpt>
    </trkseg>
  </trk>

</gpx>